<?xml version='1.0' encoding='UTF-8'?><gpx version="1.1" creator="JPX - https://github.com/jenetics/jpx" xmlns="http://www.topografix.com/GPX/1/1"><trk><trkseg><trkpt lat="45.77133805529053" lon="11.745023709945054"><ele>135.0</ele><time>2026-05-03T07:31:09.998Z</time></trkpt><trkpt lat="45.77129941495613" lon="11.745129935242895"><ele>135.0</ele><time>2026-05-03T07:31:13.998Z</time></trkpt><trkpt lat="45.771188759594956" lon="11.745162533181063"><ele>135.0</ele><time>2026-05-03T07:31:15.998Z</time></trkpt><trkpt lat="45.77106950479708" lon="11.745169184881233"><ele>135.0</ele><time>2026-05-03T07:31:17.998Z</time></trkpt><trkpt lat="45.77100453604745" lon="11.745177814565642"><ele>135.0</ele><time>2026-05-03T07:31:18.998Z</time></trkpt><trkpt lat="45.77091025020566" lon="11.745215593100303"><ele>134.4</ele><time>2026-05-03T07:31:20.998Z</time></trkpt><trkpt lat="45.770827440675376" lon="11.745239139005468"><ele>133.8</ele><time>2026-05-03T07:31:23.998Z</time></trkpt><trkpt lat="45.770840797824" lon="11.74553242191166"><ele>133.2</ele><time>2026-05-03T07:31:27.999Z</time></trkpt><trkpt lat="45.77086183086155" lon="11.745646391657345"><ele>132.6</ele><time>2026-05-03T07:31:28.999Z</time></trkpt><trkpt lat="45.77087698981938" lon="11.745750814596144"><ele>132.0</ele><time>2026-05-03T07:31:29.999Z</time></trkpt><trkpt lat="45.770891849055886" lon="11.745850353273653"><ele>132.0</ele><time>2026-05-03T07:31:30.999Z</time></trkpt><trkpt lat="45.770901076755244" lon="11.74595552428263"><ele>132.0</ele><time>2026-05-03T07:31:31.999Z</time></trkpt><trkpt lat="45.77091290433296" lon="11.74606442259939"><ele>132.0</ele><time>2026-05-03T07:31:32.999Z</time></trkpt><trkpt lat="45.770926045802774" lon="11.746156624253954"><ele>132.0</ele><time>2026-05-03T07:31:33.999Z</time></trkpt><trkpt lat="45.77093492621898" lon="11.746253189927291"><ele>132.0</ele><time>2026-05-03T07:31:34.999Z</time></trkpt><trkpt lat="45.770951873839785" lon="11.74636651569568"><ele>132.0</ele><time>2026-05-03T07:31:35.999Z</time></trkpt><trkpt lat="45.7709656355379" lon="11.746491867549311"><ele>132.2</ele><time>2026-05-03T07:31:36.999Z</time></trkpt><trkpt lat="45.770976267474275" lon="11.74661283026336"><ele>132.39999999999998</ele><time>2026-05-03T07:31:37.999Z</time></trkpt><trkpt lat="45.77099127969935" lon="11.746732559862876"><ele>132.60000000000002</ele><time>2026-05-03T07:31:38.999Z</time></trkpt><trkpt lat="45.77100697218052" lon="11.746851457244459"><ele>132.8</ele><time>2026-05-03T07:31:39.999Z</time></trkpt><trkpt lat="45.77102465574351" lon="11.74698707180811"><ele>133.0</ele><time>2026-05-03T07:31:40.999Z</time></trkpt><trkpt lat="45.77104371965013" lon="11.747133363802805"><ele>133.0</ele><time>2026-05-03T07:31:41.999Z</time></trkpt><trkpt lat="45.771058292060644" lon="11.747275788597445"><ele>133.0</ele><time>2026-05-03T07:31:42.999Z</time></trkpt><trkpt lat="45.771069023481516" lon="11.747409878492068"><ele>133.0</ele><time>2026-05-03T07:31:43.999Z</time></trkpt><trkpt lat="45.7710878232244" lon="11.747533516412513"><ele>133.0</ele><time>2026-05-03T07:31:44.999Z</time></trkpt><trkpt lat="45.77110336564693" lon="11.747657580133904"><ele>133.0</ele><time>2026-05-03T07:31:45.999Z</time></trkpt><trkpt lat="45.77111900075956" lon="11.747786749400822"><ele>132.83333333333334</ele><time>2026-05-03T07:31:46.999Z</time></trkpt><trkpt lat="45.77113604139313" lon="11.747916436752302"><ele>132.66666666666669</ele><time>2026-05-03T07:31:47.999Z</time></trkpt><trkpt lat="45.77115108034626" lon="11.748032211848848"><ele>132.5</ele><time>2026-05-03T07:31:48.999Z</time></trkpt><trkpt lat="45.77116018303191" lon="11.748162207203388"><ele>132.33333333333334</ele><time>2026-05-03T07:31:49.999Z</time></trkpt><trkpt lat="45.77117480370407" lon="11.748283280519878"><ele>132.16666666666666</ele><time>2026-05-03T07:31:50.999Z</time></trkpt><trkpt lat="45.77119225713622" lon="11.748403292825573"><ele>132.0</ele><time>2026-05-03T07:31:51.999Z</time></trkpt><trkpt lat="45.77120399200165" lon="11.748527098599437"><ele>131.83333333333334</ele><time>2026-05-03T07:31:52.999Z</time></trkpt><trkpt lat="45.77121764916327" lon="11.74865267027069"><ele>131.66666666666666</ele><time>2026-05-03T07:31:53.999Z</time></trkpt><trkpt lat="45.77123024595089" lon="11.748772472471252"><ele>131.5</ele><time>2026-05-03T07:31:54.999Z</time></trkpt><trkpt lat="45.77124631706429" lon="11.748892116571604"><ele>131.33333333333331</ele><time>2026-05-03T07:31:55.999Z</time></trkpt><trkpt lat="45.771256896254606" lon="11.748995812121473"><ele>131.16666666666666</ele><time>2026-05-03T07:31:56.999Z</time></trkpt><trkpt lat="45.77127904661189" lon="11.749105654232537"><ele>131.0</ele><time>2026-05-03T07:31:58.999Z</time></trkpt><trkpt lat="45.77130859336778" lon="11.749208736651608"><ele>131.0</ele><time>2026-05-03T07:32:05.999Z</time></trkpt><trkpt lat="45.771423891376266" lon="11.749191991518751"><ele>131.0</ele><time>2026-05-03T07:32:07.999Z</time></trkpt><trkpt lat="45.77151265016142" lon="11.749148730417977"><ele>131.0</ele><time>2026-05-03T07:32:08.999Z</time></trkpt><trkpt lat="45.77160680633044" lon="11.749113806198059"><ele>131.0</ele><time>2026-05-03T07:32:09.999Z</time></trkpt><trkpt lat="45.77172133601522" lon="11.749067430243956"><ele>131.0</ele><time>2026-05-03T07:32:10.999Z</time></trkpt><trkpt lat="45.77182918933257" lon="11.749031022090195"><ele>131.0</ele><time>2026-05-03T07:32:11.999Z</time></trkpt><trkpt lat="45.77193023962673" lon="11.7489982614935"><ele>131.0</ele><time>2026-05-03T07:32:12.999Z</time></trkpt><trkpt lat="45.77204483953381" lon="11.748977631333037"><ele>131.0</ele><time>2026-05-03T07:32:13.999Z</time></trkpt><trkpt lat="45.77216293902419" lon="11.748992469540493"><ele>131.0</ele><time>2026-05-03T07:32:14.999Z</time></trkpt><trkpt lat="45.77227445780587" lon="11.74898295251718"><ele>131.0</ele><time>2026-05-03T07:32:15.999Z</time></trkpt><trkpt lat="45.77237391331922" lon="11.748952927220097"><ele>131.0</ele><time>2026-05-03T07:32:16.999Z</time></trkpt><trkpt lat="45.77248250073421" lon="11.748947748816738"><ele>131.0</ele><time>2026-05-03T07:32:17.999Z</time></trkpt><trkpt lat="45.77260006168341" lon="11.748933024500912"><ele>131.0</ele><time>2026-05-03T07:32:18.999Z</time></trkpt><trkpt lat="45.77271546624134" lon="11.74890719650081"><ele>131.0</ele><time>2026-05-03T07:32:19.999Z</time></trkpt><trkpt lat="45.77283608357871" lon="11.74888163286911"><ele>131.5</ele><time>2026-05-03T07:32:20.999Z</time></trkpt><trkpt lat="45.77295269743674" lon="11.74884924069865"><ele>132.0</ele><time>2026-05-03T07:32:21.999Z</time></trkpt><trkpt lat="45.77306862946968" lon="11.74882432682291"><ele>132.5</ele><time>2026-05-03T07:32:22.999Z</time></trkpt><trkpt lat="45.77318459970558" lon="11.748821475847008"><ele>133.0</ele><time>2026-05-03T07:32:23.999Z</time></trkpt><trkpt lat="45.77330071892845" lon="11.748796968204879"><ele>133.0</ele><time>2026-05-03T07:32:24.999Z</time></trkpt><trkpt lat="45.77341723249826" lon="11.748772736221865"><ele>133.0</ele><time>2026-05-03T07:32:25.999Z</time></trkpt><trkpt lat="45.77352460211286" lon="11.748750830051662"><ele>133.0</ele><time>2026-05-03T07:32:26.999Z</time></trkpt><trkpt lat="45.773614384277536" lon="11.7487337569994"><ele>133.0</ele><time>2026-05-03T07:32:27.999Z</time></trkpt><trkpt lat="45.77368434929963" lon="11.748720452392043"><ele>133.0</ele><time>2026-05-03T07:32:28.999Z</time></trkpt><trkpt lat="45.77379509385114" lon="11.748698043295786"><ele>133.0</ele><time>2026-05-03T07:32:30.999Z</time></trkpt><trkpt lat="45.773911552449576" lon="11.74866750049093"><ele>133.0</ele><time>2026-05-03T07:32:32.999Z</time></trkpt><trkpt lat="45.77398213366172" lon="11.748640756087088"><ele>133.0</ele><time>2026-05-03T07:32:33.999Z</time></trkpt><trkpt lat="45.7740621871711" lon="11.748606506666574"><ele>133.0</ele><time>2026-05-03T07:32:34.999Z</time></trkpt><trkpt lat="45.77413680476651" lon="11.748546900050226"><ele>133.0</ele><time>2026-05-03T07:32:35.999Z</time></trkpt><trkpt lat="45.77422864828126" lon="11.74853135826757"><ele>133.0</ele><time>2026-05-03T07:32:37.999Z</time></trkpt><trkpt lat="45.774317923326436" lon="11.748633266701441"><ele>133.0</ele><time>2026-05-03T07:32:39.999Z</time></trkpt><trkpt lat="45.77439607811415" lon="11.748707845303091"><ele>133.0</ele><time>2026-05-03T07:32:40.999Z</time></trkpt><trkpt lat="45.774495744277964" lon="11.748773836127587"><ele>133.0</ele><time>2026-05-03T07:32:41.998Z</time></trkpt><trkpt lat="45.774601170654904" lon="11.748832970728982"><ele>133.0</ele><time>2026-05-03T07:32:42.998Z</time></trkpt><trkpt lat="45.77471247589932" lon="11.748884126662892"><ele>133.25</ele><time>2026-05-03T07:32:43.998Z</time></trkpt><trkpt lat="45.77483566612324" lon="11.748938166670303"><ele>133.5</ele><time>2026-05-03T07:32:44.998Z</time></trkpt><trkpt lat="45.77495072405527" lon="11.748987611894341"><ele>133.75</ele><time>2026-05-03T07:32:45.998Z</time></trkpt><trkpt lat="45.77506732284404" lon="11.74904071948811"><ele>134.0</ele><time>2026-05-03T07:32:46.998Z</time></trkpt><trkpt lat="45.77518800948802" lon="11.749102830598666"><ele>134.25</ele><time>2026-05-03T07:32:47.998Z</time></trkpt><trkpt lat="45.775314330440104" lon="11.749154464475609"><ele>134.5</ele><time>2026-05-03T07:32:48.998Z</time></trkpt><trkpt lat="45.7754363428365" lon="11.749205482497555"><ele>134.75</ele><time>2026-05-03T07:32:49.998Z</time></trkpt><trkpt lat="45.77555421545484" lon="11.74926616578285"><ele>135.0</ele><time>2026-05-03T07:32:50.998Z</time></trkpt><trkpt lat="45.77567112765339" lon="11.749314025323923"><ele>135.5</ele><time>2026-05-03T07:32:51.998Z</time></trkpt><trkpt lat="45.77601690160373" lon="11.749439717689372"><ele>136.0</ele><time>2026-05-03T07:32:54.998Z</time></trkpt><trkpt lat="45.77614480151109" lon="11.74940459023186"><ele>136.0</ele><time>2026-05-03T07:32:55.998Z</time></trkpt><trkpt lat="45.7762678539081" lon="11.749287814356897"><ele>136.0</ele><time>2026-05-03T07:32:56.998Z</time></trkpt><trkpt lat="45.77640066560384" lon="11.749220515642126"><ele>136.0</ele><time>2026-05-03T07:32:57.998Z</time></trkpt><trkpt lat="45.77652715364696" lon="11.749112026551929"><ele>136.0</ele><time>2026-05-03T07:32:58.998Z</time></trkpt><trkpt lat="45.77665723907188" lon="11.74901460989894"><ele>136.0</ele><time>2026-05-03T07:32:59.998Z</time></trkpt><trkpt lat="45.77678159367574" lon="11.748926999341661"><ele>136.0</ele><time>2026-05-03T07:33:00.998Z</time></trkpt><trkpt lat="45.77690920429028" lon="11.748840174911889"><ele>136.0</ele><time>2026-05-03T07:33:01.998Z</time></trkpt><trkpt lat="45.777036989041356" lon="11.748743496295027"><ele>136.0</ele><time>2026-05-03T07:33:02.998Z</time></trkpt><trkpt lat="45.777163161289195" lon="11.748661192038089"><ele>135.75</ele><time>2026-05-03T07:33:03.998Z</time></trkpt><trkpt lat="45.77728565048138" lon="11.748582052091416"><ele>135.5</ele><time>2026-05-03T07:33:04.998Z</time></trkpt><trkpt lat="45.777408310176554" lon="11.74850130680219"><ele>135.25</ele><time>2026-05-03T07:33:05.998Z</time></trkpt><trkpt lat="45.77753511421411" lon="11.748417728011496"><ele>135.0</ele><time>2026-05-03T07:33:06.998Z</time></trkpt><trkpt lat="45.777676523152124" lon="11.748392903073295"><ele>134.5</ele><time>2026-05-03T07:33:07.998Z</time></trkpt><trkpt lat="45.77782351910346" lon="11.748376698455406"><ele>134.0</ele><time>2026-05-03T07:33:08.998Z</time></trkpt><trkpt lat="45.777971266727825" lon="11.74835920057376"><ele>133.5</ele><time>2026-05-03T07:33:09.998Z</time></trkpt><trkpt lat="45.77811383489679" lon="11.74832900348186"><ele>133.0</ele><time>2026-05-03T07:33:10.998Z</time></trkpt><trkpt lat="45.77824222494681" lon="11.74831525232808"><ele>133.0</ele><time>2026-05-03T07:33:11.998Z</time></trkpt><trkpt lat="45.778344595949115" lon="11.748304651850974"><ele>133.0</ele><time>2026-05-03T07:33:12.998Z</time></trkpt><trkpt lat="45.778432146137725" lon="11.748293629661319"><ele>133.0</ele><time>2026-05-03T07:33:13.998Z</time></trkpt><trkpt lat="45.7785138088818" lon="11.748276158844734"><ele>133.0</ele><time>2026-05-03T07:33:14.998Z</time></trkpt><trkpt lat="45.7785895611177" lon="11.748267542927373"><ele>133.0</ele><time>2026-05-03T07:33:15.998Z</time></trkpt><trkpt lat="45.77867308913001" lon="11.748275405216152"><ele>133.0</ele><time>2026-05-03T07:33:16.998Z</time></trkpt><trkpt lat="45.778754705537274" lon="11.748297833729174"><ele>133.4</ele><time>2026-05-03T07:33:17.998Z</time></trkpt><trkpt lat="45.77882642446695" lon="11.748358862503792"><ele>133.8</ele><time>2026-05-03T07:33:18.998Z</time></trkpt><trkpt lat="45.77889230534196" lon="11.748310155541171"><ele>134.2</ele><time>2026-05-03T07:33:19.998Z</time></trkpt><trkpt lat="45.77896373090793" lon="11.748203122559222"><ele>134.6</ele><time>2026-05-03T07:33:20.998Z</time></trkpt><trkpt lat="45.77905886483971" lon="11.748085287015511"><ele>135.0</ele><time>2026-05-03T07:33:21.998Z</time></trkpt><trkpt lat="45.77917210037228" lon="11.747995735111264"><ele>135.0</ele><time>2026-05-03T07:33:22.998Z</time></trkpt><trkpt lat="45.77928911706875" lon="11.74790237289263"><ele>135.0</ele><time>2026-05-03T07:33:23.998Z</time></trkpt><trkpt lat="45.7794180804755" lon="11.747795031390107"><ele>135.0</ele><time>2026-05-03T07:33:24.998Z</time></trkpt><trkpt lat="45.779553371941866" lon="11.747688076416665"><ele>135.0</ele><time>2026-05-03T07:33:25.998Z</time></trkpt><trkpt lat="45.77967726826397" lon="11.747594729365055"><ele>136.25</ele><time>2026-05-03T07:33:26.998Z</time></trkpt><trkpt lat="45.77980695657549" lon="11.747496908446395"><ele>137.5</ele><time>2026-05-03T07:33:27.998Z</time></trkpt><trkpt lat="45.779941133193574" lon="11.74739831659296"><ele>138.75</ele><time>2026-05-03T07:33:28.998Z</time></trkpt><trkpt lat="45.78006038133545" lon="11.747299929953487"><ele>140.0</ele><time>2026-05-03T07:33:29.998Z</time></trkpt><trkpt lat="45.780179011081586" lon="11.74720060591455"><ele>139.75</ele><time>2026-05-03T07:33:30.998Z</time></trkpt><trkpt lat="45.78029534158961" lon="11.747107308194186"><ele>139.5</ele><time>2026-05-03T07:33:31.998Z</time></trkpt><trkpt lat="45.78041229555851" lon="11.747019658347762"><ele>139.25</ele><time>2026-05-03T07:33:32.998Z</time></trkpt><trkpt lat="45.78052908725384" lon="11.746933154384909"><ele>139.0</ele><time>2026-05-03T07:33:33.998Z</time></trkpt><trkpt lat="45.78064438717623" lon="11.746845819383045"><ele>138.4</ele><time>2026-05-03T07:33:34.999Z</time></trkpt><trkpt lat="45.7807547421583" lon="11.746761429380337"><ele>137.8</ele><time>2026-05-03T07:33:35.999Z</time></trkpt><trkpt lat="45.780849834049064" lon="11.746682913559676"><ele>137.2</ele><time>2026-05-03T07:33:36.999Z</time></trkpt><trkpt lat="45.78093440258907" lon="11.746612107019176"><ele>136.6</ele><time>2026-05-03T07:33:37.999Z</time></trkpt><trkpt lat="45.7810089143107" lon="11.746546462083254"><ele>136.0</ele><time>2026-05-03T07:33:38.999Z</time></trkpt><trkpt lat="45.7810695719057" lon="11.746501637841389"><ele>135.8</ele><time>2026-05-03T07:33:39.999Z</time></trkpt><trkpt lat="45.781172741908954" lon="11.746443769757672"><ele>135.6</ele><time>2026-05-03T07:33:41.999Z</time></trkpt><trkpt lat="45.781240262492496" lon="11.746394726472817"><ele>135.4</ele><time>2026-05-03T07:33:43.999Z</time></trkpt><trkpt lat="45.781341317400845" lon="11.746515810303334"><ele>135.2</ele><time>2026-05-03T07:33:45.999Z</time></trkpt><trkpt lat="45.781402207403694" lon="11.746633523106121"><ele>135.0</ele><time>2026-05-03T07:33:46.999Z</time></trkpt><trkpt lat="45.78147022055205" lon="11.746772341494907"><ele>135.5</ele><time>2026-05-03T07:33:47.999Z</time></trkpt><trkpt lat="45.7815343820723" lon="11.746908890911685"><ele>136.0</ele><time>2026-05-03T07:33:48.999Z</time></trkpt><trkpt lat="45.78160415329855" lon="11.747047186821629"><ele>136.5</ele><time>2026-05-03T07:33:49.999Z</time></trkpt><trkpt lat="45.781678637094586" lon="11.747192143453624"><ele>137.0</ele><time>2026-05-03T07:33:50.999Z</time></trkpt><trkpt lat="45.78175243417259" lon="11.747341155454405"><ele>137.0</ele><time>2026-05-03T07:33:51.999Z</time></trkpt><trkpt lat="45.781832260261" lon="11.74748662818756"><ele>137.0</ele><time>2026-05-03T07:33:52.999Z</time></trkpt><trkpt lat="45.781916621121844" lon="11.747640710066541"><ele>137.0</ele><time>2026-05-03T07:33:53.999Z</time></trkpt><trkpt lat="45.78199484205475" lon="11.7477850746749"><ele>137.0</ele><time>2026-05-03T07:33:54.999Z</time></trkpt><trkpt lat="45.7820721787065" lon="11.747930770276728"><ele>138.0</ele><time>2026-05-03T07:33:55.999Z</time></trkpt><trkpt lat="45.78214796233516" lon="11.748073098772572"><ele>139.0</ele><time>2026-05-03T07:33:56.999Z</time></trkpt><trkpt lat="45.78222644953713" lon="11.748219493543033"><ele>140.0</ele><time>2026-05-03T07:33:57.999Z</time></trkpt><trkpt lat="45.78231079425274" lon="11.748380366380845"><ele>141.0</ele><time>2026-05-03T07:33:58.999Z</time></trkpt><trkpt lat="45.78240383770093" lon="11.748549389921086"><ele>141.0</ele><time>2026-05-03T07:33:59.999Z</time></trkpt><trkpt lat="45.782499320638856" lon="11.74873067907527"><ele>141.0</ele><time>2026-05-03T07:34:00.999Z</time></trkpt><trkpt lat="45.78259747711709" lon="11.748903495944562"><ele>141.0</ele><time>2026-05-03T07:34:01.999Z</time></trkpt><trkpt lat="45.782697400689244" lon="11.74907780298"><ele>141.33333333333334</ele><time>2026-05-03T07:34:02.999Z</time></trkpt><trkpt lat="45.782804674240474" lon="11.749235703628123"><ele>141.66666666666669</ele><time>2026-05-03T07:34:03.999Z</time></trkpt><trkpt lat="45.78290042029951" lon="11.74940221729065"><ele>142.0</ele><time>2026-05-03T07:34:04.999Z</time></trkpt><trkpt lat="45.78299206847565" lon="11.749565919484116"><ele>142.25</ele><time>2026-05-03T07:34:05.999Z</time></trkpt><trkpt lat="45.78308562307539" lon="11.749729260500835"><ele>142.5</ele><time>2026-05-03T07:34:06.999Z</time></trkpt><trkpt lat="45.783184987409186" lon="11.749886041905532"><ele>142.75</ele><time>2026-05-03T07:34:07.999Z</time></trkpt><trkpt lat="45.78328556998467" lon="11.750045012174178"><ele>143.0</ele><time>2026-05-03T07:34:08.999Z</time></trkpt><trkpt lat="45.78338000253347" lon="11.750210828072621"><ele>143.0</ele><time>2026-05-03T07:34:09.999Z</time></trkpt><trkpt lat="45.78348013964422" lon="11.750371500035213"><ele>143.0</ele><time>2026-05-03T07:34:10.999Z</time></trkpt><trkpt lat="45.78358821944857" lon="11.750547789284443"><ele>143.0</ele><time>2026-05-03T07:34:11.999Z</time></trkpt><trkpt lat="45.78369667474908" lon="11.750728148324862"><ele>143.0</ele><time>2026-05-03T07:34:12.999Z</time></trkpt><trkpt lat="45.7838076898482" lon="11.750905296319422"><ele>143.0</ele><time>2026-05-03T07:34:13.999Z</time></trkpt><trkpt lat="45.78391944401086" lon="11.751076014661962"><ele>143.0</ele><time>2026-05-03T07:34:14.999Z</time></trkpt><trkpt lat="45.7840310613556" lon="11.75123544491186"><ele>142.75</ele><time>2026-05-03T07:34:15.999Z</time></trkpt><trkpt lat="45.78415256385971" lon="11.751378558254265"><ele>142.5</ele><time>2026-05-03T07:34:16.999Z</time></trkpt><trkpt lat="45.78426056702008" lon="11.751518548464723"><ele>142.25</ele><time>2026-05-03T07:34:17.999Z</time></trkpt><trkpt lat="45.784375488034165" lon="11.751642521918258"><ele>142.0</ele><time>2026-05-03T07:34:18.999Z</time></trkpt><trkpt lat="45.78449421947983" lon="11.751761577320204"><ele>141.75</ele><time>2026-05-03T07:34:19.999Z</time></trkpt><trkpt lat="45.78461246639517" lon="11.751884668817508"><ele>141.5</ele><time>2026-05-03T07:34:20.999Z</time></trkpt><trkpt lat="45.78473048469608" lon="11.752003919118588"><ele>141.25</ele><time>2026-05-03T07:34:21.999Z</time></trkpt><trkpt lat="45.78484604299265" lon="11.752110750821801"><ele>141.0</ele><time>2026-05-03T07:34:22.999Z</time></trkpt><trkpt lat="45.7849624953554" lon="11.752220429480763"><ele>141.0</ele><time>2026-05-03T07:34:23.999Z</time></trkpt><trkpt lat="45.78507258602467" lon="11.752331049872662"><ele>141.0</ele><time>2026-05-03T07:34:24.998Z</time></trkpt><trkpt lat="45.78518650886612" lon="11.75243937420813"><ele>141.0</ele><time>2026-05-03T07:34:25.998Z</time></trkpt><trkpt lat="45.78529687610682" lon="11.75254739213358"><ele>141.0</ele><time>2026-05-03T07:34:26.998Z</time></trkpt><trkpt lat="45.785398080551865" lon="11.752644686949095"><ele>141.25</ele><time>2026-05-03T07:34:27.998Z</time></trkpt><trkpt lat="45.78549523861518" lon="11.752741771729697"><ele>141.5</ele><time>2026-05-03T07:34:28.998Z</time></trkpt><trkpt lat="45.785592318652775" lon="11.752838156706536"><ele>141.75</ele><time>2026-05-03T07:34:29.998Z</time></trkpt><trkpt lat="45.78568634563818" lon="11.752935693394523"><ele>142.0</ele><time>2026-05-03T07:34:30.998Z</time></trkpt><trkpt lat="45.785784618287856" lon="11.753026179591172"><ele>142.0</ele><time>2026-05-03T07:34:31.998Z</time></trkpt><trkpt lat="45.78588130836645" lon="11.753117637724932"><ele>142.0</ele><time>2026-05-03T07:34:32.998Z</time></trkpt><trkpt lat="45.78596759619939" lon="11.753216835244704"><ele>142.0</ele><time>2026-05-03T07:34:33.998Z</time></trkpt><trkpt lat="45.78605518639881" lon="11.753320516561848"><ele>142.0</ele><time>2026-05-03T07:34:34.998Z</time></trkpt><trkpt lat="45.78614244407497" lon="11.753432624629578"><ele>143.2</ele><time>2026-05-03T07:34:35.998Z</time></trkpt><trkpt lat="45.78622794301137" lon="11.753520240011909"><ele>144.39999999999998</ele><time>2026-05-03T07:34:36.998Z</time></trkpt><trkpt lat="45.78630549893424" lon="11.753608469980154"><ele>145.60000000000002</ele><time>2026-05-03T07:34:37.998Z</time></trkpt><trkpt lat="45.786388531218215" lon="11.753700878120748"><ele>146.8</ele><time>2026-05-03T07:34:38.998Z</time></trkpt><trkpt lat="45.78647919870766" lon="11.753813531429342"><ele>148.0</ele><time>2026-05-03T07:34:39.998Z</time></trkpt><trkpt lat="45.786569690578474" lon="11.753934551320802"><ele>148.20000000000002</ele><time>2026-05-03T07:34:40.998Z</time></trkpt><trkpt lat="45.78665865941091" lon="11.754049278058062"><ele>148.4</ele><time>2026-05-03T07:34:41.998Z</time></trkpt><trkpt lat="45.78674477405986" lon="11.754147742403863"><ele>148.60000000000002</ele><time>2026-05-03T07:34:42.998Z</time></trkpt><trkpt lat="45.786832702623784" lon="11.754228711998335"><ele>148.8</ele><time>2026-05-03T07:34:43.998Z</time></trkpt><trkpt lat="45.78692135071988" lon="11.754292785653243"><ele>149.0</ele><time>2026-05-03T07:34:44.998Z</time></trkpt><trkpt lat="45.787011240530646" lon="11.754348632692073"><ele>149.6</ele><time>2026-05-03T07:34:45.998Z</time></trkpt><trkpt lat="45.78710377570169" lon="11.754404281592533"><ele>150.2</ele><time>2026-05-03T07:34:46.998Z</time></trkpt><trkpt lat="45.78721018231173" lon="11.75445454323452"><ele>150.79999999999998</ele><time>2026-05-03T07:34:47.998Z</time></trkpt><trkpt lat="45.78731501970845" lon="11.754498439005133"><ele>151.4</ele><time>2026-05-03T07:34:48.998Z</time></trkpt><trkpt lat="45.78742562996951" lon="11.754549310053804"><ele>152.0</ele><time>2026-05-03T07:34:49.998Z</time></trkpt><trkpt lat="45.7875460733884" lon="11.754592053368981"><ele>152.0</ele><time>2026-05-03T07:34:50.998Z</time></trkpt><trkpt lat="45.78766613420708" lon="11.754633232017525"><ele>152.0</ele><time>2026-05-03T07:34:51.998Z</time></trkpt><trkpt lat="45.78777743612719" lon="11.754669324167583"><ele>152.0</ele><time>2026-05-03T07:34:52.998Z</time></trkpt><trkpt lat="45.78787987108085" lon="11.754692620242379"><ele>152.0</ele><time>2026-05-03T07:34:53.998Z</time></trkpt><trkpt lat="45.78795523348919" lon="11.75471520018404"><ele>152.0</ele><time>2026-05-03T07:34:54.998Z</time></trkpt><trkpt lat="45.78807640139464" lon="11.754741996979085"><ele>151.79999999999998</ele><time>2026-05-03T07:34:56.998Z</time></trkpt><trkpt lat="45.78814708815262" lon="11.754770059548498"><ele>151.6</ele><time>2026-05-03T07:34:57.998Z</time></trkpt><trkpt lat="45.788243148045524" lon="11.754797868161168"><ele>151.39999999999998</ele><time>2026-05-03T07:34:58.998Z</time></trkpt><trkpt lat="45.78835997572224" lon="11.754832321108541"><ele>151.2</ele><time>2026-05-03T07:34:59.998Z</time></trkpt><trkpt lat="45.78849432012273" lon="11.754864546934101"><ele>151.0</ele><time>2026-05-03T07:35:00.998Z</time></trkpt><trkpt lat="45.78863416727238" lon="11.754903910357047"><ele>151.75</ele><time>2026-05-03T07:35:01.998Z</time></trkpt><trkpt lat="45.78875773898798" lon="11.754942128322702"><ele>152.5</ele><time>2026-05-03T07:35:02.998Z</time></trkpt><trkpt lat="45.788873282143264" lon="11.754987352960372"><ele>153.25</ele><time>2026-05-03T07:35:03.998Z</time></trkpt><trkpt lat="45.789002601268194" lon="11.755028609862507"><ele>154.0</ele><time>2026-05-03T07:35:04.998Z</time></trkpt><trkpt lat="45.7891357600546" lon="11.755062016700894"><ele>154.0</ele><time>2026-05-03T07:35:05.998Z</time></trkpt><trkpt lat="45.78927247099427" lon="11.75509191538328"><ele>154.0</ele><time>2026-05-03T07:35:06.998Z</time></trkpt><trkpt lat="45.78941471269334" lon="11.75511178561625"><ele>154.0</ele><time>2026-05-03T07:35:07.998Z</time></trkpt><trkpt lat="45.78955846570374" lon="11.75512377695509"><ele>154.0</ele><time>2026-05-03T07:35:08.998Z</time></trkpt><trkpt lat="45.78970832446244" lon="11.755131689144918"><ele>154.0</ele><time>2026-05-03T07:35:09.998Z</time></trkpt><trkpt lat="45.78986015157484" lon="11.755149595817656"><ele>154.0</ele><time>2026-05-03T07:35:10.998Z</time></trkpt><trkpt lat="45.79001411344208" lon="11.755170582184528"><ele>154.0</ele><time>2026-05-03T07:35:11.998Z</time></trkpt><trkpt lat="45.79016674949188" lon="11.755197858731274"><ele>154.66666666666669</ele><time>2026-05-03T07:35:12.998Z</time></trkpt><trkpt lat="45.79031610651056" lon="11.755235994556633"><ele>155.33333333333334</ele><time>2026-05-03T07:35:13.998Z</time></trkpt><trkpt lat="45.79046570063722" lon="11.755289692520751"><ele>156.0</ele><time>2026-05-03T07:35:14.998Z</time></trkpt><trkpt lat="45.79061323655422" lon="11.755368255552083"><ele>156.0</ele><time>2026-05-03T07:35:15.998Z</time></trkpt><trkpt lat="45.79076104062791" lon="11.755449108888557"><ele>156.0</ele><time>2026-05-03T07:35:16.997Z</time></trkpt><trkpt lat="45.79090782787798" lon="11.75553132818224"><ele>156.0</ele><time>2026-05-03T07:35:17.997Z</time></trkpt><trkpt lat="45.79106364380975" lon="11.755612627485704"><ele>156.0</ele><time>2026-05-03T07:35:18.997Z</time></trkpt><trkpt lat="45.79122543568175" lon="11.755690447688657"><ele>156.0</ele><time>2026-05-03T07:35:19.997Z</time></trkpt><trkpt lat="45.79138885609042" lon="11.755777720177914"><ele>156.0</ele><time>2026-05-03T07:35:20.997Z</time></trkpt><trkpt lat="45.79155727845575" lon="11.755868907111244"><ele>156.0</ele><time>2026-05-03T07:35:21.997Z</time></trkpt><trkpt lat="45.79172246616132" lon="11.755956386700626"><ele>156.0</ele><time>2026-05-03T07:35:22.997Z</time></trkpt><trkpt lat="45.79188061271105" lon="11.756037306302122"><ele>156.0</ele><time>2026-05-03T07:35:23.997Z</time></trkpt><trkpt lat="45.79204098342997" lon="11.756121419827423"><ele>157.0</ele><time>2026-05-03T07:35:24.998Z</time></trkpt><trkpt lat="45.792199590989476" lon="11.756204531570042"><ele>158.0</ele><time>2026-05-03T07:35:25.998Z</time></trkpt><trkpt lat="45.7923611437744" lon="11.756289504870434"><ele>159.0</ele><time>2026-05-03T07:35:26.998Z</time></trkpt><trkpt lat="45.792521937893575" lon="11.756377503890052"><ele>159.33333333333334</ele><time>2026-05-03T07:35:27.998Z</time></trkpt><trkpt lat="45.79268005499324" lon="11.756462643003664"><ele>159.66666666666669</ele><time>2026-05-03T07:35:28.998Z</time></trkpt><trkpt lat="45.79284084064576" lon="11.756545020856295"><ele>160.0</ele><time>2026-05-03T07:35:29.998Z</time></trkpt><trkpt lat="45.79300290617041" lon="11.756634983898245"><ele>160.0</ele><time>2026-05-03T07:35:30.998Z</time></trkpt><trkpt lat="45.793163274614336" lon="11.756719968444997"><ele>160.0</ele><time>2026-05-03T07:35:31.998Z</time></trkpt><trkpt lat="45.793330050353184" lon="11.756804584820022"><ele>160.0</ele><time>2026-05-03T07:35:32.998Z</time></trkpt><trkpt lat="45.79349200752903" lon="11.756889794667124"><ele>161.0</ele><time>2026-05-03T07:35:33.998Z</time></trkpt><trkpt lat="45.79365613469291" lon="11.75697719071823"><ele>162.0</ele><time>2026-05-03T07:35:34.998Z</time></trkpt><trkpt lat="45.7938199478136" lon="11.757064863198163"><ele>163.0</ele><time>2026-05-03T07:35:35.998Z</time></trkpt><trkpt lat="45.79398032995172" lon="11.757144497498011"><ele>163.0</ele><time>2026-05-03T07:35:36.998Z</time></trkpt><trkpt lat="45.79414019339255" lon="11.757226230851234"><ele>163.0</ele><time>2026-05-03T07:35:37.998Z</time></trkpt><trkpt lat="45.79430069384688" lon="11.75730596276146"><ele>163.0</ele><time>2026-05-03T07:35:38.998Z</time></trkpt><trkpt lat="45.794458454536006" lon="11.757396194767395"><ele>163.66666666666669</ele><time>2026-05-03T07:35:39.998Z</time></trkpt><trkpt lat="45.794623190822946" lon="11.757480393369242"><ele>164.33333333333334</ele><time>2026-05-03T07:35:40.998Z</time></trkpt><trkpt lat="45.794782498222226" lon="11.757561513617393"><ele>165.0</ele><time>2026-05-03T07:35:41.998Z</time></trkpt><trkpt lat="45.7949383346051" lon="11.75764031790559"><ele>165.66666666666666</ele><time>2026-05-03T07:35:42.998Z</time></trkpt><trkpt lat="45.795097132495314" lon="11.757723224301628"><ele>166.33333333333331</ele><time>2026-05-03T07:35:43.998Z</time></trkpt><trkpt lat="45.79524870084694" lon="11.757807862320757"><ele>167.0</ele><time>2026-05-03T07:35:44.998Z</time></trkpt><trkpt lat="45.79538901306222" lon="11.757879765543441"><ele>167.25</ele><time>2026-05-03T07:35:45.998Z</time></trkpt><trkpt lat="45.79551940123811" lon="11.757939500221408"><ele>167.5</ele><time>2026-05-03T07:35:46.998Z</time></trkpt><trkpt lat="45.79563872205586" lon="11.758003954723268"><ele>167.75</ele><time>2026-05-03T07:35:47.998Z</time></trkpt><trkpt lat="45.79575012787044" lon="11.758058257724995"><ele>168.0</ele><time>2026-05-03T07:35:48.998Z</time></trkpt><trkpt lat="45.79584578081295" lon="11.758115167681954"><ele>168.0</ele><time>2026-05-03T07:35:49.998Z</time></trkpt><trkpt lat="45.7959360229905" lon="11.758168294505225"><ele>168.0</ele><time>2026-05-03T07:35:50.998Z</time></trkpt><trkpt lat="45.79601759650711" lon="11.758226806277495"><ele>168.0</ele><time>2026-05-03T07:35:51.998Z</time></trkpt><trkpt lat="45.796088053337755" lon="11.758277748827506"><ele>168.0</ele><time>2026-05-03T07:35:52.998Z</time></trkpt><trkpt lat="45.79613232583504" lon="11.758357425457513"><ele>168.0</ele><time>2026-05-03T07:35:53.998Z</time></trkpt><trkpt lat="45.79617109745432" lon="11.758459613373214"><ele>168.0</ele><time>2026-05-03T07:35:54.998Z</time></trkpt><trkpt lat="45.79623149070589" lon="11.75855007729198"><ele>168.75</ele><time>2026-05-03T07:35:55.999Z</time></trkpt><trkpt lat="45.79631645971438" lon="11.758646558984903"><ele>169.5</ele><time>2026-05-03T07:35:56.999Z</time></trkpt><trkpt lat="45.796428649765346" lon="11.758752366454289"><ele>170.25</ele><time>2026-05-03T07:35:57.999Z</time></trkpt><trkpt lat="45.796531353387756" lon="11.758890124245097"><ele>171.0</ele><time>2026-05-03T07:35:58.999Z</time></trkpt><trkpt lat="45.796646746038945" lon="11.759055133184253"><ele>171.0</ele><time>2026-05-03T07:35:59.999Z</time></trkpt><trkpt lat="45.79676538708949" lon="11.759230021214112"><ele>171.0</ele><time>2026-05-03T07:36:00.999Z</time></trkpt><trkpt lat="45.79687831940213" lon="11.759399857316417"><ele>171.0</ele><time>2026-05-03T07:36:01.999Z</time></trkpt><trkpt lat="45.79699644390705" lon="11.759576601109528"><ele>171.33333333333334</ele><time>2026-05-03T07:36:02.999Z</time></trkpt><trkpt lat="45.79711268149996" lon="11.759743714655697"><ele>171.66666666666669</ele><time>2026-05-03T07:36:03.999Z</time></trkpt><trkpt lat="45.79722293334418" lon="11.759903910179027"><ele>172.0</ele><time>2026-05-03T07:36:04.999Z</time></trkpt><trkpt lat="45.79733390972267" lon="11.760071052531423"><ele>173.33333333333334</ele><time>2026-05-03T07:36:05.999Z</time></trkpt><trkpt lat="45.79744862149954" lon="11.76024065674458"><ele>174.66666666666666</ele><time>2026-05-03T07:36:06.999Z</time></trkpt><trkpt lat="45.79756573886344" lon="11.760415370016139"><ele>176.0</ele><time>2026-05-03T07:36:07.999Z</time></trkpt><trkpt lat="45.797679207532006" lon="11.760588081969782"><ele>176.0</ele><time>2026-05-03T07:36:08.999Z</time></trkpt><trkpt lat="45.79779531311847" lon="11.760770238748007"><ele>176.0</ele><time>2026-05-03T07:36:09.999Z</time></trkpt><trkpt lat="45.797915813644025" lon="11.760953832016815"><ele>176.0</ele><time>2026-05-03T07:36:10.999Z</time></trkpt><trkpt lat="45.798037457077186" lon="11.761144612595276"><ele>177.33333333333331</ele><time>2026-05-03T07:36:11.999Z</time></trkpt><trkpt lat="45.79816818504094" lon="11.761337228098634"><ele>178.66666666666666</ele><time>2026-05-03T07:36:12.999Z</time></trkpt><trkpt lat="45.79829575612774" lon="11.761522409098996"><ele>180.0</ele><time>2026-05-03T07:36:13.999Z</time></trkpt><trkpt lat="45.79842107446538" lon="11.761705222941313"><ele>181.33333333333334</ele><time>2026-05-03T07:36:14.999Z</time></trkpt><trkpt lat="45.7985438865921" lon="11.761879868351123"><ele>182.66666666666669</ele><time>2026-05-03T07:36:15.999Z</time></trkpt><trkpt lat="45.79866440405228" lon="11.762055428233468"><ele>184.0</ele><time>2026-05-03T07:36:16.999Z</time></trkpt><trkpt lat="45.79878165415056" lon="11.76223557073911"><ele>184.0</ele><time>2026-05-03T07:36:17.999Z</time></trkpt><trkpt lat="45.798893416275185" lon="11.762415392722197"><ele>184.0</ele><time>2026-05-03T07:36:18.999Z</time></trkpt><trkpt lat="45.79900352678177" lon="11.762585225018194"><ele>184.0</ele><time>2026-05-03T07:36:19.999Z</time></trkpt><trkpt lat="45.79912075028915" lon="11.762738552337186"><ele>186.0</ele><time>2026-05-03T07:36:20.999Z</time></trkpt><trkpt lat="45.79924542689143" lon="11.762880647796814"><ele>188.0</ele><time>2026-05-03T07:36:21.999Z</time></trkpt><trkpt lat="45.79938855252072" lon="11.76298362953948"><ele>190.0</ele><time>2026-05-03T07:36:22.999Z</time></trkpt><trkpt lat="45.79955025758255" lon="11.76305178410172"><ele>190.0</ele><time>2026-05-03T07:36:23.999Z</time></trkpt><trkpt lat="45.79971856296724" lon="11.763118997560111"><ele>190.0</ele><time>2026-05-03T07:36:24.999Z</time></trkpt><trkpt lat="45.79988819135836" lon="11.763189127296052"><ele>190.0</ele><time>2026-05-03T07:36:25.999Z</time></trkpt><trkpt lat="45.80007128010688" lon="11.763244655764"><ele>189.33333333333334</ele><time>2026-05-03T07:36:26.999Z</time></trkpt><trkpt lat="45.800234011081024" lon="11.763327302732153"><ele>188.66666666666666</ele><time>2026-05-03T07:36:27.999Z</time></trkpt><trkpt lat="45.800404597829974" lon="11.763408849964764"><ele>188.0</ele><time>2026-05-03T07:36:28.999Z</time></trkpt><trkpt lat="45.80057483157389" lon="11.763494729985288"><ele>190.0</ele><time>2026-05-03T07:36:29.999Z</time></trkpt><trkpt lat="45.80074291483788" lon="11.763582188580605"><ele>192.0</ele><time>2026-05-03T07:36:30.999Z</time></trkpt><trkpt lat="45.800915892452025" lon="11.763664616480488"><ele>194.0</ele><time>2026-05-03T07:36:31.999Z</time></trkpt><trkpt lat="45.801090867373325" lon="11.763756097718138"><ele>195.0</ele><time>2026-05-03T07:36:32.999Z</time></trkpt><trkpt lat="45.801267083363925" lon="11.763841934423535"><ele>196.0</ele><time>2026-05-03T07:36:33.999Z</time></trkpt><trkpt lat="45.80144346507967" lon="11.763928280759872"><ele>197.0</ele><time>2026-05-03T07:36:34.999Z</time></trkpt><trkpt lat="45.801622427753195" lon="11.76401935302183"><ele>197.0</ele><time>2026-05-03T07:36:35.999Z</time></trkpt><trkpt lat="45.80179717540715" lon="11.764128745398006"><ele>197.0</ele><time>2026-05-03T07:36:36.999Z</time></trkpt><trkpt lat="45.80193905927996" lon="11.764304315733316"><ele>197.0</ele><time>2026-05-03T07:36:37.999Z</time></trkpt><trkpt lat="45.80206945848802" lon="11.764503165342543"><ele>198.33333333333334</ele><time>2026-05-03T07:36:38.999Z</time></trkpt><trkpt lat="45.80221195131491" lon="11.764707238859927"><ele>199.66666666666669</ele><time>2026-05-03T07:36:39.999Z</time></trkpt><trkpt lat="45.80233641949756" lon="11.764927816616304"><ele>201.0</ele><time>2026-05-03T07:36:40.999Z</time></trkpt><trkpt lat="45.802461742841615" lon="11.765135076514616"><ele>201.66666666666669</ele><time>2026-05-03T07:36:41.999Z</time></trkpt><trkpt lat="45.80258168120359" lon="11.765331173772168"><ele>202.33333333333334</ele><time>2026-05-03T07:36:42.999Z</time></trkpt><trkpt lat="45.802692445232026" lon="11.765514137956394"><ele>203.0</ele><time>2026-05-03T07:36:43.999Z</time></trkpt><trkpt lat="45.80279186009611" lon="11.765710369317025"><ele>199.66666666666669</ele><time>2026-05-03T07:36:44.999Z</time></trkpt><trkpt lat="45.8028755015645" lon="11.765925824518966"><ele>196.33333333333331</ele><time>2026-05-03T07:36:45.999Z</time></trkpt><trkpt lat="45.802937845163484" lon="11.76616561692699"><ele>193.0</ele><time>2026-05-03T07:36:46.999Z</time></trkpt><trkpt lat="45.80296787012623" lon="11.766418819812547"><ele>192.33333333333331</ele><time>2026-05-03T07:36:47.999Z</time></trkpt><trkpt lat="45.802983407937674" lon="11.766664009678225"><ele>191.66666666666666</ele><time>2026-05-03T07:36:48.999Z</time></trkpt><trkpt lat="45.80300575988986" lon="11.76690126915256"><ele>191.0</ele><time>2026-05-03T07:36:49.999Z</time></trkpt><trkpt lat="45.80304496699345" lon="11.767144045410841"><ele>190.66666666666666</ele><time>2026-05-03T07:36:50.999Z</time></trkpt><trkpt lat="45.80311088096909" lon="11.767391487482943"><ele>190.33333333333334</ele><time>2026-05-03T07:36:51.999Z</time></trkpt><trkpt lat="45.803200387956245" lon="11.7676356583436"><ele>190.0</ele><time>2026-05-03T07:36:52.999Z</time></trkpt><trkpt lat="45.80331647161387" lon="11.767869240443876"><ele>189.0</ele><time>2026-05-03T07:36:53.999Z</time></trkpt><trkpt lat="45.80343299548102" lon="11.768107700920554"><ele>188.0</ele><time>2026-05-03T07:36:54.999Z</time></trkpt><trkpt lat="45.80355218968943" lon="11.768347636025704"><ele>187.0</ele><time>2026-05-03T07:36:55.999Z</time></trkpt><trkpt lat="45.80366845865182" lon="11.768592351633988"><ele>186.66666666666669</ele><time>2026-05-03T07:36:56.999Z</time></trkpt><trkpt lat="45.80378192725399" lon="11.768837513664575"><ele>186.33333333333334</ele><time>2026-05-03T07:36:57.999Z</time></trkpt><trkpt lat="45.80388865776525" lon="11.769093846510176"><ele>186.0</ele><time>2026-05-03T07:36:58.999Z</time></trkpt><trkpt lat="45.80399502125068" lon="11.769353397993376"><ele>185.33333333333334</ele><time>2026-05-03T07:36:59.999Z</time></trkpt><trkpt lat="45.80410262754144" lon="11.76961565846312"><ele>184.66666666666669</ele><time>2026-05-03T07:37:00.999Z</time></trkpt><trkpt lat="45.80420944297779" lon="11.769879457869576"><ele>184.0</ele><time>2026-05-03T07:37:01.999Z</time></trkpt><trkpt lat="45.804316657209135" lon="11.770137333185192"><ele>183.66666666666669</ele><time>2026-05-03T07:37:02.999Z</time></trkpt><trkpt lat="45.80442211574517" lon="11.770399178245027"><ele>183.33333333333334</ele><time>2026-05-03T07:37:03.999Z</time></trkpt><trkpt lat="45.80452094450624" lon="11.770665382456754"><ele>183.0</ele><time>2026-05-03T07:37:04.999Z</time></trkpt><trkpt lat="45.804612789571195" lon="11.770932127442219"><ele>182.33333333333334</ele><time>2026-05-03T07:37:05.999Z</time></trkpt><trkpt lat="45.804703953007056" lon="11.77119569224382"><ele>181.66666666666669</ele><time>2026-05-03T07:37:06.999Z</time></trkpt><trkpt lat="45.80479684127432" lon="11.771451826238037"><ele>181.0</ele><time>2026-05-03T07:37:07.999Z</time></trkpt><trkpt lat="45.804885240060464" lon="11.771692636475812"><ele>180.0</ele><time>2026-05-03T07:37:08.999Z</time></trkpt><trkpt lat="45.80497167601156" lon="11.771929592271137"><ele>179.0</ele><time>2026-05-03T07:37:09.999Z</time></trkpt><trkpt lat="45.8050569362236" lon="11.77216279750417"><ele>178.0</ele><time>2026-05-03T07:37:10.999Z</time></trkpt><trkpt lat="45.80513386213956" lon="11.772382717806524"><ele>177.33333333333334</ele><time>2026-05-03T07:37:11.999Z</time></trkpt><trkpt lat="45.80520830689884" lon="11.77260576540546"><ele>176.66666666666666</ele><time>2026-05-03T07:37:12.999Z</time></trkpt><trkpt lat="45.80529253490791" lon="11.772843655352773"><ele>176.0</ele><time>2026-05-03T07:37:13.999Z</time></trkpt><trkpt lat="45.80538107390437" lon="11.773068498723074"><ele>176.0</ele><time>2026-05-03T07:37:14.999Z</time></trkpt><trkpt lat="45.80546335757083" lon="11.773291576686507"><ele>176.0</ele><time>2026-05-03T07:37:15.999Z</time></trkpt><trkpt lat="45.80554370489078" lon="11.773516683830906"><ele>176.0</ele><time>2026-05-03T07:37:16.999Z</time></trkpt><trkpt lat="45.805621736514766" lon="11.773743689646977"><ele>176.0</ele><time>2026-05-03T07:37:17.999Z</time></trkpt><trkpt lat="45.80570217987504" lon="11.773966131202428"><ele>176.0</ele><time>2026-05-03T07:37:18.999Z</time></trkpt><trkpt lat="45.80577257790697" lon="11.774180953459819"><ele>176.0</ele><time>2026-05-03T07:37:19.999Z</time></trkpt><trkpt lat="45.80584150647693" lon="11.774393618662952"><ele>176.0</ele><time>2026-05-03T07:37:20.999Z</time></trkpt><trkpt lat="45.80591686875287" lon="11.774605590438473"><ele>176.0</ele><time>2026-05-03T07:37:21.999Z</time></trkpt><trkpt lat="45.80599415911663" lon="11.774823474301934"><ele>176.0</ele><time>2026-05-03T07:37:22.999Z</time></trkpt><trkpt lat="45.80606844688661" lon="11.775051087568274"><ele>175.66666666666666</ele><time>2026-05-03T07:37:23.999Z</time></trkpt><trkpt lat="45.80614752724236" lon="11.77527750842896"><ele>175.33333333333334</ele><time>2026-05-03T07:37:24.999Z</time></trkpt><trkpt lat="45.80622372962386" lon="11.775510481899532"><ele>175.0</ele><time>2026-05-03T07:37:25.999Z</time></trkpt><trkpt lat="45.80630446920773" lon="11.77574534824444"><ele>175.0</ele><time>2026-05-03T07:37:26.999Z</time></trkpt><trkpt lat="45.80638296740977" lon="11.775982670342966"><ele>175.0</ele><time>2026-05-03T07:37:27.999Z</time></trkpt><trkpt lat="45.80646271117571" lon="11.776229131321593"><ele>175.0</ele><time>2026-05-03T07:37:28.999Z</time></trkpt><trkpt lat="45.80654291321982" lon="11.776483800293903"><ele>174.66666666666669</ele><time>2026-05-03T07:37:29.999Z</time></trkpt><trkpt lat="45.806623215199984" lon="11.776743977443891"><ele>174.33333333333334</ele><time>2026-05-03T07:37:30.999Z</time></trkpt><trkpt lat="45.80670958604616" lon="11.777009137360924"><ele>174.0</ele><time>2026-05-03T07:37:31.999Z</time></trkpt><trkpt lat="45.80679547490252" lon="11.777277330251385"><ele>173.66666666666666</ele><time>2026-05-03T07:37:32.999Z</time></trkpt><trkpt lat="45.80688377819804" lon="11.777539199930978"><ele>173.33333333333331</ele><time>2026-05-03T07:37:33.999Z</time></trkpt><trkpt lat="45.80696993175784" lon="11.777804264670063"><ele>173.0</ele><time>2026-05-03T07:37:34.999Z</time></trkpt><trkpt lat="45.80705500010304" lon="11.778071846375568"><ele>173.0</ele><time>2026-05-03T07:37:35.999Z</time></trkpt><trkpt lat="45.80714351429918" lon="11.778341236545858"><ele>173.0</ele><time>2026-05-03T07:37:36.999Z</time></trkpt><trkpt lat="45.80723503068453" lon="11.778608608216652"><ele>173.0</ele><time>2026-05-03T07:37:37.999Z</time></trkpt><trkpt lat="45.80731922563284" lon="11.778871425742466"><ele>172.33333333333331</ele><time>2026-05-03T07:37:38.999Z</time></trkpt><trkpt lat="45.80739517960634" lon="11.779108062870215"><ele>171.66666666666666</ele><time>2026-05-03T07:37:39.999Z</time></trkpt><trkpt lat="45.80746691315803" lon="11.77933935437353"><ele>171.0</ele><time>2026-05-03T07:37:40.999Z</time></trkpt><trkpt lat="45.807539029849075" lon="11.779556540541268"><ele>171.0</ele><time>2026-05-03T07:37:41.999Z</time></trkpt><trkpt lat="45.80760366160369" lon="11.77976729704345"><ele>171.0</ele><time>2026-05-03T07:37:42.999Z</time></trkpt><trkpt lat="45.807668506565484" lon="11.779956769182343"><ele>171.0</ele><time>2026-05-03T07:37:43.999Z</time></trkpt><trkpt lat="45.807723356672824" lon="11.78013677227154"><ele>171.0</ele><time>2026-05-03T07:37:44.999Z</time></trkpt><trkpt lat="45.80777803949203" lon="11.78031540455732"><ele>172.5</ele><time>2026-05-03T07:37:45.999Z</time></trkpt><trkpt lat="45.80782783037052" lon="11.780475791656553"><ele>174.0</ele><time>2026-05-03T07:37:46.999Z</time></trkpt><trkpt lat="45.807874783251464" lon="11.78063086738121"><ele>175.5</ele><time>2026-05-03T07:37:47.999Z</time></trkpt><trkpt lat="45.8079232919252" lon="11.780783691883874"><ele>177.0</ele><time>2026-05-03T07:37:48.999Z</time></trkpt><trkpt lat="45.80797675803962" lon="11.780945823036285"><ele>177.0</ele><time>2026-05-03T07:37:49.999Z</time></trkpt><trkpt lat="45.80803335134283" lon="11.78111998540106"><ele>177.0</ele><time>2026-05-03T07:37:50.999Z</time></trkpt><trkpt lat="45.808090952671705" lon="11.781294761884537"><ele>177.0</ele><time>2026-05-03T07:37:51.999Z</time></trkpt><trkpt lat="45.808148688155306" lon="11.781479163454879"><ele>177.0</ele><time>2026-05-03T07:37:52.999Z</time></trkpt><trkpt lat="45.80820921203733" lon="11.781671362942513"><ele>176.75</ele><time>2026-05-03T07:37:53.999Z</time></trkpt><trkpt lat="45.80827630568992" lon="11.781864275335098"><ele>176.5</ele><time>2026-05-03T07:37:54.999Z</time></trkpt><trkpt lat="45.8083404262124" lon="11.78205889396185"><ele>176.25</ele><time>2026-05-03T07:37:55.999Z</time></trkpt><trkpt lat="45.808403891967934" lon="11.782249978648665"><ele>176.0</ele><time>2026-05-03T07:37:56.999Z</time></trkpt><trkpt lat="45.80846362597704" lon="11.782445413375866"><ele>178.0</ele><time>2026-05-03T07:37:57.999Z</time></trkpt><trkpt lat="45.808528464695186" lon="11.78263958091345"><ele>180.0</ele><time>2026-05-03T07:37:58.999Z</time></trkpt><trkpt lat="45.80858544795704" lon="11.782830196087117"><ele>182.0</ele><time>2026-05-03T07:37:59.999Z</time></trkpt><trkpt lat="45.80864282062041" lon="11.783012714356042"><ele>184.0</ele><time>2026-05-03T07:38:00.999Z</time></trkpt><trkpt lat="45.80870031719563" lon="11.783184125859762"><ele>184.0</ele><time>2026-05-03T07:38:01.999Z</time></trkpt><trkpt lat="45.808757435299306" lon="11.783358293167511"><ele>184.0</ele><time>2026-05-03T07:38:02.999Z</time></trkpt><trkpt lat="45.80881280114148" lon="11.783542423180705"><ele>184.0</ele><time>2026-05-03T07:38:03.999Z</time></trkpt><trkpt lat="45.80886680077407" lon="11.783723016907071"><ele>184.0</ele><time>2026-05-03T07:38:04.999Z</time></trkpt><trkpt lat="45.808922750673574" lon="11.783909372261455"><ele>183.2</ele><time>2026-05-03T07:38:05.999Z</time></trkpt><trkpt lat="45.80897976145797" lon="11.784080432747576"><ele>182.39999999999998</ele><time>2026-05-03T07:38:06.999Z</time></trkpt><trkpt lat="45.809022227010864" lon="11.7841996712441"><ele>181.6</ele><time>2026-05-03T07:38:07.999Z</time></trkpt><trkpt lat="45.809062662288" lon="11.784314474758885"><ele>180.8</ele><time>2026-05-03T07:38:09.999Z</time></trkpt><trkpt lat="45.80908601464057" lon="11.784414784542951"><ele>180.0</ele><time>2026-05-03T07:38:12.999Z</time></trkpt><trkpt lat="45.8091277426945" lon="11.784573981806547"><ele>179.6</ele><time>2026-05-03T07:38:14.999Z</time></trkpt><trkpt lat="45.80916384635692" lon="11.784685712457675"><ele>179.2</ele><time>2026-05-03T07:38:15.999Z</time></trkpt><trkpt lat="45.80920469862634" lon="11.784806601019167"><ele>178.8</ele><time>2026-05-03T07:38:16.999Z</time></trkpt><trkpt lat="45.80924600039276" lon="11.784927413802832"><ele>178.4</ele><time>2026-05-03T07:38:17.999Z</time></trkpt><trkpt lat="45.809290520196946" lon="11.785060967189375"><ele>178.0</ele><time>2026-05-03T07:38:18.999Z</time></trkpt><trkpt lat="45.80932926814796" lon="11.785186884482938"><ele>179.2</ele><time>2026-05-03T07:38:19.999Z</time></trkpt><trkpt lat="45.809370418401414" lon="11.78530770551496"><ele>180.4</ele><time>2026-05-03T07:38:20.999Z</time></trkpt><trkpt lat="45.80941153302818" lon="11.78543948853161"><ele>181.6</ele><time>2026-05-03T07:38:21.999Z</time></trkpt><trkpt lat="45.809458834243685" lon="11.785586469261226"><ele>182.79999999999998</ele><time>2026-05-03T07:38:22.999Z</time></trkpt><trkpt lat="45.809509712129675" lon="11.785744081655025"><ele>184.0</ele><time>2026-05-03T07:38:23.999Z</time></trkpt><trkpt lat="45.80956504886698" lon="11.785905754190647"><ele>183.25</ele><time>2026-05-03T07:38:25Z</time></trkpt><trkpt lat="45.80961805402479" lon="11.78608774865677"><ele>182.5</ele><time>2026-05-03T07:38:26Z</time></trkpt><trkpt lat="45.80967153226575" lon="11.786261844110381"><ele>181.75</ele><time>2026-05-03T07:38:27Z</time></trkpt><trkpt lat="45.809724810638315" lon="11.786433966567024"><ele>181.0</ele><time>2026-05-03T07:38:28Z</time></trkpt><trkpt lat="45.80978516769491" lon="11.786615947157195"><ele>181.0</ele><time>2026-05-03T07:38:29Z</time></trkpt><trkpt lat="45.80985619770203" lon="11.786798672708972"><ele>181.0</ele><time>2026-05-03T07:38:30Z</time></trkpt><trkpt lat="45.80992965956709" lon="11.786962882079564"><ele>181.0</ele><time>2026-05-03T07:38:31Z</time></trkpt><trkpt lat="45.81000645427466" lon="11.787113130249551"><ele>181.0</ele><time>2026-05-03T07:38:32Z</time></trkpt><trkpt lat="45.81009233165095" lon="11.78725770470509"><ele>181.0</ele><time>2026-05-03T07:38:33Z</time></trkpt><trkpt lat="45.810188424576374" lon="11.787403359619798"><ele>181.0</ele><time>2026-05-03T07:38:34Z</time></trkpt><trkpt lat="45.81028709359264" lon="11.787531561788489"><ele>181.0</ele><time>2026-05-03T07:38:35Z</time></trkpt><trkpt lat="45.81037835881716" lon="11.78764351512993"><ele>181.0</ele><time>2026-05-03T07:38:36Z</time></trkpt><trkpt lat="45.810469712666034" lon="11.787742927515145"><ele>181.0</ele><time>2026-05-03T07:38:37Z</time></trkpt><trkpt lat="45.81056022858776" lon="11.787852522011683"><ele>181.0</ele><time>2026-05-03T07:38:38Z</time></trkpt><trkpt lat="45.810661282076765" lon="11.787966816794318"><ele>181.0</ele><time>2026-05-03T07:38:39Z</time></trkpt><trkpt lat="45.810779118480475" lon="11.788092358247813"><ele>181.0</ele><time>2026-05-03T07:38:40Z</time></trkpt><trkpt lat="45.810908276504556" lon="11.788233482708357"><ele>182.0</ele><time>2026-05-03T07:38:41Z</time></trkpt><trkpt lat="45.81104904789199" lon="11.788391487631527"><ele>183.0</ele><time>2026-05-03T07:38:42Z</time></trkpt><trkpt lat="45.81119762763423" lon="11.78855589720443"><ele>184.0</ele><time>2026-05-03T07:38:43Z</time></trkpt><trkpt lat="45.8113506291485" lon="11.788728882570329"><ele>184.0</ele><time>2026-05-03T07:38:44Z</time></trkpt><trkpt lat="45.81148893385172" lon="11.788924179146324"><ele>184.0</ele><time>2026-05-03T07:38:45Z</time></trkpt><trkpt lat="45.81164955325986" lon="11.789090597476662"><ele>184.0</ele><time>2026-05-03T07:38:46Z</time></trkpt><trkpt lat="45.81180351792053" lon="11.789287785578386"><ele>185.66666666666669</ele><time>2026-05-03T07:38:47Z</time></trkpt><trkpt lat="45.811958850041194" lon="11.78948117091931"><ele>187.33333333333334</ele><time>2026-05-03T07:38:48Z</time></trkpt><trkpt lat="45.812104887841464" lon="11.789657860908124"><ele>189.0</ele><time>2026-05-03T07:38:49Z</time></trkpt><trkpt lat="45.81226071713153" lon="11.789831196235507"><ele>189.0</ele><time>2026-05-03T07:38:50Z</time></trkpt><trkpt lat="45.812418611710996" lon="11.790011919851235"><ele>189.0</ele><time>2026-05-03T07:38:51Z</time></trkpt><trkpt lat="45.81257599604908" lon="11.790195800827354"><ele>189.0</ele><time>2026-05-03T07:38:52Z</time></trkpt><trkpt lat="45.81272491680823" lon="11.790379651701782"><ele>189.33333333333334</ele><time>2026-05-03T07:38:53Z</time></trkpt><trkpt lat="45.81287556480504" lon="11.79055252082006"><ele>189.66666666666669</ele><time>2026-05-03T07:38:54Z</time></trkpt><trkpt lat="45.81302482418097" lon="11.790723079964662"><ele>190.0</ele><time>2026-05-03T07:38:55Z</time></trkpt><trkpt lat="45.81317263063872" lon="11.790887334513174"><ele>190.33333333333334</ele><time>2026-05-03T07:38:56Z</time></trkpt><trkpt lat="45.813308255892494" lon="11.791053488821897"><ele>190.66666666666666</ele><time>2026-05-03T07:38:57Z</time></trkpt><trkpt lat="45.81343982324833" lon="11.791204153463505"><ele>191.0</ele><time>2026-05-03T07:38:58Z</time></trkpt><trkpt lat="45.81355632635325" lon="11.791343894293862"><ele>191.0</ele><time>2026-05-03T07:38:59Z</time></trkpt><trkpt lat="45.81367403888882" lon="11.791480566491808"><ele>191.0</ele><time>2026-05-03T07:39:00Z</time></trkpt><trkpt lat="45.813796420612135" lon="11.791622792413968"><ele>191.0</ele><time>2026-05-03T07:39:01Z</time></trkpt><trkpt lat="45.813916587947276" lon="11.79176309397947"><ele>189.33333333333331</ele><time>2026-05-03T07:39:02Z</time></trkpt><trkpt lat="45.81403853054401" lon="11.791902384007127"><ele>187.66666666666666</ele><time>2026-05-03T07:39:03Z</time></trkpt><trkpt lat="45.81416636135066" lon="11.792040459505408"><ele>186.0</ele><time>2026-05-03T07:39:04Z</time></trkpt><trkpt lat="45.814295367037865" lon="11.792162519339248"><ele>187.5</ele><time>2026-05-03T07:39:05Z</time></trkpt><trkpt lat="45.81442473911651" lon="11.792262768603761"><ele>189.0</ele><time>2026-05-03T07:39:06Z</time></trkpt><trkpt lat="45.814548322965685" lon="11.792360303855812"><ele>190.5</ele><time>2026-05-03T07:39:07Z</time></trkpt><trkpt lat="45.81465868215235" lon="11.792438433969787"><ele>192.0</ele><time>2026-05-03T07:39:08Z</time></trkpt><trkpt lat="45.814759720654436" lon="11.79251997619302"><ele>192.0</ele><time>2026-05-03T07:39:09Z</time></trkpt><trkpt lat="45.81486304366359" lon="11.792600286848808"><ele>192.0</ele><time>2026-05-03T07:39:10Z</time></trkpt><trkpt lat="45.814961853911036" lon="11.792688850436233"><ele>192.0</ele><time>2026-05-03T07:39:11Z</time></trkpt><trkpt lat="45.815054901886185" lon="11.792800334870003"><ele>192.0</ele><time>2026-05-03T07:39:12Z</time></trkpt><trkpt lat="45.81514555957442" lon="11.792937882710573"><ele>191.5</ele><time>2026-05-03T07:39:13Z</time></trkpt><trkpt lat="45.8152182471863" lon="11.793117410928586"><ele>191.0</ele><time>2026-05-03T07:39:14Z</time></trkpt><trkpt lat="45.81529311023095" lon="11.793303346427452"><ele>190.5</ele><time>2026-05-03T07:39:15Z</time></trkpt><trkpt lat="45.8153504562491" lon="11.793501073809312"><ele>190.0</ele><time>2026-05-03T07:39:16Z</time></trkpt><trkpt lat="45.81539292041262" lon="11.793706625668792"><ele>189.0</ele><time>2026-05-03T07:39:17Z</time></trkpt><trkpt lat="45.81542153194255" lon="11.793905844996038"><ele>188.0</ele><time>2026-05-03T07:39:18Z</time></trkpt><trkpt lat="45.81543605083661" lon="11.79409658520735"><ele>187.0</ele><time>2026-05-03T07:39:19Z</time></trkpt><trkpt lat="45.815443084234644" lon="11.794286082653302"><ele>186.0</ele><time>2026-05-03T07:39:20Z</time></trkpt><trkpt lat="45.81544253843368" lon="11.794481650948518"><ele>186.0</ele><time>2026-05-03T07:39:21Z</time></trkpt><trkpt lat="45.81545691510278" lon="11.794687219129708"><ele>186.0</ele><time>2026-05-03T07:39:22Z</time></trkpt><trkpt lat="45.81545627102272" lon="11.794900136970591"><ele>186.0</ele><time>2026-05-03T07:39:23Z</time></trkpt><trkpt lat="45.81545373441505" lon="11.795122656058338"><ele>186.0</ele><time>2026-05-03T07:39:24Z</time></trkpt><trkpt lat="45.81545022445412" lon="11.795339883116613"><ele>185.33333333333334</ele><time>2026-05-03T07:39:25Z</time></trkpt><trkpt lat="45.81545173904453" lon="11.795553494768482"><ele>184.66666666666669</ele><time>2026-05-03T07:39:26Z</time></trkpt><trkpt lat="45.8154511117689" lon="11.795774929920269"><ele>184.0</ele><time>2026-05-03T07:39:27Z</time></trkpt><trkpt lat="45.815448190677586" lon="11.795997098161893"><ele>183.33333333333334</ele><time>2026-05-03T07:39:28Z</time></trkpt><trkpt lat="45.81544397800562" lon="11.796206349509182"><ele>182.66666666666666</ele><time>2026-05-03T07:39:29Z</time></trkpt><trkpt lat="45.81544260246883" lon="11.79642265486358"><ele>182.0</ele><time>2026-05-03T07:39:30Z</time></trkpt><trkpt lat="45.81543893472528" lon="11.796642147753337"><ele>183.33333333333331</ele><time>2026-05-03T07:39:31Z</time></trkpt><trkpt lat="45.81543535901409" lon="11.796872869717966"><ele>184.66666666666666</ele><time>2026-05-03T07:39:32Z</time></trkpt><trkpt lat="45.81543320068818" lon="11.7971177201684"><ele>186.0</ele><time>2026-05-03T07:39:33Z</time></trkpt><trkpt lat="45.81543690573021" lon="11.797380931203818"><ele>186.0</ele><time>2026-05-03T07:39:34Z</time></trkpt><trkpt lat="45.815426415738656" lon="11.79765769128527"><ele>186.0</ele><time>2026-05-03T07:39:35Z</time></trkpt><trkpt lat="45.8154247840644" lon="11.79794917895922"><ele>186.0</ele><time>2026-05-03T07:39:36Z</time></trkpt><trkpt lat="45.815423057156174" lon="11.798251218746218"><ele>188.33333333333331</ele><time>2026-05-03T07:39:37Z</time></trkpt><trkpt lat="45.815436287488566" lon="11.798551227455112"><ele>190.66666666666666</ele><time>2026-05-03T07:39:38Z</time></trkpt><trkpt lat="45.8154243201745" lon="11.798836696223129"><ele>193.0</ele><time>2026-05-03T07:39:39Z</time></trkpt><trkpt lat="45.81542107346532" lon="11.799107134985166"><ele>193.33333333333331</ele><time>2026-05-03T07:39:40Z</time></trkpt><trkpt lat="45.815422345545436" lon="11.799374906779592"><ele>193.66666666666669</ele><time>2026-05-03T07:39:41Z</time></trkpt><trkpt lat="45.815421723807916" lon="11.799611901252202"><ele>194.0</ele><time>2026-05-03T07:39:42Z</time></trkpt><trkpt lat="45.8154160048256" lon="11.799835486880182"><ele>194.0</ele><time>2026-05-03T07:39:43Z</time></trkpt><trkpt lat="45.81541669100562" lon="11.800069105067077"><ele>194.0</ele><time>2026-05-03T07:39:44Z</time></trkpt><trkpt lat="45.81543216948698" lon="11.800316571366093"><ele>194.0</ele><time>2026-05-03T07:39:45Z</time></trkpt><trkpt lat="45.815447989339766" lon="11.800572295079121"><ele>195.0</ele><time>2026-05-03T07:39:46Z</time></trkpt><trkpt lat="45.815473520933715" lon="11.80085097035324"><ele>196.0</ele><time>2026-05-03T07:39:47Z</time></trkpt><trkpt lat="45.81550077661086" lon="11.801123611880232"><ele>197.0</ele><time>2026-05-03T07:39:48Z</time></trkpt><trkpt lat="45.8155256331501" lon="11.801403378602702"><ele>197.33333333333334</ele><time>2026-05-03T07:39:49Z</time></trkpt><trkpt lat="45.81555079027272" lon="11.801690235880978"><ele>197.66666666666669</ele><time>2026-05-03T07:39:50Z</time></trkpt><trkpt lat="45.81557975548077" lon="11.801971211812774"><ele>198.0</ele><time>2026-05-03T07:39:51Z</time></trkpt><trkpt lat="45.81560742603182" lon="11.80226475279145"><ele>198.66666666666669</ele><time>2026-05-03T07:39:52Z</time></trkpt><trkpt lat="45.81563246849702" lon="11.802560931563441"><ele>199.33333333333334</ele><time>2026-05-03T07:39:53Z</time></trkpt><trkpt lat="45.815661927137285" lon="11.802859175188999"><ele>200.0</ele><time>2026-05-03T07:39:54Z</time></trkpt><trkpt lat="45.815693044758724" lon="11.803157074941"><ele>200.33333333333334</ele><time>2026-05-03T07:39:55Z</time></trkpt><trkpt lat="45.81572491658325" lon="11.803455996880869"><ele>200.66666666666669</ele><time>2026-05-03T07:39:56Z</time></trkpt><trkpt lat="45.81575244613766" lon="11.803755542008465"><ele>201.0</ele><time>2026-05-03T07:39:57Z</time></trkpt><trkpt lat="45.815777923896604" lon="11.804030818178761"><ele>200.0</ele><time>2026-05-03T07:39:58Z</time></trkpt><trkpt lat="45.815802548829396" lon="11.804310782191488"><ele>199.0</ele><time>2026-05-03T07:39:59Z</time></trkpt><trkpt lat="45.8158299683685" lon="11.804584672087115"><ele>198.0</ele><time>2026-05-03T07:40:00Z</time></trkpt><trkpt lat="45.81585737839536" lon="11.804846095529859"><ele>198.0</ele><time>2026-05-03T07:40:01Z</time></trkpt><trkpt lat="45.8158821914044" lon="11.805095485692949"><ele>198.0</ele><time>2026-05-03T07:40:02Z</time></trkpt><trkpt lat="45.81591068093977" lon="11.805329098286302"><ele>198.0</ele><time>2026-05-03T07:40:03Z</time></trkpt><trkpt lat="45.815928240689196" lon="11.805541564965173"><ele>198.4</ele><time>2026-05-03T07:40:04Z</time></trkpt><trkpt lat="45.8159456925789" lon="11.80572855846305"><ele>198.8</ele><time>2026-05-03T07:40:05Z</time></trkpt><trkpt lat="45.815958777186474" lon="11.805891320094085"><ele>199.2</ele><time>2026-05-03T07:40:06Z</time></trkpt><trkpt lat="45.81597513967876" lon="11.806044335620374"><ele>199.6</ele><time>2026-05-03T07:40:07Z</time></trkpt><trkpt lat="45.81598537048444" lon="11.806176901350783"><ele>200.0</ele><time>2026-05-03T07:40:08Z</time></trkpt><trkpt lat="45.8159827647428" lon="11.806302109282843"><ele>200.8</ele><time>2026-05-03T07:40:09Z</time></trkpt><trkpt lat="45.81595629854668" lon="11.806420178483604"><ele>201.6</ele><time>2026-05-03T07:40:10Z</time></trkpt><trkpt lat="45.815919307835834" lon="11.806537483280913"><ele>202.39999999999998</ele><time>2026-05-03T07:40:11Z</time></trkpt><trkpt lat="45.81592567288507" lon="11.806665064567602"><ele>203.2</ele><time>2026-05-03T07:40:12Z</time></trkpt><trkpt lat="45.815990943478184" lon="11.806780760620708"><ele>204.0</ele><time>2026-05-03T07:40:13Z</time></trkpt><trkpt lat="45.816085560614454" lon="11.806908221809124"><ele>205.66666666666669</ele><time>2026-05-03T07:40:14Z</time></trkpt><trkpt lat="45.81617147312676" lon="11.807085278699999"><ele>207.33333333333334</ele><time>2026-05-03T07:40:15Z</time></trkpt><trkpt lat="45.816241460893664" lon="11.807306593090315"><ele>209.0</ele><time>2026-05-03T07:40:16Z</time></trkpt><trkpt lat="45.816300838140855" lon="11.807558716845255"><ele>208.66666666666669</ele><time>2026-05-03T07:40:17Z</time></trkpt><trkpt lat="45.81635282712651" lon="11.807827600639337"><ele>208.33333333333331</ele><time>2026-05-03T07:40:18Z</time></trkpt><trkpt lat="45.81640681225471" lon="11.80809329522886"><ele>208.0</ele><time>2026-05-03T07:40:19Z</time></trkpt><trkpt lat="45.81646167431609" lon="11.80834582898204"><ele>208.66666666666666</ele><time>2026-05-03T07:40:20Z</time></trkpt><trkpt lat="45.81651638842384" lon="11.808594738207628"><ele>209.33333333333331</ele><time>2026-05-03T07:40:21Z</time></trkpt><trkpt lat="45.81657053496706" lon="11.808837779426787"><ele>210.0</ele><time>2026-05-03T07:40:22Z</time></trkpt><trkpt lat="45.81662787249826" lon="11.809079142006947"><ele>210.0</ele><time>2026-05-03T07:40:23Z</time></trkpt><trkpt lat="45.816687189747945" lon="11.809322332657677"><ele>210.0</ele><time>2026-05-03T07:40:24Z</time></trkpt><trkpt lat="45.816743851106445" lon="11.809569348221448"><ele>210.0</ele><time>2026-05-03T07:40:25Z</time></trkpt><trkpt lat="45.81680127351682" lon="11.809804508511547"><ele>211.66666666666669</ele><time>2026-05-03T07:40:26Z</time></trkpt><trkpt lat="45.816856778363274" lon="11.81005046147307"><ele>213.33333333333334</ele><time>2026-05-03T07:40:27Z</time></trkpt><trkpt lat="45.81691070971385" lon="11.810295865178366"><ele>215.0</ele><time>2026-05-03T07:40:28Z</time></trkpt><trkpt lat="45.8169686880872" lon="11.810539878404152"><ele>215.0</ele><time>2026-05-03T07:40:29Z</time></trkpt><trkpt lat="45.817028395699985" lon="11.810791179566575"><ele>215.0</ele><time>2026-05-03T07:40:30Z</time></trkpt><trkpt lat="45.81708586425875" lon="11.811036787814805"><ele>215.0</ele><time>2026-05-03T07:40:31Z</time></trkpt><trkpt lat="45.817144018628376" lon="11.811283553851245"><ele>215.0</ele><time>2026-05-03T07:40:32Z</time></trkpt><trkpt lat="45.81719345003075" lon="11.811531912811285"><ele>215.0</ele><time>2026-05-03T07:40:33Z</time></trkpt><trkpt lat="45.817248496238705" lon="11.811779108300467"><ele>215.0</ele><time>2026-05-03T07:40:34Z</time></trkpt><trkpt lat="45.81729970288272" lon="11.812029366589824"><ele>214.66666666666669</ele><time>2026-05-03T07:40:35Z</time></trkpt><trkpt lat="45.81735433354837" lon="11.812261602783858"><ele>214.33333333333331</ele><time>2026-05-03T07:40:36Z</time></trkpt><trkpt lat="45.81741338567631" lon="11.812487232633142"><ele>214.0</ele><time>2026-05-03T07:40:37Z</time></trkpt><trkpt lat="45.81746982505783" lon="11.812712822623915"><ele>214.0</ele><time>2026-05-03T07:40:38Z</time></trkpt><trkpt lat="45.81752204219673" lon="11.812946651526767"><ele>214.0</ele><time>2026-05-03T07:40:39Z</time></trkpt><trkpt lat="45.81757353830423" lon="11.813168642462907"><ele>214.0</ele><time>2026-05-03T07:40:40Z</time></trkpt><trkpt lat="45.81762235967903" lon="11.813372706857402"><ele>216.0</ele><time>2026-05-03T07:40:41Z</time></trkpt><trkpt lat="45.817670867730406" lon="11.81356869275038"><ele>218.0</ele><time>2026-05-03T07:40:42Z</time></trkpt><trkpt lat="45.81771382744363" lon="11.813751983722812"><ele>220.0</ele><time>2026-05-03T07:40:43Z</time></trkpt><trkpt lat="45.81775464891391" lon="11.813931802250966"><ele>222.0</ele><time>2026-05-03T07:40:44Z</time></trkpt><trkpt lat="45.81778940594075" lon="11.814097100274537"><ele>222.0</ele><time>2026-05-03T07:40:45Z</time></trkpt><trkpt lat="45.81782549562938" lon="11.81425527092083"><ele>222.0</ele><time>2026-05-03T07:40:46Z</time></trkpt><trkpt lat="45.81786599980161" lon="11.814410537609346"><ele>222.0</ele><time>2026-05-03T07:40:47Z</time></trkpt><trkpt lat="45.81790534369371" lon="11.814582856321675"><ele>222.0</ele><time>2026-05-03T07:40:48Z</time></trkpt><trkpt lat="45.81794535443337" lon="11.814768784586244"><ele>221.75</ele><time>2026-05-03T07:40:49Z</time></trkpt><trkpt lat="45.81798715163376" lon="11.814955014197496"><ele>221.5</ele><time>2026-05-03T07:40:50Z</time></trkpt><trkpt lat="45.81802782272515" lon="11.815151467559684"><ele>221.25</ele><time>2026-05-03T07:40:51Z</time></trkpt><trkpt lat="45.81807336108152" lon="11.815351290692686"><ele>221.0</ele><time>2026-05-03T07:40:52Z</time></trkpt><trkpt lat="45.818117136807864" lon="11.815544412317184"><ele>221.0</ele><time>2026-05-03T07:40:53Z</time></trkpt><trkpt lat="45.818160200765234" lon="11.815718195846868"><ele>221.0</ele><time>2026-05-03T07:40:54Z</time></trkpt><trkpt lat="45.81820593206492" lon="11.815878875023335"><ele>221.0</ele><time>2026-05-03T07:40:55Z</time></trkpt><trkpt lat="45.818263859518915" lon="11.816029105097366"><ele>221.0</ele><time>2026-05-03T07:40:56Z</time></trkpt><trkpt lat="45.81831658290353" lon="11.816164464907676"><ele>221.33333333333334</ele><time>2026-05-03T07:40:57Z</time></trkpt><trkpt lat="45.81835582013976" lon="11.81627466634663"><ele>221.66666666666669</ele><time>2026-05-03T07:40:58Z</time></trkpt><trkpt lat="45.818398427714456" lon="11.816370888614701"><ele>222.0</ele><time>2026-05-03T07:40:59Z</time></trkpt><trkpt lat="45.81844118372894" lon="11.816469787645433"><ele>222.33333333333331</ele><time>2026-05-03T07:41:00Z</time></trkpt><trkpt lat="45.818480031810005" lon="11.816574965314027"><ele>222.66666666666666</ele><time>2026-05-03T07:41:01Z</time></trkpt><trkpt lat="45.81851873525656" lon="11.816666546826037"><ele>223.0</ele><time>2026-05-03T07:41:02Z</time></trkpt><trkpt lat="45.81855261378805" lon="11.816748946317887"><ele>224.75</ele><time>2026-05-03T07:41:03Z</time></trkpt><trkpt lat="45.81863189179411" lon="11.816926530269328"><ele>226.5</ele><time>2026-05-03T07:41:05Z</time></trkpt><trkpt lat="45.818683727170736" lon="11.81704697923135"><ele>228.25</ele><time>2026-05-03T07:41:06Z</time></trkpt><trkpt lat="45.818733850118065" lon="11.81717908774192"><ele>230.0</ele><time>2026-05-03T07:41:07Z</time></trkpt><trkpt lat="45.81878050088024" lon="11.817311391922505"><ele>230.0</ele><time>2026-05-03T07:41:08Z</time></trkpt><trkpt lat="45.81883568055568" lon="11.81745657101541"><ele>230.0</ele><time>2026-05-03T07:41:09Z</time></trkpt><trkpt lat="45.81889575935144" lon="11.817606842836181"><ele>230.0</ele><time>2026-05-03T07:41:10Z</time></trkpt><trkpt lat="45.818957862444044" lon="11.81774807830886"><ele>230.0</ele><time>2026-05-03T07:41:11Z</time></trkpt><trkpt lat="45.81901953122103" lon="11.81789479658692"><ele>230.5</ele><time>2026-05-03T07:41:12Z</time></trkpt><trkpt lat="45.819091374465536" lon="11.818058984584196"><ele>231.0</ele><time>2026-05-03T07:41:13Z</time></trkpt><trkpt lat="45.819166051682664" lon="11.818234288168993"><ele>231.5</ele><time>2026-05-03T07:41:14Z</time></trkpt><trkpt lat="45.81923553023419" lon="11.818413860536838"><ele>232.0</ele><time>2026-05-03T07:41:15Z</time></trkpt><trkpt lat="45.819304806054895" lon="11.81858626081873"><ele>233.25</ele><time>2026-05-03T07:41:16Z</time></trkpt><trkpt lat="45.81937942816882" lon="11.818763188126862"><ele>234.5</ele><time>2026-05-03T07:41:17Z</time></trkpt><trkpt lat="45.81945254984654" lon="11.818938352166732"><ele>235.75</ele><time>2026-05-03T07:41:18Z</time></trkpt><trkpt lat="45.819527811514426" lon="11.819114056573982"><ele>237.0</ele><time>2026-05-03T07:41:19Z</time></trkpt><trkpt lat="45.819605469551504" lon="11.819299296371009"><ele>237.75</ele><time>2026-05-03T07:41:20Z</time></trkpt><trkpt lat="45.81967761241316" lon="11.819480740429796"><ele>238.5</ele><time>2026-05-03T07:41:21Z</time></trkpt><trkpt lat="45.819743086071476" lon="11.819671693750937"><ele>239.25</ele><time>2026-05-03T07:41:22Z</time></trkpt><trkpt lat="45.819778055019206" lon="11.81987533809302"><ele>240.0</ele><time>2026-05-03T07:41:23Z</time></trkpt><trkpt lat="45.81980702482547" lon="11.820079621023957"><ele>240.75</ele><time>2026-05-03T07:41:24Z</time></trkpt><trkpt lat="45.81983090348801" lon="11.820271997895869"><ele>241.5</ele><time>2026-05-03T07:41:25Z</time></trkpt><trkpt lat="45.819866850208015" lon="11.820461889376093"><ele>242.25</ele><time>2026-05-03T07:41:26Z</time></trkpt><trkpt lat="45.819891861445484" lon="11.820667735139464"><ele>243.0</ele><time>2026-05-03T07:41:27Z</time></trkpt><trkpt lat="45.81993031200943" lon="11.820873633964"><ele>243.66666666666669</ele><time>2026-05-03T07:41:28Z</time></trkpt><trkpt lat="45.8199689722015" lon="11.821085802562509"><ele>244.33333333333334</ele><time>2026-05-03T07:41:29Z</time></trkpt><trkpt lat="45.820007922032346" lon="11.821308562992732"><ele>245.0</ele><time>2026-05-03T07:41:30Z</time></trkpt><trkpt lat="45.82004570136133" lon="11.821511800090725"><ele>245.0</ele><time>2026-05-03T07:41:31Z</time></trkpt><trkpt lat="45.82007601092954" lon="11.821696676921567"><ele>245.0</ele><time>2026-05-03T07:41:32Z</time></trkpt><trkpt lat="45.82011361837159" lon="11.821869522984784"><ele>245.0</ele><time>2026-05-03T07:41:33Z</time></trkpt><trkpt lat="45.8201495481584" lon="11.82204576321185"><ele>245.0</ele><time>2026-05-03T07:41:34Z</time></trkpt><trkpt lat="45.82018673773664" lon="11.82221188859278"><ele>246.0</ele><time>2026-05-03T07:41:35.001Z</time></trkpt><trkpt lat="45.820227311003144" lon="11.82238404386122"><ele>247.0</ele><time>2026-05-03T07:41:36.001Z</time></trkpt><trkpt lat="45.8202658597887" lon="11.82257111982009"><ele>248.0</ele><time>2026-05-03T07:41:37.001Z</time></trkpt><trkpt lat="45.82030724228961" lon="11.822754412196723"><ele>249.0</ele><time>2026-05-03T07:41:38.001Z</time></trkpt><trkpt lat="45.82034787986214" lon="11.822940664494846"><ele>249.25</ele><time>2026-05-03T07:41:39.001Z</time></trkpt><trkpt lat="45.82038881784591" lon="11.823115246456648"><ele>249.5</ele><time>2026-05-03T07:41:40.001Z</time></trkpt><trkpt lat="45.82042706618331" lon="11.823295887126523"><ele>249.75</ele><time>2026-05-03T07:41:41.001Z</time></trkpt><trkpt lat="45.820466249499745" lon="11.823485737606898"><ele>250.0</ele><time>2026-05-03T07:41:42.001Z</time></trkpt><trkpt lat="45.820507122473025" lon="11.823678726239478"><ele>250.0</ele><time>2026-05-03T07:41:43.001Z</time></trkpt><trkpt lat="45.820544173027876" lon="11.823864731493579"><ele>250.0</ele><time>2026-05-03T07:41:44.001Z</time></trkpt><trkpt lat="45.820589537094314" lon="11.82404793244589"><ele>250.0</ele><time>2026-05-03T07:41:45.001Z</time></trkpt><trkpt lat="45.82063148029094" lon="11.824227841440898"><ele>250.0</ele><time>2026-05-03T07:41:46.001Z</time></trkpt><trkpt lat="45.82067245346876" lon="11.824415799556073"><ele>249.75</ele><time>2026-05-03T07:41:47.001Z</time></trkpt><trkpt lat="45.82071126867519" lon="11.824604889628521"><ele>249.5</ele><time>2026-05-03T07:41:48.001Z</time></trkpt><trkpt lat="45.82075097198211" lon="11.824801053842569"><ele>249.25</ele><time>2026-05-03T07:41:49.001Z</time></trkpt><trkpt lat="45.82079188337283" lon="11.824999579413525"><ele>249.0</ele><time>2026-05-03T07:41:50.001Z</time></trkpt><trkpt lat="45.820833866601646" lon="11.825202797925831"><ele>250.0</ele><time>2026-05-03T07:41:51.001Z</time></trkpt><trkpt lat="45.82088526843632" lon="11.82542059508749"><ele>251.0</ele><time>2026-05-03T07:41:52.001Z</time></trkpt><trkpt lat="45.8209343961661" lon="11.825641431744765"><ele>252.0</ele><time>2026-05-03T07:41:53.001Z</time></trkpt><trkpt lat="45.82097975379734" lon="11.825848175511565"><ele>253.66666666666669</ele><time>2026-05-03T07:41:54.001Z</time></trkpt><trkpt lat="45.821029121260985" lon="11.826062209558943"><ele>255.33333333333334</ele><time>2026-05-03T07:41:55.001Z</time></trkpt><trkpt lat="45.8210802623141" lon="11.826265601678648"><ele>257.0</ele><time>2026-05-03T07:41:56.001Z</time></trkpt><trkpt lat="45.821135292529206" lon="11.82646847040452"><ele>257.0</ele><time>2026-05-03T07:41:57.001Z</time></trkpt><trkpt lat="45.821193368377806" lon="11.826684521578812"><ele>257.0</ele><time>2026-05-03T07:41:58.001Z</time></trkpt><trkpt lat="45.82124840770682" lon="11.826897875752833"><ele>257.0</ele><time>2026-05-03T07:41:59.001Z</time></trkpt><trkpt lat="45.82130172518292" lon="11.827105250386635"><ele>257.5</ele><time>2026-05-03T07:42:00.001Z</time></trkpt><trkpt lat="45.82135246201511" lon="11.827307079477194"><ele>258.0</ele><time>2026-05-03T07:42:01.001Z</time></trkpt><trkpt lat="45.82140408810214" lon="11.827508800560667"><ele>258.5</ele><time>2026-05-03T07:42:02.001Z</time></trkpt><trkpt lat="45.82145598613724" lon="11.827705335239326"><ele>259.0</ele><time>2026-05-03T07:42:03.001Z</time></trkpt><trkpt lat="45.82150959972504" lon="11.82789952898815"><ele>259.25</ele><time>2026-05-03T07:42:04.001Z</time></trkpt><trkpt lat="45.82156182852746" lon="11.828094150112777"><ele>259.5</ele><time>2026-05-03T07:42:05.001Z</time></trkpt><trkpt lat="45.821611049962804" lon="11.82828311657399"><ele>259.75</ele><time>2026-05-03T07:42:06.001Z</time></trkpt><trkpt lat="45.821653603620796" lon="11.828451979539423"><ele>260.0</ele><time>2026-05-03T07:42:07.001Z</time></trkpt><trkpt lat="45.821690931206085" lon="11.828608730276876"><ele>260.0</ele><time>2026-05-03T07:42:08.001Z</time></trkpt><trkpt lat="45.821723136924554" lon="11.828751627059235"><ele>260.0</ele><time>2026-05-03T07:42:09.001Z</time></trkpt><trkpt lat="45.82175283152432" lon="11.828885026698634"><ele>260.0</ele><time>2026-05-03T07:42:10.001Z</time></trkpt><trkpt lat="45.82176715153951" lon="11.829008866316682"><ele>260.0</ele><time>2026-05-03T07:42:11.001Z</time></trkpt><trkpt lat="45.82176758592334" lon="11.829119496353007"><ele>260.0</ele><time>2026-05-03T07:42:12.001Z</time></trkpt><trkpt lat="45.821741124945085" lon="11.82922925453278"><ele>260.0</ele><time>2026-05-03T07:42:13.001Z</time></trkpt><trkpt lat="45.82168345281964" lon="11.829318529375728"><ele>260.1666666666667</ele><time>2026-05-03T07:42:14.001Z</time></trkpt><trkpt lat="45.821616932409476" lon="11.829396878407529"><ele>260.33333333333337</ele><time>2026-05-03T07:42:15.001Z</time></trkpt><trkpt lat="45.82158597325905" lon="11.829501038571282"><ele>260.5</ele><time>2026-05-03T07:42:16.001Z</time></trkpt><trkpt lat="45.82160808198325" lon="11.829614064944629"><ele>260.6666666666667</ele><time>2026-05-03T07:42:17.001Z</time></trkpt><trkpt lat="45.821675140061586" lon="11.82969702860774"><ele>260.8333333333333</ele><time>2026-05-03T07:42:18.001Z</time></trkpt><trkpt lat="45.821772350452505" lon="11.829747891506255"><ele>261.0</ele><time>2026-05-03T07:42:19.001Z</time></trkpt><trkpt lat="45.82188973577137" lon="11.829764852604661"><ele>262.0</ele><time>2026-05-03T07:42:20.001Z</time></trkpt><trkpt lat="45.82202038164557" lon="11.829820512331148"><ele>263.0</ele><time>2026-05-03T07:42:21.001Z</time></trkpt><trkpt lat="45.82214573456541" lon="11.82994450209608"><ele>264.0</ele><time>2026-05-03T07:42:22.001Z</time></trkpt><trkpt lat="45.82223494828374" lon="11.830149113525751"><ele>264.25</ele><time>2026-05-03T07:42:23.001Z</time></trkpt><trkpt lat="45.822345710081315" lon="11.830316147634907"><ele>264.5</ele><time>2026-05-03T07:42:24.001Z</time></trkpt><trkpt lat="45.82242049613964" lon="11.830474417559925"><ele>264.75</ele><time>2026-05-03T07:42:25.001Z</time></trkpt><trkpt lat="45.82249390776094" lon="11.830616994287725"><ele>265.0</ele><time>2026-05-03T07:42:26.001Z</time></trkpt><trkpt lat="45.822569281271726" lon="11.830751502387237"><ele>265.0</ele><time>2026-05-03T07:42:27.001Z</time></trkpt><trkpt lat="45.82264205975161" lon="11.830890618791168"><ele>265.0</ele><time>2026-05-03T07:42:28.001Z</time></trkpt><trkpt lat="45.82271312166565" lon="11.831019379575098"><ele>265.0</ele><time>2026-05-03T07:42:29.001Z</time></trkpt><trkpt lat="45.82278519427106" lon="11.83113560726538"><ele>265.0</ele><time>2026-05-03T07:42:30.001Z</time></trkpt><trkpt lat="45.82290702205294" lon="11.831390039211502"><ele>266.25</ele><time>2026-05-03T07:42:32.001Z</time></trkpt><trkpt lat="45.82297908111102" lon="11.831533308411492"><ele>267.5</ele><time>2026-05-03T07:42:33.001Z</time></trkpt><trkpt lat="45.82306117493747" lon="11.831680518540526"><ele>268.75</ele><time>2026-05-03T07:42:34.001Z</time></trkpt><trkpt lat="45.823145998558054" lon="11.831832607529876"><ele>270.0</ele><time>2026-05-03T07:42:35.001Z</time></trkpt><trkpt lat="45.82323103488043" lon="11.831983892379723"><ele>270.0</ele><time>2026-05-03T07:42:36.001Z</time></trkpt><trkpt lat="45.823313191466134" lon="11.832132462258338"><ele>270.0</ele><time>2026-05-03T07:42:37.001Z</time></trkpt><trkpt lat="45.823393088204114" lon="11.832274253238747"><ele>270.0</ele><time>2026-05-03T07:42:38.001Z</time></trkpt><trkpt lat="45.823466878467414" lon="11.832414043764691"><ele>270.0</ele><time>2026-05-03T07:42:39.001Z</time></trkpt><trkpt lat="45.82354426801385" lon="11.832548767932664"><ele>270.6</ele><time>2026-05-03T07:42:40.001Z</time></trkpt><trkpt lat="45.823627275836984" lon="11.832685184071494"><ele>271.2</ele><time>2026-05-03T07:42:41.001Z</time></trkpt><trkpt lat="45.823711048722366" lon="11.832799378232322"><ele>271.8</ele><time>2026-05-03T07:42:42.001Z</time></trkpt><trkpt lat="45.82379072926832" lon="11.8328877524588"><ele>272.4</ele><time>2026-05-03T07:42:43.001Z</time></trkpt><trkpt lat="45.82387063579815" lon="11.832984805033858"><ele>273.0</ele><time>2026-05-03T07:42:44.001Z</time></trkpt><trkpt lat="45.823960472253304" lon="11.833087582371558"><ele>273.0</ele><time>2026-05-03T07:42:45.001Z</time></trkpt><trkpt lat="45.82406733955638" lon="11.833203454480843"><ele>273.0</ele><time>2026-05-03T07:42:46.001Z</time></trkpt><trkpt lat="45.82417746236318" lon="11.833323082523602"><ele>273.0</ele><time>2026-05-03T07:42:47.001Z</time></trkpt><trkpt lat="45.82429422053181" lon="11.833448916113174"><ele>273.0</ele><time>2026-05-03T07:42:48.001Z</time></trkpt><trkpt lat="45.824421403180324" lon="11.83358028766215"><ele>274.6666666666667</ele><time>2026-05-03T07:42:49.001Z</time></trkpt><trkpt lat="45.8245507492401" lon="11.833717894270949"><ele>276.33333333333337</ele><time>2026-05-03T07:42:50.001Z</time></trkpt><trkpt lat="45.82468088020181" lon="11.833855279410509"><ele>278.0</ele><time>2026-05-03T07:42:51.001Z</time></trkpt><trkpt lat="45.824814566150145" lon="11.833997002778313"><ele>278.0</ele><time>2026-05-03T07:42:52.001Z</time></trkpt><trkpt lat="45.82494199357638" lon="11.834139564662495"><ele>278.0</ele><time>2026-05-03T07:42:53.001Z</time></trkpt><trkpt lat="45.825073957538144" lon="11.834279890278781"><ele>278.0</ele><time>2026-05-03T07:42:54.001Z</time></trkpt><trkpt lat="45.825205360779435" lon="11.834420103256424"><ele>279.6666666666667</ele><time>2026-05-03T07:42:55.001Z</time></trkpt><trkpt lat="45.825333974640124" lon="11.83455250878014"><ele>281.3333333333333</ele><time>2026-05-03T07:42:56.001Z</time></trkpt><trkpt lat="45.82545871688757" lon="11.834693584645215"><ele>283.0</ele><time>2026-05-03T07:42:57.001Z</time></trkpt><trkpt lat="45.825587791580446" lon="11.834830174558038"><ele>283.0</ele><time>2026-05-03T07:42:58.001Z</time></trkpt><trkpt lat="45.82571341812031" lon="11.83496928864519"><ele>283.0</ele><time>2026-05-03T07:42:59.001Z</time></trkpt><trkpt lat="45.82584127959729" lon="11.83509533492625"><ele>283.0</ele><time>2026-05-03T07:43:00.001Z</time></trkpt><trkpt lat="45.82596422778221" lon="11.835225044139827"><ele>283.75</ele><time>2026-05-03T07:43:01.001Z</time></trkpt><trkpt lat="45.826073566164155" lon="11.835343794086796"><ele>284.5</ele><time>2026-05-03T07:43:02.001Z</time></trkpt><trkpt lat="45.82616944277176" lon="11.835456695645002"><ele>285.25</ele><time>2026-05-03T07:43:03.001Z</time></trkpt><trkpt lat="45.82626221078395" lon="11.835556377923751"><ele>286.0</ele><time>2026-05-03T07:43:04.001Z</time></trkpt><trkpt lat="45.82634890843764" lon="11.835659527781514"><ele>286.0</ele><time>2026-05-03T07:43:05.001Z</time></trkpt><trkpt lat="45.826411173271076" lon="11.835792333886433"><ele>286.0</ele><time>2026-05-03T07:43:06.001Z</time></trkpt><trkpt lat="45.826461983706984" lon="11.835929067048422"><ele>286.0</ele><time>2026-05-03T07:43:07.001Z</time></trkpt><trkpt lat="45.82650364020996" lon="11.836082146536649"><ele>286.0</ele><time>2026-05-03T07:43:08.001Z</time></trkpt><trkpt lat="45.82653418450806" lon="11.836248376171659"><ele>285.75</ele><time>2026-05-03T07:43:09.001Z</time></trkpt><trkpt lat="45.82656964457343" lon="11.836413876433689"><ele>285.5</ele><time>2026-05-03T07:43:10.001Z</time></trkpt><trkpt lat="45.82660493819397" lon="11.836578599906845"><ele>285.25</ele><time>2026-05-03T07:43:11.001Z</time></trkpt><trkpt lat="45.82664150076268" lon="11.836749245852179"><ele>285.0</ele><time>2026-05-03T07:43:12.001Z</time></trkpt><trkpt lat="45.82668034980898" lon="11.83693056316155"><ele>285.0</ele><time>2026-05-03T07:43:13.001Z</time></trkpt><trkpt lat="45.826728129529236" lon="11.837108400581801"><ele>285.0</ele><time>2026-05-03T07:43:14.001Z</time></trkpt><trkpt lat="45.826765693676066" lon="11.837285158284203"><ele>285.0</ele><time>2026-05-03T07:43:15.001Z</time></trkpt><trkpt lat="45.82680010887794" lon="11.837447692127164"><ele>285.0</ele><time>2026-05-03T07:43:16.001Z</time></trkpt><trkpt lat="45.82683292522205" lon="11.837598048625107"><ele>287.5</ele><time>2026-05-03T07:43:17.001Z</time></trkpt><trkpt lat="45.82686085579758" lon="11.837736696697844"><ele>290.0</ele><time>2026-05-03T07:43:18.001Z</time></trkpt><trkpt lat="45.82688237206599" lon="11.83784522939641"><ele>292.5</ele><time>2026-05-03T07:43:19.001Z</time></trkpt><trkpt lat="45.82689752641497" lon="11.83796795212068"><ele>295.0</ele><time>2026-05-03T07:43:21.001Z</time></trkpt><trkpt lat="45.82709333776724" lon="11.837848473440825"><ele>295.0</ele><time>2026-05-03T07:43:23.001Z</time></trkpt><trkpt lat="45.827189358338124" lon="11.83779631607696"><ele>295.0</ele><time>2026-05-03T07:43:24.001Z</time></trkpt><trkpt lat="45.82727470367999" lon="11.83774351751054"><ele>295.0</ele><time>2026-05-03T07:43:25.001Z</time></trkpt><trkpt lat="45.82734740553129" lon="11.837701020559685"><ele>295.0</ele><time>2026-05-03T07:43:26.001Z</time></trkpt><trkpt lat="45.827425361073686" lon="11.837687483637122"><ele>295.0</ele><time>2026-05-03T07:43:27.001Z</time></trkpt><trkpt lat="45.827506501790914" lon="11.837633040056087"><ele>295.0</ele><time>2026-05-03T07:43:28.001Z</time></trkpt><trkpt lat="45.82758417416629" lon="11.837590249091438"><ele>295.2</ele><time>2026-05-03T07:43:29.001Z</time></trkpt><trkpt lat="45.827689010711964" lon="11.83752043281478"><ele>295.4</ele><time>2026-05-03T07:43:31.001Z</time></trkpt><trkpt lat="45.8278092740228" lon="11.837449033296156"><ele>295.6</ele><time>2026-05-03T07:43:33.001Z</time></trkpt><trkpt lat="45.82787340688983" lon="11.837406826200892"><ele>295.8</ele><time>2026-05-03T07:43:34.001Z</time></trkpt><trkpt lat="45.8279341931842" lon="11.83736097398901"><ele>296.0</ele><time>2026-05-03T07:43:35.001Z</time></trkpt><trkpt lat="45.828003503851406" lon="11.83731907156877"><ele>296.0</ele><time>2026-05-03T07:43:36.001Z</time></trkpt><trkpt lat="45.82806468602887" lon="11.83727822889791"><ele>296.0</ele><time>2026-05-03T07:43:37.001Z</time></trkpt><trkpt lat="45.82814852971771" lon="11.837248021518384"><ele>296.0</ele><time>2026-05-03T07:43:39.001Z</time></trkpt><trkpt lat="45.82824840742539" lon="11.837216074921027"><ele>296.0</ele><time>2026-05-03T07:43:41.001Z</time></trkpt><trkpt lat="45.82833118827372" lon="11.837201300340713"><ele>296.0</ele><time>2026-05-03T07:43:42.001Z</time></trkpt><trkpt lat="45.82843309095922" lon="11.83718207362714"><ele>296.0</ele><time>2026-05-03T07:43:43.001Z</time></trkpt><trkpt lat="45.82853580154132" lon="11.837156494183434"><ele>297.25</ele><time>2026-05-03T07:43:44.001Z</time></trkpt><trkpt lat="45.82866169321055" lon="11.837121906902057"><ele>298.5</ele><time>2026-05-03T07:43:45.001Z</time></trkpt><trkpt lat="45.828776596721156" lon="11.837085541557656"><ele>299.75</ele><time>2026-05-03T07:43:46.001Z</time></trkpt><trkpt lat="45.82889560454644" lon="11.837047998259433"><ele>301.0</ele><time>2026-05-03T07:43:47.001Z</time></trkpt><trkpt lat="45.82901942351491" lon="11.837002536710914"><ele>301.0</ele><time>2026-05-03T07:43:48.001Z</time></trkpt><trkpt lat="45.82914543464838" lon="11.83694769164247"><ele>301.0</ele><time>2026-05-03T07:43:49.001Z</time></trkpt><trkpt lat="45.82926721154913" lon="11.836886385530363"><ele>301.0</ele><time>2026-05-03T07:43:50.001Z</time></trkpt><trkpt lat="45.82937936422191" lon="11.8368271582885"><ele>301.0</ele><time>2026-05-03T07:43:51.001Z</time></trkpt><trkpt lat="45.829493303972406" lon="11.836775222112989"><ele>302.75</ele><time>2026-05-03T07:43:52.001Z</time></trkpt><trkpt lat="45.82960652132015" lon="11.836721025397361"><ele>304.5</ele><time>2026-05-03T07:43:53.001Z</time></trkpt><trkpt lat="45.82972619359004" lon="11.836672897289425"><ele>306.25</ele><time>2026-05-03T07:43:54.001Z</time></trkpt><trkpt lat="45.82984430137954" lon="11.836623675475023"><ele>308.0</ele><time>2026-05-03T07:43:55.001Z</time></trkpt><trkpt lat="45.829941288068476" lon="11.836585871906461"><ele>308.0</ele><time>2026-05-03T07:43:56.001Z</time></trkpt><trkpt lat="45.83002858719784" lon="11.836554631763386"><ele>308.0</ele><time>2026-05-03T07:43:57.001Z</time></trkpt><trkpt lat="45.83010027171528" lon="11.836516169210556"><ele>308.0</ele><time>2026-05-03T07:43:58.001Z</time></trkpt><trkpt lat="45.83019368648373" lon="11.83647706719475"><ele>308.0</ele><time>2026-05-03T07:44:00.001Z</time></trkpt><trkpt lat="45.83020858252622" lon="11.836668383577052"><ele>308.0</ele><time>2026-05-03T07:44:03.001Z</time></trkpt><trkpt lat="45.83022197112668" lon="11.836785207435954"><ele>308.8</ele><time>2026-05-03T07:44:04.001Z</time></trkpt><trkpt lat="45.83025210507925" lon="11.83690131901957"><ele>309.6</ele><time>2026-05-03T07:44:05.001Z</time></trkpt><trkpt lat="45.83026756267055" lon="11.837012962114661"><ele>310.4</ele><time>2026-05-03T07:44:06.001Z</time></trkpt><trkpt lat="45.83027311393477" lon="11.837104919323439"><ele>311.2</ele><time>2026-05-03T07:44:07.001Z</time></trkpt><trkpt lat="45.830292627059585" lon="11.837259568924042"><ele>312.0</ele><time>2026-05-03T07:44:09.001Z</time></trkpt><trkpt lat="45.83032859052236" lon="11.837418593870046"><ele>312.0</ele><time>2026-05-03T07:44:11.001Z</time></trkpt><trkpt lat="45.83035074267722" lon="11.837507409721557"><ele>312.0</ele><time>2026-05-03T07:44:12.001Z</time></trkpt><trkpt lat="45.830353041114535" lon="11.83760372953266"><ele>312.0</ele><time>2026-05-03T07:44:13.001Z</time></trkpt><trkpt lat="45.830371439251515" lon="11.837695326682018"><ele>312.0</ele><time>2026-05-03T07:44:14.001Z</time></trkpt><trkpt lat="45.83036146883167" lon="11.83785197551964"><ele>312.0</ele><time>2026-05-03T07:44:16.001Z</time></trkpt><trkpt lat="45.830287613002305" lon="11.837965999931901"><ele>312.0</ele><time>2026-05-03T07:44:18.001Z</time></trkpt><trkpt lat="45.83023987833106" lon="11.83804295669989"><ele>311.0</ele><time>2026-05-03T07:44:20.001Z</time></trkpt><trkpt lat="45.830186333761446" lon="11.838150637947244"><ele>310.0</ele><time>2026-05-03T07:44:23.001Z</time></trkpt><trkpt lat="45.83024486749363" lon="11.838234394998592"><ele>309.0</ele><time>2026-05-03T07:44:25.001Z</time></trkpt><trkpt lat="45.83031148754571" lon="11.838227065879426"><ele>308.0</ele><time>2026-05-03T07:44:26.001Z</time></trkpt><trkpt lat="45.83037854099477" lon="11.838216994795467"><ele>307.0</ele><time>2026-05-03T07:44:27.001Z</time></trkpt><trkpt lat="45.83045176932885" lon="11.838215145176523"><ele>306.0</ele><time>2026-05-03T07:44:28.001Z</time></trkpt><trkpt lat="45.830525332488634" lon="11.838237259822938"><ele>306.0</ele><time>2026-05-03T07:44:29.001Z</time></trkpt><trkpt lat="45.83059548318307" lon="11.838284222737082"><ele>306.0</ele><time>2026-05-03T07:44:30.001Z</time></trkpt><trkpt lat="45.83065562858963" lon="11.838357821129325"><ele>306.0</ele><time>2026-05-03T07:44:31.001Z</time></trkpt><trkpt lat="45.83070507035503" lon="11.838465348963936"><ele>306.0</ele><time>2026-05-03T07:44:32.001Z</time></trkpt><trkpt lat="45.830785305126454" lon="11.838573635044368"><ele>306.0</ele><time>2026-05-03T07:44:33.001Z</time></trkpt><trkpt lat="45.83085412282443" lon="11.838709346674122"><ele>305.6</ele><time>2026-05-03T07:44:34.001Z</time></trkpt><trkpt lat="45.83092284887716" lon="11.838838846049239"><ele>305.20000000000005</ele><time>2026-05-03T07:44:35.001Z</time></trkpt><trkpt lat="45.830983157168696" lon="11.83894825558412"><ele>304.79999999999995</ele><time>2026-05-03T07:44:36.001Z</time></trkpt><trkpt lat="45.831043187442354" lon="11.839057017286121"><ele>304.4</ele><time>2026-05-03T07:44:37.001Z</time></trkpt><trkpt lat="45.83111594804334" lon="11.839171662614055"><ele>304.0</ele><time>2026-05-03T07:44:38.001Z</time></trkpt><trkpt lat="45.8311882651322" lon="11.839301975563693"><ele>305.0</ele><time>2026-05-03T07:44:39.001Z</time></trkpt><trkpt lat="45.831263986426805" lon="11.839426772902373"><ele>306.0</ele><time>2026-05-03T07:44:40.001Z</time></trkpt><trkpt lat="45.83132418263167" lon="11.839541556195423"><ele>307.0</ele><time>2026-05-03T07:44:41.001Z</time></trkpt><trkpt lat="45.8313874814108" lon="11.839647529091685"><ele>308.0</ele><time>2026-05-03T07:44:42.001Z</time></trkpt><trkpt lat="45.83145415141945" lon="11.839772371440853"><ele>309.0</ele><time>2026-05-03T07:44:43.001Z</time></trkpt><trkpt lat="45.831521587943804" lon="11.839913418117336"><ele>309.0</ele><time>2026-05-03T07:44:44.001Z</time></trkpt><trkpt lat="45.831578331102854" lon="11.840096401117865"><ele>309.0</ele><time>2026-05-03T07:44:45.001Z</time></trkpt><trkpt lat="45.83164772055206" lon="11.840317817703898"><ele>309.0</ele><time>2026-05-03T07:44:46.001Z</time></trkpt><trkpt lat="45.83172599663684" lon="11.840570698167182"><ele>312.0</ele><time>2026-05-03T07:44:47.001Z</time></trkpt><trkpt lat="45.83182577517935" lon="11.840832531438632"><ele>315.0</ele><time>2026-05-03T07:44:48.001Z</time></trkpt><trkpt lat="45.83189914348343" lon="11.841118053578317"><ele>318.0</ele><time>2026-05-03T07:44:49.001Z</time></trkpt><trkpt lat="45.83196023813391" lon="11.841363207327257"><ele>318.0</ele><time>2026-05-03T07:44:50.001Z</time></trkpt><trkpt lat="45.832023047087475" lon="11.841572790900544"><ele>318.0</ele><time>2026-05-03T07:44:51.001Z</time></trkpt><trkpt lat="45.83208531479329" lon="11.841756491875763"><ele>318.0</ele><time>2026-05-03T07:44:52.001Z</time></trkpt><trkpt lat="45.832155883179034" lon="11.841903759551275"><ele>318.0</ele><time>2026-05-03T07:44:53.001Z</time></trkpt><trkpt lat="45.83226183993937" lon="11.842000970588664"><ele>318.3333333333333</ele><time>2026-05-03T07:44:54.001Z</time></trkpt><trkpt lat="45.832398692166485" lon="11.842065765549854"><ele>318.66666666666663</ele><time>2026-05-03T07:44:55.001Z</time></trkpt><trkpt lat="45.83255600755137" lon="11.842114550200812"><ele>319.0</ele><time>2026-05-03T07:44:56.001Z</time></trkpt><trkpt lat="45.83272211660507" lon="11.842165039145444"><ele>319.0</ele><time>2026-05-03T07:44:57.001Z</time></trkpt><trkpt lat="45.8329007463159" lon="11.842228279419881"><ele>319.0</ele><time>2026-05-03T07:44:58.001Z</time></trkpt><trkpt lat="45.83307857366456" lon="11.842292336150125"><ele>319.0</ele><time>2026-05-03T07:44:59.001Z</time></trkpt><trkpt lat="45.83323169523629" lon="11.84234939791768"><ele>319.0</ele><time>2026-05-03T07:45:00.001Z</time></trkpt><trkpt lat="45.833369674651415" lon="11.842395306590994"><ele>319.0</ele><time>2026-05-03T07:45:01.001Z</time></trkpt><trkpt lat="45.83349362079686" lon="11.842443782371076"><ele>319.0</ele><time>2026-05-03T07:45:02.001Z</time></trkpt><trkpt lat="45.833590249324715" lon="11.842491930051764"><ele>319.0</ele><time>2026-05-03T07:45:03.001Z</time></trkpt><trkpt lat="45.8336677247689" lon="11.842554591835817"><ele>320.0</ele><time>2026-05-03T07:45:04.001Z</time></trkpt><trkpt lat="45.833727114660434" lon="11.842645171546456"><ele>321.0</ele><time>2026-05-03T07:45:05.001Z</time></trkpt><trkpt lat="45.83374853643039" lon="11.842756559630645"><ele>322.0</ele><time>2026-05-03T07:45:06.001Z</time></trkpt><trkpt lat="45.83374038822812" lon="11.842863868112424"><ele>323.0</ele><time>2026-05-03T07:45:07.001Z</time></trkpt><trkpt lat="45.833659998419044" lon="11.842949440628816"><ele>324.0</ele><time>2026-05-03T07:45:08.001Z</time></trkpt><trkpt lat="45.833599974638474" lon="11.843084297862518"><ele>324.0</ele><time>2026-05-03T07:45:09.001Z</time></trkpt><trkpt lat="45.83353719270047" lon="11.843253994073253"><ele>324.0</ele><time>2026-05-03T07:45:10Z</time></trkpt><trkpt lat="45.83345279793254" lon="11.843428378429437"><ele>324.0</ele><time>2026-05-03T07:45:11Z</time></trkpt><trkpt lat="45.83336233573366" lon="11.843623086937503"><ele>324.0</ele><time>2026-05-03T07:45:12Z</time></trkpt><trkpt lat="45.83327535896876" lon="11.843826900243192"><ele>322.6666666666667</ele><time>2026-05-03T07:45:13Z</time></trkpt><trkpt lat="45.833190992545745" lon="11.8440302800582"><ele>321.33333333333337</ele><time>2026-05-03T07:45:14Z</time></trkpt><trkpt lat="45.833102485989954" lon="11.844233058822503"><ele>320.0</ele><time>2026-05-03T07:45:15Z</time></trkpt><trkpt lat="45.83301105589222" lon="11.844432641981564"><ele>320.0</ele><time>2026-05-03T07:45:16Z</time></trkpt><trkpt lat="45.83292661778089" lon="11.84463363178637"><ele>320.0</ele><time>2026-05-03T07:45:17Z</time></trkpt><trkpt lat="45.832841159918985" lon="11.84483730949427"><ele>320.0</ele><time>2026-05-03T07:45:18Z</time></trkpt><trkpt lat="45.832761159063274" lon="11.845042319556459"><ele>320.5</ele><time>2026-05-03T07:45:19Z</time></trkpt><trkpt lat="45.832701388807216" lon="11.845229033328039"><ele>321.0</ele><time>2026-05-03T07:45:20Z</time></trkpt><trkpt lat="45.832659525657036" lon="11.84542170444354"><ele>321.5</ele><time>2026-05-03T07:45:21Z</time></trkpt><trkpt lat="45.83264319251471" lon="11.845632514279199"><ele>322.0</ele><time>2026-05-03T07:45:22Z</time></trkpt><trkpt lat="45.832665660721005" lon="11.845848786563007"><ele>323.0</ele><time>2026-05-03T07:45:23Z</time></trkpt><trkpt lat="45.83272954152103" lon="11.846053781751856"><ele>324.0</ele><time>2026-05-03T07:45:24Z</time></trkpt><trkpt lat="45.83283343378858" lon="11.84623689948556"><ele>325.0</ele><time>2026-05-03T07:45:25Z</time></trkpt><trkpt lat="45.83296858256447" lon="11.846414291400068"><ele>325.0</ele><time>2026-05-03T07:45:26Z</time></trkpt><trkpt lat="45.83310624382709" lon="11.846573679120011"><ele>325.0</ele><time>2026-05-03T07:45:27Z</time></trkpt><trkpt lat="45.833237535624555" lon="11.846741561186423"><ele>325.0</ele><time>2026-05-03T07:45:28Z</time></trkpt><trkpt lat="45.83338074022336" lon="11.846925908410272"><ele>327.3333333333333</ele><time>2026-05-03T07:45:29Z</time></trkpt><trkpt lat="45.833522349846056" lon="11.847114007134596"><ele>329.6666666666667</ele><time>2026-05-03T07:45:30Z</time></trkpt><trkpt lat="45.83366472338367" lon="11.847307144282846"><ele>332.0</ele><time>2026-05-03T07:45:31Z</time></trkpt><trkpt lat="45.83382857106094" lon="11.847469299831594"><ele>332.0</ele><time>2026-05-03T07:45:32Z</time></trkpt><trkpt lat="45.834005486261695" lon="11.847615056626045"><ele>332.0</ele><time>2026-05-03T07:45:33Z</time></trkpt><trkpt lat="45.834188491788126" lon="11.847748704463925"><ele>332.0</ele><time>2026-05-03T07:45:34Z</time></trkpt><trkpt lat="45.834377088983125" lon="11.847877132846424"><ele>332.6666666666667</ele><time>2026-05-03T07:45:35Z</time></trkpt><trkpt lat="45.83455668796977" lon="11.848004230443305"><ele>333.3333333333333</ele><time>2026-05-03T07:45:36Z</time></trkpt><trkpt lat="45.83472781264106" lon="11.84812463070515"><ele>334.0</ele><time>2026-05-03T07:45:37Z</time></trkpt><trkpt lat="45.834890167569604" lon="11.848255992340302"><ele>334.0</ele><time>2026-05-03T07:45:38Z</time></trkpt><trkpt lat="45.83503351982898" lon="11.848416897214198"><ele>334.0</ele><time>2026-05-03T07:45:39Z</time></trkpt><trkpt lat="45.835162208320455" lon="11.848613560978203"><ele>334.0</ele><time>2026-05-03T07:45:40Z</time></trkpt><trkpt lat="45.83526939342724" lon="11.848847290210685"><ele>335.66666666666663</ele><time>2026-05-03T07:45:41Z</time></trkpt><trkpt lat="45.83535608896116" lon="11.849113964562719"><ele>337.3333333333333</ele><time>2026-05-03T07:45:42Z</time></trkpt><trkpt lat="45.83541991732011" lon="11.849395904817031"><ele>339.0</ele><time>2026-05-03T07:45:43Z</time></trkpt><trkpt lat="45.83544705517979" lon="11.849711614202716"><ele>339.0</ele><time>2026-05-03T07:45:44Z</time></trkpt><trkpt lat="45.835505932212186" lon="11.85001614928834"><ele>339.0</ele><time>2026-05-03T07:45:45Z</time></trkpt><trkpt lat="45.83555103627726" lon="11.850330950383729"><ele>339.0</ele><time>2026-05-03T07:45:46Z</time></trkpt><trkpt lat="45.835600897696295" lon="11.85064146956457"><ele>338.6666666666667</ele><time>2026-05-03T07:45:47Z</time></trkpt><trkpt lat="45.83565104365044" lon="11.850944744462666"><ele>338.33333333333337</ele><time>2026-05-03T07:45:48Z</time></trkpt><trkpt lat="45.83569865562964" lon="11.851242717108375"><ele>338.0</ele><time>2026-05-03T07:45:49Z</time></trkpt><trkpt lat="45.83574759912527" lon="11.851536466480763"><ele>337.6666666666667</ele><time>2026-05-03T07:45:50Z</time></trkpt><trkpt lat="45.835802006476676" lon="11.851835392323691"><ele>337.3333333333333</ele><time>2026-05-03T07:45:51Z</time></trkpt><trkpt lat="45.835865942118176" lon="11.852122302406489"><ele>337.0</ele><time>2026-05-03T07:45:52Z</time></trkpt><trkpt lat="45.83594279889745" lon="11.852404444495226"><ele>338.3333333333333</ele><time>2026-05-03T07:45:53Z</time></trkpt><trkpt lat="45.83602629640807" lon="11.852684584248884"><ele>339.6666666666667</ele><time>2026-05-03T07:45:54Z</time></trkpt><trkpt lat="45.83611658910174" lon="11.852961045703125"><ele>341.0</ele><time>2026-05-03T07:45:55Z</time></trkpt><trkpt lat="45.83621003839212" lon="11.853234711420832"><ele>340.6666666666667</ele><time>2026-05-03T07:45:56Z</time></trkpt><trkpt lat="45.83630296438829" lon="11.85351212108805"><ele>340.3333333333333</ele><time>2026-05-03T07:45:57Z</time></trkpt><trkpt lat="45.83639168927528" lon="11.853796319636372"><ele>340.0</ele><time>2026-05-03T07:45:58Z</time></trkpt><trkpt lat="45.836478919387176" lon="11.854080898875557"><ele>338.3333333333333</ele><time>2026-05-03T07:45:59Z</time></trkpt><trkpt lat="45.836566748512936" lon="11.854361820838736"><ele>336.6666666666667</ele><time>2026-05-03T07:46:00Z</time></trkpt><trkpt lat="45.83665486047343" lon="11.854633972506262"><ele>335.0</ele><time>2026-05-03T07:46:01Z</time></trkpt><trkpt lat="45.83673290608973" lon="11.854893874783702"><ele>336.0</ele><time>2026-05-03T07:46:02Z</time></trkpt><trkpt lat="45.836811881773244" lon="11.855161602695059"><ele>337.0</ele><time>2026-05-03T07:46:03Z</time></trkpt><trkpt lat="45.83689321446473" lon="11.855428922087977"><ele>338.0</ele><time>2026-05-03T07:46:04Z</time></trkpt><trkpt lat="45.83698458436515" lon="11.855704540616292"><ele>337.0</ele><time>2026-05-03T07:46:05Z</time></trkpt><trkpt lat="45.83707393576986" lon="11.85598273469561"><ele>336.0</ele><time>2026-05-03T07:46:06Z</time></trkpt><trkpt lat="45.83716687424112" lon="11.856253262230041"><ele>335.0</ele><time>2026-05-03T07:46:07Z</time></trkpt><trkpt lat="45.837272840360875" lon="11.85651296281659"><ele>335.0</ele><time>2026-05-03T07:46:08Z</time></trkpt><trkpt lat="45.83740049478514" lon="11.85674572812601"><ele>335.0</ele><time>2026-05-03T07:46:09Z</time></trkpt><trkpt lat="45.83756239617806" lon="11.856956426042123"><ele>335.0</ele><time>2026-05-03T07:46:10Z</time></trkpt><trkpt lat="45.837740543078084" lon="11.857139025564855"><ele>335.0</ele><time>2026-05-03T07:46:11Z</time></trkpt><trkpt lat="45.837929930328784" lon="11.857305493444738"><ele>335.0</ele><time>2026-05-03T07:46:12Z</time></trkpt><trkpt lat="45.83814121998714" lon="11.85745117887285"><ele>335.0</ele><time>2026-05-03T07:46:13Z</time></trkpt><trkpt lat="45.838375791617594" lon="11.857575977676047"><ele>335.0</ele><time>2026-05-03T07:46:14Z</time></trkpt><trkpt lat="45.83862654455275" lon="11.85770128761965"><ele>335.5</ele><time>2026-05-03T07:46:15Z</time></trkpt><trkpt lat="45.838861644348675" lon="11.857821448796644"><ele>336.0</ele><time>2026-05-03T07:46:16Z</time></trkpt><trkpt lat="45.839088742929995" lon="11.857947157886567"><ele>336.5</ele><time>2026-05-03T07:46:17Z</time></trkpt><trkpt lat="45.83931154085999" lon="11.858071502984096"><ele>337.0</ele><time>2026-05-03T07:46:18Z</time></trkpt><trkpt lat="45.83952585634092" lon="11.858191816213264"><ele>337.0</ele><time>2026-05-03T07:46:19Z</time></trkpt><trkpt lat="45.83972223467751" lon="11.858314979048497"><ele>337.0</ele><time>2026-05-03T07:46:20Z</time></trkpt><trkpt lat="45.83991111076481" lon="11.858429180733939"><ele>337.0</ele><time>2026-05-03T07:46:21Z</time></trkpt><trkpt lat="45.840110146648016" lon="11.858537605129387"><ele>337.0</ele><time>2026-05-03T07:46:22Z</time></trkpt><trkpt lat="45.84031087184451" lon="11.858653132010195"><ele>337.0</ele><time>2026-05-03T07:46:23Z</time></trkpt><trkpt lat="45.84051457993334" lon="11.858768709951361"><ele>337.0</ele><time>2026-05-03T07:46:24Z</time></trkpt><trkpt lat="45.840716899143025" lon="11.8588832719966"><ele>337.0</ele><time>2026-05-03T07:46:25Z</time></trkpt><trkpt lat="45.84090748682348" lon="11.859001411027029"><ele>337.0</ele><time>2026-05-03T07:46:26Z</time></trkpt><trkpt lat="45.84108412476098" lon="11.859107175613497"><ele>337.0</ele><time>2026-05-03T07:46:27Z</time></trkpt><trkpt lat="45.84126542057744" lon="11.859193898138102"><ele>337.0</ele><time>2026-05-03T07:46:28Z</time></trkpt><trkpt lat="45.84145249820801" lon="11.859230557648788"><ele>337.0</ele><time>2026-05-03T07:46:29Z</time></trkpt><trkpt lat="45.84164275173701" lon="11.859211905338933"><ele>337.0</ele><time>2026-05-03T07:46:30Z</time></trkpt><trkpt lat="45.84182442285106" lon="11.859149375032532"><ele>336.0</ele><time>2026-05-03T07:46:31Z</time></trkpt><trkpt lat="45.84198395245749" lon="11.859062213779904"><ele>335.0</ele><time>2026-05-03T07:46:32Z</time></trkpt><trkpt lat="45.842103892338905" lon="11.858963147626445"><ele>334.0</ele><time>2026-05-03T07:46:33Z</time></trkpt><trkpt lat="45.84220498096224" lon="11.858884118181182"><ele>333.0</ele><time>2026-05-03T07:46:34Z</time></trkpt><trkpt lat="45.84229655934057" lon="11.858858274148593"><ele>333.0</ele><time>2026-05-03T07:46:35Z</time></trkpt><trkpt lat="45.8423871783692" lon="11.858901580218088"><ele>333.0</ele><time>2026-05-03T07:46:36Z</time></trkpt><trkpt lat="45.84242409735261" lon="11.859064178486415"><ele>333.0</ele><time>2026-05-03T07:46:37Z</time></trkpt><trkpt lat="45.84250182198863" lon="11.85923936445563"><ele>333.0</ele><time>2026-05-03T07:46:38Z</time></trkpt><trkpt lat="45.84259873947005" lon="11.859433591221544"><ele>334.0</ele><time>2026-05-03T07:46:39Z</time></trkpt><trkpt lat="45.84268243559421" lon="11.859654755141538"><ele>335.0</ele><time>2026-05-03T07:46:40Z</time></trkpt><trkpt lat="45.84277038077057" lon="11.859874012774464"><ele>336.0</ele><time>2026-05-03T07:46:41Z</time></trkpt><trkpt lat="45.84286943544108" lon="11.860103286687101"><ele>333.3333333333333</ele><time>2026-05-03T07:46:42Z</time></trkpt><trkpt lat="45.8429697146079" lon="11.860336310265374"><ele>330.66666666666663</ele><time>2026-05-03T07:46:43Z</time></trkpt><trkpt lat="45.843070199793054" lon="11.860564744623309"><ele>328.0</ele><time>2026-05-03T07:46:44Z</time></trkpt><trkpt lat="45.84315219380838" lon="11.860772537169906"><ele>326.25</ele><time>2026-05-03T07:46:45Z</time></trkpt><trkpt lat="45.84322599208879" lon="11.860959263630884"><ele>324.5</ele><time>2026-05-03T07:46:46Z</time></trkpt><trkpt lat="45.84330330275926" lon="11.861120522273545"><ele>322.75</ele><time>2026-05-03T07:46:47Z</time></trkpt><trkpt lat="45.843398180751855" lon="11.861247593533538"><ele>321.0</ele><time>2026-05-03T07:46:48Z</time></trkpt><trkpt lat="45.843518414752246" lon="11.86133083629604"><ele>319.25</ele><time>2026-05-03T07:46:49Z</time></trkpt><trkpt lat="45.84366157842644" lon="11.861362772427215"><ele>317.5</ele><time>2026-05-03T07:46:50Z</time></trkpt><trkpt lat="45.843807378508615" lon="11.861327191401921"><ele>315.75</ele><time>2026-05-03T07:46:51Z</time></trkpt><trkpt lat="45.843930540402425" lon="11.861228474126294"><ele>314.0</ele><time>2026-05-03T07:46:52Z</time></trkpt><trkpt lat="45.84403767043336" lon="11.861101739401631"><ele>315.75</ele><time>2026-05-03T07:46:53Z</time></trkpt><trkpt lat="45.84412391289463" lon="11.860934437918662"><ele>317.5</ele><time>2026-05-03T07:46:54Z</time></trkpt><trkpt lat="45.84416207093753" lon="11.860740416336661"><ele>319.25</ele><time>2026-05-03T07:46:55Z</time></trkpt><trkpt lat="45.84416024594918" lon="11.860524744816141"><ele>321.0</ele><time>2026-05-03T07:46:56Z</time></trkpt><trkpt lat="45.84418032542765" lon="11.860320393802496"><ele>321.0</ele><time>2026-05-03T07:46:57Z</time></trkpt><trkpt lat="45.844205468123654" lon="11.860135473706778"><ele>321.0</ele><time>2026-05-03T07:46:58Z</time></trkpt><trkpt lat="45.844217166292935" lon="11.859969649531859"><ele>321.0</ele><time>2026-05-03T07:46:59Z</time></trkpt><trkpt lat="45.84402345130933" lon="11.859738183382271"><ele>321.5</ele><time>2026-05-03T07:47:00Z</time></trkpt><trkpt lat="45.844071776153484" lon="11.859561483012868"><ele>322.0</ele><time>2026-05-03T07:47:01Z</time></trkpt><trkpt lat="45.84414756320394" lon="11.85938928348209"><ele>322.5</ele><time>2026-05-03T07:47:02Z</time></trkpt><trkpt lat="45.84422959307922" lon="11.859241635217204"><ele>323.0</ele><time>2026-05-03T07:47:03Z</time></trkpt><trkpt lat="45.844322456382734" lon="11.859132030035637"><ele>324.5</ele><time>2026-05-03T07:47:04Z</time></trkpt><trkpt lat="45.84445714208168" lon="11.859090876142902"><ele>326.0</ele><time>2026-05-03T07:47:05Z</time></trkpt><trkpt lat="45.84459280919876" lon="11.85912713806451"><ele>327.5</ele><time>2026-05-03T07:47:06Z</time></trkpt><trkpt lat="45.844721110697904" lon="11.859254307321153"><ele>329.0</ele><time>2026-05-03T07:47:07Z</time></trkpt><trkpt lat="45.84486045505543" lon="11.859405098987994"><ele>329.5</ele><time>2026-05-03T07:47:08Z</time></trkpt><trkpt lat="45.84499344328928" lon="11.8595287163406"><ele>330.0</ele><time>2026-05-03T07:47:09Z</time></trkpt><trkpt lat="45.84511509497586" lon="11.859634818861219"><ele>330.5</ele><time>2026-05-03T07:47:10Z</time></trkpt><trkpt lat="45.845232400610584" lon="11.859730459328086"><ele>331.0</ele><time>2026-05-03T07:47:11Z</time></trkpt><trkpt lat="45.84534354406532" lon="11.859823158279719"><ele>331.0</ele><time>2026-05-03T07:47:12Z</time></trkpt><trkpt lat="45.84542868506449" lon="11.859926703204625"><ele>331.0</ele><time>2026-05-03T07:47:13Z</time></trkpt><trkpt lat="45.84547034786895" lon="11.860075648491767"><ele>331.0</ele><time>2026-05-03T07:47:14Z</time></trkpt><trkpt lat="45.845460999784954" lon="11.860254777309837"><ele>331.0</ele><time>2026-05-03T07:47:15Z</time></trkpt><trkpt lat="45.845411141844714" lon="11.860418067216553"><ele>330.75</ele><time>2026-05-03T07:47:16Z</time></trkpt><trkpt lat="45.84532590905177" lon="11.860555597212924"><ele>330.5</ele><time>2026-05-03T07:47:17Z</time></trkpt><trkpt lat="45.84523541007446" lon="11.860696347968217"><ele>330.25</ele><time>2026-05-03T07:47:18Z</time></trkpt><trkpt lat="45.84513693617027" lon="11.860860126310078"><ele>330.0</ele><time>2026-05-03T07:47:19Z</time></trkpt><trkpt lat="45.84504197981404" lon="11.861031714862118"><ele>322.0</ele><time>2026-05-03T07:47:20Z</time></trkpt><trkpt lat="45.84496439821744" lon="11.8612056414764"><ele>314.0</ele><time>2026-05-03T07:47:21Z</time></trkpt><trkpt lat="45.84491192834006" lon="11.861418673408192"><ele>306.0</ele><time>2026-05-03T07:47:22Z</time></trkpt><trkpt lat="45.84489719972645" lon="11.861664117995158"><ele>305.3333333333333</ele><time>2026-05-03T07:47:23Z</time></trkpt><trkpt lat="45.84489625349129" lon="11.861915568486523"><ele>304.66666666666663</ele><time>2026-05-03T07:47:24Z</time></trkpt><trkpt lat="45.84489615049075" lon="11.86218866024824"><ele>304.0</ele><time>2026-05-03T07:47:25Z</time></trkpt><trkpt lat="45.844903606620704" lon="11.862470757612948"><ele>300.3333333333333</ele><time>2026-05-03T07:47:26Z</time></trkpt><trkpt lat="45.84492655034606" lon="11.862755255291692"><ele>296.6666666666667</ele><time>2026-05-03T07:47:27Z</time></trkpt><trkpt lat="45.84496434931833" lon="11.863051198256564"><ele>293.0</ele><time>2026-05-03T07:47:28Z</time></trkpt><trkpt lat="45.84500243181405" lon="11.863357866101445"><ele>290.6666666666667</ele><time>2026-05-03T07:47:29Z</time></trkpt><trkpt lat="45.8450450059177" lon="11.863663359896826"><ele>288.3333333333333</ele><time>2026-05-03T07:47:30Z</time></trkpt><trkpt lat="45.84507967703777" lon="11.86396403685994"><ele>286.0</ele><time>2026-05-03T07:47:31Z</time></trkpt><trkpt lat="45.845111121332835" lon="11.86425090022083"><ele>281.0</ele><time>2026-05-03T07:47:32Z</time></trkpt><trkpt lat="45.84513901308932" lon="11.86453999349567"><ele>276.0</ele><time>2026-05-03T07:47:33Z</time></trkpt><trkpt lat="45.84516397204735" lon="11.864815151183684"><ele>271.0</ele><time>2026-05-03T07:47:34Z</time></trkpt><trkpt lat="45.8451890871306" lon="11.865084179738007"><ele>270.3333333333333</ele><time>2026-05-03T07:47:35Z</time></trkpt><trkpt lat="45.84521772143502" lon="11.865357878838644"><ele>269.6666666666667</ele><time>2026-05-03T07:47:36Z</time></trkpt><trkpt lat="45.845241264562716" lon="11.865631845826465"><ele>269.0</ele><time>2026-05-03T07:47:37Z</time></trkpt><trkpt lat="45.84526295237622" lon="11.865906872593225"><ele>269.33333333333337</ele><time>2026-05-03T07:47:38Z</time></trkpt><trkpt lat="45.84528471359603" lon="11.866167343904632"><ele>269.6666666666667</ele><time>2026-05-03T07:47:39Z</time></trkpt><trkpt lat="45.845308784944265" lon="11.866432315763355"><ele>270.0</ele><time>2026-05-03T07:47:40Z</time></trkpt><trkpt lat="45.845354187079174" lon="11.866701083283036"><ele>268.6666666666667</ele><time>2026-05-03T07:47:41Z</time></trkpt><trkpt lat="45.84542145510098" lon="11.866969473107169"><ele>267.33333333333337</ele><time>2026-05-03T07:47:42Z</time></trkpt><trkpt lat="45.845508836693895" lon="11.867222981015532"><ele>266.0</ele><time>2026-05-03T07:47:43Z</time></trkpt><trkpt lat="45.84561345894239" lon="11.867448142160113"><ele>265.6666666666667</ele><time>2026-05-03T07:47:44Z</time></trkpt><trkpt lat="45.84572720529717" lon="11.867646267493184"><ele>265.3333333333333</ele><time>2026-05-03T07:47:45Z</time></trkpt><trkpt lat="45.8458621270477" lon="11.867821683273077"><ele>265.0</ele><time>2026-05-03T07:47:46Z</time></trkpt><trkpt lat="45.84601176001281" lon="11.867977615999644"><ele>265.0</ele><time>2026-05-03T07:47:47Z</time></trkpt><trkpt lat="45.84616347978829" lon="11.868111711761603"><ele>265.0</ele><time>2026-05-03T07:47:48Z</time></trkpt><trkpt lat="45.84631960187989" lon="11.868243096013488"><ele>265.0</ele><time>2026-05-03T07:47:49Z</time></trkpt><trkpt lat="45.846472105299" lon="11.868372002009602"><ele>264.3333333333333</ele><time>2026-05-03T07:47:50Z</time></trkpt><trkpt lat="45.84662232446067" lon="11.868503341412175"><ele>263.6666666666667</ele><time>2026-05-03T07:47:51Z</time></trkpt><trkpt lat="45.84677687119404" lon="11.86863171710719"><ele>263.0</ele><time>2026-05-03T07:47:52Z</time></trkpt><trkpt lat="45.8469253162431" lon="11.86876438641659"><ele>263.0</ele><time>2026-05-03T07:47:53Z</time></trkpt><trkpt lat="45.84707825893101" lon="11.868896089324373"><ele>263.0</ele><time>2026-05-03T07:47:54Z</time></trkpt><trkpt lat="45.84723200069895" lon="11.869029759740517"><ele>263.0</ele><time>2026-05-03T07:47:55Z</time></trkpt><trkpt lat="45.84738872817277" lon="11.86916887165603"><ele>262.33333333333337</ele><time>2026-05-03T07:47:56Z</time></trkpt><trkpt lat="45.84753769660787" lon="11.869298357021668"><ele>261.6666666666667</ele><time>2026-05-03T07:47:57Z</time></trkpt><trkpt lat="45.84768456717458" lon="11.869419775772837"><ele>261.0</ele><time>2026-05-03T07:47:58Z</time></trkpt><trkpt lat="45.847830038096916" lon="11.869549269327914"><ele>260.0</ele><time>2026-05-03T07:47:59Z</time></trkpt><trkpt lat="45.84797279653925" lon="11.869671605167795"><ele>259.0</ele><time>2026-05-03T07:48:00Z</time></trkpt><trkpt lat="45.84810932648034" lon="11.869797391057633"><ele>258.0</ele><time>2026-05-03T07:48:01Z</time></trkpt><trkpt lat="45.848246675316" lon="11.869908304044129"><ele>258.0</ele><time>2026-05-03T07:48:02Z</time></trkpt><trkpt lat="45.84838521231823" lon="11.870028866173252"><ele>258.0</ele><time>2026-05-03T07:48:03Z</time></trkpt><trkpt lat="45.84853026856054" lon="11.870154650860535"><ele>258.0</ele><time>2026-05-03T07:48:04Z</time></trkpt><trkpt lat="45.84867250976776" lon="11.870281611626508"><ele>259.6666666666667</ele><time>2026-05-03T07:48:05Z</time></trkpt><trkpt lat="45.84881523248016" lon="11.87041606109509"><ele>261.33333333333337</ele><time>2026-05-03T07:48:06Z</time></trkpt><trkpt lat="45.84896605331725" lon="11.870546610248308"><ele>263.0</ele><time>2026-05-03T07:48:07Z</time></trkpt><trkpt lat="45.849116496937896" lon="11.87068336801772"><ele>263.0</ele><time>2026-05-03T07:48:08Z</time></trkpt><trkpt lat="45.84926490611094" lon="11.870808275329106"><ele>263.0</ele><time>2026-05-03T07:48:09Z</time></trkpt><trkpt lat="45.8494099724345" lon="11.87094650375497"><ele>263.0</ele><time>2026-05-03T07:48:10Z</time></trkpt><trkpt lat="45.849551905001704" lon="11.871076287835564"><ele>264.0</ele><time>2026-05-03T07:48:11Z</time></trkpt><trkpt lat="45.84969302088548" lon="11.871199410152755"><ele>265.0</ele><time>2026-05-03T07:48:12Z</time></trkpt><trkpt lat="45.849828177073114" lon="11.871313151618562"><ele>266.0</ele><time>2026-05-03T07:48:13Z</time></trkpt><trkpt lat="45.84995073633361" lon="11.871429447278592"><ele>266.0</ele><time>2026-05-03T07:48:14Z</time></trkpt><trkpt lat="45.85007190541993" lon="11.871537252963968"><ele>266.0</ele><time>2026-05-03T07:48:15Z</time></trkpt><trkpt lat="45.850201953552016" lon="11.87164143374978"><ele>266.0</ele><time>2026-05-03T07:48:16Z</time></trkpt><trkpt lat="45.85032493774349" lon="11.871760714836203"><ele>266.0</ele><time>2026-05-03T07:48:17Z</time></trkpt><trkpt lat="45.85043380089158" lon="11.871883701507576"><ele>266.0</ele><time>2026-05-03T07:48:18Z</time></trkpt><trkpt lat="45.850535160381554" lon="11.872012435368863"><ele>266.0</ele><time>2026-05-03T07:48:19Z</time></trkpt><trkpt lat="45.85064188452437" lon="11.872165684785939"><ele>266.0</ele><time>2026-05-03T07:48:20Z</time></trkpt><trkpt lat="45.850746906647316" lon="11.872344197041398"><ele>266.0</ele><time>2026-05-03T07:48:21Z</time></trkpt><trkpt lat="45.85084341694359" lon="11.8725315583397"><ele>266.0</ele><time>2026-05-03T07:48:22Z</time></trkpt><trkpt lat="45.85091698613142" lon="11.872712012677301"><ele>266.0</ele><time>2026-05-03T07:48:23Z</time></trkpt><trkpt lat="45.85098642234405" lon="11.872872218597687"><ele>266.0</ele><time>2026-05-03T07:48:24Z</time></trkpt><trkpt lat="45.85104438750463" lon="11.873015200743525"><ele>266.0</ele><time>2026-05-03T07:48:25Z</time></trkpt><trkpt lat="45.85110070240634" lon="11.873148799496851"><ele>266.6666666666667</ele><time>2026-05-03T07:48:26Z</time></trkpt><trkpt lat="45.851151739796116" lon="11.873271339119723"><ele>267.33333333333337</ele><time>2026-05-03T07:48:27Z</time></trkpt><trkpt lat="45.85119956910676" lon="11.873377868245292"><ele>268.0</ele><time>2026-05-03T07:48:28Z</time></trkpt><trkpt lat="45.851239848204706" lon="11.87348570216296"><ele>268.6666666666667</ele><time>2026-05-03T07:48:29Z</time></trkpt><trkpt lat="45.85126389027772" lon="11.87360434199854"><ele>269.3333333333333</ele><time>2026-05-03T07:48:30Z</time></trkpt><trkpt lat="45.85126815363749" lon="11.873715702595382"><ele>270.0</ele><time>2026-05-03T07:48:31Z</time></trkpt><trkpt lat="45.85125844775581" lon="11.87383260507026"><ele>270.0</ele><time>2026-05-03T07:48:32Z</time></trkpt><trkpt lat="45.85122237484946" lon="11.873962355435363"><ele>270.0</ele><time>2026-05-03T07:48:33Z</time></trkpt><trkpt lat="45.85115415911708" lon="11.874117084473188"><ele>270.0</ele><time>2026-05-03T07:48:34Z</time></trkpt><trkpt lat="45.85105344899967" lon="11.87428935557254"><ele>270.0</ele><time>2026-05-03T07:48:35Z</time></trkpt><trkpt lat="45.850933148564344" lon="11.87447749570541"><ele>267.6666666666667</ele><time>2026-05-03T07:48:36Z</time></trkpt><trkpt lat="45.8508177119307" lon="11.874670819974178"><ele>265.33333333333337</ele><time>2026-05-03T07:48:37Z</time></trkpt><trkpt lat="45.85070855144804" lon="11.874858639115317"><ele>263.0</ele><time>2026-05-03T07:48:38Z</time></trkpt><trkpt lat="45.85059776350266" lon="11.87505014876185"><ele>262.33333333333337</ele><time>2026-05-03T07:48:39Z</time></trkpt><trkpt lat="45.850453840947466" lon="11.875214709765675"><ele>261.6666666666667</ele><time>2026-05-03T07:48:40Z</time></trkpt><trkpt lat="45.85029492195095" lon="11.875371087465322"><ele>261.0</ele><time>2026-05-03T07:48:41Z</time></trkpt><trkpt lat="45.850124118826486" lon="11.875529864727751"><ele>260.0</ele><time>2026-05-03T07:48:42Z</time></trkpt><trkpt lat="45.849947842796205" lon="11.875670153115655"><ele>259.0</ele><time>2026-05-03T07:48:43Z</time></trkpt><trkpt lat="45.849768685863914" lon="11.875818156730857"><ele>258.0</ele><time>2026-05-03T07:48:44Z</time></trkpt><trkpt lat="45.84959826032802" lon="11.875982053919014"><ele>257.3333333333333</ele><time>2026-05-03T07:48:45Z</time></trkpt><trkpt lat="45.84941740703338" lon="11.876121329591156"><ele>256.66666666666663</ele><time>2026-05-03T07:48:46Z</time></trkpt><trkpt lat="45.849239492451645" lon="11.876264310268263"><ele>256.0</ele><time>2026-05-03T07:48:47Z</time></trkpt><trkpt lat="45.84906964937694" lon="11.876399278944737"><ele>254.33333333333331</ele><time>2026-05-03T07:48:48Z</time></trkpt><trkpt lat="45.848911256793464" lon="11.876523998501478"><ele>252.66666666666669</ele><time>2026-05-03T07:48:49Z</time></trkpt><trkpt lat="45.8487544372047" lon="11.87664346287863"><ele>251.0</ele><time>2026-05-03T07:48:50Z</time></trkpt><trkpt lat="45.84860853651422" lon="11.876762398532106"><ele>251.0</ele><time>2026-05-03T07:48:51Z</time></trkpt><trkpt lat="45.848468797267515" lon="11.876879861275013"><ele>251.0</ele><time>2026-05-03T07:48:52Z</time></trkpt><trkpt lat="45.84834549265625" lon="11.87700303918146"><ele>251.0</ele><time>2026-05-03T07:48:53Z</time></trkpt><trkpt lat="45.84824480107188" lon="11.87715503814919"><ele>251.0</ele><time>2026-05-03T07:48:54Z</time></trkpt><trkpt lat="45.848165692756055" lon="11.877359234536101"><ele>251.0</ele><time>2026-05-03T07:48:55Z</time></trkpt><trkpt lat="45.84811100303834" lon="11.877581615289817"><ele>251.0</ele><time>2026-05-03T07:48:56Z</time></trkpt><trkpt lat="45.848094851114496" lon="11.877813077076432"><ele>250.33333333333334</ele><time>2026-05-03T07:48:57Z</time></trkpt><trkpt lat="45.84812167553954" lon="11.878070854438285"><ele>249.66666666666669</ele><time>2026-05-03T07:48:58Z</time></trkpt><trkpt lat="45.84816963664961" lon="11.878345365174681"><ele>249.0</ele><time>2026-05-03T07:48:59Z</time></trkpt><trkpt lat="45.84821510954066" lon="11.878634908743878"><ele>248.0</ele><time>2026-05-03T07:49:00Z</time></trkpt><trkpt lat="45.8482556897993" lon="11.87894799833416"><ele>247.0</ele><time>2026-05-03T07:49:01Z</time></trkpt><trkpt lat="45.848290220063184" lon="11.87925147938239"><ele>246.0</ele><time>2026-05-03T07:49:02Z</time></trkpt><trkpt lat="45.84832464142793" lon="11.879559863670554"><ele>245.33333333333331</ele><time>2026-05-03T07:49:03Z</time></trkpt><trkpt lat="45.84835354042335" lon="11.879865720840979"><ele>244.66666666666666</ele><time>2026-05-03T07:49:04Z</time></trkpt><trkpt lat="45.8483856389323" lon="11.880181149076405"><ele>244.0</ele><time>2026-05-03T07:49:05Z</time></trkpt><trkpt lat="45.84841837255956" lon="11.880492566159583"><ele>243.0</ele><time>2026-05-03T07:49:06Z</time></trkpt><trkpt lat="45.84844894480449" lon="11.880811653508218"><ele>242.0</ele><time>2026-05-03T07:49:07Z</time></trkpt><trkpt lat="45.8484797603489" lon="11.881127555645191"><ele>241.0</ele><time>2026-05-03T07:49:08Z</time></trkpt><trkpt lat="45.848515047101756" lon="11.881453991798228"><ele>239.5</ele><time>2026-05-03T07:49:09Z</time></trkpt><trkpt lat="45.84854721525775" lon="11.881778640854186"><ele>238.0</ele><time>2026-05-03T07:49:10Z</time></trkpt><trkpt lat="45.84857910704862" lon="11.882093782128056"><ele>238.0</ele><time>2026-05-03T07:49:11Z</time></trkpt><trkpt lat="45.84860881851288" lon="11.882421216421445"><ele>238.0</ele><time>2026-05-03T07:49:12Z</time></trkpt><trkpt lat="45.848644307983875" lon="11.882745644712724"><ele>238.0</ele><time>2026-05-03T07:49:13Z</time></trkpt><trkpt lat="45.84867862816109" lon="11.883075084310544"><ele>238.0</ele><time>2026-05-03T07:49:14Z</time></trkpt><trkpt lat="45.84870955556948" lon="11.883405076828616"><ele>236.5</ele><time>2026-05-03T07:49:15Z</time></trkpt><trkpt lat="45.84873999674241" lon="11.88373578204651"><ele>235.0</ele><time>2026-05-03T07:49:16Z</time></trkpt><trkpt lat="45.848776058000475" lon="11.884072736979826"><ele>234.5</ele><time>2026-05-03T07:49:17Z</time></trkpt><trkpt lat="45.848823830968094" lon="11.884407209072117"><ele>234.0</ele><time>2026-05-03T07:49:18Z</time></trkpt><trkpt lat="45.84889094252759" lon="11.884737715876803"><ele>234.0</ele><time>2026-05-03T07:49:19Z</time></trkpt><trkpt lat="45.848970671647585" lon="11.885064145102904"><ele>234.0</ele><time>2026-05-03T07:49:20Z</time></trkpt><trkpt lat="45.849059107047964" lon="11.885388898005154"><ele>234.0</ele><time>2026-05-03T07:49:21Z</time></trkpt><trkpt lat="45.84914196405808" lon="11.885717789671661"><ele>234.0</ele><time>2026-05-03T07:49:22Z</time></trkpt><trkpt lat="45.84922023742005" lon="11.886034755577041"><ele>233.66666666666669</ele><time>2026-05-03T07:49:23Z</time></trkpt><trkpt lat="45.84928927614006" lon="11.88633159063167"><ele>233.33333333333334</ele><time>2026-05-03T07:49:24Z</time></trkpt><trkpt lat="45.849360190856686" lon="11.886601994393533"><ele>233.0</ele><time>2026-05-03T07:49:25Z</time></trkpt><trkpt lat="45.849420276886626" lon="11.886849671156817"><ele>232.0</ele><time>2026-05-03T07:49:26Z</time></trkpt><trkpt lat="45.849463635726856" lon="11.88709421767686"><ele>231.0</ele><time>2026-05-03T07:49:27Z</time></trkpt><trkpt lat="45.84948030215513" lon="11.88732935248235"><ele>230.0</ele><time>2026-05-03T07:49:28Z</time></trkpt><trkpt lat="45.84947047012069" lon="11.887555067767915"><ele>229.5</ele><time>2026-05-03T07:49:29Z</time></trkpt><trkpt lat="45.84944702163792" lon="11.887762644494785"><ele>229.0</ele><time>2026-05-03T07:49:30Z</time></trkpt><trkpt lat="45.84940955385567" lon="11.887946421614743"><ele>228.5</ele><time>2026-05-03T07:49:31Z</time></trkpt><trkpt lat="45.84936821131443" lon="11.8881028894238"><ele>228.0</ele><time>2026-05-03T07:49:32Z</time></trkpt><trkpt lat="45.84934940082629" lon="11.888235026629255"><ele>228.0</ele><time>2026-05-03T07:49:33Z</time></trkpt><trkpt lat="45.849385249926485" lon="11.888353450283864"><ele>228.0</ele><time>2026-05-03T07:49:34Z</time></trkpt><trkpt lat="45.84947960668696" lon="11.888443605892114"><ele>228.0</ele><time>2026-05-03T07:49:35Z</time></trkpt><trkpt lat="45.84962081531606" lon="11.888492332503601"><ele>228.0</ele><time>2026-05-03T07:49:36Z</time></trkpt><trkpt lat="45.84977377240184" lon="11.8885789746177"><ele>228.0</ele><time>2026-05-03T07:49:37Z</time></trkpt><trkpt lat="45.84993861101196" lon="11.888683210382407"><ele>228.0</ele><time>2026-05-03T07:49:38Z</time></trkpt><trkpt lat="45.8501059267778" lon="11.888860610638481"><ele>228.0</ele><time>2026-05-03T07:49:39Z</time></trkpt><trkpt lat="45.85023894210555" lon="11.889102884466844"><ele>226.5</ele><time>2026-05-03T07:49:40Z</time></trkpt><trkpt lat="45.85037938182561" lon="11.88937521241602"><ele>225.0</ele><time>2026-05-03T07:49:41Z</time></trkpt><trkpt lat="45.85053545527959" lon="11.889651362181054"><ele>225.0</ele><time>2026-05-03T07:49:42Z</time></trkpt><trkpt lat="45.85068424345237" lon="11.889951631937027"><ele>225.0</ele><time>2026-05-03T07:49:43Z</time></trkpt><trkpt lat="45.85083100384292" lon="11.890241153585517"><ele>222.5</ele><time>2026-05-03T07:49:44Z</time></trkpt><trkpt lat="45.85097787676642" lon="11.890523179093831"><ele>220.0</ele><time>2026-05-03T07:49:45Z</time></trkpt><trkpt lat="45.85111892086939" lon="11.890791465998861"><ele>220.0</ele><time>2026-05-03T07:49:46Z</time></trkpt><trkpt lat="45.85125951701989" lon="11.891058409857513"><ele>220.0</ele><time>2026-05-03T07:49:47Z</time></trkpt><trkpt lat="45.85140150109611" lon="11.891322688011478"><ele>220.0</ele><time>2026-05-03T07:49:48Z</time></trkpt><trkpt lat="45.85154546919317" lon="11.891590867075596"><ele>220.0</ele><time>2026-05-03T07:49:49Z</time></trkpt><trkpt lat="45.85168581654092" lon="11.891873270251596"><ele>218.5</ele><time>2026-05-03T07:49:50Z</time></trkpt><trkpt lat="45.85181246520892" lon="11.892167139408642"><ele>217.0</ele><time>2026-05-03T07:49:51Z</time></trkpt><trkpt lat="45.851930216403595" lon="11.89247476199527"><ele>217.5</ele><time>2026-05-03T07:49:52Z</time></trkpt><trkpt lat="45.85203545637761" lon="11.892798297998473"><ele>218.0</ele><time>2026-05-03T07:49:53Z</time></trkpt><trkpt lat="45.85212764231306" lon="11.893132871561116"><ele>218.5</ele><time>2026-05-03T07:49:54Z</time></trkpt><trkpt lat="45.85220703094878" lon="11.89347214442892"><ele>219.0</ele><time>2026-05-03T07:49:55Z</time></trkpt><trkpt lat="45.85228348642327" lon="11.893812506248986"><ele>219.0</ele><time>2026-05-03T07:49:56Z</time></trkpt><trkpt lat="45.85236322786932" lon="11.89414640486312"><ele>219.0</ele><time>2026-05-03T07:49:57Z</time></trkpt><trkpt lat="45.85244388696715" lon="11.89448197625755"><ele>219.0</ele><time>2026-05-03T07:49:58Z</time></trkpt><trkpt lat="45.85252276908144" lon="11.894815817744261"><ele>219.0</ele><time>2026-05-03T07:49:59.001Z</time></trkpt><trkpt lat="45.85259706639607" lon="11.895152137647896"><ele>218.5</ele><time>2026-05-03T07:50:00.001Z</time></trkpt><trkpt lat="45.852673368450766" lon="11.89549269640724"><ele>218.0</ele><time>2026-05-03T07:50:01.001Z</time></trkpt><trkpt lat="45.85274860898645" lon="11.895842980092143"><ele>218.0</ele><time>2026-05-03T07:50:02.001Z</time></trkpt><trkpt lat="45.852826286362465" lon="11.896193636397546"><ele>218.0</ele><time>2026-05-03T07:50:03.001Z</time></trkpt><trkpt lat="45.8529028904697" lon="11.896547601425743"><ele>218.0</ele><time>2026-05-03T07:50:04.001Z</time></trkpt><trkpt lat="45.85297916125988" lon="11.896908092025303"><ele>218.0</ele><time>2026-05-03T07:50:05.001Z</time></trkpt><trkpt lat="45.8530537665722" lon="11.897272994510859"><ele>216.5</ele><time>2026-05-03T07:50:06.001Z</time></trkpt><trkpt lat="45.85313007328626" lon="11.897633068273931"><ele>215.0</ele><time>2026-05-03T07:50:07.001Z</time></trkpt><trkpt lat="45.8532052330642" lon="11.897995067125205"><ele>215.0</ele><time>2026-05-03T07:50:08.001Z</time></trkpt><trkpt lat="45.85328345574156" lon="11.898352887584377"><ele>215.0</ele><time>2026-05-03T07:50:09.001Z</time></trkpt><trkpt lat="45.853362103476556" lon="11.898704654789638"><ele>214.5</ele><time>2026-05-03T07:50:10.001Z</time></trkpt><trkpt lat="45.853435527094796" lon="11.899044905683267"><ele>214.0</ele><time>2026-05-03T07:50:11.001Z</time></trkpt><trkpt lat="45.853503736873215" lon="11.899381560907806"><ele>215.0</ele><time>2026-05-03T07:50:12.001Z</time></trkpt><trkpt lat="45.853566446252565" lon="11.899716606536849"><ele>216.0</ele><time>2026-05-03T07:50:13Z</time></trkpt><trkpt lat="45.85361367859331" lon="11.900059841890286"><ele>216.0</ele><time>2026-05-03T07:50:14Z</time></trkpt><trkpt lat="45.85364878773266" lon="11.900399609717946"><ele>216.0</ele><time>2026-05-03T07:50:15Z</time></trkpt><trkpt lat="45.853666293310944" lon="11.900738758277555"><ele>215.0</ele><time>2026-05-03T07:50:16Z</time></trkpt><trkpt lat="45.853673130143186" lon="11.901076640197914"><ele>214.0</ele><time>2026-05-03T07:50:17Z</time></trkpt><trkpt lat="45.853662952608374" lon="11.901419071422959"><ele>213.5</ele><time>2026-05-03T07:50:18Z</time></trkpt><trkpt lat="45.85363420818085" lon="11.901765241914832"><ele>213.0</ele><time>2026-05-03T07:50:19Z</time></trkpt><trkpt lat="45.85359866008681" lon="11.90210601560044"><ele>213.0</ele><time>2026-05-03T07:50:20Z</time></trkpt><trkpt lat="45.85355806988666" lon="11.902444449221996"><ele>213.0</ele><time>2026-05-03T07:50:21Z</time></trkpt><trkpt lat="45.853520899857365" lon="11.902784017504835"><ele>213.0</ele><time>2026-05-03T07:50:22Z</time></trkpt><trkpt lat="45.85348973987585" lon="11.903120737775811"><ele>213.0</ele><time>2026-05-03T07:50:23Z</time></trkpt><trkpt lat="45.85347144760812" lon="11.9034576394158"><ele>212.0</ele><time>2026-05-03T07:50:24Z</time></trkpt><trkpt lat="45.853459842455045" lon="11.903792765845154"><ele>211.0</ele><time>2026-05-03T07:50:25Z</time></trkpt><trkpt lat="45.853462897236945" lon="11.904130868780237"><ele>210.0</ele><time>2026-05-03T07:50:26Z</time></trkpt><trkpt lat="45.85348083470898" lon="11.904466954830509"><ele>209.0</ele><time>2026-05-03T07:50:27Z</time></trkpt><trkpt lat="45.8535181660465" lon="11.904794948803168"><ele>207.5</ele><time>2026-05-03T07:50:28Z</time></trkpt><trkpt lat="45.853566976681535" lon="11.905117318197048"><ele>206.0</ele><time>2026-05-03T07:50:29Z</time></trkpt><trkpt lat="45.853621529200666" lon="11.905434288752652"><ele>206.0</ele><time>2026-05-03T07:50:30Z</time></trkpt><trkpt lat="45.853672948347075" lon="11.905744747734667"><ele>206.0</ele><time>2026-05-03T07:50:31Z</time></trkpt><trkpt lat="45.853714446668576" lon="11.906031818931814"><ele>206.0</ele><time>2026-05-03T07:50:32Z</time></trkpt><trkpt lat="45.85375630297343" lon="11.906303559317127"><ele>206.66666666666669</ele><time>2026-05-03T07:50:33Z</time></trkpt><trkpt lat="45.85379854929335" lon="11.906562308127915"><ele>207.33333333333331</ele><time>2026-05-03T07:50:34Z</time></trkpt><trkpt lat="45.85384007500363" lon="11.906823099262844"><ele>208.0</ele><time>2026-05-03T07:50:35Z</time></trkpt><trkpt lat="45.85388196448305" lon="11.907095029901082"><ele>208.0</ele><time>2026-05-03T07:50:36Z</time></trkpt><trkpt lat="45.85392171792723" lon="11.907377876375664"><ele>208.0</ele><time>2026-05-03T07:50:37Z</time></trkpt><trkpt lat="45.85395511175279" lon="11.907662409201299"><ele>208.0</ele><time>2026-05-03T07:50:38Z</time></trkpt><trkpt lat="45.85397734951099" lon="11.907959083808926"><ele>207.66666666666666</ele><time>2026-05-03T07:50:39Z</time></trkpt><trkpt lat="45.85400028694603" lon="11.908258917513479"><ele>207.33333333333331</ele><time>2026-05-03T07:50:40Z</time></trkpt><trkpt lat="45.85401386599059" lon="11.908544226158318"><ele>207.0</ele><time>2026-05-03T07:50:41Z</time></trkpt><trkpt lat="45.85401055987999" lon="11.908834125392714"><ele>206.66666666666669</ele><time>2026-05-03T07:50:42Z</time></trkpt><trkpt lat="45.853997068441444" lon="11.909108327574948"><ele>206.33333333333334</ele><time>2026-05-03T07:50:43Z</time></trkpt><trkpt lat="45.85397205993756" lon="11.909388919143375"><ele>206.0</ele><time>2026-05-03T07:50:44Z</time></trkpt><trkpt lat="45.853944777918294" lon="11.909667538828897"><ele>205.33333333333334</ele><time>2026-05-03T07:50:45Z</time></trkpt><trkpt lat="45.85390875672455" lon="11.909943352614231"><ele>204.66666666666669</ele><time>2026-05-03T07:50:46Z</time></trkpt><trkpt lat="45.85387542706782" lon="11.910222349390963"><ele>204.0</ele><time>2026-05-03T07:50:47Z</time></trkpt><trkpt lat="45.853841598726746" lon="11.910501586128731"><ele>204.0</ele><time>2026-05-03T07:50:48Z</time></trkpt><trkpt lat="45.853800468159406" lon="11.910773956160083"><ele>204.0</ele><time>2026-05-03T07:50:49Z</time></trkpt><trkpt lat="45.853768525115555" lon="11.911027565178854"><ele>204.0</ele><time>2026-05-03T07:50:50Z</time></trkpt><trkpt lat="45.85374214552442" lon="11.911265933370688"><ele>203.66666666666669</ele><time>2026-05-03T07:50:51Z</time></trkpt><trkpt lat="45.8537177570216" lon="11.911502500591398"><ele>203.33333333333334</ele><time>2026-05-03T07:50:52Z</time></trkpt><trkpt lat="45.8536922918409" lon="11.911744448001372"><ele>203.0</ele><time>2026-05-03T07:50:53Z</time></trkpt><trkpt lat="45.853663933722956" lon="11.912006994637489"><ele>203.0</ele><time>2026-05-03T07:50:54Z</time></trkpt><trkpt lat="45.85363470159913" lon="11.912277825835089"><ele>203.0</ele><time>2026-05-03T07:50:55Z</time></trkpt><trkpt lat="45.85360343152679" lon="11.912555721588175"><ele>203.0</ele><time>2026-05-03T07:50:56Z</time></trkpt><trkpt lat="45.85356729657706" lon="11.912843612166453"><ele>202.66666666666669</ele><time>2026-05-03T07:50:57Z</time></trkpt><trkpt lat="45.85353587310107" lon="11.913140489807494"><ele>202.33333333333331</ele><time>2026-05-03T07:50:58Z</time></trkpt><trkpt lat="45.853510134830486" lon="11.91344947767031"><ele>202.0</ele><time>2026-05-03T07:50:59Z</time></trkpt><trkpt lat="45.85349739122046" lon="11.91376441348481"><ele>202.0</ele><time>2026-05-03T07:51:00Z</time></trkpt><trkpt lat="45.853496166428066" lon="11.914069779543693"><ele>202.0</ele><time>2026-05-03T07:51:01Z</time></trkpt><trkpt lat="45.853516048972914" lon="11.914372134525191"><ele>202.0</ele><time>2026-05-03T07:51:02Z</time></trkpt><trkpt lat="45.85354782933768" lon="11.914671306676034"><ele>202.0</ele><time>2026-05-03T07:51:03Z</time></trkpt><trkpt lat="45.853589746339516" lon="11.914964922513672"><ele>202.0</ele><time>2026-05-03T07:51:04Z</time></trkpt><trkpt lat="45.85364515947829" lon="11.915263843368676"><ele>202.0</ele><time>2026-05-03T07:51:05Z</time></trkpt><trkpt lat="45.85371259992156" lon="11.91555854491443"><ele>201.33333333333331</ele><time>2026-05-03T07:51:06Z</time></trkpt><trkpt lat="45.85378928500017" lon="11.915854568137497"><ele>200.66666666666669</ele><time>2026-05-03T07:51:07Z</time></trkpt><trkpt lat="45.8538755162715" lon="11.916159135365463"><ele>200.0</ele><time>2026-05-03T07:51:08Z</time></trkpt><trkpt lat="45.853965176900964" lon="11.916466014706126"><ele>199.33333333333334</ele><time>2026-05-03T07:51:09Z</time></trkpt><trkpt lat="45.85405152246615" lon="11.916763107937001"><ele>198.66666666666669</ele><time>2026-05-03T07:51:10Z</time></trkpt><trkpt lat="45.85413860855005" lon="11.917045740710236"><ele>198.0</ele><time>2026-05-03T07:51:11Z</time></trkpt><trkpt lat="45.85422126344275" lon="11.917324090055594"><ele>198.33333333333331</ele><time>2026-05-03T07:51:12Z</time></trkpt><trkpt lat="45.85430375952857" lon="11.91760320570797"><ele>198.66666666666666</ele><time>2026-05-03T07:51:13Z</time></trkpt><trkpt lat="45.85438386930316" lon="11.91789240189098"><ele>199.0</ele><time>2026-05-03T07:51:14Z</time></trkpt><trkpt lat="45.85446512721112" lon="11.91817368245705"><ele>199.33333333333331</ele><time>2026-05-03T07:51:15Z</time></trkpt><trkpt lat="45.85454968154425" lon="11.918462656582857"><ele>199.66666666666669</ele><time>2026-05-03T07:51:16Z</time></trkpt><trkpt lat="45.85463684220844" lon="11.918756929575986"><ele>200.0</ele><time>2026-05-03T07:51:17Z</time></trkpt><trkpt lat="45.85471981083348" lon="11.919049110020438"><ele>199.66666666666669</ele><time>2026-05-03T07:51:18Z</time></trkpt><trkpt lat="45.85480586878027" lon="11.919343490878953"><ele>199.33333333333331</ele><time>2026-05-03T07:51:19Z</time></trkpt><trkpt lat="45.854885477750855" lon="11.919632306473815"><ele>199.0</ele><time>2026-05-03T07:51:20Z</time></trkpt><trkpt lat="45.85496855889773" lon="11.919917203678908"><ele>199.33333333333331</ele><time>2026-05-03T07:51:21Z</time></trkpt><trkpt lat="45.855047949716464" lon="11.920207087394237"><ele>199.66666666666669</ele><time>2026-05-03T07:51:22Z</time></trkpt><trkpt lat="45.8551289036769" lon="11.920499184428214"><ele>200.0</ele><time>2026-05-03T07:51:23Z</time></trkpt><trkpt lat="45.85521379473007" lon="11.920791447425598"><ele>199.0</ele><time>2026-05-03T07:51:24Z</time></trkpt><trkpt lat="45.8552987231888" lon="11.921097425038553"><ele>198.0</ele><time>2026-05-03T07:51:25Z</time></trkpt><trkpt lat="45.855388262010585" lon="11.92140312819526"><ele>198.0</ele><time>2026-05-03T07:51:26Z</time></trkpt><trkpt lat="45.85547488135566" lon="11.921713494157924"><ele>198.0</ele><time>2026-05-03T07:51:27Z</time></trkpt><trkpt lat="45.85556346016828" lon="11.922026424068523"><ele>197.0</ele><time>2026-05-03T07:51:28Z</time></trkpt><trkpt lat="45.85565138240483" lon="11.922339507570204"><ele>196.0</ele><time>2026-05-03T07:51:29Z</time></trkpt><trkpt lat="45.855739141562054" lon="11.922643469385605"><ele>196.66666666666666</ele><time>2026-05-03T07:51:30Z</time></trkpt><trkpt lat="45.855824152629054" lon="11.922940787617959"><ele>197.33333333333331</ele><time>2026-05-03T07:51:31Z</time></trkpt><trkpt lat="45.85590422424718" lon="11.92322109008432"><ele>198.0</ele><time>2026-05-03T07:51:32Z</time></trkpt><trkpt lat="45.85597648906754" lon="11.923486641185024"><ele>198.0</ele><time>2026-05-03T07:51:33Z</time></trkpt><trkpt lat="45.85604540784899" lon="11.923725183414604"><ele>198.0</ele><time>2026-05-03T07:51:34Z</time></trkpt><trkpt lat="45.85611393140364" lon="11.923966941910034"><ele>198.0</ele><time>2026-05-03T07:51:35Z</time></trkpt><trkpt lat="45.85618411311468" lon="11.92421379306263"><ele>196.66666666666669</ele><time>2026-05-03T07:51:36Z</time></trkpt><trkpt lat="45.85625616646185" lon="11.924465823514131"><ele>195.33333333333334</ele><time>2026-05-03T07:51:37Z</time></trkpt><trkpt lat="45.85633166935069" lon="11.924716255095726"><ele>194.0</ele><time>2026-05-03T07:51:38Z</time></trkpt><trkpt lat="45.85640367819765" lon="11.924960933499037"><ele>193.0</ele><time>2026-05-03T07:51:39Z</time></trkpt><trkpt lat="45.856470264990186" lon="11.925186445453395"><ele>192.0</ele><time>2026-05-03T07:51:40Z</time></trkpt><trkpt lat="45.856523530854226" lon="11.925386455932047"><ele>191.0</ele><time>2026-05-03T07:51:41Z</time></trkpt><trkpt lat="45.85657841018706" lon="11.925572100903219"><ele>191.0</ele><time>2026-05-03T07:51:42Z</time></trkpt><trkpt lat="45.85662610582774" lon="11.925736695297852"><ele>191.0</ele><time>2026-05-03T07:51:43Z</time></trkpt><trkpt lat="45.856673269156104" lon="11.925900037086732"><ele>191.0</ele><time>2026-05-03T07:51:44Z</time></trkpt><trkpt lat="45.85671956719787" lon="11.926073276876588"><ele>191.0</ele><time>2026-05-03T07:51:45Z</time></trkpt><trkpt lat="45.85676372699286" lon="11.926263480057175"><ele>191.66666666666666</ele><time>2026-05-03T07:51:46Z</time></trkpt><trkpt lat="45.85681868027029" lon="11.926479033016504"><ele>192.33333333333331</ele><time>2026-05-03T07:51:47Z</time></trkpt><trkpt lat="45.856875543718054" lon="11.926717923036172"><ele>193.0</ele><time>2026-05-03T07:51:48Z</time></trkpt><trkpt lat="45.856937946289534" lon="11.926959818381196"><ele>193.33333333333331</ele><time>2026-05-03T07:51:49Z</time></trkpt><trkpt lat="45.856997421357185" lon="11.927212641471135"><ele>193.66666666666669</ele><time>2026-05-03T07:51:50Z</time></trkpt><trkpt lat="45.857060917462626" lon="11.927473138667619"><ele>194.0</ele><time>2026-05-03T07:51:51Z</time></trkpt><trkpt lat="45.85712588354222" lon="11.927731137074053"><ele>193.66666666666669</ele><time>2026-05-03T07:51:52Z</time></trkpt><trkpt lat="45.85719046044932" lon="11.927987685844442"><ele>193.33333333333331</ele><time>2026-05-03T07:51:53Z</time></trkpt><trkpt lat="45.85726153651098" lon="11.928266306638266"><ele>193.0</ele><time>2026-05-03T07:51:54Z</time></trkpt><trkpt lat="45.85734193613189" lon="11.928543796653116"><ele>193.0</ele><time>2026-05-03T07:51:55Z</time></trkpt><trkpt lat="45.85740629517689" lon="11.928837497149692"><ele>193.0</ele><time>2026-05-03T07:51:56Z</time></trkpt><trkpt lat="45.85748152205392" lon="11.929141528930902"><ele>193.0</ele><time>2026-05-03T07:51:57Z</time></trkpt><trkpt lat="45.857558087989766" lon="11.929451902323123"><ele>191.5</ele><time>2026-05-03T07:51:58Z</time></trkpt><trkpt lat="45.857643567216044" lon="11.92975686256951"><ele>190.0</ele><time>2026-05-03T07:51:59Z</time></trkpt><trkpt lat="45.85771617175615" lon="11.930067614182986"><ele>190.0</ele><time>2026-05-03T07:52:00Z</time></trkpt><trkpt lat="45.85779482328888" lon="11.930378021428366"><ele>190.0</ele><time>2026-05-03T07:52:01Z</time></trkpt><trkpt lat="45.857871339621674" lon="11.930687795328597"><ele>189.0</ele><time>2026-05-03T07:52:02Z</time></trkpt><trkpt lat="45.85794651798209" lon="11.931002014110108"><ele>188.0</ele><time>2026-05-03T07:52:03Z</time></trkpt><trkpt lat="45.858028725175146" lon="11.93131241321767"><ele>188.0</ele><time>2026-05-03T07:52:04Z</time></trkpt><trkpt lat="45.858111530453044" lon="11.931624522771171"><ele>188.0</ele><time>2026-05-03T07:52:05.001Z</time></trkpt><trkpt lat="45.858190651490155" lon="11.931938277334774"><ele>188.0</ele><time>2026-05-03T07:52:06.001Z</time></trkpt><trkpt lat="45.85827106896578" lon="11.932255786897132"><ele>188.0</ele><time>2026-05-03T07:52:07.001Z</time></trkpt><trkpt lat="45.85834316402938" lon="11.932581950148508"><ele>188.0</ele><time>2026-05-03T07:52:08.001Z</time></trkpt><trkpt lat="45.85842255794661" lon="11.932904739814758"><ele>188.0</ele><time>2026-05-03T07:52:09.001Z</time></trkpt><trkpt lat="45.85850206455835" lon="11.933237320729962"><ele>187.5</ele><time>2026-05-03T07:52:10.001Z</time></trkpt><trkpt lat="45.8585889663127" lon="11.933571851377632"><ele>187.0</ele><time>2026-05-03T07:52:11.001Z</time></trkpt><trkpt lat="45.85866726841307" lon="11.933881223059169"><ele>187.0</ele><time>2026-05-03T07:52:12.001Z</time></trkpt><trkpt lat="45.85873699852641" lon="11.934165307679537"><ele>187.0</ele><time>2026-05-03T07:52:13.001Z</time></trkpt><trkpt lat="45.858801308618716" lon="11.934431295791022"><ele>187.0</ele><time>2026-05-03T07:52:14.001Z</time></trkpt><trkpt lat="45.85886291249257" lon="11.934690343980954"><ele>187.0</ele><time>2026-05-03T07:52:15.001Z</time></trkpt><trkpt lat="45.858935123725985" lon="11.934968515207563"><ele>187.0</ele><time>2026-05-03T07:52:16.001Z</time></trkpt><trkpt lat="45.85900729256446" lon="11.935279998779611"><ele>187.0</ele><time>2026-05-03T07:52:17.001Z</time></trkpt><trkpt lat="45.85909248749063" lon="11.935622879343187"><ele>186.0</ele><time>2026-05-03T07:52:18.001Z</time></trkpt><trkpt lat="45.85919054493747" lon="11.935968532717123"><ele>185.0</ele><time>2026-05-03T07:52:19.001Z</time></trkpt><trkpt lat="45.85927491309818" lon="11.936334584959258"><ele>188.0</ele><time>2026-05-03T07:52:20.001Z</time></trkpt><trkpt lat="45.859358254087006" lon="11.936705231606503"><ele>191.0</ele><time>2026-05-03T07:52:21.001Z</time></trkpt><trkpt lat="45.85945416191596" lon="11.937082832983988"><ele>191.0</ele><time>2026-05-03T07:52:22.001Z</time></trkpt><trkpt lat="45.859550758889306" lon="11.937469525472498"><ele>191.0</ele><time>2026-05-03T07:52:23.001Z</time></trkpt><trkpt lat="45.859647978946356" lon="11.93785182192072"><ele>188.5</ele><time>2026-05-03T07:52:24.001Z</time></trkpt><trkpt lat="45.85974079996552" lon="11.938247458173102"><ele>186.0</ele><time>2026-05-03T07:52:25.001Z</time></trkpt><trkpt lat="45.85983772011756" lon="11.9386373134954"><ele>185.5</ele><time>2026-05-03T07:52:26.001Z</time></trkpt><trkpt lat="45.85993598304758" lon="11.939023211907557"><ele>185.0</ele><time>2026-05-03T07:52:27.001Z</time></trkpt><trkpt lat="45.86003282401277" lon="11.939414911747683"><ele>186.0</ele><time>2026-05-03T07:52:28.001Z</time></trkpt><trkpt lat="45.860134420381364" lon="11.939804612296232"><ele>187.0</ele><time>2026-05-03T07:52:29.001Z</time></trkpt><trkpt lat="45.86023078073827" lon="11.94019420936728"><ele>187.0</ele><time>2026-05-03T07:52:30.001Z</time></trkpt><trkpt lat="45.860329269000225" lon="11.940591649519549"><ele>187.0</ele><time>2026-05-03T07:52:31.001Z</time></trkpt><trkpt lat="45.8604322015857" lon="11.940978010115101"><ele>186.5</ele><time>2026-05-03T07:52:32.001Z</time></trkpt><trkpt lat="45.86053545641021" lon="11.941369119408714"><ele>186.0</ele><time>2026-05-03T07:52:33.001Z</time></trkpt><trkpt lat="45.860644922751526" lon="11.941756385938143"><ele>186.0</ele><time>2026-05-03T07:52:34.001Z</time></trkpt><trkpt lat="45.86077172508283" lon="11.942124415997139"><ele>186.0</ele><time>2026-05-03T07:52:35.001Z</time></trkpt><trkpt lat="45.86089720241202" lon="11.942491573232227"><ele>186.5</ele><time>2026-05-03T07:52:36.001Z</time></trkpt><trkpt lat="45.86102405454097" lon="11.942848888393643"><ele>187.0</ele><time>2026-05-03T07:52:37Z</time></trkpt><trkpt lat="45.86116339666979" lon="11.943196329263905"><ele>187.0</ele><time>2026-05-03T07:52:38Z</time></trkpt><trkpt lat="45.86132054121664" lon="11.943524415433126"><ele>187.0</ele><time>2026-05-03T07:52:39Z</time></trkpt><trkpt lat="45.861476543193994" lon="11.943855621709115"><ele>187.0</ele><time>2026-05-03T07:52:40Z</time></trkpt><trkpt lat="45.86164119575991" lon="11.944175280258746"><ele>187.0</ele><time>2026-05-03T07:52:41Z</time></trkpt><trkpt lat="45.86180853798101" lon="11.944491669420012"><ele>187.0</ele><time>2026-05-03T07:52:42Z</time></trkpt><trkpt lat="45.86198387160846" lon="11.944793623910751"><ele>187.0</ele><time>2026-05-03T07:52:43Z</time></trkpt><trkpt lat="45.86216573756996" lon="11.945088110966584"><ele>188.0</ele><time>2026-05-03T07:52:44Z</time></trkpt><trkpt lat="45.862350961943875" lon="11.945376357048698"><ele>189.0</ele><time>2026-05-03T07:52:45Z</time></trkpt><trkpt lat="45.862533908835076" lon="11.945661284242526"><ele>189.0</ele><time>2026-05-03T07:52:46Z</time></trkpt><trkpt lat="45.86271668685634" lon="11.945950475438769"><ele>189.0</ele><time>2026-05-03T07:52:47Z</time></trkpt><trkpt lat="45.86289840669349" lon="11.946236556798526"><ele>189.0</ele><time>2026-05-03T07:52:48Z</time></trkpt><trkpt lat="45.86307862616083" lon="11.946523171017411"><ele>189.0</ele><time>2026-05-03T07:52:49Z</time></trkpt><trkpt lat="45.863251925430134" lon="11.946803056637519"><ele>189.5</ele><time>2026-05-03T07:52:50Z</time></trkpt><trkpt lat="45.8634249299905" lon="11.947089859902324"><ele>190.0</ele><time>2026-05-03T07:52:51Z</time></trkpt><trkpt lat="45.86359133586589" lon="11.94736343790558"><ele>189.5</ele><time>2026-05-03T07:52:52Z</time></trkpt><trkpt lat="45.86375951277033" lon="11.947637844548755"><ele>189.0</ele><time>2026-05-03T07:52:53Z</time></trkpt><trkpt lat="45.863926448483525" lon="11.947909637981905"><ele>189.0</ele><time>2026-05-03T07:52:54Z</time></trkpt><trkpt lat="45.86409138678735" lon="11.948178131048877"><ele>189.0</ele><time>2026-05-03T07:52:55Z</time></trkpt><trkpt lat="45.86425378613481" lon="11.94844248395525"><ele>189.5</ele><time>2026-05-03T07:52:56Z</time></trkpt><trkpt lat="45.86441828123071" lon="11.948715811156838"><ele>190.0</ele><time>2026-05-03T07:52:57Z</time></trkpt><trkpt lat="45.86458450302958" lon="11.948984999607823"><ele>190.5</ele><time>2026-05-03T07:52:58Z</time></trkpt><trkpt lat="45.86475147749938" lon="11.949256747672313"><ele>191.0</ele><time>2026-05-03T07:52:59Z</time></trkpt><trkpt lat="45.864919765915154" lon="11.949530975151646"><ele>191.0</ele><time>2026-05-03T07:53:00Z</time></trkpt><trkpt lat="45.86508591153319" lon="11.949803445336325"><ele>191.0</ele><time>2026-05-03T07:53:01Z</time></trkpt><trkpt lat="45.86525529027339" lon="11.95007641455666"><ele>191.5</ele><time>2026-05-03T07:53:02Z</time></trkpt><trkpt lat="45.86542030641929" lon="11.95034795850343"><ele>192.0</ele><time>2026-05-03T07:53:03Z</time></trkpt><trkpt lat="45.86558273524034" lon="11.950621914364598"><ele>192.0</ele><time>2026-05-03T07:53:04Z</time></trkpt><trkpt lat="45.86574853424763" lon="11.95088197958998"><ele>192.0</ele><time>2026-05-03T07:53:05Z</time></trkpt><trkpt lat="45.86590273506531" lon="11.951139479367187"><ele>192.0</ele><time>2026-05-03T07:53:06Z</time></trkpt><trkpt lat="45.866044147682715" lon="11.951370971956598"><ele>192.0</ele><time>2026-05-03T07:53:07Z</time></trkpt><trkpt lat="45.86617937567047" lon="11.951590592220013"><ele>192.0</ele><time>2026-05-03T07:53:08Z</time></trkpt><trkpt lat="45.866306863715515" lon="11.95179340139433"><ele>192.0</ele><time>2026-05-03T07:53:09Z</time></trkpt><trkpt lat="45.86643149868766" lon="11.951989047709217"><ele>192.0</ele><time>2026-05-03T07:53:10Z</time></trkpt><trkpt lat="45.86653973710942" lon="11.952160594812355"><ele>192.0</ele><time>2026-05-03T07:53:11Z</time></trkpt><trkpt lat="45.866631158921585" lon="11.952309200953527"><ele>192.0</ele><time>2026-05-03T07:53:12Z</time></trkpt><trkpt lat="45.86671011563799" lon="11.952439428734786"><ele>192.0</ele><time>2026-05-03T07:53:13Z</time></trkpt><trkpt lat="45.866782000375764" lon="11.952564973649398"><ele>192.0</ele><time>2026-05-03T07:53:14Z</time></trkpt><trkpt lat="45.866841869371434" lon="11.95268915308508"><ele>192.0</ele><time>2026-05-03T07:53:15Z</time></trkpt><trkpt lat="45.86687302281716" lon="11.952842612358436"><ele>192.25</ele><time>2026-05-03T07:53:16Z</time></trkpt><trkpt lat="45.866886761247514" lon="11.95300178356472"><ele>192.5</ele><time>2026-05-03T07:53:17Z</time></trkpt><trkpt lat="45.866919536365764" lon="11.953162328448014"><ele>192.75</ele><time>2026-05-03T07:53:18Z</time></trkpt><trkpt lat="45.86699819942259" lon="11.953290465618169"><ele>193.0</ele><time>2026-05-03T07:53:19Z</time></trkpt><trkpt lat="45.867125800290005" lon="11.953379584944125"><ele>193.0</ele><time>2026-05-03T07:53:20Z</time></trkpt><trkpt lat="45.867284502693266" lon="11.953478835994062"><ele>193.0</ele><time>2026-05-03T07:53:21Z</time></trkpt><trkpt lat="45.86745164672038" lon="11.95363677308911"><ele>193.0</ele><time>2026-05-03T07:53:22Z</time></trkpt><trkpt lat="45.86760708841912" lon="11.95386760980894"><ele>193.0</ele><time>2026-05-03T07:53:23Z</time></trkpt><trkpt lat="45.867764775348874" lon="11.954134170086384"><ele>193.0</ele><time>2026-05-03T07:53:24Z</time></trkpt><trkpt lat="45.86793228863832" lon="11.954423829011672"><ele>192.5</ele><time>2026-05-03T07:53:25Z</time></trkpt><trkpt lat="45.86810568825784" lon="11.95472308756441"><ele>192.0</ele><time>2026-05-03T07:53:26Z</time></trkpt><trkpt lat="45.86827992747151" lon="11.95500427640984"><ele>193.0</ele><time>2026-05-03T07:53:27Z</time></trkpt><trkpt lat="45.86844595858261" lon="11.95527673822375"><ele>194.0</ele><time>2026-05-03T07:53:28Z</time></trkpt><trkpt lat="45.868610765601794" lon="11.955551809453981"><ele>194.0</ele><time>2026-05-03T07:53:29Z</time></trkpt><trkpt lat="45.86877149675016" lon="11.95582076026497"><ele>194.0</ele><time>2026-05-03T07:53:30Z</time></trkpt><trkpt lat="45.86893572404866" lon="11.956084009467375"><ele>195.0</ele><time>2026-05-03T07:53:31Z</time></trkpt><trkpt lat="45.869098166204594" lon="11.956352018258054"><ele>196.0</ele><time>2026-05-03T07:53:32Z</time></trkpt><trkpt lat="45.86925574816744" lon="11.956613619061871"><ele>197.0</ele><time>2026-05-03T07:53:33Z</time></trkpt><trkpt lat="45.86941085399309" lon="11.956876722633567"><ele>198.0</ele><time>2026-05-03T07:53:34Z</time></trkpt><trkpt lat="45.86956182372033" lon="11.957143565400367"><ele>198.0</ele><time>2026-05-03T07:53:35Z</time></trkpt><trkpt lat="45.86970229729141" lon="11.957408268884196"><ele>198.0</ele><time>2026-05-03T07:53:36Z</time></trkpt><trkpt lat="45.86984104267929" lon="11.957682124808215"><ele>198.0</ele><time>2026-05-03T07:53:37Z</time></trkpt><trkpt lat="45.869974366491384" lon="11.957964375777843"><ele>198.0</ele><time>2026-05-03T07:53:38Z</time></trkpt><trkpt lat="45.870102385412906" lon="11.958239308501502"><ele>197.33333333333331</ele><time>2026-05-03T07:53:39Z</time></trkpt><trkpt lat="45.870216874114476" lon="11.958496051298026"><ele>196.66666666666666</ele><time>2026-05-03T07:53:40Z</time></trkpt><trkpt lat="45.87032324387263" lon="11.958760257751345"><ele>196.0</ele><time>2026-05-03T07:53:41Z</time></trkpt><trkpt lat="45.87042002801285" lon="11.959020268519724"><ele>196.0</ele><time>2026-05-03T07:53:42Z</time></trkpt><trkpt lat="45.870515148845335" lon="11.959272674246767"><ele>196.0</ele><time>2026-05-03T07:53:43Z</time></trkpt><trkpt lat="45.87060340083826" lon="11.959520631521535"><ele>196.0</ele><time>2026-05-03T07:53:44Z</time></trkpt><trkpt lat="45.87068836261469" lon="11.959757423101024"><ele>196.0</ele><time>2026-05-03T07:53:45Z</time></trkpt><trkpt lat="45.87077773100969" lon="11.959996823400664"><ele>196.0</ele><time>2026-05-03T07:53:46Z</time></trkpt><trkpt lat="45.87086884661627" lon="11.960247626960916"><ele>196.0</ele><time>2026-05-03T07:53:47Z</time></trkpt><trkpt lat="45.87095603434438" lon="11.96050587869921"><ele>197.0</ele><time>2026-05-03T07:53:48Z</time></trkpt><trkpt lat="45.871047591996025" lon="11.960753928281108"><ele>198.0</ele><time>2026-05-03T07:53:49Z</time></trkpt><trkpt lat="45.87113612045411" lon="11.960986205229254"><ele>199.0</ele><time>2026-05-03T07:53:50Z</time></trkpt><trkpt lat="45.87121421263861" lon="11.96119651985359"><ele>197.0</ele><time>2026-05-03T07:53:51Z</time></trkpt><trkpt lat="45.8712864331688" lon="11.961391470209199"><ele>195.0</ele><time>2026-05-03T07:53:52Z</time></trkpt><trkpt lat="45.87136769435163" lon="11.961608604602167"><ele>193.0</ele><time>2026-05-03T07:53:53Z</time></trkpt><trkpt lat="45.871448167613856" lon="11.96184788336388"><ele>191.33333333333331</ele><time>2026-05-03T07:53:54Z</time></trkpt><trkpt lat="45.87153606012203" lon="11.96209350365706"><ele>189.66666666666666</ele><time>2026-05-03T07:53:55Z</time></trkpt><trkpt lat="45.87162266549887" lon="11.962339673510106"><ele>188.0</ele><time>2026-05-03T07:53:56Z</time></trkpt><trkpt lat="45.87170831088338" lon="11.962570814250816"><ele>188.33333333333331</ele><time>2026-05-03T07:53:57Z</time></trkpt><trkpt lat="45.871791465353986" lon="11.962791039516073"><ele>188.66666666666666</ele><time>2026-05-03T07:53:58Z</time></trkpt><trkpt lat="45.87187610663505" lon="11.963015206128846"><ele>189.0</ele><time>2026-05-03T07:53:59Z</time></trkpt><trkpt lat="45.87195790325427" lon="11.963249605745911"><ele>187.66666666666666</ele><time>2026-05-03T07:54:00Z</time></trkpt><trkpt lat="45.87204632321178" lon="11.963489746529536"><ele>186.33333333333331</ele><time>2026-05-03T07:54:01Z</time></trkpt><trkpt lat="45.87213171814339" lon="11.963731138663572"><ele>185.0</ele><time>2026-05-03T07:54:02Z</time></trkpt><trkpt lat="45.87221968045109" lon="11.963961520200227"><ele>185.0</ele><time>2026-05-03T07:54:03Z</time></trkpt><trkpt lat="45.87231166334102" lon="11.964178302330687"><ele>185.0</ele><time>2026-05-03T07:54:04Z</time></trkpt><trkpt lat="45.87240929646118" lon="11.964391794511448"><ele>185.0</ele><time>2026-05-03T07:54:05Z</time></trkpt><trkpt lat="45.87251742006802" lon="11.96460646152369"><ele>184.66666666666666</ele><time>2026-05-03T07:54:06Z</time></trkpt><trkpt lat="45.87264138633438" lon="11.964818303254994"><ele>184.33333333333334</ele><time>2026-05-03T07:54:07Z</time></trkpt><trkpt lat="45.872785535825244" lon="11.965024624474532"><ele>184.0</ele><time>2026-05-03T07:54:08Z</time></trkpt><trkpt lat="45.87294308737081" lon="11.965233319814164"><ele>181.0</ele><time>2026-05-03T07:54:09Z</time></trkpt><trkpt lat="45.87311587016004" lon="11.965428067539236"><ele>178.0</ele><time>2026-05-03T07:54:10Z</time></trkpt><trkpt lat="45.87329461878079" lon="11.965600556932117"><ele>175.0</ele><time>2026-05-03T07:54:11.001Z</time></trkpt><trkpt lat="45.87346848630759" lon="11.965739576085435"><ele>174.0</ele><time>2026-05-03T07:54:12.001Z</time></trkpt><trkpt lat="45.87362591560706" lon="11.965846098765851"><ele>173.0</ele><time>2026-05-03T07:54:13.001Z</time></trkpt><trkpt lat="45.873765106210044" lon="11.965924512816642"><ele>172.0</ele><time>2026-05-03T07:54:14.001Z</time></trkpt><trkpt lat="45.87390941234961" lon="11.965965581996985"><ele>170.0</ele><time>2026-05-03T07:54:15.001Z</time></trkpt><trkpt lat="45.874055953029874" lon="11.965956288916354"><ele>168.0</ele><time>2026-05-03T07:54:16.001Z</time></trkpt><trkpt lat="45.87420458939467" lon="11.965905353686619"><ele>166.0</ele><time>2026-05-03T07:54:17.001Z</time></trkpt><trkpt lat="45.87434523984952" lon="11.965801947268723"><ele>166.0</ele><time>2026-05-03T07:54:18.001Z</time></trkpt><trkpt lat="45.87445625580619" lon="11.96563078355525"><ele>166.0</ele><time>2026-05-03T07:54:19.001Z</time></trkpt><trkpt lat="45.874564929438534" lon="11.965495391589771"><ele>166.0</ele><time>2026-05-03T07:54:20.001Z</time></trkpt><trkpt lat="45.874630671015" lon="11.965324603274814"><ele>166.0</ele><time>2026-05-03T07:54:21.001Z</time></trkpt><trkpt lat="45.87466525109304" lon="11.96513703149327"><ele>167.75</ele><time>2026-05-03T07:54:22.001Z</time></trkpt><trkpt lat="45.87468431615271" lon="11.964939318234785"><ele>169.5</ele><time>2026-05-03T07:54:23.001Z</time></trkpt><trkpt lat="45.874692214201474" lon="11.964768804454645"><ele>171.25</ele><time>2026-05-03T07:54:24.001Z</time></trkpt><trkpt lat="45.87471209833475" lon="11.964632013283696"><ele>173.0</ele><time>2026-05-03T07:54:25.001Z</time></trkpt><trkpt lat="45.87476446572562" lon="11.964504088460675"><ele>173.0</ele><time>2026-05-03T07:54:26.001Z</time></trkpt><trkpt lat="45.874842802810264" lon="11.964385548023733"><ele>173.0</ele><time>2026-05-03T07:54:27.001Z</time></trkpt><trkpt lat="45.87494530450639" lon="11.964278691329671"><ele>173.0</ele><time>2026-05-03T07:54:28.001Z</time></trkpt><trkpt lat="45.875059229703275" lon="11.964170388007947"><ele>173.0</ele><time>2026-05-03T07:54:29.001Z</time></trkpt><trkpt lat="45.87518770890299" lon="11.96406992603653"><ele>175.33333333333331</ele><time>2026-05-03T07:54:30.001Z</time></trkpt><trkpt lat="45.87533165686758" lon="11.9639770166623"><ele>177.66666666666666</ele><time>2026-05-03T07:54:31.001Z</time></trkpt><trkpt lat="45.87548732801489" lon="11.963880988649926"><ele>180.0</ele><time>2026-05-03T07:54:32.001Z</time></trkpt><trkpt lat="45.87564647028468" lon="11.963781151859738"><ele>180.0</ele><time>2026-05-03T07:54:33.001Z</time></trkpt><trkpt lat="45.875788074777205" lon="11.963685272327242"><ele>180.0</ele><time>2026-05-03T07:54:34.001Z</time></trkpt><trkpt lat="45.87592412521542" lon="11.963593914393162"><ele>180.0</ele><time>2026-05-03T07:54:35.001Z</time></trkpt><trkpt lat="45.876069488881086" lon="11.963549351060053"><ele>178.0</ele><time>2026-05-03T07:54:36.001Z</time></trkpt><trkpt lat="45.876207112094576" lon="11.963495116970188"><ele>176.0</ele><time>2026-05-03T07:54:37.001Z</time></trkpt><trkpt lat="45.876337882418916" lon="11.963447493952952"><ele>174.0</ele><time>2026-05-03T07:54:38.001Z</time></trkpt><trkpt lat="45.87647055013212" lon="11.96338399933999"><ele>172.0</ele><time>2026-05-03T07:54:39.001Z</time></trkpt><trkpt lat="45.87661778874218" lon="11.963370866499552"><ele>173.75</ele><time>2026-05-03T07:54:40.001Z</time></trkpt><trkpt lat="45.87676906084822" lon="11.963316175323381"><ele>175.5</ele><time>2026-05-03T07:54:41.001Z</time></trkpt><trkpt lat="45.87691203735999" lon="11.96328861766189"><ele>177.25</ele><time>2026-05-03T07:54:42.001Z</time></trkpt><trkpt lat="45.87705694534192" lon="11.963274433472568"><ele>179.0</ele><time>2026-05-03T07:54:43.001Z</time></trkpt><trkpt lat="45.877206442698665" lon="11.963252086204532"><ele>179.0</ele><time>2026-05-03T07:54:44.001Z</time></trkpt><trkpt lat="45.87735764709118" lon="11.963230524035954"><ele>179.0</ele><time>2026-05-03T07:54:45.001Z</time></trkpt><trkpt lat="45.877513752413904" lon="11.963208106328763"><ele>179.0</ele><time>2026-05-03T07:54:46Z</time></trkpt><trkpt lat="45.8776686188926" lon="11.9631817096973"><ele>178.66666666666666</ele><time>2026-05-03T07:54:47Z</time></trkpt><trkpt lat="45.877822784889645" lon="11.963139608994155"><ele>178.33333333333334</ele><time>2026-05-03T07:54:48Z</time></trkpt><trkpt lat="45.87797639748493" lon="11.963100943009206"><ele>178.0</ele><time>2026-05-03T07:54:49Z</time></trkpt><trkpt lat="45.878121665986164" lon="11.963070966458373"><ele>178.0</ele><time>2026-05-03T07:54:50Z</time></trkpt><trkpt lat="45.878257913820384" lon="11.963041149970454"><ele>178.0</ele><time>2026-05-03T07:54:51Z</time></trkpt><trkpt lat="45.8783905591336" lon="11.963003869774056"><ele>178.0</ele><time>2026-05-03T07:54:52Z</time></trkpt><trkpt lat="45.878536696300266" lon="11.962995790561566"><ele>178.0</ele><time>2026-05-03T07:54:53Z</time></trkpt><trkpt lat="45.87868259717907" lon="11.96295849792627"><ele>175.5</ele><time>2026-05-03T07:54:54Z</time></trkpt><trkpt lat="45.87882621666946" lon="11.96289283738302"><ele>173.0</ele><time>2026-05-03T07:54:55Z</time></trkpt><trkpt lat="45.87897309754516" lon="11.962854779391908"><ele>170.5</ele><time>2026-05-03T07:54:56Z</time></trkpt><trkpt lat="45.8791178670894" lon="11.962822488745772"><ele>168.0</ele><time>2026-05-03T07:54:57Z</time></trkpt><trkpt lat="45.87926139502823" lon="11.962777813534121"><ele>167.33333333333334</ele><time>2026-05-03T07:54:58Z</time></trkpt><trkpt lat="45.87939592779724" lon="11.962716748254117"><ele>166.66666666666669</ele><time>2026-05-03T07:54:59Z</time></trkpt><trkpt lat="45.87952563317089" lon="11.96260974949947"><ele>166.0</ele><time>2026-05-03T07:55:00Z</time></trkpt><trkpt lat="45.879649182211935" lon="11.96246369936736"><ele>167.66666666666669</ele><time>2026-05-03T07:55:01Z</time></trkpt><trkpt lat="45.879772018577114" lon="11.962311880449958"><ele>169.33333333333334</ele><time>2026-05-03T07:55:02Z</time></trkpt><trkpt lat="45.879889111972105" lon="11.962158907775722"><ele>171.0</ele><time>2026-05-03T07:55:03Z</time></trkpt><trkpt lat="45.87999833600955" lon="11.962015951769569"><ele>171.25</ele><time>2026-05-03T07:55:04Z</time></trkpt><trkpt lat="45.88010056859232" lon="11.96187330643191"><ele>171.5</ele><time>2026-05-03T07:55:05Z</time></trkpt><trkpt lat="45.8802097906965" lon="11.96173422453098"><ele>171.75</ele><time>2026-05-03T07:55:06Z</time></trkpt><trkpt lat="45.88031308976473" lon="11.961580170505336"><ele>172.0</ele><time>2026-05-03T07:55:07Z</time></trkpt><trkpt lat="45.88042879963274" lon="11.961420221548378"><ele>172.0</ele><time>2026-05-03T07:55:08Z</time></trkpt><trkpt lat="45.88054903513537" lon="11.961249506437156"><ele>172.0</ele><time>2026-05-03T07:55:09Z</time></trkpt><trkpt lat="45.880673472276094" lon="11.9610615774883"><ele>172.0</ele><time>2026-05-03T07:55:10Z</time></trkpt><trkpt lat="45.88079217898171" lon="11.960876130852437"><ele>173.33333333333334</ele><time>2026-05-03T07:55:11Z</time></trkpt><trkpt lat="45.88090715706681" lon="11.960675490668969"><ele>174.66666666666666</ele><time>2026-05-03T07:55:12Z</time></trkpt><trkpt lat="45.881033192093255" lon="11.96046330503325"><ele>176.0</ele><time>2026-05-03T07:55:13Z</time></trkpt><trkpt lat="45.88114338382129" lon="11.960228710846778"><ele>173.33333333333331</ele><time>2026-05-03T07:55:14Z</time></trkpt><trkpt lat="45.881242232845004" lon="11.95997906826816"><ele>170.66666666666666</ele><time>2026-05-03T07:55:15Z</time></trkpt><trkpt lat="45.88135587781092" lon="11.959733987906867"><ele>168.0</ele><time>2026-05-03T07:55:16Z</time></trkpt><trkpt lat="45.88146733910695" lon="11.959495286551386"><ele>168.0</ele><time>2026-05-03T07:55:17Z</time></trkpt><trkpt lat="45.88157753241178" lon="11.959258418284273"><ele>168.0</ele><time>2026-05-03T07:55:18Z</time></trkpt><trkpt lat="45.88168650161871" lon="11.959034330476644"><ele>168.0</ele><time>2026-05-03T07:55:19Z</time></trkpt><trkpt lat="45.88179682733823" lon="11.958833677206163"><ele>168.33333333333334</ele><time>2026-05-03T07:55:20Z</time></trkpt><trkpt lat="45.8819071730766" lon="11.958630024069288"><ele>168.66666666666669</ele><time>2026-05-03T07:55:21Z</time></trkpt><trkpt lat="45.88202730281756" lon="11.958423366476644"><ele>169.0</ele><time>2026-05-03T07:55:22Z</time></trkpt><trkpt lat="45.882154117270204" lon="11.958224132303837"><ele>169.0</ele><time>2026-05-03T07:55:23Z</time></trkpt><trkpt lat="45.882287207393325" lon="11.95802371903544"><ele>169.0</ele><time>2026-05-03T07:55:24Z</time></trkpt><trkpt lat="45.88242135035365" lon="11.95782141637152"><ele>169.0</ele><time>2026-05-03T07:55:25Z</time></trkpt><trkpt lat="45.88255842287669" lon="11.95760428413683"><ele>168.66666666666669</ele><time>2026-05-03T07:55:26Z</time></trkpt><trkpt lat="45.88270050669086" lon="11.957387177834045"><ele>168.33333333333334</ele><time>2026-05-03T07:55:27Z</time></trkpt><trkpt lat="45.88284127255744" lon="11.957168649022208"><ele>168.0</ele><time>2026-05-03T07:55:28Z</time></trkpt><trkpt lat="45.882972999673164" lon="11.956953183686238"><ele>168.0</ele><time>2026-05-03T07:55:29Z</time></trkpt><trkpt lat="45.88310441266896" lon="11.956741979021752"><ele>168.0</ele><time>2026-05-03T07:55:30Z</time></trkpt><trkpt lat="45.88323433562835" lon="11.956520315751376"><ele>168.0</ele><time>2026-05-03T07:55:31Z</time></trkpt><trkpt lat="45.88336683026017" lon="11.956283083363386"><ele>168.33333333333334</ele><time>2026-05-03T07:55:32Z</time></trkpt><trkpt lat="45.883517542586034" lon="11.956054109818375"><ele>168.66666666666669</ele><time>2026-05-03T07:55:33Z</time></trkpt><trkpt lat="45.883659177156176" lon="11.95581733135613"><ele>169.0</ele><time>2026-05-03T07:55:34Z</time></trkpt><trkpt lat="45.883804179937925" lon="11.955574395227906"><ele>169.0</ele><time>2026-05-03T07:55:35Z</time></trkpt><trkpt lat="45.88394820842868" lon="11.955333196157286"><ele>169.0</ele><time>2026-05-03T07:55:36Z</time></trkpt><trkpt lat="45.88408629628192" lon="11.955101747950076"><ele>169.0</ele><time>2026-05-03T07:55:37Z</time></trkpt><trkpt lat="45.88421638870031" lon="11.954883700789916"><ele>170.0</ele><time>2026-05-03T07:55:38Z</time></trkpt><trkpt lat="45.88434225599814" lon="11.95467246590212"><ele>171.0</ele><time>2026-05-03T07:55:39Z</time></trkpt><trkpt lat="45.88445161172862" lon="11.954459489549428"><ele>172.0</ele><time>2026-05-03T07:55:40Z</time></trkpt><trkpt lat="45.88456563321853" lon="11.954274870192396"><ele>172.0</ele><time>2026-05-03T07:55:41Z</time></trkpt><trkpt lat="45.88466099934221" lon="11.954089161522658"><ele>172.0</ele><time>2026-05-03T07:55:42Z</time></trkpt><trkpt lat="45.884734650617446" lon="11.953879378626384"><ele>172.0</ele><time>2026-05-03T07:55:43Z</time></trkpt><trkpt lat="45.88478957494742" lon="11.9536295941473"><ele>173.66666666666669</ele><time>2026-05-03T07:55:44Z</time></trkpt><trkpt lat="45.88483390036285" lon="11.953354643374519"><ele>175.33333333333334</ele><time>2026-05-03T07:55:45Z</time></trkpt><trkpt lat="45.88487520790518" lon="11.953053170554094"><ele>177.0</ele><time>2026-05-03T07:55:46Z</time></trkpt><trkpt lat="45.8849148501845" lon="11.952746407965682"><ele>180.5</ele><time>2026-05-03T07:55:47Z</time></trkpt><trkpt lat="45.884973433447804" lon="11.952435021221875"><ele>184.0</ele><time>2026-05-03T07:55:48Z</time></trkpt><trkpt lat="45.88502597565947" lon="11.952116172979139"><ele>184.0</ele><time>2026-05-03T07:55:49Z</time></trkpt><trkpt lat="45.88508279538852" lon="11.95179465004433"><ele>184.0</ele><time>2026-05-03T07:55:50Z</time></trkpt><trkpt lat="45.88514669478995" lon="11.951471146891858"><ele>175.0</ele><time>2026-05-03T07:55:51Z</time></trkpt><trkpt lat="45.885215009524245" lon="11.95114542143624"><ele>166.0</ele><time>2026-05-03T07:55:52Z</time></trkpt><trkpt lat="45.88527249668918" lon="11.950813593293924"><ele>164.0</ele><time>2026-05-03T07:55:53Z</time></trkpt><trkpt lat="45.885350241479856" lon="11.950488840978402"><ele>162.0</ele><time>2026-05-03T07:55:54Z</time></trkpt><trkpt lat="45.88542467397881" lon="11.950157279817438"><ele>166.0</ele><time>2026-05-03T07:55:55Z</time></trkpt><trkpt lat="45.88550163117367" lon="11.949839942018219"><ele>170.0</ele><time>2026-05-03T07:55:55.999Z</time></trkpt><trkpt lat="45.885586933688735" lon="11.949530229115199"><ele>170.0</ele><time>2026-05-03T07:55:56.999Z</time></trkpt><trkpt lat="45.88570135972719" lon="11.9492519917171"><ele>170.0</ele><time>2026-05-03T07:55:57.999Z</time></trkpt><trkpt lat="45.88578983489965" lon="11.948966781732526"><ele>170.0</ele><time>2026-05-03T07:55:58.999Z</time></trkpt><trkpt lat="45.885892526035164" lon="11.94869877393593"><ele>169.66666666666666</ele><time>2026-05-03T07:55:59.999Z</time></trkpt><trkpt lat="45.885994552649045" lon="11.948446289721055"><ele>169.33333333333334</ele><time>2026-05-03T07:56:00.999Z</time></trkpt><trkpt lat="45.88610192237144" lon="11.94821367640851"><ele>169.0</ele><time>2026-05-03T07:56:01.999Z</time></trkpt><trkpt lat="45.88620600580753" lon="11.947986815764015"><ele>169.0</ele><time>2026-05-03T07:56:02.999Z</time></trkpt><trkpt lat="45.886318235218994" lon="11.947773157645651"><ele>169.0</ele><time>2026-05-03T07:56:03.999Z</time></trkpt><trkpt lat="45.8864318336532" lon="11.947558863117859"><ele>169.0</ele><time>2026-05-03T07:56:04.999Z</time></trkpt><trkpt lat="45.88657194014754" lon="11.947372955885504"><ele>169.33333333333334</ele><time>2026-05-03T07:56:05.999Z</time></trkpt><trkpt lat="45.88672198094657" lon="11.947196822931556"><ele>169.66666666666666</ele><time>2026-05-03T07:56:06.999Z</time></trkpt><trkpt lat="45.88688798791675" lon="11.947037400424902"><ele>170.0</ele><time>2026-05-03T07:56:07.999Z</time></trkpt><trkpt lat="45.887063906541314" lon="11.946881200028105"><ele>170.0</ele><time>2026-05-03T07:56:08.999Z</time></trkpt><trkpt lat="45.887244506386935" lon="11.946717968975701"><ele>170.0</ele><time>2026-05-03T07:56:09.999Z</time></trkpt><trkpt lat="45.88741922918545" lon="11.94655865184985"><ele>170.0</ele><time>2026-05-03T07:56:10.999Z</time></trkpt><trkpt lat="45.88758614474514" lon="11.946405107126754"><ele>170.0</ele><time>2026-05-03T07:56:11.999Z</time></trkpt><trkpt lat="45.887739738904635" lon="11.94626372937476"><ele>170.0</ele><time>2026-05-03T07:56:12.999Z</time></trkpt><trkpt lat="45.88788971223453" lon="11.946125686883205"><ele>170.0</ele><time>2026-05-03T07:56:13.999Z</time></trkpt><trkpt lat="45.88804346351951" lon="11.945972715773657"><ele>169.66666666666666</ele><time>2026-05-03T07:56:14.999Z</time></trkpt><trkpt lat="45.88820390341557" lon="11.945835157337577"><ele>169.33333333333334</ele><time>2026-05-03T07:56:15.999Z</time></trkpt><trkpt lat="45.88836245298762" lon="11.945696415026852"><ele>169.0</ele><time>2026-05-03T07:56:17Z</time></trkpt><trkpt lat="45.88851732726069" lon="11.945557782441329"><ele>169.0</ele><time>2026-05-03T07:56:18Z</time></trkpt><trkpt lat="45.88867333738307" lon="11.9454229711153"><ele>169.0</ele><time>2026-05-03T07:56:19Z</time></trkpt><trkpt lat="45.88882905536939" lon="11.945269826914084"><ele>169.0</ele><time>2026-05-03T07:56:20Z</time></trkpt><trkpt lat="45.88899344634433" lon="11.945119359836673"><ele>170.66666666666669</ele><time>2026-05-03T07:56:21Z</time></trkpt><trkpt lat="45.889163867143914" lon="11.944973829481354"><ele>172.33333333333334</ele><time>2026-05-03T07:56:22Z</time></trkpt><trkpt lat="45.88933315813835" lon="11.944824235505578"><ele>174.0</ele><time>2026-05-03T07:56:23Z</time></trkpt><trkpt lat="45.88950876539782" lon="11.944681068242913"><ele>174.0</ele><time>2026-05-03T07:56:24Z</time></trkpt><trkpt lat="45.889677160711486" lon="11.944526984431329"><ele>174.0</ele><time>2026-05-03T07:56:25Z</time></trkpt><trkpt lat="45.88984797427613" lon="11.944380727532305"><ele>174.0</ele><time>2026-05-03T07:56:26Z</time></trkpt><trkpt lat="45.89001088612886" lon="11.9442258963722"><ele>174.66666666666666</ele><time>2026-05-03T07:56:27Z</time></trkpt><trkpt lat="45.89018218559351" lon="11.944090806726289"><ele>175.33333333333331</ele><time>2026-05-03T07:56:28Z</time></trkpt><trkpt lat="45.89037194570571" lon="11.943983997471767"><ele>176.0</ele><time>2026-05-03T07:56:29Z</time></trkpt><trkpt lat="45.89057210961669" lon="11.943915137890864"><ele>176.0</ele><time>2026-05-03T07:56:30Z</time></trkpt><trkpt lat="45.89077071538135" lon="11.94387684326769"><ele>176.0</ele><time>2026-05-03T07:56:31Z</time></trkpt><trkpt lat="45.89096788044997" lon="11.943858581374023"><ele>176.0</ele><time>2026-05-03T07:56:32Z</time></trkpt><trkpt lat="45.89116591965139" lon="11.94384187554596"><ele>176.0</ele><time>2026-05-03T07:56:33Z</time></trkpt><trkpt lat="45.89137054844819" lon="11.9438084485803"><ele>176.0</ele><time>2026-05-03T07:56:34Z</time></trkpt><trkpt lat="45.89157114297715" lon="11.943772993496284"><ele>176.0</ele><time>2026-05-03T07:56:35Z</time></trkpt><trkpt lat="45.89176947865411" lon="11.943729913877462"><ele>176.0</ele><time>2026-05-03T07:56:36Z</time></trkpt><trkpt lat="45.89196451662847" lon="11.94368446569003"><ele>176.0</ele><time>2026-05-03T07:56:37Z</time></trkpt><trkpt lat="45.892159712535964" lon="11.943640532333816"><ele>176.0</ele><time>2026-05-03T07:56:38Z</time></trkpt><trkpt lat="45.89234960547049" lon="11.943582500864919"><ele>176.0</ele><time>2026-05-03T07:56:39Z</time></trkpt><trkpt lat="45.89254096760392" lon="11.943502649342507"><ele>176.0</ele><time>2026-05-03T07:56:40Z</time></trkpt><trkpt lat="45.892729011283286" lon="11.94339805553279"><ele>176.0</ele><time>2026-05-03T07:56:41Z</time></trkpt><trkpt lat="45.8929089780338" lon="11.943281383877881"><ele>176.66666666666666</ele><time>2026-05-03T07:56:42Z</time></trkpt><trkpt lat="45.8930835022738" lon="11.94315852889204"><ele>177.33333333333334</ele><time>2026-05-03T07:56:43Z</time></trkpt><trkpt lat="45.893250124004176" lon="11.943037754428309"><ele>178.0</ele><time>2026-05-03T07:56:44Z</time></trkpt><trkpt lat="45.89341884160504" lon="11.942917373196073"><ele>175.33333333333334</ele><time>2026-05-03T07:56:45Z</time></trkpt><trkpt lat="45.89359071365354" lon="11.942799464287576"><ele>172.66666666666666</ele><time>2026-05-03T07:56:45.999Z</time></trkpt><trkpt lat="45.89376397148499" lon="11.942680909612584"><ele>170.0</ele><time>2026-05-03T07:56:46.999Z</time></trkpt><trkpt lat="45.89393377007588" lon="11.94257008388184"><ele>172.66666666666666</ele><time>2026-05-03T07:56:47.999Z</time></trkpt><trkpt lat="45.894106908650215" lon="11.942466062943456"><ele>175.33333333333334</ele><time>2026-05-03T07:56:48.999Z</time></trkpt><trkpt lat="45.894288273959184" lon="11.942394080891477"><ele>178.0</ele><time>2026-05-03T07:56:49.999Z</time></trkpt><trkpt lat="45.89446339922309" lon="11.942359894428067"><ele>178.0</ele><time>2026-05-03T07:56:50.999Z</time></trkpt><trkpt lat="45.894627633722905" lon="11.942357145861836"><ele>178.0</ele><time>2026-05-03T07:56:51.999Z</time></trkpt><trkpt lat="45.89478642966981" lon="11.94237865371241"><ele>178.0</ele><time>2026-05-03T07:56:52.999Z</time></trkpt><trkpt lat="45.89495408251917" lon="11.94241720344005"><ele>179.66666666666669</ele><time>2026-05-03T07:56:53.999Z</time></trkpt><trkpt lat="45.89512851498323" lon="11.942447609343352"><ele>181.33333333333334</ele><time>2026-05-03T07:56:54.999Z</time></trkpt><trkpt lat="45.89531119902038" lon="11.942482463071727"><ele>183.0</ele><time>2026-05-03T07:56:55.999Z</time></trkpt><trkpt lat="45.895498580605164" lon="11.942514637516794"><ele>180.66666666666666</ele><time>2026-05-03T07:56:56.999Z</time></trkpt><trkpt lat="45.89569127235141" lon="11.942548631148982"><ele>178.33333333333331</ele><time>2026-05-03T07:56:57.999Z</time></trkpt><trkpt lat="45.895883914670776" lon="11.94257414214617"><ele>176.0</ele><time>2026-05-03T07:56:58.999Z</time></trkpt><trkpt lat="45.896056428059595" lon="11.942615580024357"><ele>176.0</ele><time>2026-05-03T07:56:59.999Z</time></trkpt><trkpt lat="45.89621795870877" lon="11.942646473805251"><ele>176.0</ele><time>2026-05-03T07:57:00.999Z</time></trkpt><trkpt lat="45.89636369925674" lon="11.94266936584554"><ele>176.0</ele><time>2026-05-03T07:57:01.999Z</time></trkpt><trkpt lat="45.896507255603225" lon="11.942693313188565"><ele>176.0</ele><time>2026-05-03T07:57:02.999Z</time></trkpt><trkpt lat="45.896649602500894" lon="11.942706112163412"><ele>176.0</ele><time>2026-05-03T07:57:03.999Z</time></trkpt><trkpt lat="45.896795593433986" lon="11.942711385210032"><ele>176.0</ele><time>2026-05-03T07:57:04.999Z</time></trkpt><trkpt lat="45.896939586304256" lon="11.94271689930707"><ele>176.0</ele><time>2026-05-03T07:57:05.999Z</time></trkpt><trkpt lat="45.89708076410009" lon="11.942732984824115"><ele>175.33333333333331</ele><time>2026-05-03T07:57:06.999Z</time></trkpt><trkpt lat="45.897233182982504" lon="11.942737090518449"><ele>174.66666666666666</ele><time>2026-05-03T07:57:07.999Z</time></trkpt><trkpt lat="45.897391857648856" lon="11.942729038753306"><ele>174.0</ele><time>2026-05-03T07:57:08.999Z</time></trkpt><trkpt lat="45.89754820758956" lon="11.942724112236078"><ele>174.0</ele><time>2026-05-03T07:57:09.999Z</time></trkpt><trkpt lat="45.89769648834501" lon="11.942712438217654"><ele>174.0</ele><time>2026-05-03T07:57:10.999Z</time></trkpt><trkpt lat="45.89784343723395" lon="11.94269388587073"><ele>174.0</ele><time>2026-05-03T07:57:11.999Z</time></trkpt><trkpt lat="45.8979832683398" lon="11.942671692448085"><ele>174.0</ele><time>2026-05-03T07:57:12.999Z</time></trkpt><trkpt lat="45.89812574690322" lon="11.94264691688601"><ele>174.0</ele><time>2026-05-03T07:57:13.999Z</time></trkpt><trkpt lat="45.89827142696412" lon="11.942626601388458"><ele>174.0</ele><time>2026-05-03T07:57:14.999Z</time></trkpt><trkpt lat="45.89842187288115" lon="11.94261111411675"><ele>174.0</ele><time>2026-05-03T07:57:15.999Z</time></trkpt><trkpt lat="45.89855869258162" lon="11.942616459022073"><ele>174.0</ele><time>2026-05-03T07:57:16.999Z</time></trkpt><trkpt lat="45.89868246257645" lon="11.942626392886723"><ele>175.2</ele><time>2026-05-03T07:57:17.999Z</time></trkpt><trkpt lat="45.898794287409935" lon="11.942656984281342"><ele>176.39999999999998</ele><time>2026-05-03T07:57:18.999Z</time></trkpt><trkpt lat="45.89890477887388" lon="11.942684267709486"><ele>177.6</ele><time>2026-05-03T07:57:19.999Z</time></trkpt><trkpt lat="45.89901128167163" lon="11.942712299290001"><ele>178.8</ele><time>2026-05-03T07:57:20.999Z</time></trkpt><trkpt lat="45.89911482289031" lon="11.942740878807204"><ele>180.0</ele><time>2026-05-03T07:57:21.999Z</time></trkpt><trkpt lat="45.89920532282818" lon="11.942766747584699"><ele>180.8</ele><time>2026-05-03T07:57:22.999Z</time></trkpt><trkpt lat="45.89927563224394" lon="11.942807125936206"><ele>181.6</ele><time>2026-05-03T07:57:23.999Z</time></trkpt><trkpt lat="45.89933469587504" lon="11.942839043186435"><ele>182.39999999999998</ele><time>2026-05-03T07:57:26.999Z</time></trkpt><trkpt lat="45.899400178536794" lon="11.942899753509176"><ele>183.2</ele><time>2026-05-03T07:57:30.999Z</time></trkpt><trkpt lat="45.899472575979416" lon="11.943038626574163"><ele>184.0</ele><time>2026-05-03T07:57:32.999Z</time></trkpt><trkpt lat="45.89953674717975" lon="11.94320843421003"><ele>184.0</ele><time>2026-05-03T07:57:34.999Z</time></trkpt><trkpt lat="45.89959553300809" lon="11.943302502043974"><ele>184.0</ele><time>2026-05-03T07:57:35.999Z</time></trkpt><trkpt lat="45.899667996334045" lon="11.94337512212354"><ele>184.0</ele><time>2026-05-03T07:57:36.999Z</time></trkpt><trkpt lat="45.899705644776375" lon="11.94352867847702"><ele>184.0</ele><time>2026-05-03T07:57:37.999Z</time></trkpt><trkpt lat="45.899728486503875" lon="11.943677665815713"><ele>184.0</ele><time>2026-05-03T07:57:38.999Z</time></trkpt><trkpt lat="45.899739545024275" lon="11.943845951778405"><ele>182.33333333333334</ele><time>2026-05-03T07:57:39.999Z</time></trkpt><trkpt lat="45.89974921839897" lon="11.944042311051382"><ele>180.66666666666666</ele><time>2026-05-03T07:57:40.999Z</time></trkpt><trkpt lat="45.8997614088475" lon="11.944262305954593"><ele>179.0</ele><time>2026-05-03T07:57:41.999Z</time></trkpt><trkpt lat="45.899776829794625" lon="11.944491999045532"><ele>179.0</ele><time>2026-05-03T07:57:42.999Z</time></trkpt><trkpt lat="45.89979064814038" lon="11.944707101795457"><ele>179.0</ele><time>2026-05-03T07:57:43.999Z</time></trkpt><trkpt lat="45.89980738252657" lon="11.94492462071162"><ele>179.0</ele><time>2026-05-03T07:57:44.999Z</time></trkpt><trkpt lat="45.899823915490316" lon="11.945161847415596"><ele>179.33333333333331</ele><time>2026-05-03T07:57:45.999Z</time></trkpt><trkpt lat="45.89983428716487" lon="11.945392799639155"><ele>179.66666666666666</ele><time>2026-05-03T07:57:46.999Z</time></trkpt><trkpt lat="45.899846980694356" lon="11.945628024740788"><ele>180.0</ele><time>2026-05-03T07:57:47.999Z</time></trkpt><trkpt lat="45.899861456912404" lon="11.945867722090284"><ele>178.66666666666666</ele><time>2026-05-03T07:57:48.999Z</time></trkpt><trkpt lat="45.89987515032479" lon="11.94611900467582"><ele>177.33333333333331</ele><time>2026-05-03T07:57:49.999Z</time></trkpt><trkpt lat="45.89989295154974" lon="11.946369280687726"><ele>176.0</ele><time>2026-05-03T07:57:50.999Z</time></trkpt><trkpt lat="45.89990832700136" lon="11.946613365624277"><ele>174.33333333333331</ele><time>2026-05-03T07:57:51.999Z</time></trkpt><trkpt lat="45.89992312627726" lon="11.94686698517123"><ele>172.66666666666666</ele><time>2026-05-03T07:57:52.999Z</time></trkpt><trkpt lat="45.89993690421089" lon="11.947123733750443"><ele>171.0</ele><time>2026-05-03T07:57:53.999Z</time></trkpt><trkpt lat="45.89995061443884" lon="11.947378178144824"><ele>171.33333333333334</ele><time>2026-05-03T07:57:54.999Z</time></trkpt><trkpt lat="45.89996417251143" lon="11.947622943025854"><ele>171.66666666666669</ele><time>2026-05-03T07:57:55.999Z</time></trkpt><trkpt lat="45.89998068090186" lon="11.947865124261668"><ele>172.0</ele><time>2026-05-03T07:57:56.999Z</time></trkpt><trkpt lat="45.89999947098027" lon="11.948104518348643"><ele>172.0</ele><time>2026-05-03T07:57:57.999Z</time></trkpt><trkpt lat="45.90001951848095" lon="11.94835049140519"><ele>172.0</ele><time>2026-05-03T07:57:58.999Z</time></trkpt><trkpt lat="45.900037273395604" lon="11.948597037352874"><ele>172.0</ele><time>2026-05-03T07:57:59.999Z</time></trkpt><trkpt lat="45.90005073479542" lon="11.948841154292664"><ele>172.0</ele><time>2026-05-03T07:58:00.999Z</time></trkpt><trkpt lat="45.90006598927459" lon="11.949088039982358"><ele>172.0</ele><time>2026-05-03T07:58:01.999Z</time></trkpt><trkpt lat="45.90007908967751" lon="11.949325093438873"><ele>172.0</ele><time>2026-05-03T07:58:02.999Z</time></trkpt><trkpt lat="45.90009293267004" lon="11.949562299071841"><ele>172.0</ele><time>2026-05-03T07:58:03.999Z</time></trkpt><trkpt lat="45.90010427915447" lon="11.949780707204178"><ele>172.0</ele><time>2026-05-03T07:58:04.999Z</time></trkpt><trkpt lat="45.90011916186608" lon="11.949986069723272"><ele>172.0</ele><time>2026-05-03T07:58:05.999Z</time></trkpt><trkpt lat="45.900132727435775" lon="11.950181260732169"><ele>172.0</ele><time>2026-05-03T07:58:06.999Z</time></trkpt><trkpt lat="45.900145733257474" lon="11.95036239759178"><ele>172.0</ele><time>2026-05-03T07:58:07.999Z</time></trkpt><trkpt lat="45.90015400215717" lon="11.950526431257744"><ele>172.0</ele><time>2026-05-03T07:58:08.999Z</time></trkpt><trkpt lat="45.900166120362" lon="11.950681141094492"><ele>172.0</ele><time>2026-05-03T07:58:09.999Z</time></trkpt><trkpt lat="45.90017517692759" lon="11.950824771220228"><ele>172.0</ele><time>2026-05-03T07:58:10.999Z</time></trkpt><trkpt lat="45.900183531487606" lon="11.950954854834594"><ele>172.0</ele><time>2026-05-03T07:58:11.999Z</time></trkpt><trkpt lat="45.90018946871991" lon="11.951073974106865"><ele>174.66666666666669</ele><time>2026-05-03T07:58:12.999Z</time></trkpt><trkpt lat="45.90020039760197" lon="11.951192401064977"><ele>177.33333333333334</ele><time>2026-05-03T07:58:13.999Z</time></trkpt><trkpt lat="45.900210803114504" lon="11.951301348243495"><ele>180.0</ele><time>2026-05-03T07:58:14.999Z</time></trkpt><trkpt lat="45.900213396716914" lon="11.951398794266433"><ele>182.66666666666666</ele><time>2026-05-03T07:58:15.999Z</time></trkpt><trkpt lat="45.900196260416955" lon="11.951498873091651"><ele>185.33333333333331</ele><time>2026-05-03T07:58:16.999Z</time></trkpt><trkpt lat="45.90019507110915" lon="11.951600691495855"><ele>188.0</ele><time>2026-05-03T07:58:17.999Z</time></trkpt><trkpt lat="45.90005635736142" lon="11.951673395026422"><ele>197.0</ele><time>2026-05-03T07:58:18.999Z</time></trkpt><trkpt lat="45.89994828466352" lon="11.951718344261652"><ele>206.0</ele><time>2026-05-03T07:58:19.999Z</time></trkpt><trkpt lat="45.89983714134417" lon="11.951768379545136"><ele>215.0</ele><time>2026-05-03T07:58:20.999Z</time></trkpt><trkpt lat="45.8997236587077" lon="11.9518330345512"><ele>224.0</ele><time>2026-05-03T07:58:21.999Z</time></trkpt><trkpt lat="45.899597495831784" lon="11.95188849806688"><ele>224.0</ele><time>2026-05-03T07:58:23Z</time></trkpt><trkpt lat="45.89946684614827" lon="11.951953201175606"><ele>224.0</ele><time>2026-05-03T07:58:24Z</time></trkpt><trkpt lat="45.89933362110507" lon="11.952018505110255"><ele>224.0</ele><time>2026-05-03T07:58:25Z</time></trkpt><trkpt lat="45.899180692202634" lon="11.952088791703794"><ele>224.0</ele><time>2026-05-03T07:58:26Z</time></trkpt><trkpt lat="45.899040698647426" lon="11.952154220705028"><ele>216.0</ele><time>2026-05-03T07:58:27Z</time></trkpt><trkpt lat="45.89891170192104" lon="11.952219592488339"><ele>208.0</ele><time>2026-05-03T07:58:28Z</time></trkpt><trkpt lat="45.89876942285545" lon="11.952286371065533"><ele>200.0</ele><time>2026-05-03T07:58:29Z</time></trkpt><trkpt lat="45.89862452594586" lon="11.952359450476637"><ele>192.0</ele><time>2026-05-03T07:58:30Z</time></trkpt><trkpt lat="45.89848672715268" lon="11.952424822072556"><ele>193.66666666666669</ele><time>2026-05-03T07:58:31Z</time></trkpt><trkpt lat="45.898336339449244" lon="11.952496748706851"><ele>195.33333333333334</ele><time>2026-05-03T07:58:32Z</time></trkpt><trkpt lat="45.89818711334697" lon="11.95257216524009"><ele>197.0</ele><time>2026-05-03T07:58:33Z</time></trkpt><trkpt lat="45.89803143519743" lon="11.952637312489331"><ele>197.0</ele><time>2026-05-03T07:58:34Z</time></trkpt><trkpt lat="45.89788373633666" lon="11.952717014678933"><ele>197.0</ele><time>2026-05-03T07:58:35Z</time></trkpt><trkpt lat="45.89773682595544" lon="11.952811198806813"><ele>197.0</ele><time>2026-05-03T07:58:36Z</time></trkpt><trkpt lat="45.89759000578045" lon="11.9529213073777"><ele>191.66666666666669</ele><time>2026-05-03T07:58:37Z</time></trkpt><trkpt lat="45.89745285717679" lon="11.95305241511289"><ele>186.33333333333334</ele><time>2026-05-03T07:58:38Z</time></trkpt><trkpt lat="45.897327510132946" lon="11.953185381426351"><ele>181.0</ele><time>2026-05-03T07:58:39Z</time></trkpt><trkpt lat="45.897213963498196" lon="11.953310122848771"><ele>183.5</ele><time>2026-05-03T07:58:40Z</time></trkpt><trkpt lat="45.89710532521969" lon="11.953438553556444"><ele>186.0</ele><time>2026-05-03T07:58:41Z</time></trkpt><trkpt lat="45.896990005149284" lon="11.953566573534536"><ele>188.5</ele><time>2026-05-03T07:58:42Z</time></trkpt><trkpt lat="45.896879604967914" lon="11.953701956113651"><ele>191.0</ele><time>2026-05-03T07:58:43Z</time></trkpt><trkpt lat="45.89677379187153" lon="11.953850587369361"><ele>192.5</ele><time>2026-05-03T07:58:44Z</time></trkpt><trkpt lat="45.896680459732615" lon="11.953994515061748"><ele>194.0</ele><time>2026-05-03T07:58:45Z</time></trkpt><trkpt lat="45.896596627726595" lon="11.954121768687104"><ele>195.5</ele><time>2026-05-03T07:58:46Z</time></trkpt><trkpt lat="45.89651659502264" lon="11.954241954658867"><ele>197.0</ele><time>2026-05-03T07:58:47Z</time></trkpt><trkpt lat="45.89643224141743" lon="11.9543641031185"><ele>197.0</ele><time>2026-05-03T07:58:48Z</time></trkpt><trkpt lat="45.89640399387141" lon="11.954548056446093"><ele>197.0</ele><time>2026-05-03T07:58:49Z</time></trkpt><trkpt lat="45.89638883499897" lon="11.954740289007935"><ele>197.0</ele><time>2026-05-03T07:58:50Z</time></trkpt><trkpt lat="45.89637701180163" lon="11.9549503366653"><ele>197.0</ele><time>2026-05-03T07:58:51Z</time></trkpt><trkpt lat="45.896345443522414" lon="11.955175705489026"><ele>200.25</ele><time>2026-05-03T07:58:52Z</time></trkpt><trkpt lat="45.89630313962705" lon="11.955403184360431"><ele>203.5</ele><time>2026-05-03T07:58:53Z</time></trkpt><trkpt lat="45.896262075500765" lon="11.95560078669159"><ele>206.75</ele><time>2026-05-03T07:58:54Z</time></trkpt><trkpt lat="45.896232059271" lon="11.95576889771014"><ele>210.0</ele><time>2026-05-03T07:58:55Z</time></trkpt><trkpt lat="45.896211649152626" lon="11.955942780859226"><ele>212.5</ele><time>2026-05-03T07:58:56Z</time></trkpt><trkpt lat="45.89619145922695" lon="11.956112745203152"><ele>215.0</ele><time>2026-05-03T07:58:57Z</time></trkpt><trkpt lat="45.89617023833483" lon="11.95629298162482"><ele>217.5</ele><time>2026-05-03T07:58:58Z</time></trkpt><trkpt lat="45.896148257420485" lon="11.956478739161195"><ele>220.0</ele><time>2026-05-03T07:58:59Z</time></trkpt><trkpt lat="45.896121380213884" lon="11.95667993875646"><ele>222.25</ele><time>2026-05-03T07:59:00Z</time></trkpt><trkpt lat="45.89609722450514" lon="11.956875374016288"><ele>224.5</ele><time>2026-05-03T07:59:01Z</time></trkpt><trkpt lat="45.89606512659436" lon="11.957078763004667"><ele>226.75</ele><time>2026-05-03T07:59:02Z</time></trkpt><trkpt lat="45.89603728591179" lon="11.957290531788313"><ele>229.0</ele><time>2026-05-03T07:59:03Z</time></trkpt><trkpt lat="45.89600820091455" lon="11.957508244510139"><ele>232.0</ele><time>2026-05-03T07:59:04Z</time></trkpt><trkpt lat="45.89597820995268" lon="11.9577280828066"><ele>235.0</ele><time>2026-05-03T07:59:05Z</time></trkpt><trkpt lat="45.895949027514135" lon="11.95795024167153"><ele>238.0</ele><time>2026-05-03T07:59:06Z</time></trkpt><trkpt lat="45.89591707224189" lon="11.958153453644849"><ele>230.5</ele><time>2026-05-03T07:59:07Z</time></trkpt><trkpt lat="45.895885360056965" lon="11.958359609309554"><ele>223.0</ele><time>2026-05-03T07:59:08Z</time></trkpt><trkpt lat="45.89583773105617" lon="11.958559550763283"><ele>215.5</ele><time>2026-05-03T07:59:09Z</time></trkpt><trkpt lat="45.89574199292589" lon="11.958731388699643"><ele>208.0</ele><time>2026-05-03T07:59:10Z</time></trkpt><trkpt lat="45.89564552246381" lon="11.958906041043738"><ele>208.0</ele><time>2026-05-03T07:59:11Z</time></trkpt><trkpt lat="45.89554881085603" lon="11.959081374069475"><ele>208.0</ele><time>2026-05-03T07:59:12Z</time></trkpt><trkpt lat="45.895462893162446" lon="11.959261840160421"><ele>208.0</ele><time>2026-05-03T07:59:13Z</time></trkpt><trkpt lat="45.89537027306095" lon="11.95942785988654"><ele>210.0</ele><time>2026-05-03T07:59:14Z</time></trkpt><trkpt lat="45.895288682952184" lon="11.959580753001417"><ele>212.0</ele><time>2026-05-03T07:59:15Z</time></trkpt><trkpt lat="45.89521235029418" lon="11.959710249411804"><ele>214.0</ele><time>2026-05-03T07:59:16Z</time></trkpt><trkpt lat="45.895153278916645" lon="11.959865181244076"><ele>216.0</ele><time>2026-05-03T07:59:17Z</time></trkpt><trkpt lat="45.89511526739724" lon="11.960037521078801"><ele>216.0</ele><time>2026-05-03T07:59:18Z</time></trkpt><trkpt lat="45.8951008593545" lon="11.960218072062084"><ele>216.0</ele><time>2026-05-03T07:59:19Z</time></trkpt><trkpt lat="45.89510357923027" lon="11.960402854504903"><ele>216.0</ele><time>2026-05-03T07:59:20Z</time></trkpt><trkpt lat="45.89513151673962" lon="11.960577836973656"><ele>216.0</ele><time>2026-05-03T07:59:20.999Z</time></trkpt><trkpt lat="45.89516897396486" lon="11.960707958016007"><ele>216.0</ele><time>2026-05-03T07:59:21.999Z</time></trkpt><trkpt lat="45.89522962814366" lon="11.960808768108615"><ele>216.00000000000003</ele><time>2026-05-03T07:59:22.999Z</time></trkpt><trkpt lat="45.89531562336988" lon="11.960888709657189"><ele>216.00000000000003</ele><time>2026-05-03T07:59:23.999Z</time></trkpt><trkpt lat="45.89541522737302" lon="11.960929198192918"><ele>216.0</ele><time>2026-05-03T07:59:24.999Z</time></trkpt><trkpt lat="45.89551585250633" lon="11.96093103187613"><ele>216.0</ele><time>2026-05-03T07:59:25.999Z</time></trkpt><trkpt lat="45.8956114033307" lon="11.960922448767194"><ele>216.5</ele><time>2026-05-03T07:59:26.999Z</time></trkpt><trkpt lat="45.89569130700876" lon="11.960918213078003"><ele>217.0</ele><time>2026-05-03T07:59:27.999Z</time></trkpt><trkpt lat="45.89577330341774" lon="11.960918181372923"><ele>217.5</ele><time>2026-05-03T07:59:28.999Z</time></trkpt><trkpt lat="45.895857961721944" lon="11.960920858918819"><ele>218.0</ele><time>2026-05-03T07:59:29.999Z</time></trkpt><trkpt lat="45.895937429147146" lon="11.960951156038714"><ele>218.5</ele><time>2026-05-03T07:59:30.999Z</time></trkpt><trkpt lat="45.896011075699526" lon="11.961016553739897"><ele>219.0</ele><time>2026-05-03T07:59:31.999Z</time></trkpt><trkpt lat="45.89605685464782" lon="11.961111308997127"><ele>219.0</ele><time>2026-05-03T07:59:32.999Z</time></trkpt><trkpt lat="45.89607327355754" lon="11.961241433750144"><ele>218.99999999999997</ele><time>2026-05-03T07:59:33.999Z</time></trkpt><trkpt lat="45.89604794273648" lon="11.961368512034197"><ele>218.99999999999997</ele><time>2026-05-03T07:59:34.999Z</time></trkpt><trkpt lat="45.89597086946047" lon="11.961448631991438"><ele>219.0</ele><time>2026-05-03T07:59:35.999Z</time></trkpt><trkpt lat="45.89589667792106" lon="11.961539222171222"><ele>219.0</ele><time>2026-05-03T07:59:36.999Z</time></trkpt><trkpt lat="45.89581716129524" lon="11.961627381624314"><ele>219.0</ele><time>2026-05-03T07:59:37.999Z</time></trkpt><trkpt lat="45.895749013087425" lon="11.961682281404464"><ele>218.99999999999997</ele><time>2026-05-03T07:59:38.999Z</time></trkpt><trkpt lat="45.89568527429644" lon="11.961755348652872"><ele>218.99999999999997</ele><time>2026-05-03T07:59:39.999Z</time></trkpt><trkpt lat="45.89560271124078" lon="11.96180587995917"><ele>219.0</ele><time>2026-05-03T07:59:40.999Z</time></trkpt><trkpt lat="45.8955231174845" lon="11.961875484150603"><ele>219.0</ele><time>2026-05-03T07:59:41.999Z</time></trkpt><trkpt lat="45.89544422821731" lon="11.961983040452402"><ele>220.0</ele><time>2026-05-03T07:59:42.999Z</time></trkpt><trkpt lat="45.89538239145478" lon="11.962103876774755"><ele>221.0</ele><time>2026-05-03T07:59:43.999Z</time></trkpt><trkpt lat="45.89534605850571" lon="11.96221911130623"><ele>222.0</ele><time>2026-05-03T07:59:44.999Z</time></trkpt><trkpt lat="45.89531503402282" lon="11.962323360721024"><ele>223.0</ele><time>2026-05-03T07:59:45.999Z</time></trkpt><trkpt lat="45.89528701750453" lon="11.96243708223996"><ele>224.0</ele><time>2026-05-03T07:59:46.999Z</time></trkpt><trkpt lat="45.895264574087385" lon="11.962559405512852"><ele>225.0</ele><time>2026-05-03T07:59:47.999Z</time></trkpt><trkpt lat="45.895257765665306" lon="11.962685409478627"><ele>225.0</ele><time>2026-05-03T07:59:48.999Z</time></trkpt><trkpt lat="45.89527475924895" lon="11.9628129250843"><ele>225.0</ele><time>2026-05-03T07:59:49.999Z</time></trkpt><trkpt lat="45.895320945766144" lon="11.962938440283034"><ele>225.0</ele><time>2026-05-03T07:59:50.999Z</time></trkpt><trkpt lat="45.89536760045798" lon="11.963073659838628"><ele>225.0</ele><time>2026-05-03T07:59:51.999Z</time></trkpt><trkpt lat="45.89541363796485" lon="11.963217818507273"><ele>225.0</ele><time>2026-05-03T07:59:52.999Z</time></trkpt><trkpt lat="45.89546021037103" lon="11.963374218123683"><ele>224.25</ele><time>2026-05-03T07:59:53.999Z</time></trkpt><trkpt lat="45.89550601560067" lon="11.963537550527255"><ele>223.5</ele><time>2026-05-03T07:59:54.999Z</time></trkpt><trkpt lat="45.89555463558339" lon="11.963712942482594"><ele>222.75</ele><time>2026-05-03T07:59:55.999Z</time></trkpt><trkpt lat="45.89560627204771" lon="11.963889569630068"><ele>222.0</ele><time>2026-05-03T07:59:56.999Z</time></trkpt><trkpt lat="45.89566173965582" lon="11.964077119592483"><ele>222.25</ele><time>2026-05-03T07:59:57.999Z</time></trkpt><trkpt lat="45.895713684706124" lon="11.964248787638871"><ele>222.5</ele><time>2026-05-03T07:59:58.999Z</time></trkpt><trkpt lat="45.89576330776647" lon="11.964424659677837"><ele>222.75</ele><time>2026-05-03T07:59:59.999Z</time></trkpt><trkpt lat="45.895814165516725" lon="11.964602740268973"><ele>223.0</ele><time>2026-05-03T08:00:00.999Z</time></trkpt><trkpt lat="45.895860531991985" lon="11.964779924111573"><ele>223.0</ele><time>2026-05-03T08:00:01.999Z</time></trkpt><trkpt lat="45.8959128866786" lon="11.964953477954012"><ele>223.0</ele><time>2026-05-03T08:00:02.999Z</time></trkpt><trkpt lat="45.89596639335996" lon="11.965125541554857"><ele>223.0</ele><time>2026-05-03T08:00:03.999Z</time></trkpt><trkpt lat="45.89601236372817" lon="11.965290618891103"><ele>223.0</ele><time>2026-05-03T08:00:04.999Z</time></trkpt><trkpt lat="45.89605959371246" lon="11.965438925710487"><ele>224.8</ele><time>2026-05-03T08:00:05.999Z</time></trkpt><trkpt lat="45.896129036227855" lon="11.965571001512158"><ele>226.60000000000002</ele><time>2026-05-03T08:00:06.999Z</time></trkpt><trkpt lat="45.89621229087805" lon="11.965679511729773"><ele>228.39999999999998</ele><time>2026-05-03T08:00:07.999Z</time></trkpt><trkpt lat="45.896284542019735" lon="11.965785887741466"><ele>230.2</ele><time>2026-05-03T08:00:08.999Z</time></trkpt><trkpt lat="45.896329397061635" lon="11.965896392515864"><ele>232.0</ele><time>2026-05-03T08:00:09.999Z</time></trkpt><trkpt lat="45.89634713062485" lon="11.966010617509214"><ele>232.8</ele><time>2026-05-03T08:00:10.999Z</time></trkpt><trkpt lat="45.89632915420848" lon="11.966150136242906"><ele>233.6</ele><time>2026-05-03T08:00:11.999Z</time></trkpt><trkpt lat="45.89631847511108" lon="11.966278317224091"><ele>234.40000000000003</ele><time>2026-05-03T08:00:12.999Z</time></trkpt><trkpt lat="45.8963146556935" lon="11.966411026612771"><ele>235.20000000000002</ele><time>2026-05-03T08:00:13.999Z</time></trkpt><trkpt lat="45.89631063582513" lon="11.966550700614263"><ele>236.0</ele><time>2026-05-03T08:00:14.999Z</time></trkpt><trkpt lat="45.896301762312454" lon="11.966701382532326"><ele>236.4</ele><time>2026-05-03T08:00:15.999Z</time></trkpt><trkpt lat="45.89629095000087" lon="11.966842729503504"><ele>236.8</ele><time>2026-05-03T08:00:16.999Z</time></trkpt><trkpt lat="45.896286920599145" lon="11.966989613612173"><ele>237.20000000000002</ele><time>2026-05-03T08:00:17.999Z</time></trkpt><trkpt lat="45.8962812358337" lon="11.967124658911942"><ele>237.60000000000002</ele><time>2026-05-03T08:00:18.999Z</time></trkpt><trkpt lat="45.89625806820735" lon="11.967250302531768"><ele>238.0</ele><time>2026-05-03T08:00:19.999Z</time></trkpt><trkpt lat="45.89624675444478" lon="11.967390532171068"><ele>238.4</ele><time>2026-05-03T08:00:20.999Z</time></trkpt><trkpt lat="45.89623674426985" lon="11.967535827937077"><ele>238.8</ele><time>2026-05-03T08:00:21.999Z</time></trkpt><trkpt lat="45.89622567311135" lon="11.967697389736106"><ele>239.2</ele><time>2026-05-03T08:00:22.999Z</time></trkpt><trkpt lat="45.89621487900866" lon="11.967863943888064"><ele>239.6</ele><time>2026-05-03T08:00:23.999Z</time></trkpt><trkpt lat="45.89620483450708" lon="11.968026330126213"><ele>240.0</ele><time>2026-05-03T08:00:24.999Z</time></trkpt><trkpt lat="45.89619491672792" lon="11.968194659823114"><ele>240.5</ele><time>2026-05-03T08:00:25.999Z</time></trkpt><trkpt lat="45.89620032244321" lon="11.968360850571349"><ele>241.0</ele><time>2026-05-03T08:00:26.999Z</time></trkpt><trkpt lat="45.89618352923037" lon="11.96852699571865"><ele>241.5</ele><time>2026-05-03T08:00:27.999Z</time></trkpt><trkpt lat="45.896173349755784" lon="11.968697641098657"><ele>242.0</ele><time>2026-05-03T08:00:29Z</time></trkpt><trkpt lat="45.89616574188544" lon="11.968863875938949"><ele>242.0</ele><time>2026-05-03T08:00:30Z</time></trkpt><trkpt lat="45.89615705966625" lon="11.969017530906305"><ele>242.0</ele><time>2026-05-03T08:00:31Z</time></trkpt><trkpt lat="45.896148442622845" lon="11.969165544561468"><ele>242.0</ele><time>2026-05-03T08:00:32Z</time></trkpt><trkpt lat="45.89614490961368" lon="11.9693211818095"><ele>242.0</ele><time>2026-05-03T08:00:33Z</time></trkpt><trkpt lat="45.89611355015255" lon="11.969482548643958"><ele>242.0</ele><time>2026-05-03T08:00:34Z</time></trkpt><trkpt lat="45.89609199574451" lon="11.969646572843056"><ele>242.0</ele><time>2026-05-03T08:00:35Z</time></trkpt><trkpt lat="45.89607079427179" lon="11.969816734238645"><ele>242.0</ele><time>2026-05-03T08:00:36Z</time></trkpt><trkpt lat="45.89605732772581" lon="11.969985499435023"><ele>242.0</ele><time>2026-05-03T08:00:37Z</time></trkpt><trkpt lat="45.89606336229082" lon="11.970150710031954"><ele>242.0</ele><time>2026-05-03T08:00:38Z</time></trkpt><trkpt lat="45.89606518694015" lon="11.970319225010174"><ele>242.0</ele><time>2026-05-03T08:00:39Z</time></trkpt><trkpt lat="45.89606331495639" lon="11.970472297250918"><ele>242.0</ele><time>2026-05-03T08:00:40Z</time></trkpt><trkpt lat="45.896058624149546" lon="11.970620032192764"><ele>242.0</ele><time>2026-05-03T08:00:41Z</time></trkpt><trkpt lat="45.896051219645464" lon="11.97079128381433"><ele>242.0</ele><time>2026-05-03T08:00:42Z</time></trkpt><trkpt lat="45.896008489026656" lon="11.970958439961157"><ele>242.5</ele><time>2026-05-03T08:00:43Z</time></trkpt><trkpt lat="45.89597586302159" lon="11.971134873005301"><ele>243.0</ele><time>2026-05-03T08:00:44Z</time></trkpt><trkpt lat="45.895950614806125" lon="11.971328116106058"><ele>243.5</ele><time>2026-05-03T08:00:45Z</time></trkpt><trkpt lat="45.89591248016573" lon="11.97153081568153"><ele>244.0</ele><time>2026-05-03T08:00:46Z</time></trkpt><trkpt lat="45.89587387577602" lon="11.971740494550664"><ele>240.75</ele><time>2026-05-03T08:00:47Z</time></trkpt><trkpt lat="45.89583700375906" lon="11.971948579323405"><ele>237.5</ele><time>2026-05-03T08:00:48Z</time></trkpt><trkpt lat="45.89579733087149" lon="11.972148881233244"><ele>234.25</ele><time>2026-05-03T08:00:49Z</time></trkpt><trkpt lat="45.895759310452895" lon="11.972347392705469"><ele>231.0</ele><time>2026-05-03T08:00:50Z</time></trkpt><trkpt lat="45.89572279838834" lon="11.972554757016615"><ele>231.0</ele><time>2026-05-03T08:00:51Z</time></trkpt><trkpt lat="45.89568607167645" lon="11.972767124793409"><ele>231.0</ele><time>2026-05-03T08:00:52Z</time></trkpt><trkpt lat="45.895648621157136" lon="11.972975451777247"><ele>231.0</ele><time>2026-05-03T08:00:53Z</time></trkpt><trkpt lat="45.89561486617369" lon="11.97318582819097"><ele>232.66666666666669</ele><time>2026-05-03T08:00:54Z</time></trkpt><trkpt lat="45.89557827919712" lon="11.973390659717555"><ele>234.33333333333334</ele><time>2026-05-03T08:00:55Z</time></trkpt><trkpt lat="45.895539993477534" lon="11.973605489097942"><ele>236.0</ele><time>2026-05-03T08:00:56Z</time></trkpt><trkpt lat="45.895501319313645" lon="11.973818890979931"><ele>236.0</ele><time>2026-05-03T08:00:57Z</time></trkpt><trkpt lat="45.89546449326684" lon="11.974031034475429"><ele>236.0</ele><time>2026-05-03T08:00:58Z</time></trkpt><trkpt lat="45.895437219819534" lon="11.974247422689121"><ele>236.0</ele><time>2026-05-03T08:00:59Z</time></trkpt><trkpt lat="45.89542702913625" lon="11.974469059021558"><ele>234.66666666666669</ele><time>2026-05-03T08:01:00Z</time></trkpt><trkpt lat="45.89543841587335" lon="11.974707429313726"><ele>233.33333333333331</ele><time>2026-05-03T08:01:01Z</time></trkpt><trkpt lat="45.89546632668405" lon="11.974950865504795"><ele>232.0</ele><time>2026-05-03T08:01:02Z</time></trkpt><trkpt lat="45.89551043066071" lon="11.975187117744568"><ele>230.66666666666666</ele><time>2026-05-03T08:01:03Z</time></trkpt><trkpt lat="45.89556797378902" lon="11.975413628573778"><ele>229.33333333333331</ele><time>2026-05-03T08:01:04Z</time></trkpt><trkpt lat="45.895633980560355" lon="11.975626845492025"><ele>228.0</ele><time>2026-05-03T08:01:05Z</time></trkpt><trkpt lat="45.89569642264852" lon="11.975821130520945"><ele>228.0</ele><time>2026-05-03T08:01:06Z</time></trkpt><trkpt lat="45.89574885250241" lon="11.976002501930513"><ele>228.0</ele><time>2026-05-03T08:01:07Z</time></trkpt><trkpt lat="45.89579769021568" lon="11.976191003799512"><ele>228.0</ele><time>2026-05-03T08:01:08Z</time></trkpt><trkpt lat="45.8958515473384" lon="11.976374467598488"><ele>228.0</ele><time>2026-05-03T08:01:09Z</time></trkpt><trkpt lat="45.895904785272855" lon="11.976563306103866"><ele>227.0</ele><time>2026-05-03T08:01:10Z</time></trkpt><trkpt lat="45.89596193980936" lon="11.97675553830451"><ele>226.0</ele><time>2026-05-03T08:01:11Z</time></trkpt><trkpt lat="45.89602585218825" lon="11.976954448540456"><ele>225.0</ele><time>2026-05-03T08:01:12Z</time></trkpt><trkpt lat="45.896092542765636" lon="11.97716670165279"><ele>225.0</ele><time>2026-05-03T08:01:13Z</time></trkpt><trkpt lat="45.89615677466271" lon="11.977382215300226"><ele>225.0</ele><time>2026-05-03T08:01:14Z</time></trkpt><trkpt lat="45.89622335410008" lon="11.977604816921977"><ele>225.0</ele><time>2026-05-03T08:01:15Z</time></trkpt><trkpt lat="45.89628759312608" lon="11.977831548003268"><ele>225.0</ele><time>2026-05-03T08:01:16Z</time></trkpt><trkpt lat="45.896353737524294" lon="11.978059304729792"><ele>225.0</ele><time>2026-05-03T08:01:17Z</time></trkpt><trkpt lat="45.89642004454904" lon="11.978291853125434"><ele>225.0</ele><time>2026-05-03T08:01:18Z</time></trkpt><trkpt lat="45.896480192930944" lon="11.97852347085598"><ele>225.0</ele><time>2026-05-03T08:01:19Z</time></trkpt><trkpt lat="45.89653535352912" lon="11.978744232909142"><ele>225.0</ele><time>2026-05-03T08:01:20Z</time></trkpt><trkpt lat="45.8966007731359" lon="11.978960446425287"><ele>225.0</ele><time>2026-05-03T08:01:21Z</time></trkpt><trkpt lat="45.89666315092796" lon="11.979176671174711"><ele>225.33333333333331</ele><time>2026-05-03T08:01:22Z</time></trkpt><trkpt lat="45.89672606672447" lon="11.97939995639099"><ele>225.66666666666666</ele><time>2026-05-03T08:01:23Z</time></trkpt><trkpt lat="45.896790557931915" lon="11.97961415495297"><ele>226.0</ele><time>2026-05-03T08:01:24Z</time></trkpt><trkpt lat="45.89685548893038" lon="11.979838400844258"><ele>228.0</ele><time>2026-05-03T08:01:25Z</time></trkpt><trkpt lat="45.896918967750835" lon="11.980058312783457"><ele>230.0</ele><time>2026-05-03T08:01:26Z</time></trkpt><trkpt lat="45.89698202606651" lon="11.980277696048491"><ele>232.0</ele><time>2026-05-03T08:01:27Z</time></trkpt><trkpt lat="45.897047273707436" lon="11.980500902032313"><ele>232.0</ele><time>2026-05-03T08:01:28Z</time></trkpt><trkpt lat="45.8971114784621" lon="11.980722975870705"><ele>232.0</ele><time>2026-05-03T08:01:29Z</time></trkpt><trkpt lat="45.89717096059441" lon="11.980938127349443"><ele>232.0</ele><time>2026-05-03T08:01:30Z</time></trkpt><trkpt lat="45.89729537033163" lon="11.981377968628026"><ele>231.66666666666666</ele><time>2026-05-03T08:01:32Z</time></trkpt><trkpt lat="45.897362790307284" lon="11.981604290374513"><ele>231.33333333333331</ele><time>2026-05-03T08:01:33Z</time></trkpt><trkpt lat="45.89742929782838" lon="11.981829285870313"><ele>231.0</ele><time>2026-05-03T08:01:34Z</time></trkpt><trkpt lat="45.89749497352054" lon="11.982054367387974"><ele>231.0</ele><time>2026-05-03T08:01:35Z</time></trkpt><trkpt lat="45.89756491962611" lon="11.982281415358615"><ele>231.0</ele><time>2026-05-03T08:01:36Z</time></trkpt><trkpt lat="45.89763093369479" lon="11.982509687094478"><ele>231.0</ele><time>2026-05-03T08:01:37Z</time></trkpt><trkpt lat="45.897691582990646" lon="11.982708740465982"><ele>233.0</ele><time>2026-05-03T08:01:38Z</time></trkpt><trkpt lat="45.897745112334505" lon="11.982897490775116"><ele>235.0</ele><time>2026-05-03T08:01:39Z</time></trkpt><trkpt lat="45.89779867961762" lon="11.98306251954434"><ele>237.0</ele><time>2026-05-03T08:01:40Z</time></trkpt><trkpt lat="45.89783683720671" lon="11.983194292171401"><ele>239.0</ele><time>2026-05-03T08:01:41Z</time></trkpt><trkpt lat="45.89786769430349" lon="11.983308018414228"><ele>238.79999999999998</ele><time>2026-05-03T08:01:42Z</time></trkpt><trkpt lat="45.89787101961751" lon="11.983428053767259"><ele>238.59999999999997</ele><time>2026-05-03T08:01:43Z</time></trkpt><trkpt lat="45.89787382083" lon="11.983540303269647"><ele>238.4</ele><time>2026-05-03T08:01:44Z</time></trkpt><trkpt lat="45.89787410555923" lon="11.983683548694051"><ele>238.2</ele><time>2026-05-03T08:01:45Z</time></trkpt><trkpt lat="45.897833056607105" lon="11.983825041864703"><ele>238.0</ele><time>2026-05-03T08:01:46Z</time></trkpt><trkpt lat="45.89777497811644" lon="11.983942222098966"><ele>238.0</ele><time>2026-05-03T08:01:47Z</time></trkpt><trkpt lat="45.89772462215608" lon="11.98404560907626"><ele>238.0</ele><time>2026-05-03T08:01:48Z</time></trkpt><trkpt lat="45.89767938032601" lon="11.984151312141377"><ele>238.0</ele><time>2026-05-03T08:01:49Z</time></trkpt><trkpt lat="45.89763557326144" lon="11.984273050964324"><ele>238.0</ele><time>2026-05-03T08:01:50Z</time></trkpt><trkpt lat="45.89759396610144" lon="11.98440595955751"><ele>238.0</ele><time>2026-05-03T08:01:51Z</time></trkpt><trkpt lat="45.89755741906523" lon="11.984527098866732"><ele>237.99999999999997</ele><time>2026-05-03T08:01:52Z</time></trkpt><trkpt lat="45.897523276283856" lon="11.98464201844851"><ele>238.0</ele><time>2026-05-03T08:01:53Z</time></trkpt><trkpt lat="45.897490803083265" lon="11.984754898053014"><ele>238.0</ele><time>2026-05-03T08:01:54Z</time></trkpt><trkpt lat="45.89746036640366" lon="11.984871347609197"><ele>238.0</ele><time>2026-05-03T08:01:55Z</time></trkpt><trkpt lat="45.897431053051" lon="11.984988397457784"><ele>237.99999999999997</ele><time>2026-05-03T08:01:56Z</time></trkpt><trkpt lat="45.89739933359124" lon="11.985103542235157"><ele>238.0</ele><time>2026-05-03T08:01:57Z</time></trkpt><trkpt lat="45.89735982019977" lon="11.985211554272368"><ele>239.2</ele><time>2026-05-03T08:01:58Z</time></trkpt><trkpt lat="45.89731132479697" lon="11.98533043981314"><ele>240.4</ele><time>2026-05-03T08:01:59Z</time></trkpt><trkpt lat="45.897249376677806" lon="11.98544131139423"><ele>241.59999999999997</ele><time>2026-05-03T08:02:00Z</time></trkpt><trkpt lat="45.897188688046995" lon="11.98557339359481"><ele>242.79999999999998</ele><time>2026-05-03T08:02:01Z</time></trkpt><trkpt lat="45.89712060524792" lon="11.985708697441769"><ele>244.0</ele><time>2026-05-03T08:02:02Z</time></trkpt><trkpt lat="45.89706334252738" lon="11.985858101122446"><ele>244.2</ele><time>2026-05-03T08:02:03Z</time></trkpt><trkpt lat="45.89703892016561" lon="11.986014816764703"><ele>244.39999999999998</ele><time>2026-05-03T08:02:04Z</time></trkpt><trkpt lat="45.897041746974566" lon="11.986167672487227"><ele>244.6</ele><time>2026-05-03T08:02:05Z</time></trkpt><trkpt lat="45.89705802155774" lon="11.986318885768931"><ele>244.8</ele><time>2026-05-03T08:02:06Z</time></trkpt><trkpt lat="45.897067547415766" lon="11.986456613916962"><ele>245.0</ele><time>2026-05-03T08:02:07Z</time></trkpt><trkpt lat="45.89707784298798" lon="11.986577476889362"><ele>243.2</ele><time>2026-05-03T08:02:08Z</time></trkpt><trkpt lat="45.89710192393491" lon="11.986697965245687"><ele>241.4</ele><time>2026-05-03T08:02:09Z</time></trkpt><trkpt lat="45.89713650641948" lon="11.986817047377208"><ele>239.60000000000002</ele><time>2026-05-03T08:02:10Z</time></trkpt><trkpt lat="45.89718793317318" lon="11.986947512015577"><ele>237.8</ele><time>2026-05-03T08:02:11Z</time></trkpt><trkpt lat="45.89725449049544" lon="11.987084892025134"><ele>236.0</ele><time>2026-05-03T08:02:12Z</time></trkpt><trkpt lat="45.89732938506148" lon="11.987213774186925"><ele>236.0</ele><time>2026-05-03T08:02:13Z</time></trkpt><trkpt lat="45.897411255276964" lon="11.987358423591383"><ele>236.0</ele><time>2026-05-03T08:02:14Z</time></trkpt><trkpt lat="45.897493612188086" lon="11.98750929547394"><ele>236.0</ele><time>2026-05-03T08:02:15Z</time></trkpt><trkpt lat="45.897575136075375" lon="11.987650563060097"><ele>236.0</ele><time>2026-05-03T08:02:16Z</time></trkpt><trkpt lat="45.89765130022515" lon="11.987787249989399"><ele>236.66666666666669</ele><time>2026-05-03T08:02:17Z</time></trkpt><trkpt lat="45.897712072022976" lon="11.987910566101585"><ele>237.33333333333334</ele><time>2026-05-03T08:02:18Z</time></trkpt><trkpt lat="45.89775947933361" lon="11.988024390525885"><ele>238.0</ele><time>2026-05-03T08:02:19Z</time></trkpt><trkpt lat="45.897807921415016" lon="11.988120760342355"><ele>238.66666666666669</ele><time>2026-05-03T08:02:20Z</time></trkpt><trkpt lat="45.89784189306686" lon="11.988226962167875"><ele>239.33333333333334</ele><time>2026-05-03T08:02:20.999Z</time></trkpt><trkpt lat="45.89786374131049" lon="11.988347327965705"><ele>240.0</ele><time>2026-05-03T08:02:21.999Z</time></trkpt><trkpt lat="45.89784606020956" lon="11.988484383246007"><ele>240.0</ele><time>2026-05-03T08:02:22.999Z</time></trkpt><trkpt lat="45.89783193015872" lon="11.988625104481336"><ele>240.0</ele><time>2026-05-03T08:02:23.999Z</time></trkpt><trkpt lat="45.89779606699003" lon="11.988753277329813"><ele>240.0</ele><time>2026-05-03T08:02:24.999Z</time></trkpt><trkpt lat="45.8977469288596" lon="11.988874378140345"><ele>240.0</ele><time>2026-05-03T08:02:25.999Z</time></trkpt><trkpt lat="45.89768233507211" lon="11.988977491536627"><ele>240.0</ele><time>2026-05-03T08:02:26.999Z</time></trkpt><trkpt lat="45.897613191192114" lon="11.989081063342333"><ele>240.0</ele><time>2026-05-03T08:02:27.999Z</time></trkpt><trkpt lat="45.89755683819843" lon="11.989186027815212"><ele>240.0</ele><time>2026-05-03T08:02:28.999Z</time></trkpt><trkpt lat="45.8974955873504" lon="11.989268865631866"><ele>240.0</ele><time>2026-05-03T08:02:29.999Z</time></trkpt><trkpt lat="45.897438372921435" lon="11.989359140060268"><ele>240.0</ele><time>2026-05-03T08:02:30.999Z</time></trkpt><trkpt lat="45.89738813315961" lon="11.989453051780295"><ele>240.0</ele><time>2026-05-03T08:02:31.999Z</time></trkpt><trkpt lat="45.89734981772329" lon="11.989563374216276"><ele>240.0</ele><time>2026-05-03T08:02:32.999Z</time></trkpt><trkpt lat="45.89734659606481" lon="11.989685728820426"><ele>240.0</ele><time>2026-05-03T08:02:34Z</time></trkpt><trkpt lat="45.89735605498736" lon="11.989800223668562"><ele>240.0</ele><time>2026-05-03T08:02:35Z</time></trkpt><trkpt lat="45.89737358381747" lon="11.989903604602045"><ele>240.0</ele><time>2026-05-03T08:02:36Z</time></trkpt><trkpt lat="45.89738723667902" lon="11.989997514297665"><ele>240.0</ele><time>2026-05-03T08:02:37Z</time></trkpt><trkpt lat="45.89741497763046" lon="11.990185688080825"><ele>240.0</ele><time>2026-05-03T08:02:39Z</time></trkpt><trkpt lat="45.89741042196716" lon="11.990304046708983"><ele>240.0</ele><time>2026-05-03T08:02:40Z</time></trkpt><trkpt lat="45.89741655723819" lon="11.990418074865692"><ele>240.2</ele><time>2026-05-03T08:02:41Z</time></trkpt><trkpt lat="45.89742116629514" lon="11.990532942513008"><ele>240.4</ele><time>2026-05-03T08:02:42Z</time></trkpt><trkpt lat="45.89743949283048" lon="11.990620594854914"><ele>240.60000000000002</ele><time>2026-05-03T08:02:43Z</time></trkpt><trkpt lat="45.897444736090065" lon="11.99080885796348"><ele>240.8</ele><time>2026-05-03T08:02:45Z</time></trkpt><trkpt lat="45.89745360593993" lon="11.990942609187709"><ele>241.0</ele><time>2026-05-03T08:02:46Z</time></trkpt><trkpt lat="45.897453404270934" lon="11.991074643263955"><ele>241.0</ele><time>2026-05-03T08:02:47Z</time></trkpt><trkpt lat="45.89745882611597" lon="11.99122063462195"><ele>241.00000000000003</ele><time>2026-05-03T08:02:48Z</time></trkpt><trkpt lat="45.89746157577813" lon="11.99137161887781"><ele>241.00000000000003</ele><time>2026-05-03T08:02:49Z</time></trkpt><trkpt lat="45.89746724225469" lon="11.991516678033868"><ele>241.0</ele><time>2026-05-03T08:02:50Z</time></trkpt><trkpt lat="45.89747714468556" lon="11.991658869607683"><ele>241.0</ele><time>2026-05-03T08:02:51Z</time></trkpt><trkpt lat="45.89748710942926" lon="11.991805094878897"><ele>241.0</ele><time>2026-05-03T08:02:52Z</time></trkpt><trkpt lat="45.89749316131154" lon="11.991943459061744"><ele>241.00000000000003</ele><time>2026-05-03T08:02:53Z</time></trkpt><trkpt lat="45.89749540533045" lon="11.992086753575991"><ele>241.00000000000003</ele><time>2026-05-03T08:02:54Z</time></trkpt><trkpt lat="45.897504173380604" lon="11.992231644767095"><ele>241.0</ele><time>2026-05-03T08:02:55Z</time></trkpt><trkpt lat="45.89752360975204" lon="11.992378957768626"><ele>241.0</ele><time>2026-05-03T08:02:56Z</time></trkpt><trkpt lat="45.897560638909205" lon="11.992522055013582"><ele>241.60000000000002</ele><time>2026-05-03T08:02:57Z</time></trkpt><trkpt lat="45.89762031231452" lon="11.99263993167205"><ele>242.20000000000002</ele><time>2026-05-03T08:02:58Z</time></trkpt><trkpt lat="45.897696113652245" lon="11.99273874549107"><ele>242.79999999999998</ele><time>2026-05-03T08:02:59Z</time></trkpt><trkpt lat="45.89777334276772" lon="11.992834720140445"><ele>243.39999999999998</ele><time>2026-05-03T08:03:00Z</time></trkpt><trkpt lat="45.89784589451786" lon="11.992932935376352"><ele>244.0</ele><time>2026-05-03T08:03:01Z</time></trkpt><trkpt lat="45.89790533603115" lon="11.993013285172072"><ele>243.99999999999997</ele><time>2026-05-03T08:03:02Z</time></trkpt><trkpt lat="45.89796709911116" lon="11.993078631541142"><ele>244.0</ele><time>2026-05-03T08:03:03Z</time></trkpt><trkpt lat="45.89802144257924" lon="11.993139849011222"><ele>243.99999999999997</ele><time>2026-05-03T08:03:04Z</time></trkpt><trkpt lat="45.89808419035606" lon="11.993199770407434"><ele>243.99999999999997</ele><time>2026-05-03T08:03:05Z</time></trkpt><trkpt lat="45.89814714165623" lon="11.993262090287745"><ele>244.0</ele><time>2026-05-03T08:03:06Z</time></trkpt><trkpt lat="45.898209313521356" lon="11.99332046217492"><ele>243.99999999999997</ele><time>2026-05-03T08:03:07Z</time></trkpt><trkpt lat="45.89826529347351" lon="11.993373118195425"><ele>243.99999999999997</ele><time>2026-05-03T08:03:08Z</time></trkpt><trkpt lat="45.898311648135696" lon="11.993434427523127"><ele>243.57142857142856</ele><time>2026-05-03T08:03:09Z</time></trkpt><trkpt lat="45.89836466802125" lon="11.99350364916515"><ele>243.14285714285714</ele><time>2026-05-03T08:03:10Z</time></trkpt><trkpt lat="45.89842652760129" lon="11.993575596248277"><ele>242.71428571428572</ele><time>2026-05-03T08:03:11Z</time></trkpt><trkpt lat="45.89848743234557" lon="11.993646427695321"><ele>242.28571428571428</ele><time>2026-05-03T08:03:12Z</time></trkpt><trkpt lat="45.89854773084597" lon="11.993708759835357"><ele>241.8571428571429</ele><time>2026-05-03T08:03:13Z</time></trkpt><trkpt lat="45.898607088944516" lon="11.993762293200353"><ele>241.42857142857144</ele><time>2026-05-03T08:03:14Z</time></trkpt><trkpt lat="45.89866723890374" lon="11.99382283199117"><ele>241.0</ele><time>2026-05-03T08:03:15Z</time></trkpt><trkpt lat="45.89873160866837" lon="11.993889635921429"><ele>241.99999999999997</ele><time>2026-05-03T08:03:16Z</time></trkpt><trkpt lat="45.898799952443404" lon="11.993967451945162"><ele>243.0</ele><time>2026-05-03T08:03:17Z</time></trkpt><trkpt lat="45.898866367699014" lon="11.994033433505987"><ele>244.0</ele><time>2026-05-03T08:03:18Z</time></trkpt><trkpt lat="45.898926988951274" lon="11.99409219584363"><ele>245.0</ele><time>2026-05-03T08:03:19Z</time></trkpt><trkpt lat="45.89898982316526" lon="11.994151005689254"><ele>245.99999999999997</ele><time>2026-05-03T08:03:20Z</time></trkpt><trkpt lat="45.89907490757953" lon="11.994249693032302"><ele>247.0</ele><time>2026-05-03T08:03:22Z</time></trkpt><trkpt lat="45.89915686160367" lon="11.994347623995415"><ele>247.0</ele><time>2026-05-03T08:03:24Z</time></trkpt><trkpt lat="45.899216788257554" lon="11.994401823684973"><ele>247.0</ele><time>2026-05-03T08:03:25Z</time></trkpt><trkpt lat="45.89928192853034" lon="11.994477702333205"><ele>247.0</ele><time>2026-05-03T08:03:26Z</time></trkpt><trkpt lat="45.89936571884099" lon="11.994561778867391"><ele>247.0</ele><time>2026-05-03T08:03:27Z</time></trkpt><trkpt lat="45.89946534525899" lon="11.994659354770826"><ele>247.0</ele><time>2026-05-03T08:03:28Z</time></trkpt><trkpt lat="45.8995652862178" lon="11.99474702788883"><ele>247.6</ele><time>2026-05-03T08:03:29Z</time></trkpt><trkpt lat="45.899676990161" lon="11.994790527001376"><ele>248.2</ele><time>2026-05-03T08:03:30Z</time></trkpt><trkpt lat="45.899773608488395" lon="11.994851299409703"><ele>248.8</ele><time>2026-05-03T08:03:31Z</time></trkpt><trkpt lat="45.8998743703356" lon="11.994905650271768"><ele>249.4</ele><time>2026-05-03T08:03:32Z</time></trkpt><trkpt lat="45.89997817408254" lon="11.994948437486608"><ele>250.0</ele><time>2026-05-03T08:03:33Z</time></trkpt><trkpt lat="45.900078774441724" lon="11.995006066296783"><ele>250.83333333333331</ele><time>2026-05-03T08:03:34Z</time></trkpt><trkpt lat="45.900177264636376" lon="11.995039110290717"><ele>251.66666666666666</ele><time>2026-05-03T08:03:35Z</time></trkpt><trkpt lat="45.90025836417379" lon="11.995056796628605"><ele>252.5</ele><time>2026-05-03T08:03:36Z</time></trkpt><trkpt lat="45.90033540670807" lon="11.9950608691929"><ele>253.33333333333331</ele><time>2026-05-03T08:03:40Z</time></trkpt><trkpt lat="45.900441487446905" lon="11.995106340999426"><ele>254.16666666666666</ele><time>2026-05-03T08:03:42Z</time></trkpt><trkpt lat="45.90051506895637" lon="11.995118604645121"><ele>255.0</ele><time>2026-05-03T08:03:43Z</time></trkpt><trkpt lat="45.900588294360176" lon="11.995142067944313"><ele>255.0</ele><time>2026-05-03T08:03:44Z</time></trkpt><trkpt lat="45.900677686784185" lon="11.995182598701346"><ele>255.0</ele><time>2026-05-03T08:03:45Z</time></trkpt><trkpt lat="45.900760724840985" lon="11.995231603835173"><ele>255.0</ele><time>2026-05-03T08:03:46Z</time></trkpt><trkpt lat="45.90084885576689" lon="11.995286533564126"><ele>255.0</ele><time>2026-05-03T08:03:47Z</time></trkpt><trkpt lat="45.90091510480203" lon="11.995327819383522"><ele>255.0</ele><time>2026-05-03T08:03:48Z</time></trkpt><trkpt lat="45.900971762865986" lon="11.995367730646946"><ele>255.0</ele><time>2026-05-03T08:03:49Z</time></trkpt><trkpt lat="45.90103106900538" lon="11.995399931461344"><ele>255.6</ele><time>2026-05-03T08:03:50Z</time></trkpt><trkpt lat="45.90113633129982" lon="11.995452904634075"><ele>256.2</ele><time>2026-05-03T08:03:52Z</time></trkpt><trkpt lat="45.90121793994493" lon="11.995472837537863"><ele>256.8</ele><time>2026-05-03T08:03:54Z</time></trkpt><trkpt lat="45.9012706401758" lon="11.995357453120652"><ele>257.4</ele><time>2026-05-03T08:04:03Z</time></trkpt><trkpt lat="45.90130722498907" lon="11.9952599174176"><ele>258.0</ele><time>2026-05-03T08:04:04Z</time></trkpt><trkpt lat="45.901273697718864" lon="11.995076635418027"><ele>258.3333333333333</ele><time>2026-05-03T08:04:06Z</time></trkpt><trkpt lat="45.90125382110872" lon="11.99496198872275"><ele>258.6666666666667</ele><time>2026-05-03T08:04:07Z</time></trkpt><trkpt lat="45.90123740711153" lon="11.994833119801925"><ele>259.0</ele><time>2026-05-03T08:04:08Z</time></trkpt><trkpt lat="45.901210640713195" lon="11.99471618750769"><ele>259.33333333333337</ele><time>2026-05-03T08:04:09Z</time></trkpt><trkpt lat="45.901186284002264" lon="11.99462110811815"><ele>259.6666666666667</ele><time>2026-05-03T08:04:10Z</time></trkpt><trkpt lat="45.90115642976967" lon="11.994497593811806"><ele>260.0</ele><time>2026-05-03T08:04:12Z</time></trkpt><trkpt lat="45.901157372213" lon="11.994366454123547"><ele>260.0</ele><time>2026-05-03T08:04:13Z</time></trkpt><trkpt lat="45.90129746412249" lon="11.994496123905334"><ele>260.0</ele><time>2026-05-03T08:04:14Z</time></trkpt><trkpt lat="45.901369817236855" lon="11.99449398644341"><ele>260.0</ele><time>2026-05-03T08:04:15Z</time></trkpt><trkpt lat="45.901448968765024" lon="11.994490074254939"><ele>260.0</ele><time>2026-05-03T08:04:16Z</time></trkpt><trkpt lat="45.90154525333148" lon="11.994484715614282"><ele>260.0</ele><time>2026-05-03T08:04:17Z</time></trkpt><trkpt lat="45.90165724592343" lon="11.99447324439134"><ele>260.4</ele><time>2026-05-03T08:04:18Z</time></trkpt><trkpt lat="45.901761681817" lon="11.994449640444499"><ele>260.8</ele><time>2026-05-03T08:04:19Z</time></trkpt><trkpt lat="45.90187343859088" lon="11.994415279912237"><ele>261.2</ele><time>2026-05-03T08:04:20Z</time></trkpt><trkpt lat="45.90198226665943" lon="11.994381318643853"><ele>261.6</ele><time>2026-05-03T08:04:21Z</time></trkpt><trkpt lat="45.90207484203979" lon="11.994354296997075"><ele>262.0</ele><time>2026-05-03T08:04:22Z</time></trkpt><trkpt lat="45.902162985947825" lon="11.99432600508988"><ele>262.0</ele><time>2026-05-03T08:04:23Z</time></trkpt><trkpt lat="45.902246609160876" lon="11.994306081043359"><ele>262.0</ele><time>2026-05-03T08:04:24Z</time></trkpt><trkpt lat="45.90231965572691" lon="11.994327878300885"><ele>262.0</ele><time>2026-05-03T08:04:25Z</time></trkpt><trkpt lat="45.90236271857062" lon="11.994401212219417"><ele>262.0</ele><time>2026-05-03T08:04:26Z</time></trkpt><trkpt lat="45.902413439625114" lon="11.994517449598236"><ele>262.0</ele><time>2026-05-03T08:04:28Z</time></trkpt><trkpt lat="45.902444050389946" lon="11.99462120677711"><ele>262.0</ele><time>2026-05-03T08:04:31Z</time></trkpt><trkpt lat="45.90254274333443" lon="11.994647553991006"><ele>263.3333333333333</ele><time>2026-05-03T08:04:33Z</time></trkpt><trkpt lat="45.90260540944725" lon="11.994688808314185"><ele>264.66666666666663</ele><time>2026-05-03T08:04:34Z</time></trkpt><trkpt lat="45.90267445755675" lon="11.9947562212769"><ele>266.0</ele><time>2026-05-03T08:04:35Z</time></trkpt><trkpt lat="45.902700536366126" lon="11.994869770909533"><ele>267.3333333333333</ele><time>2026-05-03T08:04:36Z</time></trkpt><trkpt lat="45.90270141656535" lon="11.995006103620572"><ele>268.6666666666667</ele><time>2026-05-03T08:04:37Z</time></trkpt><trkpt lat="45.902704025793284" lon="11.995151745575548"><ele>270.0</ele><time>2026-05-03T08:04:38Z</time></trkpt><trkpt lat="45.90269043493342" lon="11.995305899570035"><ele>270.0</ele><time>2026-05-03T08:04:39Z</time></trkpt><trkpt lat="45.902693616004534" lon="11.995456282430647"><ele>270.0</ele><time>2026-05-03T08:04:40Z</time></trkpt><trkpt lat="45.902696416930056" lon="11.995596211603225"><ele>270.0</ele><time>2026-05-03T08:04:41Z</time></trkpt><trkpt lat="45.90269809159346" lon="11.995738013109204"><ele>270.0</ele><time>2026-05-03T08:04:42Z</time></trkpt><trkpt lat="45.902716216071404" lon="11.995880308840135"><ele>270.0</ele><time>2026-05-03T08:04:43Z</time></trkpt><trkpt lat="45.902719936451675" lon="11.996000412056144"><ele>270.6666666666667</ele><time>2026-05-03T08:04:44Z</time></trkpt><trkpt lat="45.9027089730136" lon="11.996133306730252"><ele>271.3333333333333</ele><time>2026-05-03T08:04:45Z</time></trkpt><trkpt lat="45.9027127253862" lon="11.99626962053033"><ele>272.0</ele><time>2026-05-03T08:04:46Z</time></trkpt><trkpt lat="45.90273147481554" lon="11.996399828090283"><ele>272.66666666666663</ele><time>2026-05-03T08:04:47Z</time></trkpt><trkpt lat="45.90272627003462" lon="11.996511406288136"><ele>273.3333333333333</ele><time>2026-05-03T08:04:48Z</time></trkpt><trkpt lat="45.9027258422985" lon="11.996609326991539"><ele>274.0</ele><time>2026-05-03T08:04:49Z</time></trkpt><trkpt lat="45.90271852307969" lon="11.996774123746134"><ele>274.59999999999997</ele><time>2026-05-03T08:04:51Z</time></trkpt><trkpt lat="45.90271515338166" lon="11.996878145212213"><ele>275.2</ele><time>2026-05-03T08:04:52Z</time></trkpt><trkpt lat="45.90271571041953" lon="11.996993381501708"><ele>275.79999999999995</ele><time>2026-05-03T08:04:53Z</time></trkpt><trkpt lat="45.90271499598035" lon="11.997129762679414"><ele>276.4</ele><time>2026-05-03T08:04:54Z</time></trkpt><trkpt lat="45.90270994869671" lon="11.997284422682368"><ele>277.0</ele><time>2026-05-03T08:04:55Z</time></trkpt><trkpt lat="45.902706745805524" lon="11.997449412566382"><ele>277.25</ele><time>2026-05-03T08:04:56Z</time></trkpt><trkpt lat="45.902703201258234" lon="11.997622831617026"><ele>277.5</ele><time>2026-05-03T08:04:57Z</time></trkpt><trkpt lat="45.902693048455404" lon="11.99779296173314"><ele>277.75</ele><time>2026-05-03T08:04:58Z</time></trkpt><trkpt lat="45.90268872707393" lon="11.997970347685685"><ele>278.0</ele><time>2026-05-03T08:04:59Z</time></trkpt><trkpt lat="45.902686186096865" lon="11.998146768201625"><ele>278.0</ele><time>2026-05-03T08:05:00Z</time></trkpt><trkpt lat="45.90268330480901" lon="11.998306818133852"><ele>278.0</ele><time>2026-05-03T08:05:01Z</time></trkpt><trkpt lat="45.90268274325486" lon="11.998467912880793"><ele>278.0</ele><time>2026-05-03T08:05:02Z</time></trkpt><trkpt lat="45.90267534713165" lon="11.998635902858705"><ele>278.0</ele><time>2026-05-03T08:05:03Z</time></trkpt><trkpt lat="45.902663441338355" lon="11.998807268867347"><ele>278.25</ele><time>2026-05-03T08:05:04Z</time></trkpt><trkpt lat="45.90265732495964" lon="11.998982770954088"><ele>278.5</ele><time>2026-05-03T08:05:05Z</time></trkpt><trkpt lat="45.902656218320054" lon="11.999164020054668"><ele>278.75</ele><time>2026-05-03T08:05:06Z</time></trkpt><trkpt lat="45.902657486039196" lon="11.999344296153216"><ele>279.0</ele><time>2026-05-03T08:05:07Z</time></trkpt><trkpt lat="45.90265936440504" lon="11.99952560358271"><ele>280.0</ele><time>2026-05-03T08:05:08Z</time></trkpt><trkpt lat="45.90266241688798" lon="11.999694697464344"><ele>281.0</ele><time>2026-05-03T08:05:09Z</time></trkpt><trkpt lat="45.90266546664064" lon="11.999846863564251"><ele>282.0</ele><time>2026-05-03T08:05:10Z</time></trkpt><trkpt lat="45.902658175794116" lon="11.999981436458311"><ele>283.0</ele><time>2026-05-03T08:05:11Z</time></trkpt><trkpt lat="45.90264862852243" lon="12.000092201842968"><ele>284.0</ele><time>2026-05-03T08:05:12Z</time></trkpt><trkpt lat="45.90262378493469" lon="12.000229288487642"><ele>284.0</ele><time>2026-05-03T08:05:14Z</time></trkpt><trkpt lat="45.90257008363898" lon="12.000296366126651"><ele>284.0</ele><time>2026-05-03T08:05:21Z</time></trkpt><trkpt lat="45.9025984790449" lon="12.00043818278856"><ele>284.0</ele><time>2026-05-03T08:09:08Z</time></trkpt><trkpt lat="45.902639543187924" lon="12.000602968582758"><ele>284.0</ele><time>2026-05-03T08:09:10Z</time></trkpt><trkpt lat="45.902673535955614" lon="12.000683545595512"><ele>284.0</ele><time>2026-05-03T08:09:11Z</time></trkpt><trkpt lat="45.90272450206556" lon="12.000778337936751"><ele>284.0</ele><time>2026-05-03T08:09:12Z</time></trkpt><trkpt lat="45.90279060562574" lon="12.00087712976632"><ele>284.4</ele><time>2026-05-03T08:09:13Z</time></trkpt><trkpt lat="45.902864159424404" lon="12.000987269610388"><ele>284.79999999999995</ele><time>2026-05-03T08:09:14Z</time></trkpt><trkpt lat="45.90294582503443" lon="12.001106811152555"><ele>285.20000000000005</ele><time>2026-05-03T08:09:15Z</time></trkpt><trkpt lat="45.90302252548335" lon="12.00122023651755"><ele>285.6</ele><time>2026-05-03T08:09:16Z</time></trkpt><trkpt lat="45.90309537051278" lon="12.001324138464213"><ele>286.0</ele><time>2026-05-03T08:09:17Z</time></trkpt><trkpt lat="45.90315886026841" lon="12.001407828348102"><ele>286.0</ele><time>2026-05-03T08:09:18Z</time></trkpt><trkpt lat="45.903232167251076" lon="12.001458855389577"><ele>286.0</ele><time>2026-05-03T08:09:19Z</time></trkpt><trkpt lat="45.903305093608786" lon="12.001450623316812"><ele>286.0</ele><time>2026-05-03T08:09:20Z</time></trkpt><trkpt lat="45.90337248081723" lon="12.001375615209009"><ele>286.0</ele><time>2026-05-03T08:09:21Z</time></trkpt><trkpt lat="45.90340505898594" lon="12.001252503852912"><ele>286.0</ele><time>2026-05-03T08:09:22Z</time></trkpt><trkpt lat="45.9034111712847" lon="12.001097053401587"><ele>286.0</ele><time>2026-05-03T08:09:23Z</time></trkpt><trkpt lat="45.90340729605079" lon="12.000938741320267"><ele>291.0</ele><time>2026-05-03T08:09:24Z</time></trkpt><trkpt lat="45.903435147358785" lon="12.000791346436614"><ele>296.0</ele><time>2026-05-03T08:09:25Z</time></trkpt><trkpt lat="45.90352826519562" lon="12.000688146172303"><ele>301.0</ele><time>2026-05-03T08:09:26Z</time></trkpt><trkpt lat="45.90361657793071" lon="12.000571463203508"><ele>306.0</ele><time>2026-05-03T08:09:27Z</time></trkpt><trkpt lat="45.90370714925944" lon="12.000456698072412"><ele>306.0</ele><time>2026-05-03T08:09:28Z</time></trkpt><trkpt lat="45.90378851070786" lon="12.000335058707895"><ele>306.0</ele><time>2026-05-03T08:09:29Z</time></trkpt><trkpt lat="45.90388729279867" lon="12.000230212034593"><ele>306.0</ele><time>2026-05-03T08:09:30Z</time></trkpt><trkpt lat="45.90398774944258" lon="12.000114214416232"><ele>306.0</ele><time>2026-05-03T08:09:31Z</time></trkpt><trkpt lat="45.9040752666852" lon="11.999979970838083"><ele>306.0</ele><time>2026-05-03T08:09:32Z</time></trkpt><trkpt lat="45.90414418384011" lon="11.99980746825997"><ele>306.0</ele><time>2026-05-03T08:09:33Z</time></trkpt><trkpt lat="45.90420009674639" lon="11.999620536255229"><ele>306.0</ele><time>2026-05-03T08:09:34Z</time></trkpt><trkpt lat="45.90424367116315" lon="11.999446605243632"><ele>306.0</ele><time>2026-05-03T08:09:35Z</time></trkpt><trkpt lat="45.90430238588776" lon="11.99927818401214"><ele>314.0</ele><time>2026-05-03T08:09:36Z</time></trkpt><trkpt lat="45.90435410796738" lon="11.999106792467819"><ele>322.0</ele><time>2026-05-03T08:09:37Z</time></trkpt><trkpt lat="45.90441447422566" lon="11.998944787605321"><ele>330.0</ele><time>2026-05-03T08:09:38Z</time></trkpt><trkpt lat="45.90448143001632" lon="11.99877909725727"><ele>338.0</ele><time>2026-05-03T08:09:39Z</time></trkpt><trkpt lat="45.90454682607316" lon="11.998614272111688"><ele>338.0</ele><time>2026-05-03T08:09:40Z</time></trkpt><trkpt lat="45.904596498557346" lon="11.998433510289255"><ele>338.0</ele><time>2026-05-03T08:09:41Z</time></trkpt><trkpt lat="45.90465363426888" lon="11.998262041627873"><ele>338.0</ele><time>2026-05-03T08:09:42Z</time></trkpt><trkpt lat="45.9047035319067" lon="11.998073210138243"><ele>338.0</ele><time>2026-05-03T08:09:43Z</time></trkpt><trkpt lat="45.90475489713135" lon="11.997884440924949"><ele>335.75</ele><time>2026-05-03T08:09:44Z</time></trkpt><trkpt lat="45.904813198869086" lon="11.99770788288424"><ele>333.5</ele><time>2026-05-03T08:09:45Z</time></trkpt><trkpt lat="45.904870863316866" lon="11.997538153232016"><ele>331.25</ele><time>2026-05-03T08:09:46Z</time></trkpt><trkpt lat="45.90491336740493" lon="11.997395907485593"><ele>329.0</ele><time>2026-05-03T08:09:47Z</time></trkpt><trkpt lat="45.904937837202326" lon="11.997279547366128"><ele>329.0</ele><time>2026-05-03T08:09:48Z</time></trkpt><trkpt lat="45.904933392419835" lon="11.997181765619729"><ele>329.0</ele><time>2026-05-03T08:09:49Z</time></trkpt><trkpt lat="45.90490183842447" lon="11.997064978254645"><ele>329.0</ele><time>2026-05-03T08:09:50Z</time></trkpt><trkpt lat="45.904857513249695" lon="11.99691693784002"><ele>329.0</ele><time>2026-05-03T08:09:51Z</time></trkpt><trkpt lat="45.90482853802126" lon="11.99675449141695"><ele>329.0</ele><time>2026-05-03T08:09:52Z</time></trkpt><trkpt lat="45.90481003751817" lon="11.996594710207006"><ele>331.0</ele><time>2026-05-03T08:09:53Z</time></trkpt><trkpt lat="45.90481845198721" lon="11.99643748729974"><ele>333.0</ele><time>2026-05-03T08:09:54Z</time></trkpt><trkpt lat="45.90485866135483" lon="11.996292337364505"><ele>335.0</ele><time>2026-05-03T08:09:55Z</time></trkpt><trkpt lat="45.904904069451355" lon="11.996140349128236"><ele>337.0</ele><time>2026-05-03T08:09:56Z</time></trkpt><trkpt lat="45.90494931997876" lon="11.995968651106967"><ele>338.25</ele><time>2026-05-03T08:09:57Z</time></trkpt><trkpt lat="45.904955491117974" lon="11.995787024838924"><ele>339.5</ele><time>2026-05-03T08:09:58Z</time></trkpt><trkpt lat="45.90494743018664" lon="11.995602861624745"><ele>340.75</ele><time>2026-05-03T08:09:59Z</time></trkpt><trkpt lat="45.90490745665031" lon="11.995394890197836"><ele>342.0</ele><time>2026-05-03T08:10:00Z</time></trkpt><trkpt lat="45.90490849136733" lon="11.995179453797075"><ele>342.75</ele><time>2026-05-03T08:10:01Z</time></trkpt><trkpt lat="45.90492242048058" lon="11.994993029290926"><ele>343.5</ele><time>2026-05-03T08:10:02Z</time></trkpt><trkpt lat="45.90493425668679" lon="11.994794686568637"><ele>344.25</ele><time>2026-05-03T08:10:03Z</time></trkpt><trkpt lat="45.90492430030578" lon="11.994593319712136"><ele>345.0</ele><time>2026-05-03T08:10:04Z</time></trkpt><trkpt lat="45.90486945953199" lon="11.994408920491335"><ele>345.0</ele><time>2026-05-03T08:10:05Z</time></trkpt><trkpt lat="45.90486616360967" lon="11.994220574490585"><ele>345.0</ele><time>2026-05-03T08:10:06Z</time></trkpt><trkpt lat="45.90486448201485" lon="11.994032185554138"><ele>345.0</ele><time>2026-05-03T08:10:07Z</time></trkpt><trkpt lat="45.90486174309284" lon="11.993831363492454"><ele>345.0</ele><time>2026-05-03T08:10:08Z</time></trkpt><trkpt lat="45.90484509532604" lon="11.99365590499235"><ele>347.2</ele><time>2026-05-03T08:10:09Z</time></trkpt><trkpt lat="45.90479396504259" lon="11.993515525170045"><ele>349.4</ele><time>2026-05-03T08:10:10Z</time></trkpt><trkpt lat="45.90478553888043" lon="11.99339964387772"><ele>351.6</ele><time>2026-05-03T08:10:11Z</time></trkpt><trkpt lat="45.90478074334918" lon="11.993251569967097"><ele>353.8</ele><time>2026-05-03T08:10:13Z</time></trkpt><trkpt lat="45.904793090371356" lon="11.993080225319808"><ele>356.0</ele><time>2026-05-03T08:10:15Z</time></trkpt><trkpt lat="45.90480741573843" lon="11.992964207839655"><ele>357.8</ele><time>2026-05-03T08:10:16Z</time></trkpt><trkpt lat="45.904821619082924" lon="11.992833625713978"><ele>359.6</ele><time>2026-05-03T08:10:17Z</time></trkpt><trkpt lat="45.90483048134681" lon="11.992671235025476"><ele>361.4</ele><time>2026-05-03T08:10:18Z</time></trkpt><trkpt lat="45.90481452254655" lon="11.992499338611873"><ele>363.2</ele><time>2026-05-03T08:10:19Z</time></trkpt><trkpt lat="45.9048096377215" lon="11.99232657021372"><ele>365.0</ele><time>2026-05-03T08:10:20Z</time></trkpt><trkpt lat="45.90479781564219" lon="11.99215337223168"><ele>366.2</ele><time>2026-05-03T08:10:21Z</time></trkpt><trkpt lat="45.90477680848692" lon="11.991990506323972"><ele>367.4</ele><time>2026-05-03T08:10:22Z</time></trkpt><trkpt lat="45.90475543045011" lon="11.99184373510357"><ele>368.6</ele><time>2026-05-03T08:10:23Z</time></trkpt><trkpt lat="45.90472458926556" lon="11.991711887559697"><ele>369.8</ele><time>2026-05-03T08:10:24Z</time></trkpt><trkpt lat="45.904675903261726" lon="11.991605353747078"><ele>371.0</ele><time>2026-05-03T08:10:25Z</time></trkpt><trkpt lat="45.90461783953978" lon="11.991510403214523"><ele>371.6666666666667</ele><time>2026-05-03T08:10:26Z</time></trkpt><trkpt lat="45.904554478276395" lon="11.991420620260186"><ele>372.33333333333337</ele><time>2026-05-03T08:10:27Z</time></trkpt><trkpt lat="45.904492163887404" lon="11.991347839555141"><ele>373.0</ele><time>2026-05-03T08:10:28Z</time></trkpt><trkpt lat="45.9044199560919" lon="11.99127409806293"><ele>373.6666666666667</ele><time>2026-05-03T08:10:29Z</time></trkpt><trkpt lat="45.904348515074815" lon="11.99120586222856"><ele>374.3333333333333</ele><time>2026-05-03T08:10:30Z</time></trkpt><trkpt lat="45.904292050307525" lon="11.99114700241682"><ele>375.0</ele><time>2026-05-03T08:10:31Z</time></trkpt><trkpt lat="45.904266346879346" lon="11.991038353601141"><ele>375.0</ele><time>2026-05-03T08:10:33Z</time></trkpt><trkpt lat="45.90436420919437" lon="11.990984304824861"><ele>375.0</ele><time>2026-05-03T08:10:36Z</time></trkpt><trkpt lat="45.904442739598885" lon="11.99105480072779"><ele>375.0</ele><time>2026-05-03T08:10:37Z</time></trkpt><trkpt lat="45.904552910072404" lon="11.99109020436647"><ele>375.0</ele><time>2026-05-03T08:10:38Z</time></trkpt><trkpt lat="45.904664205871256" lon="11.991145104858887"><ele>375.0</ele><time>2026-05-03T08:10:39Z</time></trkpt><trkpt lat="45.90476493892959" lon="11.991200860077237"><ele>375.0</ele><time>2026-05-03T08:10:40Z</time></trkpt><trkpt lat="45.90485908083165" lon="11.991251540593074"><ele>375.0</ele><time>2026-05-03T08:10:41Z</time></trkpt><trkpt lat="45.90495098077561" lon="11.991263249126142"><ele>375.0</ele><time>2026-05-03T08:10:42Z</time></trkpt><trkpt lat="45.905046171552534" lon="11.99123861068745"><ele>375.0</ele><time>2026-05-03T08:10:43Z</time></trkpt><trkpt lat="45.905142882281886" lon="11.991166251217964"><ele>375.0</ele><time>2026-05-03T08:10:44Z</time></trkpt><trkpt lat="45.90523904084658" lon="11.991078105273626"><ele>378.75</ele><time>2026-05-03T08:10:44.999Z</time></trkpt><trkpt lat="45.905334341089215" lon="11.990988736266956"><ele>382.5</ele><time>2026-05-03T08:10:45.999Z</time></trkpt><trkpt lat="45.90543725497132" lon="11.990904848908398"><ele>386.25</ele><time>2026-05-03T08:10:46.999Z</time></trkpt><trkpt lat="45.90553922113675" lon="11.990807467072175"><ele>390.0</ele><time>2026-05-03T08:10:47.999Z</time></trkpt><trkpt lat="45.905646941807575" lon="11.990714723815378"><ele>390.0</ele><time>2026-05-03T08:10:48.999Z</time></trkpt><trkpt lat="45.905758639532145" lon="11.990635431815413"><ele>390.0</ele><time>2026-05-03T08:10:49.999Z</time></trkpt><trkpt lat="45.90586764353334" lon="11.990583182924992"><ele>390.0</ele><time>2026-05-03T08:10:50.999Z</time></trkpt><trkpt lat="45.905965276683304" lon="11.990525576951544"><ele>390.0</ele><time>2026-05-03T08:10:51.999Z</time></trkpt><trkpt lat="45.90605309522487" lon="11.990479146453405"><ele>390.0</ele><time>2026-05-03T08:10:52.999Z</time></trkpt><trkpt lat="45.9061293856705" lon="11.990443551464248"><ele>389.0</ele><time>2026-05-03T08:10:53.999Z</time></trkpt><trkpt lat="45.906200125433806" lon="11.990428742083711"><ele>388.0</ele><time>2026-05-03T08:10:54.999Z</time></trkpt><trkpt lat="45.906321464972144" lon="11.990422276603043"><ele>387.0</ele><time>2026-05-03T08:10:56.999Z</time></trkpt><trkpt lat="45.90638889650398" lon="11.9904712376404"><ele>386.0</ele><time>2026-05-03T08:10:58Z</time></trkpt><trkpt lat="45.906461816855476" lon="11.990563198182926"><ele>385.0</ele><time>2026-05-03T08:10:59Z</time></trkpt><trkpt lat="45.90651205278427" lon="11.990688130283324"><ele>387.0</ele><time>2026-05-03T08:11:00Z</time></trkpt><trkpt lat="45.906585745024316" lon="11.990860576607341"><ele>389.0</ele><time>2026-05-03T08:11:01Z</time></trkpt><trkpt lat="45.90667280845159" lon="11.991074037115146"><ele>391.0</ele><time>2026-05-03T08:11:02Z</time></trkpt><trkpt lat="45.90678924711603" lon="11.991306610991254"><ele>391.0</ele><time>2026-05-03T08:11:03Z</time></trkpt><trkpt lat="45.906938755858825" lon="11.991496740685978"><ele>391.0</ele><time>2026-05-03T08:11:04Z</time></trkpt><trkpt lat="45.90707543712425" lon="11.991679900606805"><ele>391.0</ele><time>2026-05-03T08:11:05Z</time></trkpt><trkpt lat="45.907221585416394" lon="11.991860541055901"><ele>396.0</ele><time>2026-05-03T08:11:06Z</time></trkpt><trkpt lat="45.90736072146276" lon="11.992039080295298"><ele>401.0</ele><time>2026-05-03T08:11:07Z</time></trkpt><trkpt lat="45.90750631373439" lon="11.992229410994026"><ele>406.0</ele><time>2026-05-03T08:11:08Z</time></trkpt><trkpt lat="45.90764789052287" lon="11.992402694700147"><ele>417.6666666666667</ele><time>2026-05-03T08:11:09Z</time></trkpt><trkpt lat="45.90778887261785" lon="11.992544711123436"><ele>429.33333333333337</ele><time>2026-05-03T08:11:10Z</time></trkpt><trkpt lat="45.907945431429745" lon="11.992674263429311"><ele>441.0</ele><time>2026-05-03T08:11:11Z</time></trkpt><trkpt lat="45.908081306899426" lon="11.992779141275705"><ele>441.0</ele><time>2026-05-03T08:11:12Z</time></trkpt><trkpt lat="45.908202043931354" lon="11.992869004588266"><ele>441.0</ele><time>2026-05-03T08:11:13Z</time></trkpt><trkpt lat="45.90831906003537" lon="11.992923635478553"><ele>441.0</ele><time>2026-05-03T08:11:14Z</time></trkpt><trkpt lat="45.908453006817425" lon="11.992941158520244"><ele>441.0</ele><time>2026-05-03T08:11:15Z</time></trkpt><trkpt lat="45.90859199655402" lon="11.99286899545225"><ele>438.25</ele><time>2026-05-03T08:11:16Z</time></trkpt><trkpt lat="45.9087357252173" lon="11.992812090778362"><ele>435.5</ele><time>2026-05-03T08:11:17Z</time></trkpt><trkpt lat="45.908865825413805" lon="11.992731113072898"><ele>432.75</ele><time>2026-05-03T08:11:18Z</time></trkpt><trkpt lat="45.908979103639645" lon="11.992714845335579"><ele>430.0</ele><time>2026-05-03T08:11:19Z</time></trkpt><trkpt lat="45.9090675258436" lon="11.99277015121227"><ele>430.0</ele><time>2026-05-03T08:11:20Z</time></trkpt><trkpt lat="45.909118209525566" lon="11.99290521201121"><ele>430.0</ele><time>2026-05-03T08:11:21Z</time></trkpt><trkpt lat="45.90918007769449" lon="11.993007626660743"><ele>430.0</ele><time>2026-05-03T08:11:22Z</time></trkpt><trkpt lat="45.909276209980455" lon="11.99316038773808"><ele>430.0</ele><time>2026-05-03T08:11:23Z</time></trkpt><trkpt lat="45.909388141513816" lon="11.993340612257354"><ele>436.25</ele><time>2026-05-03T08:11:24Z</time></trkpt><trkpt lat="45.90948424620016" lon="11.99349289454679"><ele>442.5</ele><time>2026-05-03T08:11:25Z</time></trkpt><trkpt lat="45.90958720639964" lon="11.99365017746206"><ele>448.75</ele><time>2026-05-03T08:11:26Z</time></trkpt><trkpt lat="45.909661663296234" lon="11.99374256569309"><ele>455.0</ele><time>2026-05-03T08:11:27Z</time></trkpt><trkpt lat="45.909821378923546" lon="11.993785174762895"><ele>455.0</ele><time>2026-05-03T08:11:28Z</time></trkpt><trkpt lat="45.909949262174344" lon="11.99379094004082"><ele>455.0</ele><time>2026-05-03T08:11:29Z</time></trkpt><trkpt lat="45.91008948622953" lon="11.993800295975412"><ele>455.0</ele><time>2026-05-03T08:11:30Z</time></trkpt><trkpt lat="45.910242163550464" lon="11.993811788519084"><ele>455.0</ele><time>2026-05-03T08:11:31Z</time></trkpt><trkpt lat="45.910395881419774" lon="11.993826383211472"><ele>454.75</ele><time>2026-05-03T08:11:32Z</time></trkpt><trkpt lat="45.910547143193966" lon="11.993804838531101"><ele>454.5</ele><time>2026-05-03T08:11:33Z</time></trkpt><trkpt lat="45.910692730363785" lon="11.993783329332011"><ele>454.25</ele><time>2026-05-03T08:11:34Z</time></trkpt><trkpt lat="45.91082820565986" lon="11.993729299547672"><ele>454.0</ele><time>2026-05-03T08:11:35Z</time></trkpt><trkpt lat="45.91093902353217" lon="11.993702529702146"><ele>456.83333333333337</ele><time>2026-05-03T08:11:36Z</time></trkpt><trkpt lat="45.91101370142155" lon="11.993656539940027"><ele>459.6666666666667</ele><time>2026-05-03T08:11:37Z</time></trkpt><trkpt lat="45.91107846249314" lon="11.99361623225689"><ele>462.5</ele><time>2026-05-03T08:11:38Z</time></trkpt><trkpt lat="45.91117077681523" lon="11.993683071220419"><ele>465.33333333333337</ele><time>2026-05-03T08:11:40Z</time></trkpt><trkpt lat="45.91118051547927" lon="11.99379996953107"><ele>468.1666666666667</ele><time>2026-05-03T08:11:41Z</time></trkpt><trkpt lat="45.91113413353246" lon="11.99389408402501"><ele>471.0</ele><time>2026-05-03T08:11:42Z</time></trkpt><trkpt lat="45.91104868704783" lon="11.993918024999077"><ele>471.0</ele><time>2026-05-03T08:11:43Z</time></trkpt><trkpt lat="45.91092371162069" lon="11.993853622761078"><ele>471.0</ele><time>2026-05-03T08:11:44Z</time></trkpt><trkpt lat="45.91078368316232" lon="11.993904529296584"><ele>471.0</ele><time>2026-05-03T08:11:45Z</time></trkpt><trkpt lat="45.910620647152676" lon="11.993950367248297"><ele>471.0</ele><time>2026-05-03T08:11:46Z</time></trkpt><trkpt lat="45.910439115937486" lon="11.993976970460688"><ele>465.66666666666663</ele><time>2026-05-03T08:11:47Z</time></trkpt><trkpt lat="45.91024131937597" lon="11.994016582542127"><ele>460.3333333333333</ele><time>2026-05-03T08:11:48Z</time></trkpt><trkpt lat="45.910038291883176" lon="11.994058253600759"><ele>455.0</ele><time>2026-05-03T08:11:49Z</time></trkpt><trkpt lat="45.9098647366193" lon="11.99412877919052"><ele>455.0</ele><time>2026-05-03T08:11:50Z</time></trkpt><trkpt lat="45.90971694045405" lon="11.994168373595308"><ele>455.0</ele><time>2026-05-03T08:11:51Z</time></trkpt><trkpt lat="45.9096087563496" lon="11.994216423706252"><ele>455.0</ele><time>2026-05-03T08:11:52Z</time></trkpt><trkpt lat="45.90951855788953" lon="11.994200349755719"><ele>455.0</ele><time>2026-05-03T08:11:53Z</time></trkpt><trkpt lat="45.909454177391616" lon="11.994104581448576"><ele>455.0</ele><time>2026-05-03T08:11:54Z</time></trkpt><trkpt lat="45.909387731378835" lon="11.993973147339617"><ele>455.0</ele><time>2026-05-03T08:11:55Z</time></trkpt><trkpt lat="45.909278280100686" lon="11.993851400901873"><ele>455.0</ele><time>2026-05-03T08:11:56Z</time></trkpt><trkpt lat="45.90915382266178" lon="11.993723636742754"><ele>455.0</ele><time>2026-05-03T08:11:57Z</time></trkpt><trkpt lat="45.909021415842005" lon="11.993619145763965"><ele>455.0</ele><time>2026-05-03T08:11:58Z</time></trkpt><trkpt lat="45.90892022040382" lon="11.993546926911723"><ele>459.75</ele><time>2026-05-03T08:11:59Z</time></trkpt><trkpt lat="45.90881545671246" lon="11.993517039819025"><ele>464.5</ele><time>2026-05-03T08:12:00Z</time></trkpt><trkpt lat="45.9087138291036" lon="11.993597660285381"><ele>469.25</ele><time>2026-05-03T08:12:01Z</time></trkpt><trkpt lat="45.9085971040373" lon="11.99367944323647"><ele>474.0</ele><time>2026-05-03T08:12:02Z</time></trkpt><trkpt lat="45.90845586712779" lon="11.993763384528279"><ele>475.33333333333337</ele><time>2026-05-03T08:12:03Z</time></trkpt><trkpt lat="45.90830455163681" lon="11.993855700431979"><ele>476.6666666666667</ele><time>2026-05-03T08:12:04Z</time></trkpt><trkpt lat="45.908141440512004" lon="11.99394376835042"><ele>478.0</ele><time>2026-05-03T08:12:05Z</time></trkpt><trkpt lat="45.907995552582044" lon="11.994029781272326"><ele>478.0</ele><time>2026-05-03T08:12:06Z</time></trkpt><trkpt lat="45.90788176808588" lon="11.99410138702439"><ele>478.0</ele><time>2026-05-03T08:12:07Z</time></trkpt><trkpt lat="45.907765908443785" lon="11.994120216895446"><ele>478.0</ele><time>2026-05-03T08:12:08Z</time></trkpt><trkpt lat="45.907680990157544" lon="11.994011413598745"><ele>478.0</ele><time>2026-05-03T08:12:09Z</time></trkpt><trkpt lat="45.90758401100646" lon="11.993919514110067"><ele>477.25</ele><time>2026-05-03T08:12:10Z</time></trkpt><trkpt lat="45.90746258118575" lon="11.99382913559146"><ele>476.5</ele><time>2026-05-03T08:12:11Z</time></trkpt><trkpt lat="45.907359864837865" lon="11.993780108166495"><ele>475.75</ele><time>2026-05-03T08:12:12Z</time></trkpt><trkpt lat="45.9072366415289" lon="11.993791440468366"><ele>475.0</ele><time>2026-05-03T08:12:13Z</time></trkpt><trkpt lat="45.907089037545624" lon="11.993839372547786"><ele>475.0</ele><time>2026-05-03T08:12:14Z</time></trkpt><trkpt lat="45.90695359885468" lon="11.993920503885192"><ele>475.0</ele><time>2026-05-03T08:12:15Z</time></trkpt><trkpt lat="45.90685430038202" lon="11.994012112124482"><ele>475.0</ele><time>2026-05-03T08:12:16Z</time></trkpt><trkpt lat="45.906774665101885" lon="11.994102257381023"><ele>475.0</ele><time>2026-05-03T08:12:17Z</time></trkpt><trkpt lat="45.90670278530614" lon="11.994147285222082"><ele>475.0</ele><time>2026-05-03T08:12:18Z</time></trkpt><trkpt lat="45.90663565709019" lon="11.994204424931471"><ele>473.4</ele><time>2026-05-03T08:12:19Z</time></trkpt><trkpt lat="45.90659273899487" lon="11.994311102584723"><ele>471.8</ele><time>2026-05-03T08:12:20Z</time></trkpt><trkpt lat="45.90661649135257" lon="11.994456676145637"><ele>470.20000000000005</ele><time>2026-05-03T08:12:21Z</time></trkpt><trkpt lat="45.90664456709932" lon="11.994547978090864"><ele>468.6</ele><time>2026-05-03T08:12:22Z</time></trkpt><trkpt lat="45.906695222700066" lon="11.994767554274132"><ele>467.0</ele><time>2026-05-03T08:12:23Z</time></trkpt><trkpt lat="45.90675953514602" lon="11.994916922637184"><ele>472.20000000000005</ele><time>2026-05-03T08:12:24Z</time></trkpt><trkpt lat="45.90683928144441" lon="11.995021374566658"><ele>477.40000000000003</ele><time>2026-05-03T08:12:25Z</time></trkpt><trkpt lat="45.906917977219344" lon="11.995139296119987"><ele>482.59999999999997</ele><time>2026-05-03T08:12:26Z</time></trkpt><trkpt lat="45.90700229386094" lon="11.995239779734378"><ele>487.79999999999995</ele><time>2026-05-03T08:12:27Z</time></trkpt><trkpt lat="45.907048603230244" lon="11.995369091914096"><ele>493.0</ele><time>2026-05-03T08:12:28Z</time></trkpt><trkpt lat="45.90704507132258" lon="11.995519815685734"><ele>493.00000000000006</ele><time>2026-05-03T08:12:29Z</time></trkpt><trkpt lat="45.907070575962784" lon="11.99563360096976"><ele>493.0</ele><time>2026-05-03T08:12:29.999Z</time></trkpt><trkpt lat="45.90710990187682" lon="11.995755607122062"><ele>493.0</ele><time>2026-05-03T08:12:31.999Z</time></trkpt><trkpt lat="45.907180788652724" lon="11.995761202066983"><ele>493.0</ele><time>2026-05-03T08:12:32.999Z</time></trkpt><trkpt lat="45.90724710275332" lon="11.995724613863963"><ele>493.00000000000006</ele><time>2026-05-03T08:12:33.999Z</time></trkpt><trkpt lat="45.90728338954898" lon="11.995590513345688"><ele>493.0</ele><time>2026-05-03T08:12:34.999Z</time></trkpt><trkpt lat="45.907275414946355" lon="11.995445250736449"><ele>493.0</ele><time>2026-05-03T08:12:35.999Z</time></trkpt><trkpt lat="45.907188159913865" lon="11.99530974798975"><ele>492.99999999999994</ele><time>2026-05-03T08:12:36.999Z</time></trkpt><trkpt lat="45.907129564482524" lon="11.995157960269847"><ele>492.99999999999994</ele><time>2026-05-03T08:12:37.999Z</time></trkpt><trkpt lat="45.907122864514946" lon="11.994990153052784"><ele>493.0</ele><time>2026-05-03T08:12:38.999Z</time></trkpt><trkpt lat="45.90714738177547" lon="11.994878446947613"><ele>493.0</ele><time>2026-05-03T08:12:39.999Z</time></trkpt><trkpt lat="45.90719735189543" lon="11.994805418758814"><ele>493.2</ele><time>2026-05-03T08:12:40.999Z</time></trkpt><trkpt lat="45.907279005565286" lon="11.994786129402968"><ele>493.4</ele><time>2026-05-03T08:12:41.999Z</time></trkpt><trkpt lat="45.907378291028806" lon="11.994800541701036"><ele>493.59999999999997</ele><time>2026-05-03T08:12:42.999Z</time></trkpt><trkpt lat="45.90749860259888" lon="11.994795517431639"><ele>493.79999999999995</ele><time>2026-05-03T08:12:43.999Z</time></trkpt><trkpt lat="45.90762919138049" lon="11.994823328387241"><ele>494.0</ele><time>2026-05-03T08:12:44.999Z</time></trkpt><trkpt lat="45.90777130736608" lon="11.994839127063178"><ele>499.0</ele><time>2026-05-03T08:12:45.999Z</time></trkpt><trkpt lat="45.907921658791246" lon="11.994845995723393"><ele>504.0</ele><time>2026-05-03T08:12:46.999Z</time></trkpt><trkpt lat="45.90807983675357" lon="11.994828042621878"><ele>509.0</ele><time>2026-05-03T08:12:47.999Z</time></trkpt><trkpt lat="45.90823736549861" lon="11.994783010804868"><ele>509.0</ele><time>2026-05-03T08:12:48.999Z</time></trkpt><trkpt lat="45.90839723526602" lon="11.994706941040153"><ele>509.0</ele><time>2026-05-03T08:12:49.999Z</time></trkpt><trkpt lat="45.90855199282362" lon="11.994629923387913"><ele>509.0</ele><time>2026-05-03T08:12:50.999Z</time></trkpt><trkpt lat="45.908686188017235" lon="11.994587543180764"><ele>509.25</ele><time>2026-05-03T08:12:51.999Z</time></trkpt><trkpt lat="45.90879949801344" lon="11.994634087687508"><ele>509.5</ele><time>2026-05-03T08:12:52.999Z</time></trkpt><trkpt lat="45.908898362094824" lon="11.994713665110734"><ele>509.75</ele><time>2026-05-03T08:12:53.999Z</time></trkpt><trkpt lat="45.90899257937588" lon="11.994793283846597"><ele>510.0</ele><time>2026-05-03T08:12:54.999Z</time></trkpt><trkpt lat="45.90912931824299" lon="11.99490599420082"><ele>514.0</ele><time>2026-05-03T08:12:55.999Z</time></trkpt><trkpt lat="45.90926221798895" lon="11.995016633981374"><ele>518.0</ele><time>2026-05-03T08:12:56.999Z</time></trkpt><trkpt lat="45.90938585686441" lon="11.99512997911035"><ele>522.0</ele><time>2026-05-03T08:12:57.999Z</time></trkpt><trkpt lat="45.90950694669216" lon="11.995243429594389"><ele>526.0</ele><time>2026-05-03T08:12:58.999Z</time></trkpt><trkpt lat="45.90964962646825" lon="11.995343190006434"><ele>526.0</ele><time>2026-05-03T08:12:59.999Z</time></trkpt><trkpt lat="45.909799139865676" lon="11.99543687052444"><ele>526.0</ele><time>2026-05-03T08:13:00.999Z</time></trkpt><trkpt lat="45.909958050626635" lon="11.995506759287482"><ele>526.0</ele><time>2026-05-03T08:13:01.999Z</time></trkpt><trkpt lat="45.910112764587915" lon="11.995578741724104"><ele>525.6666666666667</ele><time>2026-05-03T08:13:02.999Z</time></trkpt><trkpt lat="45.91026028839817" lon="11.995638105085181"><ele>525.3333333333334</ele><time>2026-05-03T08:13:04Z</time></trkpt><trkpt lat="45.9104291285051" lon="11.995719331994378"><ele>525.0</ele><time>2026-05-03T08:13:05Z</time></trkpt><trkpt lat="45.91059108717823" lon="11.995729037768033"><ele>525.0</ele><time>2026-05-03T08:13:06Z</time></trkpt><trkpt lat="45.91075158689252" lon="11.995726473176322"><ele>525.0</ele><time>2026-05-03T08:13:07Z</time></trkpt><trkpt lat="45.91091070475987" lon="11.995701209628493"><ele>525.0</ele><time>2026-05-03T08:13:08Z</time></trkpt><trkpt lat="45.9110556413979" lon="11.995651457661156"><ele>529.6</ele><time>2026-05-03T08:13:09Z</time></trkpt><trkpt lat="45.91116467456486" lon="11.99557008404389"><ele>534.2</ele><time>2026-05-03T08:13:10Z</time></trkpt><trkpt lat="45.911254154920066" lon="11.99549791334207"><ele>538.8</ele><time>2026-05-03T08:13:11Z</time></trkpt><trkpt lat="45.91133062143426" lon="11.995422673172122"><ele>543.4</ele><time>2026-05-03T08:13:12Z</time></trkpt><trkpt lat="45.911433678252344" lon="11.995463597875926"><ele>548.0</ele><time>2026-05-03T08:13:14Z</time></trkpt><trkpt lat="45.9114672172198" lon="11.99554258381491"><ele>548.0</ele><time>2026-05-03T08:13:15Z</time></trkpt><trkpt lat="45.91143974644367" lon="11.99566506725229"><ele>548.0</ele><time>2026-05-03T08:13:16Z</time></trkpt><trkpt lat="45.91136087164632" lon="11.995744120978221"><ele>548.0</ele><time>2026-05-03T08:13:17Z</time></trkpt><trkpt lat="45.91124325245744" lon="11.995717516621387"><ele>548.0</ele><time>2026-05-03T08:13:18Z</time></trkpt><trkpt lat="45.911117364106715" lon="11.995756550427675"><ele>548.0</ele><time>2026-05-03T08:13:19Z</time></trkpt><trkpt lat="45.91098785933711" lon="11.995828968793798"><ele>552.0</ele><time>2026-05-03T08:13:20Z</time></trkpt><trkpt lat="45.910849408952224" lon="11.995867936655317"><ele>556.0</ele><time>2026-05-03T08:13:21Z</time></trkpt><trkpt lat="45.91071922801077" lon="11.99596257699956"><ele>560.0</ele><time>2026-05-03T08:13:22Z</time></trkpt><trkpt lat="45.91057604981728" lon="11.996038061346914"><ele>564.0</ele><time>2026-05-03T08:13:23Z</time></trkpt><trkpt lat="45.91043980497343" lon="11.996103790748846"><ele>564.0</ele><time>2026-05-03T08:13:24Z</time></trkpt><trkpt lat="45.9103005876393" lon="11.996112460320008"><ele>564.0</ele><time>2026-05-03T08:13:25Z</time></trkpt><trkpt lat="45.91016985974027" lon="11.996114150450234"><ele>564.0</ele><time>2026-05-03T08:13:26Z</time></trkpt><trkpt lat="45.910064002884695" lon="11.996105194268116"><ele>564.0</ele><time>2026-05-03T08:13:27Z</time></trkpt><trkpt lat="45.90999153910773" lon="11.996096267955586"><ele>564.0</ele><time>2026-05-03T08:13:28Z</time></trkpt><trkpt lat="45.90992408904565" lon="11.996106919669732"><ele>562.0</ele><time>2026-05-03T08:13:29Z</time></trkpt><trkpt lat="45.90985942150973" lon="11.996081883085655"><ele>560.0</ele><time>2026-05-03T08:13:30Z</time></trkpt><trkpt lat="45.909774719662465" lon="11.996097016056204"><ele>558.0</ele><time>2026-05-03T08:13:32Z</time></trkpt><trkpt lat="45.909710196598326" lon="11.9961136407945"><ele>556.0</ele><time>2026-05-03T08:13:35Z</time></trkpt><trkpt lat="45.90957904895727" lon="11.996170391815983"><ele>554.0</ele><time>2026-05-03T08:15:04.999Z</time></trkpt><trkpt lat="45.9095030618286" lon="11.996178686532046"><ele>552.0</ele><time>2026-05-03T08:15:05.999Z</time></trkpt><trkpt lat="45.90942256671126" lon="11.996172895751716"><ele>552.0</ele><time>2026-05-03T08:15:06.999Z</time></trkpt><trkpt lat="45.90932808353462" lon="11.996179784402742"><ele>552.0</ele><time>2026-05-03T08:15:07.999Z</time></trkpt><trkpt lat="45.909226861709264" lon="11.996196139725262"><ele>552.0</ele><time>2026-05-03T08:15:09Z</time></trkpt><trkpt lat="45.909119159318394" lon="11.996212949183795"><ele>552.0</ele><time>2026-05-03T08:15:10Z</time></trkpt><trkpt lat="45.90902456579635" lon="11.996265341535278"><ele>552.0</ele><time>2026-05-03T08:15:11Z</time></trkpt><trkpt lat="45.908946899118405" lon="11.996379452144563"><ele>553.0</ele><time>2026-05-03T08:15:12Z</time></trkpt><trkpt lat="45.9088987037828" lon="11.99651143811978"><ele>554.0</ele><time>2026-05-03T08:15:13.001Z</time></trkpt><trkpt lat="45.908883286180114" lon="11.996678458202835"><ele>555.0</ele><time>2026-05-03T08:15:14Z</time></trkpt><trkpt lat="45.908850660455975" lon="11.996863418441626"><ele>556.0</ele><time>2026-05-03T08:15:15Z</time></trkpt><trkpt lat="45.90884355027049" lon="11.997065766267003"><ele>556.0</ele><time>2026-05-03T08:15:16Z</time></trkpt><trkpt lat="45.90883420277837" lon="11.99727660654457"><ele>556.0</ele><time>2026-05-03T08:15:17Z</time></trkpt><trkpt lat="45.908822220558406" lon="11.997443190116348"><ele>556.0</ele><time>2026-05-03T08:15:18Z</time></trkpt><trkpt lat="45.908825261882306" lon="11.997586290295008"><ele>556.0</ele><time>2026-05-03T08:15:19Z</time></trkpt><trkpt lat="45.90887756237446" lon="11.997728612798584"><ele>558.75</ele><time>2026-05-03T08:15:20Z</time></trkpt><trkpt lat="45.908944789624215" lon="11.997872790552583"><ele>561.5</ele><time>2026-05-03T08:15:21Z</time></trkpt><trkpt lat="45.90898696755123" lon="11.998051547664097"><ele>564.25</ele><time>2026-05-03T08:15:22Z</time></trkpt><trkpt lat="45.90897001472464" lon="11.998247863152772"><ele>567.0</ele><time>2026-05-03T08:15:23Z</time></trkpt><trkpt lat="45.90894342057868" lon="11.998451006644054"><ele>570.0</ele><time>2026-05-03T08:15:24Z</time></trkpt><trkpt lat="45.90893229023585" lon="11.998656731541796"><ele>573.0</ele><time>2026-05-03T08:15:25Z</time></trkpt><trkpt lat="45.908904930179254" lon="11.998866657840994"><ele>576.0</ele><time>2026-05-03T08:15:26Z</time></trkpt><trkpt lat="45.90887846403979" lon="11.999071922382155"><ele>579.0</ele><time>2026-05-03T08:15:27Z</time></trkpt><trkpt lat="45.9088135507637" lon="11.999272020048865"><ele>582.5</ele><time>2026-05-03T08:15:28Z</time></trkpt><trkpt lat="45.90876871756278" lon="11.999493002732002"><ele>586.0</ele><time>2026-05-03T08:15:29Z</time></trkpt><trkpt lat="45.90871150488809" lon="11.999689802774542"><ele>589.5</ele><time>2026-05-03T08:15:30Z</time></trkpt><trkpt lat="45.90866458279249" lon="11.999864255325173"><ele>593.0</ele><time>2026-05-03T08:15:31Z</time></trkpt><trkpt lat="45.90862411288941" lon="12.000044439832202"><ele>593.0</ele><time>2026-05-03T08:15:32Z</time></trkpt><trkpt lat="45.90859767670109" lon="12.000219836105263"><ele>593.0</ele><time>2026-05-03T08:15:33Z</time></trkpt><trkpt lat="45.90858880448715" lon="12.00041551492978"><ele>593.0</ele><time>2026-05-03T08:15:34Z</time></trkpt><trkpt lat="45.90861822152017" lon="12.000599180057156"><ele>593.0</ele><time>2026-05-03T08:15:35Z</time></trkpt><trkpt lat="45.908661931747716" lon="12.000756286835117"><ele>592.5</ele><time>2026-05-03T08:15:36Z</time></trkpt><trkpt lat="45.90872992544638" lon="12.000889214461113"><ele>592.0</ele><time>2026-05-03T08:15:37Z</time></trkpt><trkpt lat="45.908798169047195" lon="12.001008677668889"><ele>591.5</ele><time>2026-05-03T08:15:38Z</time></trkpt><trkpt lat="45.90887150555114" lon="12.001143064879948"><ele>591.0</ele><time>2026-05-03T08:15:39Z</time></trkpt><trkpt lat="45.908938544421225" lon="12.001297448120855"><ele>591.0</ele><time>2026-05-03T08:15:40Z</time></trkpt><trkpt lat="45.90900801682237" lon="12.001423454275185"><ele>591.0</ele><time>2026-05-03T08:15:41Z</time></trkpt><trkpt lat="45.90906164749388" lon="12.001519885764205"><ele>591.0</ele><time>2026-05-03T08:15:42Z</time></trkpt><trkpt lat="45.90909410798031" lon="12.001615066810476"><ele>591.0</ele><time>2026-05-03T08:15:43Z</time></trkpt><trkpt lat="45.90907877601096" lon="12.001728686356225"><ele>591.0</ele><time>2026-05-03T08:15:44Z</time></trkpt><trkpt lat="45.90901306069863" lon="12.001830037713106"><ele>591.0</ele><time>2026-05-03T08:15:45Z</time></trkpt><trkpt lat="45.90897470607017" lon="12.001982737787324"><ele>589.5</ele><time>2026-05-03T08:15:46Z</time></trkpt><trkpt lat="45.90892773144424" lon="12.002150794225237"><ele>588.0</ele><time>2026-05-03T08:15:47Z</time></trkpt><trkpt lat="45.908870907298464" lon="12.002306162704466"><ele>586.5</ele><time>2026-05-03T08:15:48Z</time></trkpt><trkpt lat="45.90881860815577" lon="12.002472791429344"><ele>585.0</ele><time>2026-05-03T08:15:49Z</time></trkpt><trkpt lat="45.9087906862945" lon="12.002659163363129"><ele>587.6</ele><time>2026-05-03T08:15:50Z</time></trkpt><trkpt lat="45.908788837701934" lon="12.002858136267985"><ele>590.2</ele><time>2026-05-03T08:15:51Z</time></trkpt><trkpt lat="45.9087879364064" lon="12.003015697370149"><ele>592.8</ele><time>2026-05-03T08:15:52Z</time></trkpt><trkpt lat="45.90878840951595" lon="12.003140582433142"><ele>595.4</ele><time>2026-05-03T08:15:53Z</time></trkpt><trkpt lat="45.908755738780904" lon="12.00325893425531"><ele>598.0</ele><time>2026-05-03T08:15:54Z</time></trkpt><trkpt lat="45.9086379124036" lon="12.003289924781662"><ele>602.5</ele><time>2026-05-03T08:15:55Z</time></trkpt><trkpt lat="45.90857898990165" lon="12.003427003133739"><ele>607.0</ele><time>2026-05-03T08:15:56Z</time></trkpt><trkpt lat="45.90849183761382" lon="12.003569640747411"><ele>611.5</ele><time>2026-05-03T08:15:57Z</time></trkpt><trkpt lat="45.90839430790774" lon="12.003735557395688"><ele>616.0</ele><time>2026-05-03T08:15:58Z</time></trkpt><trkpt lat="45.90831161644925" lon="12.003922205970982"><ele>610.5</ele><time>2026-05-03T08:15:59Z</time></trkpt><trkpt lat="45.90824189891049" lon="12.004082215558961"><ele>605.0</ele><time>2026-05-03T08:16:00Z</time></trkpt><trkpt lat="45.908184132551135" lon="12.00423465845073"><ele>599.5</ele><time>2026-05-03T08:16:01Z</time></trkpt><trkpt lat="45.90817710733351" lon="12.004408131886079"><ele>594.0</ele><time>2026-05-03T08:16:02Z</time></trkpt><trkpt lat="45.90821196731619" lon="12.00455065670844"><ele>594.0</ele><time>2026-05-03T08:16:03Z</time></trkpt><trkpt lat="45.908254590956524" lon="12.004700946685228"><ele>594.0</ele><time>2026-05-03T08:16:04Z</time></trkpt><trkpt lat="45.908328884180136" lon="12.004872430391528"><ele>594.0</ele><time>2026-05-03T08:16:05Z</time></trkpt><trkpt lat="45.908435751948694" lon="12.00501869188289"><ele>594.0</ele><time>2026-05-03T08:16:06Z</time></trkpt><trkpt lat="45.90855125805185" lon="12.005176369333432"><ele>604.6666666666666</ele><time>2026-05-03T08:16:07Z</time></trkpt><trkpt lat="45.90863590622161" lon="12.005378500202585"><ele>615.3333333333333</ele><time>2026-05-03T08:16:08Z</time></trkpt><trkpt lat="45.90872776909506" lon="12.005558044911872"><ele>626.0</ele><time>2026-05-03T08:16:09Z</time></trkpt><trkpt lat="45.90881458359382" lon="12.005751436468282"><ele>622.0</ele><time>2026-05-03T08:16:10Z</time></trkpt><trkpt lat="45.90890489686519" lon="12.005942605720962"><ele>618.0</ele><time>2026-05-03T08:16:11Z</time></trkpt><trkpt lat="45.90899020564364" lon="12.006132665681726"><ele>614.0</ele><time>2026-05-03T08:16:12Z</time></trkpt><trkpt lat="45.909064049097395" lon="12.006310520668485"><ele>614.0</ele><time>2026-05-03T08:16:13Z</time></trkpt><trkpt lat="45.90912790532158" lon="12.006473651418293"><ele>614.0</ele><time>2026-05-03T08:16:14Z</time></trkpt><trkpt lat="45.909202931985924" lon="12.006606726209013"><ele>614.0</ele><time>2026-05-03T08:16:15Z</time></trkpt><trkpt lat="45.90930259377024" lon="12.006687245857112"><ele>614.0</ele><time>2026-05-03T08:16:16Z</time></trkpt><trkpt lat="45.90936264288836" lon="12.006769501677194"><ele>614.0</ele><time>2026-05-03T08:16:17Z</time></trkpt><trkpt lat="45.909472944139246" lon="12.006827751549917"><ele>620.8</ele><time>2026-05-03T08:16:19Z</time></trkpt><trkpt lat="45.90950906358298" lon="12.006970779856362"><ele>627.5999999999999</ele><time>2026-05-03T08:16:21Z</time></trkpt><trkpt lat="45.909518939035685" lon="12.007133759910273"><ele>634.4</ele><time>2026-05-03T08:16:23Z</time></trkpt><trkpt lat="45.90951542741329" lon="12.00723557770342"><ele>641.1999999999999</ele><time>2026-05-03T08:16:24Z</time></trkpt><trkpt lat="45.90949720747605" lon="12.007332654588078"><ele>648.0</ele><time>2026-05-03T08:16:25Z</time></trkpt><trkpt lat="45.909469145134274" lon="12.007469352444119"><ele>647.1666666666666</ele><time>2026-05-03T08:16:26Z</time></trkpt><trkpt lat="45.909431462507754" lon="12.007613679988705"><ele>646.3333333333334</ele><time>2026-05-03T08:16:27Z</time></trkpt><trkpt lat="45.90939084837576" lon="12.007771554005794"><ele>645.5</ele><time>2026-05-03T08:16:28Z</time></trkpt><trkpt lat="45.909353124656" lon="12.007879515778717"><ele>644.6666666666667</ele><time>2026-05-03T08:16:29Z</time></trkpt><trkpt lat="45.90933245299152" lon="12.007968198438641"><ele>643.8333333333334</ele><time>2026-05-03T08:16:30Z</time></trkpt><trkpt lat="45.909331315876344" lon="12.008066442089143"><ele>643.0</ele><time>2026-05-03T08:16:31Z</time></trkpt><trkpt lat="45.90935204805342" lon="12.00818309956495"><ele>643.0</ele><time>2026-05-03T08:16:32Z</time></trkpt><trkpt lat="45.90938941833187" lon="12.008315674292403"><ele>643.0</ele><time>2026-05-03T08:16:33Z</time></trkpt><trkpt lat="45.90942406608226" lon="12.008452077116752"><ele>643.0</ele><time>2026-05-03T08:16:34Z</time></trkpt><trkpt lat="45.90946064695921" lon="12.008562085491489"><ele>643.0</ele><time>2026-05-03T08:16:35Z</time></trkpt><trkpt lat="45.909493474762655" lon="12.008641043654634"><ele>643.0</ele><time>2026-05-03T08:16:36Z</time></trkpt><trkpt lat="45.90960213148538" lon="12.00867776064121"><ele>643.0</ele><time>2026-05-03T08:16:38Z</time></trkpt><trkpt lat="45.90969978046575" lon="12.008528317000597"><ele>643.0</ele><time>2026-05-03T08:16:40Z</time></trkpt><trkpt lat="45.909692549790975" lon="12.00841790719654"><ele>643.0</ele><time>2026-05-03T08:16:41Z</time></trkpt><trkpt lat="45.909640764025" lon="12.008311359504775"><ele>643.0</ele><time>2026-05-03T08:16:42Z</time></trkpt><trkpt lat="45.909557370321" lon="12.00822486816612"><ele>643.0</ele><time>2026-05-03T08:16:43Z</time></trkpt><trkpt lat="45.909471696972965" lon="12.008130958036107"><ele>643.0</ele><time>2026-05-03T08:16:44Z</time></trkpt><trkpt lat="45.90946094945048" lon="12.007997553841262"><ele>643.0</ele><time>2026-05-03T08:16:45Z</time></trkpt><trkpt lat="45.90947894262622" lon="12.007907946287357"><ele>643.0</ele><time>2026-05-03T08:16:46Z</time></trkpt><trkpt lat="45.90952346433234" lon="12.007829284535743"><ele>643.0</ele><time>2026-05-03T08:16:47Z</time></trkpt><trkpt lat="45.90957992296916" lon="12.007741748819173"><ele>643.0</ele><time>2026-05-03T08:16:48Z</time></trkpt><trkpt lat="45.90964701880935" lon="12.00761588345996"><ele>643.0</ele><time>2026-05-03T08:16:49Z</time></trkpt><trkpt lat="45.90971131333591" lon="12.00746670203806"><ele>644.25</ele><time>2026-05-03T08:16:50Z</time></trkpt><trkpt lat="45.909758897438614" lon="12.007308000867697"><ele>645.5</ele><time>2026-05-03T08:16:51Z</time></trkpt><trkpt lat="45.90978470746568" lon="12.007128886942803"><ele>646.75</ele><time>2026-05-03T08:16:52Z</time></trkpt><trkpt lat="45.909776206864166" lon="12.006942860928081"><ele>648.0</ele><time>2026-05-03T08:16:53Z</time></trkpt><trkpt lat="45.909771939966255" lon="12.006774522389923"><ele>649.8</ele><time>2026-05-03T08:16:54Z</time></trkpt><trkpt lat="45.90975402944503" lon="12.006647078007248"><ele>651.5999999999999</ele><time>2026-05-03T08:16:55Z</time></trkpt><trkpt lat="45.90971426770115" lon="12.006536569017083"><ele>653.4000000000001</ele><time>2026-05-03T08:16:56Z</time></trkpt><trkpt lat="45.90965604025953" lon="12.006435935535535"><ele>655.2</ele><time>2026-05-03T08:16:57Z</time></trkpt><trkpt lat="45.90958851904797" lon="12.006335483504845"><ele>657.0</ele><time>2026-05-03T08:16:58Z</time></trkpt><trkpt lat="45.90955101105362" lon="12.00621601369622"><ele>657.0</ele><time>2026-05-03T08:16:59Z</time></trkpt><trkpt lat="45.909510734979435" lon="12.006099116112322"><ele>657.0</ele><time>2026-05-03T08:17:00Z</time></trkpt><trkpt lat="45.90947668084056" lon="12.00597008196078"><ele>657.0</ele><time>2026-05-03T08:17:01Z</time></trkpt><trkpt lat="45.90946526183521" lon="12.005825692044137"><ele>657.0</ele><time>2026-05-03T08:17:02Z</time></trkpt><trkpt lat="45.909454912470984" lon="12.005643203998341"><ele>657.0</ele><time>2026-05-03T08:17:03Z</time></trkpt><trkpt lat="45.90944458464962" lon="12.005460251118471"><ele>658.5</ele><time>2026-05-03T08:17:04Z</time></trkpt><trkpt lat="45.90942878096267" lon="12.005271402094545"><ele>660.0</ele><time>2026-05-03T08:17:05Z</time></trkpt><trkpt lat="45.90941430683405" lon="12.005088463559023"><ele>661.5</ele><time>2026-05-03T08:17:06Z</time></trkpt><trkpt lat="45.90940817876295" lon="12.004915532429232"><ele>663.0</ele><time>2026-05-03T08:17:07Z</time></trkpt><trkpt lat="45.90941333820399" lon="12.00474990511993"><ele>663.0</ele><time>2026-05-03T08:17:08Z</time></trkpt><trkpt lat="45.90942061056108" lon="12.004601192911172"><ele>663.0</ele><time>2026-05-03T08:17:09Z</time></trkpt><trkpt lat="45.909426596176466" lon="12.004481479447364"><ele>663.0</ele><time>2026-05-03T08:17:10Z</time></trkpt><trkpt lat="45.90946941242106" lon="12.004306341957848"><ele>663.0</ele><time>2026-05-03T08:17:12Z</time></trkpt><trkpt lat="45.90951781017431" lon="12.004221998971152"><ele>663.0</ele><time>2026-05-03T08:17:13Z</time></trkpt><trkpt lat="45.90958755249478" lon="12.00413749633754"><ele>662.4</ele><time>2026-05-03T08:17:14Z</time></trkpt><trkpt lat="45.909668470470415" lon="12.004023045955266"><ele>661.8</ele><time>2026-05-03T08:17:15.001Z</time></trkpt><trkpt lat="45.90973753788331" lon="12.003882945686874"><ele>661.2</ele><time>2026-05-03T08:17:16.001Z</time></trkpt><trkpt lat="45.90977552436058" lon="12.003733842196771"><ele>660.6</ele><time>2026-05-03T08:17:17.001Z</time></trkpt><trkpt lat="45.90980811204545" lon="12.003594356216714"><ele>660.0</ele><time>2026-05-03T08:17:18.001Z</time></trkpt><trkpt lat="45.9098160994443" lon="12.003435402247986"><ele>658.8</ele><time>2026-05-03T08:17:19.001Z</time></trkpt><trkpt lat="45.90981445624713" lon="12.00328173525205"><ele>657.6</ele><time>2026-05-03T08:17:20.001Z</time></trkpt><trkpt lat="45.909838964656956" lon="12.003148763750776"><ele>656.4000000000001</ele><time>2026-05-03T08:17:21.001Z</time></trkpt><trkpt lat="45.90985709329686" lon="12.003011750972453"><ele>655.2</ele><time>2026-05-03T08:17:22.001Z</time></trkpt><trkpt lat="45.90987492623836" lon="12.00288343236305"><ele>654.0</ele><time>2026-05-03T08:17:23.001Z</time></trkpt><trkpt lat="45.90989850838264" lon="12.002745956634534"><ele>654.0</ele><time>2026-05-03T08:17:24.001Z</time></trkpt><trkpt lat="45.90992534418228" lon="12.002606959651171"><ele>654.0</ele><time>2026-05-03T08:17:25.001Z</time></trkpt><trkpt lat="45.9099619510682" lon="12.002456448100828"><ele>654.0</ele><time>2026-05-03T08:17:26.001Z</time></trkpt><trkpt lat="45.910011409219884" lon="12.00231902781453"><ele>654.0</ele><time>2026-05-03T08:17:27.001Z</time></trkpt><trkpt lat="45.91007193746025" lon="12.002179863777009"><ele>654.0</ele><time>2026-05-03T08:17:28.001Z</time></trkpt><trkpt lat="45.91012756134978" lon="12.002042690786036"><ele>659.0</ele><time>2026-05-03T08:17:29.001Z</time></trkpt><trkpt lat="45.91016403419425" lon="12.001902223277845"><ele>664.0</ele><time>2026-05-03T08:17:30.001Z</time></trkpt><trkpt lat="45.91020789432799" lon="12.001778076424392"><ele>669.0</ele><time>2026-05-03T08:17:31Z</time></trkpt><trkpt lat="45.910249189711394" lon="12.001663654186135"><ele>674.0</ele><time>2026-05-03T08:17:32Z</time></trkpt><trkpt lat="45.91028694402022" lon="12.001555280653617"><ele>679.0</ele><time>2026-05-03T08:17:33Z</time></trkpt><trkpt lat="45.910317652969404" lon="12.001449889970058"><ele>679.0</ele><time>2026-05-03T08:17:34Z</time></trkpt><trkpt lat="45.91034351638704" lon="12.001346207578322"><ele>679.0</ele><time>2026-05-03T08:17:35Z</time></trkpt><trkpt lat="45.91036237578572" lon="12.001233127129376"><ele>679.0</ele><time>2026-05-03T08:17:36Z</time></trkpt><trkpt lat="45.910375130854284" lon="12.001114938586811"><ele>679.0</ele><time>2026-05-03T08:17:37Z</time></trkpt><trkpt lat="45.910375555716556" lon="12.00102177358197"><ele>679.0</ele><time>2026-05-03T08:17:38Z</time></trkpt><trkpt lat="45.910446057001046" lon="12.000923181189261"><ele>679.0</ele><time>2026-05-03T08:17:40Z</time></trkpt><trkpt lat="45.91050810443084" lon="12.00096000626783"><ele>679.0</ele><time>2026-05-03T08:17:41Z</time></trkpt><trkpt lat="45.91054784824584" lon="12.001055574003356"><ele>679.0</ele><time>2026-05-03T08:17:42Z</time></trkpt><trkpt lat="45.910544549647206" lon="12.001190657617599"><ele>679.0</ele><time>2026-05-03T08:17:43Z</time></trkpt><trkpt lat="45.91045555675275" lon="12.00132291553607"><ele>679.0</ele><time>2026-05-03T08:17:44Z</time></trkpt><trkpt lat="45.91038949027679" lon="12.00154002492144"><ele>681.0</ele><time>2026-05-03T08:17:45Z</time></trkpt><trkpt lat="45.91035329582466" lon="12.001812698739805"><ele>683.0</ele><time>2026-05-03T08:17:46Z</time></trkpt><trkpt lat="45.91028660692516" lon="12.00211377899669"><ele>685.0</ele><time>2026-05-03T08:17:47Z</time></trkpt><trkpt lat="45.910242348762445" lon="12.00238873254124"><ele>688.0</ele><time>2026-05-03T08:17:48Z</time></trkpt><trkpt lat="45.91018514095294" lon="12.00258566417461"><ele>691.0</ele><time>2026-05-03T08:17:49Z</time></trkpt><trkpt lat="45.91019078904972" lon="12.002804061189506"><ele>694.0</ele><time>2026-05-03T08:17:50Z</time></trkpt><trkpt lat="45.910195431157355" lon="12.00304137656021"><ele>694.0</ele><time>2026-05-03T08:17:51Z</time></trkpt><trkpt lat="45.910226453999655" lon="12.003281175817044"><ele>694.0</ele><time>2026-05-03T08:17:51.999Z</time></trkpt><trkpt lat="45.910242573553944" lon="12.003517802443751"><ele>694.0</ele><time>2026-05-03T08:17:52.999Z</time></trkpt><trkpt lat="45.9102662129583" lon="12.0037317000666"><ele>694.75</ele><time>2026-05-03T08:17:53.999Z</time></trkpt><trkpt lat="45.91025996939011" lon="12.003927796971881"><ele>695.5</ele><time>2026-05-03T08:17:54.999Z</time></trkpt><trkpt lat="45.910253856043255" lon="12.004102223805283"><ele>696.25</ele><time>2026-05-03T08:17:55.999Z</time></trkpt><trkpt lat="45.91026423189253" lon="12.004264954764706"><ele>697.0</ele><time>2026-05-03T08:17:56.999Z</time></trkpt><trkpt lat="45.910285190141956" lon="12.004445169555122"><ele>697.3333333333334</ele><time>2026-05-03T08:17:57.999Z</time></trkpt><trkpt lat="45.91032543002589" lon="12.004638397735755"><ele>697.6666666666666</ele><time>2026-05-03T08:17:58.999Z</time></trkpt><trkpt lat="45.910386714652276" lon="12.004846916814655"><ele>698.0</ele><time>2026-05-03T08:17:59.999Z</time></trkpt><trkpt lat="45.91047123668269" lon="12.005047876363538"><ele>698.0</ele><time>2026-05-03T08:18:00.999Z</time></trkpt><trkpt lat="45.910550513747815" lon="12.005259491909078"><ele>698.0</ele><time>2026-05-03T08:18:01.999Z</time></trkpt><trkpt lat="45.91061954693801" lon="12.005462249327996"><ele>698.0</ele><time>2026-05-03T08:18:02.999Z</time></trkpt><trkpt lat="45.91070681202411" lon="12.005636826859956"><ele>698.0</ele><time>2026-05-03T08:18:03.999Z</time></trkpt><trkpt lat="45.91079420834002" lon="12.00581635778248"><ele>698.0</ele><time>2026-05-03T08:18:04.999Z</time></trkpt><trkpt lat="45.9108679558376" lon="12.006012380180023"><ele>698.0</ele><time>2026-05-03T08:18:05.999Z</time></trkpt><trkpt lat="45.910923278663006" lon="12.006209405499215"><ele>706.25</ele><time>2026-05-03T08:18:06.999Z</time></trkpt><trkpt lat="45.91093314000298" lon="12.006411646633069"><ele>714.5</ele><time>2026-05-03T08:18:07.999Z</time></trkpt><trkpt lat="45.91093898666771" lon="12.006582802528277"><ele>722.75</ele><time>2026-05-03T08:18:08.999Z</time></trkpt><trkpt lat="45.91096168416349" lon="12.006704414421488"><ele>731.0</ele><time>2026-05-03T08:18:09.999Z</time></trkpt><trkpt lat="45.91100505045895" lon="12.006854014232783"><ele>731.0</ele><time>2026-05-03T08:18:11.999Z</time></trkpt><trkpt lat="45.91107688270277" lon="12.006853092945926"><ele>731.0</ele><time>2026-05-03T08:18:12.999Z</time></trkpt><trkpt lat="45.91114782807113" lon="12.006773650146062"><ele>731.0</ele><time>2026-05-03T08:18:13.999Z</time></trkpt><trkpt lat="45.91119329844622" lon="12.00666075633876"><ele>731.0</ele><time>2026-05-03T08:18:14.999Z</time></trkpt><trkpt lat="45.91116892340414" lon="12.006514154915624"><ele>731.0</ele><time>2026-05-03T08:18:15.999Z</time></trkpt><trkpt lat="45.91110783523152" lon="12.006358661382398"><ele>731.0</ele><time>2026-05-03T08:18:16.999Z</time></trkpt><trkpt lat="45.911088515151434" lon="12.006208322302566"><ele>731.0</ele><time>2026-05-03T08:18:17.999Z</time></trkpt><trkpt lat="45.9110947965466" lon="12.006057298919991"><ele>731.0</ele><time>2026-05-03T08:18:18.999Z</time></trkpt><trkpt lat="45.911103155664435" lon="12.005849554189856"><ele>731.0</ele><time>2026-05-03T08:18:19.999Z</time></trkpt><trkpt lat="45.911112596987614" lon="12.00561202704712"><ele>731.6666666666666</ele><time>2026-05-03T08:18:20.999Z</time></trkpt><trkpt lat="45.91111304471165" lon="12.005373925122608"><ele>732.3333333333334</ele><time>2026-05-03T08:18:21.999Z</time></trkpt><trkpt lat="45.91110672018154" lon="12.005138415794665"><ele>733.0</ele><time>2026-05-03T08:18:22.999Z</time></trkpt><trkpt lat="45.91111034290827" lon="12.004892726094369"><ele>733.3333333333334</ele><time>2026-05-03T08:18:23.999Z</time></trkpt><trkpt lat="45.91113288941102" lon="12.00465559508782"><ele>733.6666666666666</ele><time>2026-05-03T08:18:24.999Z</time></trkpt><trkpt lat="45.91117094223422" lon="12.004428092753523"><ele>734.0</ele><time>2026-05-03T08:18:25.999Z</time></trkpt><trkpt lat="45.91121417184094" lon="12.004195556668762"><ele>732.3333333333333</ele><time>2026-05-03T08:18:26.999Z</time></trkpt><trkpt lat="45.91127491503212" lon="12.003965114199659"><ele>730.6666666666666</ele><time>2026-05-03T08:18:27.999Z</time></trkpt><trkpt lat="45.91134132635886" lon="12.003739543817547"><ele>729.0</ele><time>2026-05-03T08:18:28.999Z</time></trkpt><trkpt lat="45.911408540578655" lon="12.003517891234935"><ele>727.3333333333334</ele><time>2026-05-03T08:18:29.999Z</time></trkpt><trkpt lat="45.91147710123964" lon="12.003296755889696"><ele>725.6666666666667</ele><time>2026-05-03T08:18:30.999Z</time></trkpt><trkpt lat="45.91153908141175" lon="12.003075962360656"><ele>724.0</ele><time>2026-05-03T08:18:31.999Z</time></trkpt><trkpt lat="45.91160524487091" lon="12.002849220594264"><ele>724.0</ele><time>2026-05-03T08:18:32.999Z</time></trkpt><trkpt lat="45.91165950735805" lon="12.002618546542317"><ele>724.0</ele><time>2026-05-03T08:18:33.999Z</time></trkpt><trkpt lat="45.911726079457" lon="12.00239266131482"><ele>724.0</ele><time>2026-05-03T08:18:34.999Z</time></trkpt><trkpt lat="45.91177952334673" lon="12.0021691630864"><ele>727.6666666666667</ele><time>2026-05-03T08:18:35.999Z</time></trkpt><trkpt lat="45.91182780337463" lon="12.001940593116101"><ele>731.3333333333334</ele><time>2026-05-03T08:18:36.999Z</time></trkpt><trkpt lat="45.91187007534647" lon="12.00170986893223"><ele>735.0</ele><time>2026-05-03T08:18:37.999Z</time></trkpt><trkpt lat="45.911910671595344" lon="12.001483972967907"><ele>735.0</ele><time>2026-05-03T08:18:38.999Z</time></trkpt><trkpt lat="45.91194494629919" lon="12.001297770832359"><ele>735.0</ele><time>2026-05-03T08:18:39.999Z</time></trkpt><trkpt lat="45.91199780749457" lon="12.001144526514853"><ele>735.0</ele><time>2026-05-03T08:18:40.999Z</time></trkpt><trkpt lat="45.91204768747523" lon="12.000989696923796"><ele>735.0</ele><time>2026-05-03T08:18:41.999Z</time></trkpt><trkpt lat="45.91211851980202" lon="12.00084371189456"><ele>731.25</ele><time>2026-05-03T08:18:42.999Z</time></trkpt><trkpt lat="45.912216883596216" lon="12.00073896689496"><ele>727.5</ele><time>2026-05-03T08:18:43.999Z</time></trkpt><trkpt lat="45.912329642079534" lon="12.000685449373991"><ele>723.75</ele><time>2026-05-03T08:18:44.999Z</time></trkpt><trkpt lat="45.91245554910851" lon="12.000657504508723"><ele>720.0</ele><time>2026-05-03T08:18:45.999Z</time></trkpt><trkpt lat="45.91257086938704" lon="12.000709257732419"><ele>721.4</ele><time>2026-05-03T08:18:46.999Z</time></trkpt><trkpt lat="45.91269721358043" lon="12.000756528156725"><ele>722.8</ele><time>2026-05-03T08:18:47.999Z</time></trkpt><trkpt lat="45.91278148706397" lon="12.000844927853242"><ele>724.2</ele><time>2026-05-03T08:18:48.999Z</time></trkpt><trkpt lat="45.91284106748754" lon="12.000945868821727"><ele>725.6</ele><time>2026-05-03T08:18:49.999Z</time></trkpt><trkpt lat="45.9128828271808" lon="12.001086981010594"><ele>727.0</ele><time>2026-05-03T08:18:50.999Z</time></trkpt><trkpt lat="45.912888764792406" lon="12.001268564679993"><ele>727.0</ele><time>2026-05-03T08:18:51.999Z</time></trkpt><trkpt lat="45.91294645292974" lon="12.001435871547963"><ele>727.0</ele><time>2026-05-03T08:18:52.999Z</time></trkpt><trkpt lat="45.91301412424129" lon="12.001609937257943"><ele>727.0</ele><time>2026-05-03T08:18:53.999Z</time></trkpt><trkpt lat="45.91311753215393" lon="12.00177422846292"><ele>727.0</ele><time>2026-05-03T08:18:54.999Z</time></trkpt><trkpt lat="45.91322605116328" lon="12.001941740627219"><ele>726.6666666666667</ele><time>2026-05-03T08:18:55.999Z</time></trkpt><trkpt lat="45.91333806692684" lon="12.002108468917287"><ele>726.3333333333334</ele><time>2026-05-03T08:18:56.999Z</time></trkpt><trkpt lat="45.91346116901834" lon="12.002245866363173"><ele>726.0</ele><time>2026-05-03T08:18:57.999Z</time></trkpt><trkpt lat="45.91358609262614" lon="12.002376666754584"><ele>726.0</ele><time>2026-05-03T08:18:58.999Z</time></trkpt><trkpt lat="45.91368353008928" lon="12.002496767918224"><ele>726.0</ele><time>2026-05-03T08:18:59.999Z</time></trkpt><trkpt lat="45.9137592029921" lon="12.002639515905571"><ele>726.0</ele><time>2026-05-03T08:19:00.999Z</time></trkpt><trkpt lat="45.91376493221382" lon="12.00281569242663"><ele>726.0</ele><time>2026-05-03T08:19:01.999Z</time></trkpt><trkpt lat="45.9137772811292" lon="12.002989637288332"><ele>730.0</ele><time>2026-05-03T08:19:02.999Z</time></trkpt><trkpt lat="45.91380888376445" lon="12.003172663078644"><ele>734.0</ele><time>2026-05-03T08:19:03.999Z</time></trkpt><trkpt lat="45.91383896052971" lon="12.00332392798864"><ele>738.0</ele><time>2026-05-03T08:19:04.999Z</time></trkpt><trkpt lat="45.91390344024861" lon="12.003415556767086"><ele>742.0</ele><time>2026-05-03T08:19:05.999Z</time></trkpt><trkpt lat="45.91398424001757" lon="12.003480414018687"><ele>746.0</ele><time>2026-05-03T08:19:06.999Z</time></trkpt><trkpt lat="45.91407679358726" lon="12.003511310745642"><ele>744.4</ele><time>2026-05-03T08:19:07.999Z</time></trkpt><trkpt lat="45.914175223712974" lon="12.003560669649145"><ele>742.8</ele><time>2026-05-03T08:19:08.999Z</time></trkpt><trkpt lat="45.914263956371684" lon="12.003621711572771"><ele>741.1999999999999</ele><time>2026-05-03T08:19:09.999Z</time></trkpt><trkpt lat="45.91434066019487" lon="12.003663646268585"><ele>739.5999999999999</ele><time>2026-05-03T08:19:10.999Z</time></trkpt><trkpt lat="45.91439656756418" lon="12.003717874317323"><ele>738.0</ele><time>2026-05-03T08:19:11.999Z</time></trkpt><trkpt lat="45.914455454911575" lon="12.003864725805467"><ele>738.0</ele><time>2026-05-03T08:19:13.999Z</time></trkpt><trkpt lat="45.914426111584405" lon="12.003967421050861"><ele>738.0</ele><time>2026-05-03T08:19:14.999Z</time></trkpt><trkpt lat="45.91435431611949" lon="12.004007585795723"><ele>738.0</ele><time>2026-05-03T08:19:15.999Z</time></trkpt><trkpt lat="45.91426618977914" lon="12.003972421027234"><ele>738.0</ele><time>2026-05-03T08:19:16.999Z</time></trkpt><trkpt lat="45.91419222986258" lon="12.00384216484109"><ele>738.0</ele><time>2026-05-03T08:19:17.999Z</time></trkpt><trkpt lat="45.91407860880161" lon="12.00373948593255"><ele>743.75</ele><time>2026-05-03T08:19:18.999Z</time></trkpt><trkpt lat="45.91394712849267" lon="12.003677578250011"><ele>749.5</ele><time>2026-05-03T08:19:19.999Z</time></trkpt><trkpt lat="45.9138082323708" lon="12.00365701482729"><ele>755.25</ele><time>2026-05-03T08:19:21Z</time></trkpt><trkpt lat="45.913650911406926" lon="12.00364908953873"><ele>761.0</ele><time>2026-05-03T08:19:22Z</time></trkpt><trkpt lat="45.91347404336013" lon="12.003652178964696"><ele>763.6666666666666</ele><time>2026-05-03T08:19:23Z</time></trkpt><trkpt lat="45.913286567128985" lon="12.003657832274712"><ele>766.3333333333333</ele><time>2026-05-03T08:19:24Z</time></trkpt><trkpt lat="45.91309822557201" lon="12.003694497346121"><ele>769.0</ele><time>2026-05-03T08:19:25Z</time></trkpt><trkpt lat="45.91293395954415" lon="12.003762627962908"><ele>769.0</ele><time>2026-05-03T08:19:26Z</time></trkpt><trkpt lat="45.91281051625467" lon="12.003835533307045"><ele>769.0</ele><time>2026-05-03T08:19:27Z</time></trkpt><trkpt lat="45.9127457464609" lon="12.003971350201896"><ele>769.0</ele><time>2026-05-03T08:19:28Z</time></trkpt><trkpt lat="45.91269951066136" lon="12.004120677746794"><ele>769.0</ele><time>2026-05-03T08:19:28.999Z</time></trkpt><trkpt lat="45.9126893909964" lon="12.004309857595477"><ele>772.6666666666666</ele><time>2026-05-03T08:19:29.999Z</time></trkpt><trkpt lat="45.91266939068184" lon="12.004541008928747"><ele>776.3333333333333</ele><time>2026-05-03T08:19:30.999Z</time></trkpt><trkpt lat="45.91267978121294" lon="12.004784514450622"><ele>780.0</ele><time>2026-05-03T08:19:31.999Z</time></trkpt><trkpt lat="45.9127130682085" lon="12.005031515812611"><ele>785.3333333333333</ele><time>2026-05-03T08:19:33Z</time></trkpt><trkpt lat="45.91277431582253" lon="12.005262416071373"><ele>790.6666666666666</ele><time>2026-05-03T08:19:34Z</time></trkpt><trkpt lat="45.912846853995106" lon="12.00546568301848"><ele>796.0</ele><time>2026-05-03T08:19:35Z</time></trkpt><trkpt lat="45.912903302699966" lon="12.005659585691506"><ele>796.6666666666666</ele><time>2026-05-03T08:19:36Z</time></trkpt><trkpt lat="45.912909541348924" lon="12.00583126649746"><ele>797.3333333333333</ele><time>2026-05-03T08:19:37Z</time></trkpt><trkpt lat="45.9129251636212" lon="12.005964561273814"><ele>798.0</ele><time>2026-05-03T08:19:38Z</time></trkpt><trkpt lat="45.91292540492547" lon="12.006082345744401"><ele>798.6666666666667</ele><time>2026-05-03T08:19:39Z</time></trkpt><trkpt lat="45.912956638872586" lon="12.006160946291256"><ele>799.3333333333334</ele><time>2026-05-03T08:19:40Z</time></trkpt><trkpt lat="45.913039277558006" lon="12.006192611651004"><ele>800.0</ele><time>2026-05-03T08:19:41Z</time></trkpt><trkpt lat="45.91312870341583" lon="12.006145450938725"><ele>800.0</ele><time>2026-05-03T08:19:42Z</time></trkpt><trkpt lat="45.91318263382568" lon="12.006022849367612"><ele>800.0</ele><time>2026-05-03T08:19:43Z</time></trkpt><trkpt lat="45.91318322059516" lon="12.005879958403987"><ele>800.0</ele><time>2026-05-03T08:19:44Z</time></trkpt><trkpt lat="45.913130168814945" lon="12.005743387837775"><ele>800.0</ele><time>2026-05-03T08:19:45Z</time></trkpt><trkpt lat="45.9130784291226" lon="12.005612999429378"><ele>800.0</ele><time>2026-05-03T08:19:46Z</time></trkpt><trkpt lat="45.91307043897868" lon="12.005453138929216"><ele>799.0</ele><time>2026-05-03T08:19:47Z</time></trkpt><trkpt lat="45.91308098242867" lon="12.00528624382852"><ele>798.0</ele><time>2026-05-03T08:19:48Z</time></trkpt><trkpt lat="45.91312862185511" lon="12.005125882451743"><ele>797.0</ele><time>2026-05-03T08:19:49Z</time></trkpt><trkpt lat="45.9132006603455" lon="12.004993807961517"><ele>796.0</ele><time>2026-05-03T08:19:50Z</time></trkpt><trkpt lat="45.913283243955284" lon="12.004914449002188"><ele>792.0</ele><time>2026-05-03T08:19:51Z</time></trkpt><trkpt lat="45.91339900482652" lon="12.00488442734787"><ele>788.0</ele><time>2026-05-03T08:19:52Z</time></trkpt><trkpt lat="45.91352279149754" lon="12.004907023706297"><ele>784.0</ele><time>2026-05-03T08:19:52.999Z</time></trkpt><trkpt lat="45.91365383849924" lon="12.004933789877716"><ele>780.0</ele><time>2026-05-03T08:19:53.999Z</time></trkpt><trkpt lat="45.91375676156167" lon="12.004974063249204"><ele>782.2</ele><time>2026-05-03T08:19:54.999Z</time></trkpt><trkpt lat="45.913854305145215" lon="12.00504653542721"><ele>784.4</ele><time>2026-05-03T08:19:55.999Z</time></trkpt><trkpt lat="45.91389596507268" lon="12.005164911970411"><ele>786.5999999999999</ele><time>2026-05-03T08:19:56.999Z</time></trkpt><trkpt lat="45.91388364174087" lon="12.005294386932185"><ele>788.8</ele><time>2026-05-03T08:19:57.999Z</time></trkpt><trkpt lat="45.913880249815435" lon="12.00545412482936"><ele>791.0</ele><time>2026-05-03T08:19:58.999Z</time></trkpt><trkpt lat="45.9138698315706" lon="12.005652931865155"><ele>794.5</ele><time>2026-05-03T08:19:59.999Z</time></trkpt><trkpt lat="45.913853176303675" lon="12.00586178551549"><ele>798.0</ele><time>2026-05-03T08:20:00.999Z</time></trkpt><trkpt lat="45.91382975337266" lon="12.006074703791578"><ele>801.5</ele><time>2026-05-03T08:20:01.999Z</time></trkpt><trkpt lat="45.91380534882057" lon="12.006271269743765"><ele>805.0</ele><time>2026-05-03T08:20:02.999Z</time></trkpt><trkpt lat="45.91378922966794" lon="12.006444435069394"><ele>805.0</ele><time>2026-05-03T08:20:03.999Z</time></trkpt><trkpt lat="45.91371905835909" lon="12.006566309804976"><ele>805.0</ele><time>2026-05-03T08:20:04.999Z</time></trkpt><trkpt lat="45.91363182107977" lon="12.006659053900183"><ele>805.0</ele><time>2026-05-03T08:20:05.999Z</time></trkpt><trkpt lat="45.913531708593794" lon="12.006788499122193"><ele>805.0</ele><time>2026-05-03T08:20:06.999Z</time></trkpt><trkpt lat="45.91345366533085" lon="12.006947517161487"><ele>806.0</ele><time>2026-05-03T08:20:07.999Z</time></trkpt><trkpt lat="45.913373567642346" lon="12.007098631816772"><ele>807.0</ele><time>2026-05-03T08:20:08.999Z</time></trkpt><trkpt lat="45.913363704457446" lon="12.007280692520649"><ele>808.0</ele><time>2026-05-03T08:20:09.999Z</time></trkpt><trkpt lat="45.91335165101653" lon="12.00747128084131"><ele>809.0</ele><time>2026-05-03T08:20:10.999Z</time></trkpt><trkpt lat="45.91336208660251" lon="12.007671385469443"><ele>810.0</ele><time>2026-05-03T08:20:11.999Z</time></trkpt><trkpt lat="45.91337392883739" lon="12.007847444560614"><ele>811.0</ele><time>2026-05-03T08:20:12.999Z</time></trkpt><trkpt lat="45.91338077972214" lon="12.008006189361728"><ele>812.0</ele><time>2026-05-03T08:20:13.999Z</time></trkpt><trkpt lat="45.91340117225497" lon="12.008164726500038"><ele>813.0</ele><time>2026-05-03T08:20:14.999Z</time></trkpt><trkpt lat="45.913442464467686" lon="12.008331008819198"><ele>821.25</ele><time>2026-05-03T08:20:15.999Z</time></trkpt><trkpt lat="45.91349582167537" lon="12.008506353185412"><ele>829.5</ele><time>2026-05-03T08:20:16.999Z</time></trkpt><trkpt lat="45.91353627189975" lon="12.008697528957624"><ele>837.75</ele><time>2026-05-03T08:20:17.999Z</time></trkpt><trkpt lat="45.91357330716552" lon="12.008906182957183"><ele>846.0</ele><time>2026-05-03T08:20:18.999Z</time></trkpt><trkpt lat="45.91360483448471" lon="12.009130731559155"><ele>847.3333333333333</ele><time>2026-05-03T08:20:19.999Z</time></trkpt><trkpt lat="45.91361563654494" lon="12.009361965623354"><ele>848.6666666666666</ele><time>2026-05-03T08:20:20.999Z</time></trkpt><trkpt lat="45.913621691932654" lon="12.009580677595057"><ele>850.0</ele><time>2026-05-03T08:20:21.999Z</time></trkpt><trkpt lat="45.913624079571186" lon="12.009795132771679"><ele>852.0</ele><time>2026-05-03T08:20:22.999Z</time></trkpt><trkpt lat="45.91362100535317" lon="12.010020021072972"><ele>854.0</ele><time>2026-05-03T08:20:23.999Z</time></trkpt><trkpt lat="45.91360217569451" lon="12.010247232725947"><ele>856.0</ele><time>2026-05-03T08:20:24.999Z</time></trkpt><trkpt lat="45.91356359044004" lon="12.010473600663605"><ele>856.0</ele><time>2026-05-03T08:20:25.999Z</time></trkpt><trkpt lat="45.91353333573458" lon="12.0107070839659"><ele>856.0</ele><time>2026-05-03T08:20:26.999Z</time></trkpt><trkpt lat="45.913532643559456" lon="12.010955611177978"><ele>856.0</ele><time>2026-05-03T08:20:27.999Z</time></trkpt><trkpt lat="45.91354701234397" lon="12.011207917910278"><ele>859.0</ele><time>2026-05-03T08:20:28.999Z</time></trkpt><trkpt lat="45.91356418537768" lon="12.01144060010111"><ele>862.0</ele><time>2026-05-03T08:20:29.999Z</time></trkpt><trkpt lat="45.91358162544351" lon="12.011678324565548"><ele>865.0</ele><time>2026-05-03T08:20:30.999Z</time></trkpt><trkpt lat="45.913607225464844" lon="12.011916195361579"><ele>866.3333333333333</ele><time>2026-05-03T08:20:31.999Z</time></trkpt><trkpt lat="45.91364804134903" lon="12.012159704673586"><ele>867.6666666666667</ele><time>2026-05-03T08:20:32.999Z</time></trkpt><trkpt lat="45.91369579487309" lon="12.01239756652466"><ele>869.0</ele><time>2026-05-03T08:20:33.999Z</time></trkpt><trkpt lat="45.913744613719345" lon="12.012633672551354"><ele>868.6666666666667</ele><time>2026-05-03T08:20:34.999Z</time></trkpt><trkpt lat="45.91379014130778" lon="12.01286960771657"><ele>868.3333333333333</ele><time>2026-05-03T08:20:35.999Z</time></trkpt><trkpt lat="45.91383850542403" lon="12.013099730482354"><ele>868.0</ele><time>2026-05-03T08:20:36.999Z</time></trkpt><trkpt lat="45.91389620851913" lon="12.013328019617163"><ele>868.0</ele><time>2026-05-03T08:20:37.999Z</time></trkpt><trkpt lat="45.91396091739704" lon="12.013551399258011"><ele>868.0</ele><time>2026-05-03T08:20:38.999Z</time></trkpt><trkpt lat="45.91403553151481" lon="12.013771995572595"><ele>868.0</ele><time>2026-05-03T08:20:39.999Z</time></trkpt><trkpt lat="45.9141275005762" lon="12.013985314886657"><ele>864.3333333333333</ele><time>2026-05-03T08:20:40.999Z</time></trkpt><trkpt lat="45.914230258603666" lon="12.01419377398698"><ele>860.6666666666667</ele><time>2026-05-03T08:20:41.999Z</time></trkpt><trkpt lat="45.91431776594854" lon="12.014382733579714"><ele>857.0</ele><time>2026-05-03T08:20:42.999Z</time></trkpt><trkpt lat="45.9143931608644" lon="12.014547001227237"><ele>864.2</ele><time>2026-05-03T08:20:43.999Z</time></trkpt><trkpt lat="45.91445776744831" lon="12.0146918386731"><ele>871.4000000000001</ele><time>2026-05-03T08:20:44.999Z</time></trkpt><trkpt lat="45.91449285071967" lon="12.014799399589126"><ele>878.5999999999999</ele><time>2026-05-03T08:20:45.999Z</time></trkpt><trkpt lat="45.91454256713551" lon="12.014898440281092"><ele>885.8</ele><time>2026-05-03T08:20:47.999Z</time></trkpt><trkpt lat="45.914637697948514" lon="12.014852198166542"><ele>893.0</ele><time>2026-05-03T08:20:49.999Z</time></trkpt><trkpt lat="45.91468833658906" lon="12.014685786269599"><ele>893.0</ele><time>2026-05-03T08:20:51.999Z</time></trkpt><trkpt lat="45.9146808239865" lon="12.014567081457317"><ele>893.0</ele><time>2026-05-03T08:20:52.999Z</time></trkpt><trkpt lat="45.914648818463384" lon="12.014445198778741"><ele>893.0</ele><time>2026-05-03T08:20:53.999Z</time></trkpt><trkpt lat="45.914581364763556" lon="12.014333020377325"><ele>893.0</ele><time>2026-05-03T08:20:54.999Z</time></trkpt><trkpt lat="45.914495812236474" lon="12.014217097916822"><ele>893.0</ele><time>2026-05-03T08:20:55.999Z</time></trkpt><trkpt lat="45.91445656661366" lon="12.014052274011155"><ele>896.5</ele><time>2026-05-03T08:20:56.999Z</time></trkpt><trkpt lat="45.91441417246034" lon="12.013902383807713"><ele>900.0</ele><time>2026-05-03T08:20:57.999Z</time></trkpt><trkpt lat="45.91438715371968" lon="12.01374631634747"><ele>903.5</ele><time>2026-05-03T08:20:58.999Z</time></trkpt><trkpt lat="45.91436829478881" lon="12.013579399562184"><ele>907.0</ele><time>2026-05-03T08:20:59.999Z</time></trkpt><trkpt lat="45.91435444553808" lon="12.013404345213349"><ele>907.5</ele><time>2026-05-03T08:21:00.999Z</time></trkpt><trkpt lat="45.91434788797975" lon="12.01321506360424"><ele>908.0</ele><time>2026-05-03T08:21:01.999Z</time></trkpt><trkpt lat="45.914342000634" lon="12.013002120497333"><ele>908.5</ele><time>2026-05-03T08:21:02.999Z</time></trkpt><trkpt lat="45.91434205013907" lon="12.012785543147604"><ele>909.0</ele><time>2026-05-03T08:21:03.999Z</time></trkpt><trkpt lat="45.91435094173724" lon="12.012558235942064"><ele>907.5</ele><time>2026-05-03T08:21:04.999Z</time></trkpt><trkpt lat="45.91436929940616" lon="12.012344602503278"><ele>906.0</ele><time>2026-05-03T08:21:05.999Z</time></trkpt><trkpt lat="45.91439012413624" lon="12.012136196101277"><ele>904.5</ele><time>2026-05-03T08:21:06.999Z</time></trkpt><trkpt lat="45.91441712749214" lon="12.011933280608659"><ele>903.0</ele><time>2026-05-03T08:21:07.999Z</time></trkpt><trkpt lat="45.91444659736196" lon="12.011720235068914"><ele>901.25</ele><time>2026-05-03T08:21:08.999Z</time></trkpt><trkpt lat="45.91447926852248" lon="12.011516535297238"><ele>899.5</ele><time>2026-05-03T08:21:09.999Z</time></trkpt><trkpt lat="45.91452200695234" lon="12.011330789257201"><ele>897.75</ele><time>2026-05-03T08:21:10.999Z</time></trkpt><trkpt lat="45.914578128034314" lon="12.01115886189607"><ele>896.0</ele><time>2026-05-03T08:21:11.999Z</time></trkpt><trkpt lat="45.91465191585424" lon="12.010985191162108"><ele>893.3333333333334</ele><time>2026-05-03T08:21:12.999Z</time></trkpt><trkpt lat="45.91473319279448" lon="12.010815068873402"><ele>890.6666666666667</ele><time>2026-05-03T08:21:13.999Z</time></trkpt><trkpt lat="45.9148221064229" lon="12.010641471770791"><ele>888.0</ele><time>2026-05-03T08:21:14.999Z</time></trkpt><trkpt lat="45.91491798396337" lon="12.010461585215133"><ele>888.0</ele><time>2026-05-03T08:21:15.999Z</time></trkpt><trkpt lat="45.91501550801233" lon="12.01027877582901"><ele>888.0</ele><time>2026-05-03T08:21:16.999Z</time></trkpt><trkpt lat="45.915108936336324" lon="12.010102108472154"><ele>888.0</ele><time>2026-05-03T08:21:17.999Z</time></trkpt><trkpt lat="45.9152061316553" lon="12.00991883195203"><ele>893.0</ele><time>2026-05-03T08:21:18.999Z</time></trkpt><trkpt lat="45.915306436512275" lon="12.009743004739121"><ele>898.0</ele><time>2026-05-03T08:21:19.999Z</time></trkpt><trkpt lat="45.91541669887535" lon="12.0095797509573"><ele>903.0</ele><time>2026-05-03T08:21:20.999Z</time></trkpt><trkpt lat="45.91552408083336" lon="12.009427565412686"><ele>903.0</ele><time>2026-05-03T08:21:21.999Z</time></trkpt><trkpt lat="45.915605129006444" lon="12.009281163821484"><ele>903.0</ele><time>2026-05-03T08:21:22.999Z</time></trkpt><trkpt lat="45.91569796347221" lon="12.009194012714863"><ele>903.0</ele><time>2026-05-03T08:21:23.999Z</time></trkpt><trkpt lat="45.91579112767314" lon="12.009124003193392"><ele>903.0</ele><time>2026-05-03T08:21:24.999Z</time></trkpt><trkpt lat="45.91590412843838" lon="12.009087800949136"><ele>898.25</ele><time>2026-05-03T08:21:25.999Z</time></trkpt><trkpt lat="45.916033134726035" lon="12.009054948657356"><ele>893.5</ele><time>2026-05-03T08:21:27Z</time></trkpt><trkpt lat="45.916165382688014" lon="12.009023662480306"><ele>888.75</ele><time>2026-05-03T08:21:28Z</time></trkpt><trkpt lat="45.91628208271302" lon="12.009001609181977"><ele>884.0</ele><time>2026-05-03T08:21:29Z</time></trkpt><trkpt lat="45.91638770177348" lon="12.00899451151294"><ele>884.0</ele><time>2026-05-03T08:21:30Z</time></trkpt><trkpt lat="45.91647575742952" lon="12.009039795759524"><ele>884.0</ele><time>2026-05-03T08:21:31Z</time></trkpt><trkpt lat="45.91657330687351" lon="12.00911647190787"><ele>884.0</ele><time>2026-05-03T08:21:32Z</time></trkpt><trkpt lat="45.91669890802293" lon="12.009185493216181"><ele>884.0</ele><time>2026-05-03T08:21:33Z</time></trkpt><trkpt lat="45.91683197365585" lon="12.009279174367629"><ele>891.3333333333334</ele><time>2026-05-03T08:21:34Z</time></trkpt><trkpt lat="45.91697722516476" lon="12.009360556274002"><ele>898.6666666666667</ele><time>2026-05-03T08:21:35Z</time></trkpt><trkpt lat="45.91712740876339" lon="12.009423050451018"><ele>906.0</ele><time>2026-05-03T08:21:36Z</time></trkpt><trkpt lat="45.91727100368243" lon="12.009466736428585"><ele>906.0</ele><time>2026-05-03T08:21:37Z</time></trkpt><trkpt lat="45.91742196814209" lon="12.009502805728376"><ele>906.0</ele><time>2026-05-03T08:21:38Z</time></trkpt><trkpt lat="45.91753995978338" lon="12.009600720465901"><ele>906.0</ele><time>2026-05-03T08:21:39Z</time></trkpt><trkpt lat="45.91763107109482" lon="12.009698514449699"><ele>906.0</ele><time>2026-05-03T08:21:40Z</time></trkpt><trkpt lat="45.91769207453092" lon="12.009810715737082"><ele>907.5</ele><time>2026-05-03T08:21:41Z</time></trkpt><trkpt lat="45.917733884551055" lon="12.009955108504982"><ele>909.0</ele><time>2026-05-03T08:21:42Z</time></trkpt><trkpt lat="45.917790844678194" lon="12.010120202835154"><ele>910.5</ele><time>2026-05-03T08:21:43Z</time></trkpt><trkpt lat="45.91785744447822" lon="12.01026406961807"><ele>912.0</ele><time>2026-05-03T08:21:44Z</time></trkpt><trkpt lat="45.917968938593056" lon="12.010332682727233"><ele>912.0</ele><time>2026-05-03T08:21:45Z</time></trkpt><trkpt lat="45.918090583954054" lon="12.010360311799925"><ele>912.0</ele><time>2026-05-03T08:21:46Z</time></trkpt><trkpt lat="45.91819435328082" lon="12.01039093961471"><ele>912.0</ele><time>2026-05-03T08:21:47Z</time></trkpt><trkpt lat="45.918269979627084" lon="12.010437221966487"><ele>912.0</ele><time>2026-05-03T08:21:48Z</time></trkpt><trkpt lat="45.9183183125472" lon="12.010512977542053"><ele>912.0</ele><time>2026-05-03T08:21:49Z</time></trkpt><trkpt lat="45.918313257724286" lon="12.010634092629031"><ele>912.0</ele><time>2026-05-03T08:21:50Z</time></trkpt><trkpt lat="45.91834213170799" lon="12.010748569602924"><ele>912.0</ele><time>2026-05-03T08:21:51Z</time></trkpt><trkpt lat="45.918396528129044" lon="12.010880698605558"><ele>912.0</ele><time>2026-05-03T08:21:52Z</time></trkpt><trkpt lat="45.91846794758693" lon="12.011020534775056"><ele>912.0</ele><time>2026-05-03T08:21:53Z</time></trkpt><trkpt lat="45.918564487906885" lon="12.011116485499283"><ele>912.0</ele><time>2026-05-03T08:21:54Z</time></trkpt><trkpt lat="45.91868173891124" lon="12.011168821286036"><ele>914.5</ele><time>2026-05-03T08:21:55Z</time></trkpt><trkpt lat="45.91881199250178" lon="12.011191541538542"><ele>917.0</ele><time>2026-05-03T08:21:56Z</time></trkpt><trkpt lat="45.918953835813035" lon="12.01121148287083"><ele>919.5</ele><time>2026-05-03T08:21:57Z</time></trkpt><trkpt lat="45.91906710318152" lon="12.011282709835845"><ele>922.0</ele><time>2026-05-03T08:21:58Z</time></trkpt><trkpt lat="45.91916767744275" lon="12.011397560666012"><ele>920.2</ele><time>2026-05-03T08:21:59Z</time></trkpt><trkpt lat="45.91927603367869" lon="12.011487424602027"><ele>918.4000000000001</ele><time>2026-05-03T08:22:00Z</time></trkpt><trkpt lat="45.91936389578585" lon="12.011575717985659"><ele>916.5999999999999</ele><time>2026-05-03T08:22:01Z</time></trkpt><trkpt lat="45.91944603999703" lon="12.011612726824906"><ele>914.8</ele><time>2026-05-03T08:22:02Z</time></trkpt><trkpt lat="45.919496454187225" lon="12.01167895823244"><ele>913.0</ele><time>2026-05-03T08:22:03Z</time></trkpt><trkpt lat="45.9195257811759" lon="12.011823694968102"><ele>914.8</ele><time>2026-05-03T08:22:05Z</time></trkpt><trkpt lat="45.91947232529292" lon="12.011893155807124"><ele>916.5999999999999</ele><time>2026-05-03T08:22:06Z</time></trkpt><trkpt lat="45.91939458335446" lon="12.011893889015559"><ele>918.4000000000001</ele><time>2026-05-03T08:22:07Z</time></trkpt><trkpt lat="45.91932809055139" lon="12.011784693049945"><ele>920.2</ele><time>2026-05-03T08:22:08Z</time></trkpt><trkpt lat="45.91923053723459" lon="12.011687496414588"><ele>922.0</ele><time>2026-05-03T08:22:09Z</time></trkpt><trkpt lat="45.91911337154424" lon="12.01158617845752"><ele>922.0</ele><time>2026-05-03T08:22:10Z</time></trkpt><trkpt lat="45.91898618647626" lon="12.011491257558028"><ele>922.0</ele><time>2026-05-03T08:22:11Z</time></trkpt><trkpt lat="45.918858540865465" lon="12.011450888375546"><ele>922.0</ele><time>2026-05-03T08:22:12Z</time></trkpt><trkpt lat="45.91871905639163" lon="12.011412073912654"><ele>922.0</ele><time>2026-05-03T08:22:13Z</time></trkpt><trkpt lat="45.91857174296973" lon="12.011437131216908"><ele>922.0</ele><time>2026-05-03T08:22:14Z</time></trkpt><trkpt lat="45.9184213384871" lon="12.011452630134668"><ele>922.0</ele><time>2026-05-03T08:22:15Z</time></trkpt><trkpt lat="45.918275876323364" lon="12.01145430868673"><ele>922.0</ele><time>2026-05-03T08:22:16Z</time></trkpt><trkpt lat="45.91812100272088" lon="12.011431475658046"><ele>927.6666666666666</ele><time>2026-05-03T08:22:17Z</time></trkpt><trkpt lat="45.91797902382167" lon="12.011348632024742"><ele>933.3333333333333</ele><time>2026-05-03T08:22:18Z</time></trkpt><trkpt lat="45.91782958436907" lon="12.011280787543535"><ele>939.0</ele><time>2026-05-03T08:22:19Z</time></trkpt><trkpt lat="45.917676600503924" lon="12.011213078889426"><ele>942.75</ele><time>2026-05-03T08:22:20Z</time></trkpt><trkpt lat="45.917527661557735" lon="12.01114572613316"><ele>946.5</ele><time>2026-05-03T08:22:21Z</time></trkpt><trkpt lat="45.91739238203844" lon="12.011078390793182"><ele>950.25</ele><time>2026-05-03T08:22:22Z</time></trkpt><trkpt lat="45.917269448368984" lon="12.011023301973106"><ele>954.0</ele><time>2026-05-03T08:22:23Z</time></trkpt><trkpt lat="45.91716880592356" lon="12.010950433544439"><ele>954.0</ele><time>2026-05-03T08:22:24Z</time></trkpt><trkpt lat="45.917087441390734" lon="12.010901969202472"><ele>954.0000000000001</ele><time>2026-05-03T08:22:25Z</time></trkpt><trkpt lat="45.91698988868927" lon="12.010926403355874"><ele>954.0000000000001</ele><time>2026-05-03T08:22:26Z</time></trkpt><trkpt lat="45.91692121859953" lon="12.011063270416933"><ele>954.0</ele><time>2026-05-03T08:22:27Z</time></trkpt><trkpt lat="45.91685046305195" lon="12.011217191279151"><ele>954.0</ele><time>2026-05-03T08:22:27.999Z</time></trkpt><trkpt lat="45.916781131173586" lon="12.01140674550646"><ele>953.75</ele><time>2026-05-03T08:22:28.999Z</time></trkpt><trkpt lat="45.91671320193632" lon="12.0116015553203"><ele>953.5</ele><time>2026-05-03T08:22:29.999Z</time></trkpt><trkpt lat="45.91669434634587" lon="12.011814390869835"><ele>953.25</ele><time>2026-05-03T08:22:30.999Z</time></trkpt><trkpt lat="45.91668284187121" lon="12.012024984910195"><ele>953.0</ele><time>2026-05-03T08:22:31.999Z</time></trkpt><trkpt lat="45.91667995962445" lon="12.012225426239894"><ele>956.75</ele><time>2026-05-03T08:22:32.999Z</time></trkpt><trkpt lat="45.91670002099505" lon="12.012387700333653"><ele>960.5</ele><time>2026-05-03T08:22:33.999Z</time></trkpt><trkpt lat="45.91671345436923" lon="12.012536396877042"><ele>964.25</ele><time>2026-05-03T08:22:34.999Z</time></trkpt><trkpt lat="45.91675202243085" lon="12.012695129932514"><ele>968.0</ele><time>2026-05-03T08:22:35.999Z</time></trkpt><trkpt lat="45.916817095819226" lon="12.012850513552568"><ele>972.5</ele><time>2026-05-03T08:22:36.999Z</time></trkpt><trkpt lat="45.916904279205184" lon="12.012996959400898"><ele>977.0</ele><time>2026-05-03T08:22:37.999Z</time></trkpt><trkpt lat="45.91700126288366" lon="12.013135970617906"><ele>981.5</ele><time>2026-05-03T08:22:38.999Z</time></trkpt><trkpt lat="45.91710696931927" lon="12.01325694166794"><ele>986.0</ele><time>2026-05-03T08:22:39.999Z</time></trkpt><trkpt lat="45.91722343800416" lon="12.013362557804122"><ele>986.0</ele><time>2026-05-03T08:22:40.999Z</time></trkpt><trkpt lat="45.917345424364775" lon="12.01346297278851"><ele>986.0</ele><time>2026-05-03T08:22:41.999Z</time></trkpt><trkpt lat="45.917477266329" lon="12.013557405509049"><ele>986.0</ele><time>2026-05-03T08:22:42.999Z</time></trkpt><trkpt lat="45.91761943562079" lon="12.013649982757524"><ele>986.0</ele><time>2026-05-03T08:22:43.999Z</time></trkpt><trkpt lat="45.917765961966985" lon="12.013737841397472"><ele>989.6666666666667</ele><time>2026-05-03T08:22:44.999Z</time></trkpt><trkpt lat="45.917923524516105" lon="12.013832921593991"><ele>993.3333333333333</ele><time>2026-05-03T08:22:45.999Z</time></trkpt><trkpt lat="45.91806863224229" lon="12.013922687931844"><ele>997.0</ele><time>2026-05-03T08:22:46.999Z</time></trkpt><trkpt lat="45.91818932303502" lon="12.014010675747745"><ele>997.0</ele><time>2026-05-03T08:22:47.999Z</time></trkpt><trkpt lat="45.91826612549761" lon="12.014152867002386"><ele>997.0</ele><time>2026-05-03T08:22:48.999Z</time></trkpt><trkpt lat="45.9183379279604" lon="12.014309260187812"><ele>997.0</ele><time>2026-05-03T08:22:49.999Z</time></trkpt><trkpt lat="45.91835162021695" lon="12.014498934695865"><ele>997.0</ele><time>2026-05-03T08:22:50.999Z</time></trkpt><trkpt lat="45.918343657797" lon="12.014682145585097"><ele>997.25</ele><time>2026-05-03T08:22:51.999Z</time></trkpt><trkpt lat="45.91832100980376" lon="12.014864363928892"><ele>997.5</ele><time>2026-05-03T08:22:52.999Z</time></trkpt><trkpt lat="45.918321244819566" lon="12.015062576923352"><ele>997.75</ele><time>2026-05-03T08:22:53.999Z</time></trkpt><trkpt lat="45.91831908235493" lon="12.015251766213364"><ele>998.0</ele><time>2026-05-03T08:22:54.999Z</time></trkpt><trkpt lat="45.91839297857642" lon="12.015418497378109"><ele>1003.0</ele><time>2026-05-03T08:22:55.999Z</time></trkpt><trkpt lat="45.9184823261251" lon="12.01555478012072"><ele>1008.0</ele><time>2026-05-03T08:22:56.999Z</time></trkpt><trkpt lat="45.918597444845204" lon="12.015652793886806"><ele>1013.0</ele><time>2026-05-03T08:22:57.999Z</time></trkpt><trkpt lat="45.91873107049987" lon="12.01573520482367"><ele>1018.0</ele><time>2026-05-03T08:22:58.999Z</time></trkpt><trkpt lat="45.91887981060173" lon="12.015785402527328"><ele>1016.0</ele><time>2026-05-03T08:22:59.999Z</time></trkpt><trkpt lat="45.91902703293499" lon="12.015846935535707"><ele>1014.0</ele><time>2026-05-03T08:23:00.999Z</time></trkpt><trkpt lat="45.91918198408755" lon="12.015924237195467"><ele>1012.0</ele><time>2026-05-03T08:23:01.999Z</time></trkpt><trkpt lat="45.91933351112453" lon="12.016010185875666"><ele>1015.5</ele><time>2026-05-03T08:23:02.999Z</time></trkpt><trkpt lat="45.919475410719876" lon="12.016107599163947"><ele>1019.0</ele><time>2026-05-03T08:23:03.999Z</time></trkpt><trkpt lat="45.91958252166871" lon="12.016235656545035"><ele>1022.5</ele><time>2026-05-03T08:23:04.999Z</time></trkpt><trkpt lat="45.919691655015434" lon="12.01635544666232"><ele>1026.0</ele><time>2026-05-03T08:23:05.999Z</time></trkpt><trkpt lat="45.91979846890179" lon="12.016471359113654"><ele>1026.0</ele><time>2026-05-03T08:23:06.999Z</time></trkpt><trkpt lat="45.91990058926271" lon="12.01655732271385"><ele>1026.0</ele><time>2026-05-03T08:23:07.999Z</time></trkpt><trkpt lat="45.91999017002959" lon="12.016624017079714"><ele>1026.0</ele><time>2026-05-03T08:23:08.999Z</time></trkpt><trkpt lat="45.92007477521367" lon="12.016604637315712"><ele>1026.0</ele><time>2026-05-03T08:23:09.999Z</time></trkpt><trkpt lat="45.920145864935236" lon="12.01651922708707"><ele>1026.0</ele><time>2026-05-03T08:23:10.999Z</time></trkpt><trkpt lat="45.920180842170495" lon="12.016382358301158"><ele>1026.0</ele><time>2026-05-03T08:23:11.999Z</time></trkpt><trkpt lat="45.92015675806809" lon="12.016237044580881"><ele>1026.0</ele><time>2026-05-03T08:23:12.999Z</time></trkpt><trkpt lat="45.9200862691088" lon="12.016112508158661"><ele>1026.0</ele><time>2026-05-03T08:23:13.999Z</time></trkpt><trkpt lat="45.919970666526766" lon="12.016013171548014"><ele>1026.0</ele><time>2026-05-03T08:23:14.999Z</time></trkpt><trkpt lat="45.919842506923835" lon="12.015911116042185"><ele>1027.6666666666667</ele><time>2026-05-03T08:23:15.999Z</time></trkpt><trkpt lat="45.919708244529545" lon="12.015791904352998"><ele>1029.3333333333335</ele><time>2026-05-03T08:23:16.999Z</time></trkpt><trkpt lat="45.91958102229514" lon="12.01566946081799"><ele>1031.0</ele><time>2026-05-03T08:23:17.999Z</time></trkpt><trkpt lat="45.91944592237828" lon="12.015542538398774"><ele>1031.0</ele><time>2026-05-03T08:23:18.999Z</time></trkpt><trkpt lat="45.91932746660086" lon="12.015422708210803"><ele>1031.0</ele><time>2026-05-03T08:23:19.999Z</time></trkpt><trkpt lat="45.91923932096517" lon="12.015333949271959"><ele>1031.0</ele><time>2026-05-03T08:23:20.999Z</time></trkpt><trkpt lat="45.91921347050138" lon="12.015230152070497"><ele>1031.0</ele><time>2026-05-03T08:23:21.999Z</time></trkpt><trkpt lat="45.919272421338185" lon="12.015076283028987"><ele>1031.0</ele><time>2026-05-03T08:23:23.999Z</time></trkpt><trkpt lat="45.919344601000134" lon="12.015064594286828"><ele>1031.0</ele><time>2026-05-03T08:23:24.999Z</time></trkpt><trkpt lat="45.91942510989802" lon="12.015112481372814"><ele>1031.0</ele><time>2026-05-03T08:23:25.999Z</time></trkpt><trkpt lat="45.91952211732407" lon="12.015164883727119"><ele>1031.0</ele><time>2026-05-03T08:23:26.999Z</time></trkpt><trkpt lat="45.91963956144528" lon="12.015217493265368"><ele>1031.0</ele><time>2026-05-03T08:23:27.999Z</time></trkpt><trkpt lat="45.919760922098526" lon="12.015286620403081"><ele>1031.0</ele><time>2026-05-03T08:23:28.999Z</time></trkpt><trkpt lat="45.91988374356031" lon="12.01534031660712"><ele>1031.0</ele><time>2026-05-03T08:23:29.999Z</time></trkpt><trkpt lat="45.92001032278255" lon="12.01539126546418"><ele>1031.0</ele><time>2026-05-03T08:23:30.999Z</time></trkpt><trkpt lat="45.92012979736633" lon="12.01542504734364"><ele>1031.0</ele><time>2026-05-03T08:23:31.999Z</time></trkpt><trkpt lat="45.92024906368535" lon="12.015460157337555"><ele>1032.75</ele><time>2026-05-03T08:23:33Z</time></trkpt><trkpt lat="45.9203666816919" lon="12.01549193521245"><ele>1034.5</ele><time>2026-05-03T08:23:34Z</time></trkpt><trkpt lat="45.92049157335811" lon="12.01548391863283"><ele>1036.25</ele><time>2026-05-03T08:23:35Z</time></trkpt><trkpt lat="45.920623510461375" lon="12.015446077331092"><ele>1038.0</ele><time>2026-05-03T08:23:36Z</time></trkpt><trkpt lat="45.92075391855804" lon="12.015418132304376"><ele>1038.0</ele><time>2026-05-03T08:23:37Z</time></trkpt><trkpt lat="45.920873636389665" lon="12.01525916100238"><ele>1038.0</ele><time>2026-05-03T08:23:38Z</time></trkpt><trkpt lat="45.92100747710849" lon="12.015216717127087"><ele>1038.0</ele><time>2026-05-03T08:23:39Z</time></trkpt><trkpt lat="45.921143921916105" lon="12.015252488420563"><ele>1038.0</ele><time>2026-05-03T08:23:40Z</time></trkpt><trkpt lat="45.92128484310876" lon="12.015282946670995"><ele>1039.3333333333333</ele><time>2026-05-03T08:23:41Z</time></trkpt><trkpt lat="45.921433741989745" lon="12.015314107497526"><ele>1040.6666666666665</ele><time>2026-05-03T08:23:42Z</time></trkpt><trkpt lat="45.92158171450431" lon="12.015346077968665"><ele>1042.0</ele><time>2026-05-03T08:23:43Z</time></trkpt><trkpt lat="45.92173459372258" lon="12.015389612745995"><ele>1044.75</ele><time>2026-05-03T08:23:44Z</time></trkpt><trkpt lat="45.921882878277835" lon="12.015409759219683"><ele>1047.5</ele><time>2026-05-03T08:23:45Z</time></trkpt><trkpt lat="45.92202293737267" lon="12.01547286825235"><ele>1050.25</ele><time>2026-05-03T08:23:46Z</time></trkpt><trkpt lat="45.92217251604637" lon="12.015515526888008"><ele>1053.0</ele><time>2026-05-03T08:23:47Z</time></trkpt><trkpt lat="45.92231692055312" lon="12.015536318318793"><ele>1053.0</ele><time>2026-05-03T08:23:48Z</time></trkpt><trkpt lat="45.922457513391535" lon="12.015547430850706"><ele>1053.0</ele><time>2026-05-03T08:23:49Z</time></trkpt><trkpt lat="45.9226088772678" lon="12.015499040968832"><ele>1053.0</ele><time>2026-05-03T08:23:50Z</time></trkpt><trkpt lat="45.922754366510475" lon="12.015425353592867"><ele>1056.3333333333333</ele><time>2026-05-03T08:23:51Z</time></trkpt><trkpt lat="45.9229120614509" lon="12.015447613922804"><ele>1059.6666666666665</ele><time>2026-05-03T08:23:52Z</time></trkpt><trkpt lat="45.923064027574355" lon="12.0154407920775"><ele>1063.0</ele><time>2026-05-03T08:23:53Z</time></trkpt><trkpt lat="45.92320894216442" lon="12.015435822059636"><ele>1063.0</ele><time>2026-05-03T08:23:54Z</time></trkpt><trkpt lat="45.92334829085521" lon="12.015349442518326"><ele>1063.0</ele><time>2026-05-03T08:23:55Z</time></trkpt><trkpt lat="45.923473618324635" lon="12.015207103032258"><ele>1063.0</ele><time>2026-05-03T08:23:56Z</time></trkpt><trkpt lat="45.92360576901897" lon="12.015084477992268"><ele>1064.8</ele><time>2026-05-03T08:23:57Z</time></trkpt><trkpt lat="45.92373554216009" lon="12.01506383681353"><ele>1066.6</ele><time>2026-05-03T08:23:58Z</time></trkpt><trkpt lat="45.92386245972631" lon="12.015065033738335"><ele>1068.4</ele><time>2026-05-03T08:23:59Z</time></trkpt><trkpt lat="45.92396483910477" lon="12.015093792761018"><ele>1070.2</ele><time>2026-05-03T08:24:00Z</time></trkpt><trkpt lat="45.924036288609" lon="12.015148556601932"><ele>1072.0</ele><time>2026-05-03T08:24:01Z</time></trkpt><trkpt lat="45.92410386676592" lon="12.015263358317616"><ele>1072.0</ele><time>2026-05-03T08:24:02Z</time></trkpt><trkpt lat="45.924192990302956" lon="12.015387426671321"><ele>1072.0</ele><time>2026-05-03T08:24:03Z</time></trkpt><trkpt lat="45.92427610650482" lon="12.015500016598883"><ele>1072.0</ele><time>2026-05-03T08:24:04Z</time></trkpt><trkpt lat="45.92424981587149" lon="12.015636408856126"><ele>1072.0</ele><time>2026-05-03T08:24:05Z</time></trkpt><trkpt lat="45.92421647151977" lon="12.015747752725666"><ele>1072.0</ele><time>2026-05-03T08:24:06Z</time></trkpt><trkpt lat="45.92421296328542" lon="12.015852220809993"><ele>1074.8</ele><time>2026-05-03T08:24:07Z</time></trkpt><trkpt lat="45.92424172502841" lon="12.015976745739597"><ele>1077.6</ele><time>2026-05-03T08:24:08Z</time></trkpt><trkpt lat="45.92431491809834" lon="12.016037842058344"><ele>1080.3999999999999</ele><time>2026-05-03T08:24:09Z</time></trkpt><trkpt lat="45.92440897657455" lon="12.01610296616254"><ele>1083.2</ele><time>2026-05-03T08:24:11Z</time></trkpt><trkpt lat="45.924445221226144" lon="12.0161937905685"><ele>1086.0</ele><time>2026-05-03T08:24:13Z</time></trkpt><trkpt lat="45.924383169023024" lon="12.016348210452321"><ele>1086.0</ele><time>2026-05-03T08:24:15Z</time></trkpt><trkpt lat="45.92430720009528" lon="12.016364767694087"><ele>1086.0</ele><time>2026-05-03T08:24:16Z</time></trkpt><trkpt lat="45.92422866857776" lon="12.01646043883227"><ele>1086.0</ele><time>2026-05-03T08:24:18Z</time></trkpt><trkpt lat="45.92412603443312" lon="12.016552171619935"><ele>1086.0</ele><time>2026-05-03T08:24:20Z</time></trkpt><trkpt lat="45.92402447616826" lon="12.016640114684076"><ele>1086.0</ele><time>2026-05-03T08:24:22Z</time></trkpt><trkpt lat="45.92394941738958" lon="12.01671863856866"><ele>1085.8333333333333</ele><time>2026-05-03T08:24:24Z</time></trkpt><trkpt lat="45.92389233325672" lon="12.016759419209798"><ele>1085.6666666666667</ele><time>2026-05-03T08:24:26Z</time></trkpt><trkpt lat="45.92382372718767" lon="12.01679937454447"><ele>1085.5</ele><time>2026-05-03T08:24:30Z</time></trkpt><trkpt lat="45.92378554224832" lon="12.016887815904811"><ele>1085.3333333333335</ele><time>2026-05-03T08:24:35Z</time></trkpt><trkpt lat="45.92385390513735" lon="12.01700026015042"><ele>1085.1666666666667</ele><time>2026-05-03T08:24:47Z</time></trkpt><trkpt lat="45.9239122208341" lon="12.01715078296811"><ele>1085.0</ele><time>2026-05-03T08:24:49Z</time></trkpt><trkpt lat="45.92393328106233" lon="12.017253247000275"><ele>1085.0</ele><time>2026-05-03T08:24:50Z</time></trkpt><trkpt lat="45.92393563618579" lon="12.017354886652148"><ele>1085.0</ele><time>2026-05-03T08:24:51Z</time></trkpt><trkpt lat="45.923934649972686" lon="12.01746729674329"><ele>1085.0</ele><time>2026-05-03T08:24:52Z</time></trkpt><trkpt lat="45.92393080453112" lon="12.01758959901446"><ele>1085.0</ele><time>2026-05-03T08:24:53Z</time></trkpt><trkpt lat="45.92391735063708" lon="12.017720692790641"><ele>1085.0</ele><time>2026-05-03T08:24:54Z</time></trkpt><trkpt lat="45.9238939503368" lon="12.017852245894343"><ele>1085.0</ele><time>2026-05-03T08:24:55Z</time></trkpt><trkpt lat="45.92386254380056" lon="12.01798820560581"><ele>1086.0</ele><time>2026-05-03T08:24:56Z</time></trkpt><trkpt lat="45.92382587980081" lon="12.018138579955403"><ele>1087.0</ele><time>2026-05-03T08:24:57Z</time></trkpt><trkpt lat="45.92378747133361" lon="12.018299518206"><ele>1088.0</ele><time>2026-05-03T08:24:58Z</time></trkpt><trkpt lat="45.92375580524042" lon="12.018456553520497"><ele>1089.0</ele><time>2026-05-03T08:24:59Z</time></trkpt><trkpt lat="45.92374070833356" lon="12.018612159119286"><ele>1090.8</ele><time>2026-05-03T08:25:00Z</time></trkpt><trkpt lat="45.92370970996922" lon="12.018768470715449"><ele>1092.6000000000001</ele><time>2026-05-03T08:25:01Z</time></trkpt><trkpt lat="45.92369543596498" lon="12.018922798814103"><ele>1094.4</ele><time>2026-05-03T08:25:02Z</time></trkpt><trkpt lat="45.92368412059447" lon="12.019065612181471"><ele>1096.2</ele><time>2026-05-03T08:25:03Z</time></trkpt><trkpt lat="45.923636440942126" lon="12.0191910154009"><ele>1098.0</ele><time>2026-05-03T08:25:03.999Z</time></trkpt><trkpt lat="45.923548180059655" lon="12.019270253994646"><ele>1096.0</ele><time>2026-05-03T08:25:04.999Z</time></trkpt><trkpt lat="45.923465119952446" lon="12.019371153676111"><ele>1094.0</ele><time>2026-05-03T08:25:05.999Z</time></trkpt><trkpt lat="45.92337586651434" lon="12.019483120805292"><ele>1092.0</ele><time>2026-05-03T08:25:06.999Z</time></trkpt><trkpt lat="45.92330623945108" lon="12.019620796748775"><ele>1090.0</ele><time>2026-05-03T08:25:07.999Z</time></trkpt><trkpt lat="45.92321987819995" lon="12.019739395220348"><ele>1090.0</ele><time>2026-05-03T08:25:08.999Z</time></trkpt><trkpt lat="45.92313871333374" lon="12.01985789970593"><ele>1090.0</ele><time>2026-05-03T08:25:09.999Z</time></trkpt><trkpt lat="45.923086853924765" lon="12.019994945894032"><ele>1090.0</ele><time>2026-05-03T08:25:10.999Z</time></trkpt><trkpt lat="45.923032300610366" lon="12.020142008382123"><ele>1090.0</ele><time>2026-05-03T08:25:11.999Z</time></trkpt><trkpt lat="45.92298254478411" lon="12.020304730895534"><ele>1093.5</ele><time>2026-05-03T08:25:12.999Z</time></trkpt><trkpt lat="45.922929095931835" lon="12.020456662517129"><ele>1097.0</ele><time>2026-05-03T08:25:13.999Z</time></trkpt><trkpt lat="45.92288462000469" lon="12.020616565868016"><ele>1100.5</ele><time>2026-05-03T08:25:14.999Z</time></trkpt><trkpt lat="45.9228095113388" lon="12.02076032551334"><ele>1104.0</ele><time>2026-05-03T08:25:15.999Z</time></trkpt><trkpt lat="45.92273380066912" lon="12.020897425793356"><ele>1101.0</ele><time>2026-05-03T08:25:16.999Z</time></trkpt><trkpt lat="45.92265769217995" lon="12.021025594609055"><ele>1098.0</ele><time>2026-05-03T08:25:17.999Z</time></trkpt><trkpt lat="45.922594295465395" lon="12.021158820208237"><ele>1095.0</ele><time>2026-05-03T08:25:18.999Z</time></trkpt><trkpt lat="45.922549393472856" lon="12.02131266232992"><ele>1092.0</ele><time>2026-05-03T08:25:19.999Z</time></trkpt><trkpt lat="45.922523427521234" lon="12.021489466533605"><ele>1095.75</ele><time>2026-05-03T08:25:20.999Z</time></trkpt><trkpt lat="45.9225143333435" lon="12.021682656246202"><ele>1099.5</ele><time>2026-05-03T08:25:21.999Z</time></trkpt><trkpt lat="45.92254542147944" lon="12.021879656911254"><ele>1103.25</ele><time>2026-05-03T08:25:22.999Z</time></trkpt><trkpt lat="45.92256915744743" lon="12.022071074534352"><ele>1107.0</ele><time>2026-05-03T08:25:23.999Z</time></trkpt><trkpt lat="45.92262675388305" lon="12.022247960198941"><ele>1114.0</ele><time>2026-05-03T08:25:24.999Z</time></trkpt><trkpt lat="45.922678556456354" lon="12.02242898905165"><ele>1121.0</ele><time>2026-05-03T08:25:25.999Z</time></trkpt><trkpt lat="45.92273784039343" lon="12.02260624842333"><ele>1128.0</ele><time>2026-05-03T08:25:26.999Z</time></trkpt><trkpt lat="45.92280224720124" lon="12.022775836584065"><ele>1135.0</ele><time>2026-05-03T08:25:27.999Z</time></trkpt><trkpt lat="45.92285901431823" lon="12.022923205101767"><ele>1135.75</ele><time>2026-05-03T08:25:28.999Z</time></trkpt><trkpt lat="45.922890605958145" lon="12.023085622930221"><ele>1136.5</ele><time>2026-05-03T08:25:29.999Z</time></trkpt><trkpt lat="45.922863364538436" lon="12.023256213512875"><ele>1137.25</ele><time>2026-05-03T08:25:30.999Z</time></trkpt><trkpt lat="45.92282716454247" lon="12.023419402666457"><ele>1138.0</ele><time>2026-05-03T08:25:31.999Z</time></trkpt><trkpt lat="45.922823396153994" lon="12.02358051412208"><ele>1138.0</ele><time>2026-05-03T08:25:32.999Z</time></trkpt><trkpt lat="45.92283247902976" lon="12.023750816499385"><ele>1138.0</ele><time>2026-05-03T08:25:33.999Z</time></trkpt><trkpt lat="45.92285655949995" lon="12.023931325817037"><ele>1138.0</ele><time>2026-05-03T08:25:34.999Z</time></trkpt><trkpt lat="45.92289627250161" lon="12.024111512064144"><ele>1138.0</ele><time>2026-05-03T08:25:35.999Z</time></trkpt><trkpt lat="45.92295433275603" lon="12.02428952246259"><ele>1138.25</ele><time>2026-05-03T08:25:36.999Z</time></trkpt><trkpt lat="45.92302387469449" lon="12.024473417442383"><ele>1138.5</ele><time>2026-05-03T08:25:37.999Z</time></trkpt><trkpt lat="45.92310058079948" lon="12.024651354517074"><ele>1138.75</ele><time>2026-05-03T08:25:39Z</time></trkpt><trkpt lat="45.92317276364813" lon="12.024837260073081"><ele>1139.0</ele><time>2026-05-03T08:25:40Z</time></trkpt><trkpt lat="45.92324577797036" lon="12.025026307019155"><ele>1137.5</ele><time>2026-05-03T08:25:41Z</time></trkpt><trkpt lat="45.923305175544265" lon="12.025215786631588"><ele>1136.0</ele><time>2026-05-03T08:25:42Z</time></trkpt><trkpt lat="45.923343395854154" lon="12.025386539831718"><ele>1134.5</ele><time>2026-05-03T08:25:43Z</time></trkpt><trkpt lat="45.92335532344916" lon="12.02557473380029"><ele>1133.0</ele><time>2026-05-03T08:25:44Z</time></trkpt><trkpt lat="45.923357392561265" lon="12.025747733235749"><ele>1131.5</ele><time>2026-05-03T08:25:45Z</time></trkpt><trkpt lat="45.92338865390356" lon="12.025899890123364"><ele>1130.0</ele><time>2026-05-03T08:25:46Z</time></trkpt><trkpt lat="45.92347972131387" lon="12.02602729016011"><ele>1128.5</ele><time>2026-05-03T08:25:47Z</time></trkpt><trkpt lat="45.92357983618902" lon="12.026165831584352"><ele>1127.0</ele><time>2026-05-03T08:25:48Z</time></trkpt><trkpt lat="45.92368459109669" lon="12.026322096603078"><ele>1130.5</ele><time>2026-05-03T08:25:49Z</time></trkpt><trkpt lat="45.92380706146042" lon="12.026448627676837"><ele>1134.0</ele><time>2026-05-03T08:25:50Z</time></trkpt><trkpt lat="45.92392331396007" lon="12.026578108426374"><ele>1137.5</ele><time>2026-05-03T08:25:51Z</time></trkpt><trkpt lat="45.92403414788702" lon="12.02670440890258"><ele>1141.0</ele><time>2026-05-03T08:25:52Z</time></trkpt><trkpt lat="45.924135639248796" lon="12.026800480086264"><ele>1141.0</ele><time>2026-05-03T08:25:53Z</time></trkpt><trkpt lat="45.92422378038659" lon="12.026863273144093"><ele>1141.0</ele><time>2026-05-03T08:25:54Z</time></trkpt><trkpt lat="45.924294679291016" lon="12.026893358995276"><ele>1141.0</ele><time>2026-05-03T08:25:55Z</time></trkpt><trkpt lat="45.92437543112221" lon="12.026924215180758"><ele>1141.0</ele><time>2026-05-03T08:25:56Z</time></trkpt><trkpt lat="45.92447094263657" lon="12.026991586373356"><ele>1141.0</ele><time>2026-05-03T08:25:57Z</time></trkpt><trkpt lat="45.92457641486262" lon="12.027076365525472"><ele>1148.5</ele><time>2026-05-03T08:25:58Z</time></trkpt><trkpt lat="45.92469797526158" lon="12.027168389989548"><ele>1156.0</ele><time>2026-05-03T08:25:59Z</time></trkpt><trkpt lat="45.92482419311286" lon="12.027274628232494"><ele>1163.5</ele><time>2026-05-03T08:26:00Z</time></trkpt><trkpt lat="45.92495659468174" lon="12.027397787239543"><ele>1171.0</ele><time>2026-05-03T08:26:01Z</time></trkpt><trkpt lat="45.92507405826784" lon="12.027529976496648"><ele>1171.0</ele><time>2026-05-03T08:26:02Z</time></trkpt><trkpt lat="45.925190436473" lon="12.027654553294305"><ele>1171.0</ele><time>2026-05-03T08:26:03Z</time></trkpt><trkpt lat="45.925300819201" lon="12.027774569985013"><ele>1171.0</ele><time>2026-05-03T08:26:04Z</time></trkpt><trkpt lat="45.925424441815395" lon="12.027877373931837"><ele>1171.0</ele><time>2026-05-03T08:26:05Z</time></trkpt><trkpt lat="45.925560266295996" lon="12.027967064311618"><ele>1171.0</ele><time>2026-05-03T08:26:06Z</time></trkpt><trkpt lat="45.92569673910865" lon="12.028047338012037"><ele>1171.0</ele><time>2026-05-03T08:26:07Z</time></trkpt><trkpt lat="45.925824576975266" lon="12.028120479444443"><ele>1171.0</ele><time>2026-05-03T08:26:08Z</time></trkpt><trkpt lat="45.925937119381054" lon="12.028183426802252"><ele>1171.0</ele><time>2026-05-03T08:26:09Z</time></trkpt><trkpt lat="45.92603701358371" lon="12.028241756101123"><ele>1171.0</ele><time>2026-05-03T08:26:10Z</time></trkpt><trkpt lat="45.926116260999066" lon="12.02831113093896"><ele>1171.0</ele><time>2026-05-03T08:26:11Z</time></trkpt><trkpt lat="45.92616911638673" lon="12.028400240512438"><ele>1171.0</ele><time>2026-05-03T08:26:12Z</time></trkpt><trkpt lat="45.92618892902665" lon="12.028524075011331"><ele>1171.0</ele><time>2026-05-03T08:26:13Z</time></trkpt><trkpt lat="45.92616698921744" lon="12.0286672459467"><ele>1171.0</ele><time>2026-05-03T08:26:14Z</time></trkpt><trkpt lat="45.926149367139445" lon="12.028769835677995"><ele>1171.0</ele><time>2026-05-03T08:26:15Z</time></trkpt><trkpt lat="45.92591857832937" lon="12.028894861157163"><ele>1170.1666666666665</ele><time>2026-05-03T08:26:17Z</time></trkpt><trkpt lat="45.925847039455704" lon="12.028974268750058"><ele>1169.3333333333333</ele><time>2026-05-03T08:26:18Z</time></trkpt><trkpt lat="45.92581876834409" lon="12.029068419428015"><ele>1168.5</ele><time>2026-05-03T08:26:19Z</time></trkpt><trkpt lat="45.92584484249804" lon="12.029159201136258"><ele>1167.6666666666667</ele><time>2026-05-03T08:26:20Z</time></trkpt><trkpt lat="45.92590758188949" lon="12.029219262977609"><ele>1166.8333333333335</ele><time>2026-05-03T08:26:21Z</time></trkpt><trkpt lat="45.9259917449517" lon="12.029284817781166"><ele>1166.0</ele><time>2026-05-03T08:26:22Z</time></trkpt><trkpt lat="45.92609496323117" lon="12.029367553176217"><ele>1166.0</ele><time>2026-05-03T08:26:23Z</time></trkpt><trkpt lat="45.92621410502131" lon="12.029454531186365"><ele>1166.0</ele><time>2026-05-03T08:26:24Z</time></trkpt><trkpt lat="45.92632952001825" lon="12.029547649639174"><ele>1166.0</ele><time>2026-05-03T08:26:25Z</time></trkpt><trkpt lat="45.926443192287955" lon="12.029641272681276"><ele>1166.0</ele><time>2026-05-03T08:26:26Z</time></trkpt><trkpt lat="45.92656481087744" lon="12.029737537205794"><ele>1166.0</ele><time>2026-05-03T08:26:27Z</time></trkpt><trkpt lat="45.926686799900686" lon="12.029826997834057"><ele>1166.0</ele><time>2026-05-03T08:26:28Z</time></trkpt><trkpt lat="45.92681189533139" lon="12.029904994075391"><ele>1166.0</ele><time>2026-05-03T08:26:29Z</time></trkpt><trkpt lat="45.9269393830566" lon="12.029972361832543"><ele>1166.0</ele><time>2026-05-03T08:26:30Z</time></trkpt><trkpt lat="45.92707368433082" lon="12.030015708386081"><ele>1163.5</ele><time>2026-05-03T08:26:31Z</time></trkpt><trkpt lat="45.927219248968456" lon="12.030021698197086"><ele>1161.0</ele><time>2026-05-03T08:26:32Z</time></trkpt><trkpt lat="45.927352593651605" lon="12.029970172991545"><ele>1158.5</ele><time>2026-05-03T08:26:33Z</time></trkpt><trkpt lat="45.927479087006866" lon="12.029889710802228"><ele>1156.0</ele><time>2026-05-03T08:26:34Z</time></trkpt><trkpt lat="45.927598083469164" lon="12.029802118550057"><ele>1161.6</ele><time>2026-05-03T08:26:35Z</time></trkpt><trkpt lat="45.927703049953" lon="12.029734180428889"><ele>1167.1999999999998</ele><time>2026-05-03T08:26:36Z</time></trkpt><trkpt lat="45.92781240129909" lon="12.029696177276575"><ele>1172.8000000000002</ele><time>2026-05-03T08:26:37Z</time></trkpt><trkpt lat="45.927926784431826" lon="12.029701234930767"><ele>1178.4</ele><time>2026-05-03T08:26:38Z</time></trkpt><trkpt lat="45.928020195529285" lon="12.02976988292745"><ele>1184.0</ele><time>2026-05-03T08:26:39Z</time></trkpt><trkpt lat="45.928110738485266" lon="12.029871689834344"><ele>1184.0</ele><time>2026-05-03T08:26:40Z</time></trkpt><trkpt lat="45.928199775279694" lon="12.029948052601595"><ele>1184.0</ele><time>2026-05-03T08:26:41Z</time></trkpt><trkpt lat="45.92829584179265" lon="12.029966933361713"><ele>1184.0</ele><time>2026-05-03T08:26:42Z</time></trkpt><trkpt lat="45.92839293813339" lon="12.029939750020286"><ele>1184.0</ele><time>2026-05-03T08:26:43Z</time></trkpt><trkpt lat="45.92849780670351" lon="12.029862663170341"><ele>1184.0</ele><time>2026-05-03T08:26:44Z</time></trkpt><trkpt lat="45.928608896722" lon="12.029767837868706"><ele>1177.5</ele><time>2026-05-03T08:26:45Z</time></trkpt><trkpt lat="45.92871157286314" lon="12.02965896520314"><ele>1171.0</ele><time>2026-05-03T08:26:46Z</time></trkpt><trkpt lat="45.928803963583086" lon="12.029525249659443"><ele>1164.5</ele><time>2026-05-03T08:26:47Z</time></trkpt><trkpt lat="45.928889822025646" lon="12.029367414137036"><ele>1158.0</ele><time>2026-05-03T08:26:48Z</time></trkpt><trkpt lat="45.92898143041172" lon="12.029220530763356"><ele>1153.5</ele><time>2026-05-03T08:26:49Z</time></trkpt><trkpt lat="45.92908038125406" lon="12.029085302362786"><ele>1149.0</ele><time>2026-05-03T08:26:50Z</time></trkpt><trkpt lat="45.929175377876064" lon="12.028953764454528"><ele>1144.5</ele><time>2026-05-03T08:26:51Z</time></trkpt><trkpt lat="45.92925663445423" lon="12.028825788879011"><ele>1140.0</ele><time>2026-05-03T08:26:52Z</time></trkpt><trkpt lat="45.92932318250569" lon="12.028703651373599"><ele>1140.0</ele><time>2026-05-03T08:26:53Z</time></trkpt><trkpt lat="45.92936040557004" lon="12.028581311739472"><ele>1140.0</ele><time>2026-05-03T08:26:54Z</time></trkpt><trkpt lat="45.9293600015957" lon="12.02842957423535"><ele>1140.0</ele><time>2026-05-03T08:26:55Z</time></trkpt><trkpt lat="45.92932876415227" lon="12.028270724761962"><ele>1140.0</ele><time>2026-05-03T08:26:56Z</time></trkpt><trkpt lat="45.92930961439396" lon="12.02811964332264"><ele>1140.0</ele><time>2026-05-03T08:26:57Z</time></trkpt><trkpt lat="45.92933325426387" lon="12.027983578348184"><ele>1146.6</ele><time>2026-05-03T08:26:58Z</time></trkpt><trkpt lat="45.92939122862449" lon="12.02789453771749"><ele>1153.2</ele><time>2026-05-03T08:26:59Z</time></trkpt><trkpt lat="45.92947640837874" lon="12.027832132454991"><ele>1159.8</ele><time>2026-05-03T08:27:00Z</time></trkpt><trkpt lat="45.92959408478337" lon="12.027791271937646"><ele>1166.4</ele><time>2026-05-03T08:27:01Z</time></trkpt><trkpt lat="45.92971371252431" lon="12.02774565161311"><ele>1173.0</ele><time>2026-05-03T08:27:02Z</time></trkpt><trkpt lat="45.92983312960636" lon="12.02766073811354"><ele>1173.0</ele><time>2026-05-03T08:27:03Z</time></trkpt><trkpt lat="45.92995078134262" lon="12.027558699724164"><ele>1173.0</ele><time>2026-05-03T08:27:04Z</time></trkpt><trkpt lat="45.93005210653252" lon="12.027418923368101"><ele>1173.0</ele><time>2026-05-03T08:27:05Z</time></trkpt><trkpt lat="45.93013971167532" lon="12.027251964142668"><ele>1173.0</ele><time>2026-05-03T08:27:06Z</time></trkpt><trkpt lat="45.93022964230236" lon="12.027089929782871"><ele>1173.25</ele><time>2026-05-03T08:27:07Z</time></trkpt><trkpt lat="45.93033257734544" lon="12.026969202800915"><ele>1173.5</ele><time>2026-05-03T08:27:08Z</time></trkpt><trkpt lat="45.930443955400015" lon="12.026885676652443"><ele>1173.75</ele><time>2026-05-03T08:27:09Z</time></trkpt><trkpt lat="45.930557010004996" lon="12.026816632184925"><ele>1174.0</ele><time>2026-05-03T08:27:10Z</time></trkpt><trkpt lat="45.930665310521825" lon="12.026726167117358"><ele>1178.0</ele><time>2026-05-03T08:27:11Z</time></trkpt><trkpt lat="45.93076832504543" lon="12.026605442584113"><ele>1182.0</ele><time>2026-05-03T08:27:12Z</time></trkpt><trkpt lat="45.930864111100696" lon="12.026466379707799"><ele>1186.0</ele><time>2026-05-03T08:27:13Z</time></trkpt><trkpt lat="45.9309499922809" lon="12.02635104265544"><ele>1190.0</ele><time>2026-05-03T08:27:14Z</time></trkpt><trkpt lat="45.93103021689552" lon="12.026258743496795"><ele>1190.0</ele><time>2026-05-03T08:27:15Z</time></trkpt><trkpt lat="45.93111715211597" lon="12.026174204277812"><ele>1190.0</ele><time>2026-05-03T08:27:16Z</time></trkpt><trkpt lat="45.93121742313315" lon="12.02609593932264"><ele>1190.0</ele><time>2026-05-03T08:27:17Z</time></trkpt><trkpt lat="45.93132383541504" lon="12.026044506890758"><ele>1190.0</ele><time>2026-05-03T08:27:18Z</time></trkpt><trkpt lat="45.93141421201575" lon="12.025988492675546"><ele>1190.0</ele><time>2026-05-03T08:27:19Z</time></trkpt><trkpt lat="45.93148876887991" lon="12.025936079040072"><ele>1190.0</ele><time>2026-05-03T08:27:20Z</time></trkpt><trkpt lat="45.93155129891834" lon="12.025899330853816"><ele>1190.0</ele><time>2026-05-03T08:27:21Z</time></trkpt><trkpt lat="45.9316220491334" lon="12.025911292171724"><ele>1190.0</ele><time>2026-05-03T08:27:22Z</time></trkpt><trkpt lat="45.93170210804655" lon="12.025968276492566"><ele>1190.0</ele><time>2026-05-03T08:27:23Z</time></trkpt><trkpt lat="45.93175812899182" lon="12.026073977846684"><ele>1190.0</ele><time>2026-05-03T08:27:24Z</time></trkpt><trkpt lat="45.9318004014735" lon="12.02622091115958"><ele>1190.0</ele><time>2026-05-03T08:27:25Z</time></trkpt><trkpt lat="45.93183601384837" lon="12.026392118395055"><ele>1193.6</ele><time>2026-05-03T08:27:26Z</time></trkpt><trkpt lat="45.93185526231871" lon="12.026562812174257"><ele>1197.2</ele><time>2026-05-03T08:27:27Z</time></trkpt><trkpt lat="45.93186631278406" lon="12.026713296790243"><ele>1200.8</ele><time>2026-05-03T08:27:28Z</time></trkpt><trkpt lat="45.9319059007086" lon="12.026849854896682"><ele>1204.4</ele><time>2026-05-03T08:27:29Z</time></trkpt><trkpt lat="45.931994332622125" lon="12.026957836740793"><ele>1208.0</ele><time>2026-05-03T08:27:30Z</time></trkpt><trkpt lat="45.932110515201195" lon="12.027034146901793"><ele>1208.0</ele><time>2026-05-03T08:27:31Z</time></trkpt><trkpt lat="45.93219901469937" lon="12.0271100886934"><ele>1208.0</ele><time>2026-05-03T08:27:32Z</time></trkpt><trkpt lat="45.93225381493149" lon="12.02724229290684"><ele>1208.0</ele><time>2026-05-03T08:27:33Z</time></trkpt><trkpt lat="45.932269659430695" lon="12.027396637260509"><ele>1208.0</ele><time>2026-05-03T08:27:34Z</time></trkpt><trkpt lat="45.93228417092202" lon="12.027557919179115"><ele>1208.0</ele><time>2026-05-03T08:27:35Z</time></trkpt><trkpt lat="45.93230721738794" lon="12.027719131726338"><ele>1205.4</ele><time>2026-05-03T08:27:36Z</time></trkpt><trkpt lat="45.932338116347964" lon="12.027871265317488"><ele>1202.8</ele><time>2026-05-03T08:27:37Z</time></trkpt><trkpt lat="45.93238267573858" lon="12.027986010743902"><ele>1200.2</ele><time>2026-05-03T08:27:38Z</time></trkpt><trkpt lat="45.93246127067039" lon="12.02807622645178"><ele>1197.6</ele><time>2026-05-03T08:27:39Z</time></trkpt><trkpt lat="45.932567136193285" lon="12.028152474992458"><ele>1195.0</ele><time>2026-05-03T08:27:40Z</time></trkpt><trkpt lat="45.932675804316034" lon="12.028230937316323"><ele>1199.5</ele><time>2026-05-03T08:27:41Z</time></trkpt><trkpt lat="45.93278584258916" lon="12.028342760329695"><ele>1204.0</ele><time>2026-05-03T08:27:42Z</time></trkpt><trkpt lat="45.932884998252106" lon="12.028478725457141"><ele>1208.5</ele><time>2026-05-03T08:27:43Z</time></trkpt><trkpt lat="45.93298415726021" lon="12.0286193452882"><ele>1213.0</ele><time>2026-05-03T08:27:44Z</time></trkpt><trkpt lat="45.93309875687605" lon="12.028750816466331"><ele>1213.0</ele><time>2026-05-03T08:27:45Z</time></trkpt><trkpt lat="45.93320877093141" lon="12.028868018741582"><ele>1213.0</ele><time>2026-05-03T08:27:46Z</time></trkpt><trkpt lat="45.93332389746804" lon="12.0289828204471"><ele>1213.0</ele><time>2026-05-03T08:27:47Z</time></trkpt><trkpt lat="45.9334370811259" lon="12.029089006183607"><ele>1213.0</ele><time>2026-05-03T08:27:48Z</time></trkpt><trkpt lat="45.93355685255387" lon="12.029183790342904"><ele>1213.6</ele><time>2026-05-03T08:27:49Z</time></trkpt><trkpt lat="45.93368423503523" lon="12.02922475630091"><ele>1214.1999999999998</ele><time>2026-05-03T08:27:50Z</time></trkpt><trkpt lat="45.93379773331993" lon="12.0292171743064"><ele>1214.8</ele><time>2026-05-03T08:27:51Z</time></trkpt><trkpt lat="45.933893578702914" lon="12.029204871855823"><ele>1215.3999999999999</ele><time>2026-05-03T08:27:52Z</time></trkpt><trkpt lat="45.93398273873226" lon="12.029223839632586"><ele>1216.0</ele><time>2026-05-03T08:27:53Z</time></trkpt><trkpt lat="45.93405670108679" lon="12.029308041308793"><ele>1216.0</ele><time>2026-05-03T08:27:54Z</time></trkpt><trkpt lat="45.934114987431194" lon="12.029436536911382"><ele>1216.0</ele><time>2026-05-03T08:27:55Z</time></trkpt><trkpt lat="45.93415422473625" lon="12.029587483955254"><ele>1216.0</ele><time>2026-05-03T08:27:56Z</time></trkpt><trkpt lat="45.9341845933922" lon="12.029742386512737"><ele>1216.0</ele><time>2026-05-03T08:27:57Z</time></trkpt><trkpt lat="45.93422207641974" lon="12.029898587432802"><ele>1216.0</ele><time>2026-05-03T08:27:58Z</time></trkpt><trkpt lat="45.93427508749224" lon="12.030039026532618"><ele>1222.0</ele><time>2026-05-03T08:27:59Z</time></trkpt><trkpt lat="45.934351220839645" lon="12.030149281772895"><ele>1228.0</ele><time>2026-05-03T08:28:00Z</time></trkpt><trkpt lat="45.93444965683363" lon="12.030250555876545"><ele>1234.0</ele><time>2026-05-03T08:28:01Z</time></trkpt><trkpt lat="45.93455247988611" lon="12.030348810601199"><ele>1240.0</ele><time>2026-05-03T08:28:02Z</time></trkpt><trkpt lat="45.93465815599489" lon="12.030439213140053"><ele>1240.0</ele><time>2026-05-03T08:28:03Z</time></trkpt><trkpt lat="45.93477668749064" lon="12.03052665399935"><ele>1240.0</ele><time>2026-05-03T08:28:04Z</time></trkpt><trkpt lat="45.934888607073056" lon="12.030601780797715"><ele>1240.0</ele><time>2026-05-03T08:28:05Z</time></trkpt><trkpt lat="45.93497328656611" lon="12.030665792894535"><ele>1240.0</ele><time>2026-05-03T08:28:06Z</time></trkpt><trkpt lat="45.93504118022491" lon="12.030745009025578"><ele>1240.0</ele><time>2026-05-03T08:28:07Z</time></trkpt><trkpt lat="45.93508218535603" lon="12.030858165502805"><ele>1241.8</ele><time>2026-05-03T08:28:08Z</time></trkpt><trkpt lat="45.935090053085375" lon="12.031009759405643"><ele>1243.6</ele><time>2026-05-03T08:28:09Z</time></trkpt><trkpt lat="45.935097729902026" lon="12.031163866889559"><ele>1245.4</ele><time>2026-05-03T08:28:10Z</time></trkpt><trkpt lat="45.935144321836084" lon="12.031297922233149"><ele>1247.2</ele><time>2026-05-03T08:28:11Z</time></trkpt><trkpt lat="45.9352359363763" lon="12.031414926414337"><ele>1249.0</ele><time>2026-05-03T08:28:12Z</time></trkpt><trkpt lat="45.93534159873112" lon="12.031519778126762"><ele>1249.0</ele><time>2026-05-03T08:28:13Z</time></trkpt><trkpt lat="45.9354509066024" lon="12.031632051841218"><ele>1249.0</ele><time>2026-05-03T08:28:14Z</time></trkpt><trkpt lat="45.93556921779557" lon="12.031732819252493"><ele>1249.0</ele><time>2026-05-03T08:28:15Z</time></trkpt><trkpt lat="45.93568826196358" lon="12.031813201396501"><ele>1249.0</ele><time>2026-05-03T08:28:16Z</time></trkpt><trkpt lat="45.93581201880662" lon="12.031866474837448"><ele>1250.8</ele><time>2026-05-03T08:28:17Z</time></trkpt><trkpt lat="45.93594440734959" lon="12.031887128305748"><ele>1252.6000000000001</ele><time>2026-05-03T08:28:18Z</time></trkpt><trkpt lat="45.936063771509204" lon="12.031892990349803"><ele>1254.4</ele><time>2026-05-03T08:28:18.999Z</time></trkpt><trkpt lat="45.9361615750862" lon="12.031921397508597"><ele>1256.2</ele><time>2026-05-03T08:28:19.999Z</time></trkpt><trkpt lat="45.936230127408166" lon="12.032006453615995"><ele>1258.0</ele><time>2026-05-03T08:28:20.999Z</time></trkpt><trkpt lat="45.93627733841229" lon="12.032143679788902"><ele>1258.0</ele><time>2026-05-03T08:28:21.999Z</time></trkpt><trkpt lat="45.9363091772755" lon="12.032300799937143"><ele>1258.0</ele><time>2026-05-03T08:28:22.999Z</time></trkpt><trkpt lat="45.93633868182553" lon="12.03246489967594"><ele>1258.0</ele><time>2026-05-03T08:28:23.999Z</time></trkpt><trkpt lat="45.93637942702753" lon="12.032617563255414"><ele>1258.0</ele><time>2026-05-03T08:28:24.999Z</time></trkpt><trkpt lat="45.936458226270084" lon="12.032741878063481"><ele>1263.0</ele><time>2026-05-03T08:28:25.999Z</time></trkpt><trkpt lat="45.936564963208255" lon="12.032853824174223"><ele>1268.0</ele><time>2026-05-03T08:28:26.999Z</time></trkpt><trkpt lat="45.93667622035677" lon="12.03296724687934"><ele>1273.0</ele><time>2026-05-03T08:28:27.999Z</time></trkpt><trkpt lat="45.936769049260356" lon="12.033101096543286"><ele>1278.0</ele><time>2026-05-03T08:28:28.999Z</time></trkpt><trkpt lat="45.93683542541753" lon="12.033252194303028"><ele>1272.25</ele><time>2026-05-03T08:28:29.999Z</time></trkpt><trkpt lat="45.93688980636454" lon="12.033407110895075"><ele>1266.5</ele><time>2026-05-03T08:28:30.999Z</time></trkpt><trkpt lat="45.936952300857214" lon="12.033553873566746"><ele>1260.75</ele><time>2026-05-03T08:28:31.999Z</time></trkpt><trkpt lat="45.93703202804751" lon="12.033681611151719"><ele>1255.0</ele><time>2026-05-03T08:28:32.999Z</time></trkpt><trkpt lat="45.93711888651986" lon="12.033768819836723"><ele>1255.0</ele><time>2026-05-03T08:28:33.999Z</time></trkpt><trkpt lat="45.93720327807075" lon="12.03387298467343"><ele>1255.0</ele><time>2026-05-03T08:28:34.999Z</time></trkpt><trkpt lat="45.93724952447234" lon="12.034007350851152"><ele>1255.0</ele><time>2026-05-03T08:28:35.999Z</time></trkpt><trkpt lat="45.937249361370846" lon="12.034172285214625"><ele>1255.0</ele><time>2026-05-03T08:28:36.999Z</time></trkpt><trkpt lat="45.937263476816156" lon="12.034330829440242"><ele>1255.0</ele><time>2026-05-03T08:28:37.999Z</time></trkpt><trkpt lat="45.93732216228813" lon="12.034475327368988"><ele>1253.5</ele><time>2026-05-03T08:28:38.999Z</time></trkpt><trkpt lat="45.93740665651004" lon="12.034611979146716"><ele>1252.0</ele><time>2026-05-03T08:28:39.999Z</time></trkpt><trkpt lat="45.93749516000075" lon="12.03475771770707"><ele>1250.5</ele><time>2026-05-03T08:28:40.999Z</time></trkpt><trkpt lat="45.93758352447126" lon="12.03490980872873"><ele>1249.0</ele><time>2026-05-03T08:28:41.999Z</time></trkpt><trkpt lat="45.937643701989636" lon="12.035071798600839"><ele>1249.0</ele><time>2026-05-03T08:28:42.999Z</time></trkpt><trkpt lat="45.93769299717744" lon="12.035201358163498"><ele>1249.0</ele><time>2026-05-03T08:28:43.999Z</time></trkpt><trkpt lat="45.93777735268268" lon="12.035315410855862"><ele>1249.0</ele><time>2026-05-03T08:28:44.999Z</time></trkpt><trkpt lat="45.937895126833524" lon="12.035400472604607"><ele>1249.0</ele><time>2026-05-03T08:28:45.999Z</time></trkpt><trkpt lat="45.93803052361752" lon="12.035438835978166"><ele>1249.0</ele><time>2026-05-03T08:28:46.999Z</time></trkpt><trkpt lat="45.93817149191077" lon="12.035465808840163"><ele>1249.0</ele><time>2026-05-03T08:28:47.999Z</time></trkpt><trkpt lat="45.93830349501424" lon="12.035502038787884"><ele>1249.0</ele><time>2026-05-03T08:28:48.999Z</time></trkpt><trkpt lat="45.93842082716077" lon="12.035552525484382"><ele>1249.0</ele><time>2026-05-03T08:28:49.999Z</time></trkpt><trkpt lat="45.93850765663664" lon="12.035622969261146"><ele>1251.75</ele><time>2026-05-03T08:28:50.999Z</time></trkpt><trkpt lat="45.93855715543822" lon="12.035738295925006"><ele>1254.5</ele><time>2026-05-03T08:28:51.999Z</time></trkpt><trkpt lat="45.93857390399791" lon="12.035906138915731"><ele>1257.25</ele><time>2026-05-03T08:28:52.999Z</time></trkpt><trkpt lat="45.93854967776204" lon="12.036082122070907"><ele>1260.0</ele><time>2026-05-03T08:28:53.999Z</time></trkpt><trkpt lat="45.93850785730616" lon="12.036258476180121"><ele>1260.0</ele><time>2026-05-03T08:28:54.999Z</time></trkpt><trkpt lat="45.938467846565786" lon="12.036432457328926"><ele>1260.0</ele><time>2026-05-03T08:28:55.999Z</time></trkpt><trkpt lat="45.93844008162324" lon="12.036598588791792"><ele>1260.0</ele><time>2026-05-03T08:28:56.999Z</time></trkpt><trkpt lat="45.9384336077668" lon="12.036778051005681"><ele>1260.0</ele><time>2026-05-03T08:28:57.999Z</time></trkpt><trkpt lat="45.938449950365154" lon="12.036951116992576"><ele>1259.0</ele><time>2026-05-03T08:28:58.999Z</time></trkpt><trkpt lat="45.93848808845433" lon="12.03710815400079"><ele>1258.0</ele><time>2026-05-03T08:28:59.999Z</time></trkpt><trkpt lat="45.93855290619308" lon="12.037264701076293"><ele>1257.0</ele><time>2026-05-03T08:29:00.999Z</time></trkpt><trkpt lat="45.93864311373414" lon="12.037402418146591"><ele>1256.0</ele><time>2026-05-03T08:29:01.999Z</time></trkpt><trkpt lat="45.93874022913562" lon="12.03749977708204"><ele>1253.5</ele><time>2026-05-03T08:29:02.999Z</time></trkpt><trkpt lat="45.93881795921141" lon="12.037611960467634"><ele>1251.0</ele><time>2026-05-03T08:29:03.999Z</time></trkpt><trkpt lat="45.938864533984386" lon="12.037769044362854"><ele>1248.5</ele><time>2026-05-03T08:29:04.999Z</time></trkpt><trkpt lat="45.938898724280975" lon="12.03795693501962"><ele>1246.0</ele><time>2026-05-03T08:29:05.999Z</time></trkpt><trkpt lat="45.9389278515608" lon="12.03816039241225"><ele>1243.75</ele><time>2026-05-03T08:29:06.999Z</time></trkpt><trkpt lat="45.93895721863833" lon="12.038353323471574"><ele>1241.5</ele><time>2026-05-03T08:29:07.999Z</time></trkpt><trkpt lat="45.93901172672612" lon="12.038525806699683"><ele>1239.25</ele><time>2026-05-03T08:29:08.999Z</time></trkpt><trkpt lat="45.93909353408891" lon="12.038694426384012"><ele>1237.0</ele><time>2026-05-03T08:29:09.999Z</time></trkpt><trkpt lat="45.939170640701725" lon="12.03887998456531"><ele>1237.0</ele><time>2026-05-03T08:29:10.999Z</time></trkpt><trkpt lat="45.939202814128095" lon="12.03908375208432"><ele>1237.0</ele><time>2026-05-03T08:29:11.999Z</time></trkpt><trkpt lat="45.939218931735596" lon="12.039266136456124"><ele>1237.0</ele><time>2026-05-03T08:29:12.999Z</time></trkpt><trkpt lat="45.93923401659028" lon="12.039432486739134"><ele>1237.0</ele><time>2026-05-03T08:29:13.999Z</time></trkpt><trkpt lat="45.939250288840356" lon="12.039571492888888"><ele>1239.3333333333333</ele><time>2026-05-03T08:29:14.999Z</time></trkpt><trkpt lat="45.93927389738596" lon="12.039689959148381"><ele>1241.6666666666665</ele><time>2026-05-03T08:29:15.999Z</time></trkpt><trkpt lat="45.9393208049632" lon="12.039787674505423"><ele>1244.0</ele><time>2026-05-03T08:29:17.999Z</time></trkpt><trkpt lat="45.93941047277105" lon="12.039804876987327"><ele>1246.3333333333333</ele><time>2026-05-03T08:29:19.999Z</time></trkpt><trkpt lat="45.93948543770319" lon="12.039816412390499"><ele>1248.6666666666667</ele><time>2026-05-03T08:29:20.999Z</time></trkpt><trkpt lat="45.93957780725585" lon="12.039828695921358"><ele>1251.0</ele><time>2026-05-03T08:29:21.999Z</time></trkpt><trkpt lat="45.93968203304322" lon="12.03984890315584"><ele>1251.0</ele><time>2026-05-03T08:29:22.999Z</time></trkpt><trkpt lat="45.93977614793017" lon="12.03989926770424"><ele>1251.0</ele><time>2026-05-03T08:29:23.999Z</time></trkpt><trkpt lat="45.9398473806234" lon="12.040003511217677"><ele>1251.0</ele><time>2026-05-03T08:29:24.999Z</time></trkpt><trkpt lat="45.93988460260596" lon="12.040155792124766"><ele>1251.0</ele><time>2026-05-03T08:29:25.999Z</time></trkpt><trkpt lat="45.93990382273706" lon="12.040339575984845"><ele>1251.0</ele><time>2026-05-03T08:29:26.999Z</time></trkpt><trkpt lat="45.93991180377201" lon="12.040539515825195"><ele>1247.0</ele><time>2026-05-03T08:29:27.999Z</time></trkpt><trkpt lat="45.939891184820596" lon="12.040746564396944"><ele>1243.0</ele><time>2026-05-03T08:29:28.999Z</time></trkpt><trkpt lat="45.939839262945014" lon="12.040940913802459"><ele>1239.0</ele><time>2026-05-03T08:29:29.999Z</time></trkpt><trkpt lat="45.93978029305295" lon="12.041134243621054"><ele>1235.0</ele><time>2026-05-03T08:29:30.999Z</time></trkpt><trkpt lat="45.93974394626934" lon="12.041312021877815"><ele>1234.8</ele><time>2026-05-03T08:29:31.999Z</time></trkpt><trkpt lat="45.93971256455471" lon="12.041462944404334"><ele>1234.6</ele><time>2026-05-03T08:29:32.999Z</time></trkpt><trkpt lat="45.93966379054073" lon="12.041596084494124"><ele>1234.4</ele><time>2026-05-03T08:29:33.999Z</time></trkpt><trkpt lat="45.93958119430416" lon="12.041687416617377"><ele>1234.2</ele><time>2026-05-03T08:29:34.999Z</time></trkpt><trkpt lat="45.939468690640055" lon="12.041756341536903"><ele>1234.0</ele><time>2026-05-03T08:29:35.999Z</time></trkpt><trkpt lat="45.93937600053471" lon="12.041835080729873"><ele>1234.0</ele><time>2026-05-03T08:29:36.999Z</time></trkpt><trkpt lat="45.9393199826227" lon="12.0419706979137"><ele>1234.0</ele><time>2026-05-03T08:29:37.999Z</time></trkpt><trkpt lat="45.939291503484405" lon="12.042110065677024"><ele>1234.0</ele><time>2026-05-03T08:29:38.999Z</time></trkpt><trkpt lat="45.93930051338984" lon="12.042244140900383"><ele>1234.0</ele><time>2026-05-03T08:29:39.999Z</time></trkpt><trkpt lat="45.93935069644972" lon="12.042369292138341"><ele>1234.0</ele><time>2026-05-03T08:29:40.999Z</time></trkpt><trkpt lat="45.939438692797374" lon="12.042473804781167"><ele>1233.2</ele><time>2026-05-03T08:29:41.999Z</time></trkpt><trkpt lat="45.93951749413694" lon="12.042579337833482"><ele>1232.4</ele><time>2026-05-03T08:29:42.999Z</time></trkpt><trkpt lat="45.93954675019392" lon="12.042717486511338"><ele>1231.6</ele><time>2026-05-03T08:29:43.999Z</time></trkpt><trkpt lat="45.93953239438883" lon="12.042869660745918"><ele>1230.8</ele><time>2026-05-03T08:29:44.999Z</time></trkpt><trkpt lat="45.93952855645687" lon="12.042988691819772"><ele>1230.0</ele><time>2026-05-03T08:29:45.999Z</time></trkpt><trkpt lat="45.93954290170786" lon="12.043082311313887"><ele>1230.0</ele><time>2026-05-03T08:29:46.999Z</time></trkpt><trkpt lat="45.93958716593676" lon="12.043173113292053"><ele>1230.0</ele><time>2026-05-03T08:29:47.999Z</time></trkpt><trkpt lat="45.93966382019156" lon="12.043243538634318"><ele>1230.0</ele><time>2026-05-03T08:29:48.999Z</time></trkpt><trkpt lat="45.93977032460948" lon="12.043284253730757"><ele>1230.0</ele><time>2026-05-03T08:29:49.999Z</time></trkpt><trkpt lat="45.93990020287498" lon="12.043318397361574"><ele>1230.0</ele><time>2026-05-03T08:29:51Z</time></trkpt><trkpt lat="45.94002665170615" lon="12.04336620528666"><ele>1233.4</ele><time>2026-05-03T08:29:52Z</time></trkpt><trkpt lat="45.94012303368877" lon="12.043440901440595"><ele>1236.8</ele><time>2026-05-03T08:29:53Z</time></trkpt><trkpt lat="45.9401840787473" lon="12.043555942988503"><ele>1240.2</ele><time>2026-05-03T08:29:54Z</time></trkpt><trkpt lat="45.94019826651993" lon="12.043690025244546"><ele>1243.6</ele><time>2026-05-03T08:29:55Z</time></trkpt><trkpt lat="45.94018566608832" lon="12.043829891361497"><ele>1247.0</ele><time>2026-05-03T08:29:56Z</time></trkpt><trkpt lat="45.940153820659155" lon="12.044013284382407"><ele>1243.75</ele><time>2026-05-03T08:29:57Z</time></trkpt><trkpt lat="45.94013781922893" lon="12.044195347466214"><ele>1240.5</ele><time>2026-05-03T08:29:58Z</time></trkpt><trkpt lat="45.9401589832598" lon="12.044368503466389"><ele>1237.25</ele><time>2026-05-03T08:29:59Z</time></trkpt><trkpt lat="45.940212367676295" lon="12.044510957039266"><ele>1234.0</ele><time>2026-05-03T08:30:00Z</time></trkpt><trkpt lat="45.940292531146916" lon="12.044623729311581"><ele>1234.0</ele><time>2026-05-03T08:30:01Z</time></trkpt><trkpt lat="45.94037611632344" lon="12.04470814918205"><ele>1234.0</ele><time>2026-05-03T08:30:02Z</time></trkpt><trkpt lat="45.94048194265584" lon="12.04475282758252"><ele>1234.0</ele><time>2026-05-03T08:30:03Z</time></trkpt><trkpt lat="45.94061542346279" lon="12.044751981706384"><ele>1234.0</ele><time>2026-05-03T08:30:04Z</time></trkpt><trkpt lat="45.94076650254301" lon="12.044756793742923"><ele>1240.6666666666665</ele><time>2026-05-03T08:30:05Z</time></trkpt><trkpt lat="45.9409215243835" lon="12.04481257015581"><ele>1247.3333333333333</ele><time>2026-05-03T08:30:06Z</time></trkpt><trkpt lat="45.9410687779843" lon="12.044880068073196"><ele>1254.0</ele><time>2026-05-03T08:30:07Z</time></trkpt><trkpt lat="45.941199704208046" lon="12.044950706627958"><ele>1249.0</ele><time>2026-05-03T08:30:08Z</time></trkpt><trkpt lat="45.94131445192742" lon="12.04504664906932"><ele>1244.0</ele><time>2026-05-03T08:30:09Z</time></trkpt><trkpt lat="45.941412737694215" lon="12.045182460198355"><ele>1239.0</ele><time>2026-05-03T08:30:10Z</time></trkpt><trkpt lat="45.94148185048075" lon="12.045356234852582"><ele>1234.0</ele><time>2026-05-03T08:30:11Z</time></trkpt><trkpt lat="45.94152740276971" lon="12.045509985961724"><ele>1234.0</ele><time>2026-05-03T08:30:12Z</time></trkpt><trkpt lat="45.94159623224122" lon="12.045622668501075"><ele>1234.0</ele><time>2026-05-03T08:30:13Z</time></trkpt><trkpt lat="45.94170582564531" lon="12.045684313085518"><ele>1234.0</ele><time>2026-05-03T08:30:14Z</time></trkpt><trkpt lat="45.941835598888055" lon="12.045710968099463"><ele>1234.0</ele><time>2026-05-03T08:30:15Z</time></trkpt><trkpt lat="45.94197779983144" lon="12.045731360970322"><ele>1232.75</ele><time>2026-05-03T08:30:16Z</time></trkpt><trkpt lat="45.94210879448969" lon="12.04579104583208"><ele>1231.5</ele><time>2026-05-03T08:30:17Z</time></trkpt><trkpt lat="45.942224363316846" lon="12.045890101889574"><ele>1230.25</ele><time>2026-05-03T08:30:18Z</time></trkpt><trkpt lat="45.942333382211245" lon="12.046006507233807"><ele>1229.0</ele><time>2026-05-03T08:30:19Z</time></trkpt><trkpt lat="45.94243206727862" lon="12.046163891616978"><ele>1229.0</ele><time>2026-05-03T08:30:20Z</time></trkpt><trkpt lat="45.94252556586611" lon="12.046323232770975"><ele>1229.0</ele><time>2026-05-03T08:30:21Z</time></trkpt><trkpt lat="45.94262621763882" lon="12.046453463391023"><ele>1229.0</ele><time>2026-05-03T08:30:22Z</time></trkpt><trkpt lat="45.94272150244571" lon="12.04655262093346"><ele>1229.0</ele><time>2026-05-03T08:30:23Z</time></trkpt><trkpt lat="45.94280476919279" lon="12.046634234798974"><ele>1230.0</ele><time>2026-05-03T08:30:24Z</time></trkpt><trkpt lat="45.94287857489364" lon="12.046717791890526"><ele>1231.0</ele><time>2026-05-03T08:30:25Z</time></trkpt><trkpt lat="45.94293246296805" lon="12.046814837439149"><ele>1232.0</ele><time>2026-05-03T08:30:26Z</time></trkpt><trkpt lat="45.94295463603654" lon="12.046940074967134"><ele>1233.0</ele><time>2026-05-03T08:30:27Z</time></trkpt><trkpt lat="45.942926029403885" lon="12.047067309644689"><ele>1234.0</ele><time>2026-05-03T08:30:28Z</time></trkpt><trkpt lat="45.942863476083204" lon="12.047179135798585"><ele>1234.0</ele><time>2026-05-03T08:30:29Z</time></trkpt><trkpt lat="45.94278103522218" lon="12.047277649754083"><ele>1234.0</ele><time>2026-05-03T08:30:30Z</time></trkpt><trkpt lat="45.94269747585353" lon="12.047369009203628"><ele>1234.0</ele><time>2026-05-03T08:30:31Z</time></trkpt><trkpt lat="45.94262855725135" lon="12.047445574928853"><ele>1234.0</ele><time>2026-05-03T08:30:32Z</time></trkpt><trkpt lat="45.94258069061107" lon="12.047518932802022"><ele>1234.0</ele><time>2026-05-03T08:30:33Z</time></trkpt><trkpt lat="45.9425626458344" lon="12.047609781895574"><ele>1234.0</ele><time>2026-05-03T08:30:34Z</time></trkpt><trkpt lat="45.942554235908084" lon="12.047760737087051"><ele>1234.0</ele><time>2026-05-03T08:30:35.999Z</time></trkpt><trkpt lat="45.94259557280739" lon="12.047850236548568"><ele>1234.0</ele><time>2026-05-03T08:30:39.999Z</time></trkpt><trkpt lat="45.94264577055398" lon="12.047769862099123"><ele>1234.0</ele><time>2026-05-03T08:30:43.999Z</time></trkpt><trkpt lat="45.942661075083954" lon="12.047636258546532"><ele>1234.0</ele><time>2026-05-03T08:30:45.999Z</time></trkpt><trkpt lat="45.942724118939154" lon="12.047495604041483"><ele>1234.0</ele><time>2026-05-03T08:30:47.999Z</time></trkpt><trkpt lat="45.942776079084844" lon="12.047440733560068"><ele>1234.0</ele><time>2026-05-03T08:30:48.999Z</time></trkpt><trkpt lat="45.94283001117587" lon="12.047390546461427"><ele>1234.0</ele><time>2026-05-03T08:30:49.999Z</time></trkpt><trkpt lat="45.942930392790814" lon="12.047343131028441"><ele>1234.0</ele><time>2026-05-03T08:30:51.999Z</time></trkpt><trkpt lat="45.94300028728942" lon="12.047424089810454"><ele>1234.0</ele><time>2026-05-03T08:30:53.999Z</time></trkpt><trkpt lat="45.942962060930704" lon="12.047583816952875"><ele>1234.0</ele><time>2026-05-03T08:30:55.999Z</time></trkpt><trkpt lat="45.94292727053897" lon="12.047675339575568"><ele>1234.0</ele><time>2026-05-03T08:30:56.999Z</time></trkpt><trkpt lat="45.94290629314348" lon="12.047783854854396"><ele>1233.8333333333333</ele><time>2026-05-03T08:30:57.999Z</time></trkpt><trkpt lat="45.94291272429022" lon="12.047900876612411"><ele>1233.6666666666665</ele><time>2026-05-03T08:30:58.999Z</time></trkpt><trkpt lat="45.94294259529115" lon="12.048014768702581"><ele>1233.5</ele><time>2026-05-03T08:30:59.999Z</time></trkpt><trkpt lat="45.94299256114057" lon="12.048099783395"><ele>1233.3333333333333</ele><time>2026-05-03T08:31:00.999Z</time></trkpt><trkpt lat="45.94305699924114" lon="12.048153256258331"><ele>1233.1666666666667</ele><time>2026-05-03T08:31:01.999Z</time></trkpt><trkpt lat="45.94312350671129" lon="12.048197402838321"><ele>1233.0</ele><time>2026-05-03T08:31:02.999Z</time></trkpt><trkpt lat="45.94317928142628" lon="12.048244625369344"><ele>1231.4</ele><time>2026-05-03T08:31:03.999Z</time></trkpt><trkpt lat="45.943276819665215" lon="12.048307293235204"><ele>1229.8</ele><time>2026-05-03T08:31:05.999Z</time></trkpt><trkpt lat="45.943350853963366" lon="12.048344451665802"><ele>1228.2</ele><time>2026-05-03T08:31:07.999Z</time></trkpt><trkpt lat="45.943469173374034" lon="12.04839510859939"><ele>1226.6</ele><time>2026-05-03T08:31:09.999Z</time></trkpt><trkpt lat="45.94353812770336" lon="12.048539122170153"><ele>1225.0</ele><time>2026-05-03T08:31:11.999Z</time></trkpt><trkpt lat="45.94355338423693" lon="12.048648782588925"><ele>1228.6666666666665</ele><time>2026-05-03T08:31:12.999Z</time></trkpt><trkpt lat="45.94357596204285" lon="12.048764188455374"><ele>1232.3333333333333</ele><time>2026-05-03T08:31:13.999Z</time></trkpt><trkpt lat="45.94359539171501" lon="12.048874107249015"><ele>1236.0</ele><time>2026-05-03T08:31:14.999Z</time></trkpt><trkpt lat="45.943628981915964" lon="12.048983439853941"><ele>1239.6666666666667</ele><time>2026-05-03T08:31:15.999Z</time></trkpt><trkpt lat="45.94367760224035" lon="12.049077368673261"><ele>1243.3333333333335</ele><time>2026-05-03T08:31:16.999Z</time></trkpt><trkpt lat="45.94372709027094" lon="12.049171600290448"><ele>1247.0</ele><time>2026-05-03T08:31:17.999Z</time></trkpt><trkpt lat="45.943773796726134" lon="12.049253755263889"><ele>1247.0</ele><time>2026-05-03T08:31:18.999Z</time></trkpt><trkpt lat="45.943828751517415" lon="12.049315154026234"><ele>1247.0</ele><time>2026-05-03T08:31:19.999Z</time></trkpt><trkpt lat="45.943887641438856" lon="12.049365242632435"><ele>1247.0</ele><time>2026-05-03T08:31:20.999Z</time></trkpt><trkpt lat="45.9439589944338" lon="12.049423645298887"><ele>1247.0</ele><time>2026-05-03T08:31:21.999Z</time></trkpt><trkpt lat="45.94402508938311" lon="12.049493183771713"><ele>1247.0</ele><time>2026-05-03T08:31:22.999Z</time></trkpt><trkpt lat="45.94408819366685" lon="12.049554719549594"><ele>1247.0</ele><time>2026-05-03T08:31:23.999Z</time></trkpt><trkpt lat="45.94415179582719" lon="12.049622202475645"><ele>1247.0</ele><time>2026-05-03T08:31:24.999Z</time></trkpt><trkpt lat="45.944210785838955" lon="12.049703735061728"><ele>1247.0</ele><time>2026-05-03T08:31:25.999Z</time></trkpt><trkpt lat="45.94426898070926" lon="12.049800537414654"><ele>1247.0</ele><time>2026-05-03T08:31:26.999Z</time></trkpt><trkpt lat="45.9443337484881" lon="12.049887351499521"><ele>1247.0</ele><time>2026-05-03T08:31:27.999Z</time></trkpt><trkpt lat="45.9443967528189" lon="12.049970332345557"><ele>1247.0</ele><time>2026-05-03T08:31:28.999Z</time></trkpt><trkpt lat="45.9444620739783" lon="12.050040247823212"><ele>1247.0</ele><time>2026-05-03T08:31:29.999Z</time></trkpt><trkpt lat="45.94452044152222" lon="12.050111995514984"><ele>1249.5714285714287</ele><time>2026-05-03T08:31:30.999Z</time></trkpt><trkpt lat="45.94456314102795" lon="12.050192209064885"><ele>1252.142857142857</ele><time>2026-05-03T08:31:31.999Z</time></trkpt><trkpt lat="45.94458868607279" lon="12.050296568014543"><ele>1254.7142857142858</ele><time>2026-05-03T08:31:32.999Z</time></trkpt><trkpt lat="45.94458922577473" lon="12.050403653975826"><ele>1257.2857142857142</ele><time>2026-05-03T08:31:33.999Z</time></trkpt><trkpt lat="45.94458227279486" lon="12.050516167224082"><ele>1259.857142857143</ele><time>2026-05-03T08:31:34.999Z</time></trkpt><trkpt lat="45.944591993770224" lon="12.05061888998262"><ele>1262.4285714285713</ele><time>2026-05-03T08:31:35.999Z</time></trkpt><trkpt lat="45.94463024826633" lon="12.050709267021947"><ele>1265.0</ele><time>2026-05-03T08:31:36.999Z</time></trkpt><trkpt lat="45.94469000082024" lon="12.050779367167365"><ele>1262.3333333333335</ele><time>2026-05-03T08:31:37.999Z</time></trkpt><trkpt lat="45.94476514127132" lon="12.050826134553311"><ele>1259.6666666666667</ele><time>2026-05-03T08:31:38.999Z</time></trkpt><trkpt lat="45.94483122028299" lon="12.050867680838799"><ele>1257.0</ele><time>2026-05-03T08:31:39.999Z</time></trkpt><trkpt lat="45.944886622056934" lon="12.050935336653232"><ele>1254.3333333333333</ele><time>2026-05-03T08:31:40.999Z</time></trkpt><trkpt lat="45.94492259180967" lon="12.051043034850672"><ele>1251.6666666666665</ele><time>2026-05-03T08:31:41.999Z</time></trkpt><trkpt lat="45.94493006161146" lon="12.051153433327071"><ele>1249.0</ele><time>2026-05-03T08:31:42.999Z</time></trkpt><trkpt lat="45.944936807304806" lon="12.051260283489324"><ele>1249.0</ele><time>2026-05-03T08:31:43.999Z</time></trkpt><trkpt lat="45.94495426702697" lon="12.051361481875027"><ele>1249.0</ele><time>2026-05-03T08:31:44.999Z</time></trkpt><trkpt lat="45.944992503076634" lon="12.051540534574343"><ele>1249.0</ele><time>2026-05-03T08:31:46.999Z</time></trkpt><trkpt lat="45.94503636614807" lon="12.05169423898436"><ele>1249.0</ele><time>2026-05-03T08:31:48.999Z</time></trkpt><trkpt lat="45.945062292406185" lon="12.051848973702228"><ele>1249.0</ele><time>2026-05-03T08:31:50.999Z</time></trkpt><trkpt lat="45.945144348018474" lon="12.051940269590157"><ele>1250.0</ele><time>2026-05-03T08:31:52.999Z</time></trkpt><trkpt lat="45.94525504306299" lon="12.051967751436898"><ele>1251.0</ele><time>2026-05-03T08:31:54.999Z</time></trkpt><trkpt lat="45.94537730596443" lon="12.051930631604515"><ele>1252.0</ele><time>2026-05-03T08:31:57Z</time></trkpt><trkpt lat="45.94545865646281" lon="12.051895552472955"><ele>1253.0</ele><time>2026-05-03T08:31:58Z</time></trkpt><trkpt lat="45.945546346605354" lon="12.051849624494333"><ele>1254.0</ele><time>2026-05-03T08:31:59Z</time></trkpt><trkpt lat="45.945639094589836" lon="12.051806559071135"><ele>1254.0</ele><time>2026-05-03T08:32:00Z</time></trkpt><trkpt lat="45.94571800208234" lon="12.05175743507122"><ele>1254.0</ele><time>2026-05-03T08:32:01Z</time></trkpt><trkpt lat="45.9457925676059" lon="12.051703146414892"><ele>1254.0</ele><time>2026-05-03T08:32:02Z</time></trkpt><trkpt lat="45.94585859790174" lon="12.051642146156802"><ele>1254.0</ele><time>2026-05-03T08:32:03Z</time></trkpt><trkpt lat="45.94591782526483" lon="12.051568554204964"><ele>1254.0</ele><time>2026-05-03T08:32:04Z</time></trkpt><trkpt lat="45.94596693106599" lon="12.051492829764422"><ele>1254.0</ele><time>2026-05-03T08:32:05Z</time></trkpt><trkpt lat="45.94600885389336" lon="12.051419195935239"><ele>1257.6000000000001</ele><time>2026-05-03T08:32:06Z</time></trkpt><trkpt lat="45.946083151488395" lon="12.051320223102918"><ele>1261.2</ele><time>2026-05-03T08:32:08Z</time></trkpt><trkpt lat="45.94617075657869" lon="12.051323275549409"><ele>1264.8000000000002</ele><time>2026-05-03T08:32:10Z</time></trkpt><trkpt lat="45.94623586830556" lon="12.051420628041331"><ele>1268.4</ele><time>2026-05-03T08:32:12Z</time></trkpt><trkpt lat="45.946264425853045" lon="12.051578927235784"><ele>1272.0</ele><time>2026-05-03T08:32:14Z</time></trkpt><trkpt lat="45.946277450693" lon="12.05168910759466"><ele>1272.0</ele><time>2026-05-03T08:32:15Z</time></trkpt><trkpt lat="45.946295543463116" lon="12.051809581639276"><ele>1272.0</ele><time>2026-05-03T08:32:16Z</time></trkpt><trkpt lat="45.94631862094301" lon="12.0519345779063"><ele>1272.0</ele><time>2026-05-03T08:32:17Z</time></trkpt><trkpt lat="45.94634658268736" lon="12.052064380023884"><ele>1272.0</ele><time>2026-05-03T08:32:18Z</time></trkpt><trkpt lat="45.94636616638648" lon="12.052160114588585"><ele>1272.0</ele><time>2026-05-03T08:32:19Z</time></trkpt><trkpt lat="45.946395755329085" lon="12.052283856318574"><ele>1272.0</ele><time>2026-05-03T08:32:21Z</time></trkpt><trkpt lat="45.946465519521716" lon="12.052261026144718"><ele>1272.0</ele><time>2026-05-03T08:34:33Z</time></trkpt><trkpt lat="45.94656748177496" lon="12.052233935321805"><ele>1272.0</ele><time>2026-05-03T08:34:35Z</time></trkpt><trkpt lat="45.94664255112947" lon="12.05221403485243"><ele>1272.0</ele><time>2026-05-03T08:34:36Z</time></trkpt><trkpt lat="45.946713304215564" lon="12.052191583154665"><ele>1272.0</ele><time>2026-05-03T08:34:37Z</time></trkpt><trkpt lat="45.94679259434653" lon="12.05216745611534"><ele>1272.0</ele><time>2026-05-03T08:34:38Z</time></trkpt><trkpt lat="45.94687541358137" lon="12.05214185397201"><ele>1272.0</ele><time>2026-05-03T08:34:39Z</time></trkpt><trkpt lat="45.946964080170346" lon="12.052105355422437"><ele>1276.6</ele><time>2026-05-03T08:34:40Z</time></trkpt><trkpt lat="45.94705351219339" lon="12.052065576679668"><ele>1281.2</ele><time>2026-05-03T08:34:41Z</time></trkpt><trkpt lat="45.947142683755" lon="12.05202785401815"><ele>1285.8</ele><time>2026-05-03T08:34:42Z</time></trkpt><trkpt lat="45.947222345606434" lon="12.051979214089123"><ele>1290.4</ele><time>2026-05-03T08:34:43Z</time></trkpt><trkpt lat="45.94731321187479" lon="12.051926392543688"><ele>1295.0</ele><time>2026-05-03T08:34:44Z</time></trkpt><trkpt lat="45.94740589136503" lon="12.05189034548952"><ele>1295.0</ele><time>2026-05-03T08:34:45Z</time></trkpt><trkpt lat="45.94749604541708" lon="12.051889671860371"><ele>1295.0</ele><time>2026-05-03T08:34:46Z</time></trkpt><trkpt lat="45.947573600169505" lon="12.051957612543175"><ele>1295.0</ele><time>2026-05-03T08:34:47Z</time></trkpt><trkpt lat="45.94765989337529" lon="12.05200469238122"><ele>1295.0</ele><time>2026-05-03T08:34:48Z</time></trkpt><trkpt lat="45.947754374169236" lon="12.052020214961631"><ele>1295.0</ele><time>2026-05-03T08:34:49Z</time></trkpt><trkpt lat="45.947845578751064" lon="12.052032760927368"><ele>1296.8</ele><time>2026-05-03T08:34:50Z</time></trkpt><trkpt lat="45.94791468117388" lon="12.052038828702516"><ele>1298.6</ele><time>2026-05-03T08:34:51Z</time></trkpt><trkpt lat="45.9479915472894" lon="12.05217955728767"><ele>1300.4</ele><time>2026-05-03T08:34:53Z</time></trkpt><trkpt lat="45.94798970317223" lon="12.052298082311765"><ele>1302.2</ele><time>2026-05-03T08:34:54Z</time></trkpt><trkpt lat="45.94794837573676" lon="12.052415456313735"><ele>1304.0</ele><time>2026-05-03T08:34:55Z</time></trkpt><trkpt lat="45.94788107232087" lon="12.052484798621492"><ele>1304.0</ele><time>2026-05-03T08:34:56Z</time></trkpt><trkpt lat="45.94781916419561" lon="12.052595376212548"><ele>1304.0</ele><time>2026-05-03T08:34:57Z</time></trkpt><trkpt lat="45.94777939410091" lon="12.05271304784483"><ele>1304.0</ele><time>2026-05-03T08:34:58Z</time></trkpt><trkpt lat="45.94775142494332" lon="12.052843887006013"><ele>1304.0</ele><time>2026-05-03T08:34:59Z</time></trkpt><trkpt lat="45.94774604073116" lon="12.052992364297983"><ele>1304.0</ele><time>2026-05-03T08:35:00Z</time></trkpt><trkpt lat="45.947753072965995" lon="12.053148486531954"><ele>1305.6</ele><time>2026-05-03T08:35:01Z</time></trkpt><trkpt lat="45.947756970322146" lon="12.053310441851592"><ele>1307.2</ele><time>2026-05-03T08:35:02Z</time></trkpt><trkpt lat="45.94775389200803" lon="12.053470871560693"><ele>1308.8</ele><time>2026-05-03T08:35:03Z</time></trkpt><trkpt lat="45.94775469896915" lon="12.053625422548423"><ele>1310.3999999999999</ele><time>2026-05-03T08:35:04Z</time></trkpt><trkpt lat="45.94776084833485" lon="12.053783966390455"><ele>1312.0</ele><time>2026-05-03T08:35:05Z</time></trkpt><trkpt lat="45.94777273906313" lon="12.053947230460835"><ele>1312.0</ele><time>2026-05-03T08:35:06Z</time></trkpt><trkpt lat="45.94778257570361" lon="12.054108490774953"><ele>1312.0</ele><time>2026-05-03T08:35:07Z</time></trkpt><trkpt lat="45.94780013566122" lon="12.054269358369652"><ele>1312.0</ele><time>2026-05-03T08:35:08Z</time></trkpt><trkpt lat="45.94782261305521" lon="12.054437987023842"><ele>1312.0</ele><time>2026-05-03T08:35:09Z</time></trkpt><trkpt lat="45.94785435850517" lon="12.05460233393146"><ele>1312.8</ele><time>2026-05-03T08:35:10Z</time></trkpt><trkpt lat="45.94788304444086" lon="12.054759356222146"><ele>1313.6</ele><time>2026-05-03T08:35:11Z</time></trkpt><trkpt lat="45.94791524422233" lon="12.054912333130229"><ele>1314.3999999999999</ele><time>2026-05-03T08:35:12Z</time></trkpt><trkpt lat="45.94795000161726" lon="12.055065297419235"><ele>1315.1999999999998</ele><time>2026-05-03T08:35:13Z</time></trkpt><trkpt lat="45.948000755599395" lon="12.05515794668566"><ele>1316.0</ele><time>2026-05-03T08:35:14Z</time></trkpt><trkpt lat="45.948040861093766" lon="12.055233907187631"><ele>1314.8</ele><time>2026-05-03T08:35:15Z</time></trkpt><trkpt lat="45.948138347060784" lon="12.055311735731712"><ele>1313.6</ele><time>2026-05-03T08:35:17Z</time></trkpt><trkpt lat="45.948254972915954" lon="12.055301634283108"><ele>1312.4</ele><time>2026-05-03T08:35:19Z</time></trkpt><trkpt lat="45.94836753723189" lon="12.055244687542224"><ele>1311.2</ele><time>2026-05-03T08:35:21Z</time></trkpt><trkpt lat="45.948446397257264" lon="12.055167672431066"><ele>1310.0</ele><time>2026-05-03T08:35:22Z</time></trkpt><trkpt lat="45.948537574765716" lon="12.0550853153039"><ele>1310.0</ele><time>2026-05-03T08:35:23Z</time></trkpt><trkpt lat="45.948624944730966" lon="12.05500062023187"><ele>1310.0</ele><time>2026-05-03T08:35:24Z</time></trkpt><trkpt lat="45.94870007098252" lon="12.054952430591324"><ele>1310.0</ele><time>2026-05-03T08:35:25Z</time></trkpt><trkpt lat="45.94878162631281" lon="12.054913097589145"><ele>1310.0</ele><time>2026-05-03T08:35:26Z</time></trkpt><trkpt lat="45.94886556469405" lon="12.054885003650606"><ele>1310.0</ele><time>2026-05-03T08:35:27Z</time></trkpt><trkpt lat="45.948947991332936" lon="12.05488718133561"><ele>1310.0</ele><time>2026-05-03T08:35:28Z</time></trkpt><trkpt lat="45.94903624000938" lon="12.054922204874673"><ele>1310.0</ele><time>2026-05-03T08:35:29Z</time></trkpt><trkpt lat="45.949129233356494" lon="12.054960940241973"><ele>1310.0</ele><time>2026-05-03T08:35:30Z</time></trkpt><trkpt lat="45.949217522140955" lon="12.054999096907384"><ele>1310.0</ele><time>2026-05-03T08:35:31Z</time></trkpt><trkpt lat="45.949295058892865" lon="12.055043245631467"><ele>1310.0</ele><time>2026-05-03T08:35:32Z</time></trkpt><trkpt lat="45.94936840695118" lon="12.05510275703277"><ele>1310.0</ele><time>2026-05-03T08:35:33Z</time></trkpt><trkpt lat="45.94942987173785" lon="12.055129247259398"><ele>1310.0</ele><time>2026-05-03T08:35:34Z</time></trkpt><trkpt lat="45.949493428414556" lon="12.05514541122305"><ele>1310.0</ele><time>2026-05-03T08:35:35Z</time></trkpt><trkpt lat="45.949556842861924" lon="12.055144254465866"><ele>1310.0</ele><time>2026-05-03T08:35:36Z</time></trkpt><trkpt lat="45.94963429271145" lon="12.055044741707475"><ele>1310.0</ele><time>2026-05-03T08:35:38Z</time></trkpt><trkpt lat="45.94970693622856" lon="12.054939130601475"><ele>1310.0</ele><time>2026-05-03T08:35:40Z</time></trkpt><trkpt lat="45.94975327308208" lon="12.054863053002304"><ele>1310.0</ele><time>2026-05-03T08:35:41Z</time></trkpt><trkpt lat="45.949810141225875" lon="12.054801224555945"><ele>1310.0</ele><time>2026-05-03T08:35:42Z</time></trkpt><trkpt lat="45.94988185237152" lon="12.054773126230138"><ele>1314.5714285714287</ele><time>2026-05-03T08:35:43Z</time></trkpt><trkpt lat="45.949959122764376" lon="12.054769059435152"><ele>1319.142857142857</ele><time>2026-05-03T08:35:44Z</time></trkpt><trkpt lat="45.95003474000259" lon="12.054793978527579"><ele>1323.7142857142858</ele><time>2026-05-03T08:35:45Z</time></trkpt><trkpt lat="45.95011298167683" lon="12.054807167170075"><ele>1328.2857142857142</ele><time>2026-05-03T08:35:45.999Z</time></trkpt><trkpt lat="45.95018529847043" lon="12.054818468732966"><ele>1332.857142857143</ele><time>2026-05-03T08:35:46.999Z</time></trkpt><trkpt lat="45.95025118476739" lon="12.054813255398203"><ele>1337.4285714285713</ele><time>2026-05-03T08:35:47.999Z</time></trkpt><trkpt lat="45.950322915516274" lon="12.05479794614594"><ele>1342.0</ele><time>2026-05-03T08:35:48.999Z</time></trkpt><trkpt lat="45.95039574747086" lon="12.054763652990827"><ele>1342.0</ele><time>2026-05-03T08:35:49.999Z</time></trkpt><trkpt lat="45.95046105227782" lon="12.05472852798239"><ele>1342.0</ele><time>2026-05-03T08:35:50.999Z</time></trkpt><trkpt lat="45.9505868299051" lon="12.054713834377212"><ele>1342.0</ele><time>2026-05-03T08:35:52.999Z</time></trkpt><trkpt lat="45.95065033716746" lon="12.054783689753977"><ele>1342.0</ele><time>2026-05-03T08:35:53.999Z</time></trkpt><trkpt lat="45.95070463947025" lon="12.054854118225165"><ele>1342.0</ele><time>2026-05-03T08:35:54.999Z</time></trkpt><trkpt lat="45.95077705947021" lon="12.054893343327612"><ele>1342.0</ele><time>2026-05-03T08:35:55.999Z</time></trkpt><trkpt lat="45.950841299261214" lon="12.054936358459386"><ele>1338.0</ele><time>2026-05-03T08:35:56.999Z</time></trkpt><trkpt lat="45.95091054850619" lon="12.054968162813116"><ele>1334.0</ele><time>2026-05-03T08:35:57.999Z</time></trkpt><trkpt lat="45.95098000601988" lon="12.05498763896075"><ele>1330.0</ele><time>2026-05-03T08:35:58.999Z</time></trkpt><trkpt lat="45.95104591762543" lon="12.054996611761988"><ele>1326.0</ele><time>2026-05-03T08:35:59.999Z</time></trkpt><trkpt lat="45.951167206393386" lon="12.054993744110545"><ele>1322.0</ele><time>2026-05-03T08:36:01.999Z</time></trkpt><trkpt lat="45.95126886157889" lon="12.054995242202429"><ele>1318.0</ele><time>2026-05-03T08:36:03.999Z</time></trkpt><trkpt lat="45.95137163691293" lon="12.054985757962216"><ele>1318.0</ele><time>2026-05-03T08:36:05.999Z</time></trkpt><trkpt lat="45.95144245745443" lon="12.054979829374197"><ele>1318.0</ele><time>2026-05-03T08:36:07.999Z</time></trkpt><trkpt lat="45.95151534379189" lon="12.054962806210096"><ele>1318.0</ele><time>2026-05-03T08:36:10Z</time></trkpt><trkpt lat="45.95160515824843" lon="12.054918193410277"><ele>1318.0</ele><time>2026-05-03T08:36:12Z</time></trkpt><trkpt lat="45.951665928979054" lon="12.054860358409465"><ele>1318.0</ele><time>2026-05-03T08:36:14Z</time></trkpt><trkpt lat="45.951733142621656" lon="12.054817283374687"><ele>1318.0</ele><time>2026-05-03T08:36:18Z</time></trkpt><trkpt lat="45.951787276282374" lon="12.054770221475954"><ele>1318.0</ele><time>2026-05-03T08:36:23Z</time></trkpt><trkpt lat="45.951852910608515" lon="12.05473159731881"><ele>1319.5</ele><time>2026-05-03T08:36:53Z</time></trkpt><trkpt lat="45.95193833753175" lon="12.05464005629646"><ele>1321.0</ele><time>2026-05-03T08:36:55Z</time></trkpt><trkpt lat="45.95202210069641" lon="12.054536796642047"><ele>1322.5</ele><time>2026-05-03T08:36:57Z</time></trkpt><trkpt lat="45.95207341099435" lon="12.054478723667247"><ele>1324.0</ele><time>2026-05-03T08:36:58Z</time></trkpt><trkpt lat="45.95213184137014" lon="12.054411975178184"><ele>1325.5</ele><time>2026-05-03T08:36:59Z</time></trkpt><trkpt lat="45.95219117809417" lon="12.054351002849788"><ele>1327.0</ele><time>2026-05-03T08:37:00Z</time></trkpt><trkpt lat="45.95224678059119" lon="12.054291083532247"><ele>1327.0</ele><time>2026-05-03T08:37:01Z</time></trkpt><trkpt lat="45.9523091535389" lon="12.054236167498889"><ele>1327.0</ele><time>2026-05-03T08:37:02Z</time></trkpt><trkpt lat="45.9523810920682" lon="12.054181033930142"><ele>1327.0</ele><time>2026-05-03T08:37:03Z</time></trkpt><trkpt lat="45.952452797525645" lon="12.054138640247963"><ele>1327.0</ele><time>2026-05-03T08:37:04Z</time></trkpt><trkpt lat="45.95252512912717" lon="12.05409804112201"><ele>1327.0</ele><time>2026-05-03T08:37:05Z</time></trkpt><trkpt lat="45.95259186588997" lon="12.054047930591118"><ele>1327.0</ele><time>2026-05-03T08:37:06Z</time></trkpt><trkpt lat="45.952669176562694" lon="12.054002648273793"><ele>1326.1666666666665</ele><time>2026-05-03T08:37:07Z</time></trkpt><trkpt lat="45.95274104758917" lon="12.053972743995132"><ele>1325.3333333333333</ele><time>2026-05-03T08:37:08Z</time></trkpt><trkpt lat="45.95281177722611" lon="12.053945039601825"><ele>1324.5</ele><time>2026-05-03T08:37:09Z</time></trkpt><trkpt lat="45.952887753354815" lon="12.05391049653683"><ele>1323.6666666666667</ele><time>2026-05-03T08:37:10Z</time></trkpt><trkpt lat="45.95295750540812" lon="12.053888532162393"><ele>1322.8333333333335</ele><time>2026-05-03T08:37:11Z</time></trkpt><trkpt lat="45.9530317786087" lon="12.053853212524979"><ele>1322.0</ele><time>2026-05-03T08:37:12Z</time></trkpt><trkpt lat="45.95311148502142" lon="12.053810096970444"><ele>1322.0</ele><time>2026-05-03T08:37:13Z</time></trkpt><trkpt lat="45.953182192895376" lon="12.053779215735549"><ele>1322.0</ele><time>2026-05-03T08:37:14Z</time></trkpt><trkpt lat="45.95324946877412" lon="12.05374945636972"><ele>1322.0</ele><time>2026-05-03T08:37:15Z</time></trkpt><trkpt lat="45.95335106264781" lon="12.0536858966557"><ele>1322.0</ele><time>2026-05-03T08:37:17Z</time></trkpt><trkpt lat="45.953418968716385" lon="12.053636513063548"><ele>1322.0</ele><time>2026-05-03T08:37:19Z</time></trkpt><trkpt lat="45.953484377500885" lon="12.053562514201237"><ele>1322.0</ele><time>2026-05-03T08:37:23Z</time></trkpt><trkpt lat="45.95356653877424" lon="12.053449376639389"><ele>1322.8333333333335</ele><time>2026-05-03T08:37:25Z</time></trkpt><trkpt lat="45.95362654100398" lon="12.053377924942598"><ele>1323.6666666666667</ele><time>2026-05-03T08:37:26Z</time></trkpt><trkpt lat="45.95368417098142" lon="12.053298153058046"><ele>1324.5</ele><time>2026-05-03T08:37:27Z</time></trkpt><trkpt lat="45.95374816570558" lon="12.053213470961968"><ele>1325.3333333333333</ele><time>2026-05-03T08:37:28Z</time></trkpt><trkpt lat="45.95381592456149" lon="12.053136048903548"><ele>1326.1666666666665</ele><time>2026-05-03T08:37:29Z</time></trkpt><trkpt lat="45.95388789683039" lon="12.053055905111377"><ele>1327.0</ele><time>2026-05-03T08:37:30Z</time></trkpt><trkpt lat="45.95396143766681" lon="12.052970468358922"><ele>1327.0</ele><time>2026-05-03T08:37:31Z</time></trkpt><trkpt lat="45.95404531630775" lon="12.052890982933931"><ele>1327.0</ele><time>2026-05-03T08:37:32Z</time></trkpt><trkpt lat="45.954136244547364" lon="12.052815486130498"><ele>1327.0</ele><time>2026-05-03T08:37:33Z</time></trkpt><trkpt lat="45.95422415203206" lon="12.052740435605031"><ele>1327.0</ele><time>2026-05-03T08:37:34Z</time></trkpt><trkpt lat="45.95431232493265" lon="12.052654136364756"><ele>1327.0</ele><time>2026-05-03T08:37:35Z</time></trkpt><trkpt lat="45.95440359650427" lon="12.052569068552335"><ele>1327.6</ele><time>2026-05-03T08:37:36Z</time></trkpt><trkpt lat="45.95450022435966" lon="12.05247996236622"><ele>1328.1999999999998</ele><time>2026-05-03T08:37:37Z</time></trkpt><trkpt lat="45.95459024986942" lon="12.05238911938023"><ele>1328.8</ele><time>2026-05-03T08:37:38Z</time></trkpt><trkpt lat="45.95467401297148" lon="12.052324550467157"><ele>1329.4</ele><time>2026-05-03T08:37:39Z</time></trkpt><trkpt lat="45.95476077735507" lon="12.052272630009433"><ele>1330.0</ele><time>2026-05-03T08:37:40Z</time></trkpt><trkpt lat="45.954839532541406" lon="12.052233191609107"><ele>1330.0</ele><time>2026-05-03T08:37:41Z</time></trkpt><trkpt lat="45.954909968876684" lon="12.052185999803122"><ele>1330.0</ele><time>2026-05-03T08:37:42Z</time></trkpt><trkpt lat="45.95498483960198" lon="12.052123905939528"><ele>1330.0</ele><time>2026-05-03T08:37:43Z</time></trkpt><trkpt lat="45.95506071737305" lon="12.052054167230018"><ele>1330.0</ele><time>2026-05-03T08:37:44Z</time></trkpt><trkpt lat="45.95513481612504" lon="12.051962652198595"><ele>1330.0</ele><time>2026-05-03T08:37:45Z</time></trkpt><trkpt lat="45.95522857247728" lon="12.05188999244632"><ele>1329.1666666666665</ele><time>2026-05-03T08:37:46Z</time></trkpt><trkpt lat="45.95531687257784" lon="12.051836753597545"><ele>1328.3333333333333</ele><time>2026-05-03T08:37:47Z</time></trkpt><trkpt lat="45.955398219958866" lon="12.051790657116783"><ele>1327.5</ele><time>2026-05-03T08:37:48Z</time></trkpt><trkpt lat="45.95546759083078" lon="12.051740759478"><ele>1326.6666666666667</ele><time>2026-05-03T08:37:49Z</time></trkpt><trkpt lat="45.95554015220065" lon="12.051684207018926"><ele>1325.8333333333335</ele><time>2026-05-03T08:37:50Z</time></trkpt><trkpt lat="45.955602908035104" lon="12.051605498681669"><ele>1325.0</ele><time>2026-05-03T08:37:51Z</time></trkpt><trkpt lat="45.95565331148392" lon="12.051528926529368"><ele>1325.0</ele><time>2026-05-03T08:37:52Z</time></trkpt><trkpt lat="45.95569801992742" lon="12.051463758683518"><ele>1325.0</ele><time>2026-05-03T08:37:53Z</time></trkpt><trkpt lat="45.955734530546785" lon="12.051374979539505"><ele>1325.0</ele><time>2026-05-03T08:37:54Z</time></trkpt><trkpt lat="45.95577013999411" lon="12.05126968610892"><ele>1325.0</ele><time>2026-05-03T08:37:55Z</time></trkpt><trkpt lat="45.95581104384876" lon="12.051159166212457"><ele>1325.0</ele><time>2026-05-03T08:37:56Z</time></trkpt><trkpt lat="45.95584295530648" lon="12.051054842198457"><ele>1325.0</ele><time>2026-05-03T08:37:57Z</time></trkpt><trkpt lat="45.95588121051187" lon="12.05096313950499"><ele>1323.5</ele><time>2026-05-03T08:37:58Z</time></trkpt><trkpt lat="45.95592246639041" lon="12.050872580979652"><ele>1322.0</ele><time>2026-05-03T08:37:59Z</time></trkpt><trkpt lat="45.955973763126536" lon="12.050792501086864"><ele>1320.5</ele><time>2026-05-03T08:38:00Z</time></trkpt><trkpt lat="45.95603516032216" lon="12.050736151088575"><ele>1319.0</ele><time>2026-05-03T08:38:01Z</time></trkpt><trkpt lat="45.95611435116389" lon="12.05069760573699"><ele>1317.5</ele><time>2026-05-03T08:38:02Z</time></trkpt><trkpt lat="45.95620543785616" lon="12.050675960297127"><ele>1316.0</ele><time>2026-05-03T08:38:03Z</time></trkpt><trkpt lat="45.95629709566546" lon="12.050634845653258"><ele>1316.0</ele><time>2026-05-03T08:38:04Z</time></trkpt><trkpt lat="45.956375234211364" lon="12.050594439766176"><ele>1316.0</ele><time>2026-05-03T08:38:05Z</time></trkpt><trkpt lat="45.95644878423954" lon="12.050564956047872"><ele>1316.0</ele><time>2026-05-03T08:38:06Z</time></trkpt><trkpt lat="45.956518634446" lon="12.050530360410516"><ele>1316.0</ele><time>2026-05-03T08:38:07Z</time></trkpt><trkpt lat="45.95657914366006" lon="12.050503769665518"><ele>1316.0</ele><time>2026-05-03T08:38:08Z</time></trkpt><trkpt lat="45.95669076706422" lon="12.050444234076842"><ele>1316.0</ele><time>2026-05-03T08:38:10Z</time></trkpt><trkpt lat="45.95677935207967" lon="12.050312077627165"><ele>1310.1666666666667</ele><time>2026-05-03T08:38:12Z</time></trkpt><trkpt lat="45.95682787983388" lon="12.050207122009624"><ele>1304.3333333333335</ele><time>2026-05-03T08:38:13Z</time></trkpt><trkpt lat="45.956864781736556" lon="12.050099808144784"><ele>1298.5</ele><time>2026-05-03T08:38:14Z</time></trkpt><trkpt lat="45.95690140052651" lon="12.05000706418156"><ele>1292.6666666666667</ele><time>2026-05-03T08:38:15Z</time></trkpt><trkpt lat="45.95694011438814" lon="12.04990771462956"><ele>1286.8333333333333</ele><time>2026-05-03T08:38:16Z</time></trkpt><trkpt lat="45.956992260895454" lon="12.049805556987264"><ele>1281.0</ele><time>2026-05-03T08:38:17Z</time></trkpt><trkpt lat="45.957041781875226" lon="12.049701580202067"><ele>1281.0</ele><time>2026-05-03T08:38:18Z</time></trkpt><trkpt lat="45.957085445383086" lon="12.049590634933649"><ele>1281.0</ele><time>2026-05-03T08:38:19Z</time></trkpt><trkpt lat="45.95713296763829" lon="12.04948674194651"><ele>1281.0</ele><time>2026-05-03T08:38:20Z</time></trkpt><trkpt lat="45.95718386385608" lon="12.04938089110821"><ele>1281.0</ele><time>2026-05-03T08:38:21Z</time></trkpt><trkpt lat="45.95723145000908" lon="12.049281190486184"><ele>1281.0</ele><time>2026-05-03T08:38:22Z</time></trkpt><trkpt lat="45.95727206613567" lon="12.04917053158695"><ele>1281.0</ele><time>2026-05-03T08:38:23Z</time></trkpt><trkpt lat="45.957319277286565" lon="12.049060964391442"><ele>1283.8</ele><time>2026-05-03T08:38:24Z</time></trkpt><trkpt lat="45.957371018554554" lon="12.048947987360632"><ele>1286.6</ele><time>2026-05-03T08:38:25Z</time></trkpt><trkpt lat="45.95741027721779" lon="12.048820485618926"><ele>1289.4</ele><time>2026-05-03T08:38:26Z</time></trkpt><trkpt lat="45.95745414647809" lon="12.048679102235596"><ele>1292.2</ele><time>2026-05-03T08:38:27Z</time></trkpt><trkpt lat="45.9574907465447" lon="12.048539855572725"><ele>1295.0</ele><time>2026-05-03T08:38:28Z</time></trkpt><trkpt lat="45.957521814901945" lon="12.048386109277068"><ele>1285.25</ele><time>2026-05-03T08:38:29Z</time></trkpt><trkpt lat="45.957554389284" lon="12.048229821212137"><ele>1275.5</ele><time>2026-05-03T08:38:30Z</time></trkpt><trkpt lat="45.95758607337931" lon="12.048071313364932"><ele>1265.75</ele><time>2026-05-03T08:38:31Z</time></trkpt><trkpt lat="45.957618559037634" lon="12.047913177608946"><ele>1256.0</ele><time>2026-05-03T08:38:32Z</time></trkpt><trkpt lat="45.957701747539225" lon="12.047623171694514"><ele>1256.0</ele><time>2026-05-03T08:38:34Z</time></trkpt><trkpt lat="45.957745843277586" lon="12.047487887318667"><ele>1256.0</ele><time>2026-05-03T08:38:35Z</time></trkpt><trkpt lat="45.95777639493863" lon="12.047354065755792"><ele>1256.0</ele><time>2026-05-03T08:38:36Z</time></trkpt><trkpt lat="45.95781317834929" lon="12.04721648529445"><ele>1256.0</ele><time>2026-05-03T08:38:37Z</time></trkpt><trkpt lat="45.95785127847869" lon="12.047086817918006"><ele>1256.0</ele><time>2026-05-03T08:38:38Z</time></trkpt><trkpt lat="45.957897171363044" lon="12.046974758920522"><ele>1258.2</ele><time>2026-05-03T08:38:39Z</time></trkpt><trkpt lat="45.95794872233628" lon="12.046871302117212"><ele>1260.3999999999999</ele><time>2026-05-03T08:38:40Z</time></trkpt><trkpt lat="45.95800045272484" lon="12.04676116935048"><ele>1262.6</ele><time>2026-05-03T08:38:41Z</time></trkpt><trkpt lat="45.95804170985516" lon="12.04663253422549"><ele>1264.8</ele><time>2026-05-03T08:38:42Z</time></trkpt><trkpt lat="45.958079337924495" lon="12.046489003727304"><ele>1267.0</ele><time>2026-05-03T08:38:43Z</time></trkpt><trkpt lat="45.95812005785107" lon="12.046345810503766"><ele>1270.0</ele><time>2026-05-03T08:38:44Z</time></trkpt><trkpt lat="45.95816256012121" lon="12.046215188015843"><ele>1273.0</ele><time>2026-05-03T08:38:45Z</time></trkpt><trkpt lat="45.958197244251394" lon="12.046091328205584"><ele>1276.0</ele><time>2026-05-03T08:38:46Z</time></trkpt><trkpt lat="45.95823761293475" lon="12.045971548480631"><ele>1279.0</ele><time>2026-05-03T08:38:47Z</time></trkpt><trkpt lat="45.9582774397506" lon="12.045846005052466"><ele>1282.0</ele><time>2026-05-03T08:38:48Z</time></trkpt><trkpt lat="45.95831646475145" lon="12.045717417684362"><ele>1281.8333333333333</ele><time>2026-05-03T08:38:49Z</time></trkpt><trkpt lat="45.958350233498784" lon="12.045602935128828"><ele>1281.6666666666665</ele><time>2026-05-03T08:38:50Z</time></trkpt><trkpt lat="45.95838439524378" lon="12.045501158015401"><ele>1281.5</ele><time>2026-05-03T08:38:51Z</time></trkpt><trkpt lat="45.958421042395145" lon="12.045407967267725"><ele>1281.3333333333333</ele><time>2026-05-03T08:38:52Z</time></trkpt><trkpt lat="45.958469099266814" lon="12.04533054865445"><ele>1281.1666666666667</ele><time>2026-05-03T08:38:53Z</time></trkpt><trkpt lat="45.958527131941445" lon="12.045272484581368"><ele>1281.0</ele><time>2026-05-03T08:38:54Z</time></trkpt><trkpt lat="45.95859695803709" lon="12.045223880689178"><ele>1281.0</ele><time>2026-05-03T08:38:55Z</time></trkpt><trkpt lat="45.95866862318512" lon="12.045186924444568"><ele>1281.0</ele><time>2026-05-03T08:38:56Z</time></trkpt><trkpt lat="45.95873656237657" lon="12.045162041491338"><ele>1281.0</ele><time>2026-05-03T08:38:57Z</time></trkpt><trkpt lat="45.95880939313735" lon="12.045153889736095"><ele>1281.0</ele><time>2026-05-03T08:38:58Z</time></trkpt><trkpt lat="45.95888804432072" lon="12.045163156221431"><ele>1281.0</ele><time>2026-05-03T08:38:59Z</time></trkpt><trkpt lat="45.95895662938068" lon="12.045190723261381"><ele>1281.0</ele><time>2026-05-03T08:39:00Z</time></trkpt><trkpt lat="45.95902138771531" lon="12.045217301951556"><ele>1281.0</ele><time>2026-05-03T08:39:01Z</time></trkpt><trkpt lat="45.95908454441498" lon="12.045255800589626"><ele>1281.0</ele><time>2026-05-03T08:39:02Z</time></trkpt><trkpt lat="45.959142525852656" lon="12.045297510455363"><ele>1281.0</ele><time>2026-05-03T08:39:03Z</time></trkpt><trkpt lat="45.959198759744616" lon="12.045357141010689"><ele>1281.0</ele><time>2026-05-03T08:39:04Z</time></trkpt><trkpt lat="45.959254430322545" lon="12.045417266031546"><ele>1281.0</ele><time>2026-05-03T08:39:05Z</time></trkpt><trkpt lat="45.959311026453854" lon="12.04547228759296"><ele>1281.0</ele><time>2026-05-03T08:39:05.999Z</time></trkpt><trkpt lat="45.959367428642835" lon="12.045523906271754"><ele>1281.0</ele><time>2026-05-03T08:39:06.999Z</time></trkpt><trkpt lat="45.959478245591626" lon="12.04557461896816"><ele>1278.1666666666667</ele><time>2026-05-03T08:39:08.999Z</time></trkpt><trkpt lat="45.95956022001949" lon="12.045542156271592"><ele>1275.3333333333333</ele><time>2026-05-03T08:39:10.999Z</time></trkpt><trkpt lat="45.95962522395449" lon="12.04560850864192"><ele>1272.5</ele><time>2026-05-03T08:39:13.999Z</time></trkpt><trkpt lat="45.959592192761384" lon="12.045702417320689"><ele>1269.6666666666665</ele><time>2026-05-03T08:39:15.999Z</time></trkpt><trkpt lat="45.95949647338685" lon="12.045770099788363"><ele>1266.8333333333333</ele><time>2026-05-03T08:39:17.999Z</time></trkpt><trkpt lat="45.95943210869688" lon="12.045781865975757"><ele>1264.0</ele><time>2026-05-03T08:39:18.999Z</time></trkpt><trkpt lat="45.959351805354345" lon="12.045794858532377"><ele>1262.8333333333333</ele><time>2026-05-03T08:39:19.999Z</time></trkpt><trkpt lat="45.95926263483122" lon="12.045803282583943"><ele>1261.6666666666665</ele><time>2026-05-03T08:39:20.999Z</time></trkpt><trkpt lat="45.9591710966906" lon="12.045813212998933"><ele>1260.5</ele><time>2026-05-03T08:39:21.999Z</time></trkpt><trkpt lat="45.95909124039771" lon="12.045828717543701"><ele>1259.3333333333333</ele><time>2026-05-03T08:39:22.999Z</time></trkpt><trkpt lat="45.95901706892635" lon="12.04584425528857"><ele>1258.1666666666667</ele><time>2026-05-03T08:39:23.999Z</time></trkpt><trkpt lat="45.958948641428755" lon="12.045840224705284"><ele>1257.0</ele><time>2026-05-03T08:39:24.999Z</time></trkpt><trkpt lat="45.95888525019134" lon="12.045819369996131"><ele>1257.0</ele><time>2026-05-03T08:39:25.999Z</time></trkpt><trkpt lat="45.9587694286781" lon="12.04584695907219"><ele>1257.0</ele><time>2026-05-03T08:39:27.999Z</time></trkpt><trkpt lat="45.95872104596167" lon="12.04600928436772"><ele>1257.0</ele><time>2026-05-03T08:39:29.999Z</time></trkpt><trkpt lat="45.95871732887724" lon="12.04611091054969"><ele>1257.0</ele><time>2026-05-03T08:39:30.999Z</time></trkpt><trkpt lat="45.95871351700945" lon="12.046229027338617"><ele>1257.0</ele><time>2026-05-03T08:39:31.999Z</time></trkpt><trkpt lat="45.95870353991089" lon="12.046348188699367"><ele>1257.0</ele><time>2026-05-03T08:39:32.999Z</time></trkpt><trkpt lat="45.958689116629714" lon="12.046465219292596"><ele>1257.0</ele><time>2026-05-03T08:39:33.999Z</time></trkpt><trkpt lat="45.95866995957865" lon="12.046578390595386"><ele>1257.0</ele><time>2026-05-03T08:39:34.999Z</time></trkpt><trkpt lat="45.958651017144774" lon="12.04668582168328"><ele>1257.0</ele><time>2026-05-03T08:39:35.999Z</time></trkpt><trkpt lat="45.95862795460957" lon="12.046782524604316"><ele>1257.0</ele><time>2026-05-03T08:39:36.999Z</time></trkpt><trkpt lat="45.95860355073508" lon="12.04688363229021"><ele>1257.0</ele><time>2026-05-03T08:39:37.999Z</time></trkpt><trkpt lat="45.95858443597192" lon="12.046990558431736"><ele>1252.6</ele><time>2026-05-03T08:39:38.999Z</time></trkpt><trkpt lat="45.95856813679922" lon="12.047115685887903"><ele>1248.2</ele><time>2026-05-03T08:39:39.999Z</time></trkpt><trkpt lat="45.958558271284225" lon="12.047248866098812"><ele>1243.8</ele><time>2026-05-03T08:39:40.999Z</time></trkpt><trkpt lat="45.95855100219521" lon="12.047380074313573"><ele>1239.4</ele><time>2026-05-03T08:39:41.999Z</time></trkpt><trkpt lat="45.95854573682094" lon="12.04750973975593"><ele>1235.0</ele><time>2026-05-03T08:39:42.999Z</time></trkpt><trkpt lat="45.95854502462944" lon="12.04763619276384"><ele>1232.0</ele><time>2026-05-03T08:39:43.999Z</time></trkpt><trkpt lat="45.95854746489743" lon="12.047764748794021"><ele>1229.0</ele><time>2026-05-03T08:39:44.999Z</time></trkpt><trkpt lat="45.95854643113305" lon="12.047888486017076"><ele>1226.0</ele><time>2026-05-03T08:39:45.999Z</time></trkpt><trkpt lat="45.95854938143735" lon="12.048013601970508"><ele>1223.0</ele><time>2026-05-03T08:39:46.999Z</time></trkpt><trkpt lat="45.95854742577102" lon="12.048126973574174"><ele>1220.0</ele><time>2026-05-03T08:39:47.999Z</time></trkpt><trkpt lat="45.95853740055805" lon="12.048246671605819"><ele>1217.0</ele><time>2026-05-03T08:39:48.999Z</time></trkpt><trkpt lat="45.958516362582756" lon="12.04838033885036"><ele>1215.2</ele><time>2026-05-03T08:39:49.999Z</time></trkpt><trkpt lat="45.95847795196368" lon="12.048511374192634"><ele>1213.4</ele><time>2026-05-03T08:39:50.999Z</time></trkpt><trkpt lat="45.95845501727537" lon="12.048662617919874"><ele>1211.6</ele><time>2026-05-03T08:39:51.999Z</time></trkpt><trkpt lat="45.958438553618656" lon="12.048818703163077"><ele>1209.8</ele><time>2026-05-03T08:39:52.999Z</time></trkpt><trkpt lat="45.95842350301583" lon="12.048960574613893"><ele>1208.0</ele><time>2026-05-03T08:39:53.999Z</time></trkpt><trkpt lat="45.958409403013015" lon="12.049102483866143"><ele>1206.8333333333335</ele><time>2026-05-03T08:39:54.999Z</time></trkpt><trkpt lat="45.958396248348485" lon="12.04924368617683"><ele>1205.6666666666667</ele><time>2026-05-03T08:39:55.999Z</time></trkpt><trkpt lat="45.95838293274659" lon="12.049381897482311"><ele>1204.5</ele><time>2026-05-03T08:39:56.999Z</time></trkpt><trkpt lat="45.95837436327927" lon="12.049510454748482"><ele>1203.3333333333333</ele><time>2026-05-03T08:39:57.999Z</time></trkpt><trkpt lat="45.958364310433154" lon="12.049625341649275"><ele>1202.1666666666665</ele><time>2026-05-03T08:39:58.999Z</time></trkpt><trkpt lat="45.958342421694475" lon="12.049732352495774"><ele>1201.0</ele><time>2026-05-03T08:39:59.999Z</time></trkpt><trkpt lat="45.95832134494181" lon="12.049836152312526"><ele>1204.6666666666665</ele><time>2026-05-03T08:40:00.999Z</time></trkpt><trkpt lat="45.958296568808784" lon="12.049941083693161"><ele>1208.3333333333333</ele><time>2026-05-03T08:40:01.999Z</time></trkpt><trkpt lat="45.95826819266313" lon="12.050058795861505"><ele>1212.0</ele><time>2026-05-03T08:40:02.999Z</time></trkpt><trkpt lat="45.95823749339639" lon="12.050158084152908"><ele>1215.6666666666667</ele><time>2026-05-03T08:40:03.999Z</time></trkpt><trkpt lat="45.9581989775392" lon="12.050256052190674"><ele>1219.3333333333335</ele><time>2026-05-03T08:40:04.999Z</time></trkpt><trkpt lat="45.9581604201867" lon="12.050359978375932"><ele>1223.0</ele><time>2026-05-03T08:40:05.999Z</time></trkpt><trkpt lat="45.958127448294874" lon="12.050451538953089"><ele>1223.0</ele><time>2026-05-03T08:40:06.999Z</time></trkpt><trkpt lat="45.95809533267106" lon="12.0505484570895"><ele>1223.0</ele><time>2026-05-03T08:40:07.999Z</time></trkpt><trkpt lat="45.95806656905422" lon="12.05065699221898"><ele>1223.0</ele><time>2026-05-03T08:40:08.999Z</time></trkpt><trkpt lat="45.958028002830176" lon="12.050767280601729"><ele>1223.0</ele><time>2026-05-03T08:40:09.999Z</time></trkpt><trkpt lat="45.95798500410799" lon="12.050870803261999"><ele>1223.0</ele><time>2026-05-03T08:40:10.999Z</time></trkpt><trkpt lat="45.95793801628566" lon="12.050974680961435"><ele>1223.0</ele><time>2026-05-03T08:40:11.999Z</time></trkpt><trkpt lat="45.957896883774815" lon="12.051063123886722"><ele>1220.6666666666667</ele><time>2026-05-03T08:40:12.999Z</time></trkpt><trkpt lat="45.95784727278015" lon="12.05115296521979"><ele>1218.3333333333335</ele><time>2026-05-03T08:40:13.999Z</time></trkpt><trkpt lat="45.957796689660505" lon="12.051226578851852"><ele>1216.0</ele><time>2026-05-03T08:40:14.999Z</time></trkpt><trkpt lat="45.95773680743168" lon="12.051273817984704"><ele>1213.6666666666667</ele><time>2026-05-03T08:40:15.999Z</time></trkpt><trkpt lat="45.95766172152238" lon="12.051325286177637"><ele>1211.3333333333333</ele><time>2026-05-03T08:40:16.999Z</time></trkpt><trkpt lat="45.9575902650956" lon="12.051372969369494"><ele>1209.0</ele><time>2026-05-03T08:40:17.999Z</time></trkpt><trkpt lat="45.957499438660825" lon="12.05142970146273"><ele>1211.6000000000001</ele><time>2026-05-03T08:40:18.999Z</time></trkpt><trkpt lat="45.95741349145297" lon="12.051475331742683"><ele>1214.2</ele><time>2026-05-03T08:40:19.998Z</time></trkpt><trkpt lat="45.95732897309431" lon="12.051529262088792"><ele>1216.8000000000002</ele><time>2026-05-03T08:40:20.998Z</time></trkpt><trkpt lat="45.95724383045324" lon="12.051587572755444"><ele>1219.4</ele><time>2026-05-03T08:40:21.998Z</time></trkpt><trkpt lat="45.95716202298907" lon="12.051643415834386"><ele>1222.0</ele><time>2026-05-03T08:40:22.999Z</time></trkpt><trkpt lat="45.95707945484873" lon="12.051681917108052"><ele>1222.0</ele><time>2026-05-03T08:40:23.999Z</time></trkpt><trkpt lat="45.95699884442223" lon="12.051728965290419"><ele>1222.0</ele><time>2026-05-03T08:40:24.999Z</time></trkpt><trkpt lat="45.95691994918704" lon="12.051788951877944"><ele>1222.0</ele><time>2026-05-03T08:40:25.999Z</time></trkpt><trkpt lat="45.95684002342618" lon="12.051871574000053"><ele>1222.0</ele><time>2026-05-03T08:40:26.999Z</time></trkpt><trkpt lat="45.95677944592628" lon="12.051955413051417"><ele>1222.0</ele><time>2026-05-03T08:40:27.999Z</time></trkpt><trkpt lat="45.95668026192925" lon="12.05204659127358"><ele>1222.0</ele><time>2026-05-03T08:40:29.999Z</time></trkpt><trkpt lat="45.956609609855" lon="12.052134018578991"><ele>1222.0</ele><time>2026-05-03T08:40:31.999Z</time></trkpt><trkpt lat="45.95664023220868" lon="12.052215348591407"><ele>1222.0</ele><time>2026-05-03T08:40:32.999Z</time></trkpt><trkpt lat="45.95670143309261" lon="12.052259621378035"><ele>1222.0</ele><time>2026-05-03T08:40:34.999Z</time></trkpt><trkpt lat="45.95677018630023" lon="12.052279670283514"><ele>1222.0</ele><time>2026-05-03T08:40:36.999Z</time></trkpt><trkpt lat="45.956889257572264" lon="12.052385755045433"><ele>1222.0</ele><time>2026-05-03T08:40:38.999Z</time></trkpt><trkpt lat="45.95696381849856" lon="12.052441281900645"><ele>1221.1666666666665</ele><time>2026-05-03T08:40:39.999Z</time></trkpt><trkpt lat="45.95701848353057" lon="12.052517937222934"><ele>1220.3333333333333</ele><time>2026-05-03T08:40:40.999Z</time></trkpt><trkpt lat="45.95707329156083" lon="12.052580681661482"><ele>1219.5</ele><time>2026-05-03T08:40:41.999Z</time></trkpt><trkpt lat="45.95716096682804" lon="12.052713786655493"><ele>1218.6666666666667</ele><time>2026-05-03T08:40:43.999Z</time></trkpt><trkpt lat="45.957181725495474" lon="12.052833773648958"><ele>1217.8333333333335</ele><time>2026-05-03T08:40:44.999Z</time></trkpt><trkpt lat="45.95720795753753" lon="12.052939378332159"><ele>1217.0</ele><time>2026-05-03T08:40:45.999Z</time></trkpt><trkpt lat="45.95723256506788" lon="12.05304729005595"><ele>1217.0</ele><time>2026-05-03T08:40:46.999Z</time></trkpt><trkpt lat="45.95725585959918" lon="12.05315645402492"><ele>1217.0</ele><time>2026-05-03T08:40:47.999Z</time></trkpt><trkpt lat="45.957276660860586" lon="12.053257838364692"><ele>1217.0</ele><time>2026-05-03T08:40:48.999Z</time></trkpt><trkpt lat="45.95729757950518" lon="12.053358631909166"><ele>1217.0</ele><time>2026-05-03T08:40:49.999Z</time></trkpt><trkpt lat="45.95732150546064" lon="12.05346525491913"><ele>1217.0</ele><time>2026-05-03T08:40:50.999Z</time></trkpt><trkpt lat="45.95734056271695" lon="12.053566243727047"><ele>1217.0</ele><time>2026-05-03T08:40:51.999Z</time></trkpt><trkpt lat="45.957357839121244" lon="12.053663053393468"><ele>1217.0</ele><time>2026-05-03T08:40:52.999Z</time></trkpt><trkpt lat="45.9573742834278" lon="12.053755433211533"><ele>1215.0</ele><time>2026-05-03T08:40:53.999Z</time></trkpt><trkpt lat="45.95740226389879" lon="12.053890062795"><ele>1213.0</ele><time>2026-05-03T08:40:55.999Z</time></trkpt><trkpt lat="45.957423962611315" lon="12.054015087813532"><ele>1211.0</ele><time>2026-05-03T08:40:57.999Z</time></trkpt><trkpt lat="45.95753075942137" lon="12.05405932476986"><ele>1209.0</ele><time>2026-05-03T08:40:59.999Z</time></trkpt><trkpt lat="45.95760374698899" lon="12.0540697638757"><ele>1207.0</ele><time>2026-05-03T08:41:00.999Z</time></trkpt><trkpt lat="45.957685262071564" lon="12.054069190176271"><ele>1207.0</ele><time>2026-05-03T08:41:01.999Z</time></trkpt><trkpt lat="45.957773435920835" lon="12.054034207767753"><ele>1207.0</ele><time>2026-05-03T08:41:02.999Z</time></trkpt><trkpt lat="45.95784589893551" lon="12.053986035157322"><ele>1207.0</ele><time>2026-05-03T08:41:03.999Z</time></trkpt><trkpt lat="45.957951815925206" lon="12.053943537027362"><ele>1207.0</ele><time>2026-05-03T08:41:05.999Z</time></trkpt><trkpt lat="45.958031173223205" lon="12.053934064345842"><ele>1207.0</ele><time>2026-05-03T08:41:07.999Z</time></trkpt><trkpt lat="45.95809217936661" lon="12.053905286560585"><ele>1207.0</ele><time>2026-05-03T08:41:10.999Z</time></trkpt><trkpt lat="45.95816079551313" lon="12.053916821084778"><ele>1207.0</ele><time>2026-05-03T08:41:12.999Z</time></trkpt><trkpt lat="45.95824981454745" lon="12.053943276230237"><ele>1207.0</ele><time>2026-05-03T08:41:14.999Z</time></trkpt><trkpt lat="45.95833555218078" lon="12.05401390282643"><ele>1207.0</ele><time>2026-05-03T08:41:16.999Z</time></trkpt><trkpt lat="45.95840418678361" lon="12.054110993276703"><ele>1207.0</ele><time>2026-05-03T08:41:18.999Z</time></trkpt><trkpt lat="45.95846198022122" lon="12.054206979717728"><ele>1207.0</ele><time>2026-05-03T08:41:20.999Z</time></trkpt><trkpt lat="45.958537673547994" lon="12.054349730627719"><ele>1206.8333333333333</ele><time>2026-05-03T08:41:22.999Z</time></trkpt><trkpt lat="45.958559583107224" lon="12.054435166284547"><ele>1206.6666666666665</ele><time>2026-05-03T08:41:23.999Z</time></trkpt><trkpt lat="45.95858491149449" lon="12.054532252261275"><ele>1206.5</ele><time>2026-05-03T08:41:24.999Z</time></trkpt><trkpt lat="45.95860268415526" lon="12.054621077694627"><ele>1206.3333333333333</ele><time>2026-05-03T08:41:25.999Z</time></trkpt><trkpt lat="45.95861553705978" lon="12.05473689257086"><ele>1206.1666666666667</ele><time>2026-05-03T08:41:26.999Z</time></trkpt><trkpt lat="45.95863275162222" lon="12.054859356819287"><ele>1206.0</ele><time>2026-05-03T08:41:27.999Z</time></trkpt><trkpt lat="45.95864732589434" lon="12.054983316389551"><ele>1206.0</ele><time>2026-05-03T08:41:28.999Z</time></trkpt><trkpt lat="45.95866125552006" lon="12.055116483849577"><ele>1206.0</ele><time>2026-05-03T08:41:29.999Z</time></trkpt><trkpt lat="45.95868655162402" lon="12.055235761449365"><ele>1206.0</ele><time>2026-05-03T08:41:30.999Z</time></trkpt><trkpt lat="45.95868811443615" lon="12.05536065493959"><ele>1206.0</ele><time>2026-05-03T08:41:31.999Z</time></trkpt><trkpt lat="45.9586943666267" lon="12.05548531257715"><ele>1206.0</ele><time>2026-05-03T08:41:32.999Z</time></trkpt><trkpt lat="45.958707102657435" lon="12.05560158837913"><ele>1206.0</ele><time>2026-05-03T08:41:33.999Z</time></trkpt><trkpt lat="45.958722273751796" lon="12.05571532317774"><ele>1207.5</ele><time>2026-05-03T08:41:34.999Z</time></trkpt><trkpt lat="45.958734386024204" lon="12.055836690121112"><ele>1209.0</ele><time>2026-05-03T08:41:35.999Z</time></trkpt><trkpt lat="45.95875283777003" lon="12.05596510700531"><ele>1210.5</ele><time>2026-05-03T08:41:36.999Z</time></trkpt><trkpt lat="45.95877796887809" lon="12.056087560718696"><ele>1212.0</ele><time>2026-05-03T08:41:37.999Z</time></trkpt><trkpt lat="45.95880591025226" lon="12.056205459652126"><ele>1213.5</ele><time>2026-05-03T08:41:38.999Z</time></trkpt><trkpt lat="45.958829732667134" lon="12.056314116040804"><ele>1215.0</ele><time>2026-05-03T08:41:39.999Z</time></trkpt><trkpt lat="45.95886374977108" lon="12.056413464433552"><ele>1215.0</ele><time>2026-05-03T08:41:40.999Z</time></trkpt><trkpt lat="45.958883551210725" lon="12.05651518528317"><ele>1215.0</ele><time>2026-05-03T08:41:41.999Z</time></trkpt><trkpt lat="45.95891139284082" lon="12.056613196076507"><ele>1215.0</ele><time>2026-05-03T08:41:42.999Z</time></trkpt><trkpt lat="45.95893340098269" lon="12.05671733044016"><ele>1215.0</ele><time>2026-05-03T08:41:43.999Z</time></trkpt><trkpt lat="45.95894895969201" lon="12.056831703558762"><ele>1215.0</ele><time>2026-05-03T08:41:44.999Z</time></trkpt><trkpt lat="45.95895597804389" lon="12.056948435577988"><ele>1215.0</ele><time>2026-05-03T08:41:45.999Z</time></trkpt><trkpt lat="45.95895845912872" lon="12.057070299810132"><ele>1217.4</ele><time>2026-05-03T08:41:46.999Z</time></trkpt><trkpt lat="45.95895710036048" lon="12.057211008288615"><ele>1219.8</ele><time>2026-05-03T08:41:47.999Z</time></trkpt><trkpt lat="45.958970138511354" lon="12.05737386213627"><ele>1222.2</ele><time>2026-05-03T08:41:48.999Z</time></trkpt><trkpt lat="45.95896620683521" lon="12.057540767593341"><ele>1224.6</ele><time>2026-05-03T08:41:49.999Z</time></trkpt><trkpt lat="45.95895014813931" lon="12.057709317151886"><ele>1227.0</ele><time>2026-05-03T08:41:50.999Z</time></trkpt><trkpt lat="45.958958451446534" lon="12.057866922745598"><ele>1230.2</ele><time>2026-05-03T08:41:51.999Z</time></trkpt><trkpt lat="45.9589757650189" lon="12.05801887016779"><ele>1233.4</ele><time>2026-05-03T08:41:52.999Z</time></trkpt><trkpt lat="45.95900082486021" lon="12.058165578049204"><ele>1236.6</ele><time>2026-05-03T08:41:53.999Z</time></trkpt><trkpt lat="45.95903112237801" lon="12.058310263121662"><ele>1239.8</ele><time>2026-05-03T08:41:54.999Z</time></trkpt><trkpt lat="45.95908275126593" lon="12.05845477102"><ele>1243.0</ele><time>2026-05-03T08:41:55.999Z</time></trkpt><trkpt lat="45.95912011789694" lon="12.058611947977571"><ele>1241.2</ele><time>2026-05-03T08:41:56.999Z</time></trkpt><trkpt lat="45.9591562868687" lon="12.058757794518181"><ele>1239.4</ele><time>2026-05-03T08:41:57.999Z</time></trkpt><trkpt lat="45.95920252527056" lon="12.058889633241876"><ele>1237.6000000000001</ele><time>2026-05-03T08:41:58.999Z</time></trkpt><trkpt lat="45.95925265187631" lon="12.0589505480454"><ele>1235.8</ele><time>2026-05-03T08:41:59.999Z</time></trkpt><trkpt lat="45.95929490119698" lon="12.059026515381627"><ele>1234.0</ele><time>2026-05-03T08:42:01.999Z</time></trkpt><trkpt lat="45.959382330680256" lon="12.059143886938728"><ele>1234.0</ele><time>2026-05-03T08:42:28.999Z</time></trkpt><trkpt lat="45.959460674195384" lon="12.059138978745668"><ele>1234.0</ele><time>2026-05-03T08:42:29.999Z</time></trkpt><trkpt lat="45.95954742666031" lon="12.059130094092758"><ele>1234.0</ele><time>2026-05-03T08:42:30.999Z</time></trkpt><trkpt lat="45.95964662891178" lon="12.059105000237572"><ele>1234.0</ele><time>2026-05-03T08:42:31.999Z</time></trkpt><trkpt lat="45.959740299439844" lon="12.059100040211959"><ele>1234.0</ele><time>2026-05-03T08:42:32.999Z</time></trkpt><trkpt lat="45.95983197597744" lon="12.059104882176499"><ele>1233.0</ele><time>2026-05-03T08:42:33.999Z</time></trkpt><trkpt lat="45.959909401923994" lon="12.059129503727839"><ele>1232.0</ele><time>2026-05-03T08:42:34.999Z</time></trkpt><trkpt lat="45.95997368344013" lon="12.05916521141673"><ele>1231.0</ele><time>2026-05-03T08:42:36Z</time></trkpt><trkpt lat="45.9600666426392" lon="12.059268596029494"><ele>1230.0</ele><time>2026-05-03T08:42:38Z</time></trkpt><trkpt lat="45.96015226223807" lon="12.05938438279711"><ele>1229.0</ele><time>2026-05-03T08:42:40Z</time></trkpt><trkpt lat="45.96022497966496" lon="12.059490941273998"><ele>1229.0</ele><time>2026-05-03T08:42:42Z</time></trkpt><trkpt lat="45.96031880585245" lon="12.059613078225672"><ele>1229.0</ele><time>2026-05-03T08:42:44Z</time></trkpt><trkpt lat="45.96037236382896" lon="12.059674970266444"><ele>1229.0</ele><time>2026-05-03T08:42:45Z</time></trkpt><trkpt lat="45.96043410521338" lon="12.059738841117802"><ele>1229.0</ele><time>2026-05-03T08:42:46Z</time></trkpt><trkpt lat="45.96049752384065" lon="12.05979961524383"><ele>1229.0</ele><time>2026-05-03T08:42:47Z</time></trkpt><trkpt lat="45.9605660686686" lon="12.059854261500401"><ele>1229.0</ele><time>2026-05-03T08:42:48Z</time></trkpt><trkpt lat="45.96063473521561" lon="12.059895862532931"><ele>1229.0</ele><time>2026-05-03T08:42:49Z</time></trkpt><trkpt lat="45.96070397971665" lon="12.059947941094897"><ele>1229.0</ele><time>2026-05-03T08:42:50Z</time></trkpt><trkpt lat="45.96077880413748" lon="12.059989447606366"><ele>1229.0</ele><time>2026-05-03T08:42:51Z</time></trkpt><trkpt lat="45.96084288537041" lon="12.060043872717179"><ele>1229.0</ele><time>2026-05-03T08:42:52Z</time></trkpt><trkpt lat="45.96090075303914" lon="12.060097406753275"><ele>1229.0</ele><time>2026-05-03T08:42:53Z</time></trkpt><trkpt lat="45.96095793120772" lon="12.060161880983259"><ele>1229.0</ele><time>2026-05-03T08:42:54Z</time></trkpt><trkpt lat="45.96101759545622" lon="12.060232605936143"><ele>1228.8333333333335</ele><time>2026-05-03T08:42:55Z</time></trkpt><trkpt lat="45.961083931463925" lon="12.060294798502339"><ele>1228.6666666666667</ele><time>2026-05-03T08:42:56Z</time></trkpt><trkpt lat="45.961150633307454" lon="12.06035470034779"><ele>1228.5</ele><time>2026-05-03T08:42:57Z</time></trkpt><trkpt lat="45.961217807929884" lon="12.060396816911602"><ele>1228.3333333333333</ele><time>2026-05-03T08:42:58Z</time></trkpt><trkpt lat="45.9612854834836" lon="12.06043448695594"><ele>1228.1666666666665</ele><time>2026-05-03T08:42:59Z</time></trkpt><trkpt lat="45.96134971580291" lon="12.060465845287704"><ele>1228.0</ele><time>2026-05-03T08:43:00Z</time></trkpt><trkpt lat="45.961473366649685" lon="12.060521253077393"><ele>1227.9999999999998</ele><time>2026-05-03T08:43:02Z</time></trkpt><trkpt lat="45.961538025296555" lon="12.06055366131485"><ele>1228.0</ele><time>2026-05-03T08:43:03Z</time></trkpt><trkpt lat="45.96160445253611" lon="12.060588809152268"><ele>1228.0</ele><time>2026-05-03T08:43:04Z</time></trkpt><trkpt lat="45.96167077268314" lon="12.060623353838235"><ele>1228.0</ele><time>2026-05-03T08:43:05Z</time></trkpt><trkpt lat="45.96173357898482" lon="12.060664179418374"><ele>1228.0</ele><time>2026-05-03T08:43:06Z</time></trkpt><trkpt lat="45.96179178759837" lon="12.06070679753688"><ele>1227.9999999999998</ele><time>2026-05-03T08:43:07Z</time></trkpt><trkpt lat="45.96184760557569" lon="12.060763371346917"><ele>1228.0</ele><time>2026-05-03T08:43:08Z</time></trkpt><trkpt lat="45.961908541959744" lon="12.060826036793003"><ele>1227.5</ele><time>2026-05-03T08:43:09Z</time></trkpt><trkpt lat="45.96196899171367" lon="12.060901538075754"><ele>1227.0</ele><time>2026-05-03T08:43:10Z</time></trkpt><trkpt lat="45.96202220267876" lon="12.060971784402629"><ele>1226.5</ele><time>2026-05-03T08:43:11Z</time></trkpt><trkpt lat="45.962081532674326" lon="12.061047283721905"><ele>1226.0</ele><time>2026-05-03T08:43:12Z</time></trkpt><trkpt lat="45.96214026652413" lon="12.061132659858462"><ele>1225.5</ele><time>2026-05-03T08:43:13Z</time></trkpt><trkpt lat="45.96219273617366" lon="12.061216760342775"><ele>1225.0</ele><time>2026-05-03T08:43:14Z</time></trkpt><trkpt lat="45.96224656834842" lon="12.061278682854455"><ele>1225.0</ele><time>2026-05-03T08:43:15Z</time></trkpt><trkpt lat="45.96228987590513" lon="12.06135218071753"><ele>1225.0</ele><time>2026-05-03T08:43:16Z</time></trkpt><trkpt lat="45.962322781222376" lon="12.061435312223551"><ele>1225.0</ele><time>2026-05-03T08:43:17Z</time></trkpt><trkpt lat="45.96236834749461" lon="12.061524077216895"><ele>1225.0</ele><time>2026-05-03T08:43:18Z</time></trkpt><trkpt lat="45.96243046987832" lon="12.061601626825242"><ele>1225.0</ele><time>2026-05-03T08:43:19Z</time></trkpt><trkpt lat="45.96250342983684" lon="12.061658897687899"><ele>1225.0</ele><time>2026-05-03T08:43:20Z</time></trkpt><trkpt lat="45.96258007008829" lon="12.061689606765443"><ele>1224.6666666666665</ele><time>2026-05-03T08:43:21Z</time></trkpt><trkpt lat="45.962659007830155" lon="12.061721486554585"><ele>1224.3333333333333</ele><time>2026-05-03T08:43:22Z</time></trkpt><trkpt lat="45.9627280294754" lon="12.061768978922046"><ele>1224.0</ele><time>2026-05-03T08:43:23Z</time></trkpt><trkpt lat="45.96279946491526" lon="12.061815129475383"><ele>1223.6666666666667</ele><time>2026-05-03T08:43:24Z</time></trkpt><trkpt lat="45.96287135635436" lon="12.061883019730463"><ele>1223.3333333333335</ele><time>2026-05-03T08:43:25Z</time></trkpt><trkpt lat="45.96294079643483" lon="12.06195465424386"><ele>1223.0</ele><time>2026-05-03T08:43:26Z</time></trkpt><trkpt lat="45.9630183827198" lon="12.062015016561283"><ele>1223.0</ele><time>2026-05-03T08:43:27Z</time></trkpt><trkpt lat="45.96309177691759" lon="12.062069808633304"><ele>1223.0</ele><time>2026-05-03T08:43:28Z</time></trkpt><trkpt lat="45.9631555012403" lon="12.062140911200915"><ele>1223.0</ele><time>2026-05-03T08:43:29Z</time></trkpt><trkpt lat="45.96321716771311" lon="12.062205728108461"><ele>1223.0</ele><time>2026-05-03T08:43:30Z</time></trkpt><trkpt lat="45.96328680401856" lon="12.062250976651665"><ele>1223.0</ele><time>2026-05-03T08:43:31Z</time></trkpt><trkpt lat="45.96336095806684" lon="12.06229898766476"><ele>1223.0</ele><time>2026-05-03T08:43:32Z</time></trkpt><trkpt lat="45.963448681634105" lon="12.062329718388995"><ele>1221.0</ele><time>2026-05-03T08:43:33Z</time></trkpt><trkpt lat="45.963539254209934" lon="12.062343779950833"><ele>1219.0</ele><time>2026-05-03T08:43:34Z</time></trkpt><trkpt lat="45.96361957220327" lon="12.062341717622187"><ele>1217.0</ele><time>2026-05-03T08:43:35Z</time></trkpt><trkpt lat="45.963694616602055" lon="12.062350919415179"><ele>1215.0</ele><time>2026-05-03T08:43:36Z</time></trkpt><trkpt lat="45.96376035064501" lon="12.062368385426716"><ele>1213.0</ele><time>2026-05-03T08:43:37Z</time></trkpt><trkpt lat="45.963872304562784" lon="12.062476999742406"><ele>1211.0</ele><time>2026-05-03T08:43:39Z</time></trkpt><trkpt lat="45.96393635199169" lon="12.062562650840787"><ele>1213.1666666666667</ele><time>2026-05-03T08:43:40Z</time></trkpt><trkpt lat="45.96400168675575" lon="12.062648016192329"><ele>1215.3333333333335</ele><time>2026-05-03T08:43:41Z</time></trkpt><trkpt lat="45.96407337651397" lon="12.062711349717848"><ele>1217.5</ele><time>2026-05-03T08:43:42Z</time></trkpt><trkpt lat="45.96414798042269" lon="12.062764200199387"><ele>1219.6666666666667</ele><time>2026-05-03T08:43:43Z</time></trkpt><trkpt lat="45.96422680663692" lon="12.062815326936061"><ele>1221.8333333333333</ele><time>2026-05-03T08:43:44Z</time></trkpt><trkpt lat="45.96430364122586" lon="12.062876020530313"><ele>1224.0</ele><time>2026-05-03T08:43:45Z</time></trkpt><trkpt lat="45.96437732932338" lon="12.062927726170052"><ele>1224.0</ele><time>2026-05-03T08:43:46Z</time></trkpt><trkpt lat="45.96446768421257" lon="12.062946882153419"><ele>1224.0</ele><time>2026-05-03T08:43:47Z</time></trkpt><trkpt lat="45.964545103401775" lon="12.062989599937776"><ele>1224.0</ele><time>2026-05-03T08:43:48Z</time></trkpt><trkpt lat="45.96460837880614" lon="12.063033631530473"><ele>1224.0</ele><time>2026-05-03T08:43:49Z</time></trkpt><trkpt lat="45.96466270682345" lon="12.063079628950186"><ele>1224.0</ele><time>2026-05-03T08:43:50Z</time></trkpt><trkpt lat="45.964752341193005" lon="12.063164078401286"><ele>1224.0</ele><time>2026-05-03T08:43:52Z</time></trkpt><trkpt lat="45.96485345278295" lon="12.063242627910615"><ele>1228.1666666666667</ele><time>2026-05-03T08:43:53.999Z</time></trkpt><trkpt lat="45.96494707679084" lon="12.063309746856007"><ele>1232.3333333333333</ele><time>2026-05-03T08:43:55.999Z</time></trkpt><trkpt lat="45.96503691926846" lon="12.063391754053827"><ele>1236.5</ele><time>2026-05-03T08:43:57.999Z</time></trkpt><trkpt lat="45.96508347611739" lon="12.063454401678184"><ele>1240.6666666666665</ele><time>2026-05-03T08:43:58.999Z</time></trkpt><trkpt lat="45.96512675711718" lon="12.063528902088873"><ele>1244.8333333333333</ele><time>2026-05-03T08:43:59.999Z</time></trkpt><trkpt lat="45.9651670512172" lon="12.063613260346543"><ele>1249.0</ele><time>2026-05-03T08:44:00.999Z</time></trkpt><trkpt lat="45.96520406324189" lon="12.063689335753814"><ele>1249.0</ele><time>2026-05-03T08:44:01.999Z</time></trkpt><trkpt lat="45.96524950282037" lon="12.063851062139369"><ele>1249.0</ele><time>2026-05-03T08:44:03.999Z</time></trkpt><trkpt lat="45.965324441179966" lon="12.063971317311307"><ele>1249.0</ele><time>2026-05-03T08:44:05.999Z</time></trkpt><trkpt lat="45.96539043261302" lon="12.063981396702507"><ele>1249.0</ele><time>2026-05-03T08:44:06.999Z</time></trkpt><trkpt lat="45.96545531556742" lon="12.06395840774318"><ele>1249.0</ele><time>2026-05-03T08:44:07.999Z</time></trkpt><trkpt lat="45.96552614128299" lon="12.063917579546377"><ele>1249.0</ele><time>2026-05-03T08:44:08.999Z</time></trkpt><trkpt lat="45.96559829032197" lon="12.063875082568156"><ele>1249.0</ele><time>2026-05-03T08:44:09.999Z</time></trkpt><trkpt lat="45.96566786845857" lon="12.063830067424325"><ele>1249.0</ele><time>2026-05-03T08:44:10.999Z</time></trkpt><trkpt lat="45.96572704597469" lon="12.06378422109427"><ele>1249.0</ele><time>2026-05-03T08:44:11.999Z</time></trkpt><trkpt lat="45.96580350896065" lon="12.06371309603243"><ele>1249.0</ele><time>2026-05-03T08:44:13.999Z</time></trkpt><trkpt lat="45.96587716816714" lon="12.063762729612936"><ele>1249.0</ele><time>2026-05-03T08:44:15.999Z</time></trkpt><trkpt lat="45.965900727915276" lon="12.063887397676208"><ele>1249.0</ele><time>2026-05-03T08:44:17.999Z</time></trkpt><trkpt lat="45.96589565813545" lon="12.064040791836664"><ele>1245.5</ele><time>2026-05-03T08:44:19.999Z</time></trkpt><trkpt lat="45.96589458846503" lon="12.06413829646356"><ele>1242.0</ele><time>2026-05-03T08:44:20.999Z</time></trkpt><trkpt lat="45.96590300843488" lon="12.064233459623937"><ele>1238.5</ele><time>2026-05-03T08:44:21.999Z</time></trkpt><trkpt lat="45.96590879026708" lon="12.064325747637149"><ele>1235.0</ele><time>2026-05-03T08:44:22.999Z</time></trkpt><trkpt lat="45.965917213419154" lon="12.064507675188546"><ele>1231.5</ele><time>2026-05-03T08:44:24.999Z</time></trkpt><trkpt lat="45.96591146708173" lon="12.064604008536614"><ele>1228.0</ele><time>2026-05-03T08:44:25.999Z</time></trkpt><trkpt lat="45.96589987912498" lon="12.064696763107492"><ele>1228.0</ele><time>2026-05-03T08:44:26.999Z</time></trkpt><trkpt lat="45.96588158846471" lon="12.064798405703083"><ele>1228.0</ele><time>2026-05-03T08:44:27.999Z</time></trkpt><trkpt lat="45.96585722090208" lon="12.064909285022537"><ele>1228.0</ele><time>2026-05-03T08:44:28.999Z</time></trkpt><trkpt lat="45.96583992969576" lon="12.065022364434615"><ele>1228.0</ele><time>2026-05-03T08:44:29.999Z</time></trkpt><trkpt lat="45.965827490437036" lon="12.06513114880717"><ele>1228.0</ele><time>2026-05-03T08:44:30.999Z</time></trkpt><trkpt lat="45.965829848939904" lon="12.06523329777675"><ele>1228.0</ele><time>2026-05-03T08:44:32.001Z</time></trkpt><trkpt lat="45.96585944673219" lon="12.065337111559762"><ele>1227.1666666666665</ele><time>2026-05-03T08:44:33.001Z</time></trkpt><trkpt lat="45.965923200166024" lon="12.065427491954424"><ele>1226.3333333333333</ele><time>2026-05-03T08:44:34.001Z</time></trkpt><trkpt lat="45.965974338830826" lon="12.06550884286552"><ele>1225.5</ele><time>2026-05-03T08:44:35.001Z</time></trkpt><trkpt lat="45.9660076860734" lon="12.065617567342315"><ele>1224.6666666666667</ele><time>2026-05-03T08:44:36.001Z</time></trkpt><trkpt lat="45.96603360644165" lon="12.065733593767378"><ele>1223.8333333333335</ele><time>2026-05-03T08:44:37.001Z</time></trkpt><trkpt lat="45.96605361343953" lon="12.065853730806145"><ele>1223.0</ele><time>2026-05-03T08:44:38.001Z</time></trkpt><trkpt lat="45.96606276682515" lon="12.065978384770595"><ele>1223.0</ele><time>2026-05-03T08:44:39.001Z</time></trkpt><trkpt lat="45.96607093238962" lon="12.066104175884032"><ele>1223.0</ele><time>2026-05-03T08:44:40.001Z</time></trkpt><trkpt lat="45.966096437390284" lon="12.066232086009798"><ele>1223.0</ele><time>2026-05-03T08:44:41Z</time></trkpt><trkpt lat="45.96614729019152" lon="12.06637411251144"><ele>1223.0</ele><time>2026-05-03T08:44:42Z</time></trkpt><trkpt lat="45.9662008748165" lon="12.066522045572462"><ele>1223.0</ele><time>2026-05-03T08:44:43Z</time></trkpt><trkpt lat="45.966240380298046" lon="12.066644693177988"><ele>1223.8333333333335</ele><time>2026-05-03T08:44:44Z</time></trkpt><trkpt lat="45.966275383105" lon="12.0667390587808"><ele>1224.6666666666667</ele><time>2026-05-03T08:44:45Z</time></trkpt><trkpt lat="45.96633656559874" lon="12.06687629622057"><ele>1225.5</ele><time>2026-05-03T08:44:47Z</time></trkpt><trkpt lat="45.96637856902355" lon="12.066996331727161"><ele>1226.3333333333333</ele><time>2026-05-03T08:44:49Z</time></trkpt><trkpt lat="45.96642383465451" lon="12.067102600959096"><ele>1227.1666666666665</ele><time>2026-05-03T08:44:51Z</time></trkpt><trkpt lat="45.96647226849325" lon="12.067195555616745"><ele>1228.0</ele><time>2026-05-03T08:44:53Z</time></trkpt><trkpt lat="45.966514279845626" lon="12.067276812830753"><ele>1228.0</ele><time>2026-05-03T08:44:55Z</time></trkpt><trkpt lat="45.966571002388605" lon="12.067420379688157"><ele>1228.0</ele><time>2026-05-03T08:44:57Z</time></trkpt><trkpt lat="45.966587458295685" lon="12.067608946205462"><ele>1228.0</ele><time>2026-05-03T08:44:59Z</time></trkpt><trkpt lat="45.96658583371181" lon="12.067705761123076"><ele>1228.0</ele><time>2026-05-03T08:45:00Z</time></trkpt><trkpt lat="45.966589233663676" lon="12.067821348913323"><ele>1228.0</ele><time>2026-05-03T08:45:01Z</time></trkpt><trkpt lat="45.96659780539307" lon="12.067947965119359"><ele>1228.6</ele><time>2026-05-03T08:45:02Z</time></trkpt><trkpt lat="45.96662289871004" lon="12.068065416598872"><ele>1229.1999999999998</ele><time>2026-05-03T08:45:03Z</time></trkpt><trkpt lat="45.966656297754106" lon="12.06816310189619"><ele>1229.8</ele><time>2026-05-03T08:45:04Z</time></trkpt><trkpt lat="45.966700042696594" lon="12.068269855961278"><ele>1230.3999999999999</ele><time>2026-05-03T08:45:05Z</time></trkpt><trkpt lat="45.966758468067965" lon="12.068386497385195"><ele>1231.0</ele><time>2026-05-03T08:45:06Z</time></trkpt><trkpt lat="45.96683128062495" lon="12.068508380405214"><ele>1227.75</ele><time>2026-05-03T08:45:07Z</time></trkpt><trkpt lat="45.96692382969765" lon="12.068664965023775"><ele>1224.5</ele><time>2026-05-03T08:45:08Z</time></trkpt><trkpt lat="45.96701099377945" lon="12.068791647165803"><ele>1221.25</ele><time>2026-05-03T08:45:09Z</time></trkpt><trkpt lat="45.96708604853352" lon="12.06890692906898"><ele>1218.0</ele><time>2026-05-03T08:45:10Z</time></trkpt><trkpt lat="45.967156631900515" lon="12.069035004238671"><ele>1219.75</ele><time>2026-05-03T08:45:11Z</time></trkpt><trkpt lat="45.96722444641117" lon="12.069150633063726"><ele>1221.5</ele><time>2026-05-03T08:45:12Z</time></trkpt><trkpt lat="45.96730329473036" lon="12.069264596883677"><ele>1223.25</ele><time>2026-05-03T08:45:13Z</time></trkpt><trkpt lat="45.967394485322494" lon="12.06937086861298"><ele>1225.0</ele><time>2026-05-03T08:45:14Z</time></trkpt><trkpt lat="45.967487337584366" lon="12.06947364656588"><ele>1222.4</ele><time>2026-05-03T08:45:15Z</time></trkpt><trkpt lat="45.96756441659772" lon="12.069567724774437"><ele>1219.8</ele><time>2026-05-03T08:45:16Z</time></trkpt><trkpt lat="45.96764303121108" lon="12.069657270707342"><ele>1217.2</ele><time>2026-05-03T08:45:17Z</time></trkpt><trkpt lat="45.967720102226636" lon="12.06973706891599"><ele>1214.6</ele><time>2026-05-03T08:45:18Z</time></trkpt><trkpt lat="45.967805258905344" lon="12.069832761780903"><ele>1212.0</ele><time>2026-05-03T08:45:19Z</time></trkpt><trkpt lat="45.96788293866268" lon="12.06993723287816"><ele>1215.0</ele><time>2026-05-03T08:45:20Z</time></trkpt><trkpt lat="45.967955311651245" lon="12.070031530176472"><ele>1218.0</ele><time>2026-05-03T08:45:21Z</time></trkpt><trkpt lat="45.96802585026309" lon="12.07010532897235"><ele>1221.0</ele><time>2026-05-03T08:45:22Z</time></trkpt><trkpt lat="45.9680870104437" lon="12.0701693744972"><ele>1224.0</ele><time>2026-05-03T08:45:23Z</time></trkpt><trkpt lat="45.9681396589246" lon="12.07023778990985"><ele>1227.0</ele><time>2026-05-03T08:45:24Z</time></trkpt><trkpt lat="45.96818747469723" lon="12.070420085205871"><ele>1227.0</ele><time>2026-05-03T08:45:26Z</time></trkpt><trkpt lat="45.96819880805485" lon="12.070553068840711"><ele>1227.0</ele><time>2026-05-03T08:45:27Z</time></trkpt><trkpt lat="45.968215620541336" lon="12.070708522608035"><ele>1227.0</ele><time>2026-05-03T08:45:28Z</time></trkpt><trkpt lat="45.96825459528495" lon="12.070830077943398"><ele>1227.0</ele><time>2026-05-03T08:45:29Z</time></trkpt><trkpt lat="45.96831074957347" lon="12.070952650205692"><ele>1227.0</ele><time>2026-05-03T08:45:30Z</time></trkpt><trkpt lat="45.96838258666288" lon="12.071060699462178"><ele>1222.8</ele><time>2026-05-03T08:45:31Z</time></trkpt><trkpt lat="45.96846038673481" lon="12.071161658405739"><ele>1218.6</ele><time>2026-05-03T08:45:32Z</time></trkpt><trkpt lat="45.96854468901572" lon="12.071244865988923"><ele>1214.3999999999999</ele><time>2026-05-03T08:45:33Z</time></trkpt><trkpt lat="45.96864448254821" lon="12.071329160430128"><ele>1210.2</ele><time>2026-05-03T08:45:34Z</time></trkpt><trkpt lat="45.96873838499743" lon="12.07141708386114"><ele>1206.0</ele><time>2026-05-03T08:45:35Z</time></trkpt><trkpt lat="45.968815281918225" lon="12.071506543139995"><ele>1206.0</ele><time>2026-05-03T08:45:36Z</time></trkpt><trkpt lat="45.96888152867708" lon="12.071584860471605"><ele>1206.0</ele><time>2026-05-03T08:45:37Z</time></trkpt><trkpt lat="45.96892653514061" lon="12.071671168715376"><ele>1206.0</ele><time>2026-05-03T08:45:38Z</time></trkpt><trkpt lat="45.96895644151993" lon="12.071756113866996"><ele>1206.0</ele><time>2026-05-03T08:45:39Z</time></trkpt><trkpt lat="45.96896137628596" lon="12.07184900589381"><ele>1206.0</ele><time>2026-05-03T08:45:40Z</time></trkpt><trkpt lat="45.96892092677173" lon="12.072024110813834"><ele>1206.0</ele><time>2026-05-03T08:45:42Z</time></trkpt><trkpt lat="45.968902047185665" lon="12.072129402020902"><ele>1208.3333333333333</ele><time>2026-05-03T08:45:43Z</time></trkpt><trkpt lat="45.9688943953196" lon="12.072249209338906"><ele>1210.6666666666667</ele><time>2026-05-03T08:45:44Z</time></trkpt><trkpt lat="45.96889641886829" lon="12.072362413361414"><ele>1213.0</ele><time>2026-05-03T08:45:45Z</time></trkpt><trkpt lat="45.9689120695422" lon="12.072489091649123"><ele>1215.3333333333335</ele><time>2026-05-03T08:45:46Z</time></trkpt><trkpt lat="45.96893736796016" lon="12.072615595172815"><ele>1217.6666666666667</ele><time>2026-05-03T08:45:47Z</time></trkpt><trkpt lat="45.96896954513348" lon="12.072729680150522"><ele>1220.0</ele><time>2026-05-03T08:45:48Z</time></trkpt><trkpt lat="45.96900011542316" lon="12.07284825702032"><ele>1221.3333333333335</ele><time>2026-05-03T08:45:49Z</time></trkpt><trkpt lat="45.969023611386355" lon="12.072955197686875"><ele>1222.6666666666667</ele><time>2026-05-03T08:45:50Z</time></trkpt><trkpt lat="45.96904733130362" lon="12.073062182036237"><ele>1224.0</ele><time>2026-05-03T08:45:51Z</time></trkpt><trkpt lat="45.96908257402162" lon="12.073157400928087"><ele>1225.3333333333333</ele><time>2026-05-03T08:45:52Z</time></trkpt><trkpt lat="45.969133135954486" lon="12.073241574656665"><ele>1226.6666666666665</ele><time>2026-05-03T08:45:53Z</time></trkpt><trkpt lat="45.96919499220039" lon="12.073322002039118"><ele>1228.0</ele><time>2026-05-03T08:45:54Z</time></trkpt><trkpt lat="45.969261347578694" lon="12.073399253981664"><ele>1231.5</ele><time>2026-05-03T08:45:55Z</time></trkpt><trkpt lat="45.96932574416133" lon="12.073474608091423"><ele>1235.0</ele><time>2026-05-03T08:45:56Z</time></trkpt><trkpt lat="45.96938218605076" lon="12.073545037378029"><ele>1238.5</ele><time>2026-05-03T08:45:57Z</time></trkpt><trkpt lat="45.96947231803422" lon="12.073575066004727"><ele>1242.0</ele><time>2026-05-03T08:45:59Z</time></trkpt><trkpt lat="45.96956328544824" lon="12.073468111725617"><ele>1245.5</ele><time>2026-05-03T08:46:01Z</time></trkpt><trkpt lat="45.96960274967571" lon="12.073384191939912"><ele>1249.0</ele><time>2026-05-03T08:46:02Z</time></trkpt><trkpt lat="45.96964659609666" lon="12.073308937901489"><ele>1249.0</ele><time>2026-05-03T08:46:03Z</time></trkpt><trkpt lat="45.96973540550671" lon="12.073221616723957"><ele>1249.0</ele><time>2026-05-03T08:46:05Z</time></trkpt><trkpt lat="45.96981518733889" lon="12.073267223724207"><ele>1249.0</ele><time>2026-05-03T08:46:07Z</time></trkpt><trkpt lat="45.9699095374967" lon="12.073375133986122"><ele>1249.0</ele><time>2026-05-03T08:46:09Z</time></trkpt><trkpt lat="45.96996783668058" lon="12.073443174984549"><ele>1249.0</ele><time>2026-05-03T08:46:10Z</time></trkpt><trkpt lat="45.97002056092611" lon="12.07354018328872"><ele>1248.5</ele><time>2026-05-03T08:46:11Z</time></trkpt><trkpt lat="45.97006730948797" lon="12.07362834221041"><ele>1248.0</ele><time>2026-05-03T08:46:12Z</time></trkpt><trkpt lat="45.97010566691194" lon="12.073727511629295"><ele>1247.5</ele><time>2026-05-03T08:46:13Z</time></trkpt><trkpt lat="45.97012995423521" lon="12.073833057292408"><ele>1247.0</ele><time>2026-05-03T08:46:14Z</time></trkpt><trkpt lat="45.9701481835543" lon="12.073942932361014"><ele>1246.5</ele><time>2026-05-03T08:46:15Z</time></trkpt><trkpt lat="45.9701640401954" lon="12.074059538545635"><ele>1246.0</ele><time>2026-05-03T08:46:16Z</time></trkpt><trkpt lat="45.9701755040477" lon="12.074153619705292"><ele>1246.0</ele><time>2026-05-03T08:46:17Z</time></trkpt><trkpt lat="45.970184243571545" lon="12.074260240360758"><ele>1246.0</ele><time>2026-05-03T08:46:18Z</time></trkpt><trkpt lat="45.97019923903802" lon="12.07437022163703"><ele>1246.0</ele><time>2026-05-03T08:46:19Z</time></trkpt><trkpt lat="45.970229280408226" lon="12.074467123417877"><ele>1246.0</ele><time>2026-05-03T08:46:20Z</time></trkpt><trkpt lat="45.970266417501634" lon="12.074572183246211"><ele>1246.0</ele><time>2026-05-03T08:46:21Z</time></trkpt><trkpt lat="45.97030912868406" lon="12.074666764489155"><ele>1246.0</ele><time>2026-05-03T08:46:22Z</time></trkpt><trkpt lat="45.97036399158538" lon="12.07475907967647"><ele>1246.0</ele><time>2026-05-03T08:46:23Z</time></trkpt><trkpt lat="45.97040968511233" lon="12.074845837450757"><ele>1246.0</ele><time>2026-05-03T08:46:24Z</time></trkpt><trkpt lat="45.97044627808463" lon="12.074937640206821"><ele>1246.0</ele><time>2026-05-03T08:46:25Z</time></trkpt><trkpt lat="45.97048676962522" lon="12.075029391616726"><ele>1246.0</ele><time>2026-05-03T08:46:26Z</time></trkpt><trkpt lat="45.970529555139166" lon="12.075124954274946"><ele>1246.0</ele><time>2026-05-03T08:46:27Z</time></trkpt><trkpt lat="45.97057137702668" lon="12.075215027915892"><ele>1246.0</ele><time>2026-05-03T08:46:28Z</time></trkpt><trkpt lat="45.970605365995915" lon="12.075292224640078"><ele>1246.0</ele><time>2026-05-03T08:46:29Z</time></trkpt><trkpt lat="45.97063520968218" lon="12.075389559525336"><ele>1249.1666666666665</ele><time>2026-05-03T08:46:30Z</time></trkpt><trkpt lat="45.970648290587285" lon="12.075501367835606"><ele>1252.3333333333333</ele><time>2026-05-03T08:46:31Z</time></trkpt><trkpt lat="45.97067204440757" lon="12.075616107636398"><ele>1255.5</ele><time>2026-05-03T08:46:32Z</time></trkpt><trkpt lat="45.97069269241261" lon="12.075724942573789"><ele>1258.6666666666667</ele><time>2026-05-03T08:46:33Z</time></trkpt><trkpt lat="45.97070590099618" lon="12.075841314798575"><ele>1261.8333333333335</ele><time>2026-05-03T08:46:34Z</time></trkpt><trkpt lat="45.97069942881935" lon="12.075956731815758"><ele>1265.0</ele><time>2026-05-03T08:46:35Z</time></trkpt><trkpt lat="45.97068939199583" lon="12.07606484111121"><ele>1267.8</ele><time>2026-05-03T08:46:36Z</time></trkpt><trkpt lat="45.970687649666004" lon="12.07616489403338"><ele>1270.6</ele><time>2026-05-03T08:46:37Z</time></trkpt><trkpt lat="45.970688626568275" lon="12.076269823294517"><ele>1273.4</ele><time>2026-05-03T08:46:38.001Z</time></trkpt><trkpt lat="45.97071657580129" lon="12.076435712192406"><ele>1276.2</ele><time>2026-05-03T08:46:40.001Z</time></trkpt><trkpt lat="45.97076547588511" lon="12.07658615874677"><ele>1279.0</ele><time>2026-05-03T08:46:42.001Z</time></trkpt><trkpt lat="45.97081600910939" lon="12.076725048911383"><ele>1279.6666666666665</ele><time>2026-05-03T08:46:44.001Z</time></trkpt><trkpt lat="45.97085552471086" lon="12.076846990869345"><ele>1280.3333333333333</ele><time>2026-05-03T08:54:49.999Z</time></trkpt><trkpt lat="45.970888318681986" lon="12.0770223839471"><ele>1281.0</ele><time>2026-05-03T08:54:51.999Z</time></trkpt><trkpt lat="45.97089322809147" lon="12.077126238843473"><ele>1281.6666666666667</ele><time>2026-05-03T08:54:52.999Z</time></trkpt><trkpt lat="45.97090144106506" lon="12.077229088418312"><ele>1282.3333333333335</ele><time>2026-05-03T08:54:53.999Z</time></trkpt><trkpt lat="45.97090702902473" lon="12.077322564797308"><ele>1283.0</ele><time>2026-05-03T08:54:54.999Z</time></trkpt><trkpt lat="45.97092260272707" lon="12.077430875189119"><ele>1290.3333333333335</ele><time>2026-05-03T08:54:55.999Z</time></trkpt><trkpt lat="45.970943502463534" lon="12.077539787663747"><ele>1297.6666666666667</ele><time>2026-05-03T08:54:56.999Z</time></trkpt><trkpt lat="45.97096531983574" lon="12.077640504813138"><ele>1305.0</ele><time>2026-05-03T08:54:57.999Z</time></trkpt><trkpt lat="45.97099030104901" lon="12.077736958812192"><ele>1312.3333333333333</ele><time>2026-05-03T08:54:58.999Z</time></trkpt><trkpt lat="45.97101962680463" lon="12.077826442369004"><ele>1319.6666666666665</ele><time>2026-05-03T08:54:59.999Z</time></trkpt><trkpt lat="45.97105483581976" lon="12.077968620162082"><ele>1327.0</ele><time>2026-05-03T08:55:02.001Z</time></trkpt><trkpt lat="45.971024288304505" lon="12.078098603968884"><ele>1327.0</ele><time>2026-05-03T08:55:04.001Z</time></trkpt><trkpt lat="45.9709445151943" lon="12.078211809794391"><ele>1327.0</ele><time>2026-05-03T08:55:06.001Z</time></trkpt><trkpt lat="45.97090367007253" lon="12.078291662903828"><ele>1327.0</ele><time>2026-05-03T08:55:07.001Z</time></trkpt><trkpt lat="45.97086418947573" lon="12.078379122803963"><ele>1327.0</ele><time>2026-05-03T08:55:08.001Z</time></trkpt><trkpt lat="45.970823286693054" lon="12.078526719350798"><ele>1327.0</ele><time>2026-05-03T08:55:10.001Z</time></trkpt><trkpt lat="45.97080648356311" lon="12.078688704428961"><ele>1327.5</ele><time>2026-05-03T08:55:12.001Z</time></trkpt><trkpt lat="45.970820763940054" lon="12.078790512449428"><ele>1328.0</ele><time>2026-05-03T08:55:13.001Z</time></trkpt><trkpt lat="45.97084753693201" lon="12.078901072193386"><ele>1328.5</ele><time>2026-05-03T08:55:14.001Z</time></trkpt><trkpt lat="45.970875376709856" lon="12.079007878054949"><ele>1329.0</ele><time>2026-05-03T08:55:15.001Z</time></trkpt><trkpt lat="45.97090472144827" lon="12.079115443511855"><ele>1329.5</ele><time>2026-05-03T08:55:16.001Z</time></trkpt><trkpt lat="45.970945587942786" lon="12.079220136468008"><ele>1330.0</ele><time>2026-05-03T08:55:17.001Z</time></trkpt><trkpt lat="45.9709952460805" lon="12.079314558143322"><ele>1330.0</ele><time>2026-05-03T08:55:18.001Z</time></trkpt><trkpt lat="45.971038134182194" lon="12.079416804302102"><ele>1330.0</ele><time>2026-05-03T08:55:19.001Z</time></trkpt><trkpt lat="45.971072390052306" lon="12.079525743102462"><ele>1330.0</ele><time>2026-05-03T08:55:20.001Z</time></trkpt><trkpt lat="45.97109024479339" lon="12.079640412781314"><ele>1330.0</ele><time>2026-05-03T08:55:21.001Z</time></trkpt><trkpt lat="45.97111002372567" lon="12.079754128274407"><ele>1330.0</ele><time>2026-05-03T08:55:22.001Z</time></trkpt><trkpt lat="45.97113133999389" lon="12.079854891717964"><ele>1330.0</ele><time>2026-05-03T08:55:23.001Z</time></trkpt><trkpt lat="45.97116130234855" lon="12.079964133994133"><ele>1328.0</ele><time>2026-05-03T08:55:24.001Z</time></trkpt><trkpt lat="45.97119494833639" lon="12.080069185592617"><ele>1326.0</ele><time>2026-05-03T08:55:25.001Z</time></trkpt><trkpt lat="45.971224229980415" lon="12.080174534493572"><ele>1324.0</ele><time>2026-05-03T08:55:26.001Z</time></trkpt><trkpt lat="45.971255304867505" lon="12.080281476874573"><ele>1322.0</ele><time>2026-05-03T08:55:27Z</time></trkpt><trkpt lat="45.971286904335614" lon="12.080403758675487"><ele>1320.0</ele><time>2026-05-03T08:55:28Z</time></trkpt><trkpt lat="45.97131263491947" lon="12.080526686428971"><ele>1318.0</ele><time>2026-05-03T08:55:29Z</time></trkpt><trkpt lat="45.971340540958074" lon="12.08064582705494"><ele>1318.0</ele><time>2026-05-03T08:55:30Z</time></trkpt><trkpt lat="45.971357554052" lon="12.080749002635514"><ele>1318.0</ele><time>2026-05-03T08:55:31Z</time></trkpt><trkpt lat="45.9713591899438" lon="12.080872105828375"><ele>1318.0</ele><time>2026-05-03T08:55:33Z</time></trkpt><trkpt lat="45.97139008499061" lon="12.080958831400533"><ele>1318.0</ele><time>2026-05-03T08:55:35Z</time></trkpt><trkpt lat="45.97146638465632" lon="12.080983489247549"><ele>1318.0</ele><time>2026-05-03T08:55:38Z</time></trkpt><trkpt lat="45.97153167967676" lon="12.08093089918047"><ele>1318.0</ele><time>2026-05-03T08:55:40Z</time></trkpt><trkpt lat="45.97163811090092" lon="12.080847427957922"><ele>1320.0</ele><time>2026-05-03T08:55:42Z</time></trkpt><trkpt lat="45.97171317014517" lon="12.080801374113468"><ele>1322.0</ele><time>2026-05-03T08:55:43Z</time></trkpt><trkpt lat="45.97177844882074" lon="12.080775244973523"><ele>1324.0</ele><time>2026-05-03T08:55:44Z</time></trkpt><trkpt lat="45.971846938754055" lon="12.080750971900056"><ele>1326.0</ele><time>2026-05-03T08:55:45Z</time></trkpt><trkpt lat="45.971922685913356" lon="12.080727973210875"><ele>1328.0</ele><time>2026-05-03T08:55:46Z</time></trkpt><trkpt lat="45.97200225292665" lon="12.080684565614524"><ele>1330.0</ele><time>2026-05-03T08:55:47Z</time></trkpt><trkpt lat="45.97207635161152" lon="12.080623936514057"><ele>1330.0</ele><time>2026-05-03T08:55:48Z</time></trkpt><trkpt lat="45.972155651687835" lon="12.080582004622354"><ele>1330.0</ele><time>2026-05-03T08:55:49Z</time></trkpt><trkpt lat="45.972218768465055" lon="12.08058511090911"><ele>1330.0</ele><time>2026-05-03T08:55:50Z</time></trkpt><trkpt lat="45.97231941525099" lon="12.080634874361243"><ele>1330.0</ele><time>2026-05-03T08:55:52Z</time></trkpt><trkpt lat="45.972445422213426" lon="12.080606919344175"><ele>1330.0</ele><time>2026-05-03T08:55:54Z</time></trkpt><trkpt lat="45.97250480230783" lon="12.080565852308899"><ele>1330.0</ele><time>2026-05-03T08:55:55Z</time></trkpt><trkpt lat="45.97257745103529" lon="12.080528532680553"><ele>1331.0</ele><time>2026-05-03T08:55:56Z</time></trkpt><trkpt lat="45.97268664666855" lon="12.080500755136196"><ele>1332.0</ele><time>2026-05-03T08:55:58Z</time></trkpt><trkpt lat="45.972775513179215" lon="12.080415975610535"><ele>1333.0</ele><time>2026-05-03T08:56:00Z</time></trkpt><trkpt lat="45.97285269169821" lon="12.080413557448033"><ele>1334.0</ele><time>2026-05-03T08:56:02Z</time></trkpt><trkpt lat="45.972892465393706" lon="12.080484915435294"><ele>1335.0</ele><time>2026-05-03T08:56:04Z</time></trkpt><trkpt lat="45.97295276108761" lon="12.080622349670687"><ele>1335.0</ele><time>2026-05-03T08:56:06Z</time></trkpt><trkpt lat="45.972981934571344" lon="12.080708549826662"><ele>1335.0</ele><time>2026-05-03T08:56:07Z</time></trkpt><trkpt lat="45.973034140779895" lon="12.08085754767592"><ele>1335.0</ele><time>2026-05-03T08:56:09Z</time></trkpt><trkpt lat="45.97309581208074" lon="12.080956755333684"><ele>1335.0</ele><time>2026-05-03T08:56:11Z</time></trkpt><trkpt lat="45.97318307844137" lon="12.080992883887628"><ele>1335.0</ele><time>2026-05-03T08:56:13Z</time></trkpt><trkpt lat="45.97324744458235" lon="12.080980000723029"><ele>1335.0</ele><time>2026-05-03T08:56:14Z</time></trkpt><trkpt lat="45.97331179861736" lon="12.080965117184418"><ele>1332.0</ele><time>2026-05-03T08:56:15Z</time></trkpt><trkpt lat="45.97337479711753" lon="12.08098541721585"><ele>1329.0</ele><time>2026-05-03T08:56:16Z</time></trkpt><trkpt lat="45.97346147664078" lon="12.081081318961312"><ele>1326.0</ele><time>2026-05-03T08:56:18Z</time></trkpt><trkpt lat="45.973561660364645" lon="12.081171267836739"><ele>1323.0</ele><time>2026-05-03T08:56:20Z</time></trkpt><trkpt lat="45.97366309720212" lon="12.081234278340096"><ele>1320.0</ele><time>2026-05-03T08:56:22Z</time></trkpt><trkpt lat="45.97375643493992" lon="12.08129812814897"><ele>1320.0</ele><time>2026-05-03T08:56:24Z</time></trkpt><trkpt lat="45.973843625744934" lon="12.0813813555824"><ele>1320.0</ele><time>2026-05-03T08:56:26Z</time></trkpt><trkpt lat="45.97393606907563" lon="12.081486171817778"><ele>1320.0</ele><time>2026-05-03T08:56:28Z</time></trkpt><trkpt lat="45.97400875964576" lon="12.081620415021384"><ele>1320.0</ele><time>2026-05-03T08:56:30Z</time></trkpt><trkpt lat="45.9740595405552" lon="12.08175724790792"><ele>1320.0</ele><time>2026-05-03T08:56:32Z</time></trkpt><trkpt lat="45.974081737583745" lon="12.081846068133453"><ele>1318.6666666666667</ele><time>2026-05-03T08:56:33.999Z</time></trkpt><trkpt lat="45.9740571595117" lon="12.08193819816636"><ele>1317.3333333333333</ele><time>2026-05-03T08:57:07.001Z</time></trkpt><trkpt lat="45.97406842560684" lon="12.08184080592763"><ele>1316.0</ele><time>2026-05-03T08:57:20.001Z</time></trkpt><trkpt lat="45.97402936385956" lon="12.081757802907761"><ele>1314.6666666666665</ele><time>2026-05-03T08:57:26.001Z</time></trkpt><trkpt lat="45.97408235442676" lon="12.0818214405143"><ele>1313.3333333333333</ele><time>2026-05-03T08:57:46Z</time></trkpt><trkpt lat="45.97413484503039" lon="12.08194010586451"><ele>1312.0</ele><time>2026-05-03T08:59:04.999Z</time></trkpt><trkpt lat="45.97420036846063" lon="12.082082628924615"><ele>1308.1666666666665</ele><time>2026-05-03T08:59:06.999Z</time></trkpt><trkpt lat="45.97424648266481" lon="12.082149010855398"><ele>1304.3333333333333</ele><time>2026-05-03T08:59:07.999Z</time></trkpt><trkpt lat="45.97429901412462" lon="12.082208186996743"><ele>1300.5</ele><time>2026-05-03T08:59:08.999Z</time></trkpt><trkpt lat="45.97440956115499" lon="12.082257042469697"><ele>1296.6666666666667</ele><time>2026-05-03T08:59:10.999Z</time></trkpt><trkpt lat="45.97447641400607" lon="12.082251236569842"><ele>1292.8333333333335</ele><time>2026-05-03T08:59:12Z</time></trkpt><trkpt lat="45.974539698171846" lon="12.082248353327458"><ele>1289.0</ele><time>2026-05-03T08:59:13Z</time></trkpt><trkpt lat="45.97461171096028" lon="12.082306309358009"><ele>1287.6666666666667</ele><time>2026-05-03T08:59:15Z</time></trkpt><trkpt lat="45.97456634891571" lon="12.082478727248738"><ele>1286.3333333333335</ele><time>2026-05-03T08:59:17Z</time></trkpt><trkpt lat="45.974524721685356" lon="12.082570819460535"><ele>1285.0</ele><time>2026-05-03T08:59:18Z</time></trkpt><trkpt lat="45.97448121184025" lon="12.082664695873342"><ele>1283.6666666666667</ele><time>2026-05-03T08:59:19Z</time></trkpt><trkpt lat="45.97444384123745" lon="12.082765030175938"><ele>1282.3333333333333</ele><time>2026-05-03T08:59:20Z</time></trkpt><trkpt lat="45.97439826085365" lon="12.082851028753032"><ele>1281.0</ele><time>2026-05-03T08:59:21Z</time></trkpt><trkpt lat="45.97435554279487" lon="12.082940155943955"><ele>1281.0</ele><time>2026-05-03T08:59:22Z</time></trkpt><trkpt lat="45.97432885103906" lon="12.083044171358889"><ele>1281.0</ele><time>2026-05-03T08:59:23Z</time></trkpt><trkpt lat="45.97431794830446" lon="12.083150823226577"><ele>1281.0</ele><time>2026-05-03T08:59:24Z</time></trkpt><trkpt lat="45.974323375895025" lon="12.083254617097985"><ele>1281.0</ele><time>2026-05-03T08:59:25Z</time></trkpt><trkpt lat="45.97433070014923" lon="12.083364579981538"><ele>1281.0</ele><time>2026-05-03T08:59:26Z</time></trkpt><trkpt lat="45.97433464077765" lon="12.083484181171583"><ele>1281.0</ele><time>2026-05-03T08:59:27Z</time></trkpt><trkpt lat="45.97432380076011" lon="12.08359043819012"><ele>1279.2</ele><time>2026-05-03T08:59:28Z</time></trkpt><trkpt lat="45.97429528361629" lon="12.083767514019076"><ele>1277.3999999999999</ele><time>2026-05-03T08:59:30Z</time></trkpt><trkpt lat="45.974270267393834" lon="12.083921261189143"><ele>1275.6</ele><time>2026-05-03T08:59:32Z</time></trkpt><trkpt lat="45.97425452847989" lon="12.084073984909693"><ele>1273.8</ele><time>2026-05-03T08:59:34Z</time></trkpt><trkpt lat="45.974237148251085" lon="12.084201909357962"><ele>1272.0</ele><time>2026-05-03T08:59:36Z</time></trkpt><trkpt lat="45.974203164445754" lon="12.084341251813548"><ele>1273.75</ele><time>2026-05-03T08:59:38Z</time></trkpt><trkpt lat="45.974170199026155" lon="12.08448728588663"><ele>1275.5</ele><time>2026-05-03T08:59:40Z</time></trkpt><trkpt lat="45.97413234260601" lon="12.084675250956586"><ele>1277.25</ele><time>2026-05-03T08:59:42Z</time></trkpt><trkpt lat="45.97411133721968" lon="12.08483871887822"><ele>1279.0</ele><time>2026-05-03T08:59:44Z</time></trkpt><trkpt lat="45.974143483433856" lon="12.084986463200044"><ele>1275.8333333333333</ele><time>2026-05-03T08:59:46Z</time></trkpt><trkpt lat="45.97423376527277" lon="12.085057434750912"><ele>1272.6666666666665</ele><time>2026-05-03T08:59:48Z</time></trkpt><trkpt lat="45.97430123882222" lon="12.085076846415722"><ele>1269.5</ele><time>2026-05-03T08:59:49Z</time></trkpt><trkpt lat="45.97437140852918" lon="12.085098967104503"><ele>1266.3333333333333</ele><time>2026-05-03T08:59:50Z</time></trkpt><trkpt lat="45.97444656504281" lon="12.08512431036765"><ele>1263.1666666666667</ele><time>2026-05-03T08:59:51Z</time></trkpt><trkpt lat="45.974510762905844" lon="12.085166576669684"><ele>1260.0</ele><time>2026-05-03T08:59:52Z</time></trkpt><trkpt lat="45.974600509073376" lon="12.08527367583476"><ele>1260.0</ele><time>2026-05-03T08:59:54Z</time></trkpt><trkpt lat="45.97468997412374" lon="12.085409577288814"><ele>1260.0</ele><time>2026-05-03T08:59:56Z</time></trkpt><trkpt lat="45.974733939853955" lon="12.085477809755007"><ele>1260.0</ele><time>2026-05-03T08:59:57Z</time></trkpt><trkpt lat="45.97478551952097" lon="12.085543407602625"><ele>1260.0</ele><time>2026-05-03T08:59:58Z</time></trkpt><trkpt lat="45.97483211663116" lon="12.085606601444661"><ele>1260.0</ele><time>2026-05-03T08:59:59Z</time></trkpt><trkpt lat="45.974907652381496" lon="12.085703240102568"><ele>1260.0</ele><time>2026-05-03T09:00:01Z</time></trkpt><trkpt lat="45.97494676324818" lon="12.085817979999137"><ele>1262.5</ele><time>2026-05-03T09:00:03Z</time></trkpt><trkpt lat="45.97496938039967" lon="12.085965571267536"><ele>1265.0</ele><time>2026-05-03T09:00:05Z</time></trkpt><trkpt lat="45.974993652880826" lon="12.086133318905741"><ele>1267.5</ele><time>2026-05-03T09:00:07Z</time></trkpt><trkpt lat="45.975017018324706" lon="12.086295781387967"><ele>1270.0</ele><time>2026-05-03T09:00:09Z</time></trkpt><trkpt lat="45.975021901062796" lon="12.086459067849798"><ele>1268.8</ele><time>2026-05-03T09:00:11Z</time></trkpt><trkpt lat="45.975014907042635" lon="12.086615546285996"><ele>1267.6</ele><time>2026-05-03T09:00:13Z</time></trkpt><trkpt lat="45.975009539528365" lon="12.086765195929921"><ele>1266.4</ele><time>2026-05-03T09:00:15Z</time></trkpt><trkpt lat="45.974970995421785" lon="12.086897585410098"><ele>1265.2</ele><time>2026-05-03T09:00:17Z</time></trkpt><trkpt lat="45.97496811836875" lon="12.087008542318951"><ele>1264.0</ele><time>2026-05-03T09:00:19Z</time></trkpt><trkpt lat="45.975010087540994" lon="12.087104768183536"><ele>1258.0</ele><time>2026-05-03T09:00:20.999Z</time></trkpt><trkpt lat="45.97507279666945" lon="12.08720021891416"><ele>1252.0</ele><time>2026-05-03T09:00:22.999Z</time></trkpt><trkpt lat="45.97516132193327" lon="12.087313275226412"><ele>1246.0</ele><time>2026-05-03T09:00:24.999Z</time></trkpt><trkpt lat="45.9752506755927" lon="12.087423676888486"><ele>1240.0</ele><time>2026-05-03T09:00:26.999Z</time></trkpt><trkpt lat="45.975318083653995" lon="12.08753955537313"><ele>1234.0</ele><time>2026-05-03T09:00:28.999Z</time></trkpt><trkpt lat="45.975394837054424" lon="12.087694441923164"><ele>1233.2</ele><time>2026-05-03T09:00:30.999Z</time></trkpt><trkpt lat="45.975425621645314" lon="12.087778079579296"><ele>1232.4</ele><time>2026-05-03T09:00:31.999Z</time></trkpt><trkpt lat="45.975477672027594" lon="12.087937507939095"><ele>1231.6</ele><time>2026-05-03T09:00:33.999Z</time></trkpt><trkpt lat="45.9755322453537" lon="12.088105283284575"><ele>1230.8</ele><time>2026-05-03T09:00:35.999Z</time></trkpt><trkpt lat="45.97559962914148" lon="12.088236677543543"><ele>1230.0</ele><time>2026-05-03T09:00:37.999Z</time></trkpt><trkpt lat="45.975727094928864" lon="12.08830736614246"><ele>1231.5</ele><time>2026-05-03T09:00:39.999Z</time></trkpt><trkpt lat="45.97581490945821" lon="12.088332869782557"><ele>1233.0</ele><time>2026-05-03T09:00:40.999Z</time></trkpt><trkpt lat="45.97590422666985" lon="12.088367953917693"><ele>1234.5</ele><time>2026-05-03T09:00:41.999Z</time></trkpt><trkpt lat="45.97598389198736" lon="12.088412400708055"><ele>1236.0</ele><time>2026-05-03T09:00:42.999Z</time></trkpt><trkpt lat="45.97605046834568" lon="12.088449125276082"><ele>1237.5</ele><time>2026-05-03T09:00:43.999Z</time></trkpt><trkpt lat="45.97611309214109" lon="12.08847200272718"><ele>1239.0</ele><time>2026-05-03T09:00:44.999Z</time></trkpt><trkpt lat="45.97619819275822" lon="12.088519264949822"><ele>1237.5</ele><time>2026-05-03T09:00:46.999Z</time></trkpt><trkpt lat="45.9762522327322" lon="12.08860446643848"><ele>1236.0</ele><time>2026-05-03T09:00:48.999Z</time></trkpt><trkpt lat="45.97628948491499" lon="12.08871103653737"><ele>1234.5</ele><time>2026-05-03T09:00:50.999Z</time></trkpt><trkpt lat="45.97631706722192" lon="12.08880781344214"><ele>1233.0</ele><time>2026-05-03T09:00:52.998Z</time></trkpt><trkpt lat="45.97637229292865" lon="12.0889310725366"><ele>1231.5</ele><time>2026-05-03T09:00:54.998Z</time></trkpt><trkpt lat="45.9764083214221" lon="12.089018769584266"><ele>1230.0</ele><time>2026-05-03T09:00:55.998Z</time></trkpt><trkpt lat="45.976476950413804" lon="12.089172092131667"><ele>1230.0</ele><time>2026-05-03T09:00:57.998Z</time></trkpt><trkpt lat="45.97653366850562" lon="12.08932205440833"><ele>1230.0</ele><time>2026-05-03T09:00:59.998Z</time></trkpt><trkpt lat="45.976594552642" lon="12.089446455094388"><ele>1230.0</ele><time>2026-05-03T09:01:01.998Z</time></trkpt><trkpt lat="45.97662998597447" lon="12.08952172436982"><ele>1230.0</ele><time>2026-05-03T09:01:02.998Z</time></trkpt><trkpt lat="45.976681366567135" lon="12.089646646682453"><ele>1230.0</ele><time>2026-05-03T09:01:04.998Z</time></trkpt><trkpt lat="45.97674730945068" lon="12.089762376743936"><ele>1224.8</ele><time>2026-05-03T09:01:06.998Z</time></trkpt><trkpt lat="45.976789184904895" lon="12.089869720645183"><ele>1219.6</ele><time>2026-05-03T09:01:08.998Z</time></trkpt><trkpt lat="45.976825588714966" lon="12.089977335070554"><ele>1214.4</ele><time>2026-05-03T09:01:10.998Z</time></trkpt><trkpt lat="45.97685203500261" lon="12.090103336559805"><ele>1209.2</ele><time>2026-05-03T09:01:12.998Z</time></trkpt><trkpt lat="45.976887189949345" lon="12.090247224526195"><ele>1204.0</ele><time>2026-05-03T09:01:14.998Z</time></trkpt><trkpt lat="45.9769350088537" lon="12.090352716670203"><ele>1204.0</ele><time>2026-05-03T09:01:16.999Z</time></trkpt><trkpt lat="45.976976760182474" lon="12.0904468609167"><ele>1204.0</ele><time>2026-05-03T09:01:18.999Z</time></trkpt><trkpt lat="45.97703740594114" lon="12.090545486011166"><ele>1204.0</ele><time>2026-05-03T09:01:20.999Z</time></trkpt><trkpt lat="45.977107742937704" lon="12.090584446937344"><ele>1204.0</ele><time>2026-05-03T09:01:22.999Z</time></trkpt><trkpt lat="45.977184413749214" lon="12.090616259365488"><ele>1204.0</ele><time>2026-05-03T09:01:24.999Z</time></trkpt><trkpt lat="45.97725401494042" lon="12.09058149628482"><ele>1204.0</ele><time>2026-05-03T09:01:26.999Z</time></trkpt><trkpt lat="45.977361815295446" lon="12.090549055283388"><ele>1204.0</ele><time>2026-05-03T09:01:28.999Z</time></trkpt><trkpt lat="45.9774760116577" lon="12.090535788153352"><ele>1204.0</ele><time>2026-05-03T09:01:30.999Z</time></trkpt><trkpt lat="45.977587390770694" lon="12.090535195291784"><ele>1204.0</ele><time>2026-05-03T09:01:32.999Z</time></trkpt><trkpt lat="45.977688844904904" lon="12.090474313289015"><ele>1204.0</ele><time>2026-05-03T09:01:34.999Z</time></trkpt><trkpt lat="45.97779347914908" lon="12.090432229672329"><ele>1204.0</ele><time>2026-05-03T09:01:36.999Z</time></trkpt><trkpt lat="45.97791539155085" lon="12.090450756803733"><ele>1205.0</ele><time>2026-05-03T09:01:38.999Z</time></trkpt><trkpt lat="45.978011440573525" lon="12.090481773476798"><ele>1206.0</ele><time>2026-05-03T09:01:40.999Z</time></trkpt><trkpt lat="45.97808034299" lon="12.090508397208973"><ele>1207.0</ele><time>2026-05-03T09:01:42.999Z</time></trkpt><trkpt lat="45.97812242255815" lon="12.090603609257803"><ele>1208.0</ele><time>2026-05-03T09:01:45.999Z</time></trkpt><trkpt lat="45.97811392525334" lon="12.090731120666119"><ele>1209.0</ele><time>2026-05-03T09:01:48.999Z</time></trkpt><trkpt lat="45.97813703626677" lon="12.0908480166039"><ele>1210.0</ele><time>2026-05-03T09:01:50.999Z</time></trkpt><trkpt lat="45.97816878376695" lon="12.090974131214239"><ele>1210.0</ele><time>2026-05-03T09:01:52.999Z</time></trkpt><trkpt lat="45.97820498544177" lon="12.09108412067368"><ele>1210.0</ele><time>2026-05-03T09:01:54.999Z</time></trkpt><trkpt lat="45.97823511702308" lon="12.091179022572383"><ele>1210.0</ele><time>2026-05-03T09:01:56.999Z</time></trkpt><trkpt lat="45.978238505830646" lon="12.091309448968829"><ele>1210.0</ele><time>2026-05-03T09:01:58.999Z</time></trkpt><trkpt lat="45.978239031117546" lon="12.091416624818674"><ele>1210.0</ele><time>2026-05-03T09:02:00.999Z</time></trkpt><trkpt lat="45.978236873997524" lon="12.09155737022063"><ele>1210.0</ele><time>2026-05-03T09:02:02.999Z</time></trkpt><trkpt lat="45.978270666550166" lon="12.09171383486096"><ele>1209.6</ele><time>2026-05-03T09:02:04.999Z</time></trkpt><trkpt lat="45.97833331246927" lon="12.091808570599019"><ele>1209.2</ele><time>2026-05-03T09:02:06.999Z</time></trkpt><trkpt lat="45.97841418776903" lon="12.091843278843882"><ele>1208.8</ele><time>2026-05-03T09:02:09.999Z</time></trkpt><trkpt lat="45.97849109814365" lon="12.091895306613173"><ele>1208.4</ele><time>2026-05-03T09:02:11.999Z</time></trkpt><trkpt lat="45.97858051083381" lon="12.091945395433568"><ele>1208.0</ele><time>2026-05-03T09:02:13.999Z</time></trkpt><trkpt lat="45.97867828475033" lon="12.091980597265684"><ele>1207.3333333333335</ele><time>2026-05-03T09:02:15.999Z</time></trkpt><trkpt lat="45.97875939991071" lon="12.091985867906484"><ele>1206.6666666666667</ele><time>2026-05-03T09:02:17.999Z</time></trkpt><trkpt lat="45.97882371065393" lon="12.091994061791047"><ele>1206.0</ele><time>2026-05-03T09:02:19.999Z</time></trkpt><trkpt lat="45.978920883364246" lon="12.09202320330141"><ele>1205.3333333333333</ele><time>2026-05-03T09:02:22.999Z</time></trkpt><trkpt lat="45.97900678339858" lon="12.092024251290887"><ele>1204.6666666666665</ele><time>2026-05-03T09:02:24.999Z</time></trkpt><trkpt lat="45.9790897293595" lon="12.092025402377123"><ele>1204.0</ele><time>2026-05-03T09:02:26.998Z</time></trkpt><trkpt lat="45.97920427371171" lon="12.092074399665924"><ele>1204.0</ele><time>2026-05-03T09:02:28.998Z</time></trkpt><trkpt lat="45.979289548212044" lon="12.092088050402662"><ele>1204.0</ele><time>2026-05-03T09:02:30.998Z</time></trkpt><trkpt lat="45.97938177474607" lon="12.092053272201914"><ele>1204.0</ele><time>2026-05-03T09:02:32.998Z</time></trkpt><trkpt lat="45.979478179071606" lon="12.09199596713606"><ele>1204.0</ele><time>2026-05-03T09:02:35.998Z</time></trkpt><trkpt lat="45.97956803795523" lon="12.091950631605174"><ele>1204.0</ele><time>2026-05-03T09:02:37.998Z</time></trkpt><trkpt lat="45.97962941183429" lon="12.09193012168851"><ele>1204.0</ele><time>2026-05-03T09:02:39.998Z</time></trkpt><trkpt lat="45.97971373519645" lon="12.09192382871293"><ele>1204.0</ele><time>2026-05-03T09:02:41.998Z</time></trkpt><trkpt lat="45.979779673874" lon="12.091935123953673"><ele>1204.0</ele><time>2026-05-03T09:02:43.998Z</time></trkpt><trkpt lat="45.97983773418074" lon="12.091975100163866"><ele>1204.0</ele><time>2026-05-03T09:02:45.998Z</time></trkpt><trkpt lat="45.97991083791294" lon="12.09204064281738"><ele>1204.0</ele><time>2026-05-03T09:02:47.998Z</time></trkpt><trkpt lat="45.98000580661297" lon="12.09211748803532"><ele>1204.0</ele><time>2026-05-03T09:02:49.998Z</time></trkpt><trkpt lat="45.98006621465673" lon="12.092158713548718"><ele>1204.0</ele><time>2026-05-03T09:02:50.998Z</time></trkpt><trkpt lat="45.980123010219955" lon="12.092206834444216"><ele>1204.0</ele><time>2026-05-03T09:02:51.998Z</time></trkpt><trkpt lat="45.980212687310626" lon="12.092267143370734"><ele>1204.0</ele><time>2026-05-03T09:02:53.998Z</time></trkpt><trkpt lat="45.980290891266485" lon="12.092330256354973"><ele>1204.0</ele><time>2026-05-03T09:02:55.998Z</time></trkpt><trkpt lat="45.98035665828319" lon="12.092396029549372"><ele>1204.0</ele><time>2026-05-03T09:02:57.998Z</time></trkpt><trkpt lat="45.98039858636639" lon="12.092469569103983"><ele>1204.0</ele><time>2026-05-03T09:02:58.998Z</time></trkpt><trkpt lat="45.98045425298397" lon="12.0926487408001"><ele>1204.0</ele><time>2026-05-03T09:03:00.998Z</time></trkpt><trkpt lat="45.98047672458502" lon="12.09273470179346"><ele>1204.0</ele><time>2026-05-03T09:03:01.998Z</time></trkpt><trkpt lat="45.98055442985422" lon="12.092868819585588"><ele>1204.0</ele><time>2026-05-03T09:03:03.998Z</time></trkpt><trkpt lat="45.980639716928614" lon="12.092981382082563"><ele>1204.0</ele><time>2026-05-03T09:03:05.998Z</time></trkpt><trkpt lat="45.98069530961195" lon="12.09304354006961"><ele>1204.0</ele><time>2026-05-03T09:03:06.998Z</time></trkpt><trkpt lat="45.98075838879015" lon="12.093089006918763"><ele>1204.0</ele><time>2026-05-03T09:03:07.998Z</time></trkpt><trkpt lat="45.98081691277515" lon="12.093123389162727"><ele>1203.8</ele><time>2026-05-03T09:03:08.998Z</time></trkpt><trkpt lat="45.98093250356971" lon="12.093148497729622"><ele>1203.6000000000001</ele><time>2026-05-03T09:03:10.998Z</time></trkpt><trkpt lat="45.98103503067244" lon="12.093117323212395"><ele>1203.4</ele><time>2026-05-03T09:03:12.998Z</time></trkpt><trkpt lat="45.98113704153451" lon="12.093045628070094"><ele>1203.2</ele><time>2026-05-03T09:03:14.998Z</time></trkpt><trkpt lat="45.981201946593494" lon="12.093025318792646"><ele>1203.0</ele><time>2026-05-03T09:03:15.998Z</time></trkpt><trkpt lat="45.981261759769296" lon="12.092989005337007"><ele>1203.0</ele><time>2026-05-03T09:03:16.998Z</time></trkpt><trkpt lat="45.981383171853736" lon="12.092944243684125"><ele>1203.0</ele><time>2026-05-03T09:03:18.998Z</time></trkpt><trkpt lat="45.981504721212126" lon="12.092989621515525"><ele>1203.0</ele><time>2026-05-03T09:03:20.998Z</time></trkpt><trkpt lat="45.981567508244495" lon="12.093020549037707"><ele>1203.0</ele><time>2026-05-03T09:03:21.998Z</time></trkpt><trkpt lat="45.981629789421746" lon="12.093051642439454"><ele>1203.0</ele><time>2026-05-03T09:03:22.999Z</time></trkpt><trkpt lat="45.981690765885084" lon="12.0930802289093"><ele>1203.0</ele><time>2026-05-03T09:03:23.999Z</time></trkpt><trkpt lat="45.981752472648495" lon="12.093104171091609"><ele>1205.4</ele><time>2026-05-03T09:03:24.999Z</time></trkpt><trkpt lat="45.98182919959293" lon="12.093112103966272"><ele>1207.8</ele><time>2026-05-03T09:03:25.999Z</time></trkpt><trkpt lat="45.98190027927941" lon="12.093123298948727"><ele>1210.2</ele><time>2026-05-03T09:03:26.999Z</time></trkpt><trkpt lat="45.981996265144126" lon="12.093189916448946"><ele>1212.6</ele><time>2026-05-03T09:03:28.999Z</time></trkpt><trkpt lat="45.9820832203465" lon="12.093278122652128"><ele>1215.0</ele><time>2026-05-03T09:03:30.999Z</time></trkpt><trkpt lat="45.982174841393864" lon="12.093361058577337"><ele>1215.0</ele><time>2026-05-03T09:03:32.999Z</time></trkpt><trkpt lat="45.98229557303563" lon="12.093452681471055"><ele>1215.0</ele><time>2026-05-03T09:03:34.999Z</time></trkpt><trkpt lat="45.98238715314517" lon="12.093509465238009"><ele>1215.0</ele><time>2026-05-03T09:03:36.999Z</time></trkpt><trkpt lat="45.982437903775406" lon="12.093567247563517"><ele>1215.0</ele><time>2026-05-03T09:03:37.999Z</time></trkpt><trkpt lat="45.98248071652122" lon="12.093638510879211"><ele>1215.0</ele><time>2026-05-03T09:03:38.999Z</time></trkpt><trkpt lat="45.98252677045622" lon="12.09371547230693"><ele>1215.0</ele><time>2026-05-03T09:03:39.999Z</time></trkpt><trkpt lat="45.98256936459807" lon="12.093783108257297"><ele>1217.4</ele><time>2026-05-03T09:03:40.999Z</time></trkpt><trkpt lat="45.98263820790794" lon="12.093932779753853"><ele>1219.8</ele><time>2026-05-03T09:03:42.999Z</time></trkpt><trkpt lat="45.98267031772243" lon="12.094023749682702"><ele>1222.2</ele><time>2026-05-03T09:03:43.999Z</time></trkpt><trkpt lat="45.98275953424795" lon="12.094150878448636"><ele>1224.6</ele><time>2026-05-03T09:03:45.999Z</time></trkpt><trkpt lat="45.98280984283687" lon="12.094214180239932"><ele>1227.0</ele><time>2026-05-03T09:03:46.999Z</time></trkpt><trkpt lat="45.98286404239153" lon="12.094284098269062"><ele>1227.0</ele><time>2026-05-03T09:03:47.999Z</time></trkpt><trkpt lat="45.98291623792729" lon="12.094341034555656"><ele>1227.0</ele><time>2026-05-03T09:03:48.999Z</time></trkpt><trkpt lat="45.98302693179058" lon="12.094420942513866"><ele>1227.0</ele><time>2026-05-03T09:03:50.999Z</time></trkpt><trkpt lat="45.9830968723028" lon="12.094458988378735"><ele>1227.0</ele><time>2026-05-03T09:03:51.999Z</time></trkpt><trkpt lat="45.98316514550859" lon="12.094491922036658"><ele>1227.0</ele><time>2026-05-03T09:03:52.999Z</time></trkpt><trkpt lat="45.98326996969707" lon="12.094526510883028"><ele>1227.0</ele><time>2026-05-03T09:03:54.999Z</time></trkpt><trkpt lat="45.983351466454096" lon="12.094538369863587"><ele>1228.7142857142858</ele><time>2026-05-03T09:03:56.999Z</time></trkpt><trkpt lat="45.98341477059972" lon="12.094534675351266"><ele>1230.4285714285713</ele><time>2026-05-03T09:03:58.999Z</time></trkpt><trkpt lat="45.98349402595769" lon="12.09454530822945"><ele>1232.142857142857</ele><time>2026-05-03T09:04:01.999Z</time></trkpt><trkpt lat="45.98356958256013" lon="12.094565228094005"><ele>1233.857142857143</ele><time>2026-05-03T09:04:04.999Z</time></trkpt><trkpt lat="45.98363618730393" lon="12.094564601037437"><ele>1235.5714285714284</ele><time>2026-05-03T09:04:07.999Z</time></trkpt><trkpt lat="45.98366434147076" lon="12.094469256230077"><ele>1237.2857142857142</ele><time>2026-05-03T09:04:14.999Z</time></trkpt><trkpt lat="45.98370807994574" lon="12.094367220438457"><ele>1239.0</ele><time>2026-05-03T09:04:17.999Z</time></trkpt><trkpt lat="45.98379209059906" lon="12.094216687717323"><ele>1239.0</ele><time>2026-05-03T09:04:19.999Z</time></trkpt><trkpt lat="45.98383798273327" lon="12.094146042800077"><ele>1239.0</ele><time>2026-05-03T09:04:20.999Z</time></trkpt><trkpt lat="45.98389379729376" lon="12.094073469923881"><ele>1239.0</ele><time>2026-05-03T09:04:21.999Z</time></trkpt><trkpt lat="45.98394663182219" lon="12.0940096618871"><ele>1239.0</ele><time>2026-05-03T09:04:22.999Z</time></trkpt><trkpt lat="45.9840451597239" lon="12.093910618175656"><ele>1239.0</ele><time>2026-05-03T09:04:24.999Z</time></trkpt><trkpt lat="45.98410353993437" lon="12.093868071137233"><ele>1239.0</ele><time>2026-05-03T09:04:25.999Z</time></trkpt><trkpt lat="45.98416805658954" lon="12.093838910562036"><ele>1236.1666666666667</ele><time>2026-05-03T09:04:26.999Z</time></trkpt><trkpt lat="45.984265748039604" lon="12.093859518920347"><ele>1233.3333333333333</ele><time>2026-05-03T09:04:28.999Z</time></trkpt><trkpt lat="45.98432789557746" lon="12.093887275683716"><ele>1230.5</ele><time>2026-05-03T09:04:29.999Z</time></trkpt><trkpt lat="45.98439949912594" lon="12.09393384886184"><ele>1227.6666666666665</ele><time>2026-05-03T09:04:30.999Z</time></trkpt><trkpt lat="45.98447351998513" lon="12.093972758838618"><ele>1224.8333333333333</ele><time>2026-05-03T09:04:31.999Z</time></trkpt><trkpt lat="45.98455278166796" lon="12.094002061999955"><ele>1222.0</ele><time>2026-05-03T09:04:32.999Z</time></trkpt><trkpt lat="45.984626312202124" lon="12.094008249617705"><ele>1222.0</ele><time>2026-05-03T09:04:33.999Z</time></trkpt><trkpt lat="45.984717932256004" lon="12.094017350603405"><ele>1222.0</ele><time>2026-05-03T09:04:34.999Z</time></trkpt><trkpt lat="45.98480333562912" lon="12.09402006091432"><ele>1222.0</ele><time>2026-05-03T09:04:35.999Z</time></trkpt><trkpt lat="45.98489101660377" lon="12.094031509000168"><ele>1222.0</ele><time>2026-05-03T09:04:36.999Z</time></trkpt><trkpt lat="45.984979377687175" lon="12.094057983614656"><ele>1222.0</ele><time>2026-05-03T09:04:37.999Z</time></trkpt><trkpt lat="45.98505108298848" lon="12.094075288951506"><ele>1222.0</ele><time>2026-05-03T09:04:38.999Z</time></trkpt><trkpt lat="45.98511482639777" lon="12.094086424029923"><ele>1225.3333333333333</ele><time>2026-05-03T09:04:39.999Z</time></trkpt><trkpt lat="45.98517890844406" lon="12.094096278411142"><ele>1228.6666666666665</ele><time>2026-05-03T09:04:40.999Z</time></trkpt><trkpt lat="45.98528256364373" lon="12.094167708903477"><ele>1232.0</ele><time>2026-05-03T09:04:42.999Z</time></trkpt><trkpt lat="45.98535701400649" lon="12.094263912362258"><ele>1235.3333333333333</ele><time>2026-05-03T09:04:44.999Z</time></trkpt><trkpt lat="45.98540131422332" lon="12.094344250193316"><ele>1238.6666666666667</ele><time>2026-05-03T09:04:46.999Z</time></trkpt><trkpt lat="45.98546089566586" lon="12.094431838647253"><ele>1242.0</ele><time>2026-05-03T09:04:48.998Z</time></trkpt><trkpt lat="45.98551114589226" lon="12.094553845755085"><ele>1242.0</ele><time>2026-05-03T09:04:50.998Z</time></trkpt><trkpt lat="45.98556081541383" lon="12.094658878559212"><ele>1242.0</ele><time>2026-05-03T09:04:52.998Z</time></trkpt><trkpt lat="45.98561478085448" lon="12.094735462900587"><ele>1242.0</ele><time>2026-05-03T09:04:54.998Z</time></trkpt><trkpt lat="45.985709307109715" lon="12.09474563958008"><ele>1242.0</ele><time>2026-05-03T09:04:56.998Z</time></trkpt><trkpt lat="45.985812782856605" lon="12.09470980689982"><ele>1242.0</ele><time>2026-05-03T09:04:58.998Z</time></trkpt><trkpt lat="45.98592366664925" lon="12.094720444700306"><ele>1242.8333333333333</ele><time>2026-05-03T09:05:00.998Z</time></trkpt><trkpt lat="45.9860051999076" lon="12.094784137939671"><ele>1243.6666666666667</ele><time>2026-05-03T09:05:02.998Z</time></trkpt><trkpt lat="45.98605097882087" lon="12.094882788322737"><ele>1244.5</ele><time>2026-05-03T09:05:04.998Z</time></trkpt><trkpt lat="45.98603461097102" lon="12.095000556020306"><ele>1245.3333333333335</ele><time>2026-05-03T09:05:06.998Z</time></trkpt><trkpt lat="45.985966567865916" lon="12.095088005425016"><ele>1246.1666666666667</ele><time>2026-05-03T09:05:08.998Z</time></trkpt><trkpt lat="45.9858778933112" lon="12.095128601595409"><ele>1247.0</ele><time>2026-05-03T09:05:10.998Z</time></trkpt><trkpt lat="45.98577167317084" lon="12.095169631861493"><ele>1247.2</ele><time>2026-05-03T09:05:12.998Z</time></trkpt><trkpt lat="45.98572001412397" lon="12.095238135041942"><ele>1247.4</ele><time>2026-05-03T09:05:14.998Z</time></trkpt><trkpt lat="45.98571773992694" lon="12.095387125662722"><ele>1247.6</ele><time>2026-05-03T09:05:16.998Z</time></trkpt><trkpt lat="45.98579027446225" lon="12.095505518256164"><ele>1247.8</ele><time>2026-05-03T09:05:18.998Z</time></trkpt><trkpt lat="45.985878583371125" lon="12.09559153426102"><ele>1248.0</ele><time>2026-05-03T09:05:20.998Z</time></trkpt><trkpt lat="45.98598034293939" lon="12.095664338321935"><ele>1247.8333333333333</ele><time>2026-05-03T09:05:22.998Z</time></trkpt><trkpt lat="45.98606912663531" lon="12.095754691630084"><ele>1247.6666666666667</ele><time>2026-05-03T09:05:24.998Z</time></trkpt><trkpt lat="45.98609131237673" lon="12.095848506798866"><ele>1247.5</ele><time>2026-05-03T09:05:25.998Z</time></trkpt><trkpt lat="45.98611233922738" lon="12.095934436108232"><ele>1247.3333333333335</ele><time>2026-05-03T09:05:26.998Z</time></trkpt><trkpt lat="45.986122423070924" lon="12.096107349910037"><ele>1247.1666666666667</ele><time>2026-05-03T09:05:28.999Z</time></trkpt><trkpt lat="45.98612677975496" lon="12.096221955116073"><ele>1247.0</ele><time>2026-05-03T09:05:29.999Z</time></trkpt><trkpt lat="45.98614081676031" lon="12.096355157442765"><ele>1247.0</ele><time>2026-05-03T09:05:30.999Z</time></trkpt><trkpt lat="45.98615816672583" lon="12.096482889918635"><ele>1247.0</ele><time>2026-05-03T09:05:31.999Z</time></trkpt><trkpt lat="45.98618434421686" lon="12.096617221723571"><ele>1247.0</ele><time>2026-05-03T09:05:32.999Z</time></trkpt><trkpt lat="45.986205863805026" lon="12.096736639212546"><ele>1247.0</ele><time>2026-05-03T09:05:33.999Z</time></trkpt><trkpt lat="45.98623829703611" lon="12.096850769686247"><ele>1247.0</ele><time>2026-05-03T09:05:35Z</time></trkpt><trkpt lat="45.98624618436016" lon="12.096949614647452"><ele>1247.0</ele><time>2026-05-03T09:05:36Z</time></trkpt><trkpt lat="45.986246946504814" lon="12.097070690123271"><ele>1249.6</ele><time>2026-05-03T09:05:37Z</time></trkpt><trkpt lat="45.98625092689958" lon="12.097212006850047"><ele>1252.2</ele><time>2026-05-03T09:05:38Z</time></trkpt><trkpt lat="45.98626195927256" lon="12.09735629432308"><ele>1254.8</ele><time>2026-05-03T09:05:39Z</time></trkpt><trkpt lat="45.986275521402206" lon="12.097500932288703"><ele>1257.4</ele><time>2026-05-03T09:05:40Z</time></trkpt><trkpt lat="45.9862964858141" lon="12.097641298872349"><ele>1260.0</ele><time>2026-05-03T09:05:41Z</time></trkpt><trkpt lat="45.986328412470904" lon="12.097776823462477"><ele>1261.2</ele><time>2026-05-03T09:05:42Z</time></trkpt><trkpt lat="45.98636351817042" lon="12.097926670802007"><ele>1262.4</ele><time>2026-05-03T09:05:43Z</time></trkpt><trkpt lat="45.98640261343002" lon="12.098077238384954"><ele>1263.6</ele><time>2026-05-03T09:05:44Z</time></trkpt><trkpt lat="45.98643201692231" lon="12.098187134553777"><ele>1264.8</ele><time>2026-05-03T09:05:45Z</time></trkpt><trkpt lat="45.98645854168138" lon="12.098294001168922"><ele>1266.0</ele><time>2026-05-03T09:05:46Z</time></trkpt><trkpt lat="45.986478016051436" lon="12.09839824023028"><ele>1266.2</ele><time>2026-05-03T09:05:47Z</time></trkpt><trkpt lat="45.98646364400003" lon="12.098494664423947"><ele>1266.3999999999999</ele><time>2026-05-03T09:05:48Z</time></trkpt><trkpt lat="45.98641758816615" lon="12.098688951573864"><ele>1266.6</ele><time>2026-05-03T09:05:50Z</time></trkpt><trkpt lat="45.98641034087062" lon="12.098820970142409"><ele>1266.8</ele><time>2026-05-03T09:05:51Z</time></trkpt><trkpt lat="45.98643660362983" lon="12.098964316411557"><ele>1267.0</ele><time>2026-05-03T09:05:52Z</time></trkpt><trkpt lat="45.986453912752864" lon="12.0991053043021"><ele>1266.5714285714287</ele><time>2026-05-03T09:05:53Z</time></trkpt><trkpt lat="45.986475362153854" lon="12.099236638990881"><ele>1266.142857142857</ele><time>2026-05-03T09:05:54Z</time></trkpt><trkpt lat="45.986470832607345" lon="12.099349992461248"><ele>1265.7142857142858</ele><time>2026-05-03T09:05:55Z</time></trkpt><trkpt lat="45.98649845846735" lon="12.099444578645807"><ele>1265.2857142857142</ele><time>2026-05-03T09:05:56Z</time></trkpt><trkpt lat="45.98651121005422" lon="12.099534957052205"><ele>1264.857142857143</ele><time>2026-05-03T09:05:56.999Z</time></trkpt><trkpt lat="45.98653515216879" lon="12.09962344393701"><ele>1264.4285714285716</ele><time>2026-05-03T09:05:57.999Z</time></trkpt><trkpt lat="45.98656263168403" lon="12.099716283847396"><ele>1264.0</ele><time>2026-05-03T09:05:58.999Z</time></trkpt><trkpt lat="45.98659932634229" lon="12.09980290580632"><ele>1264.0</ele><time>2026-05-03T09:05:59.999Z</time></trkpt><trkpt lat="45.986641772022956" lon="12.099878850296163"><ele>1264.0</ele><time>2026-05-03T09:06:00.999Z</time></trkpt><trkpt lat="45.98667151641195" lon="12.100021289540432"><ele>1264.0</ele><time>2026-05-03T09:06:02.999Z</time></trkpt><trkpt lat="45.98669862549715" lon="12.100207881013512"><ele>1264.0</ele><time>2026-05-03T09:06:04.999Z</time></trkpt><trkpt lat="45.98672883850965" lon="12.100322487455824"><ele>1264.0</ele><time>2026-05-03T09:06:05.999Z</time></trkpt><trkpt lat="45.986730186783504" lon="12.10043556078826"><ele>1260.6666666666665</ele><time>2026-05-03T09:06:06.999Z</time></trkpt><trkpt lat="45.9867685016102" lon="12.100543617897104"><ele>1257.3333333333333</ele><time>2026-05-03T09:06:07.999Z</time></trkpt><trkpt lat="45.98679513937279" lon="12.10065079578808"><ele>1254.0</ele><time>2026-05-03T09:06:08.999Z</time></trkpt><trkpt lat="45.986817556631706" lon="12.100742125097371"><ele>1250.6666666666667</ele><time>2026-05-03T09:06:09.999Z</time></trkpt><trkpt lat="45.98685581741089" lon="12.100886256045571"><ele>1247.3333333333335</ele><time>2026-05-03T09:06:11.999Z</time></trkpt><trkpt lat="45.9868869185622" lon="12.100966168348016"><ele>1244.0</ele><time>2026-05-03T09:06:12.999Z</time></trkpt><trkpt lat="45.986926480101125" lon="12.1010512822959"><ele>1244.0</ele><time>2026-05-03T09:06:13.999Z</time></trkpt><trkpt lat="45.986973646132405" lon="12.101139827873496"><ele>1244.0</ele><time>2026-05-03T09:06:14.999Z</time></trkpt><trkpt lat="45.98701766468978" lon="12.101228091172453"><ele>1244.0</ele><time>2026-05-03T09:06:15.999Z</time></trkpt><trkpt lat="45.98704593864895" lon="12.101342187062125"><ele>1244.0</ele><time>2026-05-03T09:06:16.999Z</time></trkpt><trkpt lat="45.98710097449146" lon="12.101439264846759"><ele>1244.0</ele><time>2026-05-03T09:06:17.999Z</time></trkpt><trkpt lat="45.9871409217319" lon="12.101540372525985"><ele>1244.0</ele><time>2026-05-03T09:06:18.999Z</time></trkpt><trkpt lat="45.98719661687787" lon="12.10163029966642"><ele>1244.4285714285713</ele><time>2026-05-03T09:06:19.999Z</time></trkpt><trkpt lat="45.987256720995816" lon="12.10171014833528"><ele>1244.857142857143</ele><time>2026-05-03T09:06:20.999Z</time></trkpt><trkpt lat="45.98729755761354" lon="12.101788150106156"><ele>1245.2857142857142</ele><time>2026-05-03T09:06:21.999Z</time></trkpt><trkpt lat="45.98733993978172" lon="12.101865401284524"><ele>1245.7142857142858</ele><time>2026-05-03T09:06:22.999Z</time></trkpt><trkpt lat="45.98739199555362" lon="12.101947635202952"><ele>1246.142857142857</ele><time>2026-05-03T09:06:23.999Z</time></trkpt><trkpt lat="45.98744918397878" lon="12.102019201366037"><ele>1246.5714285714287</ele><time>2026-05-03T09:06:24.999Z</time></trkpt><trkpt lat="45.987507625140076" lon="12.102062779552126"><ele>1247.0</ele><time>2026-05-03T09:06:25.999Z</time></trkpt><trkpt lat="45.98756760552944" lon="12.102113309603794"><ele>1246.1666666666667</ele><time>2026-05-03T09:06:26.999Z</time></trkpt><trkpt lat="45.98764352869042" lon="12.102156296678436"><ele>1245.3333333333335</ele><time>2026-05-03T09:06:27.999Z</time></trkpt><trkpt lat="45.98771987832964" lon="12.102185843806955"><ele>1244.5</ele><time>2026-05-03T09:06:28.999Z</time></trkpt><trkpt lat="45.98779655653229" lon="12.102216410290207"><ele>1243.6666666666667</ele><time>2026-05-03T09:06:29.999Z</time></trkpt><trkpt lat="45.98785919641301" lon="12.102243759074227"><ele>1242.8333333333333</ele><time>2026-05-03T09:06:30.999Z</time></trkpt><trkpt lat="45.9879640031155" lon="12.102318865834835"><ele>1242.0</ele><time>2026-05-03T09:06:32.999Z</time></trkpt><trkpt lat="45.98805290734033" lon="12.102425324178244"><ele>1242.0</ele><time>2026-05-03T09:06:34.999Z</time></trkpt><trkpt lat="45.98812762786154" lon="12.102519116745006"><ele>1242.0</ele><time>2026-05-03T09:06:36.999Z</time></trkpt><trkpt lat="45.988213927848925" lon="12.102625602421824"><ele>1242.0</ele><time>2026-05-03T09:06:38.999Z</time></trkpt><trkpt lat="45.98829901906289" lon="12.10274910996284"><ele>1242.0</ele><time>2026-05-03T09:06:40.999Z</time></trkpt><trkpt lat="45.98838704954567" lon="12.102842289806865"><ele>1242.0</ele><time>2026-05-03T09:06:42.999Z</time></trkpt><trkpt lat="45.98847249536163" lon="12.102902045959352"><ele>1240.4285714285713</ele><time>2026-05-03T09:06:44.999Z</time></trkpt><trkpt lat="45.98857556538894" lon="12.10293983060119"><ele>1238.857142857143</ele><time>2026-05-03T09:06:46.999Z</time></trkpt><trkpt lat="45.98864322877444" lon="12.102949991169034"><ele>1237.2857142857142</ele><time>2026-05-03T09:06:47.999Z</time></trkpt><trkpt lat="45.98871061567082" lon="12.102960402530048"><ele>1235.7142857142858</ele><time>2026-05-03T09:06:48.999Z</time></trkpt><trkpt lat="45.98877003123496" lon="12.102994991734828"><ele>1234.142857142857</ele><time>2026-05-03T09:06:49.999Z</time></trkpt><trkpt lat="45.988832050267995" lon="12.103024735118623"><ele>1232.5714285714284</ele><time>2026-05-03T09:06:50.999Z</time></trkpt><trkpt lat="45.9888929844039" lon="12.103052097481367"><ele>1231.0</ele><time>2026-05-03T09:06:51.999Z</time></trkpt><trkpt lat="45.988986566004414" lon="12.103103110840616"><ele>1231.0</ele><time>2026-05-03T09:06:53.999Z</time></trkpt><trkpt lat="45.989068790088886" lon="12.103134200380174"><ele>1231.0</ele><time>2026-05-03T09:06:55.999Z</time></trkpt><trkpt lat="45.98919285874334" lon="12.103189811513"><ele>1231.0</ele><time>2026-05-03T09:06:57.999Z</time></trkpt><trkpt lat="45.98925781755967" lon="12.103238586171168"><ele>1231.0</ele><time>2026-05-03T09:06:58.999Z</time></trkpt><trkpt lat="45.989312615684454" lon="12.103304387374644"><ele>1231.0</ele><time>2026-05-03T09:06:59.999Z</time></trkpt><trkpt lat="45.9893705550431" lon="12.10336462728896"><ele>1231.0</ele><time>2026-05-03T09:07:00.999Z</time></trkpt><trkpt lat="45.98943203465441" lon="12.103426517336539"><ele>1231.5</ele><time>2026-05-03T09:07:01.999Z</time></trkpt><trkpt lat="45.98949110264055" lon="12.10348374177238"><ele>1232.0</ele><time>2026-05-03T09:07:02.999Z</time></trkpt><trkpt lat="45.98954925099055" lon="12.1035401946283"><ele>1232.5</ele><time>2026-05-03T09:07:03.999Z</time></trkpt><trkpt lat="45.989645928714175" lon="12.10363348665122"><ele>1233.0</ele><time>2026-05-03T09:07:05.999Z</time></trkpt><trkpt lat="45.98976388360341" lon="12.103691790635335"><ele>1233.5</ele><time>2026-05-03T09:07:07.999Z</time></trkpt><trkpt lat="45.98982526390894" lon="12.103729688397426"><ele>1234.0</ele><time>2026-05-03T09:07:08.999Z</time></trkpt><trkpt lat="45.98990187610028" lon="12.103736759609236"><ele>1234.0</ele><time>2026-05-03T09:07:09.999Z</time></trkpt><trkpt lat="45.98997060637325" lon="12.103740224411297"><ele>1234.0</ele><time>2026-05-03T09:07:10.999Z</time></trkpt><trkpt lat="45.99004106755072" lon="12.103691756493989"><ele>1234.0</ele><time>2026-05-03T09:07:11.999Z</time></trkpt><trkpt lat="45.990113052833934" lon="12.103662170611484"><ele>1234.0</ele><time>2026-05-03T09:07:12.999Z</time></trkpt><trkpt lat="45.99018062198204" lon="12.103626505257344"><ele>1234.0</ele><time>2026-05-03T09:07:13.999Z</time></trkpt><trkpt lat="45.990236463004194" lon="12.103581783704497"><ele>1234.0</ele><time>2026-05-03T09:07:14.999Z</time></trkpt><trkpt lat="45.99028963884477" lon="12.10352696468661"><ele>1234.0</ele><time>2026-05-03T09:07:15.999Z</time></trkpt><trkpt lat="45.990379536329456" lon="12.103442573517585"><ele>1234.6000000000001</ele><time>2026-05-03T09:07:17.998Z</time></trkpt><trkpt lat="45.990488542199294" lon="12.10344111465218"><ele>1235.2</ele><time>2026-05-03T09:07:19.998Z</time></trkpt><trkpt lat="45.990611389123394" lon="12.103450191004653"><ele>1235.8000000000002</ele><time>2026-05-03T09:07:21.998Z</time></trkpt><trkpt lat="45.99068647075631" lon="12.10345815698311"><ele>1236.4</ele><time>2026-05-03T09:07:22.998Z</time></trkpt><trkpt lat="45.9907589999432" lon="12.103467477223237"><ele>1237.0</ele><time>2026-05-03T09:07:23.998Z</time></trkpt><trkpt lat="45.990836366661135" lon="12.103459489342296"><ele>1235.2857142857142</ele><time>2026-05-03T09:07:24.998Z</time></trkpt><trkpt lat="45.99090994757413" lon="12.103476135251011"><ele>1233.5714285714287</ele><time>2026-05-03T09:07:25.998Z</time></trkpt><trkpt lat="45.990980491412046" lon="12.103504088681248"><ele>1231.857142857143</ele><time>2026-05-03T09:07:26.998Z</time></trkpt><trkpt lat="45.99104668866577" lon="12.103531768123528"><ele>1230.142857142857</ele><time>2026-05-03T09:07:27.998Z</time></trkpt><trkpt lat="45.99110722664827" lon="12.103572883995602"><ele>1228.4285714285716</ele><time>2026-05-03T09:07:28.998Z</time></trkpt><trkpt lat="45.991165896809356" lon="12.103621566642271"><ele>1226.7142857142858</ele><time>2026-05-03T09:07:29.998Z</time></trkpt><trkpt lat="45.99122116597169" lon="12.103677791656352"><ele>1225.0</ele><time>2026-05-03T09:07:30.998Z</time></trkpt><trkpt lat="45.99127236625155" lon="12.10374559197442"><ele>1225.0</ele><time>2026-05-03T09:07:31.998Z</time></trkpt><trkpt lat="45.991327183175216" lon="12.103811467899893"><ele>1225.0</ele><time>2026-05-03T09:07:32.998Z</time></trkpt><trkpt lat="45.99137906199007" lon="12.103893442251547"><ele>1225.0</ele><time>2026-05-03T09:07:33.998Z</time></trkpt><trkpt lat="45.9914342167129" lon="12.103979085828415"><ele>1225.0</ele><time>2026-05-03T09:07:35Z</time></trkpt><trkpt lat="45.99149137420951" lon="12.104062065212638"><ele>1225.0</ele><time>2026-05-03T09:07:36Z</time></trkpt><trkpt lat="45.991549439275985" lon="12.1041378130867"><ele>1225.0</ele><time>2026-05-03T09:07:37Z</time></trkpt><trkpt lat="45.99166030227785" lon="12.104206165028387"><ele>1227.5</ele><time>2026-05-03T09:07:39Z</time></trkpt><trkpt lat="45.99172921492821" lon="12.1041998475761"><ele>1230.0</ele><time>2026-05-03T09:07:40Z</time></trkpt><trkpt lat="45.991803815546035" lon="12.104191723835536"><ele>1232.5</ele><time>2026-05-03T09:07:41Z</time></trkpt><trkpt lat="45.99188356561125" lon="12.104177752070491"><ele>1235.0</ele><time>2026-05-03T09:07:42Z</time></trkpt><trkpt lat="45.99196258037374" lon="12.104159501881224"><ele>1237.5</ele><time>2026-05-03T09:07:43Z</time></trkpt><trkpt lat="45.99204802115792" lon="12.104141872706911"><ele>1240.0</ele><time>2026-05-03T09:07:44Z</time></trkpt><trkpt lat="45.99211297061744" lon="12.104118104363371"><ele>1240.0</ele><time>2026-05-03T09:07:45Z</time></trkpt><trkpt lat="45.99222924868087" lon="12.104160556498472"><ele>1240.0</ele><time>2026-05-03T09:07:47Z</time></trkpt><trkpt lat="45.99234660925174" lon="12.104231813912586"><ele>1240.0</ele><time>2026-05-03T09:07:49Z</time></trkpt><trkpt lat="45.992447091641075" lon="12.104333624285903"><ele>1240.0</ele><time>2026-05-03T09:07:51Z</time></trkpt><trkpt lat="45.99250685427156" lon="12.104373355322636"><ele>1240.0</ele><time>2026-05-03T09:07:52Z</time></trkpt><trkpt lat="45.99259740361412" lon="12.104441041076068"><ele>1240.8</ele><time>2026-05-03T09:07:54Z</time></trkpt><trkpt lat="45.992706071427406" lon="12.104465850089221"><ele>1241.6</ele><time>2026-05-03T09:07:56Z</time></trkpt><trkpt lat="45.992767289295934" lon="12.104438124064705"><ele>1242.4</ele><time>2026-05-03T09:07:57Z</time></trkpt><trkpt lat="45.99285382556925" lon="12.104316455900403"><ele>1243.2</ele><time>2026-05-03T09:07:59Z</time></trkpt><trkpt lat="45.992911660600605" lon="12.10419343172063"><ele>1244.0</ele><time>2026-05-03T09:08:01Z</time></trkpt><trkpt lat="45.992966802071244" lon="12.104078190214105"><ele>1242.0</ele><time>2026-05-03T09:08:03Z</time></trkpt><trkpt lat="45.993036597773205" lon="12.103949047899867"><ele>1240.0</ele><time>2026-05-03T09:08:05Z</time></trkpt><trkpt lat="45.993106960750744" lon="12.103828027882983"><ele>1238.0</ele><time>2026-05-03T09:08:07Z</time></trkpt><trkpt lat="45.993158570046106" lon="12.103678742431976"><ele>1236.0</ele><time>2026-05-03T09:08:09Z</time></trkpt><trkpt lat="45.9931738082561" lon="12.103535061575679"><ele>1234.0</ele><time>2026-05-03T09:08:11Z</time></trkpt><trkpt lat="45.99320586328403" lon="12.103448405120382"><ele>1234.0</ele><time>2026-05-03T09:08:13Z</time></trkpt><trkpt lat="45.99327180265482" lon="12.103402790065866"><ele>1234.0</ele><time>2026-05-03T09:08:15.999Z</time></trkpt><trkpt lat="45.99333279518392" lon="12.10337237011946"><ele>1234.0</ele><time>2026-05-03T09:08:17.999Z</time></trkpt><trkpt lat="45.99339635165822" lon="12.10335789798811"><ele>1234.0</ele><time>2026-05-03T09:08:19.999Z</time></trkpt><trkpt lat="45.993338036651146" lon="12.103278690717998"><ele>1234.0</ele><time>2026-05-03T09:08:33.999Z</time></trkpt><trkpt lat="45.99330872081526" lon="12.103367507434697"><ele>1234.0</ele><time>2026-05-03T09:09:45Z</time></trkpt><trkpt lat="45.993270535423974" lon="12.103448486319017"><ele>1234.0</ele><time>2026-05-03T09:09:53Z</time></trkpt><trkpt lat="45.993322846091765" lon="12.103500540659988"><ele>1234.0</ele><time>2026-05-03T09:10:00Z</time></trkpt><trkpt lat="45.99338819606255" lon="12.103530567374126"><ele>1234.0</ele><time>2026-05-03T09:10:10Z</time></trkpt><trkpt lat="45.99334917743955" lon="12.103607031733407"><ele>1234.0</ele><time>2026-05-03T09:10:24Z</time></trkpt><trkpt lat="45.993292974731865" lon="12.103689809470405"><ele>1234.0</ele><time>2026-05-03T09:10:35Z</time></trkpt><trkpt lat="45.99327445103139" lon="12.103780633879474"><ele>1234.0</ele><time>2026-05-03T09:10:39Z</time></trkpt><trkpt lat="45.99331285405064" lon="12.103702453102228"><ele>1234.0</ele><time>2026-05-03T09:10:47.999Z</time></trkpt><trkpt lat="45.993317199320124" lon="12.103590940826528"><ele>1234.0</ele><time>2026-05-03T09:10:51.999Z</time></trkpt><trkpt lat="45.993320134953805" lon="12.103486970764513"><ele>1234.0</ele><time>2026-05-03T09:10:55.999Z</time></trkpt><trkpt lat="45.993334902368666" lon="12.10362260510843"><ele>1234.0</ele><time>2026-05-03T09:12:10.999Z</time></trkpt><trkpt lat="45.993351386400164" lon="12.103528542595257"><ele>1234.0</ele><time>2026-05-03T09:12:18.999Z</time></trkpt><trkpt lat="45.99328368869115" lon="12.103543779084323"><ele>1234.0</ele><time>2026-05-03T09:12:26.999Z</time></trkpt><trkpt lat="45.993346175382115" lon="12.103505033709263"><ele>1234.0</ele><time>2026-05-03T09:23:04.999Z</time></trkpt><trkpt lat="45.99328632807747" lon="12.103449094881299"><ele>1234.0</ele><time>2026-05-03T09:23:40.999Z</time></trkpt><trkpt lat="45.99331218887668" lon="12.103358572327577"><ele>1234.0</ele><time>2026-05-03T09:23:53.999Z</time></trkpt><trkpt lat="45.99337900262433" lon="12.103368983020387"><ele>1231.8</ele><time>2026-05-03T09:27:18Z</time></trkpt><trkpt lat="45.99345388628059" lon="12.10336437033352"><ele>1229.6000000000001</ele><time>2026-05-03T09:27:19.999Z</time></trkpt><trkpt lat="45.99355685970371" lon="12.103376721693493"><ele>1227.4</ele><time>2026-05-03T09:27:21.999Z</time></trkpt><trkpt lat="45.993669593444665" lon="12.103373539873013"><ele>1225.2</ele><time>2026-05-03T09:27:23.999Z</time></trkpt><trkpt lat="45.993791381116964" lon="12.10333556268437"><ele>1223.0</ele><time>2026-05-03T09:27:25.999Z</time></trkpt><trkpt lat="45.99385495007361" lon="12.103317861305387"><ele>1223.0</ele><time>2026-05-03T09:27:26.999Z</time></trkpt><trkpt lat="45.993920044877115" lon="12.103298837044397"><ele>1223.0</ele><time>2026-05-03T09:27:27.999Z</time></trkpt><trkpt lat="45.993995138396784" lon="12.103282937058898"><ele>1223.0</ele><time>2026-05-03T09:27:28.999Z</time></trkpt><trkpt lat="45.994068393821074" lon="12.103265411454167"><ele>1223.0</ele><time>2026-05-03T09:27:29.999Z</time></trkpt><trkpt lat="45.994141702003915" lon="12.103248801455"><ele>1223.0</ele><time>2026-05-03T09:27:30.999Z</time></trkpt><trkpt lat="45.99421938218065" lon="12.103228365123721"><ele>1223.0</ele><time>2026-05-03T09:27:31.999Z</time></trkpt><trkpt lat="45.99429930361663" lon="12.103201417309668"><ele>1219.0</ele><time>2026-05-03T09:27:32.999Z</time></trkpt><trkpt lat="45.99438376457078" lon="12.103181470218509"><ele>1215.0</ele><time>2026-05-03T09:27:33.999Z</time></trkpt><trkpt lat="45.994466724629646" lon="12.103164452707038"><ele>1211.0</ele><time>2026-05-03T09:27:34.999Z</time></trkpt><trkpt lat="45.99455129913251" lon="12.103141924237878"><ele>1207.0</ele><time>2026-05-03T09:27:35.999Z</time></trkpt><trkpt lat="45.99463277948243" lon="12.103119938762616"><ele>1203.0</ele><time>2026-05-03T09:27:36.999Z</time></trkpt><trkpt lat="45.99470544258974" lon="12.103091408233063"><ele>1199.0</ele><time>2026-05-03T09:27:37.999Z</time></trkpt><trkpt lat="45.99476654756888" lon="12.103062928523826"><ele>1199.0</ele><time>2026-05-03T09:27:38.999Z</time></trkpt><trkpt lat="45.99488590564886" lon="12.10299262950205"><ele>1199.0</ele><time>2026-05-03T09:27:40.999Z</time></trkpt><trkpt lat="45.995010242863145" lon="12.102914634365128"><ele>1199.0</ele><time>2026-05-03T09:27:42.999Z</time></trkpt><trkpt lat="45.995076711846295" lon="12.102863551029495"><ele>1199.0</ele><time>2026-05-03T09:27:43.999Z</time></trkpt><trkpt lat="45.99513794902492" lon="12.102797927220717"><ele>1199.0</ele><time>2026-05-03T09:27:44.999Z</time></trkpt><trkpt lat="45.99519726749787" lon="12.10271970114239"><ele>1201.1666666666667</ele><time>2026-05-03T09:27:45.999Z</time></trkpt><trkpt lat="45.995264400771745" lon="12.102641221418056"><ele>1203.3333333333335</ele><time>2026-05-03T09:27:46.999Z</time></trkpt><trkpt lat="45.9953318381685" lon="12.102580310489666"><ele>1205.5</ele><time>2026-05-03T09:27:47.999Z</time></trkpt><trkpt lat="45.99540166749014" lon="12.102513226188785"><ele>1207.6666666666667</ele><time>2026-05-03T09:27:48.999Z</time></trkpt><trkpt lat="45.99548863535967" lon="12.102471834903907"><ele>1209.8333333333333</ele><time>2026-05-03T09:27:49.999Z</time></trkpt><trkpt lat="45.99556837004513" lon="12.102394293822133"><ele>1212.0</ele><time>2026-05-03T09:27:50.999Z</time></trkpt><trkpt lat="45.99562898260392" lon="12.102311233659883"><ele>1210.8</ele><time>2026-05-03T09:27:51.999Z</time></trkpt><trkpt lat="45.99570480601152" lon="12.10224441909201"><ele>1209.6</ele><time>2026-05-03T09:27:52.999Z</time></trkpt><trkpt lat="45.995768037939705" lon="12.102127187942834"><ele>1208.3999999999999</ele><time>2026-05-03T09:27:53.999Z</time></trkpt><trkpt lat="45.9958301317288" lon="12.102017110416174"><ele>1207.2</ele><time>2026-05-03T09:27:54.999Z</time></trkpt><trkpt lat="45.995901308311566" lon="12.101910764900401"><ele>1206.0</ele><time>2026-05-03T09:27:55.999Z</time></trkpt><trkpt lat="45.995975077737036" lon="12.101804363631599"><ele>1206.0</ele><time>2026-05-03T09:27:56.999Z</time></trkpt><trkpt lat="45.996049246027624" lon="12.101700206243041"><ele>1206.0</ele><time>2026-05-03T09:27:57.999Z</time></trkpt><trkpt lat="45.99612407441266" lon="12.101601724310132"><ele>1206.0</ele><time>2026-05-03T09:27:58.999Z</time></trkpt><trkpt lat="45.99620980051653" lon="12.101487668056688"><ele>1206.0</ele><time>2026-05-03T09:27:59.999Z</time></trkpt><trkpt lat="45.9962766109906" lon="12.101364935735548"><ele>1206.0</ele><time>2026-05-03T09:28:00.999Z</time></trkpt><trkpt lat="45.99635658932856" lon="12.101236371221065"><ele>1197.75</ele><time>2026-05-03T09:28:01.999Z</time></trkpt><trkpt lat="45.99641442585619" lon="12.101096234127683"><ele>1189.5</ele><time>2026-05-03T09:28:02.999Z</time></trkpt><trkpt lat="45.996483406233125" lon="12.10097406606353"><ele>1181.25</ele><time>2026-05-03T09:28:03.999Z</time></trkpt><trkpt lat="45.99655140326816" lon="12.100826039755894"><ele>1173.0</ele><time>2026-05-03T09:28:04.999Z</time></trkpt><trkpt lat="45.99661981653392" lon="12.10069285497749"><ele>1173.8</ele><time>2026-05-03T09:28:05.999Z</time></trkpt><trkpt lat="45.996716190640825" lon="12.100591362339104"><ele>1174.6</ele><time>2026-05-03T09:28:06.999Z</time></trkpt><trkpt lat="45.9967819605067" lon="12.100465689447807"><ele>1175.4</ele><time>2026-05-03T09:28:07.999Z</time></trkpt><trkpt lat="45.99684613441815" lon="12.100343771801287"><ele>1176.2</ele><time>2026-05-03T09:28:08.999Z</time></trkpt><trkpt lat="45.9969065181518" lon="12.100216556559145"><ele>1177.0</ele><time>2026-05-03T09:28:09.999Z</time></trkpt><trkpt lat="45.99696875049622" lon="12.10009551146697"><ele>1177.0</ele><time>2026-05-03T09:28:10.999Z</time></trkpt><trkpt lat="45.99702584488247" lon="12.099969184854723"><ele>1177.0</ele><time>2026-05-03T09:28:11.999Z</time></trkpt><trkpt lat="45.99708276613087" lon="12.099838819161004"><ele>1177.0</ele><time>2026-05-03T09:28:12.999Z</time></trkpt><trkpt lat="45.99714121357109" lon="12.099717122888034"><ele>1177.0</ele><time>2026-05-03T09:28:13.999Z</time></trkpt><trkpt lat="45.99720728919026" lon="12.09959125578427"><ele>1177.0</ele><time>2026-05-03T09:28:14.999Z</time></trkpt><trkpt lat="45.99727651413573" lon="12.099457709014844"><ele>1167.25</ele><time>2026-05-03T09:28:15.999Z</time></trkpt><trkpt lat="45.99735143685832" lon="12.099327493805568"><ele>1157.5</ele><time>2026-05-03T09:28:16.999Z</time></trkpt><trkpt lat="45.997427949109465" lon="12.099196631305487"><ele>1147.75</ele><time>2026-05-03T09:28:17.999Z</time></trkpt><trkpt lat="45.99750741221851" lon="12.099059189626573"><ele>1138.0</ele><time>2026-05-03T09:28:18.999Z</time></trkpt><trkpt lat="45.9975881129095" lon="12.098920131588214"><ele>1135.4</ele><time>2026-05-03T09:28:19.999Z</time></trkpt><trkpt lat="45.99768025863765" lon="12.098800762125924"><ele>1132.8</ele><time>2026-05-03T09:28:20.999Z</time></trkpt><trkpt lat="45.99776202852376" lon="12.098689208263028"><ele>1130.2</ele><time>2026-05-03T09:28:21.999Z</time></trkpt><trkpt lat="45.99782016279933" lon="12.09858356417953"><ele>1127.6</ele><time>2026-05-03T09:28:22.999Z</time></trkpt><trkpt lat="45.997885878734564" lon="12.098532591309164"><ele>1125.0</ele><time>2026-05-03T09:28:23.999Z</time></trkpt><trkpt lat="45.997944684907885" lon="12.098478428892241"><ele>1125.0</ele><time>2026-05-03T09:28:24.998Z</time></trkpt><trkpt lat="45.998007143592815" lon="12.098443223703207"><ele>1125.0</ele><time>2026-05-03T09:28:25.998Z</time></trkpt><trkpt lat="45.99813955522909" lon="12.098448195460698"><ele>1125.0</ele><time>2026-05-03T09:28:27.998Z</time></trkpt><trkpt lat="45.99823462132209" lon="12.098470549083801"><ele>1125.0</ele><time>2026-05-03T09:28:28.998Z</time></trkpt><trkpt lat="45.99831521792865" lon="12.098492085335762"><ele>1125.0</ele><time>2026-05-03T09:28:29.998Z</time></trkpt><trkpt lat="45.99838326806777" lon="12.098510269027976"><ele>1125.0</ele><time>2026-05-03T09:28:30.998Z</time></trkpt><trkpt lat="45.99845417778986" lon="12.098521029445012"><ele>1125.1666666666667</ele><time>2026-05-03T09:28:31.998Z</time></trkpt><trkpt lat="45.99852607784897" lon="12.098555060359393"><ele>1125.3333333333333</ele><time>2026-05-03T09:28:33Z</time></trkpt><trkpt lat="45.99861210975655" lon="12.098605393988906"><ele>1125.5</ele><time>2026-05-03T09:28:34Z</time></trkpt><trkpt lat="45.99870140760312" lon="12.09862910913199"><ele>1125.6666666666665</ele><time>2026-05-03T09:28:35Z</time></trkpt><trkpt lat="45.998796859456114" lon="12.098615128639606"><ele>1125.8333333333333</ele><time>2026-05-03T09:28:36Z</time></trkpt><trkpt lat="45.99886168771445" lon="12.098565329064828"><ele>1126.0</ele><time>2026-05-03T09:28:37Z</time></trkpt><trkpt lat="45.99895149750089" lon="12.098539696079971"><ele>1126.0</ele><time>2026-05-03T09:28:38Z</time></trkpt><trkpt lat="45.99904651819484" lon="12.098437711364404"><ele>1126.0</ele><time>2026-05-03T09:28:39Z</time></trkpt><trkpt lat="45.999130432010034" lon="12.098371243555205"><ele>1126.0</ele><time>2026-05-03T09:28:40Z</time></trkpt><trkpt lat="45.999212020631624" lon="12.098325742854922"><ele>1126.0</ele><time>2026-05-03T09:28:41Z</time></trkpt><trkpt lat="45.99927949488041" lon="12.09830322388714"><ele>1126.0</ele><time>2026-05-03T09:28:42Z</time></trkpt><trkpt lat="45.999376174373" lon="12.098305724393388"><ele>1125.8</ele><time>2026-05-03T09:28:43Z</time></trkpt><trkpt lat="45.99948477598626" lon="12.098309007882646"><ele>1125.6</ele><time>2026-05-03T09:28:44Z</time></trkpt><trkpt lat="45.99959406574067" lon="12.098304108206671"><ele>1125.4</ele><time>2026-05-03T09:28:45Z</time></trkpt><trkpt lat="45.9996933166132" lon="12.09829036777662"><ele>1125.2</ele><time>2026-05-03T09:28:46Z</time></trkpt><trkpt lat="45.99980830779021" lon="12.098300629215329"><ele>1125.0</ele><time>2026-05-03T09:28:47Z</time></trkpt><trkpt lat="45.999912106631726" lon="12.098308552813807"><ele>1125.0</ele><time>2026-05-03T09:28:48Z</time></trkpt><trkpt lat="46.00001485974377" lon="12.09828976908387"><ele>1125.0</ele><time>2026-05-03T09:28:49Z</time></trkpt><trkpt lat="46.00010858604959" lon="12.098252239428934"><ele>1125.0</ele><time>2026-05-03T09:28:50Z</time></trkpt><trkpt lat="46.00018271541797" lon="12.09818630602573"><ele>1125.0</ele><time>2026-05-03T09:28:51Z</time></trkpt><trkpt lat="46.00024698910163" lon="12.098101295535884"><ele>1125.0</ele><time>2026-05-03T09:28:52Z</time></trkpt><trkpt lat="46.000310778013215" lon="12.098007295796867"><ele>1118.8333333333333</ele><time>2026-05-03T09:28:53Z</time></trkpt><trkpt lat="46.000378593860525" lon="12.09792372713808"><ele>1112.6666666666667</ele><time>2026-05-03T09:28:54Z</time></trkpt><trkpt lat="46.00045629874261" lon="12.097905511783184"><ele>1106.5</ele><time>2026-05-03T09:28:55Z</time></trkpt><trkpt lat="46.00053606224101" lon="12.097880797010623"><ele>1100.3333333333335</ele><time>2026-05-03T09:28:56Z</time></trkpt><trkpt lat="46.0006253988655" lon="12.09789886095792"><ele>1094.1666666666667</ele><time>2026-05-03T09:28:57Z</time></trkpt><trkpt lat="46.00072936767196" lon="12.097916189860737"><ele>1088.0</ele><time>2026-05-03T09:28:58Z</time></trkpt><trkpt lat="46.000842113374496" lon="12.097940007665196"><ele>1086.5</ele><time>2026-05-03T09:28:59Z</time></trkpt><trkpt lat="46.00094833812595" lon="12.09796057704608"><ele>1085.0</ele><time>2026-05-03T09:29:00Z</time></trkpt><trkpt lat="46.00106184069395" lon="12.097975403700344"><ele>1083.5</ele><time>2026-05-03T09:29:01Z</time></trkpt><trkpt lat="46.00117590685935" lon="12.097978172600717"><ele>1082.0</ele><time>2026-05-03T09:29:02Z</time></trkpt><trkpt lat="46.00129484945971" lon="12.097976843779954"><ele>1082.0</ele><time>2026-05-03T09:29:03Z</time></trkpt><trkpt lat="46.001413675464455" lon="12.09796801364826"><ele>1082.0</ele><time>2026-05-03T09:29:04Z</time></trkpt><trkpt lat="46.001532516309894" lon="12.09794919504117"><ele>1082.0</ele><time>2026-05-03T09:29:05Z</time></trkpt><trkpt lat="46.00164344288236" lon="12.097926091615836"><ele>1082.0</ele><time>2026-05-03T09:29:06Z</time></trkpt><trkpt lat="46.001746113687275" lon="12.09788781999967"><ele>1081.6</ele><time>2026-05-03T09:29:07Z</time></trkpt><trkpt lat="46.001839710346744" lon="12.097845621954946"><ele>1081.2</ele><time>2026-05-03T09:29:08Z</time></trkpt><trkpt lat="46.001929617519295" lon="12.097797196688015"><ele>1080.8</ele><time>2026-05-03T09:29:09Z</time></trkpt><trkpt lat="46.00201134931843" lon="12.097731330197195"><ele>1080.4</ele><time>2026-05-03T09:29:10Z</time></trkpt><trkpt lat="46.00209428812056" lon="12.09764465615401"><ele>1080.0</ele><time>2026-05-03T09:29:11Z</time></trkpt><trkpt lat="46.002170594927996" lon="12.097536787609641"><ele>1074.0</ele><time>2026-05-03T09:29:12Z</time></trkpt><trkpt lat="46.00222738728909" lon="12.097408317587266"><ele>1068.0</ele><time>2026-05-03T09:29:13Z</time></trkpt><trkpt lat="46.00227959178948" lon="12.097279405944915"><ele>1062.0</ele><time>2026-05-03T09:29:14Z</time></trkpt><trkpt lat="46.00233219066152" lon="12.097135582781089"><ele>1056.0</ele><time>2026-05-03T09:29:15Z</time></trkpt><trkpt lat="46.00236946226954" lon="12.096984308336204"><ele>1050.0</ele><time>2026-05-03T09:29:16Z</time></trkpt><trkpt lat="46.002398761038286" lon="12.096858287191978"><ele>1050.0</ele><time>2026-05-03T09:29:17Z</time></trkpt><trkpt lat="46.0024316329669" lon="12.096766343864337"><ele>1050.0</ele><time>2026-05-03T09:29:18Z</time></trkpt><trkpt lat="46.0025289704012" lon="12.096712225291325"><ele>1050.0</ele><time>2026-05-03T09:29:20Z</time></trkpt><trkpt lat="46.00262890889184" lon="12.096795339757685"><ele>1050.0</ele><time>2026-05-03T09:29:21.999Z</time></trkpt><trkpt lat="46.00270463159048" lon="12.096809534695785"><ele>1050.0</ele><time>2026-05-03T09:29:22.999Z</time></trkpt><trkpt lat="46.00278374196198" lon="12.096808078506042"><ele>1050.0</ele><time>2026-05-03T09:29:23.999Z</time></trkpt><trkpt lat="46.00287181183982" lon="12.096700676172663"><ele>1047.8</ele><time>2026-05-03T09:29:24.999Z</time></trkpt><trkpt lat="46.002924687059654" lon="12.096647825492944"><ele>1045.6</ele><time>2026-05-03T09:29:25.999Z</time></trkpt><trkpt lat="46.00298705152412" lon="12.096585157746354"><ele>1043.4</ele><time>2026-05-03T09:29:26.999Z</time></trkpt><trkpt lat="46.0030663972418" lon="12.096500900746365"><ele>1041.2</ele><time>2026-05-03T09:29:27.999Z</time></trkpt><trkpt lat="46.003150322868926" lon="12.096406189598792"><ele>1039.0</ele><time>2026-05-03T09:29:28.999Z</time></trkpt><trkpt lat="46.00324179282715" lon="12.096295125568636"><ele>1039.0</ele><time>2026-05-03T09:29:29.999Z</time></trkpt><trkpt lat="46.00331696775611" lon="12.096168515389447"><ele>1039.0</ele><time>2026-05-03T09:29:30.999Z</time></trkpt><trkpt lat="46.003391338016165" lon="12.096058783080947"><ele>1039.0</ele><time>2026-05-03T09:29:31.999Z</time></trkpt><trkpt lat="46.0034631546959" lon="12.095967052438356"><ele>1039.0</ele><time>2026-05-03T09:29:32.999Z</time></trkpt><trkpt lat="46.00353013475158" lon="12.095860328798619"><ele>1039.0</ele><time>2026-05-03T09:29:33.999Z</time></trkpt><trkpt lat="46.00360093448865" lon="12.095764402721635"><ele>1033.2</ele><time>2026-05-03T09:29:34.999Z</time></trkpt><trkpt lat="46.00367107247086" lon="12.095663871793631"><ele>1027.4</ele><time>2026-05-03T09:29:35.999Z</time></trkpt><trkpt lat="46.003743256665636" lon="12.095553945408868"><ele>1021.6</ele><time>2026-05-03T09:29:36.999Z</time></trkpt><trkpt lat="46.003813778984174" lon="12.095438657268296"><ele>1015.8</ele><time>2026-05-03T09:29:37.999Z</time></trkpt><trkpt lat="46.003877963975015" lon="12.0953113789279"><ele>1010.0</ele><time>2026-05-03T09:29:38.999Z</time></trkpt><trkpt lat="46.00392337975181" lon="12.095174502721411"><ele>1010.0000000000001</ele><time>2026-05-03T09:29:39.999Z</time></trkpt><trkpt lat="46.0039523181362" lon="12.09505419795308"><ele>1010.0</ele><time>2026-05-03T09:29:40.999Z</time></trkpt><trkpt lat="46.00399859205927" lon="12.094978202517554"><ele>1010.0</ele><time>2026-05-03T09:29:41.999Z</time></trkpt><trkpt lat="46.00406598667371" lon="12.094895963778047"><ele>1010.0</ele><time>2026-05-03T09:29:43.999Z</time></trkpt><trkpt lat="46.00415441990163" lon="12.09496929004822"><ele>1010.0000000000001</ele><time>2026-05-03T09:29:45.999Z</time></trkpt><trkpt lat="46.00421696866559" lon="12.095001269504015"><ele>1010.0</ele><time>2026-05-03T09:29:46.999Z</time></trkpt><trkpt lat="46.004312257584395" lon="12.094992047682684"><ele>1013.0</ele><time>2026-05-03T09:29:47.999Z</time></trkpt><trkpt lat="46.004408430576056" lon="12.094944347827024"><ele>1016.0</ele><time>2026-05-03T09:29:48.999Z</time></trkpt><trkpt lat="46.00449036967221" lon="12.094906534137134"><ele>1019.0</ele><time>2026-05-03T09:29:49.999Z</time></trkpt><trkpt lat="46.00458722171101" lon="12.094865665671461"><ele>1022.0</ele><time>2026-05-03T09:29:50.999Z</time></trkpt><trkpt lat="46.00468423076214" lon="12.09484846882189"><ele>1025.0</ele><time>2026-05-03T09:29:51.999Z</time></trkpt><trkpt lat="46.00477980209738" lon="12.094851814536687"><ele>1018.6</ele><time>2026-05-03T09:29:52.999Z</time></trkpt><trkpt lat="46.004876690589334" lon="12.094840162976473"><ele>1012.2</ele><time>2026-05-03T09:29:53.999Z</time></trkpt><trkpt lat="46.0049697819301" lon="12.094820112317153"><ele>1005.8</ele><time>2026-05-03T09:29:54.999Z</time></trkpt><trkpt lat="46.00506327787798" lon="12.094792766510652"><ele>999.4</ele><time>2026-05-03T09:29:55.999Z</time></trkpt><trkpt lat="46.005138417533985" lon="12.094740271065678"><ele>993.0</ele><time>2026-05-03T09:29:56.999Z</time></trkpt><trkpt lat="46.00522272542773" lon="12.094707719072"><ele>992.4</ele><time>2026-05-03T09:29:57.999Z</time></trkpt><trkpt lat="46.00530637927362" lon="12.09468443688992"><ele>991.8</ele><time>2026-05-03T09:29:58.999Z</time></trkpt><trkpt lat="46.00539852823677" lon="12.094667073744132"><ele>991.2</ele><time>2026-05-03T09:29:59.999Z</time></trkpt><trkpt lat="46.005491333472925" lon="12.094670416521982"><ele>990.6</ele><time>2026-05-03T09:30:00.999Z</time></trkpt><trkpt lat="46.005581185373984" lon="12.094659039639838"><ele>990.0</ele><time>2026-05-03T09:30:01.999Z</time></trkpt><trkpt lat="46.0056743132401" lon="12.094656201115356"><ele>990.0</ele><time>2026-05-03T09:30:02.999Z</time></trkpt><trkpt lat="46.005769825627056" lon="12.09463454459774"><ele>990.0</ele><time>2026-05-03T09:30:03.999Z</time></trkpt><trkpt lat="46.00585844028149" lon="12.094589150602534"><ele>990.0</ele><time>2026-05-03T09:30:04.999Z</time></trkpt><trkpt lat="46.005934749533374" lon="12.094531651004024"><ele>990.0</ele><time>2026-05-03T09:30:05.999Z</time></trkpt><trkpt lat="46.00599246862688" lon="12.0944542210309"><ele>990.0</ele><time>2026-05-03T09:30:06.999Z</time></trkpt><trkpt lat="46.006036542005816" lon="12.09435530496345"><ele>990.0</ele><time>2026-05-03T09:30:07.999Z</time></trkpt><trkpt lat="46.00609095267042" lon="12.094265645892557"><ele>990.6666666666666</ele><time>2026-05-03T09:30:08.999Z</time></trkpt><trkpt lat="46.00614190360823" lon="12.094170464537378"><ele>991.3333333333333</ele><time>2026-05-03T09:30:09.999Z</time></trkpt><trkpt lat="46.00619624208326" lon="12.094077336411035"><ele>992.0</ele><time>2026-05-03T09:30:10.999Z</time></trkpt><trkpt lat="46.00624406804772" lon="12.09397988407158"><ele>992.6666666666666</ele><time>2026-05-03T09:30:11.999Z</time></trkpt><trkpt lat="46.006296258528444" lon="12.09390167677679"><ele>993.3333333333333</ele><time>2026-05-03T09:30:12.999Z</time></trkpt><trkpt lat="46.00636457654301" lon="12.093789350227242"><ele>994.0</ele><time>2026-05-03T09:30:14.999Z</time></trkpt><trkpt lat="46.006444768871745" lon="12.093728527348974"><ele>989.8333333333333</ele><time>2026-05-03T09:30:16.999Z</time></trkpt><trkpt lat="46.006536441058024" lon="12.093729586046429"><ele>985.6666666666666</ele><time>2026-05-03T09:30:18.999Z</time></trkpt><trkpt lat="46.00663822130687" lon="12.09382035975467"><ele>981.5</ele><time>2026-05-03T09:30:20.999Z</time></trkpt><trkpt lat="46.00670111141023" lon="12.093858582524772"><ele>977.3333333333333</ele><time>2026-05-03T09:30:21.999Z</time></trkpt><trkpt lat="46.0067657595697" lon="12.093900071828262"><ele>973.1666666666666</ele><time>2026-05-03T09:30:22.998Z</time></trkpt><trkpt lat="46.00682980754339" lon="12.093942970820413"><ele>969.0</ele><time>2026-05-03T09:30:23.998Z</time></trkpt><trkpt lat="46.00689075920632" lon="12.093998816514029"><ele>969.0</ele><time>2026-05-03T09:30:24.998Z</time></trkpt><trkpt lat="46.00695078221416" lon="12.094060115860128"><ele>969.0</ele><time>2026-05-03T09:30:25.998Z</time></trkpt><trkpt lat="46.00702479820985" lon="12.094127640787974"><ele>969.0</ele><time>2026-05-03T09:30:26.998Z</time></trkpt><trkpt lat="46.007114898497576" lon="12.094167838359882"><ele>969.0</ele><time>2026-05-03T09:30:27.998Z</time></trkpt><trkpt lat="46.007205522444394" lon="12.094217178112123"><ele>969.0</ele><time>2026-05-03T09:30:28.998Z</time></trkpt><trkpt lat="46.00729258792253" lon="12.094263819841348"><ele>969.0</ele><time>2026-05-03T09:30:29.998Z</time></trkpt><trkpt lat="46.007368688299664" lon="12.094335436180383"><ele>966.8000000000001</ele><time>2026-05-03T09:30:30.998Z</time></trkpt><trkpt lat="46.00744722229014" lon="12.094395296522588"><ele>964.6000000000001</ele><time>2026-05-03T09:30:31.998Z</time></trkpt><trkpt lat="46.00752393084395" lon="12.09446082652801"><ele>962.4</ele><time>2026-05-03T09:30:32.998Z</time></trkpt><trkpt lat="46.00760120680351" lon="12.094534014247118"><ele>960.2</ele><time>2026-05-03T09:30:33.998Z</time></trkpt><trkpt lat="46.007680537654515" lon="12.094621138601378"><ele>958.0</ele><time>2026-05-03T09:30:34.998Z</time></trkpt><trkpt lat="46.007751083813524" lon="12.094710718178973"><ele>958.0</ele><time>2026-05-03T09:30:35.998Z</time></trkpt><trkpt lat="46.00782754766189" lon="12.094815339466875"><ele>958.0</ele><time>2026-05-03T09:30:36.998Z</time></trkpt><trkpt lat="46.007898355721224" lon="12.094914401226761"><ele>958.0</ele><time>2026-05-03T09:30:37.998Z</time></trkpt><trkpt lat="46.00796856082446" lon="12.095017036712099"><ele>958.0</ele><time>2026-05-03T09:30:39Z</time></trkpt><trkpt lat="46.00802897493566" lon="12.095127303741352"><ele>958.0</ele><time>2026-05-03T09:30:40Z</time></trkpt><trkpt lat="46.00807444703981" lon="12.095242202821828"><ele>960.6666666666666</ele><time>2026-05-03T09:30:41Z</time></trkpt><trkpt lat="46.008106891939086" lon="12.095351238215075"><ele>963.3333333333333</ele><time>2026-05-03T09:30:42Z</time></trkpt><trkpt lat="46.00813465453797" lon="12.09543620092181"><ele>966.0</ele><time>2026-05-03T09:30:43Z</time></trkpt><trkpt lat="46.008183225713864" lon="12.095581842091782"><ele>968.6666666666667</ele><time>2026-05-03T09:30:45Z</time></trkpt><trkpt lat="46.00822522624295" lon="12.095658247505053"><ele>971.3333333333334</ele><time>2026-05-03T09:30:46Z</time></trkpt><trkpt lat="46.008252929509034" lon="12.095754389942915"><ele>974.0</ele><time>2026-05-03T09:30:47Z</time></trkpt><trkpt lat="46.00826375326076" lon="12.095861135470267"><ele>975.5000000000001</ele><time>2026-05-03T09:30:48Z</time></trkpt><trkpt lat="46.00828319183855" lon="12.095964002312934"><ele>977.0</ele><time>2026-05-03T09:30:49Z</time></trkpt><trkpt lat="46.00829829251667" lon="12.0960716170331"><ele>978.5</ele><time>2026-05-03T09:30:50Z</time></trkpt><trkpt lat="46.00831431552162" lon="12.096182991707625"><ele>980.0</ele><time>2026-05-03T09:30:51Z</time></trkpt><trkpt lat="46.00835206977512" lon="12.096293068614715"><ele>981.5000000000001</ele><time>2026-05-03T09:30:52Z</time></trkpt><trkpt lat="46.008360197465336" lon="12.096414941453112"><ele>983.0</ele><time>2026-05-03T09:30:53Z</time></trkpt><trkpt lat="46.00840021051596" lon="12.096518023412246"><ele>976.0</ele><time>2026-05-03T09:30:54Z</time></trkpt><trkpt lat="46.00840852281613" lon="12.096632679169801"><ele>969.0</ele><time>2026-05-03T09:30:55Z</time></trkpt><trkpt lat="46.00843022621771" lon="12.096733459062628"><ele>962.0</ele><time>2026-05-03T09:30:56Z</time></trkpt><trkpt lat="46.008463136194756" lon="12.096908494404762"><ele>955.0</ele><time>2026-05-03T09:30:58Z</time></trkpt><trkpt lat="46.008489178725966" lon="12.097078715144693"><ele>948.0</ele><time>2026-05-03T09:31:00Z</time></trkpt><trkpt lat="46.00850165974429" lon="12.09717423191285"><ele>948.0</ele><time>2026-05-03T09:31:01Z</time></trkpt><trkpt lat="46.008526356718065" lon="12.097260807931258"><ele>948.0</ele><time>2026-05-03T09:31:02Z</time></trkpt><trkpt lat="46.00853306257088" lon="12.097429251396"><ele>948.0</ele><time>2026-05-03T09:31:04Z</time></trkpt><trkpt lat="46.00851617579604" lon="12.097597362995975"><ele>948.0</ele><time>2026-05-03T09:31:06Z</time></trkpt><trkpt lat="46.00844873811393" lon="12.097752987440105"><ele>948.0</ele><time>2026-05-03T09:31:08Z</time></trkpt><trkpt lat="46.00841189675538" lon="12.097829615505457"><ele>946.8571428571427</ele><time>2026-05-03T09:31:09Z</time></trkpt><trkpt lat="46.00836627887928" lon="12.097910381569001"><ele>945.7142857142857</ele><time>2026-05-03T09:31:10Z</time></trkpt><trkpt lat="46.00831976648123" lon="12.097972334286428"><ele>944.5714285714284</ele><time>2026-05-03T09:31:11Z</time></trkpt><trkpt lat="46.00826190871718" lon="12.09802848377715"><ele>943.4285714285713</ele><time>2026-05-03T09:31:12Z</time></trkpt><trkpt lat="46.008197159728645" lon="12.098068756776632"><ele>942.2857142857142</ele><time>2026-05-03T09:31:13Z</time></trkpt><trkpt lat="46.00811940937368" lon="12.09810883833395"><ele>941.1428571428571</ele><time>2026-05-03T09:31:14Z</time></trkpt><trkpt lat="46.00804824406452" lon="12.098149540340149"><ele>940.0</ele><time>2026-05-03T09:31:15Z</time></trkpt><trkpt lat="46.00798631690562" lon="12.098194544340817"><ele>941.9999999999999</ele><time>2026-05-03T09:31:16Z</time></trkpt><trkpt lat="46.007930993588495" lon="12.098252522171675"><ele>944.0</ele><time>2026-05-03T09:31:17Z</time></trkpt><trkpt lat="46.0078775770207" lon="12.09830842366078"><ele>946.0</ele><time>2026-05-03T09:31:18Z</time></trkpt><trkpt lat="46.007796925269034" lon="12.098414994672893"><ele>948.0</ele><time>2026-05-03T09:31:20Z</time></trkpt><trkpt lat="46.00774265863725" lon="12.09851570229883"><ele>949.9999999999999</ele><time>2026-05-03T09:31:22Z</time></trkpt><trkpt lat="46.00772099646385" lon="12.098645685782227"><ele>952.0</ele><time>2026-05-03T09:31:24Z</time></trkpt><trkpt lat="46.007666981800526" lon="12.098815411511653"><ele>951.9999999999999</ele><time>2026-05-03T09:31:25.999Z</time></trkpt><trkpt lat="46.00765818144274" lon="12.098909222238749"><ele>952.0</ele><time>2026-05-03T09:31:26.999Z</time></trkpt><trkpt lat="46.00766453263506" lon="12.09903174939439"><ele>952.0</ele><time>2026-05-03T09:31:27.999Z</time></trkpt><trkpt lat="46.0076949473283" lon="12.099149501653534"><ele>952.0</ele><time>2026-05-03T09:31:28.999Z</time></trkpt><trkpt lat="46.00770655948597" lon="12.099261092871172"><ele>951.9999999999999</ele><time>2026-05-03T09:31:29.999Z</time></trkpt><trkpt lat="46.00773517633405" lon="12.099354953035554"><ele>952.0</ele><time>2026-05-03T09:31:30.999Z</time></trkpt><trkpt lat="46.007765438663796" lon="12.099443496758392"><ele>949.1666666666666</ele><time>2026-05-03T09:31:31.999Z</time></trkpt><trkpt lat="46.007764903796996" lon="12.099587450688356"><ele>946.3333333333333</ele><time>2026-05-03T09:31:33.999Z</time></trkpt><trkpt lat="46.007731985163446" lon="12.099730286264185"><ele>943.5</ele><time>2026-05-03T09:31:35.999Z</time></trkpt><trkpt lat="46.007726097292306" lon="12.099827644129714"><ele>940.6666666666667</ele><time>2026-05-03T09:31:36.999Z</time></trkpt><trkpt lat="46.00769252052905" lon="12.099914948891362"><ele>937.8333333333334</ele><time>2026-05-03T09:31:37.999Z</time></trkpt><trkpt lat="46.0076863604643" lon="12.100013962642612"><ele>935.0</ele><time>2026-05-03T09:31:38.999Z</time></trkpt><trkpt lat="46.007661592018394" lon="12.100104876894399"><ele>934.0</ele><time>2026-05-03T09:31:39.999Z</time></trkpt><trkpt lat="46.00763137309839" lon="12.100195420672142"><ele>933.0</ele><time>2026-05-03T09:31:40.999Z</time></trkpt><trkpt lat="46.007610124508574" lon="12.100281991497134"><ele>932.0</ele><time>2026-05-03T09:31:41.999Z</time></trkpt><trkpt lat="46.007619212057705" lon="12.100446696748968"><ele>931.0</ele><time>2026-05-03T09:31:43.999Z</time></trkpt><trkpt lat="46.007711068329726" lon="12.100585784347713"><ele>930.0</ele><time>2026-05-03T09:31:45.999Z</time></trkpt><trkpt lat="46.00775169677133" lon="12.10067109678993"><ele>929.4</ele><time>2026-05-03T09:31:46.999Z</time></trkpt><trkpt lat="46.00780479005944" lon="12.10078441689598"><ele>928.8</ele><time>2026-05-03T09:31:48.999Z</time></trkpt><trkpt lat="46.00780283729164" lon="12.100937948006067"><ele>928.2</ele><time>2026-05-03T09:31:50.999Z</time></trkpt><trkpt lat="46.007756612689086" lon="12.101114205110525"><ele>927.6</ele><time>2026-05-03T09:31:52.999Z</time></trkpt><trkpt lat="46.00772782092957" lon="12.101207471987221"><ele>927.0</ele><time>2026-05-03T09:31:53.999Z</time></trkpt><trkpt lat="46.00769735916225" lon="12.101289180914021"><ele>927.0</ele><time>2026-05-03T09:31:54.999Z</time></trkpt><trkpt lat="46.007616085799725" lon="12.101442543386732"><ele>927.0</ele><time>2026-05-03T09:31:56.999Z</time></trkpt><trkpt lat="46.00756114957226" lon="12.101507210728611"><ele>927.0</ele><time>2026-05-03T09:31:57.999Z</time></trkpt><trkpt lat="46.00750515965635" lon="12.101569692736078"><ele>927.0</ele><time>2026-05-03T09:31:58.999Z</time></trkpt><trkpt lat="46.007435816804716" lon="12.101650237474402"><ele>927.0</ele><time>2026-05-03T09:31:59.999Z</time></trkpt><trkpt lat="46.00736661812924" lon="12.101740887235342"><ele>932.2</ele><time>2026-05-03T09:32:00.999Z</time></trkpt><trkpt lat="46.00729534181685" lon="12.101845442572012"><ele>937.4000000000001</ele><time>2026-05-03T09:32:01.999Z</time></trkpt><trkpt lat="46.00723624532488" lon="12.101950304942484"><ele>942.5999999999999</ele><time>2026-05-03T09:32:02.999Z</time></trkpt><trkpt lat="46.007190299246204" lon="12.102064040468335"><ele>947.8</ele><time>2026-05-03T09:32:03.999Z</time></trkpt><trkpt lat="46.007176092670285" lon="12.10220199798841"><ele>953.0</ele><time>2026-05-03T09:32:04.999Z</time></trkpt><trkpt lat="46.00714408843425" lon="12.102313583588984"><ele>951.5000000000001</ele><time>2026-05-03T09:32:05.999Z</time></trkpt><trkpt lat="46.007128586834064" lon="12.102431091563771"><ele>950.0</ele><time>2026-05-03T09:32:06.999Z</time></trkpt><trkpt lat="46.00712104739987" lon="12.102548502738882"><ele>948.5</ele><time>2026-05-03T09:32:07.999Z</time></trkpt><trkpt lat="46.007131925759644" lon="12.102663554961373"><ele>947.0</ele><time>2026-05-03T09:32:08.999Z</time></trkpt><trkpt lat="46.007126356674085" lon="12.102774482792679"><ele>945.5000000000001</ele><time>2026-05-03T09:32:09.999Z</time></trkpt><trkpt lat="46.007117181451356" lon="12.102886942957348"><ele>944.0</ele><time>2026-05-03T09:32:10.999Z</time></trkpt><trkpt lat="46.007093032440245" lon="12.102991545657915"><ele>944.0000000000001</ele><time>2026-05-03T09:32:11.999Z</time></trkpt><trkpt lat="46.007078900512205" lon="12.103100721524884"><ele>944.0</ele><time>2026-05-03T09:32:12.999Z</time></trkpt><trkpt lat="46.00705777522293" lon="12.103195604766167"><ele>944.0</ele><time>2026-05-03T09:32:13.999Z</time></trkpt><trkpt lat="46.007031652522556" lon="12.10329858315301"><ele>944.0</ele><time>2026-05-03T09:32:14.999Z</time></trkpt><trkpt lat="46.006999514384724" lon="12.103399172975012"><ele>944.0000000000001</ele><time>2026-05-03T09:32:15.999Z</time></trkpt><trkpt lat="46.00695136158361" lon="12.103525632617512"><ele>944.0</ele><time>2026-05-03T09:32:16.999Z</time></trkpt><trkpt lat="46.00689387741323" lon="12.103644431100683"><ele>944.0</ele><time>2026-05-03T09:32:17.999Z</time></trkpt><trkpt lat="46.00683359131601" lon="12.103752982815315"><ele>944.0000000000001</ele><time>2026-05-03T09:32:18.999Z</time></trkpt><trkpt lat="46.006761804246636" lon="12.103876377484678"><ele>944.0000000000001</ele><time>2026-05-03T09:32:19.999Z</time></trkpt><trkpt lat="46.00668813796909" lon="12.104012221962275"><ele>944.0</ele><time>2026-05-03T09:32:20.999Z</time></trkpt><trkpt lat="46.00662137676628" lon="12.10414807810923"><ele>944.0</ele><time>2026-05-03T09:32:21.999Z</time></trkpt><trkpt lat="46.00655894517938" lon="12.104278503055411"><ele>944.0</ele><time>2026-05-03T09:32:22.999Z</time></trkpt><trkpt lat="46.00649842192927" lon="12.104404941294423"><ele>944.0000000000001</ele><time>2026-05-03T09:32:23.999Z</time></trkpt><trkpt lat="46.00643859695487" lon="12.104527006395019"><ele>944.0000000000001</ele><time>2026-05-03T09:32:24.999Z</time></trkpt><trkpt lat="46.00638220195349" lon="12.104625923799086"><ele>944.0</ele><time>2026-05-03T09:32:25.999Z</time></trkpt><trkpt lat="46.00632557548597" lon="12.104699396853935"><ele>944.0</ele><time>2026-05-03T09:32:26.999Z</time></trkpt><trkpt lat="46.006260764794895" lon="12.104777321330795"><ele>944.0</ele><time>2026-05-03T09:32:27.999Z</time></trkpt><trkpt lat="46.006194633609354" lon="12.104838342642743"><ele>944.0000000000001</ele><time>2026-05-03T09:32:28.999Z</time></trkpt><trkpt lat="46.00611316861267" lon="12.10490292540915"><ele>944.0000000000001</ele><time>2026-05-03T09:32:29.999Z</time></trkpt><trkpt lat="46.00602748695752" lon="12.10495944370764"><ele>944.0</ele><time>2026-05-03T09:32:30.999Z</time></trkpt><trkpt lat="46.00593913850782" lon="12.105012841920281"><ele>944.0</ele><time>2026-05-03T09:32:31.998Z</time></trkpt><trkpt lat="46.00585399293688" lon="12.105062420365043"><ele>944.6</ele><time>2026-05-03T09:32:32.998Z</time></trkpt><trkpt lat="46.0057637903683" lon="12.105114134155004"><ele>945.2</ele><time>2026-05-03T09:32:33.998Z</time></trkpt><trkpt lat="46.005667935388274" lon="12.105168313055191"><ele>945.8000000000001</ele><time>2026-05-03T09:32:34.998Z</time></trkpt><trkpt lat="46.00557533625606" lon="12.105214907986634"><ele>946.4000000000001</ele><time>2026-05-03T09:32:35.998Z</time></trkpt><trkpt lat="46.00548460010989" lon="12.10526002514612"><ele>947.0</ele><time>2026-05-03T09:32:36.998Z</time></trkpt><trkpt lat="46.005396513247085" lon="12.10530801063337"><ele>947.0000000000001</ele><time>2026-05-03T09:32:37.998Z</time></trkpt><trkpt lat="46.005312230145066" lon="12.105366877251377"><ele>947.0</ele><time>2026-05-03T09:32:38.998Z</time></trkpt><trkpt lat="46.00523831396587" lon="12.105439548555472"><ele>947.0</ele><time>2026-05-03T09:32:39.998Z</time></trkpt><trkpt lat="46.00518107602008" lon="12.10553495171785"><ele>947.0</ele><time>2026-05-03T09:32:40.998Z</time></trkpt><trkpt lat="46.005127575477836" lon="12.105611050971664"><ele>947.0000000000001</ele><time>2026-05-03T09:32:41.998Z</time></trkpt><trkpt lat="46.00505900239713" lon="12.105682676431167"><ele>947.0</ele><time>2026-05-03T09:32:42.998Z</time></trkpt><trkpt lat="46.004991728569195" lon="12.105768862792045"><ele>945.3333333333334</ele><time>2026-05-03T09:32:43.998Z</time></trkpt><trkpt lat="46.004919173925074" lon="12.10586392598444"><ele>943.6666666666667</ele><time>2026-05-03T09:32:45Z</time></trkpt><trkpt lat="46.004861780477064" lon="12.105977868813158"><ele>942.0</ele><time>2026-05-03T09:32:46Z</time></trkpt><trkpt lat="46.004795179276" lon="12.10607015533863"><ele>940.3333333333333</ele><time>2026-05-03T09:32:47Z</time></trkpt><trkpt lat="46.004736866569765" lon="12.10616076401936"><ele>938.6666666666666</ele><time>2026-05-03T09:32:48Z</time></trkpt><trkpt lat="46.004679225215355" lon="12.106212194030444"><ele>937.0</ele><time>2026-05-03T09:32:49Z</time></trkpt><trkpt lat="46.00458340544943" lon="12.10628657374949"><ele>936.9999999999999</ele><time>2026-05-03T09:32:51Z</time></trkpt><trkpt lat="46.004519692342264" lon="12.106308037366235"><ele>937.0</ele><time>2026-05-03T09:32:52Z</time></trkpt><trkpt lat="46.004452881696764" lon="12.10630053248289"><ele>937.0</ele><time>2026-05-03T09:32:53Z</time></trkpt><trkpt lat="46.004363380710686" lon="12.106287614439804"><ele>937.0</ele><time>2026-05-03T09:32:54Z</time></trkpt><trkpt lat="46.004260822905955" lon="12.106287039059522"><ele>936.9999999999999</ele><time>2026-05-03T09:32:55Z</time></trkpt><trkpt lat="46.00416504717322" lon="12.106302108394999"><ele>937.0</ele><time>2026-05-03T09:32:56Z</time></trkpt><trkpt lat="46.0040832301755" lon="12.106354059073388"><ele>935.0</ele><time>2026-05-03T09:32:57Z</time></trkpt><trkpt lat="46.00401637673471" lon="12.106395259498784"><ele>933.0</ele><time>2026-05-03T09:32:58Z</time></trkpt><trkpt lat="46.00396011795344" lon="12.10645328029696"><ele>931.0</ele><time>2026-05-03T09:32:59Z</time></trkpt><trkpt lat="46.00388014528749" lon="12.106578200595639"><ele>929.0</ele><time>2026-05-03T09:33:01Z</time></trkpt><trkpt lat="46.00381740582316" lon="12.106698355449618"><ele>927.0</ele><time>2026-05-03T09:33:03Z</time></trkpt><trkpt lat="46.0037093061318" lon="12.106763025883545"><ele>927.0</ele><time>2026-05-03T09:33:05Z</time></trkpt><trkpt lat="46.00364710274323" lon="12.106802150509074"><ele>927.0</ele><time>2026-05-03T09:33:06Z</time></trkpt><trkpt lat="46.0035815635244" lon="12.106837905716413"><ele>927.0</ele><time>2026-05-03T09:33:07Z</time></trkpt><trkpt lat="46.003504450345915" lon="12.106872462609232"><ele>927.0</ele><time>2026-05-03T09:33:08Z</time></trkpt><trkpt lat="46.00342517897664" lon="12.10690034765695"><ele>927.0</ele><time>2026-05-03T09:33:09Z</time></trkpt><trkpt lat="46.00334298090531" lon="12.106953827663833"><ele>927.0</ele><time>2026-05-03T09:33:10Z</time></trkpt><trkpt lat="46.003252520925216" lon="12.106988749897697"><ele>927.3333333333334</ele><time>2026-05-03T09:33:11Z</time></trkpt><trkpt lat="46.003161123277884" lon="12.107020971730963"><ele>927.6666666666667</ele><time>2026-05-03T09:33:12Z</time></trkpt><trkpt lat="46.00308658348958" lon="12.107083295596471"><ele>928.0</ele><time>2026-05-03T09:33:13Z</time></trkpt><trkpt lat="46.00305018401713" lon="12.10717252445175"><ele>928.3333333333334</ele><time>2026-05-03T09:33:14Z</time></trkpt><trkpt lat="46.003018708919406" lon="12.107259081051573"><ele>928.6666666666667</ele><time>2026-05-03T09:33:15Z</time></trkpt><trkpt lat="46.00298397983751" lon="12.107367685966949"><ele>929.0</ele><time>2026-05-03T09:33:16Z</time></trkpt><trkpt lat="46.00295359142691" lon="12.107453384534702"><ele>929.0</ele><time>2026-05-03T09:33:17Z</time></trkpt><trkpt lat="46.00292542888639" lon="12.107611637792957"><ele>929.0000000000001</ele><time>2026-05-03T09:33:19Z</time></trkpt><trkpt lat="46.00294732397602" lon="12.107757684038047"><ele>929.0000000000001</ele><time>2026-05-03T09:33:21Z</time></trkpt><trkpt lat="46.002974719334254" lon="12.107889697766495"><ele>929.0</ele><time>2026-05-03T09:33:23Z</time></trkpt><trkpt lat="46.00302101510266" lon="12.108005426486253"><ele>929.0</ele><time>2026-05-03T09:33:25Z</time></trkpt><trkpt lat="46.003106715852304" lon="12.108086059210988"><ele>929.0000000000001</ele><time>2026-05-03T09:33:27Z</time></trkpt><trkpt lat="46.00321798998595" lon="12.108116615584073"><ele>929.0</ele><time>2026-05-03T09:33:29Z</time></trkpt><trkpt lat="46.00330727133607" lon="12.10814436448744"><ele>929.0</ele><time>2026-05-03T09:33:31Z</time></trkpt><trkpt lat="46.003229830464775" lon="12.108225311310061"><ele>929.0</ele><time>2026-05-03T09:33:40.998Z</time></trkpt><trkpt lat="46.003166540374124" lon="12.108281616153846"><ele>929.0000000000001</ele><time>2026-05-03T09:33:41.998Z</time></trkpt><trkpt lat="46.00312127229149" lon="12.108358989004234"><ele>929.0</ele><time>2026-05-03T09:33:42.998Z</time></trkpt><trkpt lat="46.0030600613101" lon="12.108428947824962"><ele>928.6</ele><time>2026-05-03T09:33:43.998Z</time></trkpt><trkpt lat="46.0030025090694" lon="12.108525133930542"><ele>928.2</ele><time>2026-05-03T09:33:44.998Z</time></trkpt><trkpt lat="46.002954182702794" lon="12.108643275451653"><ele>927.8000000000001</ele><time>2026-05-03T09:33:45.998Z</time></trkpt><trkpt lat="46.0029079695675" lon="12.108774652492567"><ele>927.4000000000001</ele><time>2026-05-03T09:33:46.998Z</time></trkpt><trkpt lat="46.00286749041413" lon="12.108892049713583"><ele>927.0</ele><time>2026-05-03T09:33:47.998Z</time></trkpt><trkpt lat="46.00283631068631" lon="12.10900303223137"><ele>926.8333333333334</ele><time>2026-05-03T09:33:48.998Z</time></trkpt><trkpt lat="46.00281350874733" lon="12.109092086564475"><ele>926.6666666666667</ele><time>2026-05-03T09:33:49.998Z</time></trkpt><trkpt lat="46.00273346674507" lon="12.10921030989066"><ele>926.5</ele><time>2026-05-03T09:33:51.998Z</time></trkpt><trkpt lat="46.00268575885326" lon="12.1092901287519"><ele>926.3333333333334</ele><time>2026-05-03T09:33:52.998Z</time></trkpt><trkpt lat="46.002640598574104" lon="12.109391382237746"><ele>926.1666666666667</ele><time>2026-05-03T09:33:53.998Z</time></trkpt><trkpt lat="46.00257811586567" lon="12.109481361062864"><ele>926.0</ele><time>2026-05-03T09:33:54.998Z</time></trkpt><trkpt lat="46.00251887910358" lon="12.109576712478948"><ele>927.8</ele><time>2026-05-03T09:33:55.998Z</time></trkpt><trkpt lat="46.002458589026226" lon="12.109669382887922"><ele>929.5999999999999</ele><time>2026-05-03T09:33:56.998Z</time></trkpt><trkpt lat="46.00239245974799" lon="12.109767341412757"><ele>931.4</ele><time>2026-05-03T09:33:57.998Z</time></trkpt><trkpt lat="46.00232922496129" lon="12.109875717539227"><ele>933.2</ele><time>2026-05-03T09:33:58.998Z</time></trkpt><trkpt lat="46.00227276443831" lon="12.109981222208589"><ele>935.0</ele><time>2026-05-03T09:33:59.998Z</time></trkpt><trkpt lat="46.002223119786436" lon="12.11009791906527"><ele>935.0</ele><time>2026-05-03T09:34:00.998Z</time></trkpt><trkpt lat="46.00215883410175" lon="12.110217586961928"><ele>935.0</ele><time>2026-05-03T09:34:01.998Z</time></trkpt><trkpt lat="46.00211339691896" lon="12.11035288582886"><ele>935.0</ele><time>2026-05-03T09:34:02.998Z</time></trkpt><trkpt lat="46.00206688467492" lon="12.110492670642206"><ele>935.0</ele><time>2026-05-03T09:34:03.998Z</time></trkpt><trkpt lat="46.00201388344848" lon="12.110635304660843"><ele>935.0</ele><time>2026-05-03T09:34:04.998Z</time></trkpt><trkpt lat="46.00196695034917" lon="12.110781158623599"><ele>934.2</ele><time>2026-05-03T09:34:05.998Z</time></trkpt><trkpt lat="46.001902286610665" lon="12.110900566680384"><ele>933.4</ele><time>2026-05-03T09:34:06.998Z</time></trkpt><trkpt lat="46.00184048430653" lon="12.111010354446854"><ele>932.5999999999999</ele><time>2026-05-03T09:34:07.998Z</time></trkpt><trkpt lat="46.001769206017016" lon="12.111129206855718"><ele>931.8</ele><time>2026-05-03T09:34:08.998Z</time></trkpt><trkpt lat="46.001698330593165" lon="12.111257903327253"><ele>931.0</ele><time>2026-05-03T09:34:09.998Z</time></trkpt><trkpt lat="46.001629897894716" lon="12.11136920901476"><ele>931.0</ele><time>2026-05-03T09:34:10.998Z</time></trkpt><trkpt lat="46.00155035489298" lon="12.111450581821574"><ele>930.9999999999999</ele><time>2026-05-03T09:34:11.998Z</time></trkpt><trkpt lat="46.00148386410936" lon="12.111537499901283"><ele>930.9999999999999</ele><time>2026-05-03T09:34:12.998Z</time></trkpt><trkpt lat="46.001416978280446" lon="12.111616809384754"><ele>931.0</ele><time>2026-05-03T09:34:13.998Z</time></trkpt><trkpt lat="46.001356258468626" lon="12.111710375722163"><ele>931.0</ele><time>2026-05-03T09:34:14.998Z</time></trkpt><trkpt lat="46.00127454101158" lon="12.111757385024033"><ele>928.8333333333333</ele><time>2026-05-03T09:34:15.998Z</time></trkpt><trkpt lat="46.0012068116012" lon="12.111814055799838"><ele>926.6666666666666</ele><time>2026-05-03T09:34:16.998Z</time></trkpt><trkpt lat="46.001138832638986" lon="12.111860022710495"><ele>924.5</ele><time>2026-05-03T09:34:17.998Z</time></trkpt><trkpt lat="46.001058310890635" lon="12.111902378811559"><ele>922.3333333333333</ele><time>2026-05-03T09:34:18.998Z</time></trkpt><trkpt lat="46.00096675934033" lon="12.111930267953463"><ele>920.1666666666666</ele><time>2026-05-03T09:34:19.998Z</time></trkpt><trkpt lat="46.00086023136116" lon="12.111954855907243"><ele>918.0</ele><time>2026-05-03T09:34:20.998Z</time></trkpt><trkpt lat="46.00074846856775" lon="12.111977121741045"><ele>918.0</ele><time>2026-05-03T09:34:21.998Z</time></trkpt><trkpt lat="46.00063927550718" lon="12.11199041854803"><ele>918.0</ele><time>2026-05-03T09:34:22.998Z</time></trkpt><trkpt lat="46.000528864343295" lon="12.112016080399231"><ele>918.0</ele><time>2026-05-03T09:34:23.998Z</time></trkpt><trkpt lat="46.00042751764753" lon="12.1120656736449"><ele>918.0</ele><time>2026-05-03T09:34:24.998Z</time></trkpt><trkpt lat="46.000325618378156" lon="12.112127693418032"><ele>918.0</ele><time>2026-05-03T09:34:25.998Z</time></trkpt><trkpt lat="46.00022920947622" lon="12.112202945634966"><ele>918.0</ele><time>2026-05-03T09:34:26.998Z</time></trkpt><trkpt lat="46.00013176775657" lon="12.11226352866729"><ele>918.0</ele><time>2026-05-03T09:34:27.998Z</time></trkpt><trkpt lat="46.00003432644979" lon="12.112335877511436"><ele>918.0</ele><time>2026-05-03T09:34:28.998Z</time></trkpt><trkpt lat="45.999944192554636" lon="12.11241636836134"><ele>918.0</ele><time>2026-05-03T09:34:29.998Z</time></trkpt><trkpt lat="45.999864707514995" lon="12.112532372769245"><ele>918.0</ele><time>2026-05-03T09:34:30.998Z</time></trkpt><trkpt lat="45.9997894515756" lon="12.11264156255003"><ele>914.5999999999999</ele><time>2026-05-03T09:34:31.998Z</time></trkpt><trkpt lat="45.99971591901558" lon="12.112739415530141"><ele>911.1999999999999</ele><time>2026-05-03T09:34:32.998Z</time></trkpt><trkpt lat="45.99963414097429" lon="12.112810670598002"><ele>907.8</ele><time>2026-05-03T09:34:33.998Z</time></trkpt><trkpt lat="45.99956215087721" lon="12.112863939111108"><ele>904.4</ele><time>2026-05-03T09:34:34.998Z</time></trkpt><trkpt lat="45.99947893495831" lon="12.11288369669507"><ele>901.0</ele><time>2026-05-03T09:34:35.998Z</time></trkpt><trkpt lat="45.999359460590924" lon="12.112916005169772"><ele>901.0</ele><time>2026-05-03T09:34:36.998Z</time></trkpt><trkpt lat="45.99926411752239" lon="12.112980482882442"><ele>900.9999999999999</ele><time>2026-05-03T09:34:37.998Z</time></trkpt><trkpt lat="45.99917537204663" lon="12.113070517758654"><ele>900.9999999999999</ele><time>2026-05-03T09:34:38.998Z</time></trkpt><trkpt lat="45.999104171294285" lon="12.113198217985966"><ele>901.0</ele><time>2026-05-03T09:34:39.998Z</time></trkpt><trkpt lat="45.999026865517465" lon="12.113313221290165"><ele>901.0</ele><time>2026-05-03T09:34:40.998Z</time></trkpt><trkpt lat="45.99894657560927" lon="12.113425696757549"><ele>899.5</ele><time>2026-05-03T09:34:41.998Z</time></trkpt><trkpt lat="45.99884120135511" lon="12.113494127856377"><ele>898.0</ele><time>2026-05-03T09:34:42.998Z</time></trkpt><trkpt lat="45.99872972644748" lon="12.113551099843814"><ele>896.5</ele><time>2026-05-03T09:34:43.998Z</time></trkpt><trkpt lat="45.99860904792122" lon="12.113604258388788"><ele>895.0</ele><time>2026-05-03T09:34:44.998Z</time></trkpt><trkpt lat="45.998486921947304" lon="12.113668205830063"><ele>895.0</ele><time>2026-05-03T09:34:45.998Z</time></trkpt><trkpt lat="45.99837702560329" lon="12.11374099633068"><ele>895.0</ele><time>2026-05-03T09:34:46.998Z</time></trkpt><trkpt lat="45.998288015914234" lon="12.113831951427922"><ele>895.0</ele><time>2026-05-03T09:34:47.998Z</time></trkpt><trkpt lat="45.99821030621145" lon="12.113903449900675"><ele>895.0</ele><time>2026-05-03T09:34:48.997Z</time></trkpt><trkpt lat="45.998128629776765" lon="12.113960605688039"><ele>895.0</ele><time>2026-05-03T09:34:49.997Z</time></trkpt><trkpt lat="45.99804833126355" lon="12.11400910955734"><ele>895.6666666666666</ele><time>2026-05-03T09:34:50.999Z</time></trkpt><trkpt lat="45.997980435483306" lon="12.11401216281351"><ele>896.3333333333333</ele><time>2026-05-03T09:34:51.999Z</time></trkpt><trkpt lat="45.99791111635073" lon="12.114021667076157"><ele>897.0</ele><time>2026-05-03T09:34:52.999Z</time></trkpt><trkpt lat="45.99782557510341" lon="12.114044312521807"><ele>897.6666666666667</ele><time>2026-05-03T09:34:53.999Z</time></trkpt><trkpt lat="45.99774013309424" lon="12.114071220702083"><ele>898.3333333333334</ele><time>2026-05-03T09:34:54.999Z</time></trkpt><trkpt lat="45.99766450529525" lon="12.114103863359558"><ele>899.0</ele><time>2026-05-03T09:34:55.999Z</time></trkpt><trkpt lat="45.99755351198988" lon="12.114171122710076"><ele>894.75</ele><time>2026-05-03T09:34:56.999Z</time></trkpt><trkpt lat="45.99745880679865" lon="12.114231626968126"><ele>890.5</ele><time>2026-05-03T09:34:57.999Z</time></trkpt><trkpt lat="45.997355625667275" lon="12.114274407703533"><ele>886.25</ele><time>2026-05-03T09:34:58.999Z</time></trkpt><trkpt lat="45.99723318332114" lon="12.114311105991174"><ele>882.0</ele><time>2026-05-03T09:34:59.999Z</time></trkpt><trkpt lat="45.997111633375084" lon="12.114346515445753"><ele>882.0</ele><time>2026-05-03T09:35:00.999Z</time></trkpt><trkpt lat="45.996985561507245" lon="12.114383242399477"><ele>882.0</ele><time>2026-05-03T09:35:01.999Z</time></trkpt><trkpt lat="45.99687269633651" lon="12.114416122008423"><ele>882.0</ele><time>2026-05-03T09:35:02.999Z</time></trkpt><trkpt lat="45.99676893496168" lon="12.114484974948057"><ele>882.0</ele><time>2026-05-03T09:35:03.999Z</time></trkpt><trkpt lat="45.99665204065284" lon="12.114548146776146"><ele>882.2</ele><time>2026-05-03T09:35:04.999Z</time></trkpt><trkpt lat="45.996543327005064" lon="12.114631209209268"><ele>882.4000000000001</ele><time>2026-05-03T09:35:05.999Z</time></trkpt><trkpt lat="45.99644224655385" lon="12.114714486921823"><ele>882.5999999999999</ele><time>2026-05-03T09:35:06.999Z</time></trkpt><trkpt lat="45.99635840643097" lon="12.114789210074251"><ele>882.8</ele><time>2026-05-03T09:35:07.999Z</time></trkpt><trkpt lat="45.99628673528586" lon="12.11486856958472"><ele>883.0</ele><time>2026-05-03T09:35:08.999Z</time></trkpt><trkpt lat="45.996234335448804" lon="12.114930514075914"><ele>878.4</ele><time>2026-05-03T09:35:09.999Z</time></trkpt><trkpt lat="45.996176209487544" lon="12.115039326924762"><ele>873.8</ele><time>2026-05-03T09:35:11.999Z</time></trkpt><trkpt lat="45.99626124630413" lon="12.11512833724386"><ele>869.2</ele><time>2026-05-03T09:35:13.999Z</time></trkpt><trkpt lat="45.99633743619084" lon="12.11510870697264"><ele>864.6</ele><time>2026-05-03T09:35:14.999Z</time></trkpt><trkpt lat="45.99643762097202" lon="12.115064022212804"><ele>860.0</ele><time>2026-05-03T09:35:15.999Z</time></trkpt><trkpt lat="45.99653143975609" lon="12.115047640067823"><ele>860.0</ele><time>2026-05-03T09:35:16.999Z</time></trkpt><trkpt lat="45.996627430498876" lon="12.11507007661034"><ele>860.0</ele><time>2026-05-03T09:35:17.999Z</time></trkpt><trkpt lat="45.99672589463692" lon="12.115117105133484"><ele>860.0</ele><time>2026-05-03T09:35:18.999Z</time></trkpt><trkpt lat="45.996812846131995" lon="12.115181425217482"><ele>860.0</ele><time>2026-05-03T09:35:19.999Z</time></trkpt><trkpt lat="45.99690033679007" lon="12.115259022808877"><ele>860.0</ele><time>2026-05-03T09:35:20.999Z</time></trkpt><trkpt lat="45.99697787066049" lon="12.115319917819393"><ele>861.1666666666667</ele><time>2026-05-03T09:35:21.999Z</time></trkpt><trkpt lat="45.997051744259096" lon="12.11536399739915"><ele>862.3333333333334</ele><time>2026-05-03T09:35:22.999Z</time></trkpt><trkpt lat="45.99711228813275" lon="12.11546209584233"><ele>863.5</ele><time>2026-05-03T09:35:24.999Z</time></trkpt><trkpt lat="45.99707236346725" lon="12.115581344070758"><ele>864.6666666666667</ele><time>2026-05-03T09:35:26.999Z</time></trkpt><trkpt lat="45.99700925101601" lon="12.115639406821321"><ele>865.8333333333334</ele><time>2026-05-03T09:35:27.999Z</time></trkpt><trkpt lat="45.99693498691049" lon="12.115691017899096"><ele>867.0</ele><time>2026-05-03T09:35:28.999Z</time></trkpt><trkpt lat="45.99684817418346" lon="12.115743599925722"><ele>867.6666666666666</ele><time>2026-05-03T09:35:29.999Z</time></trkpt><trkpt lat="45.996786315226224" lon="12.115810235487379"><ele>868.3333333333333</ele><time>2026-05-03T09:35:30.999Z</time></trkpt><trkpt lat="45.99671893393756" lon="12.11595435325989"><ele>869.0</ele><time>2026-05-03T09:35:32.999Z</time></trkpt><trkpt lat="45.99671979197616" lon="12.116051789000142"><ele>869.6666666666666</ele><time>2026-05-03T09:35:33.999Z</time></trkpt><trkpt lat="45.99672123485582" lon="12.116164983747582"><ele>870.3333333333333</ele><time>2026-05-03T09:35:34.999Z</time></trkpt><trkpt lat="45.99668703892892" lon="12.116273289072597"><ele>871.0</ele><time>2026-05-03T09:35:35.999Z</time></trkpt><trkpt lat="45.99663458246508" lon="12.116389128140137"><ele>866.5999999999999</ele><time>2026-05-03T09:35:36.999Z</time></trkpt><trkpt lat="45.996573783172096" lon="12.116511025501692"><ele>862.1999999999999</ele><time>2026-05-03T09:35:37.999Z</time></trkpt><trkpt lat="45.99651296075171" lon="12.116627042529661"><ele>857.8</ele><time>2026-05-03T09:35:38.999Z</time></trkpt><trkpt lat="45.99645938712015" lon="12.116754893988363"><ele>853.4000000000001</ele><time>2026-05-03T09:35:39.999Z</time></trkpt><trkpt lat="45.99640751364353" lon="12.116889166328761"><ele>849.0</ele><time>2026-05-03T09:35:40.999Z</time></trkpt><trkpt lat="45.99635790961761" lon="12.117031881119708"><ele>849.0</ele><time>2026-05-03T09:35:41.999Z</time></trkpt><trkpt lat="45.996317991244624" lon="12.117186476100343"><ele>849.0</ele><time>2026-05-03T09:35:42.999Z</time></trkpt><trkpt lat="45.996272294467204" lon="12.117350865436464"><ele>849.0</ele><time>2026-05-03T09:35:43.999Z</time></trkpt><trkpt lat="45.99621984898726" lon="12.117507279935955"><ele>849.0</ele><time>2026-05-03T09:35:44.999Z</time></trkpt><trkpt lat="45.9961631248162" lon="12.117657189412448"><ele>853.8000000000001</ele><time>2026-05-03T09:35:45.999Z</time></trkpt><trkpt lat="45.99610234728609" lon="12.117790554480623"><ele>858.6</ele><time>2026-05-03T09:35:46.999Z</time></trkpt><trkpt lat="45.99605469009887" lon="12.117920596718525"><ele>863.4</ele><time>2026-05-03T09:35:47.999Z</time></trkpt><trkpt lat="45.996020250088904" lon="12.118078537746781"><ele>868.2</ele><time>2026-05-03T09:35:48.999Z</time></trkpt><trkpt lat="45.996008203557125" lon="12.118241026905265"><ele>873.0</ele><time>2026-05-03T09:35:49.999Z</time></trkpt><trkpt lat="45.9960051422472" lon="12.118385752546848"><ele>875.0</ele><time>2026-05-03T09:35:50.998Z</time></trkpt><trkpt lat="45.99601801535302" lon="12.118519312010811"><ele>877.0</ele><time>2026-05-03T09:35:51.998Z</time></trkpt><trkpt lat="45.996047885381834" lon="12.11863639633646"><ele>879.0</ele><time>2026-05-03T09:35:52.998Z</time></trkpt><trkpt lat="45.99608298660477" lon="12.118745594628447"><ele>881.0</ele><time>2026-05-03T09:35:53.998Z</time></trkpt><trkpt lat="45.99613146257779" lon="12.118826139783707"><ele>883.0</ele><time>2026-05-03T09:35:54.998Z</time></trkpt><trkpt lat="45.996165629862034" lon="12.11897440899983"><ele>885.0</ele><time>2026-05-03T09:35:56.998Z</time></trkpt><trkpt lat="45.99611999192123" lon="12.11903924989928"><ele>885.0</ele><time>2026-05-03T09:35:57.998Z</time></trkpt><trkpt lat="45.99604536640418" lon="12.119055273204504"><ele>885.0</ele><time>2026-05-03T09:35:58.998Z</time></trkpt><trkpt lat="45.99596085015505" lon="12.119014313208549"><ele>885.0</ele><time>2026-05-03T09:35:59.998Z</time></trkpt><trkpt lat="45.99584616298144" lon="12.118987863397226"><ele>885.0</ele><time>2026-05-03T09:36:00.998Z</time></trkpt><trkpt lat="45.99572709513813" lon="12.118984586113482"><ele>885.0</ele><time>2026-05-03T09:36:01.998Z</time></trkpt><trkpt lat="45.99558983910135" lon="12.11899344666312"><ele>877.6</ele><time>2026-05-03T09:36:02.998Z</time></trkpt><trkpt lat="45.99548235058516" lon="12.119011739931981"><ele>870.2</ele><time>2026-05-03T09:36:03.998Z</time></trkpt><trkpt lat="45.99537317886049" lon="12.119012091860977"><ele>862.8</ele><time>2026-05-03T09:36:04.998Z</time></trkpt><trkpt lat="45.99527908745637" lon="12.119015441483171"><ele>855.4</ele><time>2026-05-03T09:36:05.998Z</time></trkpt><trkpt lat="45.99519649732035" lon="12.119028817343896"><ele>848.0</ele><time>2026-05-03T09:36:06.998Z</time></trkpt><trkpt lat="45.99508710104772" lon="12.119143699842978"><ele>848.0000000000001</ele><time>2026-05-03T09:36:08.998Z</time></trkpt><trkpt lat="45.99511517238748" lon="12.119242742685854"><ele>848.0</ele><time>2026-05-03T09:36:12.998Z</time></trkpt><trkpt lat="45.99514101460515" lon="12.119387419964124"><ele>848.0</ele><time>2026-05-03T09:36:14.998Z</time></trkpt><trkpt lat="45.9951876195149" lon="12.119468791559244"><ele>848.0</ele><time>2026-05-03T09:36:15.998Z</time></trkpt><trkpt lat="45.99524936240373" lon="12.11954671483782"><ele>848.0000000000001</ele><time>2026-05-03T09:36:16.998Z</time></trkpt><trkpt lat="45.995303399912316" lon="12.1196534109471"><ele>848.0</ele><time>2026-05-03T09:36:17.998Z</time></trkpt><trkpt lat="45.99535559279642" lon="12.11976468202898"><ele>848.0000000000001</ele><time>2026-05-03T09:36:18.998Z</time></trkpt><trkpt lat="45.99540361894296" lon="12.119878564520985"><ele>848.0</ele><time>2026-05-03T09:36:19.998Z</time></trkpt><trkpt lat="45.99544151617183" lon="12.120003104424883"><ele>848.0</ele><time>2026-05-03T09:36:20.998Z</time></trkpt><trkpt lat="45.995456503911406" lon="12.12012274825272"><ele>848.0</ele><time>2026-05-03T09:36:21.998Z</time></trkpt><trkpt lat="45.995467145361054" lon="12.12024679309861"><ele>848.0000000000001</ele><time>2026-05-03T09:36:22.998Z</time></trkpt><trkpt lat="45.9955130564184" lon="12.120356054074902"><ele>848.0</ele><time>2026-05-03T09:36:23.998Z</time></trkpt><trkpt lat="45.99554417058308" lon="12.120478678185803"><ele>848.0000000000001</ele><time>2026-05-03T09:36:24.998Z</time></trkpt><trkpt lat="45.99555343208129" lon="12.120594805912592"><ele>848.0</ele><time>2026-05-03T09:36:25.998Z</time></trkpt><trkpt lat="45.995592759108824" lon="12.12067007838102"><ele>848.0</ele><time>2026-05-03T09:36:26.998Z</time></trkpt><trkpt lat="45.99565730330867" lon="12.120703300074394"><ele>848.0</ele><time>2026-05-03T09:36:27.998Z</time></trkpt><trkpt lat="45.99571629046277" lon="12.120760561328906"><ele>848.0000000000001</ele><time>2026-05-03T09:36:28.998Z</time></trkpt><trkpt lat="45.99575900773673" lon="12.120851013264431"><ele>848.0</ele><time>2026-05-03T09:36:29.998Z</time></trkpt><trkpt lat="45.99578601097815" lon="12.120986997969524"><ele>865.5999999999999</ele><time>2026-05-03T09:36:30.998Z</time></trkpt><trkpt lat="45.99581635639195" lon="12.121138702055598"><ele>883.1999999999999</ele><time>2026-05-03T09:36:31.998Z</time></trkpt><trkpt lat="45.99585156932301" lon="12.121285391094048"><ele>900.8</ele><time>2026-05-03T09:36:32.998Z</time></trkpt><trkpt lat="45.995885413654676" lon="12.121419645462224"><ele>918.4</ele><time>2026-05-03T09:36:33.998Z</time></trkpt><trkpt lat="45.99591686920522" lon="12.121548780307702"><ele>936.0</ele><time>2026-05-03T09:36:34.998Z</time></trkpt><trkpt lat="45.99591269902151" lon="12.12165780588138"><ele>938.0</ele><time>2026-05-03T09:36:35.998Z</time></trkpt><trkpt lat="45.99590737589714" lon="12.121759635029147"><ele>939.9999999999999</ele><time>2026-05-03T09:36:36.998Z</time></trkpt><trkpt lat="45.99586468930847" lon="12.121856485658158"><ele>941.9999999999999</ele><time>2026-05-03T09:36:37.998Z</time></trkpt><trkpt lat="45.99592215585701" lon="12.12201256835896"><ele>944.0</ele><time>2026-05-03T09:36:39.998Z</time></trkpt><trkpt lat="45.99598903776286" lon="12.12209331719074"><ele>946.0</ele><time>2026-05-03T09:36:40.998Z</time></trkpt><trkpt lat="45.99605309829555" lon="12.122193395312166"><ele>946.0</ele><time>2026-05-03T09:36:41.998Z</time></trkpt><trkpt lat="45.99610818989552" lon="12.122280582623974"><ele>945.9999999999999</ele><time>2026-05-03T09:36:42.998Z</time></trkpt><trkpt lat="45.99614827450768" lon="12.122359636422809"><ele>945.9999999999999</ele><time>2026-05-03T09:36:43.998Z</time></trkpt><trkpt lat="45.99610870040837" lon="12.122531405556131"><ele>946.0</ele><time>2026-05-03T09:36:45.998Z</time></trkpt><trkpt lat="45.996015849958376" lon="12.122615780686592"><ele>946.0</ele><time>2026-05-03T09:36:46.998Z</time></trkpt><trkpt lat="45.995931837233655" lon="12.12263416520495"><ele>932.0</ele><time>2026-05-03T09:36:47.998Z</time></trkpt><trkpt lat="45.995814171069064" lon="12.122630408006032"><ele>918.0</ele><time>2026-05-03T09:36:48.998Z</time></trkpt><trkpt lat="45.99569436119861" lon="12.122631021449772"><ele>904.0</ele><time>2026-05-03T09:36:49.998Z</time></trkpt><trkpt lat="45.99557997426684" lon="12.122633100429258"><ele>890.0</ele><time>2026-05-03T09:36:50.998Z</time></trkpt><trkpt lat="45.99548165280777" lon="12.122625265156652"><ele>890.0</ele><time>2026-05-03T09:36:51.998Z</time></trkpt><trkpt lat="45.995371195560246" lon="12.122633522217361"><ele>890.0</ele><time>2026-05-03T09:36:52.998Z</time></trkpt><trkpt lat="45.9952949016984" lon="12.12261001569234"><ele>890.0</ele><time>2026-05-03T09:36:53.998Z</time></trkpt><trkpt lat="45.99521597680342" lon="12.122739891243592"><ele>890.0</ele><time>2026-05-03T09:36:55.999Z</time></trkpt><trkpt lat="45.995110989423175" lon="12.122834925325469"><ele>890.0</ele><time>2026-05-03T09:36:56.999Z</time></trkpt><trkpt lat="45.995044016568585" lon="12.122825521256187"><ele>880.1666666666667</ele><time>2026-05-03T09:36:57.999Z</time></trkpt><trkpt lat="45.99494940126702" lon="12.122754085828136"><ele>870.3333333333334</ele><time>2026-05-03T09:36:58.999Z</time></trkpt><trkpt lat="45.994865615058785" lon="12.122686491229365"><ele>860.5</ele><time>2026-05-03T09:36:59.999Z</time></trkpt><trkpt lat="45.99477800583979" lon="12.122663733178506"><ele>850.6666666666667</ele><time>2026-05-03T09:37:00.999Z</time></trkpt><trkpt lat="45.99471036353364" lon="12.122676518701025"><ele>840.8333333333334</ele><time>2026-05-03T09:37:01.999Z</time></trkpt><trkpt lat="45.994656990458765" lon="12.122758326520072"><ele>831.0</ele><time>2026-05-03T09:37:02.999Z</time></trkpt><trkpt lat="45.99462836141522" lon="12.122868261915267"><ele>831.0</ele><time>2026-05-03T09:37:03.999Z</time></trkpt><trkpt lat="45.994597112116466" lon="12.122998769805305"><ele>831.0</ele><time>2026-05-03T09:37:04.999Z</time></trkpt><trkpt lat="45.99454296139676" lon="12.12311961160419"><ele>831.0</ele><time>2026-05-03T09:37:05.999Z</time></trkpt><trkpt lat="45.99446618432294" lon="12.123227882180643"><ele>831.0</ele><time>2026-05-03T09:37:06.999Z</time></trkpt><trkpt lat="45.99439495847438" lon="12.123347823157332"><ele>831.0</ele><time>2026-05-03T09:37:07.999Z</time></trkpt><trkpt lat="45.9943284574248" lon="12.123463967858152"><ele>828.8</ele><time>2026-05-03T09:37:08.999Z</time></trkpt><trkpt lat="45.9942576116427" lon="12.123566737608922"><ele>826.5999999999999</ele><time>2026-05-03T09:37:09.999Z</time></trkpt><trkpt lat="45.99418546974709" lon="12.123671170656163"><ele>824.4</ele><time>2026-05-03T09:37:10.999Z</time></trkpt><trkpt lat="45.99411565082877" lon="12.123774926024781"><ele>822.2</ele><time>2026-05-03T09:37:11.999Z</time></trkpt><trkpt lat="45.99406033099056" lon="12.123889626399789"><ele>820.0</ele><time>2026-05-03T09:37:12.999Z</time></trkpt><trkpt lat="45.99401222562666" lon="12.124002723921528"><ele>820.0</ele><time>2026-05-03T09:37:13.999Z</time></trkpt><trkpt lat="45.99396035161453" lon="12.124081587674812"><ele>820.0</ele><time>2026-05-03T09:37:14.999Z</time></trkpt><trkpt lat="45.993837216052" lon="12.124088240267692"><ele>820.0</ele><time>2026-05-03T09:37:16.999Z</time></trkpt><trkpt lat="45.9937699050862" lon="12.124040057380983"><ele>820.0</ele><time>2026-05-03T09:37:17.999Z</time></trkpt><trkpt lat="45.99370299352492" lon="12.124031648662733"><ele>820.0</ele><time>2026-05-03T09:37:18.999Z</time></trkpt><trkpt lat="45.99357930781051" lon="12.124021181429683"><ele>820.0</ele><time>2026-05-03T09:37:19.999Z</time></trkpt><trkpt lat="45.993453338088635" lon="12.123986654060497"><ele>820.0</ele><time>2026-05-03T09:37:20.999Z</time></trkpt><trkpt lat="45.99333731814712" lon="12.123967657799994"><ele>820.0</ele><time>2026-05-03T09:37:21.999Z</time></trkpt><trkpt lat="45.99322904785836" lon="12.123909236876793"><ele>820.0</ele><time>2026-05-03T09:37:22.999Z</time></trkpt><trkpt lat="45.99313097853266" lon="12.123840547118936"><ele>815.1666666666666</ele><time>2026-05-03T09:37:23.999Z</time></trkpt><trkpt lat="45.99305623899061" lon="12.1237630883369"><ele>810.3333333333333</ele><time>2026-05-03T09:37:24.999Z</time></trkpt><trkpt lat="45.99299168227255" lon="12.123707371914554"><ele>805.5</ele><time>2026-05-03T09:37:25.999Z</time></trkpt><trkpt lat="45.992896191230024" lon="12.123738107324462"><ele>800.6666666666667</ele><time>2026-05-03T09:37:27.999Z</time></trkpt><trkpt lat="45.99288373753745" lon="12.123841879343285"><ele>795.8333333333334</ele><time>2026-05-03T09:37:28.999Z</time></trkpt><trkpt lat="45.992903165485586" lon="12.123935939316594"><ele>791.0</ele><time>2026-05-03T09:37:29.999Z</time></trkpt><trkpt lat="45.992961030363915" lon="12.124006937804749"><ele>794.5000000000001</ele><time>2026-05-03T09:37:30.999Z</time></trkpt><trkpt lat="45.9930370165289" lon="12.124071783615262"><ele>798.0</ele><time>2026-05-03T09:37:31.999Z</time></trkpt><trkpt lat="45.993109607308206" lon="12.124139320903444"><ele>801.5</ele><time>2026-05-03T09:37:32.999Z</time></trkpt><trkpt lat="45.99316134769569" lon="12.124227373394945"><ele>805.0</ele><time>2026-05-03T09:37:33.999Z</time></trkpt><trkpt lat="45.993214907440844" lon="12.124307929850305"><ele>808.5000000000001</ele><time>2026-05-03T09:37:34.999Z</time></trkpt><trkpt lat="45.99327882451133" lon="12.124363356518078"><ele>812.0</ele><time>2026-05-03T09:37:35.999Z</time></trkpt><trkpt lat="45.99335665449688" lon="12.124416596976197"><ele>814.0</ele><time>2026-05-03T09:37:36.999Z</time></trkpt><trkpt lat="45.99344053826338" lon="12.124504317211404"><ele>816.0</ele><time>2026-05-03T09:37:37.999Z</time></trkpt><trkpt lat="45.99351736962886" lon="12.124625734282699"><ele>818.0</ele><time>2026-05-03T09:37:38.999Z</time></trkpt><trkpt lat="45.993599326190726" lon="12.124728509154044"><ele>820.0</ele><time>2026-05-03T09:37:39.999Z</time></trkpt><trkpt lat="45.99367685520864" lon="12.124814358804963"><ele>822.0</ele><time>2026-05-03T09:37:40.999Z</time></trkpt><trkpt lat="45.99374639977519" lon="12.124905300627907"><ele>822.0</ele><time>2026-05-03T09:37:41.999Z</time></trkpt><trkpt lat="45.993807695379644" lon="12.124996523614561"><ele>822.0</ele><time>2026-05-03T09:37:42.999Z</time></trkpt><trkpt lat="45.99387161796446" lon="12.125086358936452"><ele>822.0</ele><time>2026-05-03T09:37:43.999Z</time></trkpt><trkpt lat="45.993926455742745" lon="12.125181250055654"><ele>822.0</ele><time>2026-05-03T09:37:44.999Z</time></trkpt><trkpt lat="45.99397686130475" lon="12.125274099371627"><ele>822.0</ele><time>2026-05-03T09:37:45.999Z</time></trkpt><trkpt lat="45.994056819419654" lon="12.12532881395074"><ele>822.0</ele><time>2026-05-03T09:37:46.999Z</time></trkpt><trkpt lat="45.99414898370899" lon="12.125372578974313"><ele>829.2</ele><time>2026-05-03T09:37:47.999Z</time></trkpt><trkpt lat="45.99422836679039" lon="12.125445783201197"><ele>836.4000000000001</ele><time>2026-05-03T09:37:48.999Z</time></trkpt><trkpt lat="45.99430061230097" lon="12.125550307149467"><ele>843.5999999999999</ele><time>2026-05-03T09:37:49.999Z</time></trkpt><trkpt lat="45.994366989395104" lon="12.12565628816847"><ele>850.8</ele><time>2026-05-03T09:37:50.999Z</time></trkpt><trkpt lat="45.994418983248366" lon="12.125777514018338"><ele>858.0</ele><time>2026-05-03T09:37:51.999Z</time></trkpt><trkpt lat="45.99445509490367" lon="12.125928364799204"><ele>858.0</ele><time>2026-05-03T09:37:52.999Z</time></trkpt><trkpt lat="45.99446355227851" lon="12.126086175505067"><ele>858.0</ele><time>2026-05-03T09:37:53.999Z</time></trkpt><trkpt lat="45.99453346128423" lon="12.126187834137731"><ele>858.0</ele><time>2026-05-03T09:37:54.999Z</time></trkpt><trkpt lat="45.99456527790698" lon="12.126284165790176"><ele>858.0</ele><time>2026-05-03T09:37:55.999Z</time></trkpt><trkpt lat="45.99457700524776" lon="12.126380466207937"><ele>858.0</ele><time>2026-05-03T09:37:56.999Z</time></trkpt><trkpt lat="45.9945309184669" lon="12.126470293610483"><ele>858.0</ele><time>2026-05-03T09:37:57.999Z</time></trkpt><trkpt lat="45.994507143865135" lon="12.126601435459815"><ele>851.5999999999999</ele><time>2026-05-03T09:37:58.999Z</time></trkpt><trkpt lat="45.99447792351723" lon="12.126741228933342"><ele>845.1999999999999</ele><time>2026-05-03T09:37:59.999Z</time></trkpt><trkpt lat="45.99443524759202" lon="12.126882636806647"><ele>838.8</ele><time>2026-05-03T09:38:00.999Z</time></trkpt><trkpt lat="45.99441542255272" lon="12.127021912304002"><ele>832.4</ele><time>2026-05-03T09:38:01.999Z</time></trkpt><trkpt lat="45.99439339400835" lon="12.127149369173463"><ele>826.0</ele><time>2026-05-03T09:38:02.999Z</time></trkpt><trkpt lat="45.99440518596584" lon="12.127244345492851"><ele>826.0</ele><time>2026-05-03T09:38:03.999Z</time></trkpt><trkpt lat="45.994451591617505" lon="12.127351104176654"><ele>826.0</ele><time>2026-05-03T09:38:05.999Z</time></trkpt><trkpt lat="45.99439876348892" lon="12.127221690981147"><ele>826.0</ele><time>2026-05-03T09:38:08.999Z</time></trkpt><trkpt lat="45.994368585969845" lon="12.127112818124669"><ele>826.0</ele><time>2026-05-03T09:38:09.999Z</time></trkpt><trkpt lat="45.99438470358317" lon="12.127011505017768"><ele>826.0</ele><time>2026-05-03T09:38:10.999Z</time></trkpt><trkpt lat="45.99442370237971" lon="12.126860950742318"><ele>825.9999999999999</ele><time>2026-05-03T09:38:20.999Z</time></trkpt><trkpt lat="45.994449273138954" lon="12.12677724888962"><ele>826.0</ele><time>2026-05-03T09:38:21.999Z</time></trkpt><trkpt lat="45.99439402227177" lon="12.12664557944248"><ele>826.0</ele><time>2026-05-03T09:38:22.999Z</time></trkpt><trkpt lat="45.994397374161686" lon="12.126551362324534"><ele>826.0</ele><time>2026-05-03T09:38:23.999Z</time></trkpt><trkpt lat="45.99440417523235" lon="12.126378075105821"><ele>825.9999999999999</ele><time>2026-05-03T09:38:25.999Z</time></trkpt><trkpt lat="45.99438346015299" lon="12.126283784053324"><ele>826.0</ele><time>2026-05-03T09:38:26.999Z</time></trkpt><trkpt lat="45.99432872300624" lon="12.126211768670455"><ele>832.4</ele><time>2026-05-03T09:38:27.999Z</time></trkpt><trkpt lat="45.994247384563174" lon="12.126149140775931"><ele>838.8</ele><time>2026-05-03T09:38:28.999Z</time></trkpt><trkpt lat="45.99417331223075" lon="12.126058814181484"><ele>845.1999999999999</ele><time>2026-05-03T09:38:29.999Z</time></trkpt><trkpt lat="45.99409322030069" lon="12.125979668291668"><ele>851.5999999999999</ele><time>2026-05-03T09:38:30.999Z</time></trkpt><trkpt lat="45.99402220237492" lon="12.125891230963392"><ele>858.0</ele><time>2026-05-03T09:38:31.999Z</time></trkpt><trkpt lat="45.99394811172783" lon="12.1258059200065"><ele>852.0</ele><time>2026-05-03T09:38:32.999Z</time></trkpt><trkpt lat="45.993874817567246" lon="12.12573228049347"><ele>846.0</ele><time>2026-05-03T09:38:33.999Z</time></trkpt><trkpt lat="45.99380316684595" lon="12.12566073284761"><ele>840.0</ele><time>2026-05-03T09:38:34.999Z</time></trkpt><trkpt lat="45.993738355580206" lon="12.125573058324255"><ele>834.0</ele><time>2026-05-03T09:38:35.999Z</time></trkpt><trkpt lat="45.993662193739986" lon="12.125509893704477"><ele>828.0</ele><time>2026-05-03T09:38:36.999Z</time></trkpt><trkpt lat="45.993596359012145" lon="12.12544114015517"><ele>822.0</ele><time>2026-05-03T09:38:37.998Z</time></trkpt><trkpt lat="45.99352923181036" lon="12.125358432488794"><ele>822.0</ele><time>2026-05-03T09:38:38.998Z</time></trkpt><trkpt lat="45.99345283723965" lon="12.125280197369902"><ele>822.0</ele><time>2026-05-03T09:38:39.998Z</time></trkpt><trkpt lat="45.99336422656421" lon="12.125218249751132"><ele>822.0</ele><time>2026-05-03T09:38:40.998Z</time></trkpt><trkpt lat="45.99326904874014" lon="12.125167773999205"><ele>822.0</ele><time>2026-05-03T09:38:41.998Z</time></trkpt><trkpt lat="45.99316666382074" lon="12.125112327300611"><ele>822.0</ele><time>2026-05-03T09:38:42.998Z</time></trkpt><trkpt lat="45.99306671937959" lon="12.125057114528667"><ele>820.0</ele><time>2026-05-03T09:38:43.998Z</time></trkpt><trkpt lat="45.99295729553175" lon="12.125060900462502"><ele>818.0</ele><time>2026-05-03T09:38:44.998Z</time></trkpt><trkpt lat="45.99286775262147" lon="12.12503849328929"><ele>816.0</ele><time>2026-05-03T09:38:45.998Z</time></trkpt><trkpt lat="45.99278812255487" lon="12.12501207878701"><ele>814.0</ele><time>2026-05-03T09:38:46.998Z</time></trkpt><trkpt lat="45.99274117641783" lon="12.124928852043539"><ele>812.0</ele><time>2026-05-03T09:38:47.998Z</time></trkpt><trkpt lat="45.99266351361472" lon="12.124805794979734"><ele>812.0</ele><time>2026-05-03T09:38:49.998Z</time></trkpt><trkpt lat="45.99258270147175" lon="12.124744809354548"><ele>812.0</ele><time>2026-05-03T09:38:51.998Z</time></trkpt><trkpt lat="45.99253775162206" lon="12.124833986069895"><ele>812.0</ele><time>2026-05-03T09:38:52.998Z</time></trkpt><trkpt lat="45.99259397057509" lon="12.124968923958454"><ele>812.0</ele><time>2026-05-03T09:38:54.998Z</time></trkpt><trkpt lat="45.99271492934186" lon="12.125077731222405"><ele>812.0</ele><time>2026-05-03T09:38:56.998Z</time></trkpt><trkpt lat="45.992756337144364" lon="12.125159585851108"><ele>805.8</ele><time>2026-05-03T09:38:57.998Z</time></trkpt><trkpt lat="45.992892964722955" lon="12.125304324652143"><ele>799.6</ele><time>2026-05-03T09:38:59.998Z</time></trkpt><trkpt lat="45.99296997252637" lon="12.125334238651279"><ele>793.4</ele><time>2026-05-03T09:39:00.998Z</time></trkpt><trkpt lat="45.99304695720237" lon="12.12539815480372"><ele>787.1999999999999</ele><time>2026-05-03T09:39:01.999Z</time></trkpt><trkpt lat="45.99312196014809" lon="12.125467907186419"><ele>781.0</ele><time>2026-05-03T09:39:02.999Z</time></trkpt><trkpt lat="45.99321374873928" lon="12.125573543990324"><ele>781.0</ele><time>2026-05-03T09:39:03.999Z</time></trkpt><trkpt lat="45.993280177667216" lon="12.125674090018288"><ele>781.0</ele><time>2026-05-03T09:39:04.999Z</time></trkpt><trkpt lat="45.99334967665614" lon="12.125777383356615"><ele>781.0</ele><time>2026-05-03T09:39:05.999Z</time></trkpt><trkpt lat="45.99340359715662" lon="12.125921427824585"><ele>781.0</ele><time>2026-05-03T09:39:06.999Z</time></trkpt><trkpt lat="45.993451374605236" lon="12.12604806310318"><ele>781.0</ele><time>2026-05-03T09:39:07.999Z</time></trkpt><trkpt lat="45.99350880228954" lon="12.126167945349692"><ele>781.6666666666666</ele><time>2026-05-03T09:39:08.999Z</time></trkpt><trkpt lat="45.99355713296189" lon="12.126296433868074"><ele>782.3333333333333</ele><time>2026-05-03T09:39:09.999Z</time></trkpt><trkpt lat="45.99361636502695" lon="12.126416567619735"><ele>783.0</ele><time>2026-05-03T09:39:10.999Z</time></trkpt><trkpt lat="45.99368206968122" lon="12.126511772278638"><ele>783.6666666666667</ele><time>2026-05-03T09:39:11.999Z</time></trkpt><trkpt lat="45.99374053067976" lon="12.12657000296344"><ele>784.3333333333334</ele><time>2026-05-03T09:39:12.999Z</time></trkpt><trkpt lat="45.99379803089141" lon="12.126651987172414"><ele>785.0</ele><time>2026-05-03T09:39:14.999Z</time></trkpt><trkpt lat="45.993845231288276" lon="12.126739466650848"><ele>785.0</ele><time>2026-05-03T09:39:17.999Z</time></trkpt><trkpt lat="45.99373721023077" lon="12.126717183724237"><ele>785.0</ele><time>2026-05-03T09:39:19.999Z</time></trkpt><trkpt lat="45.99368461519259" lon="12.126631664288682"><ele>785.0</ele><time>2026-05-03T09:39:20.999Z</time></trkpt><trkpt lat="45.99360146188123" lon="12.126554622978981"><ele>785.0</ele><time>2026-05-03T09:39:21.999Z</time></trkpt><trkpt lat="45.99351494793718" lon="12.126447345771078"><ele>785.0</ele><time>2026-05-03T09:39:22.999Z</time></trkpt><trkpt lat="45.993417404674155" lon="12.126356795237067"><ele>785.0</ele><time>2026-05-03T09:39:23.999Z</time></trkpt><trkpt lat="45.993339994329105" lon="12.126221808651378"><ele>785.0</ele><time>2026-05-03T09:39:24.999Z</time></trkpt><trkpt lat="45.99325504187161" lon="12.1260946268114"><ele>785.0</ele><time>2026-05-03T09:39:25.999Z</time></trkpt><trkpt lat="45.99316166810675" lon="12.125998070812546"><ele>785.0</ele><time>2026-05-03T09:39:26.999Z</time></trkpt><trkpt lat="45.993054094746626" lon="12.125925726299306"><ele>784.0</ele><time>2026-05-03T09:39:27.999Z</time></trkpt><trkpt lat="45.99295263193617" lon="12.125858799815166"><ele>783.0</ele><time>2026-05-03T09:39:28.999Z</time></trkpt><trkpt lat="45.99285007690227" lon="12.12579166228296"><ele>782.0</ele><time>2026-05-03T09:39:29.999Z</time></trkpt><trkpt lat="45.99274007086031" lon="12.125730691418967"><ele>781.0</ele><time>2026-05-03T09:39:30.999Z</time></trkpt><trkpt lat="45.99262767381803" lon="12.125679122837242"><ele>781.0</ele><time>2026-05-03T09:39:31.999Z</time></trkpt><trkpt lat="45.99251712917831" lon="12.125631016532015"><ele>781.0</ele><time>2026-05-03T09:39:32.999Z</time></trkpt><trkpt lat="45.992405251657075" lon="12.125590171960273"><ele>781.0</ele><time>2026-05-03T09:39:33.999Z</time></trkpt><trkpt lat="45.99229307426265" lon="12.125579136979304"><ele>781.0</ele><time>2026-05-03T09:39:34.999Z</time></trkpt><trkpt lat="45.992183059207605" lon="12.125572844447904"><ele>773.5999999999999</ele><time>2026-05-03T09:39:35.999Z</time></trkpt><trkpt lat="45.992076091705144" lon="12.125554927184035"><ele>766.2</ele><time>2026-05-03T09:39:36.999Z</time></trkpt><trkpt lat="45.99196358022694" lon="12.125535673067338"><ele>758.8</ele><time>2026-05-03T09:39:37.999Z</time></trkpt><trkpt lat="45.991860002091734" lon="12.12547056754499"><ele>751.4000000000001</ele><time>2026-05-03T09:39:38.999Z</time></trkpt><trkpt lat="45.99175814511825" lon="12.125420722148949"><ele>744.0</ele><time>2026-05-03T09:39:39.999Z</time></trkpt><trkpt lat="45.99166346848059" lon="12.12535818863171"><ele>737.4000000000001</ele><time>2026-05-03T09:39:40.999Z</time></trkpt><trkpt lat="45.99157860695496" lon="12.125283349946226"><ele>730.8</ele><time>2026-05-03T09:39:41.999Z</time></trkpt><trkpt lat="45.99149342411344" lon="12.12523109387155"><ele>724.2</ele><time>2026-05-03T09:39:42.999Z</time></trkpt><trkpt lat="45.99141279159494" lon="12.125221948648221"><ele>717.5999999999999</ele><time>2026-05-03T09:39:43.999Z</time></trkpt><trkpt lat="45.99132135473553" lon="12.1251922869577"><ele>711.0</ele><time>2026-05-03T09:39:45.999Z</time></trkpt><trkpt lat="45.99131105089484" lon="12.125322723559695"><ele>711.0</ele><time>2026-05-03T09:39:47.999Z</time></trkpt><trkpt lat="45.99144534500232" lon="12.12540761113371"><ele>711.0</ele><time>2026-05-03T09:39:49.999Z</time></trkpt><trkpt lat="45.991548466920214" lon="12.125476260775729"><ele>711.0</ele><time>2026-05-03T09:39:50.999Z</time></trkpt><trkpt lat="45.99164689359592" lon="12.125559719207281"><ele>711.0</ele><time>2026-05-03T09:39:51.999Z</time></trkpt><trkpt lat="45.99175037934683" lon="12.12564248664893"><ele>708.75</ele><time>2026-05-03T09:39:52.999Z</time></trkpt><trkpt lat="45.991859884565514" lon="12.125734326401144"><ele>706.5</ele><time>2026-05-03T09:39:53.999Z</time></trkpt><trkpt lat="45.99196371336159" lon="12.125858095083004"><ele>704.25</ele><time>2026-05-03T09:39:54.999Z</time></trkpt><trkpt lat="45.99207515634713" lon="12.12596502725618"><ele>702.0</ele><time>2026-05-03T09:39:55.999Z</time></trkpt><trkpt lat="45.99218159857503" lon="12.12606626792174"><ele>702.0</ele><time>2026-05-03T09:39:56.999Z</time></trkpt><trkpt lat="45.99228410842414" lon="12.126169036333659"><ele>702.0</ele><time>2026-05-03T09:39:57.999Z</time></trkpt><trkpt lat="45.99238483125337" lon="12.126279088382475"><ele>702.0</ele><time>2026-05-03T09:39:58.999Z</time></trkpt><trkpt lat="45.9924745785066" lon="12.126400659979243"><ele>702.0</ele><time>2026-05-03T09:39:59.999Z</time></trkpt><trkpt lat="45.9925519510145" lon="12.126530470696315"><ele>703.25</ele><time>2026-05-03T09:40:00.999Z</time></trkpt><trkpt lat="45.992625642709875" lon="12.12665460969104"><ele>704.5</ele><time>2026-05-03T09:40:01.999Z</time></trkpt><trkpt lat="45.99263941621891" lon="12.12682492765613"><ele>705.75</ele><time>2026-05-03T09:40:02.999Z</time></trkpt><trkpt lat="45.99267452333983" lon="12.12699958384988"><ele>707.0</ele><time>2026-05-03T09:40:03.999Z</time></trkpt><trkpt lat="45.99273512391626" lon="12.127163695044382"><ele>707.0</ele><time>2026-05-03T09:40:04.999Z</time></trkpt><trkpt lat="45.992787720876606" lon="12.127333086182299"><ele>707.0</ele><time>2026-05-03T09:40:05.999Z</time></trkpt><trkpt lat="45.99283779122123" lon="12.127504604004393"><ele>707.0</ele><time>2026-05-03T09:40:06.999Z</time></trkpt><trkpt lat="45.99287686915768" lon="12.127679767671951"><ele>707.0</ele><time>2026-05-03T09:40:07.999Z</time></trkpt><trkpt lat="45.99289686582561" lon="12.127859611644409"><ele>704.8</ele><time>2026-05-03T09:40:08.999Z</time></trkpt><trkpt lat="45.992911944159054" lon="12.12802518829636"><ele>702.6</ele><time>2026-05-03T09:40:09.999Z</time></trkpt><trkpt lat="45.992895110838184" lon="12.12818086743447"><ele>700.4</ele><time>2026-05-03T09:40:10.999Z</time></trkpt><trkpt lat="45.99285890997824" lon="12.12832326964128"><ele>698.1999999999999</ele><time>2026-05-03T09:40:11.999Z</time></trkpt><trkpt lat="45.992836871849946" lon="12.128473533660063"><ele>696.0</ele><time>2026-05-03T09:40:12.999Z</time></trkpt><trkpt lat="45.99285225451169" lon="12.128628366904467"><ele>690.5</ele><time>2026-05-03T09:40:13.999Z</time></trkpt><trkpt lat="45.99288170134103" lon="12.128765973358409"><ele>685.0</ele><time>2026-05-03T09:40:14.999Z</time></trkpt><trkpt lat="45.992952129194414" lon="12.128900558351742"><ele>679.5</ele><time>2026-05-03T09:40:15.999Z</time></trkpt><trkpt lat="45.99302037228686" lon="12.129039123936627"><ele>674.0</ele><time>2026-05-03T09:40:16.999Z</time></trkpt><trkpt lat="45.993044224278485" lon="12.129202864226476"><ele>669.2</ele><time>2026-05-03T09:40:17.999Z</time></trkpt><trkpt lat="45.9930765698998" lon="12.129359988099624"><ele>664.4000000000001</ele><time>2026-05-03T09:40:18.999Z</time></trkpt><trkpt lat="45.99309776818444" lon="12.12951136837842"><ele>659.6</ele><time>2026-05-03T09:40:19.999Z</time></trkpt><trkpt lat="45.993101490351165" lon="12.129670898766467"><ele>654.8</ele><time>2026-05-03T09:40:20.999Z</time></trkpt><trkpt lat="45.99310611992984" lon="12.12982493476415"><ele>650.0</ele><time>2026-05-03T09:40:21.999Z</time></trkpt><trkpt lat="45.99311820605013" lon="12.12997621081718"><ele>648.0</ele><time>2026-05-03T09:40:22.999Z</time></trkpt><trkpt lat="45.99312426960976" lon="12.130122412895888"><ele>646.0</ele><time>2026-05-03T09:40:23.999Z</time></trkpt><trkpt lat="45.99312547026177" lon="12.130263154823913"><ele>644.0</ele><time>2026-05-03T09:40:24.999Z</time></trkpt><trkpt lat="45.99313085787093" lon="12.130381074227625"><ele>642.0</ele><time>2026-05-03T09:40:25.999Z</time></trkpt><trkpt lat="45.99313330634087" lon="12.130534369759276"><ele>640.0</ele><time>2026-05-03T09:40:27.999Z</time></trkpt><trkpt lat="45.99309775709334" lon="12.130615047459365"><ele>640.0</ele><time>2026-05-03T09:40:29.999Z</time></trkpt><trkpt lat="45.99303569557346" lon="12.130568086066246"><ele>640.0</ele><time>2026-05-03T09:40:30.999Z</time></trkpt><trkpt lat="45.9930036899263" lon="12.13046245093971"><ele>640.0</ele><time>2026-05-03T09:40:31.999Z</time></trkpt><trkpt lat="45.9929702619919" lon="12.130347913685377"><ele>640.0</ele><time>2026-05-03T09:40:32.999Z</time></trkpt><trkpt lat="45.99293155098444" lon="12.130211599862122"><ele>640.0</ele><time>2026-05-03T09:40:33.999Z</time></trkpt><trkpt lat="45.99290574450863" lon="12.13005758233886"><ele>640.0</ele><time>2026-05-03T09:40:34.999Z</time></trkpt><trkpt lat="45.9928676699564" lon="12.129907325491011"><ele>642.5</ele><time>2026-05-03T09:40:35.999Z</time></trkpt><trkpt lat="45.992788773408186" lon="12.129789232294883"><ele>645.0</ele><time>2026-05-03T09:40:36.999Z</time></trkpt><trkpt lat="45.9927152528254" lon="12.129675992570471"><ele>647.5</ele><time>2026-05-03T09:40:37.999Z</time></trkpt><trkpt lat="45.9926763909583" lon="12.129526381098792"><ele>650.0</ele><time>2026-05-03T09:40:38.999Z</time></trkpt><trkpt lat="45.99262183350143" lon="12.129375862681242"><ele>650.0</ele><time>2026-05-03T09:40:39.999Z</time></trkpt><trkpt lat="45.992546142491825" lon="12.129256100587236"><ele>650.0</ele><time>2026-05-03T09:40:40.999Z</time></trkpt><trkpt lat="45.99247763468017" lon="12.129135453805256"><ele>650.0</ele><time>2026-05-03T09:40:41.999Z</time></trkpt><trkpt lat="45.99240018281321" lon="12.129028722279202"><ele>650.0</ele><time>2026-05-03T09:40:42.999Z</time></trkpt><trkpt lat="45.99232182293426" lon="12.12892340342032"><ele>650.0</ele><time>2026-05-03T09:40:43.999Z</time></trkpt><trkpt lat="45.99224211808966" lon="12.128820550202683"><ele>646.0</ele><time>2026-05-03T09:40:44.999Z</time></trkpt><trkpt lat="45.992171147444935" lon="12.128718370972619"><ele>642.0</ele><time>2026-05-03T09:40:45.999Z</time></trkpt><trkpt lat="45.992102413079266" lon="12.128605111945156"><ele>638.0</ele><time>2026-05-03T09:40:46.999Z</time></trkpt><trkpt lat="45.99203245089002" lon="12.12849956310495"><ele>634.0</ele><time>2026-05-03T09:40:47.999Z</time></trkpt><trkpt lat="45.991961995234924" lon="12.128385392934561"><ele>630.0</ele><time>2026-05-03T09:40:48.999Z</time></trkpt><trkpt lat="45.991886744986004" lon="12.128277458666629"><ele>632.2</ele><time>2026-05-03T09:40:49.999Z</time></trkpt><trkpt lat="45.99180863721249" lon="12.128169825525436"><ele>634.4</ele><time>2026-05-03T09:40:50.999Z</time></trkpt><trkpt lat="45.99173330802978" lon="12.128063885969881"><ele>636.5999999999999</ele><time>2026-05-03T09:40:51.999Z</time></trkpt><trkpt lat="45.99166795069601" lon="12.12795786369792"><ele>638.8</ele><time>2026-05-03T09:40:52.999Z</time></trkpt><trkpt lat="45.99160965615247" lon="12.127848069566756"><ele>641.0</ele><time>2026-05-03T09:40:53.999Z</time></trkpt><trkpt lat="45.99157601007594" lon="12.127748548483446"><ele>635.8333333333333</ele><time>2026-05-03T09:40:54.999Z</time></trkpt><trkpt lat="45.9915066457358" lon="12.127658724350617"><ele>630.6666666666666</ele><time>2026-05-03T09:40:56.999Z</time></trkpt><trkpt lat="45.991448097651876" lon="12.127704423667005"><ele>625.5</ele><time>2026-05-03T09:40:57.999Z</time></trkpt><trkpt lat="45.99142000372454" lon="12.127807352611201"><ele>620.3333333333334</ele><time>2026-05-03T09:40:58.999Z</time></trkpt><trkpt lat="45.99142290888485" lon="12.127945992596668"><ele>615.1666666666667</ele><time>2026-05-03T09:40:59.999Z</time></trkpt><trkpt lat="45.99143601063699" lon="12.128102411169785"><ele>610.0</ele><time>2026-05-03T09:41:00.999Z</time></trkpt><trkpt lat="45.991475966149835" lon="12.12825754288148"><ele>606.25</ele><time>2026-05-03T09:41:01.999Z</time></trkpt><trkpt lat="45.99152960130566" lon="12.128410195971684"><ele>602.5</ele><time>2026-05-03T09:41:02.999Z</time></trkpt><trkpt lat="45.99157259838633" lon="12.128567965053277"><ele>598.75</ele><time>2026-05-03T09:41:03.999Z</time></trkpt><trkpt lat="45.991587156820415" lon="12.128726093482571"><ele>595.0</ele><time>2026-05-03T09:41:04.999Z</time></trkpt><trkpt lat="45.9916064226005" lon="12.128884187823017"><ele>595.0</ele><time>2026-05-03T09:41:05.999Z</time></trkpt><trkpt lat="45.99162480604204" lon="12.129032653210732"><ele>595.0</ele><time>2026-05-03T09:41:06.999Z</time></trkpt><trkpt lat="45.99164490569428" lon="12.129180158855092"><ele>595.0</ele><time>2026-05-03T09:41:08Z</time></trkpt><trkpt lat="45.99168163136107" lon="12.129328875093364"><ele>595.0</ele><time>2026-05-03T09:41:09Z</time></trkpt><trkpt lat="45.99168633728506" lon="12.129464691995189"><ele>595.0</ele><time>2026-05-03T09:41:10Z</time></trkpt><trkpt lat="45.99170641733834" lon="12.129610999979574"><ele>597.4</ele><time>2026-05-03T09:41:11Z</time></trkpt><trkpt lat="45.991743839373534" lon="12.129745113963663"><ele>599.8</ele><time>2026-05-03T09:41:12Z</time></trkpt><trkpt lat="45.99175764544026" lon="12.129847983057413"><ele>602.2</ele><time>2026-05-03T09:41:13Z</time></trkpt><trkpt lat="45.99174545750173" lon="12.129994316302264"><ele>604.6</ele><time>2026-05-03T09:41:15Z</time></trkpt><trkpt lat="45.99164481305939" lon="12.130009186445475"><ele>607.0</ele><time>2026-05-03T09:41:17Z</time></trkpt><trkpt lat="45.991593637437774" lon="12.12991339947886"><ele>602.4</ele><time>2026-05-03T09:41:18Z</time></trkpt><trkpt lat="45.991543264385655" lon="12.129782227914221"><ele>597.8000000000001</ele><time>2026-05-03T09:41:19Z</time></trkpt><trkpt lat="45.99148931829513" lon="12.129655912498851"><ele>593.2</ele><time>2026-05-03T09:41:20Z</time></trkpt><trkpt lat="45.991420596039625" lon="12.129523286988807"><ele>588.6</ele><time>2026-05-03T09:41:21Z</time></trkpt><trkpt lat="45.99134871684999" lon="12.129388211185693"><ele>584.0</ele><time>2026-05-03T09:41:22Z</time></trkpt><trkpt lat="45.9912889396101" lon="12.12924245331245"><ele>584.0</ele><time>2026-05-03T09:41:23Z</time></trkpt><trkpt lat="45.99122169068571" lon="12.129105215133729"><ele>584.0</ele><time>2026-05-03T09:41:24Z</time></trkpt><trkpt lat="45.991148707651284" lon="12.128981822560903"><ele>584.0</ele><time>2026-05-03T09:41:25Z</time></trkpt><trkpt lat="45.99108814982328" lon="12.128855387666643"><ele>584.0</ele><time>2026-05-03T09:41:26Z</time></trkpt><trkpt lat="45.99100938961364" lon="12.128740136874177"><ele>584.0</ele><time>2026-05-03T09:41:27Z</time></trkpt><trkpt lat="45.990949934372864" lon="12.12864748320294"><ele>586.2</ele><time>2026-05-03T09:41:28Z</time></trkpt><trkpt lat="45.990901619459294" lon="12.128573174042423"><ele>588.4</ele><time>2026-05-03T09:41:29Z</time></trkpt><trkpt lat="45.99080166279233" lon="12.128485315902019"><ele>590.6</ele><time>2026-05-03T09:41:31Z</time></trkpt><trkpt lat="45.990704873338856" lon="12.128478753282721"><ele>592.8</ele><time>2026-05-03T09:41:33Z</time></trkpt><trkpt lat="45.99070715994165" lon="12.128611495334823"><ele>595.0</ele><time>2026-05-03T09:41:34Z</time></trkpt><trkpt lat="45.9907359292892" lon="12.128708143530034"><ele>595.0</ele><time>2026-05-03T09:41:35Z</time></trkpt><trkpt lat="45.990789971665656" lon="12.128814816113234"><ele>595.0</ele><time>2026-05-03T09:41:36Z</time></trkpt><trkpt lat="45.99084102772844" lon="12.128933908911264"><ele>595.0</ele><time>2026-05-03T09:41:37Z</time></trkpt><trkpt lat="45.990858262302524" lon="12.129076130051782"><ele>595.0</ele><time>2026-05-03T09:41:38Z</time></trkpt><trkpt lat="45.99086003468346" lon="12.129211355658922"><ele>595.0</ele><time>2026-05-03T09:41:39Z</time></trkpt><trkpt lat="45.99085704838145" lon="12.129362285375604"><ele>592.8</ele><time>2026-05-03T09:41:40Z</time></trkpt><trkpt lat="45.99086119823164" lon="12.129512819424724"><ele>590.6</ele><time>2026-05-03T09:41:41Z</time></trkpt><trkpt lat="45.990865328473504" lon="12.12965201848995"><ele>588.4</ele><time>2026-05-03T09:41:42Z</time></trkpt><trkpt lat="45.99088410326981" lon="12.129785980083854"><ele>586.2</ele><time>2026-05-03T09:41:43Z</time></trkpt><trkpt lat="45.99087661367099" lon="12.12991590903536"><ele>584.0</ele><time>2026-05-03T09:41:44Z</time></trkpt><trkpt lat="45.99089005559311" lon="12.13005684286891"><ele>582.8</ele><time>2026-05-03T09:41:45Z</time></trkpt><trkpt lat="45.990916824001786" lon="12.130179243659283"><ele>581.5999999999999</ele><time>2026-05-03T09:41:46Z</time></trkpt><trkpt lat="45.99092609933102" lon="12.130286968656963"><ele>580.4</ele><time>2026-05-03T09:41:47Z</time></trkpt><trkpt lat="45.99091906788576" lon="12.130448848626822"><ele>579.1999999999999</ele><time>2026-05-03T09:41:49Z</time></trkpt><trkpt lat="45.990896054055675" lon="12.130581321427243"><ele>578.0</ele><time>2026-05-03T09:41:51Z</time></trkpt><trkpt lat="45.99078569122488" lon="12.13056582360247"><ele>572.0</ele><time>2026-05-03T09:41:53Z</time></trkpt><trkpt lat="45.99071163083242" lon="12.13047820865765"><ele>566.0</ele><time>2026-05-03T09:41:54Z</time></trkpt><trkpt lat="45.990640715023716" lon="12.130357878967095"><ele>560.0</ele><time>2026-05-03T09:41:55Z</time></trkpt><trkpt lat="45.99058598005957" lon="12.130228279012675"><ele>554.0</ele><time>2026-05-03T09:41:56Z</time></trkpt><trkpt lat="45.99052244099902" lon="12.13010933307005"><ele>548.0</ele><time>2026-05-03T09:41:57Z</time></trkpt><trkpt lat="45.99046683840107" lon="12.129994674471224"><ele>549.0</ele><time>2026-05-03T09:41:58Z</time></trkpt><trkpt lat="45.99041752057687" lon="12.129883235480621"><ele>550.0</ele><time>2026-05-03T09:41:59Z</time></trkpt><trkpt lat="45.99034266413294" lon="12.129732334702997"><ele>551.0</ele><time>2026-05-03T09:42:00Z</time></trkpt><trkpt lat="45.990280707251046" lon="12.129585403977883"><ele>552.0</ele><time>2026-05-03T09:42:01Z</time></trkpt><trkpt lat="45.99022423601099" lon="12.129456667810798"><ele>553.0</ele><time>2026-05-03T09:42:02Z</time></trkpt><trkpt lat="45.99015540180523" lon="12.129295921071714"><ele>553.0</ele><time>2026-05-03T09:42:03Z</time></trkpt><trkpt lat="45.99009691451248" lon="12.129190818416289"><ele>553.0</ele><time>2026-05-03T09:42:04Z</time></trkpt><trkpt lat="45.990042275790245" lon="12.1290586456808"><ele>553.0</ele><time>2026-05-03T09:42:05Z</time></trkpt><trkpt lat="45.98999425084977" lon="12.128940931277116"><ele>553.0</ele><time>2026-05-03T09:42:06Z</time></trkpt><trkpt lat="45.98996502709932" lon="12.128817497108129"><ele>553.0</ele><time>2026-05-03T09:42:07Z</time></trkpt><trkpt lat="45.989923441064526" lon="12.128690089453194"><ele>552.0</ele><time>2026-05-03T09:42:08Z</time></trkpt><trkpt lat="45.989911557944396" lon="12.128563375013025"><ele>551.0</ele><time>2026-05-03T09:42:08.999Z</time></trkpt><trkpt lat="45.989904294208344" lon="12.128436365475778"><ele>550.0</ele><time>2026-05-03T09:42:09.999Z</time></trkpt><trkpt lat="45.98992226487946" lon="12.128318638539147"><ele>549.0</ele><time>2026-05-03T09:42:10.999Z</time></trkpt><trkpt lat="45.98994122999955" lon="12.128196172216656"><ele>548.0</ele><time>2026-05-03T09:42:11.999Z</time></trkpt><trkpt lat="45.9899432656655" lon="12.128074346484615"><ele>547.0</ele><time>2026-05-03T09:42:12.999Z</time></trkpt><trkpt lat="45.989931891473745" lon="12.127949898366376"><ele>547.0</ele><time>2026-05-03T09:42:13.999Z</time></trkpt><trkpt lat="45.98987502346595" lon="12.127844184719772"><ele>547.0</ele><time>2026-05-03T09:42:14.999Z</time></trkpt><trkpt lat="45.98980731389378" lon="12.127753615342524"><ele>547.0</ele><time>2026-05-03T09:42:15.999Z</time></trkpt><trkpt lat="45.989734266066954" lon="12.127663473088765"><ele>547.0</ele><time>2026-05-03T09:42:16.999Z</time></trkpt><trkpt lat="45.98967087098726" lon="12.12756728918824"><ele>547.0</ele><time>2026-05-03T09:42:17.999Z</time></trkpt><trkpt lat="45.989594999220735" lon="12.127476415361983"><ele>551.8000000000001</ele><time>2026-05-03T09:42:18.999Z</time></trkpt><trkpt lat="45.98952527000713" lon="12.12737066472912"><ele>556.6</ele><time>2026-05-03T09:42:19.999Z</time></trkpt><trkpt lat="45.98945890464503" lon="12.127266057910782"><ele>561.4000000000001</ele><time>2026-05-03T09:42:20.999Z</time></trkpt><trkpt lat="45.98939514289804" lon="12.1271564485474"><ele>566.2</ele><time>2026-05-03T09:42:21.999Z</time></trkpt><trkpt lat="45.98933660182528" lon="12.12704769896026"><ele>571.0</ele><time>2026-05-03T09:42:22.999Z</time></trkpt><trkpt lat="45.98927951130325" lon="12.126939151220686"><ele>571.0</ele><time>2026-05-03T09:42:23.999Z</time></trkpt><trkpt lat="45.98923498458043" lon="12.126838702278548"><ele>571.0</ele><time>2026-05-03T09:42:24.999Z</time></trkpt><trkpt lat="45.98918720747753" lon="12.126763792900462"><ele>571.0</ele><time>2026-05-03T09:42:25.999Z</time></trkpt><trkpt lat="45.98911697555725" lon="12.12665517188592"><ele>571.0</ele><time>2026-05-03T09:42:27.999Z</time></trkpt><trkpt lat="45.98904710584256" lon="12.126776004410369"><ele>571.0</ele><time>2026-05-03T09:42:29.999Z</time></trkpt><trkpt lat="45.98909146624375" lon="12.126968217099604"><ele>566.2</ele><time>2026-05-03T09:42:31.999Z</time></trkpt><trkpt lat="45.98912979393034" lon="12.127092266647768"><ele>561.4000000000001</ele><time>2026-05-03T09:42:32.999Z</time></trkpt><trkpt lat="45.98917534612768" lon="12.127252264715302"><ele>556.6</ele><time>2026-05-03T09:42:33.999Z</time></trkpt><trkpt lat="45.98923329879901" lon="12.12740469794601"><ele>551.8000000000001</ele><time>2026-05-03T09:42:34.999Z</time></trkpt><trkpt lat="45.98928337986777" lon="12.127537081475028"><ele>547.0</ele><time>2026-05-03T09:42:35.999Z</time></trkpt><trkpt lat="45.98933600422696" lon="12.127649740735281"><ele>547.0</ele><time>2026-05-03T09:42:36.999Z</time></trkpt><trkpt lat="45.98938873891563" lon="12.127748108518624"><ele>547.0</ele><time>2026-05-03T09:42:37.999Z</time></trkpt><trkpt lat="45.98942006349685" lon="12.127860852359664"><ele>547.0</ele><time>2026-05-03T09:42:38.999Z</time></trkpt><trkpt lat="45.989450884470486" lon="12.127946866663295"><ele>547.0</ele><time>2026-05-03T09:42:39.999Z</time></trkpt><trkpt lat="45.98939643959044" lon="12.128037327703645"><ele>547.0</ele><time>2026-05-03T09:42:40.999Z</time></trkpt><trkpt lat="45.98932062541774" lon="12.12807498978319"><ele>547.0</ele><time>2026-05-03T09:42:41.999Z</time></trkpt><trkpt lat="45.9892440716875" lon="12.12816062528887"><ele>538.8000000000001</ele><time>2026-05-03T09:42:42.999Z</time></trkpt><trkpt lat="45.98916444061445" lon="12.128272649544652"><ele>530.6</ele><time>2026-05-03T09:42:43.999Z</time></trkpt><trkpt lat="45.989103878118044" lon="12.128412000756564"><ele>522.4000000000001</ele><time>2026-05-03T09:42:44.999Z</time></trkpt><trkpt lat="45.98904500798724" lon="12.128535431990809"><ele>514.2</ele><time>2026-05-03T09:42:45.999Z</time></trkpt><trkpt lat="45.989006936043616" lon="12.128671621889088"><ele>506.0</ele><time>2026-05-03T09:42:46.999Z</time></trkpt><trkpt lat="45.98900268520927" lon="12.128791503373213"><ele>505.99999999999994</ele><time>2026-05-03T09:42:47.999Z</time></trkpt><trkpt lat="45.989034562844715" lon="12.128887258019446"><ele>506.0</ele><time>2026-05-03T09:42:48.999Z</time></trkpt><trkpt lat="45.9890511745645" lon="12.129020079479917"><ele>506.0</ele><time>2026-05-03T09:42:50.999Z</time></trkpt><trkpt lat="45.98895502041307" lon="12.129040677377338"><ele>506.0</ele><time>2026-05-03T09:42:52.999Z</time></trkpt><trkpt lat="45.98890478612186" lon="12.128965483823901"><ele>505.99999999999994</ele><time>2026-05-03T09:42:53.999Z</time></trkpt><trkpt lat="45.98888867564718" lon="12.128822180689996"><ele>506.0</ele><time>2026-05-03T09:42:54.999Z</time></trkpt><trkpt lat="45.98881674904374" lon="12.128714638482233"><ele>506.0</ele><time>2026-05-03T09:42:55.999Z</time></trkpt><trkpt lat="45.98875845230583" lon="12.12859223442688"><ele>506.0</ele><time>2026-05-03T09:42:56.999Z</time></trkpt><trkpt lat="45.98868547558849" lon="12.128478539947878"><ele>506.0</ele><time>2026-05-03T09:42:57.999Z</time></trkpt><trkpt lat="45.98863933549774" lon="12.128353357400082"><ele>506.0</ele><time>2026-05-03T09:42:58.999Z</time></trkpt><trkpt lat="45.98859461978798" lon="12.128229611124809"><ele>506.0</ele><time>2026-05-03T09:42:59.999Z</time></trkpt><trkpt lat="45.98857836366036" lon="12.128096227123613"><ele>506.3333333333333</ele><time>2026-05-03T09:43:00.999Z</time></trkpt><trkpt lat="45.988590148476426" lon="12.127973409039615"><ele>506.66666666666663</ele><time>2026-05-03T09:43:01.999Z</time></trkpt><trkpt lat="45.98860329789729" lon="12.127864553371273"><ele>507.0</ele><time>2026-05-03T09:43:02.999Z</time></trkpt><trkpt lat="45.988654013766734" lon="12.12778256824994"><ele>507.33333333333337</ele><time>2026-05-03T09:43:03.999Z</time></trkpt><trkpt lat="45.98872839368106" lon="12.127722634716019"><ele>507.6666666666667</ele><time>2026-05-03T09:43:04.999Z</time></trkpt><trkpt lat="45.988787182867384" lon="12.127580907552026"><ele>508.0</ele><time>2026-05-03T09:43:06.999Z</time></trkpt><trkpt lat="45.98874102158829" lon="12.127470521750054"><ele>508.00000000000006</ele><time>2026-05-03T09:43:07.999Z</time></trkpt><trkpt lat="45.988687457540465" lon="12.127398116961523"><ele>508.0</ele><time>2026-05-03T09:43:08.999Z</time></trkpt><trkpt lat="45.98862341334515" lon="12.127341441483274"><ele>508.0</ele><time>2026-05-03T09:43:09.999Z</time></trkpt><trkpt lat="45.988560445274864" lon="12.127266321783111"><ele>508.0</ele><time>2026-05-03T09:43:10.999Z</time></trkpt><trkpt lat="45.9885288439105" lon="12.127145567881369"><ele>508.00000000000006</ele><time>2026-05-03T09:43:11.999Z</time></trkpt><trkpt lat="45.98849925498253" lon="12.12701776837965"><ele>508.0</ele><time>2026-05-03T09:43:12.999Z</time></trkpt><trkpt lat="45.98847459346363" lon="12.126887394417613"><ele>506.4</ele><time>2026-05-03T09:43:14Z</time></trkpt><trkpt lat="45.988441118479074" lon="12.126765028265831"><ele>504.79999999999995</ele><time>2026-05-03T09:43:15Z</time></trkpt><trkpt lat="45.98839565660662" lon="12.126654340067091"><ele>503.2</ele><time>2026-05-03T09:43:16Z</time></trkpt><trkpt lat="45.98832296472442" lon="12.126554155645225"><ele>501.6</ele><time>2026-05-03T09:43:17Z</time></trkpt><trkpt lat="45.98824911442077" lon="12.126455567293204"><ele>500.0</ele><time>2026-05-03T09:43:18Z</time></trkpt><trkpt lat="45.988170271106625" lon="12.126349043302739"><ele>500.0</ele><time>2026-05-03T09:43:19Z</time></trkpt><trkpt lat="45.988101038402924" lon="12.126235553219287"><ele>500.0</ele><time>2026-05-03T09:43:20Z</time></trkpt><trkpt lat="45.98803731872561" lon="12.126113794894602"><ele>500.0</ele><time>2026-05-03T09:43:21Z</time></trkpt><trkpt lat="45.987974683316196" lon="12.125988179207495"><ele>500.0</ele><time>2026-05-03T09:43:22Z</time></trkpt><trkpt lat="45.98791152991483" lon="12.125859964158469"><ele>500.0</ele><time>2026-05-03T09:43:23Z</time></trkpt><trkpt lat="45.9878503999646" lon="12.125735467728898"><ele>504.0</ele><time>2026-05-03T09:43:24Z</time></trkpt><trkpt lat="45.98778372657489" lon="12.125615596051839"><ele>508.0</ele><time>2026-05-03T09:43:25Z</time></trkpt><trkpt lat="45.98770288966816" lon="12.125517224803419"><ele>512.0</ele><time>2026-05-03T09:43:26Z</time></trkpt><trkpt lat="45.98763668564268" lon="12.125403642526917"><ele>516.0</ele><time>2026-05-03T09:43:27Z</time></trkpt><trkpt lat="45.987569589768725" lon="12.125292250857635"><ele>520.0</ele><time>2026-05-03T09:43:28Z</time></trkpt><trkpt lat="45.98750354895712" lon="12.125182680115067"><ele>510.0</ele><time>2026-05-03T09:43:29Z</time></trkpt><trkpt lat="45.98743850594306" lon="12.125078617322195"><ele>500.0</ele><time>2026-05-03T09:43:30Z</time></trkpt><trkpt lat="45.98738143794886" lon="12.12497836449567"><ele>490.0</ele><time>2026-05-03T09:43:31Z</time></trkpt><trkpt lat="45.987333359654926" lon="12.124865852456448"><ele>480.0</ele><time>2026-05-03T09:43:32Z</time></trkpt><trkpt lat="45.9872957703055" lon="12.124769214901885"><ele>470.0</ele><time>2026-05-03T09:43:33Z</time></trkpt><trkpt lat="45.987282182198854" lon="12.12459546202766"><ele>469.16666666666663</ele><time>2026-05-03T09:43:35Z</time></trkpt><trkpt lat="45.9873524595264" lon="12.124546977290132"><ele>468.3333333333333</ele><time>2026-05-03T09:43:36Z</time></trkpt><trkpt lat="45.98739571773415" lon="12.124447910792668"><ele>467.5</ele><time>2026-05-03T09:43:37Z</time></trkpt><trkpt lat="45.987438066134075" lon="12.124324948997259"><ele>466.66666666666663</ele><time>2026-05-03T09:43:38Z</time></trkpt><trkpt lat="45.987469526593266" lon="12.12419395400914"><ele>465.8333333333333</ele><time>2026-05-03T09:43:39Z</time></trkpt><trkpt lat="45.98754008610265" lon="12.124107589826604"><ele>465.0</ele><time>2026-05-03T09:43:40Z</time></trkpt><trkpt lat="45.98760318413964" lon="12.123998876131681"><ele>472.0</ele><time>2026-05-03T09:43:41Z</time></trkpt><trkpt lat="45.98766788267685" lon="12.12389841983761"><ele>479.0</ele><time>2026-05-03T09:43:42Z</time></trkpt><trkpt lat="45.987740005165165" lon="12.123789342559144"><ele>486.0</ele><time>2026-05-03T09:43:43Z</time></trkpt><trkpt lat="45.987807854538616" lon="12.12367865964042"><ele>493.0</ele><time>2026-05-03T09:43:44Z</time></trkpt><trkpt lat="45.9878715721696" lon="12.12356802466563"><ele>500.0</ele><time>2026-05-03T09:43:45Z</time></trkpt><trkpt lat="45.98790570243908" lon="12.12343555883046"><ele>500.0</ele><time>2026-05-03T09:43:46Z</time></trkpt><trkpt lat="45.9879435114901" lon="12.123313722701113"><ele>500.0</ele><time>2026-05-03T09:43:47Z</time></trkpt><trkpt lat="45.98797078210693" lon="12.123160332395837"><ele>500.0</ele><time>2026-05-03T09:43:48Z</time></trkpt><trkpt lat="45.987996530245404" lon="12.123000365476752"><ele>500.0</ele><time>2026-05-03T09:43:49Z</time></trkpt><trkpt lat="45.98803129407916" lon="12.12283535208328"><ele>500.0</ele><time>2026-05-03T09:43:50Z</time></trkpt><trkpt lat="45.988061027764225" lon="12.122672640631682"><ele>494.75</ele><time>2026-05-03T09:43:51Z</time></trkpt><trkpt lat="45.988084021521075" lon="12.122513825124477"><ele>489.5</ele><time>2026-05-03T09:43:52Z</time></trkpt><trkpt lat="45.988096279594885" lon="12.122349758355334"><ele>484.25</ele><time>2026-05-03T09:43:53Z</time></trkpt><trkpt lat="45.988086570129454" lon="12.122185739702552"><ele>479.0</ele><time>2026-05-03T09:43:54Z</time></trkpt><trkpt lat="45.988076606263796" lon="12.122030306002928"><ele>476.2</ele><time>2026-05-03T09:43:55Z</time></trkpt><trkpt lat="45.98807026773931" lon="12.12188052505705"><ele>473.4</ele><time>2026-05-03T09:43:56Z</time></trkpt><trkpt lat="45.988078360600035" lon="12.121734416405623"><ele>470.6</ele><time>2026-05-03T09:43:57Z</time></trkpt><trkpt lat="45.98811973280547" lon="12.121615291559609"><ele>467.8</ele><time>2026-05-03T09:43:58Z</time></trkpt><trkpt lat="45.98815856309169" lon="12.121474778581355"><ele>465.0</ele><time>2026-05-03T09:43:59Z</time></trkpt><trkpt lat="45.98821018268852" lon="12.121356073854642"><ele>464.4</ele><time>2026-05-03T09:44:00Z</time></trkpt><trkpt lat="45.98828109791063" lon="12.121238031555585"><ele>463.8</ele><time>2026-05-03T09:44:01Z</time></trkpt><trkpt lat="45.988337463070025" lon="12.121126060600211"><ele>463.20000000000005</ele><time>2026-05-03T09:44:02Z</time></trkpt><trkpt lat="45.98837838691489" lon="12.121034713859753"><ele>462.6</ele><time>2026-05-03T09:44:03Z</time></trkpt><trkpt lat="45.988383663746774" lon="12.12093642895192"><ele>462.0</ele><time>2026-05-03T09:44:04Z</time></trkpt><trkpt lat="45.9882974065579" lon="12.120812365112391"><ele>462.0</ele><time>2026-05-03T09:44:06Z</time></trkpt><trkpt lat="45.98821725200002" lon="12.120816160322883"><ele>462.00000000000006</ele><time>2026-05-03T09:44:07Z</time></trkpt><trkpt lat="45.98812226250781" lon="12.12084966239856"><ele>462.00000000000006</ele><time>2026-05-03T09:44:08Z</time></trkpt><trkpt lat="45.98803377616234" lon="12.120929322767678"><ele>462.0</ele><time>2026-05-03T09:44:09Z</time></trkpt><trkpt lat="45.98796745875015" lon="12.121050226008341"><ele>462.0</ele><time>2026-05-03T09:44:10Z</time></trkpt><trkpt lat="45.98791319800697" lon="12.121196175317785"><ele>462.0</ele><time>2026-05-03T09:44:11Z</time></trkpt><trkpt lat="45.98786284753795" lon="12.12135109065755"><ele>462.0</ele><time>2026-05-03T09:44:12Z</time></trkpt><trkpt lat="45.987817139492094" lon="12.121506516494739"><ele>462.0</ele><time>2026-05-03T09:44:13Z</time></trkpt><trkpt lat="45.987768606315946" lon="12.121656563642974"><ele>462.0</ele><time>2026-05-03T09:44:14Z</time></trkpt><trkpt lat="45.98770672493886" lon="12.121802917541071"><ele>462.75</ele><time>2026-05-03T09:44:15Z</time></trkpt><trkpt lat="45.98765063683123" lon="12.12195085767188"><ele>463.5</ele><time>2026-05-03T09:44:16Z</time></trkpt><trkpt lat="45.98758625583071" lon="12.122088038656711"><ele>464.25</ele><time>2026-05-03T09:44:17Z</time></trkpt><trkpt lat="45.98750526044744" lon="12.122211637903444"><ele>465.0</ele><time>2026-05-03T09:44:18Z</time></trkpt><trkpt lat="45.987421891933856" lon="12.122338289677058"><ele>458.25</ele><time>2026-05-03T09:44:19Z</time></trkpt><trkpt lat="45.98734679570764" lon="12.122482052034453"><ele>451.5</ele><time>2026-05-03T09:44:20Z</time></trkpt><trkpt lat="45.98726250741394" lon="12.122605057959936"><ele>444.75</ele><time>2026-05-03T09:44:21Z</time></trkpt><trkpt lat="45.9871625510731" lon="12.122701590059096"><ele>438.0</ele><time>2026-05-03T09:44:22Z</time></trkpt><trkpt lat="45.98706958155317" lon="12.12280587674409"><ele>438.0</ele><time>2026-05-03T09:44:23Z</time></trkpt><trkpt lat="45.98697536499772" lon="12.12291041359105"><ele>438.0</ele><time>2026-05-03T09:44:24Z</time></trkpt><trkpt lat="45.98688276241242" lon="12.123015668110916"><ele>438.0</ele><time>2026-05-03T09:44:25Z</time></trkpt><trkpt lat="45.98677270118777" lon="12.123092943477157"><ele>438.0</ele><time>2026-05-03T09:44:25.999Z</time></trkpt><trkpt lat="45.98668197574059" lon="12.123210091091822"><ele>432.5</ele><time>2026-05-03T09:44:26.999Z</time></trkpt><trkpt lat="45.98658376430831" lon="12.123302265230402"><ele>427.0</ele><time>2026-05-03T09:44:27.999Z</time></trkpt><trkpt lat="45.98648891610674" lon="12.123402626465328"><ele>421.5</ele><time>2026-05-03T09:44:28.999Z</time></trkpt><trkpt lat="45.98639727964552" lon="12.123515745982639"><ele>416.0</ele><time>2026-05-03T09:44:29.999Z</time></trkpt><trkpt lat="45.98630459561829" lon="12.123623949698413"><ele>416.0</ele><time>2026-05-03T09:44:30.999Z</time></trkpt><trkpt lat="45.98620817953475" lon="12.123718781436402"><ele>416.0</ele><time>2026-05-03T09:44:31.999Z</time></trkpt><trkpt lat="45.986095623873666" lon="12.123767891235627"><ele>416.0</ele><time>2026-05-03T09:44:32.999Z</time></trkpt><trkpt lat="45.98598200963274" lon="12.123815367060837"><ele>416.0</ele><time>2026-05-03T09:44:33.999Z</time></trkpt><trkpt lat="45.985868199804365" lon="12.123854618905332"><ele>413.4</ele><time>2026-05-03T09:44:34.999Z</time></trkpt><trkpt lat="45.985756183506474" lon="12.123882383694761"><ele>410.8</ele><time>2026-05-03T09:44:35.999Z</time></trkpt><trkpt lat="45.98565647293979" lon="12.123880050590932"><ele>408.2</ele><time>2026-05-03T09:44:36.999Z</time></trkpt><trkpt lat="45.98555172453294" lon="12.123859294911043"><ele>405.59999999999997</ele><time>2026-05-03T09:44:37.999Z</time></trkpt><trkpt lat="45.985446037386914" lon="12.123848237696622"><ele>403.0</ele><time>2026-05-03T09:44:38.999Z</time></trkpt><trkpt lat="45.98535171100202" lon="12.12381866973491"><ele>403.0</ele><time>2026-05-03T09:44:39.999Z</time></trkpt><trkpt lat="45.985247368382126" lon="12.123797964349462"><ele>403.0</ele><time>2026-05-03T09:44:40.999Z</time></trkpt><trkpt lat="45.98515210806549" lon="12.123777122004102"><ele>403.0</ele><time>2026-05-03T09:44:41.999Z</time></trkpt><trkpt lat="45.985054811208705" lon="12.123754727863831"><ele>403.0</ele><time>2026-05-03T09:44:42.999Z</time></trkpt><trkpt lat="45.9849478500747" lon="12.123728544149865"><ele>403.0</ele><time>2026-05-03T09:44:43.999Z</time></trkpt><trkpt lat="45.98483789708337" lon="12.123682052918282"><ele>401.59999999999997</ele><time>2026-05-03T09:44:44.999Z</time></trkpt><trkpt lat="45.98473561419666" lon="12.123606405821088"><ele>400.2</ele><time>2026-05-03T09:44:45.999Z</time></trkpt><trkpt lat="45.98463827950391" lon="12.1235790351796"><ele>398.8</ele><time>2026-05-03T09:44:46.999Z</time></trkpt><trkpt lat="45.98454976663686" lon="12.123556782540481"><ele>397.4</ele><time>2026-05-03T09:44:47.999Z</time></trkpt><trkpt lat="45.98445409405746" lon="12.12359397674472"><ele>396.0</ele><time>2026-05-03T09:44:48.998Z</time></trkpt><trkpt lat="45.98436542920364" lon="12.123654467726773"><ele>396.0</ele><time>2026-05-03T09:44:49.998Z</time></trkpt><trkpt lat="45.98428245558759" lon="12.12370719623217"><ele>396.0</ele><time>2026-05-03T09:44:50.998Z</time></trkpt><trkpt lat="45.98417928580239" lon="12.123742337473406"><ele>396.0</ele><time>2026-05-03T09:44:51.998Z</time></trkpt><trkpt lat="45.984077566029455" lon="12.123765893781956"><ele>396.0</ele><time>2026-05-03T09:44:52.998Z</time></trkpt><trkpt lat="45.98397676245186" lon="12.123789220862665"><ele>396.0</ele><time>2026-05-03T09:44:53.998Z</time></trkpt><trkpt lat="45.98387643876875" lon="12.123815578730598"><ele>393.6</ele><time>2026-05-03T09:44:54.998Z</time></trkpt><trkpt lat="45.98377037510568" lon="12.123835860549715"><ele>391.20000000000005</ele><time>2026-05-03T09:44:55.998Z</time></trkpt><trkpt lat="45.98367417229936" lon="12.123853310914603"><ele>388.79999999999995</ele><time>2026-05-03T09:44:56.998Z</time></trkpt><trkpt lat="45.98356870997667" lon="12.123854778238963"><ele>386.4</ele><time>2026-05-03T09:44:57.998Z</time></trkpt><trkpt lat="45.983467273268836" lon="12.123840424112844"><ele>384.0</ele><time>2026-05-03T09:44:58.998Z</time></trkpt><trkpt lat="45.98336600712176" lon="12.1238449846555"><ele>382.2</ele><time>2026-05-03T09:44:59.998Z</time></trkpt><trkpt lat="45.98325980843313" lon="12.123864805682967"><ele>380.4</ele><time>2026-05-03T09:45:00.998Z</time></trkpt><trkpt lat="45.98315318489351" lon="12.12387534557377"><ele>378.6</ele><time>2026-05-03T09:45:01.998Z</time></trkpt><trkpt lat="45.98304890902332" lon="12.123862424437364"><ele>376.8</ele><time>2026-05-03T09:45:02.998Z</time></trkpt><trkpt lat="45.98294503799587" lon="12.123847692318956"><ele>375.0</ele><time>2026-05-03T09:45:03.998Z</time></trkpt><trkpt lat="45.982840358014414" lon="12.123824024819138"><ele>375.0</ele><time>2026-05-03T09:45:04.998Z</time></trkpt><trkpt lat="45.982735063464006" lon="12.12378770529804"><ele>375.0</ele><time>2026-05-03T09:45:05.998Z</time></trkpt><trkpt lat="45.98262274009043" lon="12.12375214019009"><ele>375.0</ele><time>2026-05-03T09:45:06.998Z</time></trkpt><trkpt lat="45.98251015634922" lon="12.123700229913"><ele>375.0</ele><time>2026-05-03T09:45:07.998Z</time></trkpt><trkpt lat="45.98240083296154" lon="12.123628218150053"><ele>372.0</ele><time>2026-05-03T09:45:08.998Z</time></trkpt><trkpt lat="45.982286446129145" lon="12.12355299553249"><ele>369.0</ele><time>2026-05-03T09:45:09.998Z</time></trkpt><trkpt lat="45.98218224917633" lon="12.123478015451385"><ele>366.0</ele><time>2026-05-03T09:45:10.998Z</time></trkpt><trkpt lat="45.98208786183602" lon="12.123411783937309"><ele>363.0</ele><time>2026-05-03T09:45:11.998Z</time></trkpt><trkpt lat="45.98199299233283" lon="12.123347884969782"><ele>363.0</ele><time>2026-05-03T09:45:12.998Z</time></trkpt><trkpt lat="45.981907445789716" lon="12.123292936486667"><ele>363.0</ele><time>2026-05-03T09:45:13.998Z</time></trkpt><trkpt lat="45.98184563388209" lon="12.123253311684485"><ele>363.0</ele><time>2026-05-03T09:45:14.998Z</time></trkpt><trkpt lat="45.981775335276296" lon="12.123224489247932"><ele>363.0</ele><time>2026-05-03T09:45:18.998Z</time></trkpt><trkpt lat="45.98168299233868" lon="12.123239197160979"><ele>363.0</ele><time>2026-05-03T09:45:21.999Z</time></trkpt><trkpt lat="45.981606214909355" lon="12.12325628637303"><ele>363.0</ele><time>2026-05-03T09:45:22.999Z</time></trkpt><trkpt lat="45.981525017519594" lon="12.123280209055197"><ele>360.4</ele><time>2026-05-03T09:45:23.999Z</time></trkpt><trkpt lat="45.98144110570256" lon="12.123289750532209"><ele>357.79999999999995</ele><time>2026-05-03T09:45:24.999Z</time></trkpt><trkpt lat="45.98134123434323" lon="12.123314984438153"><ele>355.2</ele><time>2026-05-03T09:45:25.999Z</time></trkpt><trkpt lat="45.981247809912745" lon="12.123341374427815"><ele>352.6</ele><time>2026-05-03T09:45:26.999Z</time></trkpt><trkpt lat="45.98114953032493" lon="12.123332399168556"><ele>350.0</ele><time>2026-05-03T09:45:27.999Z</time></trkpt><trkpt lat="45.98107406616693" lon="12.123326340699574"><ele>350.0</ele><time>2026-05-03T09:45:28.999Z</time></trkpt><trkpt lat="45.98100693740901" lon="12.123306542787939"><ele>350.0</ele><time>2026-05-03T09:45:29.999Z</time></trkpt><trkpt lat="45.98094823836747" lon="12.123243767415898"><ele>350.0</ele><time>2026-05-03T09:45:30.999Z</time></trkpt><trkpt lat="45.9808821106217" lon="12.123185314313304"><ele>350.0</ele><time>2026-05-03T09:45:31.999Z</time></trkpt><trkpt lat="45.980817172032715" lon="12.12310945961274"><ele>350.0</ele><time>2026-05-03T09:45:32.999Z</time></trkpt><trkpt lat="45.98071828132372" lon="12.123146167240954"><ele>350.0</ele><time>2026-05-03T09:45:33.999Z</time></trkpt><trkpt lat="45.980635493797934" lon="12.123194952400874"><ele>349.4</ele><time>2026-05-03T09:45:34.999Z</time></trkpt><trkpt lat="45.98055651048722" lon="12.123261477196058"><ele>348.8</ele><time>2026-05-03T09:45:35.999Z</time></trkpt><trkpt lat="45.980476470404305" lon="12.123314983792183"><ele>348.20000000000005</ele><time>2026-05-03T09:45:36.999Z</time></trkpt><trkpt lat="45.98037780949546" lon="12.123360804234531"><ele>347.6</ele><time>2026-05-03T09:45:37.999Z</time></trkpt><trkpt lat="45.98027895144309" lon="12.123410233361996"><ele>347.0</ele><time>2026-05-03T09:45:38.999Z</time></trkpt><trkpt lat="45.980192839203184" lon="12.123462741562777"><ele>347.0</ele><time>2026-05-03T09:45:39.999Z</time></trkpt><trkpt lat="45.98009573231152" lon="12.123501743809088"><ele>347.0</ele><time>2026-05-03T09:45:40.999Z</time></trkpt><trkpt lat="45.98001826762267" lon="12.123575339538787"><ele>347.0</ele><time>2026-05-03T09:45:41.999Z</time></trkpt><trkpt lat="45.97995352332984" lon="12.123627133894848"><ele>347.0</ele><time>2026-05-03T09:45:42.999Z</time></trkpt><trkpt lat="45.979918569310264" lon="12.1237347496802"><ele>347.0</ele><time>2026-05-03T09:45:43.999Z</time></trkpt><trkpt lat="45.979898971791826" lon="12.123839826988814"><ele>347.0</ele><time>2026-05-03T09:45:44.999Z</time></trkpt><trkpt lat="45.97988543120543" lon="12.123929553195758"><ele>347.8</ele><time>2026-05-03T09:45:45.999Z</time></trkpt><trkpt lat="45.97978862070539" lon="12.12404312158894"><ele>348.6</ele><time>2026-05-03T09:45:47.999Z</time></trkpt><trkpt lat="45.97971012918652" lon="12.124034880864782"><ele>349.40000000000003</ele><time>2026-05-03T09:45:48.999Z</time></trkpt><trkpt lat="45.97962226977985" lon="12.124039006421535"><ele>350.20000000000005</ele><time>2026-05-03T09:45:49.999Z</time></trkpt><trkpt lat="45.979534750745216" lon="12.124036903390738"><ele>351.0</ele><time>2026-05-03T09:45:50.999Z</time></trkpt><trkpt lat="45.9794478809497" lon="12.124025835071498"><ele>351.0</ele><time>2026-05-03T09:45:51.999Z</time></trkpt><trkpt lat="45.97936933751498" lon="12.123994212692363"><ele>351.0</ele><time>2026-05-03T09:45:52.999Z</time></trkpt><trkpt lat="45.97928367493052" lon="12.123958701669423"><ele>351.0</ele><time>2026-05-03T09:45:53.999Z</time></trkpt><trkpt lat="45.97921181387713" lon="12.123905582288122"><ele>351.0</ele><time>2026-05-03T09:45:54.999Z</time></trkpt><trkpt lat="45.97912303190836" lon="12.123843226979837"><ele>351.0</ele><time>2026-05-03T09:45:55.999Z</time></trkpt><trkpt lat="45.979033456162426" lon="12.123780314165167"><ele>349.8</ele><time>2026-05-03T09:45:56.999Z</time></trkpt><trkpt lat="45.97894413295589" lon="12.123717578721353"><ele>348.6</ele><time>2026-05-03T09:45:57.999Z</time></trkpt><trkpt lat="45.978853695237675" lon="12.12365406051359"><ele>347.4</ele><time>2026-05-03T09:45:58.999Z</time></trkpt><trkpt lat="45.97876174924119" lon="12.123597920474516"><ele>346.2</ele><time>2026-05-03T09:45:59.999Z</time></trkpt><trkpt lat="45.97866846418971" lon="12.123597784662024"><ele>345.0</ele><time>2026-05-03T09:46:00.999Z</time></trkpt><trkpt lat="45.97858628690496" lon="12.123611273816165"><ele>345.0</ele><time>2026-05-03T09:46:01.999Z</time></trkpt><trkpt lat="45.97852188839022" lon="12.123673225872395"><ele>345.0</ele><time>2026-05-03T09:46:02.999Z</time></trkpt><trkpt lat="45.978423739434376" lon="12.123719282331008"><ele>345.0</ele><time>2026-05-03T09:46:03.999Z</time></trkpt><trkpt lat="45.97833096641512" lon="12.123765398633102"><ele>345.0</ele><time>2026-05-03T09:46:04.999Z</time></trkpt><trkpt lat="45.978234609296116" lon="12.123730399945865"><ele>345.0</ele><time>2026-05-03T09:46:05.999Z</time></trkpt><trkpt lat="45.978129797248606" lon="12.12371635897054"><ele>343.0</ele><time>2026-05-03T09:46:06.999Z</time></trkpt><trkpt lat="45.97803095151736" lon="12.123703117265139"><ele>341.0</ele><time>2026-05-03T09:46:07.999Z</time></trkpt><trkpt lat="45.977934291879656" lon="12.12371014719471"><ele>339.0</ele><time>2026-05-03T09:46:08.999Z</time></trkpt><trkpt lat="45.977842938497545" lon="12.123704907987463"><ele>337.0</ele><time>2026-05-03T09:46:09.999Z</time></trkpt><trkpt lat="45.97776365237648" lon="12.123711279689475"><ele>335.0</ele><time>2026-05-03T09:46:10.999Z</time></trkpt><trkpt lat="45.977681774884424" lon="12.123757266595057"><ele>335.0</ele><time>2026-05-03T09:46:11.999Z</time></trkpt><trkpt lat="45.97759882834657" lon="12.123828128852093"><ele>335.0</ele><time>2026-05-03T09:46:12.999Z</time></trkpt><trkpt lat="45.97751321212071" lon="12.123908265177601"><ele>335.0</ele><time>2026-05-03T09:46:13.999Z</time></trkpt><trkpt lat="45.97742630896149" lon="12.12397549025379"><ele>335.0</ele><time>2026-05-03T09:46:14.999Z</time></trkpt><trkpt lat="45.97734379848927" lon="12.124023558591208"><ele>335.0</ele><time>2026-05-03T09:46:15.999Z</time></trkpt><trkpt lat="45.97726219991219" lon="12.124074009578253"><ele>330.6666666666667</ele><time>2026-05-03T09:46:16.999Z</time></trkpt><trkpt lat="45.97718196838478" lon="12.12412544779392"><ele>326.33333333333337</ele><time>2026-05-03T09:46:17.999Z</time></trkpt><trkpt lat="45.97709971990132" lon="12.124182072716964"><ele>322.0</ele><time>2026-05-03T09:46:18.999Z</time></trkpt><trkpt lat="45.97702300662512" lon="12.124236946843228"><ele>317.6666666666667</ele><time>2026-05-03T09:46:19.999Z</time></trkpt><trkpt lat="45.97694480183372" lon="12.124280136192132"><ele>313.3333333333333</ele><time>2026-05-03T09:46:20.999Z</time></trkpt><trkpt lat="45.97685534975369" lon="12.124290733909515"><ele>309.0</ele><time>2026-05-03T09:46:21.999Z</time></trkpt><trkpt lat="45.976767668024486" lon="12.124314131473954"><ele>308.0</ele><time>2026-05-03T09:46:22.999Z</time></trkpt><trkpt lat="45.976680220415375" lon="12.124287357254598"><ele>307.0</ele><time>2026-05-03T09:46:23.999Z</time></trkpt><trkpt lat="45.976587787247105" lon="12.124231365169482"><ele>306.0</ele><time>2026-05-03T09:46:24.999Z</time></trkpt><trkpt lat="45.97648778351902" lon="12.124187966444302"><ele>305.0</ele><time>2026-05-03T09:46:25.999Z</time></trkpt><trkpt lat="45.97638740775335" lon="12.124151353819203"><ele>304.0</ele><time>2026-05-03T09:46:26.999Z</time></trkpt><trkpt lat="45.97628407065118" lon="12.124129293399987"><ele>304.0</ele><time>2026-05-03T09:46:27.999Z</time></trkpt><trkpt lat="45.976178792401896" lon="12.124099615838954"><ele>304.0</ele><time>2026-05-03T09:46:28.999Z</time></trkpt><trkpt lat="45.97607446977101" lon="12.124071311861895"><ele>304.0</ele><time>2026-05-03T09:46:29.999Z</time></trkpt><trkpt lat="45.975973555543064" lon="12.124049287666264"><ele>304.0</ele><time>2026-05-03T09:46:30.999Z</time></trkpt><trkpt lat="45.97586285769307" lon="12.124056853945858"><ele>304.0</ele><time>2026-05-03T09:46:31.999Z</time></trkpt><trkpt lat="45.97574149835054" lon="12.12408929802626"><ele>302.0</ele><time>2026-05-03T09:46:32.999Z</time></trkpt><trkpt lat="45.97561370070776" lon="12.124125987925781"><ele>300.0</ele><time>2026-05-03T09:46:33.999Z</time></trkpt><trkpt lat="45.97548945031457" lon="12.124143204019685"><ele>298.0</ele><time>2026-05-03T09:46:34.999Z</time></trkpt><trkpt lat="45.97536322043407" lon="12.124169860894387"><ele>296.0</ele><time>2026-05-03T09:46:35.999Z</time></trkpt><trkpt lat="45.97523810457775" lon="12.124163203621308"><ele>296.0</ele><time>2026-05-03T09:46:36.999Z</time></trkpt><trkpt lat="45.97510941682175" lon="12.12418356837383"><ele>296.0</ele><time>2026-05-03T09:46:37.999Z</time></trkpt><trkpt lat="45.97498588595674" lon="12.12421948105336"><ele>296.0</ele><time>2026-05-03T09:46:38.999Z</time></trkpt><trkpt lat="45.974875068370075" lon="12.124278239674915"><ele>296.0</ele><time>2026-05-03T09:46:39.999Z</time></trkpt><trkpt lat="45.9747623089925" lon="12.124313353682538"><ele>294.0</ele><time>2026-05-03T09:46:40.999Z</time></trkpt><trkpt lat="45.974649837078886" lon="12.1242995341184"><ele>292.0</ele><time>2026-05-03T09:46:41.999Z</time></trkpt><trkpt lat="45.97454762477479" lon="12.124258139931989"><ele>290.0</ele><time>2026-05-03T09:46:42.999Z</time></trkpt><trkpt lat="45.9744407259013" lon="12.124227650285794"><ele>288.0</ele><time>2026-05-03T09:46:43.999Z</time></trkpt><trkpt lat="45.974334770524344" lon="12.124231646744162"><ele>286.0</ele><time>2026-05-03T09:46:44.999Z</time></trkpt><trkpt lat="45.974226906475856" lon="12.124239207447078"><ele>285.5</ele><time>2026-05-03T09:46:45.999Z</time></trkpt><trkpt lat="45.97412920239339" lon="12.12426192831049"><ele>285.0</ele><time>2026-05-03T09:46:46.999Z</time></trkpt><trkpt lat="45.97403070828501" lon="12.124314628290072"><ele>284.5</ele><time>2026-05-03T09:46:47.999Z</time></trkpt><trkpt lat="45.973919065215995" lon="12.12439881640118"><ele>284.0</ele><time>2026-05-03T09:46:48.999Z</time></trkpt><trkpt lat="45.9738051370628" lon="12.12450656899756"><ele>284.0</ele><time>2026-05-03T09:46:49.999Z</time></trkpt><trkpt lat="45.97369600294452" lon="12.124606799271602"><ele>284.0</ele><time>2026-05-03T09:46:50.999Z</time></trkpt><trkpt lat="45.973591893744135" lon="12.12469498060855"><ele>284.0</ele><time>2026-05-03T09:46:51.999Z</time></trkpt><trkpt lat="45.97349034714417" lon="12.124742938146754"><ele>284.0</ele><time>2026-05-03T09:46:52.999Z</time></trkpt><trkpt lat="45.973399125956774" lon="12.124805093965072"><ele>283.8</ele><time>2026-05-03T09:46:53.999Z</time></trkpt><trkpt lat="45.973309572999" lon="12.124867905518173"><ele>283.59999999999997</ele><time>2026-05-03T09:46:54.999Z</time></trkpt><trkpt lat="45.973238220405925" lon="12.124955214111802"><ele>283.4</ele><time>2026-05-03T09:46:55.999Z</time></trkpt><trkpt lat="45.97315835408915" lon="12.12502569123348"><ele>283.2</ele><time>2026-05-03T09:46:56.999Z</time></trkpt><trkpt lat="45.973084680062485" lon="12.125096482028475"><ele>283.0</ele><time>2026-05-03T09:46:57.999Z</time></trkpt><trkpt lat="45.97301438271363" lon="12.125171481338777"><ele>283.0</ele><time>2026-05-03T09:46:58.999Z</time></trkpt><trkpt lat="45.97295111755942" lon="12.12526177236716"><ele>283.0</ele><time>2026-05-03T09:46:59.999Z</time></trkpt><trkpt lat="45.972898736014386" lon="12.125368677367176"><ele>283.0</ele><time>2026-05-03T09:47:00.999Z</time></trkpt><trkpt lat="45.972865200087675" lon="12.125473631418975"><ele>283.0</ele><time>2026-05-03T09:47:01.999Z</time></trkpt><trkpt lat="45.97284451368531" lon="12.125577821337977"><ele>283.0</ele><time>2026-05-03T09:47:02.999Z</time></trkpt><trkpt lat="45.97281533165793" lon="12.125679144736322"><ele>283.0</ele><time>2026-05-03T09:47:03.999Z</time></trkpt><trkpt lat="45.97278184187486" lon="12.125774098952137"><ele>283.0</ele><time>2026-05-03T09:47:04.999Z</time></trkpt><trkpt lat="45.97274201736449" lon="12.125867847246901"><ele>283.0</ele><time>2026-05-03T09:47:05.999Z</time></trkpt><trkpt lat="45.97270339236292" lon="12.12595388367254"><ele>283.0</ele><time>2026-05-03T09:47:06.999Z</time></trkpt><trkpt lat="45.972643777844645" lon="12.126005615363516"><ele>283.0</ele><time>2026-05-03T09:47:07.999Z</time></trkpt><trkpt lat="45.97253274558897" lon="12.126072727281421"><ele>283.0</ele><time>2026-05-03T09:47:09.999Z</time></trkpt><trkpt lat="45.97245298262157" lon="12.126110448025088"><ele>283.0</ele><time>2026-05-03T09:47:10.999Z</time></trkpt><trkpt lat="45.972371426200226" lon="12.126147234673123"><ele>281.66666666666663</ele><time>2026-05-03T09:47:11.999Z</time></trkpt><trkpt lat="45.97228775937334" lon="12.12617017052649"><ele>280.3333333333333</ele><time>2026-05-03T09:47:12.999Z</time></trkpt><trkpt lat="45.97219663063955" lon="12.126162876471481"><ele>279.0</ele><time>2026-05-03T09:47:13.999Z</time></trkpt><trkpt lat="45.97210349288241" lon="12.126162005616093"><ele>277.6666666666667</ele><time>2026-05-03T09:47:14.999Z</time></trkpt><trkpt lat="45.97201953728765" lon="12.126161220615673"><ele>276.33333333333337</ele><time>2026-05-03T09:47:15.999Z</time></trkpt><trkpt lat="45.971938001657946" lon="12.126160458243367"><ele>275.0</ele><time>2026-05-03T09:47:16.999Z</time></trkpt><trkpt lat="45.971861579582495" lon="12.126179963665082"><ele>275.0</ele><time>2026-05-03T09:47:17.999Z</time></trkpt><trkpt lat="45.97177631623814" lon="12.126182228516843"><ele>275.0</ele><time>2026-05-03T09:47:18.999Z</time></trkpt><trkpt lat="45.971685156824336" lon="12.126184795495167"><ele>275.0</ele><time>2026-05-03T09:47:19.999Z</time></trkpt><trkpt lat="45.97159790782008" lon="12.126166762063791"><ele>275.0</ele><time>2026-05-03T09:47:20.999Z</time></trkpt><trkpt lat="45.97150879127539" lon="12.126221740442832"><ele>275.0</ele><time>2026-05-03T09:47:21.999Z</time></trkpt><trkpt lat="45.97142146059685" lon="12.12627604364664"><ele>273.25</ele><time>2026-05-03T09:47:22.999Z</time></trkpt><trkpt lat="45.971330844314814" lon="12.12633344670194"><ele>271.5</ele><time>2026-05-03T09:47:23.999Z</time></trkpt><trkpt lat="45.97122549584938" lon="12.126401349667029"><ele>269.75</ele><time>2026-05-03T09:47:24.999Z</time></trkpt><trkpt lat="45.97110666768688" lon="12.12645230376811"><ele>268.0</ele><time>2026-05-03T09:47:25.999Z</time></trkpt><trkpt lat="45.97100908112433" lon="12.126539716401007"><ele>268.5</ele><time>2026-05-03T09:47:26.999Z</time></trkpt><trkpt lat="45.970899437389335" lon="12.126614261577812"><ele>269.0</ele><time>2026-05-03T09:47:27.999Z</time></trkpt><trkpt lat="45.97080246048214" lon="12.126710920839486"><ele>269.5</ele><time>2026-05-03T09:47:28.999Z</time></trkpt><trkpt lat="45.970695399910625" lon="12.126814414958426"><ele>270.0</ele><time>2026-05-03T09:47:29.999Z</time></trkpt><trkpt lat="45.97059888769986" lon="12.126913911195263"><ele>267.5</ele><time>2026-05-03T09:47:30.999Z</time></trkpt><trkpt lat="45.97050117084726" lon="12.127000824107256"><ele>265.0</ele><time>2026-05-03T09:47:31.999Z</time></trkpt><trkpt lat="45.97039853279283" lon="12.12710420514281"><ele>262.5</ele><time>2026-05-03T09:47:33Z</time></trkpt><trkpt lat="45.97030368859795" lon="12.127209938187468"><ele>260.0</ele><time>2026-05-03T09:47:34Z</time></trkpt><trkpt lat="45.970216094762755" lon="12.127324266735723"><ele>260.5</ele><time>2026-05-03T09:47:35Z</time></trkpt><trkpt lat="45.970139693930214" lon="12.127468327276501"><ele>261.0</ele><time>2026-05-03T09:47:36Z</time></trkpt><trkpt lat="45.97005749803553" lon="12.12760604369051"><ele>261.5</ele><time>2026-05-03T09:47:37Z</time></trkpt><trkpt lat="45.96997584085773" lon="12.127747898962879"><ele>262.0</ele><time>2026-05-03T09:47:38Z</time></trkpt><trkpt lat="45.9698947029509" lon="12.127880574895434"><ele>260.5</ele><time>2026-05-03T09:47:39Z</time></trkpt><trkpt lat="45.96981174975316" lon="12.127993450779439"><ele>259.0</ele><time>2026-05-03T09:47:40Z</time></trkpt><trkpt lat="45.969716431819705" lon="12.128087713760118"><ele>257.5</ele><time>2026-05-03T09:47:41Z</time></trkpt><trkpt lat="45.96960726555726" lon="12.12815019941543"><ele>256.0</ele><time>2026-05-03T09:47:42Z</time></trkpt><trkpt lat="45.96949183115831" lon="12.1281420523892"><ele>256.0</ele><time>2026-05-03T09:47:43Z</time></trkpt><trkpt lat="45.96938208810805" lon="12.128171163955606"><ele>256.0</ele><time>2026-05-03T09:47:44Z</time></trkpt><trkpt lat="45.96927292228776" lon="12.128225682684151"><ele>256.0</ele><time>2026-05-03T09:47:45Z</time></trkpt><trkpt lat="45.96916379284447" lon="12.128272641595844"><ele>256.0</ele><time>2026-05-03T09:47:46Z</time></trkpt><trkpt lat="45.969062874449385" lon="12.128327105671648"><ele>256.0</ele><time>2026-05-03T09:47:47Z</time></trkpt><trkpt lat="45.96896224450836" lon="12.128375003905878"><ele>254.4</ele><time>2026-05-03T09:47:48Z</time></trkpt><trkpt lat="45.96886408908514" lon="12.128398215125651"><ele>252.8</ele><time>2026-05-03T09:47:49Z</time></trkpt><trkpt lat="45.968768057019545" lon="12.128355500532628"><ele>251.20000000000002</ele><time>2026-05-03T09:47:50Z</time></trkpt><trkpt lat="45.96867553931269" lon="12.128326336469387"><ele>249.60000000000002</ele><time>2026-05-03T09:47:51Z</time></trkpt><trkpt lat="45.96857428501798" lon="12.12827874156059"><ele>248.0</ele><time>2026-05-03T09:47:52Z</time></trkpt><trkpt lat="45.968480591029426" lon="12.128229834901115"><ele>247.83333333333334</ele><time>2026-05-03T09:47:53Z</time></trkpt><trkpt lat="45.96839716098105" lon="12.128184643627401"><ele>247.66666666666669</ele><time>2026-05-03T09:47:54Z</time></trkpt><trkpt lat="45.968314326500035" lon="12.128163425388731"><ele>247.5</ele><time>2026-05-03T09:47:55Z</time></trkpt><trkpt lat="45.968224326823794" lon="12.128102039196447"><ele>247.33333333333331</ele><time>2026-05-03T09:47:57Z</time></trkpt><trkpt lat="45.96816472168794" lon="12.12806088183579"><ele>247.16666666666666</ele><time>2026-05-03T09:48:01Z</time></trkpt><trkpt lat="45.96814691552062" lon="12.128155929661618"><ele>247.0</ele><time>2026-05-03T09:48:02.999Z</time></trkpt><trkpt lat="45.96812300220892" lon="12.12824754696763"><ele>246.49999999999997</ele><time>2026-05-03T09:48:03.999Z</time></trkpt><trkpt lat="45.96810773097334" lon="12.128356237644693"><ele>246.0</ele><time>2026-05-03T09:48:04.999Z</time></trkpt><trkpt lat="45.96809352631256" lon="12.12846726066689"><ele>245.5</ele><time>2026-05-03T09:48:05.999Z</time></trkpt><trkpt lat="45.96807999839405" lon="12.128590588823755"><ele>245.0</ele><time>2026-05-03T09:48:06.999Z</time></trkpt><trkpt lat="45.96808761930158" lon="12.128726097904464"><ele>244.49999999999997</ele><time>2026-05-03T09:48:07.999Z</time></trkpt><trkpt lat="45.96807459975679" lon="12.128872972056612"><ele>244.0</ele><time>2026-05-03T09:48:08.999Z</time></trkpt><trkpt lat="45.96806973886824" lon="12.129021954975736"><ele>243.83333333333331</ele><time>2026-05-03T09:48:09.999Z</time></trkpt><trkpt lat="45.96806293891213" lon="12.129168984283396"><ele>243.66666666666666</ele><time>2026-05-03T09:48:10.999Z</time></trkpt><trkpt lat="45.968065905803236" lon="12.12930521933083"><ele>243.5</ele><time>2026-05-03T09:48:11.999Z</time></trkpt><trkpt lat="45.96806644787005" lon="12.129422902281773"><ele>243.33333333333331</ele><time>2026-05-03T09:48:12.999Z</time></trkpt><trkpt lat="45.968073452611826" lon="12.129526193256863"><ele>243.16666666666666</ele><time>2026-05-03T09:48:13.999Z</time></trkpt><trkpt lat="45.96808706591512" lon="12.129618089429048"><ele>243.0</ele><time>2026-05-03T09:48:14.999Z</time></trkpt><trkpt lat="45.96811134201434" lon="12.12974627525116"><ele>243.0</ele><time>2026-05-03T09:48:16.999Z</time></trkpt><trkpt lat="45.96800875362069" lon="12.129852930178906"><ele>243.0</ele><time>2026-05-03T09:48:19.999Z</time></trkpt><trkpt lat="45.96793055559767" lon="12.1299422002201"><ele>243.0</ele><time>2026-05-03T09:48:20.999Z</time></trkpt><trkpt lat="45.96783171768917" lon="12.130014737069686"><ele>243.0</ele><time>2026-05-03T09:48:21.999Z</time></trkpt><trkpt lat="45.96773073934923" lon="12.13009301773531"><ele>242.8</ele><time>2026-05-03T09:48:22.999Z</time></trkpt><trkpt lat="45.96763460075107" lon="12.130172250367467"><ele>242.60000000000002</ele><time>2026-05-03T09:48:23.999Z</time></trkpt><trkpt lat="45.967537478552586" lon="12.130243849877303"><ele>242.39999999999998</ele><time>2026-05-03T09:48:24.999Z</time></trkpt><trkpt lat="45.96745807294418" lon="12.130335319988195"><ele>242.2</ele><time>2026-05-03T09:48:25.999Z</time></trkpt><trkpt lat="45.96739328887846" lon="12.130469442865657"><ele>242.0</ele><time>2026-05-03T09:48:26.999Z</time></trkpt><trkpt lat="45.96734457364092" lon="12.130638378499203"><ele>241.0</ele><time>2026-05-03T09:48:27.999Z</time></trkpt><trkpt lat="45.967283724211505" lon="12.130823135904654"><ele>240.0</ele><time>2026-05-03T09:48:28.999Z</time></trkpt><trkpt lat="45.967210855534304" lon="12.131004212272352"><ele>239.0</ele><time>2026-05-03T09:48:29.999Z</time></trkpt><trkpt lat="45.967136935722195" lon="12.131178492920881"><ele>238.0</ele><time>2026-05-03T09:48:30.999Z</time></trkpt><trkpt lat="45.96706770049011" lon="12.131345875964286"><ele>238.0</ele><time>2026-05-03T09:48:31.999Z</time></trkpt><trkpt lat="45.96700354563257" lon="12.131513520230842"><ele>238.0</ele><time>2026-05-03T09:48:32.999Z</time></trkpt><trkpt lat="45.966936459702104" lon="12.131678916208402"><ele>238.0</ele><time>2026-05-03T09:48:33.999Z</time></trkpt><trkpt lat="45.966873363710654" lon="12.131851449375773"><ele>238.0</ele><time>2026-05-03T09:48:34.999Z</time></trkpt><trkpt lat="45.966804799706814" lon="12.132029904603618"><ele>238.0</ele><time>2026-05-03T09:48:35.999Z</time></trkpt><trkpt lat="45.966733961363495" lon="12.132210748186816"><ele>238.0</ele><time>2026-05-03T09:48:36.999Z</time></trkpt><trkpt lat="45.966649168683894" lon="12.132382372988369"><ele>238.0</ele><time>2026-05-03T09:48:37.999Z</time></trkpt><trkpt lat="45.96657833373317" lon="12.132560660463573"><ele>238.0</ele><time>2026-05-03T09:48:38.999Z</time></trkpt><trkpt lat="45.96650722964477" lon="12.132743242890431"><ele>238.0</ele><time>2026-05-03T09:48:39.999Z</time></trkpt><trkpt lat="45.96644680274703" lon="12.132941814445163"><ele>238.0</ele><time>2026-05-03T09:48:40.999Z</time></trkpt><trkpt lat="45.96636299536344" lon="12.133135726399708"><ele>238.0</ele><time>2026-05-03T09:48:41.999Z</time></trkpt><trkpt lat="45.96628546929582" lon="12.133336209172723"><ele>239.33333333333331</ele><time>2026-05-03T09:48:42.999Z</time></trkpt><trkpt lat="45.96620617160048" lon="12.133534121503521"><ele>240.66666666666669</ele><time>2026-05-03T09:48:43.999Z</time></trkpt><trkpt lat="45.96613198501063" lon="12.133716562902748"><ele>242.0</ele><time>2026-05-03T09:48:44.999Z</time></trkpt><trkpt lat="45.96605990577227" lon="12.13390009625759"><ele>240.25</ele><time>2026-05-03T09:48:45.999Z</time></trkpt><trkpt lat="45.9659888111271" lon="12.134078915055136"><ele>238.5</ele><time>2026-05-03T09:48:46.999Z</time></trkpt><trkpt lat="45.96592619771905" lon="12.134236888606003"><ele>236.75</ele><time>2026-05-03T09:48:47.999Z</time></trkpt><trkpt lat="45.96586613731484" lon="12.134391905712496"><ele>235.0</ele><time>2026-05-03T09:48:48.999Z</time></trkpt><trkpt lat="45.96581364516012" lon="12.134534542232064"><ele>234.99999999999997</ele><time>2026-05-03T09:48:49.999Z</time></trkpt><trkpt lat="45.96575014854663" lon="12.134648903457837"><ele>235.0</ele><time>2026-05-03T09:48:50.999Z</time></trkpt><trkpt lat="45.965703415494076" lon="12.134762923742421"><ele>235.0</ele><time>2026-05-03T09:48:51.999Z</time></trkpt><trkpt lat="45.965670564020854" lon="12.134865476563013"><ele>235.0</ele><time>2026-05-03T09:48:52.999Z</time></trkpt><trkpt lat="45.96562784334712" lon="12.134934488212146"><ele>234.99999999999997</ele><time>2026-05-03T09:48:53.999Z</time></trkpt><trkpt lat="45.96557053810739" lon="12.135043067265403"><ele>235.0</ele><time>2026-05-03T09:48:55.999Z</time></trkpt><trkpt lat="45.965534029268674" lon="12.135187811404863"><ele>235.8</ele><time>2026-05-03T09:48:58.999Z</time></trkpt><trkpt lat="45.965559054764626" lon="12.135313684524919"><ele>236.6</ele><time>2026-05-03T09:48:59.999Z</time></trkpt><trkpt lat="45.96559780318594" lon="12.13542267524777"><ele>237.39999999999998</ele><time>2026-05-03T09:49:00.999Z</time></trkpt><trkpt lat="45.96564771168801" lon="12.135560452050935"><ele>238.2</ele><time>2026-05-03T09:49:01.999Z</time></trkpt><trkpt lat="45.965692202283705" lon="12.135724330592339"><ele>239.0</ele><time>2026-05-03T09:49:02.999Z</time></trkpt><trkpt lat="45.96573462479991" lon="12.13590493074755"><ele>239.25</ele><time>2026-05-03T09:49:03.999Z</time></trkpt><trkpt lat="45.96576547460959" lon="12.13608729604346"><ele>239.5</ele><time>2026-05-03T09:49:04.999Z</time></trkpt><trkpt lat="45.96578806289591" lon="12.136283166091077"><ele>239.75</ele><time>2026-05-03T09:49:05.999Z</time></trkpt><trkpt lat="45.965809623939734" lon="12.136480466899666"><ele>240.0</ele><time>2026-05-03T09:49:06.999Z</time></trkpt><trkpt lat="45.96582480639019" lon="12.136659176547708"><ele>240.0</ele><time>2026-05-03T09:49:07.999Z</time></trkpt><trkpt lat="45.965827983061715" lon="12.136814445427383"><ele>240.0</ele><time>2026-05-03T09:49:08.999Z</time></trkpt><trkpt lat="45.96583031412414" lon="12.136950081867212"><ele>240.0</ele><time>2026-05-03T09:49:09.999Z</time></trkpt><trkpt lat="45.96582148882529" lon="12.137082464158448"><ele>240.0</ele><time>2026-05-03T09:49:10.999Z</time></trkpt><trkpt lat="45.96579681256062" lon="12.137210187641893"><ele>240.0</ele><time>2026-05-03T09:49:11.999Z</time></trkpt><trkpt lat="45.96576855691766" lon="12.137325492927914"><ele>239.4</ele><time>2026-05-03T09:49:12.999Z</time></trkpt><trkpt lat="45.96572949967372" lon="12.137427265798209"><ele>238.8</ele><time>2026-05-03T09:49:13.999Z</time></trkpt><trkpt lat="45.965693114153474" lon="12.137542647638831"><ele>238.2</ele><time>2026-05-03T09:49:14.999Z</time></trkpt><trkpt lat="45.96567982721307" lon="12.13768327514393"><ele>237.6</ele><time>2026-05-03T09:49:15.999Z</time></trkpt><trkpt lat="45.965711179319776" lon="12.137849954689829"><ele>237.0</ele><time>2026-05-03T09:49:16.999Z</time></trkpt><trkpt lat="45.96575116791831" lon="12.138031140570204"><ele>237.5</ele><time>2026-05-03T09:49:17.999Z</time></trkpt><trkpt lat="45.96575532439525" lon="12.138228861017154"><ele>238.0</ele><time>2026-05-03T09:49:18.999Z</time></trkpt><trkpt lat="45.96573217971338" lon="12.138421790047621"><ele>238.5</ele><time>2026-05-03T09:49:19.999Z</time></trkpt><trkpt lat="45.965706781046045" lon="12.138622124792352"><ele>239.0</ele><time>2026-05-03T09:49:20.999Z</time></trkpt><trkpt lat="45.965684862560686" lon="12.138833254853623"><ele>239.0</ele><time>2026-05-03T09:49:21.999Z</time></trkpt><trkpt lat="45.96566574156171" lon="12.13904556001653"><ele>239.0</ele><time>2026-05-03T09:49:22.999Z</time></trkpt><trkpt lat="45.96563464737774" lon="12.13927242045211"><ele>239.0</ele><time>2026-05-03T09:49:23.999Z</time></trkpt><trkpt lat="45.96560343049475" lon="12.139502903229337"><ele>239.0</ele><time>2026-05-03T09:49:24.999Z</time></trkpt><trkpt lat="45.965576914206935" lon="12.139722289157111"><ele>239.0</ele><time>2026-05-03T09:49:25.999Z</time></trkpt><trkpt lat="45.965545997457006" lon="12.13994759983397"><ele>239.0</ele><time>2026-05-03T09:49:26.999Z</time></trkpt><trkpt lat="45.96550531737604" lon="12.140182649510605"><ele>239.0</ele><time>2026-05-03T09:49:27.999Z</time></trkpt><trkpt lat="45.96546704184358" lon="12.140434457076498"><ele>239.0</ele><time>2026-05-03T09:49:28.999Z</time></trkpt><trkpt lat="45.965440320985465" lon="12.140692840578138"><ele>239.0</ele><time>2026-05-03T09:49:29.999Z</time></trkpt><trkpt lat="45.965415626778515" lon="12.14093004663924"><ele>239.75</ele><time>2026-05-03T09:49:30.999Z</time></trkpt><trkpt lat="45.96539202618491" lon="12.141146218496996"><ele>240.5</ele><time>2026-05-03T09:49:31.999Z</time></trkpt><trkpt lat="45.96537556241038" lon="12.141331734370029"><ele>241.25</ele><time>2026-05-03T09:49:32.999Z</time></trkpt><trkpt lat="45.96535859597625" lon="12.14149255222113"><ele>242.0</ele><time>2026-05-03T09:49:33.999Z</time></trkpt><trkpt lat="45.965327984539826" lon="12.141631008576477"><ele>242.0</ele><time>2026-05-03T09:49:34.999Z</time></trkpt><trkpt lat="45.965288667268084" lon="12.14176046650326"><ele>242.0</ele><time>2026-05-03T09:49:35.999Z</time></trkpt><trkpt lat="45.965263975571816" lon="12.141898137162956"><ele>242.0</ele><time>2026-05-03T09:49:36.999Z</time></trkpt><trkpt lat="45.96528368407895" lon="12.142052334230677"><ele>242.0</ele><time>2026-05-03T09:49:37.999Z</time></trkpt><trkpt lat="45.96534231280297" lon="12.142208736191632"><ele>242.0</ele><time>2026-05-03T09:49:38.999Z</time></trkpt><trkpt lat="45.96539162967647" lon="12.142395960419064"><ele>241.66666666666669</ele><time>2026-05-03T09:49:39.999Z</time></trkpt><trkpt lat="45.96540826862657" lon="12.142620224738533"><ele>241.33333333333331</ele><time>2026-05-03T09:49:40.999Z</time></trkpt><trkpt lat="45.96541180695631" lon="12.142866988198929"><ele>241.0</ele><time>2026-05-03T09:49:41.999Z</time></trkpt><trkpt lat="45.96541861475828" lon="12.14310178455212"><ele>240.66666666666666</ele><time>2026-05-03T09:49:42.999Z</time></trkpt><trkpt lat="45.9654273107399" lon="12.143336668675541"><ele>240.33333333333331</ele><time>2026-05-03T09:49:43.999Z</time></trkpt><trkpt lat="45.96544478423449" lon="12.143580542120528"><ele>240.0</ele><time>2026-05-03T09:49:45Z</time></trkpt><trkpt lat="45.96546304664981" lon="12.143829003504655"><ele>239.0</ele><time>2026-05-03T09:49:46Z</time></trkpt><trkpt lat="45.96547735932828" lon="12.144090233346818"><ele>238.0</ele><time>2026-05-03T09:49:47Z</time></trkpt><trkpt lat="45.965492804612026" lon="12.144347481701937"><ele>237.0</ele><time>2026-05-03T09:49:48Z</time></trkpt><trkpt lat="45.965507885462266" lon="12.144613363061849"><ele>236.33333333333331</ele><time>2026-05-03T09:49:49Z</time></trkpt><trkpt lat="45.965530228764884" lon="12.144883054814883"><ele>235.66666666666666</ele><time>2026-05-03T09:49:50Z</time></trkpt><trkpt lat="45.965553824181484" lon="12.145137930058885"><ele>235.0</ele><time>2026-05-03T09:49:51Z</time></trkpt><trkpt lat="45.96559280345969" lon="12.145397472780871"><ele>235.0</ele><time>2026-05-03T09:49:52Z</time></trkpt><trkpt lat="45.96564595436446" lon="12.14566310312729"><ele>235.0</ele><time>2026-05-03T09:49:53Z</time></trkpt><trkpt lat="45.96570890789156" lon="12.145922490783553"><ele>235.0</ele><time>2026-05-03T09:49:54Z</time></trkpt><trkpt lat="45.965781721650245" lon="12.146176511035035"><ele>236.66666666666666</ele><time>2026-05-03T09:49:55Z</time></trkpt><trkpt lat="45.96586224568914" lon="12.146416657454761"><ele>238.33333333333331</ele><time>2026-05-03T09:49:56Z</time></trkpt><trkpt lat="45.96595352976029" lon="12.146653182238577"><ele>240.0</ele><time>2026-05-03T09:49:57Z</time></trkpt><trkpt lat="45.966050622529664" lon="12.146887533212865"><ele>240.33333333333331</ele><time>2026-05-03T09:49:58Z</time></trkpt><trkpt lat="45.966148013742554" lon="12.147123605322912"><ele>240.66666666666666</ele><time>2026-05-03T09:49:59Z</time></trkpt><trkpt lat="45.96624437249652" lon="12.147360532182187"><ele>241.0</ele><time>2026-05-03T09:50:00Z</time></trkpt><trkpt lat="45.96633994857724" lon="12.147594651661635"><ele>241.66666666666666</ele><time>2026-05-03T09:50:01Z</time></trkpt><trkpt lat="45.966433243736255" lon="12.147836005911614"><ele>242.33333333333331</ele><time>2026-05-03T09:50:02Z</time></trkpt><trkpt lat="45.966530154922715" lon="12.148082002045024"><ele>243.0</ele><time>2026-05-03T09:50:03Z</time></trkpt><trkpt lat="45.96662375265778" lon="12.148326377200153"><ele>245.33333333333331</ele><time>2026-05-03T09:50:04Z</time></trkpt><trkpt lat="45.96672147429798" lon="12.148575414819753"><ele>247.66666666666666</ele><time>2026-05-03T09:50:05Z</time></trkpt><trkpt lat="45.96682259662299" lon="12.14883000211711"><ele>250.0</ele><time>2026-05-03T09:50:06Z</time></trkpt><trkpt lat="45.966918053742326" lon="12.149088321701612"><ele>250.33333333333331</ele><time>2026-05-03T09:50:07Z</time></trkpt><trkpt lat="45.96701601588719" lon="12.149349091607808"><ele>250.66666666666669</ele><time>2026-05-03T09:50:08Z</time></trkpt><trkpt lat="45.96710959993541" lon="12.14960902886745"><ele>251.0</ele><time>2026-05-03T09:50:09Z</time></trkpt><trkpt lat="45.96719427936161" lon="12.149865732891527"><ele>251.0</ele><time>2026-05-03T09:50:10Z</time></trkpt><trkpt lat="45.96727178677239" lon="12.150117500516055"><ele>251.0</ele><time>2026-05-03T09:50:11Z</time></trkpt><trkpt lat="45.96735076047811" lon="12.15036878569794"><ele>251.0</ele><time>2026-05-03T09:50:12Z</time></trkpt><trkpt lat="45.967426954764896" lon="12.15062802075611"><ele>251.33333333333334</ele><time>2026-05-03T09:50:13Z</time></trkpt><trkpt lat="45.96750283997723" lon="12.150890076613448"><ele>251.66666666666669</ele><time>2026-05-03T09:50:13.999Z</time></trkpt><trkpt lat="45.96758380810822" lon="12.15115301473862"><ele>252.0</ele><time>2026-05-03T09:50:14.999Z</time></trkpt><trkpt lat="45.967657804267155" lon="12.151411626057335"><ele>255.0</ele><time>2026-05-03T09:50:15.999Z</time></trkpt><trkpt lat="45.96773368079916" lon="12.151659056269848"><ele>258.0</ele><time>2026-05-03T09:50:16.999Z</time></trkpt><trkpt lat="45.96781126465609" lon="12.151900418928818"><ele>261.0</ele><time>2026-05-03T09:50:17.999Z</time></trkpt><trkpt lat="45.96788203276363" lon="12.152139585965124"><ele>261.0</ele><time>2026-05-03T09:50:18.999Z</time></trkpt><trkpt lat="45.96794347950418" lon="12.152371058380515"><ele>261.0</ele><time>2026-05-03T09:50:19.999Z</time></trkpt><trkpt lat="45.968008916747436" lon="12.15258813761621"><ele>261.0</ele><time>2026-05-03T09:50:20.999Z</time></trkpt><trkpt lat="45.96807651490237" lon="12.152818338173718"><ele>258.3333333333333</ele><time>2026-05-03T09:50:21.999Z</time></trkpt><trkpt lat="45.96815119086083" lon="12.153058440371764"><ele>255.66666666666666</ele><time>2026-05-03T09:50:22.999Z</time></trkpt><trkpt lat="45.968228575316246" lon="12.15329689998625"><ele>253.0</ele><time>2026-05-03T09:50:23.999Z</time></trkpt><trkpt lat="45.96832323867978" lon="12.1535303167115"><ele>253.66666666666666</ele><time>2026-05-03T09:50:24.999Z</time></trkpt><trkpt lat="45.968430610408944" lon="12.153762795285822"><ele>254.33333333333331</ele><time>2026-05-03T09:50:25.999Z</time></trkpt><trkpt lat="45.96854398422635" lon="12.153982990347203"><ele>255.0</ele><time>2026-05-03T09:50:26.999Z</time></trkpt><trkpt lat="45.96866629446183" lon="12.15420153432601"><ele>255.0</ele><time>2026-05-03T09:50:27.999Z</time></trkpt><trkpt lat="45.968792133862614" lon="12.154410674979465"><ele>255.0</ele><time>2026-05-03T09:50:28.999Z</time></trkpt><trkpt lat="45.96892388054957" lon="12.154646883711075"><ele>255.0</ele><time>2026-05-03T09:50:29.999Z</time></trkpt><trkpt lat="45.969070967679855" lon="12.154888244196808"><ele>258.5</ele><time>2026-05-03T09:50:30.999Z</time></trkpt><trkpt lat="45.96922542408257" lon="12.155152528753865"><ele>262.0</ele><time>2026-05-03T09:50:31.999Z</time></trkpt><trkpt lat="45.969371417727515" lon="12.155426590431823"><ele>256.5</ele><time>2026-05-03T09:50:32.999Z</time></trkpt><trkpt lat="45.96951012104034" lon="12.155706697105956"><ele>251.0</ele><time>2026-05-03T09:50:33.999Z</time></trkpt><trkpt lat="45.96964866453198" lon="12.155988469710845"><ele>251.0</ele><time>2026-05-03T09:50:34.999Z</time></trkpt><trkpt lat="45.96978606812735" lon="12.156258119081297"><ele>251.0</ele><time>2026-05-03T09:50:35.999Z</time></trkpt><trkpt lat="45.969930257825766" lon="12.156513979138643"><ele>257.33333333333337</ele><time>2026-05-03T09:50:36.999Z</time></trkpt><trkpt lat="45.97007128425753" lon="12.156755172799611"><ele>263.6666666666667</ele><time>2026-05-03T09:50:37.999Z</time></trkpt><trkpt lat="45.9702076557538" lon="12.157003062515974"><ele>270.0</ele><time>2026-05-03T09:50:38.999Z</time></trkpt><trkpt lat="45.970343615275844" lon="12.157258067625754"><ele>263.5</ele><time>2026-05-03T09:50:39.999Z</time></trkpt><trkpt lat="45.97047586866755" lon="12.157520548356317"><ele>257.0</ele><time>2026-05-03T09:50:40.999Z</time></trkpt><trkpt lat="45.970606187449135" lon="12.157784021346872"><ele>257.0</ele><time>2026-05-03T09:50:41.999Z</time></trkpt><trkpt lat="45.970734571654084" lon="12.15804161944569"><ele>257.0</ele><time>2026-05-03T09:50:42.999Z</time></trkpt><trkpt lat="45.97084946421273" lon="12.15831326072072"><ele>257.0</ele><time>2026-05-03T09:50:43.999Z</time></trkpt><trkpt lat="45.97093409032107" lon="12.158601713395129"><ele>263.0</ele><time>2026-05-03T09:50:44.999Z</time></trkpt><trkpt lat="45.97102998626904" lon="12.15889929773476"><ele>269.0</ele><time>2026-05-03T09:50:45.999Z</time></trkpt><trkpt lat="45.97110232811957" lon="12.159203930002686"><ele>269.0</ele><time>2026-05-03T09:50:46.999Z</time></trkpt><trkpt lat="45.971178095030965" lon="12.159509955749126"><ele>269.0</ele><time>2026-05-03T09:50:47.999Z</time></trkpt><trkpt lat="45.97125671837763" lon="12.15981571961919"><ele>263.6666666666667</ele><time>2026-05-03T09:50:48.999Z</time></trkpt><trkpt lat="45.9713302735072" lon="12.160119752723283"><ele>258.3333333333333</ele><time>2026-05-03T09:50:49.999Z</time></trkpt><trkpt lat="45.971407669147275" lon="12.16041789369254"><ele>253.0</ele><time>2026-05-03T09:50:50.999Z</time></trkpt><trkpt lat="45.97147939468286" lon="12.16070285131356"><ele>248.66666666666666</ele><time>2026-05-03T09:50:51.999Z</time></trkpt><trkpt lat="45.97155271763436" lon="12.160977033459186"><ele>244.33333333333331</ele><time>2026-05-03T09:50:52.999Z</time></trkpt><trkpt lat="45.97161645910955" lon="12.161235142269188"><ele>240.0</ele><time>2026-05-03T09:50:53.999Z</time></trkpt><trkpt lat="45.97164582349839" lon="12.161489232292668"><ele>238.66666666666669</ele><time>2026-05-03T09:50:54.999Z</time></trkpt><trkpt lat="45.971672589601276" lon="12.161746388005014"><ele>237.33333333333334</ele><time>2026-05-03T09:50:55.999Z</time></trkpt><trkpt lat="45.971687205065486" lon="12.161993093717893"><ele>236.0</ele><time>2026-05-03T09:50:56.999Z</time></trkpt><trkpt lat="45.9716937357751" lon="12.16224610883282"><ele>234.66666666666669</ele><time>2026-05-03T09:50:57.999Z</time></trkpt><trkpt lat="45.97171166772013" lon="12.162499892701648"><ele>233.33333333333331</ele><time>2026-05-03T09:50:58.999Z</time></trkpt><trkpt lat="45.97170677178012" lon="12.162755541741605"><ele>232.0</ele><time>2026-05-03T09:50:59.999Z</time></trkpt><trkpt lat="45.971684115473664" lon="12.163011562403984"><ele>231.66666666666666</ele><time>2026-05-03T09:51:00.999Z</time></trkpt><trkpt lat="45.971685967493954" lon="12.163279180539972"><ele>231.33333333333331</ele><time>2026-05-03T09:51:01.999Z</time></trkpt><trkpt lat="45.971705811359726" lon="12.163545135895262"><ele>231.0</ele><time>2026-05-03T09:51:02.999Z</time></trkpt><trkpt lat="45.9717100333253" lon="12.163808260491543"><ele>240.33333333333331</ele><time>2026-05-03T09:51:03.999Z</time></trkpt><trkpt lat="45.9717121470367" lon="12.164084568240632"><ele>249.66666666666666</ele><time>2026-05-03T09:51:04.999Z</time></trkpt><trkpt lat="45.971716872957316" lon="12.164363337508124"><ele>259.0</ele><time>2026-05-03T09:51:05.999Z</time></trkpt><trkpt lat="45.971720529967925" lon="12.164642005779497"><ele>259.66666666666663</ele><time>2026-05-03T09:51:06.999Z</time></trkpt><trkpt lat="45.97172321481014" lon="12.164926346536852"><ele>260.3333333333333</ele><time>2026-05-03T09:51:07.999Z</time></trkpt><trkpt lat="45.971726837264136" lon="12.165212557273964"><ele>261.0</ele><time>2026-05-03T09:51:08.999Z</time></trkpt><trkpt lat="45.97173584832743" lon="12.165500082638841"><ele>262.3333333333333</ele><time>2026-05-03T09:51:09.999Z</time></trkpt><trkpt lat="45.97174328375314" lon="12.165790025096863"><ele>263.66666666666663</ele><time>2026-05-03T09:51:10.999Z</time></trkpt><trkpt lat="45.971751175143226" lon="12.166079588319244"><ele>265.0</ele><time>2026-05-03T09:51:11.999Z</time></trkpt><trkpt lat="45.97176446681121" lon="12.166374786235457"><ele>266.66666666666663</ele><time>2026-05-03T09:51:12.999Z</time></trkpt><trkpt lat="45.971789530046294" lon="12.166671905902826"><ele>268.3333333333333</ele><time>2026-05-03T09:51:13.999Z</time></trkpt><trkpt lat="45.97183265414889" lon="12.166965915907149"><ele>270.0</ele><time>2026-05-03T09:51:14.999Z</time></trkpt><trkpt lat="45.971886316459894" lon="12.167254078321132"><ele>269.3333333333333</ele><time>2026-05-03T09:51:15.999Z</time></trkpt><trkpt lat="45.971941130950825" lon="12.167547613865528"><ele>268.66666666666663</ele><time>2026-05-03T09:51:16.999Z</time></trkpt><trkpt lat="45.97199866225468" lon="12.167842313292653"><ele>268.0</ele><time>2026-05-03T09:51:17.999Z</time></trkpt><trkpt lat="45.97205235125942" lon="12.168138989627657"><ele>266.66666666666663</ele><time>2026-05-03T09:51:18.999Z</time></trkpt><trkpt lat="45.97210610308523" lon="12.168436379479198"><ele>265.3333333333333</ele><time>2026-05-03T09:51:19.999Z</time></trkpt><trkpt lat="45.97215567055297" lon="12.168730668177414"><ele>264.0</ele><time>2026-05-03T09:51:20.999Z</time></trkpt><trkpt lat="45.97220930891585" lon="12.169021973745103"><ele>261.3333333333333</ele><time>2026-05-03T09:51:21.999Z</time></trkpt><trkpt lat="45.97226506181056" lon="12.16931857006932"><ele>258.66666666666663</ele><time>2026-05-03T09:51:22.999Z</time></trkpt><trkpt lat="45.972318682718544" lon="12.169614876819507"><ele>256.0</ele><time>2026-05-03T09:51:23.999Z</time></trkpt><trkpt lat="45.9723723831692" lon="12.16990274109368"><ele>253.0</ele><time>2026-05-03T09:51:24.999Z</time></trkpt><trkpt lat="45.97242470047839" lon="12.170187368120235"><ele>250.0</ele><time>2026-05-03T09:51:25.999Z</time></trkpt><trkpt lat="45.97248456349385" lon="12.170473711063165"><ele>247.0</ele><time>2026-05-03T09:51:26.999Z</time></trkpt><trkpt lat="45.97254461528461" lon="12.1707620729002"><ele>256.3333333333333</ele><time>2026-05-03T09:51:27.999Z</time></trkpt><trkpt lat="45.97261128027005" lon="12.17104830522067"><ele>265.6666666666667</ele><time>2026-05-03T09:51:28.999Z</time></trkpt><trkpt lat="45.97268389712874" lon="12.171336749590463"><ele>275.0</ele><time>2026-05-03T09:51:29.999Z</time></trkpt><trkpt lat="45.97276557754864" lon="12.171616665901979"><ele>275.0</ele><time>2026-05-03T09:51:30.999Z</time></trkpt><trkpt lat="45.97284743556149" lon="12.171895604687704"><ele>275.0</ele><time>2026-05-03T09:51:31.999Z</time></trkpt><trkpt lat="45.972917014580396" lon="12.172144886631878"><ele>275.0</ele><time>2026-05-03T09:51:32.999Z</time></trkpt><trkpt lat="45.9729881573738" lon="12.172386233647547"><ele>267.33333333333337</ele><time>2026-05-03T09:51:33.999Z</time></trkpt><trkpt lat="45.97305812786557" lon="12.172619645006126"><ele>259.6666666666667</ele><time>2026-05-03T09:51:34.999Z</time></trkpt><trkpt lat="45.97312122656806" lon="12.172847267978916"><ele>252.0</ele><time>2026-05-03T09:51:35.999Z</time></trkpt><trkpt lat="45.97318743355283" lon="12.173081217871838"><ele>251.66666666666669</ele><time>2026-05-03T09:51:36.999Z</time></trkpt><trkpt lat="45.97325898196698" lon="12.17331520942364"><ele>251.33333333333334</ele><time>2026-05-03T09:51:38Z</time></trkpt><trkpt lat="45.97332882939383" lon="12.173557717019088"><ele>251.0</ele><time>2026-05-03T09:51:39Z</time></trkpt><trkpt lat="45.973395894835654" lon="12.173805716165749"><ele>246.66666666666669</ele><time>2026-05-03T09:51:40Z</time></trkpt><trkpt lat="45.97346007523514" lon="12.174055184501446"><ele>242.33333333333331</ele><time>2026-05-03T09:51:41Z</time></trkpt><trkpt lat="45.97351437098931" lon="12.1743064933009"><ele>238.0</ele><time>2026-05-03T09:51:42Z</time></trkpt><trkpt lat="45.97355810526904" lon="12.174557546686376"><ele>238.0</ele><time>2026-05-03T09:51:43Z</time></trkpt><trkpt lat="45.97360199277274" lon="12.174810230529344"><ele>238.0</ele><time>2026-05-03T09:51:44Z</time></trkpt><trkpt lat="45.973637337030056" lon="12.175063857271404"><ele>238.0</ele><time>2026-05-03T09:51:45Z</time></trkpt><trkpt lat="45.97367077474841" lon="12.175308830994377"><ele>238.66666666666666</ele><time>2026-05-03T09:51:46Z</time></trkpt><trkpt lat="45.97369768747192" lon="12.175538714859925"><ele>239.33333333333331</ele><time>2026-05-03T09:51:47Z</time></trkpt><trkpt lat="45.97372694074964" lon="12.175751902596122"><ele>240.0</ele><time>2026-05-03T09:51:48Z</time></trkpt><trkpt lat="45.973752280924586" lon="12.17596358525306"><ele>239.2</ele><time>2026-05-03T09:51:49Z</time></trkpt><trkpt lat="45.97377847390878" lon="12.176169938110904"><ele>238.4</ele><time>2026-05-03T09:51:50Z</time></trkpt><trkpt lat="45.973797905356825" lon="12.176344728426331"><ele>237.60000000000002</ele><time>2026-05-03T09:51:51Z</time></trkpt><trkpt lat="45.973815222124635" lon="12.176482592388158"><ele>236.8</ele><time>2026-05-03T09:51:52Z</time></trkpt><trkpt lat="45.97383648392275" lon="12.17658169871515"><ele>236.0</ele><time>2026-05-03T09:51:53Z</time></trkpt><trkpt lat="45.973917769703455" lon="12.176625329093628"><ele>236.0</ele><time>2026-05-03T09:51:57Z</time></trkpt><trkpt lat="45.97401585374783" lon="12.176409094897569"><ele>236.00000000000003</ele><time>2026-05-03T09:51:59Z</time></trkpt><trkpt lat="45.97406603446926" lon="12.176289121776529"><ele>236.00000000000003</ele><time>2026-05-03T09:52:00Z</time></trkpt><trkpt lat="45.974106656723" lon="12.176193633216721"><ele>236.0</ele><time>2026-05-03T09:52:01Z</time></trkpt><trkpt lat="45.97416073781263" lon="12.176081487727396"><ele>236.0</ele><time>2026-05-03T09:52:02Z</time></trkpt><trkpt lat="45.97424393294094" lon="12.17594566812147"><ele>237.0</ele><time>2026-05-03T09:52:03Z</time></trkpt><trkpt lat="45.974340529563996" lon="12.175795615576526"><ele>238.0</ele><time>2026-05-03T09:52:04Z</time></trkpt><trkpt lat="45.97444495817049" lon="12.17566905639907"><ele>239.0</ele><time>2026-05-03T09:52:05Z</time></trkpt><trkpt lat="45.974569982772465" lon="12.175556509759874"><ele>240.0</ele><time>2026-05-03T09:52:06Z</time></trkpt><trkpt lat="45.97471221148416" lon="12.175467187789815"><ele>240.5</ele><time>2026-05-03T09:52:07Z</time></trkpt><trkpt lat="45.97485330867976" lon="12.175461396945291"><ele>241.0</ele><time>2026-05-03T09:52:08Z</time></trkpt><trkpt lat="45.974995085497085" lon="12.1754397039075"><ele>241.5</ele><time>2026-05-03T09:52:09Z</time></trkpt><trkpt lat="45.97513695535837" lon="12.175402259069687"><ele>242.0</ele><time>2026-05-03T09:52:10Z</time></trkpt><trkpt lat="45.97527949043969" lon="12.17538177453156"><ele>242.5</ele><time>2026-05-03T09:52:11Z</time></trkpt><trkpt lat="45.97541946093701" lon="12.175360103590737"><ele>243.0</ele><time>2026-05-03T09:52:12Z</time></trkpt><trkpt lat="45.97556284210112" lon="12.175340413519145"><ele>243.5</ele><time>2026-05-03T09:52:13Z</time></trkpt><trkpt lat="45.97570990860987" lon="12.175307900029729"><ele>244.0</ele><time>2026-05-03T09:52:14Z</time></trkpt><trkpt lat="45.97584138937916" lon="12.175279507603367"><ele>245.5</ele><time>2026-05-03T09:52:15Z</time></trkpt><trkpt lat="45.975962987646646" lon="12.17524236774504"><ele>247.0</ele><time>2026-05-03T09:52:16Z</time></trkpt><trkpt lat="45.97608094682467" lon="12.175189986642755"><ele>248.5</ele><time>2026-05-03T09:52:17Z</time></trkpt><trkpt lat="45.97618800684871" lon="12.175156594177498"><ele>250.0</ele><time>2026-05-03T09:52:18Z</time></trkpt><trkpt lat="45.976298204970696" lon="12.175103506455965"><ele>250.0</ele><time>2026-05-03T09:52:19Z</time></trkpt><trkpt lat="45.97642073139863" lon="12.175044805762411"><ele>250.0</ele><time>2026-05-03T09:52:20Z</time></trkpt><trkpt lat="45.97655158713856" lon="12.174983654032271"><ele>250.0</ele><time>2026-05-03T09:52:21Z</time></trkpt><trkpt lat="45.976690059371556" lon="12.174899146108974"><ele>250.0</ele><time>2026-05-03T09:52:22Z</time></trkpt><trkpt lat="45.976847057141356" lon="12.17486168898558"><ele>252.0</ele><time>2026-05-03T09:52:23Z</time></trkpt><trkpt lat="45.97701405530294" lon="12.174834708006973"><ele>254.0</ele><time>2026-05-03T09:52:24Z</time></trkpt><trkpt lat="45.977187081190046" lon="12.17481996208614"><ele>256.0</ele><time>2026-05-03T09:52:25Z</time></trkpt><trkpt lat="45.97735937315842" lon="12.174807599311215"><ele>256.0</ele><time>2026-05-03T09:52:26Z</time></trkpt><trkpt lat="45.977503509531765" lon="12.174787722067125"><ele>256.0</ele><time>2026-05-03T09:52:27Z</time></trkpt><trkpt lat="45.97763474012848" lon="12.174754194069974"><ele>256.0</ele><time>2026-05-03T09:52:28Z</time></trkpt><trkpt lat="45.97776379380981" lon="12.174719852170256"><ele>256.0</ele><time>2026-05-03T09:52:29Z</time></trkpt><trkpt lat="45.977889382533704" lon="12.174704730730776"><ele>256.25</ele><time>2026-05-03T09:52:30Z</time></trkpt><trkpt lat="45.97801612069664" lon="12.17473861856836"><ele>256.5</ele><time>2026-05-03T09:52:31Z</time></trkpt><trkpt lat="45.97814914740972" lon="12.174751399669022"><ele>256.75</ele><time>2026-05-03T09:52:32Z</time></trkpt><trkpt lat="45.97828049682428" lon="12.174746484651454"><ele>257.0</ele><time>2026-05-03T09:52:33Z</time></trkpt><trkpt lat="45.97840025797737" lon="12.174798951501366"><ele>257.5</ele><time>2026-05-03T09:52:34Z</time></trkpt><trkpt lat="45.97852708560497" lon="12.17484259310084"><ele>258.0</ele><time>2026-05-03T09:52:35Z</time></trkpt><trkpt lat="45.97866317463822" lon="12.174895489409428"><ele>258.5</ele><time>2026-05-03T09:52:36Z</time></trkpt><trkpt lat="45.978804528776095" lon="12.174919832673083"><ele>259.0</ele><time>2026-05-03T09:52:37Z</time></trkpt><trkpt lat="45.97894708827269" lon="12.174951854453369"><ele>259.25</ele><time>2026-05-03T09:52:38Z</time></trkpt><trkpt lat="45.97909040880303" lon="12.17496335923112"><ele>259.5</ele><time>2026-05-03T09:52:39Z</time></trkpt><trkpt lat="45.979232115503436" lon="12.17496628074114"><ele>259.75</ele><time>2026-05-03T09:52:40Z</time></trkpt><trkpt lat="45.97937428236417" lon="12.174956838899497"><ele>260.0</ele><time>2026-05-03T09:52:41Z</time></trkpt><trkpt lat="45.979517462606644" lon="12.174933041390469"><ele>261.25</ele><time>2026-05-03T09:52:42Z</time></trkpt><trkpt lat="45.979655723455856" lon="12.1748742494072"><ele>262.5</ele><time>2026-05-03T09:52:43Z</time></trkpt><trkpt lat="45.97979164162591" lon="12.174808141165272"><ele>263.75</ele><time>2026-05-03T09:52:44Z</time></trkpt><trkpt lat="45.97992805578568" lon="12.174743011071296"><ele>265.0</ele><time>2026-05-03T09:52:45Z</time></trkpt><trkpt lat="45.98006454082867" lon="12.17467517614307"><ele>266.25</ele><time>2026-05-03T09:52:46Z</time></trkpt><trkpt lat="45.980199488976154" lon="12.174618264506352"><ele>267.5</ele><time>2026-05-03T09:52:47Z</time></trkpt><trkpt lat="45.98034034842539" lon="12.174558899168002"><ele>268.75</ele><time>2026-05-03T09:52:48Z</time></trkpt><trkpt lat="45.98048391837195" lon="12.174498738522772"><ele>270.0</ele><time>2026-05-03T09:52:49Z</time></trkpt><trkpt lat="45.98063339646615" lon="12.174434226974705"><ele>270.0</ele><time>2026-05-03T09:52:50Z</time></trkpt><trkpt lat="45.98078471312956" lon="12.174370376887623"><ele>270.0</ele><time>2026-05-03T09:52:51Z</time></trkpt><trkpt lat="45.98094357142361" lon="12.174303163555239"><ele>270.0</ele><time>2026-05-03T09:52:52Z</time></trkpt><trkpt lat="45.98109968059508" lon="12.174240026060069"><ele>271.3333333333333</ele><time>2026-05-03T09:52:53Z</time></trkpt><trkpt lat="45.98126665982253" lon="12.174172857481413"><ele>272.66666666666663</ele><time>2026-05-03T09:52:54Z</time></trkpt><trkpt lat="45.98143084848053" lon="12.174105142597512"><ele>274.0</ele><time>2026-05-03T09:52:55Z</time></trkpt><trkpt lat="45.981605983059595" lon="12.174032723177657"><ele>273.66666666666663</ele><time>2026-05-03T09:52:56Z</time></trkpt><trkpt lat="45.981778033768606" lon="12.173963489451634"><ele>273.3333333333333</ele><time>2026-05-03T09:52:57Z</time></trkpt><trkpt lat="45.98195417551472" lon="12.17388951089556"><ele>273.0</ele><time>2026-05-03T09:52:58Z</time></trkpt><trkpt lat="45.982133624092484" lon="12.173818332147752"><ele>273.0</ele><time>2026-05-03T09:52:59Z</time></trkpt><trkpt lat="45.982315237031465" lon="12.173739157952271"><ele>273.0</ele><time>2026-05-03T09:53:00Z</time></trkpt><trkpt lat="45.98249818629714" lon="12.173665733190056"><ele>273.0</ele><time>2026-05-03T09:53:01Z</time></trkpt><trkpt lat="45.98268254891738" lon="12.173594623741781"><ele>276.0</ele><time>2026-05-03T09:53:02Z</time></trkpt><trkpt lat="45.98286815493187" lon="12.173523642122005"><ele>279.0</ele><time>2026-05-03T09:53:03Z</time></trkpt><trkpt lat="45.983060048407395" lon="12.173451512354447"><ele>282.0</ele><time>2026-05-03T09:53:04Z</time></trkpt><trkpt lat="45.983249968876095" lon="12.173366264206287"><ele>283.6666666666667</ele><time>2026-05-03T09:53:05Z</time></trkpt><trkpt lat="45.98343860647306" lon="12.173282402179515"><ele>285.33333333333337</ele><time>2026-05-03T09:53:06Z</time></trkpt><trkpt lat="45.98362698339563" lon="12.173226526399112"><ele>287.0</ele><time>2026-05-03T09:53:07Z</time></trkpt><trkpt lat="45.98381151319057" lon="12.173134833459581"><ele>287.33333333333337</ele><time>2026-05-03T09:53:08Z</time></trkpt><trkpt lat="45.98399611872938" lon="12.173078175253067"><ele>287.6666666666667</ele><time>2026-05-03T09:53:09Z</time></trkpt><trkpt lat="45.984186312565036" lon="12.173025812174156"><ele>288.0</ele><time>2026-05-03T09:53:10Z</time></trkpt><trkpt lat="45.98437490737496" lon="12.172982572231652"><ele>289.6666666666667</ele><time>2026-05-03T09:53:11Z</time></trkpt><trkpt lat="45.984566697185016" lon="12.17293958227674"><ele>291.33333333333337</ele><time>2026-05-03T09:53:12Z</time></trkpt><trkpt lat="45.98475828548798" lon="12.172888052696514"><ele>293.0</ele><time>2026-05-03T09:53:13Z</time></trkpt><trkpt lat="45.98494101108739" lon="12.172835872210456"><ele>295.33333333333337</ele><time>2026-05-03T09:53:14Z</time></trkpt><trkpt lat="45.98512770676342" lon="12.17278406830281"><ele>297.6666666666667</ele><time>2026-05-03T09:53:15Z</time></trkpt><trkpt lat="45.985311451945556" lon="12.172734079218154"><ele>300.0</ele><time>2026-05-03T09:53:16Z</time></trkpt><trkpt lat="45.98549085715369" lon="12.172677178962351"><ele>300.0</ele><time>2026-05-03T09:53:17Z</time></trkpt><trkpt lat="45.98566734152055" lon="12.172608995693112"><ele>300.0</ele><time>2026-05-03T09:53:18Z</time></trkpt><trkpt lat="45.98583458224447" lon="12.172505879047161"><ele>300.0</ele><time>2026-05-03T09:53:19Z</time></trkpt><trkpt lat="45.98600387523246" lon="12.17241634362009"><ele>302.3333333333333</ele><time>2026-05-03T09:53:19.999Z</time></trkpt><trkpt lat="45.986171647948495" lon="12.172338710474666"><ele>304.66666666666663</ele><time>2026-05-03T09:53:20.999Z</time></trkpt><trkpt lat="45.98634852067154" lon="12.172292924430653"><ele>307.0</ele><time>2026-05-03T09:53:21.999Z</time></trkpt><trkpt lat="45.986526367819" lon="12.17226843089808"><ele>310.0</ele><time>2026-05-03T09:53:22.999Z</time></trkpt><trkpt lat="45.98670674906482" lon="12.17225921644686"><ele>313.0</ele><time>2026-05-03T09:53:23.999Z</time></trkpt><trkpt lat="45.98688418239819" lon="12.17225867571439"><ele>316.0</ele><time>2026-05-03T09:53:24.999Z</time></trkpt><trkpt lat="45.987061760088615" lon="12.172248168135322"><ele>316.0</ele><time>2026-05-03T09:53:25.999Z</time></trkpt><trkpt lat="45.98724062749712" lon="12.172241234686089"><ele>316.0</ele><time>2026-05-03T09:53:26.999Z</time></trkpt><trkpt lat="45.9874203766701" lon="12.172245571082152"><ele>316.0</ele><time>2026-05-03T09:53:27.999Z</time></trkpt><trkpt lat="45.98759621357946" lon="12.172273363640048"><ele>316.66666666666663</ele><time>2026-05-03T09:53:28.999Z</time></trkpt><trkpt lat="45.98775409198312" lon="12.172325593867267"><ele>317.3333333333333</ele><time>2026-05-03T09:53:29.999Z</time></trkpt><trkpt lat="45.98790113210967" lon="12.172388626357678"><ele>318.0</ele><time>2026-05-03T09:53:30.999Z</time></trkpt><trkpt lat="45.98804362205945" lon="12.172441772765003"><ele>318.0</ele><time>2026-05-03T09:53:31.999Z</time></trkpt><trkpt lat="45.98818132349646" lon="12.172497322818252"><ele>318.0</ele><time>2026-05-03T09:53:32.999Z</time></trkpt><trkpt lat="45.98832899673971" lon="12.172526715235346"><ele>318.0</ele><time>2026-05-03T09:53:33.999Z</time></trkpt><trkpt lat="45.988470036958255" lon="12.172523359499909"><ele>318.0</ele><time>2026-05-03T09:53:34.999Z</time></trkpt><trkpt lat="45.98861853598095" lon="12.172502718099576"><ele>320.5</ele><time>2026-05-03T09:53:35.999Z</time></trkpt><trkpt lat="45.98877247895904" lon="12.172481159492879"><ele>323.0</ele><time>2026-05-03T09:53:36.999Z</time></trkpt><trkpt lat="45.988917147656636" lon="12.172456068624724"><ele>325.5</ele><time>2026-05-03T09:53:37.999Z</time></trkpt><trkpt lat="45.98905809214782" lon="12.172465678014737"><ele>328.0</ele><time>2026-05-03T09:53:38.999Z</time></trkpt><trkpt lat="45.98918997466219" lon="12.172457823322915"><ele>331.25</ele><time>2026-05-03T09:53:39.999Z</time></trkpt><trkpt lat="45.98931742146896" lon="12.172384876820491"><ele>334.5</ele><time>2026-05-03T09:53:40.999Z</time></trkpt><trkpt lat="45.98944833168824" lon="12.17236424567529"><ele>337.75</ele><time>2026-05-03T09:53:41.999Z</time></trkpt><trkpt lat="45.989579794943914" lon="12.172381926593722"><ele>341.0</ele><time>2026-05-03T09:53:42.999Z</time></trkpt><trkpt lat="45.98968876412298" lon="12.172411737398344"><ele>341.0</ele><time>2026-05-03T09:53:44Z</time></trkpt><trkpt lat="45.98978780653944" lon="12.172428784728696"><ele>341.0</ele><time>2026-05-03T09:53:45Z</time></trkpt><trkpt lat="45.98989774564742" lon="12.172447585247683"><ele>341.0</ele><time>2026-05-03T09:53:46Z</time></trkpt><trkpt lat="45.99000042412104" lon="12.17246496932744"><ele>341.0</ele><time>2026-05-03T09:53:47Z</time></trkpt><trkpt lat="45.990089306249786" lon="12.172483298424671"><ele>341.0</ele><time>2026-05-03T09:53:48Z</time></trkpt><trkpt lat="45.99016353610924" lon="12.172496682125908"><ele>342.4</ele><time>2026-05-03T09:53:49Z</time></trkpt><trkpt lat="45.99024671869813" lon="12.172508938741151"><ele>343.8</ele><time>2026-05-03T09:53:50Z</time></trkpt><trkpt lat="45.990321342814326" lon="12.172512560362577"><ele>345.2</ele><time>2026-05-03T09:53:51Z</time></trkpt><trkpt lat="45.99037104673479" lon="12.172447805952231"><ele>346.59999999999997</ele><time>2026-05-03T09:53:52Z</time></trkpt><trkpt lat="45.99037049457168" lon="12.172333356744355"><ele>348.0</ele><time>2026-05-03T09:53:53Z</time></trkpt><trkpt lat="45.990240284967925" lon="12.172209887779601"><ele>355.6666666666667</ele><time>2026-05-03T09:53:55Z</time></trkpt><trkpt lat="45.99011268625977" lon="12.17221490900163"><ele>363.33333333333337</ele><time>2026-05-03T09:53:56Z</time></trkpt><trkpt lat="45.989953076112386" lon="12.172217164601136"><ele>371.0</ele><time>2026-05-03T09:53:57Z</time></trkpt><trkpt lat="45.98975776219555" lon="12.172147569219304"><ele>371.0</ele><time>2026-05-03T09:53:58Z</time></trkpt><trkpt lat="45.98954799758986" lon="12.172049506765466"><ele>371.0</ele><time>2026-05-03T09:53:59Z</time></trkpt><trkpt lat="45.989349547413255" lon="12.171948018718771"><ele>371.0</ele><time>2026-05-03T09:54:00Z</time></trkpt><trkpt lat="45.98918844494531" lon="12.171878017945122"><ele>367.4</ele><time>2026-05-03T09:54:01Z</time></trkpt><trkpt lat="45.989061442178624" lon="12.171823161189616"><ele>363.8</ele><time>2026-05-03T09:54:02Z</time></trkpt><trkpt lat="45.98893336667691" lon="12.171804893319564"><ele>360.2</ele><time>2026-05-03T09:54:03Z</time></trkpt><trkpt lat="45.98886470196634" lon="12.17176055317323"><ele>356.59999999999997</ele><time>2026-05-03T09:54:04Z</time></trkpt><trkpt lat="45.98880980512365" lon="12.17168933676419"><ele>353.0</ele><time>2026-05-03T09:54:05Z</time></trkpt><trkpt lat="45.98882647017392" lon="12.171579928559654"><ele>353.0</ele><time>2026-05-03T09:54:06Z</time></trkpt><trkpt lat="45.98889080384308" lon="12.171503528356206"><ele>353.0</ele><time>2026-05-03T09:54:07Z</time></trkpt><trkpt lat="45.9889946987158" lon="12.171491824208866"><ele>353.0</ele><time>2026-05-03T09:54:08Z</time></trkpt><trkpt lat="45.98911393528035" lon="12.171545689128529"><ele>353.0</ele><time>2026-05-03T09:54:09Z</time></trkpt><trkpt lat="45.989237844268494" lon="12.17163070155304"><ele>359.0</ele><time>2026-05-03T09:54:10Z</time></trkpt><trkpt lat="45.989385263607744" lon="12.171721588864152"><ele>365.0</ele><time>2026-05-03T09:54:11Z</time></trkpt><trkpt lat="45.989523772567786" lon="12.171826554926668"><ele>371.0</ele><time>2026-05-03T09:54:12Z</time></trkpt><trkpt lat="45.98967946306354" lon="12.171903641584917"><ele>371.0</ele><time>2026-05-03T09:54:13Z</time></trkpt><trkpt lat="45.98983028379192" lon="12.171947995526974"><ele>371.0</ele><time>2026-05-03T09:54:14Z</time></trkpt><trkpt lat="45.98997936583028" lon="12.172010228059102"><ele>371.0</ele><time>2026-05-03T09:54:15Z</time></trkpt><trkpt lat="45.99014657948577" lon="12.172002373878662"><ele>379.0</ele><time>2026-05-03T09:54:16Z</time></trkpt><trkpt lat="45.99030407687986" lon="12.172000365883788"><ele>387.0</ele><time>2026-05-03T09:54:17Z</time></trkpt><trkpt lat="45.99045317921269" lon="12.172022813105404"><ele>395.0</ele><time>2026-05-03T09:54:18Z</time></trkpt><trkpt lat="45.99059482392008" lon="12.172068994839364"><ele>395.0</ele><time>2026-05-03T09:54:19Z</time></trkpt><trkpt lat="45.990736235031676" lon="12.172153460535856"><ele>395.0</ele><time>2026-05-03T09:54:20Z</time></trkpt><trkpt lat="45.990880685766115" lon="12.172229664349745"><ele>395.0</ele><time>2026-05-03T09:54:21Z</time></trkpt><trkpt lat="45.99102778300979" lon="12.17228374141839"><ele>399.66666666666663</ele><time>2026-05-03T09:54:22Z</time></trkpt><trkpt lat="45.991187291530785" lon="12.172310215033303"><ele>404.33333333333337</ele><time>2026-05-03T09:54:23Z</time></trkpt><trkpt lat="45.99134016627541" lon="12.172344717727723"><ele>409.0</ele><time>2026-05-03T09:54:24Z</time></trkpt><trkpt lat="45.99146891968571" lon="12.17242894978319"><ele>404.75</ele><time>2026-05-03T09:54:25Z</time></trkpt><trkpt lat="45.99157892939848" lon="12.172574207005733"><ele>400.5</ele><time>2026-05-03T09:54:26Z</time></trkpt><trkpt lat="45.99166823200443" lon="12.172746307734728"><ele>396.25</ele><time>2026-05-03T09:54:27Z</time></trkpt><trkpt lat="45.99174527263273" lon="12.17289600889346"><ele>392.0</ele><time>2026-05-03T09:54:28Z</time></trkpt><trkpt lat="45.99183940781497" lon="12.172998256496859"><ele>392.0</ele><time>2026-05-03T09:54:29Z</time></trkpt><trkpt lat="45.99193863281064" lon="12.173036979396432"><ele>392.0</ele><time>2026-05-03T09:54:30Z</time></trkpt><trkpt lat="45.992037195507166" lon="12.17305461417636"><ele>392.0</ele><time>2026-05-03T09:54:31Z</time></trkpt><trkpt lat="45.992133266785345" lon="12.173077576271039"><ele>392.0</ele><time>2026-05-03T09:54:32Z</time></trkpt><trkpt lat="45.99222971023863" lon="12.17311507522404"><ele>392.0</ele><time>2026-05-03T09:54:33Z</time></trkpt><trkpt lat="45.99232512317158" lon="12.173179184259897"><ele>390.25</ele><time>2026-05-03T09:54:34Z</time></trkpt><trkpt lat="45.99243031705321" lon="12.173252536735264"><ele>388.5</ele><time>2026-05-03T09:54:35Z</time></trkpt><trkpt lat="45.99252961107076" lon="12.173336271774389"><ele>386.75</ele><time>2026-05-03T09:54:36Z</time></trkpt><trkpt lat="45.99263022968683" lon="12.17342613103107"><ele>385.0</ele><time>2026-05-03T09:54:37Z</time></trkpt><trkpt lat="45.99271098591661" lon="12.17351737161432"><ele>385.00000000000006</ele><time>2026-05-03T09:54:38Z</time></trkpt><trkpt lat="45.99277421646908" lon="12.173603300077922"><ele>385.0</ele><time>2026-05-03T09:54:39Z</time></trkpt><trkpt lat="45.992826896079606" lon="12.173688082173005"><ele>385.0</ele><time>2026-05-03T09:54:40Z</time></trkpt><trkpt lat="45.99288858113365" lon="12.173768961486543"><ele>385.0</ele><time>2026-05-03T09:54:41Z</time></trkpt><trkpt lat="45.99294226947503" lon="12.17383137665049"><ele>385.00000000000006</ele><time>2026-05-03T09:54:42Z</time></trkpt><trkpt lat="45.99302053188068" lon="12.173924919548808"><ele>385.0</ele><time>2026-05-03T09:54:44Z</time></trkpt><trkpt lat="45.9930924101996" lon="12.173963678503396"><ele>385.0</ele><time>2026-05-03T09:54:46Z</time></trkpt><trkpt lat="45.99320727085703" lon="12.173890736723964"><ele>385.0</ele><time>2026-05-03T09:54:48Z</time></trkpt><trkpt lat="45.993211823603055" lon="12.173767239978632"><ele>385.0</ele><time>2026-05-03T09:54:49Z</time></trkpt><trkpt lat="45.99314910529171" lon="12.173653400813793"><ele>385.0</ele><time>2026-05-03T09:54:50Z</time></trkpt><trkpt lat="45.99304139439602" lon="12.173542109010715"><ele>385.0</ele><time>2026-05-03T09:54:51Z</time></trkpt><trkpt lat="45.99292227795705" lon="12.173418056891993"><ele>385.0</ele><time>2026-05-03T09:54:52Z</time></trkpt><trkpt lat="45.992799095578306" lon="12.17327432437189"><ele>385.0</ele><time>2026-05-03T09:54:53Z</time></trkpt><trkpt lat="45.99267134800511" lon="12.173132716075836"><ele>385.0</ele><time>2026-05-03T09:54:54Z</time></trkpt><trkpt lat="45.99252844731946" lon="12.172972262492491"><ele>386.75</ele><time>2026-05-03T09:54:55Z</time></trkpt><trkpt lat="45.992392972294844" lon="12.172840348932985"><ele>388.5</ele><time>2026-05-03T09:54:56Z</time></trkpt><trkpt lat="45.99227326550453" lon="12.172748959193942"><ele>390.25</ele><time>2026-05-03T09:54:57Z</time></trkpt><trkpt lat="45.992172012566684" lon="12.172683713614777"><ele>392.0</ele><time>2026-05-03T09:54:58Z</time></trkpt><trkpt lat="45.99209669864759" lon="12.172642249214112"><ele>392.0</ele><time>2026-05-03T09:54:59Z</time></trkpt><trkpt lat="45.99201379254367" lon="12.172528831262085"><ele>392.0</ele><time>2026-05-03T09:55:01Z</time></trkpt><trkpt lat="45.99205156119889" lon="12.172455717954495"><ele>392.0</ele><time>2026-05-03T09:55:02Z</time></trkpt><trkpt lat="45.99213047889823" lon="12.172454715676162"><ele>392.0</ele><time>2026-05-03T09:55:03Z</time></trkpt><trkpt lat="45.99221784019071" lon="12.172521394317373"><ele>392.0</ele><time>2026-05-03T09:55:04Z</time></trkpt><trkpt lat="45.992315311711856" lon="12.172632962799627"><ele>392.0</ele><time>2026-05-03T09:55:05Z</time></trkpt><trkpt lat="45.99244203490068" lon="12.172733441925363"><ele>392.0</ele><time>2026-05-03T09:55:06Z</time></trkpt><trkpt lat="45.99258670307774" lon="12.172831961829317"><ele>392.0</ele><time>2026-05-03T09:55:07Z</time></trkpt><trkpt lat="45.99273994757116" lon="12.172909625195649"><ele>396.3333333333333</ele><time>2026-05-03T09:55:08Z</time></trkpt><trkpt lat="45.9928962890126" lon="12.172917240667944"><ele>400.66666666666663</ele><time>2026-05-03T09:55:09Z</time></trkpt><trkpt lat="45.99307938085495" lon="12.17284780330184"><ele>405.0</ele><time>2026-05-03T09:55:10Z</time></trkpt><trkpt lat="45.99328058586871" lon="12.172735300751185"><ele>406.66666666666663</ele><time>2026-05-03T09:55:11Z</time></trkpt><trkpt lat="45.993464772977866" lon="12.17267670020587"><ele>408.3333333333333</ele><time>2026-05-03T09:55:12Z</time></trkpt><trkpt lat="45.993607616582196" lon="12.17270698570365"><ele>410.0</ele><time>2026-05-03T09:55:13Z</time></trkpt><trkpt lat="45.99375767946057" lon="12.172801833541799"><ele>410.0</ele><time>2026-05-03T09:55:13.999Z</time></trkpt><trkpt lat="45.99393116834837" lon="12.172944049769395"><ele>410.0</ele><time>2026-05-03T09:55:14.999Z</time></trkpt><trkpt lat="45.9941320867482" lon="12.173012986344304"><ele>410.0</ele><time>2026-05-03T09:55:15.999Z</time></trkpt><trkpt lat="45.994372017323286" lon="12.173044548053294"><ele>414.0</ele><time>2026-05-03T09:55:16.999Z</time></trkpt><trkpt lat="45.99463114464212" lon="12.173071974348169"><ele>418.0</ele><time>2026-05-03T09:55:17.999Z</time></trkpt><trkpt lat="45.99486011938473" lon="12.173070853098059"><ele>419.6666666666667</ele><time>2026-05-03T09:55:18.999Z</time></trkpt><trkpt lat="45.99506361323957" lon="12.173033127582302"><ele>421.33333333333337</ele><time>2026-05-03T09:55:19.999Z</time></trkpt><trkpt lat="45.99528842736753" lon="12.172934813892343"><ele>423.0</ele><time>2026-05-03T09:55:20.999Z</time></trkpt><trkpt lat="45.99550561593423" lon="12.172806113860632"><ele>423.0</ele><time>2026-05-03T09:55:21.999Z</time></trkpt><trkpt lat="45.995729826642396" lon="12.172664067421147"><ele>423.0</ele><time>2026-05-03T09:55:22.999Z</time></trkpt><trkpt lat="45.99594018975903" lon="12.172529133359415"><ele>424.66666666666663</ele><time>2026-05-03T09:55:23.999Z</time></trkpt><trkpt lat="45.996141019444714" lon="12.172403055593474"><ele>426.3333333333333</ele><time>2026-05-03T09:55:24.999Z</time></trkpt><trkpt lat="45.99632262929473" lon="12.172304878040295"><ele>428.0</ele><time>2026-05-03T09:55:25.999Z</time></trkpt><trkpt lat="45.9964889634965" lon="12.172244641344246"><ele>430.0</ele><time>2026-05-03T09:55:26.999Z</time></trkpt><trkpt lat="45.9966532251085" lon="12.172250364171893"><ele>432.0</ele><time>2026-05-03T09:55:27.999Z</time></trkpt><trkpt lat="45.9968377090365" lon="12.17232369942925"><ele>434.0</ele><time>2026-05-03T09:55:28.999Z</time></trkpt><trkpt lat="45.99703336644689" lon="12.172404401222204"><ele>434.0</ele><time>2026-05-03T09:55:29.999Z</time></trkpt><trkpt lat="45.99723245406267" lon="12.172477128928602"><ele>434.0</ele><time>2026-05-03T09:55:30.999Z</time></trkpt><trkpt lat="45.99740339895336" lon="12.172530251188522"><ele>434.0</ele><time>2026-05-03T09:55:31.999Z</time></trkpt><trkpt lat="45.99754944096352" lon="12.17256488481216"><ele>437.79999999999995</ele><time>2026-05-03T09:55:32.999Z</time></trkpt><trkpt lat="45.99767223624514" lon="12.172591091252034"><ele>441.59999999999997</ele><time>2026-05-03T09:55:33.999Z</time></trkpt><trkpt lat="45.997771126812715" lon="12.172616668511827"><ele>445.4</ele><time>2026-05-03T09:55:34.999Z</time></trkpt><trkpt lat="45.99785696832473" lon="12.17264492987529"><ele>449.2</ele><time>2026-05-03T09:55:35.999Z</time></trkpt><trkpt lat="45.99791763971016" lon="12.172738689384774"><ele>453.0</ele><time>2026-05-03T09:55:36.999Z</time></trkpt><trkpt lat="45.99794733454675" lon="12.172879055060173"><ele>453.0</ele><time>2026-05-03T09:55:37.999Z</time></trkpt><trkpt lat="45.997916574270896" lon="12.173013988325003"><ele>453.0</ele><time>2026-05-03T09:55:38.999Z</time></trkpt><trkpt lat="45.99784452819405" lon="12.173122477870665"><ele>453.0</ele><time>2026-05-03T09:55:39.999Z</time></trkpt><trkpt lat="45.997739871192664" lon="12.17317916285618"><ele>453.0</ele><time>2026-05-03T09:55:40.999Z</time></trkpt><trkpt lat="45.99759858055829" lon="12.173190437825678"><ele>451.33333333333337</ele><time>2026-05-03T09:55:41.999Z</time></trkpt><trkpt lat="45.99741962378123" lon="12.173191378329964"><ele>449.6666666666667</ele><time>2026-05-03T09:55:42.999Z</time></trkpt><trkpt lat="45.99721618124609" lon="12.173194888968599"><ele>448.0</ele><time>2026-05-03T09:55:43.999Z</time></trkpt><trkpt lat="45.99701378795118" lon="12.173221635837585"><ele>448.0</ele><time>2026-05-03T09:55:44.999Z</time></trkpt><trkpt lat="45.99678987908476" lon="12.173325393114974"><ele>448.0</ele><time>2026-05-03T09:55:45.999Z</time></trkpt><trkpt lat="45.99661884910959" lon="12.173434072550345"><ele>448.0</ele><time>2026-05-03T09:55:46.999Z</time></trkpt><trkpt lat="45.99648362975817" lon="12.173595535500612"><ele>448.2</ele><time>2026-05-03T09:55:47.999Z</time></trkpt><trkpt lat="45.99639009585049" lon="12.173753930186178"><ele>448.4</ele><time>2026-05-03T09:55:48.999Z</time></trkpt><trkpt lat="45.996319914108824" lon="12.173872173128293"><ele>448.59999999999997</ele><time>2026-05-03T09:55:49.999Z</time></trkpt><trkpt lat="45.996284397862624" lon="12.173949011021476"><ele>448.79999999999995</ele><time>2026-05-03T09:55:50.999Z</time></trkpt><trkpt lat="45.99637876182016" lon="12.174049157711018"><ele>449.0</ele><time>2026-05-03T09:55:52.999Z</time></trkpt><trkpt lat="45.99646502234905" lon="12.173997589887103"><ele>448.75</ele><time>2026-05-03T09:55:53.999Z</time></trkpt><trkpt lat="45.99653882030907" lon="12.17387078992804"><ele>448.5</ele><time>2026-05-03T09:55:54.999Z</time></trkpt><trkpt lat="45.99664456814644" lon="12.173707951034928"><ele>448.25</ele><time>2026-05-03T09:55:55.999Z</time></trkpt><trkpt lat="45.99676950540903" lon="12.173597971358358"><ele>448.0</ele><time>2026-05-03T09:55:56.999Z</time></trkpt><trkpt lat="45.99690246217215" lon="12.173484425119415"><ele>448.0</ele><time>2026-05-03T09:55:57.999Z</time></trkpt><trkpt lat="45.997102901825386" lon="12.173514715255312"><ele>448.0</ele><time>2026-05-03T09:55:58.999Z</time></trkpt><trkpt lat="45.99725738683175" lon="12.17354529481037"><ele>448.0</ele><time>2026-05-03T09:55:59.999Z</time></trkpt><trkpt lat="45.9973959587551" lon="12.173628413441577"><ele>444.6666666666667</ele><time>2026-05-03T09:56:00.999Z</time></trkpt><trkpt lat="45.99753129924518" lon="12.173714553391276"><ele>441.33333333333337</ele><time>2026-05-03T09:56:01.999Z</time></trkpt><trkpt lat="45.997693622559645" lon="12.173750951052648"><ele>438.0</ele><time>2026-05-03T09:56:02.999Z</time></trkpt><trkpt lat="45.997886599060784" lon="12.17371682614295"><ele>438.0</ele><time>2026-05-03T09:56:03.999Z</time></trkpt><trkpt lat="45.99810547355944" lon="12.173597553998029"><ele>438.0</ele><time>2026-05-03T09:56:04.999Z</time></trkpt><trkpt lat="45.998350759192256" lon="12.1734558079164"><ele>438.0</ele><time>2026-05-03T09:56:05.999Z</time></trkpt><trkpt lat="45.99861818299624" lon="12.173350421273677"><ele>438.0</ele><time>2026-05-03T09:56:06.999Z</time></trkpt><trkpt lat="45.99886078318469" lon="12.173303968234267"><ele>456.0</ele><time>2026-05-03T09:56:07.999Z</time></trkpt><trkpt lat="45.9990666767244" lon="12.173286502590209"><ele>474.0</ele><time>2026-05-03T09:56:08.999Z</time></trkpt><trkpt lat="45.99927342902603" lon="12.173221792496722"><ele>492.0</ele><time>2026-05-03T09:56:09.999Z</time></trkpt><trkpt lat="45.999499880792065" lon="12.17308140939653"><ele>492.0</ele><time>2026-05-03T09:56:10.999Z</time></trkpt><trkpt lat="45.99971101709235" lon="12.1729337749835"><ele>492.0</ele><time>2026-05-03T09:56:11.999Z</time></trkpt><trkpt lat="45.999878939345834" lon="12.172808523468076"><ele>492.0</ele><time>2026-05-03T09:56:12.999Z</time></trkpt><trkpt lat="46.000020245833966" lon="12.172719088679555"><ele>492.0</ele><time>2026-05-03T09:56:13.999Z</time></trkpt><trkpt lat="46.00012373668147" lon="12.17263202355353"><ele>492.00000000000006</ele><time>2026-05-03T09:56:14.999Z</time></trkpt><trkpt lat="46.00020026067391" lon="12.172537496973126"><ele>492.00000000000006</ele><time>2026-05-03T09:56:15.999Z</time></trkpt><trkpt lat="46.00024083037058" lon="12.172425070107844"><ele>492.0</ele><time>2026-05-03T09:56:16.999Z</time></trkpt><trkpt lat="46.00020529476958" lon="12.172304929483545"><ele>492.0</ele><time>2026-05-03T09:56:17.999Z</time></trkpt><trkpt lat="46.0001101383656" lon="12.172205825682617"><ele>492.0</ele><time>2026-05-03T09:56:18.999Z</time></trkpt><trkpt lat="45.99999696765163" lon="12.172090887245409"><ele>492.0</ele><time>2026-05-03T09:56:19.999Z</time></trkpt><trkpt lat="45.9998348589135" lon="12.172054150678676"><ele>492.0</ele><time>2026-05-03T09:56:20.999Z</time></trkpt><trkpt lat="45.99962065665907" lon="12.171970029245948"><ele>492.0</ele><time>2026-05-03T09:56:21.999Z</time></trkpt><trkpt lat="45.99947357019662" lon="12.17191410522331"><ele>492.00000000000006</ele><time>2026-05-03T09:56:22.999Z</time></trkpt><trkpt lat="45.999388579596534" lon="12.171870830621216"><ele>492.00000000000006</ele><time>2026-05-03T09:56:23.999Z</time></trkpt><trkpt lat="45.999367293554265" lon="12.171744757714379"><ele>492.0</ele><time>2026-05-03T09:56:25.999Z</time></trkpt><trkpt lat="45.99944350023857" lon="12.171706259790051"><ele>492.0</ele><time>2026-05-03T09:56:26.999Z</time></trkpt><trkpt lat="45.99951535850001" lon="12.171767919469131"><ele>492.0</ele><time>2026-05-03T09:56:27.999Z</time></trkpt><trkpt lat="45.99962553696039" lon="12.17188128451067"><ele>492.0</ele><time>2026-05-03T09:56:28.999Z</time></trkpt><trkpt lat="45.99977907883477" lon="12.171935529346959"><ele>492.0</ele><time>2026-05-03T09:56:29.999Z</time></trkpt><trkpt lat="45.99997587743573" lon="12.171960223412768"><ele>492.0</ele><time>2026-05-03T09:56:30.999Z</time></trkpt><trkpt lat="46.00017809782769" lon="12.171966020555942"><ele>492.0</ele><time>2026-05-03T09:56:31.999Z</time></trkpt><trkpt lat="46.00036677810273" lon="12.171935039932462"><ele>492.0</ele><time>2026-05-03T09:56:32.999Z</time></trkpt><trkpt lat="46.00060027808465" lon="12.17189092487161"><ele>492.0</ele><time>2026-05-03T09:56:33.999Z</time></trkpt><trkpt lat="46.00078615981432" lon="12.171860333523695"><ele>492.0</ele><time>2026-05-03T09:56:34.999Z</time></trkpt><trkpt lat="46.00093520678121" lon="12.171839651158226"><ele>492.0</ele><time>2026-05-03T09:56:35.999Z</time></trkpt><trkpt lat="46.00106120016115" lon="12.171869172539028"><ele>492.0</ele><time>2026-05-03T09:56:36.999Z</time></trkpt><trkpt lat="46.00116409691173" lon="12.171917048305573"><ele>492.00000000000006</ele><time>2026-05-03T09:56:37.999Z</time></trkpt><trkpt lat="46.001256807564744" lon="12.17195399595697"><ele>492.00000000000006</ele><time>2026-05-03T09:56:38.999Z</time></trkpt><trkpt lat="46.00134408001069" lon="12.171996804200624"><ele>492.0</ele><time>2026-05-03T09:56:39.999Z</time></trkpt><trkpt lat="46.001447954222165" lon="12.172039154459572"><ele>492.0</ele><time>2026-05-03T09:56:40.999Z</time></trkpt><trkpt lat="46.00155571691678" lon="12.17207940087118"><ele>539.0</ele><time>2026-05-03T09:56:41.999Z</time></trkpt><trkpt lat="46.001666212710944" lon="12.17210665471963"><ele>586.0</ele><time>2026-05-03T09:56:42.999Z</time></trkpt><trkpt lat="46.001755739545835" lon="12.172091581002242"><ele>633.0</ele><time>2026-05-03T09:56:43.999Z</time></trkpt><trkpt lat="46.00184152522607" lon="12.172057591228446"><ele>680.0</ele><time>2026-05-03T09:56:44.999Z</time></trkpt><trkpt lat="46.00192776382507" lon="12.172021003515013"><ele>727.0</ele><time>2026-05-03T09:56:45.999Z</time></trkpt><trkpt lat="46.001995084686065" lon="12.171988519704437"><ele>727.0</ele><time>2026-05-03T09:56:46.999Z</time></trkpt><trkpt lat="46.002070342395854" lon="12.171955476571695"><ele>727.0</ele><time>2026-05-03T09:56:47.999Z</time></trkpt><trkpt lat="46.002140310028416" lon="12.1719444253357"><ele>727.0</ele><time>2026-05-03T09:56:48.999Z</time></trkpt><trkpt lat="46.002203820179" lon="12.171959199715145"><ele>727.0</ele><time>2026-05-03T09:56:49.999Z</time></trkpt><trkpt lat="46.00228912437905" lon="12.172080414053633"><ele>727.0</ele><time>2026-05-03T09:56:51.999Z</time></trkpt><trkpt lat="46.002293803401884" lon="12.172190337971443"><ele>727.0</ele><time>2026-05-03T09:56:52.999Z</time></trkpt><trkpt lat="46.00225853806491" lon="12.172309796408594"><ele>727.0</ele><time>2026-05-03T09:56:53.999Z</time></trkpt><trkpt lat="46.002195715881086" lon="12.172423685242"><ele>727.0</ele><time>2026-05-03T09:56:54.999Z</time></trkpt><trkpt lat="46.00209414693748" lon="12.172554142899306"><ele>727.0</ele><time>2026-05-03T09:56:55.999Z</time></trkpt><trkpt lat="46.00194901802059" lon="12.172706449620586"><ele>727.0</ele><time>2026-05-03T09:56:56.999Z</time></trkpt><trkpt lat="46.00177479374218" lon="12.172853194987628"><ele>727.0</ele><time>2026-05-03T09:56:57.999Z</time></trkpt><trkpt lat="46.00161556738388" lon="12.172981365574739"><ele>727.0</ele><time>2026-05-03T09:56:58.999Z</time></trkpt><trkpt lat="46.001470157890125" lon="12.173048834760554"><ele>727.0</ele><time>2026-05-03T09:56:59.999Z</time></trkpt><trkpt lat="46.00131372688453" lon="12.17305815228334"><ele>648.6666666666667</ele><time>2026-05-03T09:57:00.999Z</time></trkpt><trkpt lat="46.00114057654712" lon="12.173029390223345"><ele>570.3333333333334</ele><time>2026-05-03T09:57:01.999Z</time></trkpt><trkpt lat="46.000965721348315" lon="12.17303837532937"><ele>492.0</ele><time>2026-05-03T09:57:02.999Z</time></trkpt><trkpt lat="46.00080000929323" lon="12.17311457426768"><ele>492.0</ele><time>2026-05-03T09:57:03.999Z</time></trkpt><trkpt lat="46.00066916975941" lon="12.173209615165346"><ele>492.00000000000006</ele><time>2026-05-03T09:57:04.999Z</time></trkpt><trkpt lat="46.000563201496284" lon="12.173275735309467"><ele>492.00000000000006</ele><time>2026-05-03T09:57:05.999Z</time></trkpt><trkpt lat="46.000479415809515" lon="12.173317517547867"><ele>492.0</ele><time>2026-05-03T09:57:06.999Z</time></trkpt><trkpt lat="46.000422626073885" lon="12.173361569855704"><ele>492.0</ele><time>2026-05-03T09:57:07.999Z</time></trkpt><trkpt lat="46.00045285861953" lon="12.173497983387971"><ele>492.0</ele><time>2026-05-03T09:57:09.999Z</time></trkpt><trkpt lat="46.000532894076706" lon="12.17350974605556"><ele>492.00000000000006</ele><time>2026-05-03T09:57:10.999Z</time></trkpt><trkpt lat="46.00060718454555" lon="12.173456599432045"><ele>492.00000000000006</ele><time>2026-05-03T09:57:11.999Z</time></trkpt><trkpt lat="46.00070797403032" lon="12.173364681716478"><ele>492.0</ele><time>2026-05-03T09:57:12.999Z</time></trkpt><trkpt lat="46.000824990300636" lon="12.173287760674171"><ele>492.0</ele><time>2026-05-03T09:57:13.999Z</time></trkpt><trkpt lat="46.00095416446071" lon="12.173230125908319"><ele>492.0</ele><time>2026-05-03T09:57:14.999Z</time></trkpt><trkpt lat="46.0010787281728" lon="12.173224711783407"><ele>492.0</ele><time>2026-05-03T09:57:15.999Z</time></trkpt><trkpt lat="46.0012120953249" lon="12.173264714029164"><ele>492.0</ele><time>2026-05-03T09:57:16.999Z</time></trkpt><trkpt lat="46.00134523848859" lon="12.17333081187036"><ele>492.0</ele><time>2026-05-03T09:57:17.999Z</time></trkpt><trkpt lat="46.00147493262186" lon="12.173421553545582"><ele>492.0</ele><time>2026-05-03T09:57:18.999Z</time></trkpt><trkpt lat="46.001608861431116" lon="12.173515331648892"><ele>492.0</ele><time>2026-05-03T09:57:19.999Z</time></trkpt><trkpt lat="46.001737688347426" lon="12.173541597336483"><ele>492.0</ele><time>2026-05-03T09:57:20.999Z</time></trkpt><trkpt lat="46.00188387578399" lon="12.173552594243512"><ele>492.0</ele><time>2026-05-03T09:57:21.999Z</time></trkpt><trkpt lat="46.00201465013264" lon="12.173459917887053"><ele>492.0</ele><time>2026-05-03T09:57:22.999Z</time></trkpt><trkpt lat="46.00214704582027" lon="12.173353729653835"><ele>492.0</ele><time>2026-05-03T09:57:23.999Z</time></trkpt><trkpt lat="46.00228104907014" lon="12.173274129279434"><ele>492.0</ele><time>2026-05-03T09:57:24.999Z</time></trkpt><trkpt lat="46.00240961409713" lon="12.173221515898499"><ele>492.0</ele><time>2026-05-03T09:57:25.999Z</time></trkpt><trkpt lat="46.00253075581625" lon="12.173200276930324"><ele>492.0</ele><time>2026-05-03T09:57:26.999Z</time></trkpt><trkpt lat="46.00264127600968" lon="12.173227019869056"><ele>492.00000000000006</ele><time>2026-05-03T09:57:27.999Z</time></trkpt><trkpt lat="46.002750074808205" lon="12.173282798067808"><ele>492.00000000000006</ele><time>2026-05-03T09:57:28.999Z</time></trkpt><trkpt lat="46.00285584536335" lon="12.173360832588388"><ele>492.0</ele><time>2026-05-03T09:57:29.999Z</time></trkpt><trkpt lat="46.00293984504314" lon="12.173405984395115"><ele>492.0</ele><time>2026-05-03T09:57:30.999Z</time></trkpt><trkpt lat="46.00307412072072" lon="12.173499509562228"><ele>492.0</ele><time>2026-05-03T09:57:31.999Z</time></trkpt><trkpt lat="46.00323871627786" lon="12.1735783239867"><ele>492.0</ele><time>2026-05-03T09:57:32.999Z</time></trkpt><trkpt lat="46.003392976149705" lon="12.17358220135533"><ele>492.0</ele><time>2026-05-03T09:57:33.999Z</time></trkpt><trkpt lat="46.00355087522296" lon="12.17356689970886"><ele>492.0</ele><time>2026-05-03T09:57:34.999Z</time></trkpt><trkpt lat="46.003700565199466" lon="12.173506986561794"><ele>492.0</ele><time>2026-05-03T09:57:35.999Z</time></trkpt><trkpt lat="46.003826564203024" lon="12.173418696433533"><ele>492.0</ele><time>2026-05-03T09:57:36.999Z</time></trkpt><trkpt lat="46.00392802813669" lon="12.17327548750016"><ele>492.0</ele><time>2026-05-03T09:57:37.999Z</time></trkpt><trkpt lat="46.00401459208016" lon="12.173086520848914"><ele>543.3333333333334</ele><time>2026-05-03T09:57:38.999Z</time></trkpt><trkpt lat="46.00408792741775" lon="12.172870109963334"><ele>594.6666666666667</ele><time>2026-05-03T09:57:39.999Z</time></trkpt><trkpt lat="46.00415075172918" lon="12.172638982335506"><ele>646.0</ele><time>2026-05-03T09:57:40.999Z</time></trkpt><trkpt lat="46.00421718463835" lon="12.1724059511336"><ele>643.3333333333334</ele><time>2026-05-03T09:57:41.999Z</time></trkpt><trkpt lat="46.00429672324015" lon="12.17217602904308"><ele>640.6666666666666</ele><time>2026-05-03T09:57:42.999Z</time></trkpt><trkpt lat="46.0043700484149" lon="12.171941238873773"><ele>638.0</ele><time>2026-05-03T09:57:43.999Z</time></trkpt><trkpt lat="46.00443622417763" lon="12.171693643842948"><ele>666.0</ele><time>2026-05-03T09:57:44.999Z</time></trkpt><trkpt lat="46.0044714847323" lon="12.171473249328711"><ele>694.0</ele><time>2026-05-03T09:57:45.999Z</time></trkpt><trkpt lat="46.00447820114911" lon="12.171281441744709"><ele>722.0</ele><time>2026-05-03T09:57:46.999Z</time></trkpt><trkpt lat="46.004455024655385" lon="12.171114500159957"><ele>750.0</ele><time>2026-05-03T09:57:47.999Z</time></trkpt><trkpt lat="46.004385854465355" lon="12.170961934056816"><ele>750.0</ele><time>2026-05-03T09:57:48.999Z</time></trkpt><trkpt lat="46.0042979875252" lon="12.17084230336842"><ele>750.0</ele><time>2026-05-03T09:57:49.999Z</time></trkpt><trkpt lat="46.004207934706955" lon="12.170782678872559"><ele>750.0</ele><time>2026-05-03T09:57:50.999Z</time></trkpt><trkpt lat="46.00414465437268" lon="12.170743831185801"><ele>750.0</ele><time>2026-05-03T09:57:51.999Z</time></trkpt><trkpt lat="46.004162850573536" lon="12.170622921732516"><ele>750.0</ele><time>2026-05-03T09:57:53.999Z</time></trkpt><trkpt lat="46.00423030870572" lon="12.170637976153435"><ele>750.0</ele><time>2026-05-03T09:57:54.999Z</time></trkpt><trkpt lat="46.00430004759409" lon="12.170722205302678"><ele>750.0</ele><time>2026-05-03T09:57:55.999Z</time></trkpt><trkpt lat="46.00438765766462" lon="12.170830903729211"><ele>750.0</ele><time>2026-05-03T09:57:56.999Z</time></trkpt><trkpt lat="46.00447842611498" lon="12.170961082082238"><ele>750.0</ele><time>2026-05-03T09:57:57.999Z</time></trkpt><trkpt lat="46.00456553327579" lon="12.171115206265592"><ele>750.0</ele><time>2026-05-03T09:57:58.999Z</time></trkpt><trkpt lat="46.00462361224" lon="12.17127457715939"><ele>750.0</ele><time>2026-05-03T09:57:59.999Z</time></trkpt><trkpt lat="46.00464385222632" lon="12.171473700732694"><ele>750.0</ele><time>2026-05-03T09:58:00.999Z</time></trkpt><trkpt lat="46.004636727927505" lon="12.171685350185347"><ele>750.0</ele><time>2026-05-03T09:58:01.999Z</time></trkpt><trkpt lat="46.00461298806599" lon="12.171912570115564"><ele>750.0</ele><time>2026-05-03T09:58:02.999Z</time></trkpt><trkpt lat="46.004590810603766" lon="12.172122505417766"><ele>729.2</ele><time>2026-05-03T09:58:03.999Z</time></trkpt><trkpt lat="46.00457228614763" lon="12.172293008527554"><ele>708.4</ele><time>2026-05-03T09:58:04.999Z</time></trkpt><trkpt lat="46.004560026308575" lon="12.172425718678335"><ele>687.5999999999999</ele><time>2026-05-03T09:58:05.999Z</time></trkpt><trkpt lat="46.00459408660874" lon="12.172549040059009"><ele>666.8</ele><time>2026-05-03T09:58:07.999Z</time></trkpt><trkpt lat="46.00466217131074" lon="12.172456607908572"><ele>646.0</ele><time>2026-05-03T09:58:09.999Z</time></trkpt><trkpt lat="46.00470849477113" lon="12.172314484168275"><ele>644.0</ele><time>2026-05-03T09:58:10.999Z</time></trkpt><trkpt lat="46.00473312563117" lon="12.17215139056273"><ele>642.0</ele><time>2026-05-03T09:58:11.999Z</time></trkpt><trkpt lat="46.00475997976799" lon="12.171977511396765"><ele>640.0</ele><time>2026-05-03T09:58:12.999Z</time></trkpt><trkpt lat="46.00479436441486" lon="12.171799818881096"><ele>638.0</ele><time>2026-05-03T09:58:13.999Z</time></trkpt><trkpt lat="46.00482275270128" lon="12.171645855027329"><ele>666.0</ele><time>2026-05-03T09:58:14.999Z</time></trkpt><trkpt lat="46.00483484983382" lon="12.171480075601895"><ele>694.0</ele><time>2026-05-03T09:58:15.999Z</time></trkpt><trkpt lat="46.004835437771796" lon="12.171313533388897"><ele>722.0</ele><time>2026-05-03T09:58:16.999Z</time></trkpt><trkpt lat="46.00481802611926" lon="12.171145438450655"><ele>750.0</ele><time>2026-05-03T09:58:17.999Z</time></trkpt><trkpt lat="46.00478425589862" lon="12.170976128898836"><ele>750.0</ele><time>2026-05-03T09:58:18.999Z</time></trkpt><trkpt lat="46.00474518340275" lon="12.170820783414909"><ele>750.0</ele><time>2026-05-03T09:58:19.999Z</time></trkpt><trkpt lat="46.00467749061163" lon="12.170680297460693"><ele>750.0</ele><time>2026-05-03T09:58:20.999Z</time></trkpt><trkpt lat="46.0046075155747" lon="12.170585261024543"><ele>750.0</ele><time>2026-05-03T09:58:21.999Z</time></trkpt><trkpt lat="46.004524819525116" lon="12.170509644382502"><ele>750.0</ele><time>2026-05-03T09:58:22.999Z</time></trkpt><trkpt lat="46.00445347596245" lon="12.170444329152497"><ele>743.1666666666666</ele><time>2026-05-03T09:58:23.999Z</time></trkpt><trkpt lat="46.00438571867202" lon="12.170374779640317"><ele>736.3333333333334</ele><time>2026-05-03T09:58:24.999Z</time></trkpt><trkpt lat="46.00433212666322" lon="12.170296607054889"><ele>729.5</ele><time>2026-05-03T09:58:25.999Z</time></trkpt><trkpt lat="46.004257538471805" lon="12.17019086219653"><ele>722.6666666666667</ele><time>2026-05-03T09:58:27.999Z</time></trkpt><trkpt lat="46.00418884400085" lon="12.170116752091998"><ele>715.8333333333334</ele><time>2026-05-03T09:58:30Z</time></trkpt><trkpt lat="46.004144497106445" lon="12.170046738179211"><ele>709.0</ele><time>2026-05-03T09:58:35Z</time></trkpt><trkpt lat="46.00408819824925" lon="12.170000010016468"><ele>709.0</ele><time>2026-05-03T10:01:49Z</time></trkpt><trkpt lat="46.00397110841225" lon="12.169969530343486"><ele>709.0</ele><time>2026-05-03T10:01:51Z</time></trkpt><trkpt lat="46.00385946361351" lon="12.169960302360732"><ele>709.0</ele><time>2026-05-03T10:01:53Z</time></trkpt><trkpt lat="46.00373711953109" lon="12.169958466536587"><ele>709.0</ele><time>2026-05-03T10:01:55Z</time></trkpt><trkpt lat="46.003659182750404" lon="12.169939645298705"><ele>709.0</ele><time>2026-05-03T10:01:58Z</time></trkpt><trkpt lat="46.003588621258714" lon="12.169909860861214"><ele>709.0</ele><time>2026-05-03T10:02:00Z</time></trkpt><trkpt lat="46.00349316577781" lon="12.169893379500154"><ele>709.0</ele><time>2026-05-03T10:02:02Z</time></trkpt><trkpt lat="46.0033491909998" lon="12.169967304984722"><ele>709.0</ele><time>2026-05-03T10:02:04Z</time></trkpt><trkpt lat="46.003210972674495" lon="12.169897771797732"><ele>709.0</ele><time>2026-05-03T10:02:06.069Z</time></trkpt><trkpt lat="46.00311734706536" lon="12.169871689082688"><ele>709.0</ele><time>2026-05-03T10:02:08.045Z</time></trkpt><trkpt lat="46.00310387696453" lon="12.169734034991377"><ele>709.0</ele><time>2026-05-03T10:02:10Z</time></trkpt><trkpt lat="46.003182254111636" lon="12.169859800828112"><ele>709.0</ele><time>2026-05-03T10:02:12.001Z</time></trkpt><trkpt lat="46.003271618129276" lon="12.169899965846446"><ele>709.0</ele><time>2026-05-03T10:02:13.001Z</time></trkpt><trkpt lat="46.003340647050024" lon="12.16994215649991"><ele>709.0</ele><time>2026-05-03T10:02:15.001Z</time></trkpt><trkpt lat="46.00340988286975" lon="12.169742584172564"><ele>713.0</ele><time>2026-05-03T10:02:17.001Z</time></trkpt><trkpt lat="46.00330374806951" lon="12.170010245181537"><ele>717.0</ele><time>2026-05-03T10:02:19.001Z</time></trkpt><trkpt lat="46.00315271076531" lon="12.170145675518425"><ele>721.0</ele><time>2026-05-03T10:02:21.001Z</time></trkpt><trkpt lat="46.003747247738126" lon="12.169506688169777"><ele>725.5</ele><time>2026-05-03T10:02:26.001Z</time></trkpt><trkpt lat="46.00406322955846" lon="12.16951221307384"><ele>730.0</ele><time>2026-05-03T10:02:35.001Z</time></trkpt><trkpt lat="46.00391777831263" lon="12.16938580545506"><ele>730.0</ele><time>2026-05-03T10:02:37.001Z</time></trkpt><trkpt lat="46.004127107412124" lon="12.169450301280227"><ele>730.0</ele><time>2026-05-03T10:02:39.001Z</time></trkpt><trkpt lat="46.00422230176966" lon="12.169411205094478"><ele>730.0</ele><time>2026-05-03T10:02:40.001Z</time></trkpt><trkpt lat="46.004166177125605" lon="12.169291654993991"><ele>730.0</ele><time>2026-05-03T10:02:42.001Z</time></trkpt><trkpt lat="46.00403392754267" lon="12.169274526274437"><ele>730.0</ele><time>2026-05-03T10:02:44.001Z</time></trkpt><trkpt lat="46.003939870967535" lon="12.169297933275134"><ele>730.0</ele><time>2026-05-03T10:02:46.001Z</time></trkpt><trkpt lat="46.00411782901458" lon="12.16970641671662"><ele>730.0</ele><time>2026-05-03T10:02:58.001Z</time></trkpt><trkpt lat="46.00425259781735" lon="12.169934272666826"><ele>727.0</ele><time>2026-05-03T10:03:00.001Z</time></trkpt><trkpt lat="46.00435252782551" lon="12.16992233817491"><ele>724.0</ele><time>2026-05-03T10:03:01.001Z</time></trkpt><trkpt lat="46.00439836099794" lon="12.169998559281854"><ele>721.0</ele><time>2026-05-03T10:03:02.001Z</time></trkpt><trkpt lat="46.00280149715701" lon="12.170082032458557"><ele>721.0</ele><time>2026-05-03T10:03:04.001Z</time></trkpt><trkpt lat="46.002797211266014" lon="12.170184669205511"><ele>721.0</ele><time>2026-05-03T10:03:05.001Z</time></trkpt><trkpt lat="46.00303645819371" lon="12.170168745592358"><ele>721.0</ele><time>2026-05-03T10:03:11.051Z</time></trkpt><trkpt lat="46.004398220439526" lon="12.169660115906165"><ele>716.3333333333334</ele><time>2026-05-03T10:03:24.001Z</time></trkpt><trkpt lat="46.0045794979229" lon="12.169609610495444"><ele>711.6666666666666</ele><time>2026-05-03T10:03:25.001Z</time></trkpt><trkpt lat="46.00471634597155" lon="12.169548863740415"><ele>707.0</ele><time>2026-05-03T10:03:26.001Z</time></trkpt><trkpt lat="46.004867540594965" lon="12.169490790307599"><ele>708.3333333333333</ele><time>2026-05-03T10:03:27.001Z</time></trkpt><trkpt lat="46.00504905779921" lon="12.169448128052203"><ele>709.6666666666666</ele><time>2026-05-03T10:03:28.001Z</time></trkpt><trkpt lat="46.00519281699819" lon="12.16941278139135"><ele>711.0</ele><time>2026-05-03T10:03:29.001Z</time></trkpt><trkpt lat="46.0053370222664" lon="12.16936743592655"><ele>711.0</ele><time>2026-05-03T10:03:30.001Z</time></trkpt><trkpt lat="46.00548392539905" lon="12.169321861612294"><ele>711.0</ele><time>2026-05-03T10:03:31.001Z</time></trkpt><trkpt lat="46.00566473578746" lon="12.16927052395307"><ele>711.0</ele><time>2026-05-03T10:03:32.001Z</time></trkpt><trkpt lat="46.00580378300731" lon="12.169231204711576"><ele>711.3333333333334</ele><time>2026-05-03T10:03:33.001Z</time></trkpt><trkpt lat="46.00596843615842" lon="12.169192833556716"><ele>711.6666666666667</ele><time>2026-05-03T10:03:34.001Z</time></trkpt><trkpt lat="46.00613597658376" lon="12.169147797462083"><ele>712.0</ele><time>2026-05-03T10:03:35.001Z</time></trkpt><trkpt lat="46.00630744439725" lon="12.169111480346977"><ele>712.0</ele><time>2026-05-03T10:03:36.001Z</time></trkpt><trkpt lat="46.00648824131213" lon="12.169072936065971"><ele>712.0</ele><time>2026-05-03T10:03:37.001Z</time></trkpt><trkpt lat="46.00671196269153" lon="12.169018032389044"><ele>712.0</ele><time>2026-05-03T10:03:38.001Z</time></trkpt><trkpt lat="46.0069636253934" lon="12.168966640442887"><ele>708.0</ele><time>2026-05-03T10:03:39.001Z</time></trkpt><trkpt lat="46.007173559583464" lon="12.168910433592186"><ele>704.0</ele><time>2026-05-03T10:03:40.001Z</time></trkpt><trkpt lat="46.007410174788845" lon="12.16883399331784"><ele>697.0</ele><time>2026-05-03T10:03:41.001Z</time></trkpt><trkpt lat="46.00766760885976" lon="12.168740094731184"><ele>690.0</ele><time>2026-05-03T10:03:42.001Z</time></trkpt><trkpt lat="46.00786901667335" lon="12.168634261420792"><ele>690.0</ele><time>2026-05-03T10:03:43.001Z</time></trkpt><trkpt lat="46.00813744263686" lon="12.168545436534414"><ele>690.0</ele><time>2026-05-03T10:03:44.001Z</time></trkpt><trkpt lat="46.00845245374528" lon="12.168479506108078"><ele>687.5</ele><time>2026-05-03T10:03:45.001Z</time></trkpt><trkpt lat="46.00869351521628" lon="12.168418406282234"><ele>685.0</ele><time>2026-05-03T10:03:46.001Z</time></trkpt><trkpt lat="46.00891851635671" lon="12.168368462705313"><ele>682.5</ele><time>2026-05-03T10:03:47.001Z</time></trkpt><trkpt lat="46.009197539087424" lon="12.168315742438269"><ele>680.0</ele><time>2026-05-03T10:03:48.001Z</time></trkpt><trkpt lat="46.00943664863056" lon="12.168246219263883"><ele>677.5</ele><time>2026-05-03T10:03:49.001Z</time></trkpt><trkpt lat="46.00967159411012" lon="12.168183767716904"><ele>675.0</ele><time>2026-05-03T10:03:50.001Z</time></trkpt><trkpt lat="46.00990797017263" lon="12.168129067676219"><ele>673.6666666666666</ele><time>2026-05-03T10:03:51.001Z</time></trkpt><trkpt lat="46.01012881689303" lon="12.1680622227742"><ele>672.3333333333333</ele><time>2026-05-03T10:03:52.001Z</time></trkpt><trkpt lat="46.010336870659906" lon="12.167982363424274"><ele>671.0</ele><time>2026-05-03T10:03:53.001Z</time></trkpt><trkpt lat="46.01058567379027" lon="12.167887777733014"><ele>670.5</ele><time>2026-05-03T10:03:54.001Z</time></trkpt><trkpt lat="46.01091141533535" lon="12.167802675077553"><ele>670.0</ele><time>2026-05-03T10:03:55.001Z</time></trkpt><trkpt lat="46.01116526492417" lon="12.167698430630521"><ele>670.0</ele><time>2026-05-03T10:03:56.001Z</time></trkpt><trkpt lat="46.01132297153448" lon="12.167640013420742"><ele>670.0</ele><time>2026-05-03T10:03:57.001Z</time></trkpt><trkpt lat="46.011462059330746" lon="12.167597803089578"><ele>670.0</ele><time>2026-05-03T10:03:58.001Z</time></trkpt><trkpt lat="46.01160571456624" lon="12.167577328397694"><ele>670.0</ele><time>2026-05-03T10:03:59.001Z</time></trkpt><trkpt lat="46.011762078569944" lon="12.167596067447308"><ele>670.6666666666667</ele><time>2026-05-03T10:04:00.001Z</time></trkpt><trkpt lat="46.01192827201526" lon="12.167614209304741"><ele>671.3333333333334</ele><time>2026-05-03T10:04:01.001Z</time></trkpt><trkpt lat="46.01210404251891" lon="12.167629815112685"><ele>672.0</ele><time>2026-05-03T10:04:02.001Z</time></trkpt><trkpt lat="46.01227745858197" lon="12.167632187796121"><ele>672.0</ele><time>2026-05-03T10:04:03.001Z</time></trkpt><trkpt lat="46.01245312773663" lon="12.167615628495055"><ele>672.0</ele><time>2026-05-03T10:04:04Z</time></trkpt><trkpt lat="46.01262967134896" lon="12.167560767070169"><ele>672.0</ele><time>2026-05-03T10:04:05Z</time></trkpt><trkpt lat="46.01281341413838" lon="12.167502450453505"><ele>672.0</ele><time>2026-05-03T10:04:06Z</time></trkpt><trkpt lat="46.012999255726896" lon="12.167432515719433"><ele>672.0</ele><time>2026-05-03T10:04:07Z</time></trkpt><trkpt lat="46.01319579192997" lon="12.16737244109066"><ele>672.0</ele><time>2026-05-03T10:04:08Z</time></trkpt><trkpt lat="46.01339763062679" lon="12.167314794430826"><ele>664.6666666666666</ele><time>2026-05-03T10:04:09Z</time></trkpt><trkpt lat="46.0135999459865" lon="12.167261538314813"><ele>657.3333333333333</ele><time>2026-05-03T10:04:10Z</time></trkpt><trkpt lat="46.013800744866195" lon="12.167245536577724"><ele>650.0</ele><time>2026-05-03T10:04:11Z</time></trkpt><trkpt lat="46.013976221343555" lon="12.167246531673062"><ele>651.6666666666666</ele><time>2026-05-03T10:04:12Z</time></trkpt><trkpt lat="46.01416588153339" lon="12.16724279829392"><ele>653.3333333333334</ele><time>2026-05-03T10:04:13Z</time></trkpt><trkpt lat="46.01435722772528" lon="12.167216435900311"><ele>655.0</ele><time>2026-05-03T10:04:14Z</time></trkpt><trkpt lat="46.01454892036998" lon="12.167167525752252"><ele>655.0</ele><time>2026-05-03T10:04:15Z</time></trkpt><trkpt lat="46.01473070274067" lon="12.16719139772325"><ele>655.0</ele><time>2026-05-03T10:04:16Z</time></trkpt><trkpt lat="46.014910882254426" lon="12.167215801432434"><ele>655.0</ele><time>2026-05-03T10:04:17.001Z</time></trkpt><trkpt lat="46.015098087896256" lon="12.167207444007378"><ele>654.3333333333334</ele><time>2026-05-03T10:04:18.001Z</time></trkpt><trkpt lat="46.0152881448818" lon="12.167162018136436"><ele>653.6666666666666</ele><time>2026-05-03T10:04:19.001Z</time></trkpt><trkpt lat="46.015488614184676" lon="12.167111458182093"><ele>653.0</ele><time>2026-05-03T10:04:20.001Z</time></trkpt><trkpt lat="46.01569341601921" lon="12.167051623181047"><ele>655.0</ele><time>2026-05-03T10:04:21.001Z</time></trkpt><trkpt lat="46.01589719264595" lon="12.166991401989003"><ele>657.0</ele><time>2026-05-03T10:04:22.001Z</time></trkpt><trkpt lat="46.0160949192968" lon="12.166933987004066"><ele>659.0</ele><time>2026-05-03T10:04:23.001Z</time></trkpt><trkpt lat="46.01627781500841" lon="12.166905573829197"><ele>659.0</ele><time>2026-05-03T10:04:24.001Z</time></trkpt><trkpt lat="46.016450747275904" lon="12.16684279241053"><ele>659.0</ele><time>2026-05-03T10:04:25.001Z</time></trkpt><trkpt lat="46.016634942034905" lon="12.166789655868559"><ele>659.0</ele><time>2026-05-03T10:04:26.001Z</time></trkpt><trkpt lat="46.01682721982595" lon="12.166740858562358"><ele>661.6666666666666</ele><time>2026-05-03T10:04:27.001Z</time></trkpt><trkpt lat="46.01700473226365" lon="12.16669420288165"><ele>664.3333333333334</ele><time>2026-05-03T10:04:28.001Z</time></trkpt><trkpt lat="46.01717605083124" lon="12.166638715855946"><ele>667.0</ele><time>2026-05-03T10:04:29.001Z</time></trkpt><trkpt lat="46.017338941218725" lon="12.166532738549806"><ele>666.6666666666667</ele><time>2026-05-03T10:04:30.001Z</time></trkpt><trkpt lat="46.01748396846452" lon="12.166374370562309"><ele>666.3333333333334</ele><time>2026-05-03T10:04:31.001Z</time></trkpt><trkpt lat="46.017614804831055" lon="12.166213108993333"><ele>666.0</ele><time>2026-05-03T10:04:32.001Z</time></trkpt><trkpt lat="46.01777547054792" lon="12.16617528264944"><ele>666.0</ele><time>2026-05-03T10:04:33.001Z</time></trkpt><trkpt lat="46.01793988325809" lon="12.166165916653174"><ele>666.0</ele><time>2026-05-03T10:04:34.001Z</time></trkpt><trkpt lat="46.01809214481454" lon="12.166115697284907"><ele>666.0</ele><time>2026-05-03T10:04:35.001Z</time></trkpt><trkpt lat="46.01823297649221" lon="12.166026758036393"><ele>666.3333333333334</ele><time>2026-05-03T10:04:36.001Z</time></trkpt><trkpt lat="46.018382771508456" lon="12.16589069333429"><ele>666.6666666666667</ele><time>2026-05-03T10:04:37.001Z</time></trkpt><trkpt lat="46.018540713998505" lon="12.16573244670101"><ele>667.0</ele><time>2026-05-03T10:04:38.001Z</time></trkpt><trkpt lat="46.018699144306154" lon="12.165563783360069"><ele>663.3333333333334</ele><time>2026-05-03T10:04:39.001Z</time></trkpt><trkpt lat="46.01887411080965" lon="12.16539326040143"><ele>659.6666666666666</ele><time>2026-05-03T10:04:40.001Z</time></trkpt><trkpt lat="46.01905785238473" lon="12.16522046677534"><ele>656.0</ele><time>2026-05-03T10:04:41.001Z</time></trkpt><trkpt lat="46.019227928578445" lon="12.165055616535694"><ele>654.6666666666666</ele><time>2026-05-03T10:04:42.001Z</time></trkpt><trkpt lat="46.019393128658635" lon="12.16488285123327"><ele>653.3333333333334</ele><time>2026-05-03T10:04:43.001Z</time></trkpt><trkpt lat="46.01954297025092" lon="12.164697649333966"><ele>652.0</ele><time>2026-05-03T10:04:44.001Z</time></trkpt><trkpt lat="46.01969634894604" lon="12.164528217079285"><ele>649.6666666666667</ele><time>2026-05-03T10:04:45.001Z</time></trkpt><trkpt lat="46.01985110890344" lon="12.164380040873887"><ele>647.3333333333334</ele><time>2026-05-03T10:04:46.001Z</time></trkpt><trkpt lat="46.020005648324236" lon="12.164234988270012"><ele>645.0</ele><time>2026-05-03T10:04:47.001Z</time></trkpt><trkpt lat="46.020146295605514" lon="12.1640649489197"><ele>644.75</ele><time>2026-05-03T10:04:48.001Z</time></trkpt><trkpt lat="46.02026218555635" lon="12.163883728064885"><ele>644.5</ele><time>2026-05-03T10:04:49.001Z</time></trkpt><trkpt lat="46.02035680616214" lon="12.163742086892318"><ele>644.25</ele><time>2026-05-03T10:04:50.001Z</time></trkpt><trkpt lat="46.02047452651957" lon="12.1636749307059"><ele>644.0</ele><time>2026-05-03T10:04:51.001Z</time></trkpt><trkpt lat="46.02060811274269" lon="12.163650926519917"><ele>644.0</ele><time>2026-05-03T10:04:52.001Z</time></trkpt><trkpt lat="46.02075720101346" lon="12.163581922443617"><ele>644.0</ele><time>2026-05-03T10:04:53.001Z</time></trkpt><trkpt lat="46.02092161187221" lon="12.163534237800818"><ele>644.0</ele><time>2026-05-03T10:04:54.001Z</time></trkpt><trkpt lat="46.02110448387516" lon="12.163478097352224"><ele>639.3333333333333</ele><time>2026-05-03T10:04:55.001Z</time></trkpt><trkpt lat="46.02129210622284" lon="12.163421637561813"><ele>634.6666666666666</ele><time>2026-05-03T10:04:56.001Z</time></trkpt><trkpt lat="46.02148688443559" lon="12.1633605224232"><ele>630.0</ele><time>2026-05-03T10:04:57.001Z</time></trkpt><trkpt lat="46.021672033294045" lon="12.163300645757865"><ele>628.6666666666666</ele><time>2026-05-03T10:04:58.001Z</time></trkpt><trkpt lat="46.02183469303945" lon="12.163231068411747"><ele>627.3333333333333</ele><time>2026-05-03T10:04:59.001Z</time></trkpt><trkpt lat="46.021986159072796" lon="12.163148804168591"><ele>626.0</ele><time>2026-05-03T10:05:00.001Z</time></trkpt><trkpt lat="46.02215221749719" lon="12.163071538734716"><ele>624.3333333333333</ele><time>2026-05-03T10:05:01.001Z</time></trkpt><trkpt lat="46.02232568012433" lon="12.163004602084303"><ele>622.6666666666666</ele><time>2026-05-03T10:05:02.001Z</time></trkpt><trkpt lat="46.022504836820296" lon="12.162964385436096"><ele>621.0</ele><time>2026-05-03T10:05:03.001Z</time></trkpt><trkpt lat="46.0226901644336" lon="12.162924401015433"><ele>621.0</ele><time>2026-05-03T10:05:04.001Z</time></trkpt><trkpt lat="46.02287193257977" lon="12.162881504466776"><ele>621.0</ele><time>2026-05-03T10:05:05Z</time></trkpt><trkpt lat="46.023042858053145" lon="12.162820268722195"><ele>621.0</ele><time>2026-05-03T10:05:06Z</time></trkpt><trkpt lat="46.02321292739447" lon="12.162728500780904"><ele>620.0</ele><time>2026-05-03T10:05:07Z</time></trkpt><trkpt lat="46.0233752638901" lon="12.162637190660597"><ele>619.0</ele><time>2026-05-03T10:05:08Z</time></trkpt><trkpt lat="46.023533936050015" lon="12.162550945448109"><ele>618.0</ele><time>2026-05-03T10:05:09Z</time></trkpt><trkpt lat="46.023691011971366" lon="12.162455535041046"><ele>616.0</ele><time>2026-05-03T10:05:10Z</time></trkpt><trkpt lat="46.023843743818" lon="12.162338459213972"><ele>614.0</ele><time>2026-05-03T10:05:11Z</time></trkpt><trkpt lat="46.02399669366861" lon="12.162201786434489"><ele>612.0</ele><time>2026-05-03T10:05:12Z</time></trkpt><trkpt lat="46.024166753635804" lon="12.16213513731343"><ele>608.0</ele><time>2026-05-03T10:05:13Z</time></trkpt><trkpt lat="46.02433328106647" lon="12.1620889788408"><ele>604.0</ele><time>2026-05-03T10:05:14Z</time></trkpt><trkpt lat="46.02449392227221" lon="12.162084890588721"><ele>600.0</ele><time>2026-05-03T10:05:15Z</time></trkpt><trkpt lat="46.02467921146107" lon="12.162107413755303"><ele>600.0</ele><time>2026-05-03T10:05:16Z</time></trkpt><trkpt lat="46.024872291298514" lon="12.162113767348892"><ele>600.0</ele><time>2026-05-03T10:05:17Z</time></trkpt><trkpt lat="46.025055330347385" lon="12.162116680995602"><ele>600.0</ele><time>2026-05-03T10:05:18Z</time></trkpt><trkpt lat="46.02522781967537" lon="12.162127551681062"><ele>598.6666666666666</ele><time>2026-05-03T10:05:19Z</time></trkpt><trkpt lat="46.02539592209778" lon="12.162141803544394"><ele>597.3333333333333</ele><time>2026-05-03T10:05:20Z</time></trkpt><trkpt lat="46.02552976740845" lon="12.162217685038492"><ele>596.0</ele><time>2026-05-03T10:05:21Z</time></trkpt><trkpt lat="46.02565045478428" lon="12.162321640153277"><ele>600.3333333333333</ele><time>2026-05-03T10:05:22Z</time></trkpt><trkpt lat="46.025789983549494" lon="12.162439401086282"><ele>604.6666666666666</ele><time>2026-05-03T10:05:23Z</time></trkpt><trkpt lat="46.025935109046515" lon="12.162535416068685"><ele>609.0</ele><time>2026-05-03T10:05:24Z</time></trkpt><trkpt lat="46.02607368122774" lon="12.162646210534882"><ele>609.0</ele><time>2026-05-03T10:05:25Z</time></trkpt><trkpt lat="46.026217036183446" lon="12.162713044082903"><ele>609.0</ele><time>2026-05-03T10:05:26Z</time></trkpt><trkpt lat="46.02637320310862" lon="12.162716469321163"><ele>609.0</ele><time>2026-05-03T10:05:27Z</time></trkpt><trkpt lat="46.026536075715796" lon="12.162665106784502"><ele>604.0</ele><time>2026-05-03T10:05:28Z</time></trkpt><trkpt lat="46.02670501830077" lon="12.162613414754386"><ele>599.0</ele><time>2026-05-03T10:05:29Z</time></trkpt><trkpt lat="46.026867729556656" lon="12.16263073491583"><ele>594.0</ele><time>2026-05-03T10:05:30Z</time></trkpt><trkpt lat="46.02703750957037" lon="12.162648086945836"><ele>594.0</ele><time>2026-05-03T10:05:31Z</time></trkpt><trkpt lat="46.02721601675065" lon="12.162696762740577"><ele>594.0</ele><time>2026-05-03T10:05:32Z</time></trkpt><trkpt lat="46.027404173842704" lon="12.162721392290926"><ele>594.0</ele><time>2026-05-03T10:05:33Z</time></trkpt><trkpt lat="46.02758039207903" lon="12.162716733076376"><ele>591.6666666666666</ele><time>2026-05-03T10:05:34Z</time></trkpt><trkpt lat="46.02775091365618" lon="12.162705365640717"><ele>589.3333333333333</ele><time>2026-05-03T10:05:35Z</time></trkpt><trkpt lat="46.02790979186968" lon="12.162725132192264"><ele>587.0</ele><time>2026-05-03T10:05:36Z</time></trkpt><trkpt lat="46.02806715443672" lon="12.16274855090273"><ele>587.0</ele><time>2026-05-03T10:05:37Z</time></trkpt><trkpt lat="46.028226940054964" lon="12.16277183377281"><ele>587.0</ele><time>2026-05-03T10:05:38Z</time></trkpt><trkpt lat="46.028380592764165" lon="12.162801315493912"><ele>587.0</ele><time>2026-05-03T10:05:39Z</time></trkpt><trkpt lat="46.028528589812076" lon="12.16283372867025"><ele>583.3333333333333</ele><time>2026-05-03T10:05:40Z</time></trkpt><trkpt lat="46.02868047978345" lon="12.162887496430272"><ele>579.6666666666666</ele><time>2026-05-03T10:05:41Z</time></trkpt><trkpt lat="46.028825889373664" lon="12.16301230905279"><ele>576.0</ele><time>2026-05-03T10:05:42Z</time></trkpt><trkpt lat="46.02898407541389" lon="12.163123670583555"><ele>576.0</ele><time>2026-05-03T10:05:43Z</time></trkpt><trkpt lat="46.02915051672993" lon="12.163206852243606"><ele>576.0</ele><time>2026-05-03T10:05:44Z</time></trkpt><trkpt lat="46.029315861666284" lon="12.163285756544822"><ele>576.0</ele><time>2026-05-03T10:05:45Z</time></trkpt><trkpt lat="46.029488834850454" lon="12.163346696512084"><ele>576.0</ele><time>2026-05-03T10:05:46Z</time></trkpt><trkpt lat="46.02967106684981" lon="12.163369519307047"><ele>576.0</ele><time>2026-05-03T10:05:47Z</time></trkpt><trkpt lat="46.02985479430312" lon="12.163364162862221"><ele>576.0</ele><time>2026-05-03T10:05:48Z</time></trkpt><trkpt lat="46.03003481066586" lon="12.163351996903195"><ele>574.3333333333334</ele><time>2026-05-03T10:05:49Z</time></trkpt><trkpt lat="46.030210572740174" lon="12.163356282988715"><ele>572.6666666666667</ele><time>2026-05-03T10:05:50Z</time></trkpt><trkpt lat="46.030381178042404" lon="12.163402181483507"><ele>571.0</ele><time>2026-05-03T10:05:51Z</time></trkpt><trkpt lat="46.0305528193757" lon="12.163431708631368"><ele>571.0</ele><time>2026-05-03T10:05:52Z</time></trkpt><trkpt lat="46.03072773176943" lon="12.163474364783172"><ele>571.0</ele><time>2026-05-03T10:05:53Z</time></trkpt><trkpt lat="46.03090470900141" lon="12.163510884769154"><ele>571.0</ele><time>2026-05-03T10:05:54Z</time></trkpt><trkpt lat="46.03108257327479" lon="12.163514557299978"><ele>570.0</ele><time>2026-05-03T10:05:55Z</time></trkpt><trkpt lat="46.031242985317455" lon="12.163548216666564"><ele>569.0</ele><time>2026-05-03T10:05:56Z</time></trkpt><trkpt lat="46.03139951777132" lon="12.163570800496824"><ele>568.0</ele><time>2026-05-03T10:05:57Z</time></trkpt><trkpt lat="46.03154253836465" lon="12.163586526614603"><ele>567.5</ele><time>2026-05-03T10:05:58Z</time></trkpt><trkpt lat="46.031673727333015" lon="12.163586928833782"><ele>567.0</ele><time>2026-05-03T10:05:59Z</time></trkpt><trkpt lat="46.03180132305316" lon="12.163567762747878"><ele>566.5</ele><time>2026-05-03T10:06:00Z</time></trkpt><trkpt lat="46.031937316844456" lon="12.163542648480007"><ele>566.0</ele><time>2026-05-03T10:06:01Z</time></trkpt><trkpt lat="46.0320731500285" lon="12.163514065999491"><ele>566.0</ele><time>2026-05-03T10:06:01.999Z</time></trkpt><trkpt lat="46.032208960577826" lon="12.163513171529358"><ele>566.0</ele><time>2026-05-03T10:06:02.999Z</time></trkpt><trkpt lat="46.03233878036543" lon="12.163473314561136"><ele>566.0</ele><time>2026-05-03T10:06:03.999Z</time></trkpt><trkpt lat="46.03246606218918" lon="12.16344873791864"><ele>566.0</ele><time>2026-05-03T10:06:04.999Z</time></trkpt><trkpt lat="46.03259302826271" lon="12.163397893650279"><ele>565.5</ele><time>2026-05-03T10:06:05.999Z</time></trkpt><trkpt lat="46.03271200096479" lon="12.163322176834946"><ele>565.0</ele><time>2026-05-03T10:06:06.999Z</time></trkpt><trkpt lat="46.03283230823924" lon="12.163292860041897"><ele>564.5</ele><time>2026-05-03T10:06:07.999Z</time></trkpt><trkpt lat="46.03294355504269" lon="12.163290793699357"><ele>564.0</ele><time>2026-05-03T10:06:08.999Z</time></trkpt><trkpt lat="46.033043769876244" lon="12.163348798521207"><ele>564.0</ele><time>2026-05-03T10:06:09.999Z</time></trkpt><trkpt lat="46.03312605644554" lon="12.163456760164605"><ele>564.0</ele><time>2026-05-03T10:06:10.999Z</time></trkpt><trkpt lat="46.033216662066486" lon="12.163541362108862"><ele>564.0</ele><time>2026-05-03T10:06:11.999Z</time></trkpt><trkpt lat="46.03330616312299" lon="12.163588241748084"><ele>564.0</ele><time>2026-05-03T10:06:12.999Z</time></trkpt><trkpt lat="46.03336528533062" lon="12.163643435523502"><ele>564.0</ele><time>2026-05-03T10:06:13.999Z</time></trkpt><trkpt lat="46.03343814948754" lon="12.163587387898222"><ele>562.4</ele><time>2026-05-03T10:06:14.999Z</time></trkpt><trkpt lat="46.03349778374875" lon="12.163486916150127"><ele>560.8</ele><time>2026-05-03T10:06:15.999Z</time></trkpt><trkpt lat="46.033574086117454" lon="12.16338176615914"><ele>559.2</ele><time>2026-05-03T10:06:16.999Z</time></trkpt><trkpt lat="46.03365835119767" lon="12.163261863255316"><ele>557.6</ele><time>2026-05-03T10:06:17.999Z</time></trkpt><trkpt lat="46.03373695721716" lon="12.163123057632927"><ele>556.0</ele><time>2026-05-03T10:06:18.999Z</time></trkpt><trkpt lat="46.03382698402712" lon="12.163016406275263"><ele>554.0</ele><time>2026-05-03T10:06:19.999Z</time></trkpt><trkpt lat="46.03391839336541" lon="12.162931081150566"><ele>552.0</ele><time>2026-05-03T10:06:20.999Z</time></trkpt><trkpt lat="46.03402452425515" lon="12.16291384364882"><ele>550.0</ele><time>2026-05-03T10:06:21.999Z</time></trkpt><trkpt lat="46.03413202154308" lon="12.162885938604573"><ele>548.0</ele><time>2026-05-03T10:06:22.999Z</time></trkpt><trkpt lat="46.03423881902484" lon="12.162826000296874"><ele>546.0</ele><time>2026-05-03T10:06:23.999Z</time></trkpt><trkpt lat="46.03433969188013" lon="12.162756578194305"><ele>546.0</ele><time>2026-05-03T10:06:24.999Z</time></trkpt><trkpt lat="46.03441900430655" lon="12.162637920766452"><ele>546.0</ele><time>2026-05-03T10:06:25.999Z</time></trkpt><trkpt lat="46.034468334388684" lon="12.162502730241"><ele>546.0</ele><time>2026-05-03T10:06:26.999Z</time></trkpt><trkpt lat="46.03449655624192" lon="12.16237346334221"><ele>546.0</ele><time>2026-05-03T10:06:27.999Z</time></trkpt><trkpt lat="46.03450795032302" lon="12.162241678056956"><ele>546.0</ele><time>2026-05-03T10:06:28.999Z</time></trkpt><trkpt lat="46.03451004962417" lon="12.162116331599265"><ele>544.1666666666666</ele><time>2026-05-03T10:06:29.999Z</time></trkpt><trkpt lat="46.03452202589344" lon="12.162013351581898"><ele>542.3333333333334</ele><time>2026-05-03T10:06:30.999Z</time></trkpt><trkpt lat="46.03458572593527" lon="12.161933096423358"><ele>540.5</ele><time>2026-05-03T10:06:32.999Z</time></trkpt><trkpt lat="46.03450910336109" lon="12.161988061145646"><ele>538.6666666666667</ele><time>2026-05-03T10:07:18.999Z</time></trkpt><trkpt lat="46.03448098367687" lon="12.162071421741656"><ele>536.8333333333334</ele><time>2026-05-03T10:07:19.999Z</time></trkpt><trkpt lat="46.03445063330447" lon="12.162197678976444"><ele>535.0</ele><time>2026-05-03T10:07:20.999Z</time></trkpt><trkpt lat="46.034432273810424" lon="12.162328426655584"><ele>537.75</ele><time>2026-05-03T10:07:21.999Z</time></trkpt><trkpt lat="46.034411685369044" lon="12.162496428988993"><ele>540.5</ele><time>2026-05-03T10:07:22.999Z</time></trkpt><trkpt lat="46.03436449760295" lon="12.162665920286178"><ele>543.25</ele><time>2026-05-03T10:07:23.999Z</time></trkpt><trkpt lat="46.03426492147682" lon="12.162766962272585"><ele>546.0</ele><time>2026-05-03T10:07:24.999Z</time></trkpt><trkpt lat="46.03415667728154" lon="12.162841849503957"><ele>545.0</ele><time>2026-05-03T10:07:25.999Z</time></trkpt><trkpt lat="46.03403376932764" lon="12.162868150063439"><ele>544.0</ele><time>2026-05-03T10:07:26.999Z</time></trkpt><trkpt lat="46.03391027162737" lon="12.162911562546045"><ele>543.0</ele><time>2026-05-03T10:07:27.999Z</time></trkpt><trkpt lat="46.033799786702346" lon="12.162997015990658"><ele>542.0</ele><time>2026-05-03T10:07:28.999Z</time></trkpt><trkpt lat="46.033695116106514" lon="12.163109765371317"><ele>545.5</ele><time>2026-05-03T10:07:29.999Z</time></trkpt><trkpt lat="46.03360237277318" lon="12.163256660253237"><ele>549.0</ele><time>2026-05-03T10:07:30.999Z</time></trkpt><trkpt lat="46.03351691560864" lon="12.16339209383907"><ele>552.5</ele><time>2026-05-03T10:07:31.999Z</time></trkpt><trkpt lat="46.033451668958676" lon="12.163495879015821"><ele>556.0</ele><time>2026-05-03T10:07:32.999Z</time></trkpt><trkpt lat="46.03338712754947" lon="12.163583145942628"><ele>556.0</ele><time>2026-05-03T10:07:33.999Z</time></trkpt><trkpt lat="46.033321899573906" lon="12.163624887062868"><ele>556.0</ele><time>2026-05-03T10:07:34.999Z</time></trkpt><trkpt lat="46.03323960378127" lon="12.163555695923735"><ele>556.0</ele><time>2026-05-03T10:07:35.999Z</time></trkpt><trkpt lat="46.033183398988356" lon="12.163453447427582"><ele>556.0</ele><time>2026-05-03T10:07:36.999Z</time></trkpt><trkpt lat="46.033086390417196" lon="12.163363145510639"><ele>556.0</ele><time>2026-05-03T10:07:37.999Z</time></trkpt><trkpt lat="46.03298312680158" lon="12.163288846672401"><ele>557.6</ele><time>2026-05-03T10:07:38.999Z</time></trkpt><trkpt lat="46.0328836493133" lon="12.163221032740319"><ele>559.2</ele><time>2026-05-03T10:07:39.999Z</time></trkpt><trkpt lat="46.03279234784409" lon="12.163220229282755"><ele>560.8</ele><time>2026-05-03T10:07:40.999Z</time></trkpt><trkpt lat="46.03268791279579" lon="12.163256739775068"><ele>562.4</ele><time>2026-05-03T10:07:41.999Z</time></trkpt><trkpt lat="46.03257912188689" lon="12.16332934179798"><ele>564.0</ele><time>2026-05-03T10:07:42.999Z</time></trkpt><trkpt lat="46.03247227570381" lon="12.163402585253808"><ele>564.5</ele><time>2026-05-03T10:07:43.999Z</time></trkpt><trkpt lat="46.0323657358172" lon="12.163450538801111"><ele>565.0</ele><time>2026-05-03T10:07:44.999Z</time></trkpt><trkpt lat="46.0322436163453" lon="12.163469665756416"><ele>565.5</ele><time>2026-05-03T10:07:45.999Z</time></trkpt><trkpt lat="46.032114254787004" lon="12.163487818727251"><ele>566.0</ele><time>2026-05-03T10:07:46.999Z</time></trkpt><trkpt lat="46.03198053662852" lon="12.16350307102187"><ele>566.0</ele><time>2026-05-03T10:07:47.999Z</time></trkpt><trkpt lat="46.031856860488325" lon="12.163526305168334"><ele>566.0</ele><time>2026-05-03T10:07:48.999Z</time></trkpt><trkpt lat="46.031742928800654" lon="12.163544574607156"><ele>566.0</ele><time>2026-05-03T10:07:49.999Z</time></trkpt><trkpt lat="46.031626564315516" lon="12.163556102149133"><ele>566.0</ele><time>2026-05-03T10:07:50.999Z</time></trkpt><trkpt lat="46.03150400834014" lon="12.163543673185165"><ele>566.5</ele><time>2026-05-03T10:07:51.999Z</time></trkpt><trkpt lat="46.03137744222355" lon="12.163539949637853"><ele>567.0</ele><time>2026-05-03T10:07:52.999Z</time></trkpt><trkpt lat="46.031242733573826" lon="12.163520790714193"><ele>567.5</ele><time>2026-05-03T10:07:53.999Z</time></trkpt><trkpt lat="46.03111055445778" lon="12.163506017394083"><ele>568.0</ele><time>2026-05-03T10:07:54.999Z</time></trkpt><trkpt lat="46.03097238583561" lon="12.163485584005139"><ele>568.0</ele><time>2026-05-03T10:07:55.999Z</time></trkpt><trkpt lat="46.030827950048995" lon="12.163465002157356"><ele>568.0</ele><time>2026-05-03T10:07:56.999Z</time></trkpt><trkpt lat="46.03068140316145" lon="12.163430792663634"><ele>568.0</ele><time>2026-05-03T10:07:57.999Z</time></trkpt><trkpt lat="46.03053689802718" lon="12.163397775154106"><ele>568.0</ele><time>2026-05-03T10:07:58.999Z</time></trkpt><trkpt lat="46.03039703123752" lon="12.163366625086358"><ele>568.75</ele><time>2026-05-03T10:07:59.999Z</time></trkpt><trkpt lat="46.030258807369314" lon="12.163344594803412"><ele>569.5</ele><time>2026-05-03T10:08:00.999Z</time></trkpt><trkpt lat="46.03011877121414" lon="12.163332138293189"><ele>570.25</ele><time>2026-05-03T10:08:01.999Z</time></trkpt><trkpt lat="46.030005802755625" lon="12.163322602691158"><ele>571.0</ele><time>2026-05-03T10:08:02.999Z</time></trkpt><trkpt lat="46.0299202477598" lon="12.163311981646215"><ele>572.25</ele><time>2026-05-03T10:08:03.999Z</time></trkpt><trkpt lat="46.029832832795755" lon="12.163305452644272"><ele>573.5</ele><time>2026-05-03T10:08:05.999Z</time></trkpt><trkpt lat="46.029837841210174" lon="12.163526000056232"><ele>574.75</ele><time>2026-05-03T10:08:07.999Z</time></trkpt><trkpt lat="46.02984862050844" lon="12.163665683554655"><ele>576.0</ele><time>2026-05-03T10:08:08.999Z</time></trkpt><trkpt lat="46.02984729353315" lon="12.163828243145703"><ele>576.0</ele><time>2026-05-03T10:08:09.999Z</time></trkpt><trkpt lat="46.029844716581174" lon="12.163998937289636"><ele>576.0</ele><time>2026-05-03T10:08:10.999Z</time></trkpt><trkpt lat="46.02984208464655" lon="12.164171346269987"><ele>576.0</ele><time>2026-05-03T10:08:11.999Z</time></trkpt><trkpt lat="46.029836585300565" lon="12.164328012263976"><ele>576.0</ele><time>2026-05-03T10:08:12.999Z</time></trkpt><trkpt lat="46.029848117338176" lon="12.164485177426501"><ele>580.0</ele><time>2026-05-03T10:08:13.999Z</time></trkpt><trkpt lat="46.029886629672724" lon="12.164635633733486"><ele>584.0</ele><time>2026-05-03T10:08:14.999Z</time></trkpt><trkpt lat="46.02996428819657" lon="12.164762103039559"><ele>588.0</ele><time>2026-05-03T10:08:15.999Z</time></trkpt><trkpt lat="46.03005559140706" lon="12.164869524707402"><ele>592.0</ele><time>2026-05-03T10:08:16.999Z</time></trkpt><trkpt lat="46.03014825804978" lon="12.164977308385097"><ele>592.5</ele><time>2026-05-03T10:08:17.999Z</time></trkpt><trkpt lat="46.03023910525812" lon="12.165100967412508"><ele>593.0</ele><time>2026-05-03T10:08:18.999Z</time></trkpt><trkpt lat="46.030327318313226" lon="12.16523610791747"><ele>593.5</ele><time>2026-05-03T10:08:19.999Z</time></trkpt><trkpt lat="46.03041108468118" lon="12.165384864486523"><ele>594.0</ele><time>2026-05-03T10:08:20.999Z</time></trkpt><trkpt lat="46.030485820872585" lon="12.165546447272856"><ele>596.25</ele><time>2026-05-03T10:08:21.999Z</time></trkpt><trkpt lat="46.0305630616054" lon="12.165713840612678"><ele>598.5</ele><time>2026-05-03T10:08:22.999Z</time></trkpt><trkpt lat="46.030634467531456" lon="12.16588151997027"><ele>600.75</ele><time>2026-05-03T10:08:23.999Z</time></trkpt><trkpt lat="46.03070298203726" lon="12.166038922088884"><ele>603.0</ele><time>2026-05-03T10:08:24.999Z</time></trkpt><trkpt lat="46.03077145568844" lon="12.166188491165807"><ele>601.25</ele><time>2026-05-03T10:08:25.999Z</time></trkpt><trkpt lat="46.030835667910615" lon="12.166335140736955"><ele>599.5</ele><time>2026-05-03T10:08:26.999Z</time></trkpt><trkpt lat="46.03090387746263" lon="12.1664795419974"><ele>597.75</ele><time>2026-05-03T10:08:27.999Z</time></trkpt><trkpt lat="46.030977435074284" lon="12.16662919070759"><ele>596.0</ele><time>2026-05-03T10:08:28.999Z</time></trkpt><trkpt lat="46.03104478271458" lon="12.166767474113586"><ele>596.0</ele><time>2026-05-03T10:08:29.999Z</time></trkpt><trkpt lat="46.03111312565778" lon="12.166896697329136"><ele>596.0</ele><time>2026-05-03T10:08:30.999Z</time></trkpt><trkpt lat="46.03116816644435" lon="12.167033349750447"><ele>596.0</ele><time>2026-05-03T10:08:31.999Z</time></trkpt><trkpt lat="46.031250553154464" lon="12.167126183320397"><ele>596.0</ele><time>2026-05-03T10:08:32.999Z</time></trkpt><trkpt lat="46.03132414427701" lon="12.167199946463189"><ele>596.0</ele><time>2026-05-03T10:08:33.999Z</time></trkpt><trkpt lat="46.031402126096346" lon="12.167257668105606"><ele>595.1666666666666</ele><time>2026-05-03T10:08:34.999Z</time></trkpt><trkpt lat="46.03145206352346" lon="12.167363627524928"><ele>594.3333333333333</ele><time>2026-05-03T10:08:35.999Z</time></trkpt><trkpt lat="46.0314791442515" lon="12.167472372680354"><ele>593.5</ele><time>2026-05-03T10:08:36.999Z</time></trkpt><trkpt lat="46.03151130819685" lon="12.167588638267418"><ele>592.6666666666666</ele><time>2026-05-03T10:08:37.999Z</time></trkpt><trkpt lat="46.03155454073064" lon="12.167698483003266"><ele>591.8333333333334</ele><time>2026-05-03T10:08:38.999Z</time></trkpt><trkpt lat="46.0316302433467" lon="12.167768996645819"><ele>591.0</ele><time>2026-05-03T10:08:39.999Z</time></trkpt><trkpt lat="46.0316952454372" lon="12.16783638347017"><ele>591.0</ele><time>2026-05-03T10:08:40.999Z</time></trkpt><trkpt lat="46.031742775775264" lon="12.167904465917912"><ele>591.0</ele><time>2026-05-03T10:08:41.999Z</time></trkpt><trkpt lat="46.031723408234186" lon="12.168010389355754"><ele>591.0</ele><time>2026-05-03T10:08:42.999Z</time></trkpt><trkpt lat="46.031742719795545" lon="12.168151509201673"><ele>591.0</ele><time>2026-05-03T10:08:43.999Z</time></trkpt><trkpt lat="46.031771768583845" lon="12.168315350149964"><ele>591.0</ele><time>2026-05-03T10:08:44.999Z</time></trkpt><trkpt lat="46.031819402738485" lon="12.168485632786922"><ele>591.4</ele><time>2026-05-03T10:08:45.999Z</time></trkpt><trkpt lat="46.03186963379336" lon="12.16864418124527"><ele>591.8</ele><time>2026-05-03T10:08:46.999Z</time></trkpt><trkpt lat="46.03193998458676" lon="12.168777642959762"><ele>592.1999999999999</ele><time>2026-05-03T10:08:47.999Z</time></trkpt><trkpt lat="46.03201481783381" lon="12.16888960233783"><ele>592.6</ele><time>2026-05-03T10:08:48.999Z</time></trkpt><trkpt lat="46.032067744117384" lon="12.168966576668081"><ele>593.0</ele><time>2026-05-03T10:08:49.999Z</time></trkpt><trkpt lat="46.03215354544383" lon="12.169018722315812"><ele>593.0</ele><time>2026-05-03T10:08:51.999Z</time></trkpt><trkpt lat="46.03224096217748" lon="12.168868170174017"><ele>593.0</ele><time>2026-05-03T10:08:53.999Z</time></trkpt><trkpt lat="46.03229539197651" lon="12.168731540883885"><ele>593.0</ele><time>2026-05-03T10:08:54.999Z</time></trkpt><trkpt lat="46.03235249730107" lon="12.168584600173796"><ele>593.0</ele><time>2026-05-03T10:08:55.999Z</time></trkpt><trkpt lat="46.03240342444976" lon="12.168426557363638"><ele>593.0</ele><time>2026-05-03T10:08:56.999Z</time></trkpt><trkpt lat="46.032471791823184" lon="12.168288553725672"><ele>593.0</ele><time>2026-05-03T10:08:57.999Z</time></trkpt><trkpt lat="46.03251903138504" lon="12.16818759179503"><ele>593.0</ele><time>2026-05-03T10:08:58.999Z</time></trkpt><trkpt lat="46.032598254525" lon="12.168174571520689"><ele>593.0</ele><time>2026-05-03T10:09:00.999Z</time></trkpt><trkpt lat="46.03270363928879" lon="12.168228696512868"><ele>593.0</ele><time>2026-05-03T10:09:02.999Z</time></trkpt><trkpt lat="46.032771901013255" lon="12.168223234347938"><ele>591.5</ele><time>2026-05-03T10:09:03.999Z</time></trkpt><trkpt lat="46.03282583838841" lon="12.16827543384742"><ele>590.0</ele><time>2026-05-03T10:09:06.999Z</time></trkpt><trkpt lat="46.03278558898773" lon="12.168359430142406"><ele>588.5</ele><time>2026-05-03T10:09:09.999Z</time></trkpt><trkpt lat="46.03274013604854" lon="12.16854213558333"><ele>587.0</ele><time>2026-05-03T10:09:11.999Z</time></trkpt><trkpt lat="46.03270948330393" lon="12.168634492880898"><ele>585.5</ele><time>2026-05-03T10:09:12.999Z</time></trkpt><trkpt lat="46.03267447027416" lon="12.16874927154939"><ele>584.0</ele><time>2026-05-03T10:09:13.999Z</time></trkpt><trkpt lat="46.03263310038564" lon="12.168881562753386"><ele>585.0</ele><time>2026-05-03T10:09:14.999Z</time></trkpt><trkpt lat="46.03258989119788" lon="12.169032715811746"><ele>586.0</ele><time>2026-05-03T10:09:15.999Z</time></trkpt><trkpt lat="46.03255393385039" lon="12.169180527432037"><ele>587.0</ele><time>2026-05-03T10:09:16.999Z</time></trkpt><trkpt lat="46.03252418570028" lon="12.169327314483903"><ele>588.0</ele><time>2026-05-03T10:09:17.999Z</time></trkpt><trkpt lat="46.03250360705234" lon="12.169490097156723"><ele>589.0</ele><time>2026-05-03T10:09:18.999Z</time></trkpt><trkpt lat="46.03250267020835" lon="12.169658479802449"><ele>589.0</ele><time>2026-05-03T10:09:19.999Z</time></trkpt><trkpt lat="46.03252572447553" lon="12.16983104371554"><ele>589.0</ele><time>2026-05-03T10:09:20.999Z</time></trkpt><trkpt lat="46.032537620664" lon="12.169998961664586"><ele>589.0</ele><time>2026-05-03T10:09:21.999Z</time></trkpt><trkpt lat="46.032540282128906" lon="12.170129306522155"><ele>589.0</ele><time>2026-05-03T10:09:22.999Z</time></trkpt><trkpt lat="46.032542407780355" lon="12.170258712123719"><ele>589.0</ele><time>2026-05-03T10:09:23.999Z</time></trkpt><trkpt lat="46.03254475822165" lon="12.170395299438383"><ele>589.4</ele><time>2026-05-03T10:09:24.999Z</time></trkpt><trkpt lat="46.03253618397021" lon="12.170543390298894"><ele>589.8</ele><time>2026-05-03T10:09:25.999Z</time></trkpt><trkpt lat="46.03252458338355" lon="12.17070921616783"><ele>590.2</ele><time>2026-05-03T10:09:26.999Z</time></trkpt><trkpt lat="46.03251346726069" lon="12.170866957508046"><ele>590.6</ele><time>2026-05-03T10:09:27.999Z</time></trkpt><trkpt lat="46.0324869304441" lon="12.170993100713355"><ele>591.0</ele><time>2026-05-03T10:09:28.999Z</time></trkpt><trkpt lat="46.03244405101417" lon="12.171090817631852"><ele>595.4</ele><time>2026-05-03T10:09:29.999Z</time></trkpt><trkpt lat="46.03235558460252" lon="12.171122237451584"><ele>599.8</ele><time>2026-05-03T10:09:30.999Z</time></trkpt><trkpt lat="46.03229383261961" lon="12.17122615694027"><ele>604.1999999999999</ele><time>2026-05-03T10:09:31.999Z</time></trkpt><trkpt lat="46.03222759377313" lon="12.171350513237467"><ele>608.6</ele><time>2026-05-03T10:09:32.999Z</time></trkpt><trkpt lat="46.03213954878055" lon="12.17146659615585"><ele>613.0</ele><time>2026-05-03T10:09:33.999Z</time></trkpt><trkpt lat="46.0320414601867" lon="12.17156566102251"><ele>613.0</ele><time>2026-05-03T10:09:34.999Z</time></trkpt><trkpt lat="46.03195044698909" lon="12.17164404322431"><ele>613.0</ele><time>2026-05-03T10:09:35.999Z</time></trkpt><trkpt lat="46.03185483352126" lon="12.171665223148809"><ele>613.0</ele><time>2026-05-03T10:09:36.999Z</time></trkpt><trkpt lat="46.031752107603765" lon="12.171693296629623"><ele>613.0</ele><time>2026-05-03T10:09:37.999Z</time></trkpt><trkpt lat="46.03167332085061" lon="12.171729598939104"><ele>613.0</ele><time>2026-05-03T10:09:38.999Z</time></trkpt><trkpt lat="46.031627406989635" lon="12.171827027075581"><ele>613.0</ele><time>2026-05-03T10:09:39.999Z</time></trkpt><trkpt lat="46.03164441852029" lon="12.171953683981117"><ele>613.0</ele><time>2026-05-03T10:09:40.999Z</time></trkpt><trkpt lat="46.03168185123269" lon="12.172060817426486"><ele>613.0</ele><time>2026-05-03T10:09:41.999Z</time></trkpt><trkpt lat="46.03174186985499" lon="12.17217341807145"><ele>613.0</ele><time>2026-05-03T10:09:42.999Z</time></trkpt><trkpt lat="46.03177831175375" lon="12.1722774860473"><ele>613.0</ele><time>2026-05-03T10:09:43.999Z</time></trkpt><trkpt lat="46.03182388774311" lon="12.17245683666162"><ele>612.4</ele><time>2026-05-03T10:09:44.999Z</time></trkpt><trkpt lat="46.0318508671612" lon="12.172611600212967"><ele>611.8</ele><time>2026-05-03T10:09:45.999Z</time></trkpt><trkpt lat="46.03187085565535" lon="12.1727400356659"><ele>611.2</ele><time>2026-05-03T10:09:46.999Z</time></trkpt><trkpt lat="46.03184906022226" lon="12.172847197452175"><ele>610.6</ele><time>2026-05-03T10:09:47.999Z</time></trkpt><trkpt lat="46.03175704596263" lon="12.172978130190769"><ele>610.0</ele><time>2026-05-03T10:09:49.999Z</time></trkpt><trkpt lat="46.03169873578931" lon="12.173043533916907"><ele>615.6666666666667</ele><time>2026-05-03T10:09:50.999Z</time></trkpt><trkpt lat="46.03162703695672" lon="12.173094436421428"><ele>621.3333333333334</ele><time>2026-05-03T10:09:51.999Z</time></trkpt><trkpt lat="46.03154640715227" lon="12.17308938747196"><ele>627.0</ele><time>2026-05-03T10:09:52.999Z</time></trkpt><trkpt lat="46.03147335401971" lon="12.17300883142868"><ele>632.6666666666666</ele><time>2026-05-03T10:09:53.999Z</time></trkpt><trkpt lat="46.031380431201605" lon="12.172963601742321"><ele>638.3333333333333</ele><time>2026-05-03T10:09:54.999Z</time></trkpt><trkpt lat="46.03128576646525" lon="12.172976723294434"><ele>644.0</ele><time>2026-05-03T10:09:55.999Z</time></trkpt><trkpt lat="46.03122199856766" lon="12.173102099456015"><ele>644.0</ele><time>2026-05-03T10:09:56.999Z</time></trkpt><trkpt lat="46.0311644642309" lon="12.173185331203102"><ele>644.0</ele><time>2026-05-03T10:09:57.999Z</time></trkpt><trkpt lat="46.03109628358571" lon="12.173252397883443"><ele>644.0</ele><time>2026-05-03T10:09:58.999Z</time></trkpt><trkpt lat="46.031016426794366" lon="12.173220454995729"><ele>644.0</ele><time>2026-05-03T10:09:59.999Z</time></trkpt><trkpt lat="46.0309546276246" lon="12.173246831439672"><ele>644.0</ele><time>2026-05-03T10:10:00.999Z</time></trkpt><trkpt lat="46.030858801438946" lon="12.173298645887236"><ele>644.0</ele><time>2026-05-03T10:10:01.999Z</time></trkpt><trkpt lat="46.03076664355141" lon="12.173405119194145"><ele>648.6</ele><time>2026-05-03T10:10:02.999Z</time></trkpt><trkpt lat="46.03073209587765" lon="12.173515098983303"><ele>653.2</ele><time>2026-05-03T10:10:03.999Z</time></trkpt><trkpt lat="46.03067547120617" lon="12.173627486925731"><ele>657.8000000000001</ele><time>2026-05-03T10:10:04.999Z</time></trkpt><trkpt lat="46.030596929757564" lon="12.173740762063428"><ele>662.4000000000001</ele><time>2026-05-03T10:10:05.999Z</time></trkpt><trkpt lat="46.03050465482151" lon="12.173832473964648"><ele>667.0</ele><time>2026-05-03T10:10:06.999Z</time></trkpt><trkpt lat="46.03041744705071" lon="12.173934558359214"><ele>664.4000000000001</ele><time>2026-05-03T10:10:07.999Z</time></trkpt><trkpt lat="46.030314189065415" lon="12.174042740427149"><ele>661.8000000000001</ele><time>2026-05-03T10:10:08.999Z</time></trkpt><trkpt lat="46.03022845192919" lon="12.174159206381818"><ele>659.2</ele><time>2026-05-03T10:10:09.999Z</time></trkpt><trkpt lat="46.030161548072705" lon="12.174269074953063"><ele>656.6</ele><time>2026-05-03T10:10:10.999Z</time></trkpt><trkpt lat="46.030124292803855" lon="12.174403983052537"><ele>654.0</ele><time>2026-05-03T10:10:11.999Z</time></trkpt><trkpt lat="46.03009141650656" lon="12.174550045415854"><ele>654.0</ele><time>2026-05-03T10:10:12.999Z</time></trkpt><trkpt lat="46.03005913776464" lon="12.174709990989271"><ele>654.0</ele><time>2026-05-03T10:10:13.999Z</time></trkpt><trkpt lat="46.030027085292616" lon="12.174866171589066"><ele>654.0</ele><time>2026-05-03T10:10:14.999Z</time></trkpt><trkpt lat="46.029988366496084" lon="12.17500308708244"><ele>654.0</ele><time>2026-05-03T10:10:15.999Z</time></trkpt><trkpt lat="46.02996761714079" lon="12.175137682391682"><ele>654.0</ele><time>2026-05-03T10:10:16.999Z</time></trkpt><trkpt lat="46.02997448709217" lon="12.17525453584255"><ele>651.8000000000001</ele><time>2026-05-03T10:10:17.999Z</time></trkpt><trkpt lat="46.03000473509223" lon="12.17534043694777"><ele>649.6</ele><time>2026-05-03T10:10:18.999Z</time></trkpt><trkpt lat="46.030109202149724" lon="12.175421321713394"><ele>647.4</ele><time>2026-05-03T10:10:20.999Z</time></trkpt><trkpt lat="46.03017610441332" lon="12.175432877145848"><ele>645.2</ele><time>2026-05-03T10:10:21.999Z</time></trkpt><trkpt lat="46.03025773975854" lon="12.175377092378524"><ele>643.0</ele><time>2026-05-03T10:10:22.999Z</time></trkpt><trkpt lat="46.03031160303771" lon="12.175241011732574"><ele>643.0</ele><time>2026-05-03T10:10:23.999Z</time></trkpt><trkpt lat="46.03037161776703" lon="12.175127718126772"><ele>643.0</ele><time>2026-05-03T10:10:24.999Z</time></trkpt><trkpt lat="46.03046153142242" lon="12.175027517826456"><ele>643.0</ele><time>2026-05-03T10:10:25.999Z</time></trkpt><trkpt lat="46.030552574208436" lon="12.174924405120723"><ele>643.0</ele><time>2026-05-03T10:10:26.999Z</time></trkpt><trkpt lat="46.030643215931605" lon="12.174852220686779"><ele>643.0</ele><time>2026-05-03T10:10:27.999Z</time></trkpt><trkpt lat="46.030720463507926" lon="12.174829769947848"><ele>643.0</ele><time>2026-05-03T10:10:28.999Z</time></trkpt><trkpt lat="46.0308016654" lon="12.174837693415197"><ele>643.0</ele><time>2026-05-03T10:10:29.999Z</time></trkpt><trkpt lat="46.030892891855714" lon="12.174853019509339"><ele>643.0</ele><time>2026-05-03T10:10:30.999Z</time></trkpt><trkpt lat="46.03099702092358" lon="12.174894971884331"><ele>643.0</ele><time>2026-05-03T10:10:31.999Z</time></trkpt><trkpt lat="46.03107328519949" lon="12.174963657916793"><ele>643.0</ele><time>2026-05-03T10:10:32.999Z</time></trkpt><trkpt lat="46.031129464399875" lon="12.175055260964736"><ele>643.0</ele><time>2026-05-03T10:10:33.999Z</time></trkpt><trkpt lat="46.03116017441285" lon="12.175146201705015"><ele>643.0</ele><time>2026-05-03T10:10:34.999Z</time></trkpt><trkpt lat="46.03114114551812" lon="12.175305967272443"><ele>643.0</ele><time>2026-05-03T10:10:36.999Z</time></trkpt><trkpt lat="46.03111222321187" lon="12.175420804351766"><ele>643.0</ele><time>2026-05-03T10:10:37.999Z</time></trkpt><trkpt lat="46.03107253231463" lon="12.175555815472215"><ele>643.0</ele><time>2026-05-03T10:10:38.999Z</time></trkpt><trkpt lat="46.031037694387614" lon="12.175703907669478"><ele>647.5999999999999</ele><time>2026-05-03T10:10:39.999Z</time></trkpt><trkpt lat="46.031025599511125" lon="12.17585778363526"><ele>652.1999999999999</ele><time>2026-05-03T10:10:40.999Z</time></trkpt><trkpt lat="46.0310708196717" lon="12.176004401064569"><ele>656.8</ele><time>2026-05-03T10:10:41.999Z</time></trkpt><trkpt lat="46.03111966375018" lon="12.176152118116718"><ele>661.4</ele><time>2026-05-03T10:10:42.999Z</time></trkpt><trkpt lat="46.0311937520657" lon="12.176276397936617"><ele>666.0</ele><time>2026-05-03T10:10:43.999Z</time></trkpt><trkpt lat="46.03127348162897" lon="12.17641183027725"><ele>671.25</ele><time>2026-05-03T10:10:44.999Z</time></trkpt><trkpt lat="46.031353927838936" lon="12.176566994052434"><ele>676.5</ele><time>2026-05-03T10:10:45.999Z</time></trkpt><trkpt lat="46.03143717405336" lon="12.176733706929808"><ele>681.75</ele><time>2026-05-03T10:10:46.999Z</time></trkpt><trkpt lat="46.03151961051554" lon="12.176894546886203"><ele>687.0</ele><time>2026-05-03T10:10:47.999Z</time></trkpt><trkpt lat="46.03160451043703" lon="12.17704711328603"><ele>685.5</ele><time>2026-05-03T10:10:48.999Z</time></trkpt><trkpt lat="46.03168658207392" lon="12.177202543729253"><ele>684.0</ele><time>2026-05-03T10:10:49.999Z</time></trkpt><trkpt lat="46.03176836095296" lon="12.177342896286062"><ele>682.5</ele><time>2026-05-03T10:10:50.999Z</time></trkpt><trkpt lat="46.031847690775" lon="12.177444802603778"><ele>681.0</ele><time>2026-05-03T10:10:51.999Z</time></trkpt><trkpt lat="46.031934372131" lon="12.177515255392562"><ele>681.0</ele><time>2026-05-03T10:10:52.999Z</time></trkpt><trkpt lat="46.03203541256958" lon="12.177549101064617"><ele>681.0</ele><time>2026-05-03T10:10:53.999Z</time></trkpt><trkpt lat="46.03214824691021" lon="12.177538758452126"><ele>681.0</ele><time>2026-05-03T10:10:54.999Z</time></trkpt><trkpt lat="46.032256061420014" lon="12.177510472025414"><ele>681.0</ele><time>2026-05-03T10:10:55.999Z</time></trkpt><trkpt lat="46.032345996792664" lon="12.177498545207085"><ele>681.0</ele><time>2026-05-03T10:10:56.999Z</time></trkpt><trkpt lat="46.03241465025409" lon="12.177529123896711"><ele>681.0</ele><time>2026-05-03T10:10:57.999Z</time></trkpt><trkpt lat="46.03244762540556" lon="12.17768502027346"><ele>681.0</ele><time>2026-05-03T10:10:59.999Z</time></trkpt><trkpt lat="46.03241321185508" lon="12.177772147214126"><ele>681.0</ele><time>2026-05-03T10:11:00.999Z</time></trkpt><trkpt lat="46.032378434270775" lon="12.177891094840936"><ele>681.0</ele><time>2026-05-03T10:11:01.999Z</time></trkpt><trkpt lat="46.032328503786545" lon="12.178023858498072"><ele>681.0</ele><time>2026-05-03T10:11:02.999Z</time></trkpt><trkpt lat="46.032298497735006" lon="12.178191988097694"><ele>685.75</ele><time>2026-05-03T10:11:03.999Z</time></trkpt><trkpt lat="46.032304756464136" lon="12.178355004563787"><ele>690.5</ele><time>2026-05-03T10:11:04.999Z</time></trkpt><trkpt lat="46.0323262122245" lon="12.178510084201234"><ele>695.25</ele><time>2026-05-03T10:11:05.999Z</time></trkpt><trkpt lat="46.032356536254674" lon="12.178679579587625"><ele>700.0</ele><time>2026-05-03T10:11:06.999Z</time></trkpt><trkpt lat="46.03238400745623" lon="12.178856499101842"><ele>703.75</ele><time>2026-05-03T10:11:07.999Z</time></trkpt><trkpt lat="46.032400270782986" lon="12.179025659092815"><ele>707.5</ele><time>2026-05-03T10:11:08.999Z</time></trkpt><trkpt lat="46.032411690395065" lon="12.179203901949357"><ele>711.25</ele><time>2026-05-03T10:11:09.999Z</time></trkpt><trkpt lat="46.03242133701344" lon="12.17938721299061"><ele>715.0</ele><time>2026-05-03T10:11:10.999Z</time></trkpt><trkpt lat="46.032440633758476" lon="12.179563093862686"><ele>715.0</ele><time>2026-05-03T10:11:11.999Z</time></trkpt><trkpt lat="46.03247200950681" lon="12.179729009677237"><ele>715.0</ele><time>2026-05-03T10:11:12.999Z</time></trkpt><trkpt lat="46.03248091446699" lon="12.179897230865196"><ele>715.0</ele><time>2026-05-03T10:11:13.999Z</time></trkpt><trkpt lat="46.03251111074987" lon="12.180030733245346"><ele>715.0</ele><time>2026-05-03T10:11:14.999Z</time></trkpt><trkpt lat="46.032581379114774" lon="12.18015406506219"><ele>715.0</ele><time>2026-05-03T10:11:15.999Z</time></trkpt><trkpt lat="46.03264299117056" lon="12.180291629277624"><ele>717.75</ele><time>2026-05-03T10:11:16.999Z</time></trkpt><trkpt lat="46.032712610899466" lon="12.180433467245813"><ele>720.5</ele><time>2026-05-03T10:11:17.999Z</time></trkpt><trkpt lat="46.03279225763507" lon="12.180581660738985"><ele>723.25</ele><time>2026-05-03T10:11:18.999Z</time></trkpt><trkpt lat="46.032872540334104" lon="12.180725679365558"><ele>726.0</ele><time>2026-05-03T10:11:19.999Z</time></trkpt><trkpt lat="46.032943700647934" lon="12.180875772713604"><ele>726.0</ele><time>2026-05-03T10:11:20.999Z</time></trkpt><trkpt lat="46.033002696834245" lon="12.18105925486094"><ele>726.0</ele><time>2026-05-03T10:11:21.999Z</time></trkpt><trkpt lat="46.03306784553808" lon="12.181207109729007"><ele>726.0</ele><time>2026-05-03T10:11:22.999Z</time></trkpt><trkpt lat="46.03311702888207" lon="12.181342843961412"><ele>726.0</ele><time>2026-05-03T10:11:23.999Z</time></trkpt><trkpt lat="46.033196338839566" lon="12.181475645413546"><ele>724.5999999999999</ele><time>2026-05-03T10:11:24.999Z</time></trkpt><trkpt lat="46.033293177160985" lon="12.181567808084266"><ele>723.2</ele><time>2026-05-03T10:11:25.999Z</time></trkpt><trkpt lat="46.03338224812506" lon="12.181658856813245"><ele>721.8</ele><time>2026-05-03T10:11:26.999Z</time></trkpt><trkpt lat="46.03346400739115" lon="12.181762181015772"><ele>720.4000000000001</ele><time>2026-05-03T10:11:27.999Z</time></trkpt><trkpt lat="46.03352171676143" lon="12.181888403371403"><ele>719.0</ele><time>2026-05-03T10:11:28.999Z</time></trkpt><trkpt lat="46.033578747691834" lon="12.182046182126157"><ele>719.0</ele><time>2026-05-03T10:11:29.999Z</time></trkpt><trkpt lat="46.0336429716439" lon="12.182222320152583"><ele>719.0</ele><time>2026-05-03T10:11:30.999Z</time></trkpt><trkpt lat="46.03372873346412" lon="12.18238762625411"><ele>719.0</ele><time>2026-05-03T10:11:31.999Z</time></trkpt><trkpt lat="46.033797627624985" lon="12.182568086780002"><ele>719.0</ele><time>2026-05-03T10:11:32.999Z</time></trkpt><trkpt lat="46.03386890440942" lon="12.182722922958593"><ele>716.0</ele><time>2026-05-03T10:11:33.999Z</time></trkpt><trkpt lat="46.03396138389787" lon="12.182860010163619"><ele>713.0</ele><time>2026-05-03T10:11:34.999Z</time></trkpt><trkpt lat="46.03407193028622" lon="12.182977204025741"><ele>710.0</ele><time>2026-05-03T10:11:35.999Z</time></trkpt><trkpt lat="46.034164497896285" lon="12.183081988573116"><ele>707.0</ele><time>2026-05-03T10:11:36.999Z</time></trkpt><trkpt lat="46.03420648278251" lon="12.18320927938257"><ele>711.8</ele><time>2026-05-03T10:11:37.999Z</time></trkpt><trkpt lat="46.03422960803835" lon="12.18332715732697"><ele>716.6</ele><time>2026-05-03T10:11:38.999Z</time></trkpt><trkpt lat="46.03422205799773" lon="12.18346358488701"><ele>721.4</ele><time>2026-05-03T10:11:39.999Z</time></trkpt><trkpt lat="46.03422205800155" lon="12.1836203301399"><ele>726.1999999999999</ele><time>2026-05-03T10:11:40.999Z</time></trkpt><trkpt lat="46.03422551872691" lon="12.1838015409073"><ele>731.0</ele><time>2026-05-03T10:11:41.999Z</time></trkpt><trkpt lat="46.034267934366326" lon="12.183987231996635"><ele>736.0</ele><time>2026-05-03T10:11:42.999Z</time></trkpt><trkpt lat="46.03431583363871" lon="12.184140459797101"><ele>741.0</ele><time>2026-05-03T10:11:43.999Z</time></trkpt><trkpt lat="46.034385040703086" lon="12.184293384089017"><ele>746.0</ele><time>2026-05-03T10:11:44.999Z</time></trkpt><trkpt lat="46.03443486555388" lon="12.184468399951719"><ele>751.0</ele><time>2026-05-03T10:11:45.999Z</time></trkpt><trkpt lat="46.03448432057933" lon="12.184650154820353"><ele>751.0</ele><time>2026-05-03T10:11:46.999Z</time></trkpt><trkpt lat="46.0345328291956" lon="12.184840837987899"><ele>751.0</ele><time>2026-05-03T10:11:47.999Z</time></trkpt><trkpt lat="46.03458065593483" lon="12.185030166642695"><ele>751.0</ele><time>2026-05-03T10:11:48.999Z</time></trkpt><trkpt lat="46.03463107050261" lon="12.185217821356986"><ele>751.0</ele><time>2026-05-03T10:11:49.999Z</time></trkpt><trkpt lat="46.03467706273261" lon="12.185409973385743"><ele>755.25</ele><time>2026-05-03T10:11:50.999Z</time></trkpt><trkpt lat="46.034701355651464" lon="12.185599893473574"><ele>759.5</ele><time>2026-05-03T10:11:51.999Z</time></trkpt><trkpt lat="46.034735365908865" lon="12.185782011562647"><ele>763.75</ele><time>2026-05-03T10:11:52.999Z</time></trkpt><trkpt lat="46.034768612428024" lon="12.185974637292755"><ele>768.0</ele><time>2026-05-03T10:11:53.999Z</time></trkpt><trkpt lat="46.03479960767347" lon="12.186166179898686"><ele>773.25</ele><time>2026-05-03T10:11:54.999Z</time></trkpt><trkpt lat="46.03484369488092" lon="12.186349805027985"><ele>778.5</ele><time>2026-05-03T10:11:55.999Z</time></trkpt><trkpt lat="46.03484885299755" lon="12.186530324883892"><ele>783.75</ele><time>2026-05-03T10:11:56.999Z</time></trkpt><trkpt lat="46.03485660974631" lon="12.18669811888212"><ele>789.0</ele><time>2026-05-03T10:11:57.999Z</time></trkpt><trkpt lat="46.03485164414546" lon="12.186863971759006"><ele>792.25</ele><time>2026-05-03T10:11:58.999Z</time></trkpt><trkpt lat="46.03483374022646" lon="12.187018241484134"><ele>795.5</ele><time>2026-05-03T10:11:59.999Z</time></trkpt><trkpt lat="46.03481529313511" lon="12.187186926029616"><ele>798.75</ele><time>2026-05-03T10:12:00.999Z</time></trkpt><trkpt lat="46.034801474322514" lon="12.187368371176763"><ele>802.0</ele><time>2026-05-03T10:12:01.999Z</time></trkpt><trkpt lat="46.03478995789187" lon="12.187550413108303"><ele>802.8333333333333</ele><time>2026-05-03T10:12:02.999Z</time></trkpt><trkpt lat="46.03477535412081" lon="12.187698321554393"><ele>803.6666666666666</ele><time>2026-05-03T10:12:03.999Z</time></trkpt><trkpt lat="46.03474869438325" lon="12.187792897883993"><ele>804.5</ele><time>2026-05-03T10:12:04.999Z</time></trkpt><trkpt lat="46.03469861962049" lon="12.187864894772716"><ele>805.3333333333333</ele><time>2026-05-03T10:12:05.999Z</time></trkpt><trkpt lat="46.034639282889636" lon="12.187978742490387"><ele>806.1666666666666</ele><time>2026-05-03T10:12:06.999Z</time></trkpt><trkpt lat="46.03458907066934" lon="12.18810820042628"><ele>807.0</ele><time>2026-05-03T10:12:07.999Z</time></trkpt><trkpt lat="46.03456762493316" lon="12.188273685967912"><ele>807.75</ele><time>2026-05-03T10:12:08.999Z</time></trkpt><trkpt lat="46.03454763325503" lon="12.188445044908068"><ele>808.5</ele><time>2026-05-03T10:12:09.999Z</time></trkpt><trkpt lat="46.034553268168175" lon="12.188614150370306"><ele>809.25</ele><time>2026-05-03T10:12:10.999Z</time></trkpt><trkpt lat="46.03455831883549" lon="12.188787987370448"><ele>810.0</ele><time>2026-05-03T10:12:11.999Z</time></trkpt><trkpt lat="46.034566827876205" lon="12.188967825280926"><ele>810.8333333333334</ele><time>2026-05-03T10:12:12.999Z</time></trkpt><trkpt lat="46.03454840154202" lon="12.189112181973515"><ele>811.6666666666667</ele><time>2026-05-03T10:12:13.999Z</time></trkpt><trkpt lat="46.0345213306449" lon="12.189211154201127"><ele>812.5</ele><time>2026-05-03T10:12:14.999Z</time></trkpt><trkpt lat="46.034471744868654" lon="12.189302271563172"><ele>813.3333333333334</ele><time>2026-05-03T10:12:15.999Z</time></trkpt><trkpt lat="46.034430971430986" lon="12.18942422501426"><ele>814.1666666666667</ele><time>2026-05-03T10:12:16.999Z</time></trkpt><trkpt lat="46.03440423463783" lon="12.189557046065294"><ele>815.0</ele><time>2026-05-03T10:12:17.999Z</time></trkpt><trkpt lat="46.03443259843682" lon="12.189715243607226"><ele>816.5</ele><time>2026-05-03T10:12:18.999Z</time></trkpt><trkpt lat="46.034455643437305" lon="12.189877947388803"><ele>818.0</ele><time>2026-05-03T10:12:19.999Z</time></trkpt><trkpt lat="46.03449667098304" lon="12.190054930916494"><ele>819.5</ele><time>2026-05-03T10:12:20.999Z</time></trkpt><trkpt lat="46.03451532819409" lon="12.19022002699042"><ele>821.0</ele><time>2026-05-03T10:12:21.999Z</time></trkpt><trkpt lat="46.03453047965202" lon="12.190359898554885"><ele>821.0</ele><time>2026-05-03T10:12:22.999Z</time></trkpt><trkpt lat="46.034518471772394" lon="12.190499954779632"><ele>821.0</ele><time>2026-05-03T10:12:23.999Z</time></trkpt><trkpt lat="46.03448960873646" lon="12.19065430475073"><ele>821.0</ele><time>2026-05-03T10:12:24.999Z</time></trkpt><trkpt lat="46.0344709438592" lon="12.190848848744276"><ele>821.0</ele><time>2026-05-03T10:12:25.999Z</time></trkpt><trkpt lat="46.0344758281842" lon="12.191066246675211"><ele>820.0</ele><time>2026-05-03T10:12:26.999Z</time></trkpt><trkpt lat="46.03445868016409" lon="12.191302352491439"><ele>819.0</ele><time>2026-05-03T10:12:27.999Z</time></trkpt><trkpt lat="46.03443828900121" lon="12.191538699511419"><ele>818.0</ele><time>2026-05-03T10:12:28.999Z</time></trkpt><trkpt lat="46.03440789635142" lon="12.191755528978156"><ele>816.5</ele><time>2026-05-03T10:12:29.999Z</time></trkpt><trkpt lat="46.03437772679845" lon="12.191954999713912"><ele>815.0</ele><time>2026-05-03T10:12:30.999Z</time></trkpt><trkpt lat="46.034351236265" lon="12.192152062761652"><ele>813.5</ele><time>2026-05-03T10:12:31.999Z</time></trkpt><trkpt lat="46.03430623067169" lon="12.192332612725421"><ele>812.0</ele><time>2026-05-03T10:12:32.999Z</time></trkpt><trkpt lat="46.03425176343981" lon="12.192507086192709"><ele>811.2</ele><time>2026-05-03T10:12:33.999Z</time></trkpt><trkpt lat="46.03419025086749" lon="12.192670445029721"><ele>810.4000000000001</ele><time>2026-05-03T10:12:34.999Z</time></trkpt><trkpt lat="46.03412533195135" lon="12.192788818480812"><ele>809.5999999999999</ele><time>2026-05-03T10:12:35.999Z</time></trkpt><trkpt lat="46.034042481643255" lon="12.192880055825155"><ele>808.8</ele><time>2026-05-03T10:12:36.999Z</time></trkpt><trkpt lat="46.03394941609766" lon="12.192944282971414"><ele>808.0</ele><time>2026-05-03T10:12:37.999Z</time></trkpt><trkpt lat="46.03383989507243" lon="12.193030157648302"><ele>811.5</ele><time>2026-05-03T10:12:39Z</time></trkpt><trkpt lat="46.03372184209697" lon="12.193123105472743"><ele>815.0</ele><time>2026-05-03T10:12:40Z</time></trkpt><trkpt lat="46.03360360049595" lon="12.19321654142035"><ele>818.5</ele><time>2026-05-03T10:12:41Z</time></trkpt><trkpt lat="46.033492039253964" lon="12.193324244074105"><ele>822.0</ele><time>2026-05-03T10:12:42Z</time></trkpt><trkpt lat="46.03337715616414" lon="12.193366545678803"><ele>823.8</ele><time>2026-05-03T10:12:43Z</time></trkpt><trkpt lat="46.03327426720982" lon="12.19340086017636"><ele>825.6</ele><time>2026-05-03T10:12:44Z</time></trkpt><trkpt lat="46.03317462334368" lon="12.193400007278116"><ele>827.4</ele><time>2026-05-03T10:12:45Z</time></trkpt><trkpt lat="46.03307324209978" lon="12.193360106801363"><ele>829.1999999999999</ele><time>2026-05-03T10:12:46Z</time></trkpt><trkpt lat="46.03295130827203" lon="12.1933150491004"><ele>831.0</ele><time>2026-05-03T10:12:47Z</time></trkpt><trkpt lat="46.03282635378395" lon="12.19326590551876"><ele>831.0</ele><time>2026-05-03T10:12:48Z</time></trkpt><trkpt lat="46.032682028192525" lon="12.193280206087353"><ele>831.0</ele><time>2026-05-03T10:12:49Z</time></trkpt><trkpt lat="46.03253397093174" lon="12.193279863083152"><ele>831.0</ele><time>2026-05-03T10:12:50Z</time></trkpt><trkpt lat="46.03237320514033" lon="12.193292996020263"><ele>834.6666666666667</ele><time>2026-05-03T10:12:51Z</time></trkpt><trkpt lat="46.0322041026152" lon="12.193312111926256"><ele>838.3333333333334</ele><time>2026-05-03T10:12:52Z</time></trkpt><trkpt lat="46.032027112777264" lon="12.193327357560815"><ele>842.0</ele><time>2026-05-03T10:12:53Z</time></trkpt><trkpt lat="46.0318697878421" lon="12.193348388323829"><ele>842.0</ele><time>2026-05-03T10:12:54Z</time></trkpt><trkpt lat="46.03170863215353" lon="12.193340280178132"><ele>842.0</ele><time>2026-05-03T10:12:55Z</time></trkpt><trkpt lat="46.031548698415364" lon="12.193377250069481"><ele>842.0</ele><time>2026-05-03T10:12:56Z</time></trkpt><trkpt lat="46.031389210842676" lon="12.193411580277449"><ele>848.0</ele><time>2026-05-03T10:12:57Z</time></trkpt><trkpt lat="46.03123092955982" lon="12.19347582262214"><ele>854.0</ele><time>2026-05-03T10:12:58Z</time></trkpt><trkpt lat="46.03107304857617" lon="12.193542985843282"><ele>860.0</ele><time>2026-05-03T10:12:59Z</time></trkpt><trkpt lat="46.03092232244114" lon="12.193620998717401"><ele>866.0</ele><time>2026-05-03T10:13:00Z</time></trkpt><trkpt lat="46.030771533565414" lon="12.19369031749379"><ele>872.0</ele><time>2026-05-03T10:13:01Z</time></trkpt><trkpt lat="46.0306267564996" lon="12.19376777017846"><ele>878.0</ele><time>2026-05-03T10:13:02Z</time></trkpt><trkpt lat="46.03048453586621" lon="12.19385260415241"><ele>878.0</ele><time>2026-05-03T10:13:03Z</time></trkpt><trkpt lat="46.03035219395087" lon="12.193944106365999"><ele>878.0</ele><time>2026-05-03T10:13:04Z</time></trkpt><trkpt lat="46.03021910963148" lon="12.194054390070985"><ele>878.0</ele><time>2026-05-03T10:13:05Z</time></trkpt><trkpt lat="46.03011241708931" lon="12.194147037017895"><ele>878.0</ele><time>2026-05-03T10:13:06Z</time></trkpt><trkpt lat="46.03000446287704" lon="12.19425078986213"><ele>876.2</ele><time>2026-05-03T10:13:07Z</time></trkpt><trkpt lat="46.02984485283632" lon="12.194367425181978"><ele>874.4</ele><time>2026-05-03T10:13:08Z</time></trkpt><trkpt lat="46.02977920014884" lon="12.19444521167384"><ele>872.6000000000001</ele><time>2026-05-03T10:13:09Z</time></trkpt><trkpt lat="46.02971571848987" lon="12.194469789338056"><ele>870.8000000000001</ele><time>2026-05-03T10:13:10Z</time></trkpt><trkpt lat="46.029650920964464" lon="12.194519699290076"><ele>869.0</ele><time>2026-05-03T10:13:11Z</time></trkpt><trkpt lat="46.02958187591644" lon="12.1945728810056"><ele>869.0000000000001</ele><time>2026-05-03T10:13:12Z</time></trkpt><trkpt lat="46.02952436744879" lon="12.194617176685119"><ele>869.0</ele><time>2026-05-03T10:13:13Z</time></trkpt><trkpt lat="46.02946567819015" lon="12.194662853887676"><ele>869.0</ele><time>2026-05-03T10:13:14Z</time></trkpt><trkpt lat="46.02936364715178" lon="12.194770292805247"><ele>869.0</ele><time>2026-05-03T10:13:16Z</time></trkpt><trkpt lat="46.02929412931295" lon="12.19481526699435"><ele>869.0000000000001</ele><time>2026-05-03T10:13:17Z</time></trkpt><trkpt lat="46.0292055438273" lon="12.194887347584936"><ele>869.0</ele><time>2026-05-03T10:13:18Z</time></trkpt><trkpt lat="46.029117731010466" lon="12.194969502026874"><ele>868.5</ele><time>2026-05-03T10:13:19Z</time></trkpt><trkpt lat="46.02902684838487" lon="12.195046750647203"><ele>868.0</ele><time>2026-05-03T10:13:20Z</time></trkpt><trkpt lat="46.02892494112805" lon="12.195135739304447"><ele>867.5</ele><time>2026-05-03T10:13:21Z</time></trkpt><trkpt lat="46.02881662156261" lon="12.195224361441161"><ele>867.0</ele><time>2026-05-03T10:13:22Z</time></trkpt><trkpt lat="46.0287123944064" lon="12.195308203726652"><ele>867.0</ele><time>2026-05-03T10:13:23Z</time></trkpt><trkpt lat="46.028610905793116" lon="12.195388240209565"><ele>867.0</ele><time>2026-05-03T10:13:24Z</time></trkpt><trkpt lat="46.02850915909966" lon="12.195469912919036"><ele>867.0</ele><time>2026-05-03T10:13:25Z</time></trkpt><trkpt lat="46.028411446897834" lon="12.195547052304265"><ele>867.0</ele><time>2026-05-03T10:13:26Z</time></trkpt><trkpt lat="46.02829587799127" lon="12.195598931806678"><ele>865.25</ele><time>2026-05-03T10:13:27Z</time></trkpt><trkpt lat="46.028174858066826" lon="12.195661591989866"><ele>863.5</ele><time>2026-05-03T10:13:28Z</time></trkpt><trkpt lat="46.028045726571875" lon="12.195717587231295"><ele>861.75</ele><time>2026-05-03T10:13:29Z</time></trkpt><trkpt lat="46.02790964548013" lon="12.195774365723489"><ele>860.0</ele><time>2026-05-03T10:13:30Z</time></trkpt><trkpt lat="46.027776831186415" lon="12.195839038656205"><ele>860.0</ele><time>2026-05-03T10:13:31Z</time></trkpt><trkpt lat="46.02764610184129" lon="12.19589981374762"><ele>860.0</ele><time>2026-05-03T10:13:32Z</time></trkpt><trkpt lat="46.02753692417391" lon="12.195963775702799"><ele>860.0</ele><time>2026-05-03T10:13:33Z</time></trkpt><trkpt lat="46.027430867036834" lon="12.196017069780932"><ele>860.0</ele><time>2026-05-03T10:13:34Z</time></trkpt><trkpt lat="46.02732473887251" lon="12.196084765478885"><ele>861.75</ele><time>2026-05-03T10:13:35Z</time></trkpt><trkpt lat="46.02720237854158" lon="12.196133214701902"><ele>863.5</ele><time>2026-05-03T10:13:36Z</time></trkpt><trkpt lat="46.027106453729324" lon="12.196271511055732"><ele>865.25</ele><time>2026-05-03T10:13:37Z</time></trkpt><trkpt lat="46.02700518080844" lon="12.196382933056174"><ele>867.0</ele><time>2026-05-03T10:13:38Z</time></trkpt><trkpt lat="46.02690777596604" lon="12.196464529679599"><ele>867.6</ele><time>2026-05-03T10:13:39Z</time></trkpt><trkpt lat="46.02681094642169" lon="12.196512549588954"><ele>868.2</ele><time>2026-05-03T10:13:40Z</time></trkpt><trkpt lat="46.02671156849325" lon="12.196537884324616"><ele>868.8</ele><time>2026-05-03T10:13:41Z</time></trkpt><trkpt lat="46.02660230301724" lon="12.196543710749978"><ele>869.4</ele><time>2026-05-03T10:13:42Z</time></trkpt><trkpt lat="46.02648475013397" lon="12.196527429403867"><ele>870.0</ele><time>2026-05-03T10:13:43Z</time></trkpt><trkpt lat="46.02637072954845" lon="12.19649042570535"><ele>870.0</ele><time>2026-05-03T10:13:44Z</time></trkpt><trkpt lat="46.02626332131711" lon="12.196442916304857"><ele>870.0</ele><time>2026-05-03T10:13:45Z</time></trkpt><trkpt lat="46.026152383403385" lon="12.196382807773437"><ele>870.0</ele><time>2026-05-03T10:13:46Z</time></trkpt><trkpt lat="46.02603888684123" lon="12.196327633372755"><ele>870.0</ele><time>2026-05-03T10:13:47Z</time></trkpt><trkpt lat="46.02592076382781" lon="12.196275233173335"><ele>870.5</ele><time>2026-05-03T10:13:48Z</time></trkpt><trkpt lat="46.02579987171809" lon="12.19624595336151"><ele>871.0</ele><time>2026-05-03T10:13:49Z</time></trkpt><trkpt lat="46.02567962002927" lon="12.19623832267485"><ele>871.5</ele><time>2026-05-03T10:13:50Z</time></trkpt><trkpt lat="46.02555275250588" lon="12.196250919490618"><ele>872.0</ele><time>2026-05-03T10:13:51Z</time></trkpt><trkpt lat="46.025420398306025" lon="12.196293002485234"><ele>872.0</ele><time>2026-05-03T10:13:52Z</time></trkpt><trkpt lat="46.02527933061093" lon="12.196342126641788"><ele>872.0</ele><time>2026-05-03T10:13:53Z</time></trkpt><trkpt lat="46.02514619976703" lon="12.1963786339023"><ele>872.0</ele><time>2026-05-03T10:13:54Z</time></trkpt><trkpt lat="46.02500799621622" lon="12.196418633169856"><ele>872.0</ele><time>2026-05-03T10:13:55Z</time></trkpt><trkpt lat="46.02487947806509" lon="12.196463751772042"><ele>873.5</ele><time>2026-05-03T10:13:56Z</time></trkpt><trkpt lat="46.02474619924992" lon="12.196493168673236"><ele>875.0</ele><time>2026-05-03T10:13:57Z</time></trkpt><trkpt lat="46.02461508061034" lon="12.196531322663292"><ele>876.5</ele><time>2026-05-03T10:13:58Z</time></trkpt><trkpt lat="46.02448110238173" lon="12.196570017916066"><ele>878.0</ele><time>2026-05-03T10:13:59Z</time></trkpt><trkpt lat="46.024351659137565" lon="12.196597027865531"><ele>876.0</ele><time>2026-05-03T10:14:00Z</time></trkpt><trkpt lat="46.02422684907254" lon="12.196634381481799"><ele>874.0</ele><time>2026-05-03T10:14:01Z</time></trkpt><trkpt lat="46.02411154372259" lon="12.19666217577313"><ele>872.0</ele><time>2026-05-03T10:14:02Z</time></trkpt><trkpt lat="46.02399439545319" lon="12.196676709450315"><ele>870.0</ele><time>2026-05-03T10:14:03Z</time></trkpt><trkpt lat="46.023879067839985" lon="12.196672700465129"><ele>870.0</ele><time>2026-05-03T10:14:04Z</time></trkpt><trkpt lat="46.02376127163325" lon="12.196640066743441"><ele>870.0</ele><time>2026-05-03T10:14:05Z</time></trkpt><trkpt lat="46.02364399193504" lon="12.196592354114209"><ele>870.0</ele><time>2026-05-03T10:14:06Z</time></trkpt><trkpt lat="46.02355201071749" lon="12.196547278154199"><ele>870.0</ele><time>2026-05-03T10:14:07Z</time></trkpt><trkpt lat="46.02347067535325" lon="12.196515970788536"><ele>870.0</ele><time>2026-05-03T10:14:08Z</time></trkpt><trkpt lat="46.0233959144208" lon="12.19652035895379"><ele>870.0</ele><time>2026-05-03T10:14:09Z</time></trkpt><trkpt lat="46.02332197029465" lon="12.196554933573694"><ele>870.0</ele><time>2026-05-03T10:14:10Z</time></trkpt><trkpt lat="46.02323408743758" lon="12.196602028781982"><ele>870.0</ele><time>2026-05-03T10:14:11Z</time></trkpt><trkpt lat="46.023157053865845" lon="12.196646692663615"><ele>870.0</ele><time>2026-05-03T10:14:12Z</time></trkpt><trkpt lat="46.023046778713066" lon="12.196701322778514"><ele>870.0</ele><time>2026-05-03T10:14:14Z</time></trkpt><trkpt lat="46.02297668353525" lon="12.196721455811046"><ele>870.0</ele><time>2026-05-03T10:14:15Z</time></trkpt><trkpt lat="46.0228918114104" lon="12.196728404702265"><ele>870.2</ele><time>2026-05-03T10:14:16Z</time></trkpt><trkpt lat="46.022791282957485" lon="12.196739714218863"><ele>870.4</ele><time>2026-05-03T10:14:17Z</time></trkpt><trkpt lat="46.02269007479338" lon="12.196739226563503"><ele>870.5999999999999</ele><time>2026-05-03T10:14:18Z</time></trkpt><trkpt lat="46.02258246536912" lon="12.19672133460364"><ele>870.8</ele><time>2026-05-03T10:14:19Z</time></trkpt><trkpt lat="46.022472175693814" lon="12.196686733021389"><ele>871.0</ele><time>2026-05-03T10:14:20Z</time></trkpt><trkpt lat="46.02236866860429" lon="12.19666490404877"><ele>871.25</ele><time>2026-05-03T10:14:21Z</time></trkpt><trkpt lat="46.02224905447724" lon="12.196638372621214"><ele>871.5</ele><time>2026-05-03T10:14:22Z</time></trkpt><trkpt lat="46.022116349874274" lon="12.196610268842619"><ele>871.75</ele><time>2026-05-03T10:14:23Z</time></trkpt><trkpt lat="46.021987799007206" lon="12.196573878263983"><ele>872.0</ele><time>2026-05-03T10:14:24Z</time></trkpt><trkpt lat="46.02187207471088" lon="12.196550310478179"><ele>872.0</ele><time>2026-05-03T10:14:25Z</time></trkpt><trkpt lat="46.021770287783475" lon="12.19654125154114"><ele>872.0</ele><time>2026-05-03T10:14:26Z</time></trkpt><trkpt lat="46.02166043813377" lon="12.196553885779553"><ele>872.0</ele><time>2026-05-03T10:14:27Z</time></trkpt><trkpt lat="46.02153780399864" lon="12.196594129768926"><ele>872.0</ele><time>2026-05-03T10:14:28Z</time></trkpt><trkpt lat="46.02140530715391" lon="12.196647538509902"><ele>873.0</ele><time>2026-05-03T10:14:29Z</time></trkpt><trkpt lat="46.02127937008218" lon="12.196712064744753"><ele>874.0</ele><time>2026-05-03T10:14:30Z</time></trkpt><trkpt lat="46.02116325981562" lon="12.196779144239398"><ele>875.0</ele><time>2026-05-03T10:14:31Z</time></trkpt><trkpt lat="46.02105424848827" lon="12.196830508465185"><ele>876.0</ele><time>2026-05-03T10:14:32Z</time></trkpt><trkpt lat="46.02094197649386" lon="12.196869989114521"><ele>876.5</ele><time>2026-05-03T10:14:33Z</time></trkpt><trkpt lat="46.0208140355242" lon="12.1968925384967"><ele>877.0</ele><time>2026-05-03T10:14:34Z</time></trkpt><trkpt lat="46.020678017292994" lon="12.196898797445593"><ele>877.5</ele><time>2026-05-03T10:14:35Z</time></trkpt><trkpt lat="46.02053633626388" lon="12.196898330350477"><ele>878.0</ele><time>2026-05-03T10:14:36Z</time></trkpt><trkpt lat="46.020400993102676" lon="12.196894138760124"><ele>878.0</ele><time>2026-05-03T10:14:37Z</time></trkpt><trkpt lat="46.02025835182841" lon="12.196895609712984"><ele>878.0</ele><time>2026-05-03T10:14:38Z</time></trkpt><trkpt lat="46.02011552444955" lon="12.196886540168936"><ele>878.0</ele><time>2026-05-03T10:14:39Z</time></trkpt><trkpt lat="46.0199671470927" lon="12.196888489203433"><ele>878.0</ele><time>2026-05-03T10:14:40Z</time></trkpt><trkpt lat="46.019814758915196" lon="12.196882029068727"><ele>878.5</ele><time>2026-05-03T10:14:41Z</time></trkpt><trkpt lat="46.01966150810088" lon="12.196890761620622"><ele>879.0</ele><time>2026-05-03T10:14:42Z</time></trkpt><trkpt lat="46.01951550406877" lon="12.196900632224164"><ele>879.5</ele><time>2026-05-03T10:14:43Z</time></trkpt><trkpt lat="46.019375680404174" lon="12.196910474578075"><ele>880.0</ele><time>2026-05-03T10:14:44.001Z</time></trkpt><trkpt lat="46.01924482802077" lon="12.196936328538248"><ele>881.25</ele><time>2026-05-03T10:14:45.001Z</time></trkpt><trkpt lat="46.01911409069701" lon="12.196990168734033"><ele>882.5</ele><time>2026-05-03T10:14:46.001Z</time></trkpt><trkpt lat="46.0189893953177" lon="12.197044996440688"><ele>883.75</ele><time>2026-05-03T10:14:47.001Z</time></trkpt><trkpt lat="46.018873052715755" lon="12.19711678468976"><ele>885.0</ele><time>2026-05-03T10:14:48.001Z</time></trkpt><trkpt lat="46.01877011076546" lon="12.197196564710083"><ele>885.0</ele><time>2026-05-03T10:14:49.001Z</time></trkpt><trkpt lat="46.01868000709406" lon="12.19728215463818"><ele>885.0</ele><time>2026-05-03T10:14:50.001Z</time></trkpt><trkpt lat="46.0186016021271" lon="12.197379417402322"><ele>885.0</ele><time>2026-05-03T10:14:51.001Z</time></trkpt><trkpt lat="46.018514763925374" lon="12.197497496740919"><ele>885.0</ele><time>2026-05-03T10:14:52.001Z</time></trkpt><trkpt lat="46.0184285020205" lon="12.197621149610994"><ele>883.8</ele><time>2026-05-03T10:14:53.001Z</time></trkpt><trkpt lat="46.018354378295555" lon="12.197741989293432"><ele>882.6</ele><time>2026-05-03T10:14:54.001Z</time></trkpt><trkpt lat="46.0182918327839" lon="12.197858724304599"><ele>881.4000000000001</ele><time>2026-05-03T10:14:55.001Z</time></trkpt><trkpt lat="46.018241003921226" lon="12.197983028637799"><ele>880.2</ele><time>2026-05-03T10:14:56.001Z</time></trkpt><trkpt lat="46.01818773229699" lon="12.198093551759575"><ele>879.0</ele><time>2026-05-03T10:14:57.001Z</time></trkpt><trkpt lat="46.01813377745127" lon="12.198204398203904"><ele>877.5</ele><time>2026-05-03T10:14:58.001Z</time></trkpt><trkpt lat="46.01807891527596" lon="12.198306427314103"><ele>876.0</ele><time>2026-05-03T10:14:59.001Z</time></trkpt><trkpt lat="46.018036045400905" lon="12.198400593695776"><ele>874.5</ele><time>2026-05-03T10:15:00.001Z</time></trkpt><trkpt lat="46.01800329081174" lon="12.198487676248911"><ele>873.0</ele><time>2026-05-03T10:15:01.001Z</time></trkpt><trkpt lat="46.01797074757781" lon="12.198571289467544"><ele>871.5</ele><time>2026-05-03T10:15:02.001Z</time></trkpt><trkpt lat="46.01798755971747" lon="12.19872291966047"><ele>870.0</ele><time>2026-05-03T10:15:04.001Z</time></trkpt><trkpt lat="46.01804039719671" lon="12.19877724358709"><ele>870.0</ele><time>2026-05-03T10:15:05.001Z</time></trkpt><trkpt lat="46.01810543017346" lon="12.198832108016385"><ele>870.0</ele><time>2026-05-03T10:15:06.001Z</time></trkpt><trkpt lat="46.018180746527435" lon="12.198870862352713"><ele>870.0</ele><time>2026-05-03T10:15:07.001Z</time></trkpt><trkpt lat="46.01825648140011" lon="12.198919850056514"><ele>870.0</ele><time>2026-05-03T10:15:08.001Z</time></trkpt><trkpt lat="46.01833001788436" lon="12.198976793177298"><ele>870.0</ele><time>2026-05-03T10:15:09.001Z</time></trkpt><trkpt lat="46.018407684929535" lon="12.199037904096773"><ele>870.0</ele><time>2026-05-03T10:15:10.001Z</time></trkpt><trkpt lat="46.018482396106464" lon="12.19910389449112"><ele>868.4</ele><time>2026-05-03T10:15:11.001Z</time></trkpt><trkpt lat="46.01856710658996" lon="12.199169954737753"><ele>866.8</ele><time>2026-05-03T10:15:12.001Z</time></trkpt><trkpt lat="46.01866131537721" lon="12.199253518126945"><ele>865.2</ele><time>2026-05-03T10:15:13.001Z</time></trkpt><trkpt lat="46.01875859887522" lon="12.199343088303099"><ele>863.6</ele><time>2026-05-03T10:15:14.001Z</time></trkpt><trkpt lat="46.01885788874908" lon="12.199434314124877"><ele>862.0</ele><time>2026-05-03T10:15:15.001Z</time></trkpt><trkpt lat="46.0189665401181" lon="12.19952262070241"><ele>862.0</ele><time>2026-05-03T10:15:16.001Z</time></trkpt><trkpt lat="46.01906699650323" lon="12.199620380858741"><ele>862.0</ele><time>2026-05-03T10:15:17.001Z</time></trkpt><trkpt lat="46.01914805470497" lon="12.199712320280273"><ele>862.0</ele><time>2026-05-03T10:15:18.001Z</time></trkpt><trkpt lat="46.01921098912996" lon="12.199816243727112"><ele>862.0</ele><time>2026-05-03T10:15:19.001Z</time></trkpt><trkpt lat="46.01926540267048" lon="12.199940158725903"><ele>862.0</ele><time>2026-05-03T10:15:20.001Z</time></trkpt><trkpt lat="46.01931406081535" lon="12.200057329986175"><ele>861.8</ele><time>2026-05-03T10:15:21.001Z</time></trkpt><trkpt lat="46.01934712410819" lon="12.200176227273632"><ele>861.6</ele><time>2026-05-03T10:15:22.001Z</time></trkpt><trkpt lat="46.019384089266275" lon="12.200325506270303"><ele>861.3999999999999</ele><time>2026-05-03T10:15:23.001Z</time></trkpt><trkpt lat="46.019422736866424" lon="12.200486724670869"><ele>861.1999999999999</ele><time>2026-05-03T10:15:24.001Z</time></trkpt><trkpt lat="46.01945678797866" lon="12.20064902014109"><ele>861.0</ele><time>2026-05-03T10:15:25.001Z</time></trkpt><trkpt lat="46.01950165724164" lon="12.200810550819009"><ele>860.25</ele><time>2026-05-03T10:15:26Z</time></trkpt><trkpt lat="46.01955429288408" lon="12.200977195973831"><ele>859.5</ele><time>2026-05-03T10:15:27Z</time></trkpt><trkpt lat="46.0195953263429" lon="12.201143032263056"><ele>858.75</ele><time>2026-05-03T10:15:28Z</time></trkpt><trkpt lat="46.019649922391544" lon="12.201314113201503"><ele>858.0</ele><time>2026-05-03T10:15:29Z</time></trkpt><trkpt lat="46.0196968920489" lon="12.201471729538557"><ele>858.5</ele><time>2026-05-03T10:15:30Z</time></trkpt><trkpt lat="46.01975895284177" lon="12.201619130727348"><ele>859.0</ele><time>2026-05-03T10:15:31Z</time></trkpt><trkpt lat="46.01983470825671" lon="12.201769100251896"><ele>859.5</ele><time>2026-05-03T10:15:32Z</time></trkpt><trkpt lat="46.01993686938512" lon="12.201896686203666"><ele>860.0</ele><time>2026-05-03T10:15:33Z</time></trkpt><trkpt lat="46.02004735941557" lon="12.202001901175159"><ele>860.0</ele><time>2026-05-03T10:15:34Z</time></trkpt><trkpt lat="46.02016687242213" lon="12.2020881738537"><ele>860.0</ele><time>2026-05-03T10:15:35Z</time></trkpt><trkpt lat="46.02029537759785" lon="12.20215793689445"><ele>860.0</ele><time>2026-05-03T10:15:36Z</time></trkpt><trkpt lat="46.020421401965145" lon="12.202214800690191"><ele>860.0</ele><time>2026-05-03T10:15:37Z</time></trkpt><trkpt lat="46.02054791799745" lon="12.202259928375689"><ele>860.0</ele><time>2026-05-03T10:15:38Z</time></trkpt><trkpt lat="46.02068357846631" lon="12.202291362699935"><ele>860.0</ele><time>2026-05-03T10:15:39Z</time></trkpt><trkpt lat="46.02081603088049" lon="12.202333886682563"><ele>860.0</ele><time>2026-05-03T10:15:40Z</time></trkpt><trkpt lat="46.02094131222947" lon="12.20241198213996"><ele>860.0</ele><time>2026-05-03T10:15:41Z</time></trkpt><trkpt lat="46.02107035046943" lon="12.202501813316985"><ele>860.3333333333334</ele><time>2026-05-03T10:15:42Z</time></trkpt><trkpt lat="46.021201042913084" lon="12.202598625851495"><ele>860.6666666666667</ele><time>2026-05-03T10:15:43Z</time></trkpt><trkpt lat="46.0213352092707" lon="12.202703230767506"><ele>861.0</ele><time>2026-05-03T10:15:44Z</time></trkpt><trkpt lat="46.021470585300044" lon="12.202810424854654"><ele>861.0</ele><time>2026-05-03T10:15:45Z</time></trkpt><trkpt lat="46.02160857388625" lon="12.20291896942797"><ele>861.0</ele><time>2026-05-03T10:15:46Z</time></trkpt><trkpt lat="46.021745069286744" lon="12.203023170718081"><ele>861.0</ele><time>2026-05-03T10:15:47Z</time></trkpt><trkpt lat="46.02188339720326" lon="12.203128200574945"><ele>866.0</ele><time>2026-05-03T10:15:48Z</time></trkpt><trkpt lat="46.02201788616756" lon="12.203223659653995"><ele>871.0</ele><time>2026-05-03T10:15:49Z</time></trkpt><trkpt lat="46.02215457675652" lon="12.203313311689795"><ele>876.0</ele><time>2026-05-03T10:15:50Z</time></trkpt><trkpt lat="46.02229774609673" lon="12.203380889930905"><ele>876.0</ele><time>2026-05-03T10:15:51Z</time></trkpt><trkpt lat="46.02244591786535" lon="12.203441180906164"><ele>876.0</ele><time>2026-05-03T10:15:52Z</time></trkpt><trkpt lat="46.02258933774511" lon="12.203511562339113"><ele>876.0</ele><time>2026-05-03T10:15:53Z</time></trkpt><trkpt lat="46.02272764285896" lon="12.203602617879797"><ele>873.3333333333333</ele><time>2026-05-03T10:15:54Z</time></trkpt><trkpt lat="46.022862767898125" lon="12.20368807016123"><ele>870.6666666666666</ele><time>2026-05-03T10:15:55Z</time></trkpt><trkpt lat="46.023010484786006" lon="12.203740818103556"><ele>868.0</ele><time>2026-05-03T10:15:56Z</time></trkpt><trkpt lat="46.02317149664057" lon="12.20377465631417"><ele>867.0</ele><time>2026-05-03T10:15:57Z</time></trkpt><trkpt lat="46.02332857523112" lon="12.203811703031889"><ele>866.0</ele><time>2026-05-03T10:15:58Z</time></trkpt><trkpt lat="46.023477941711256" lon="12.203845582518202"><ele>865.0</ele><time>2026-05-03T10:15:59Z</time></trkpt><trkpt lat="46.0236178248421" lon="12.203878125052059"><ele>865.0</ele><time>2026-05-03T10:16:00Z</time></trkpt><trkpt lat="46.02374072116382" lon="12.203900807183759"><ele>865.0</ele><time>2026-05-03T10:16:01Z</time></trkpt><trkpt lat="46.023864394703885" lon="12.20391954750074"><ele>865.0</ele><time>2026-05-03T10:16:02Z</time></trkpt><trkpt lat="46.023974648513196" lon="12.203937521383406"><ele>865.0</ele><time>2026-05-03T10:16:03Z</time></trkpt><trkpt lat="46.0240688617086" lon="12.203942844980544"><ele>864.6666666666666</ele><time>2026-05-03T10:16:04Z</time></trkpt><trkpt lat="46.02416317901413" lon="12.203944249803506"><ele>864.3333333333333</ele><time>2026-05-03T10:16:05Z</time></trkpt><trkpt lat="46.024234975434815" lon="12.20394807314795"><ele>864.0</ele><time>2026-05-03T10:16:06Z</time></trkpt><trkpt lat="46.024301110757406" lon="12.203958427903363"><ele>863.6666666666667</ele><time>2026-05-03T10:16:07Z</time></trkpt><trkpt lat="46.024368000391725" lon="12.203999952811206"><ele>863.3333333333334</ele><time>2026-05-03T10:16:08Z</time></trkpt><trkpt lat="46.024425289768246" lon="12.204073420961043"><ele>863.0</ele><time>2026-05-03T10:16:09Z</time></trkpt><trkpt lat="46.02446479188155" lon="12.20417708105463"><ele>865.8</ele><time>2026-05-03T10:16:10Z</time></trkpt><trkpt lat="46.024484926660506" lon="12.204295723193432"><ele>868.5999999999999</ele><time>2026-05-03T10:16:11Z</time></trkpt><trkpt lat="46.02447722687893" lon="12.204416746743526"><ele>871.4000000000001</ele><time>2026-05-03T10:16:12Z</time></trkpt><trkpt lat="46.024443109364235" lon="12.204552512790395"><ele>874.2</ele><time>2026-05-03T10:16:13Z</time></trkpt><trkpt lat="46.02438844052489" lon="12.204682628959434"><ele>877.0</ele><time>2026-05-03T10:16:14Z</time></trkpt><trkpt lat="46.02431644462974" lon="12.204792942133134"><ele>877.4000000000001</ele><time>2026-05-03T10:16:15Z</time></trkpt><trkpt lat="46.024238210397066" lon="12.204888245400994"><ele>877.8000000000001</ele><time>2026-05-03T10:16:16Z</time></trkpt><trkpt lat="46.02414880479726" lon="12.204974004749483"><ele>878.2</ele><time>2026-05-03T10:16:17Z</time></trkpt><trkpt lat="46.02406898575109" lon="12.2050561780624"><ele>878.6</ele><time>2026-05-03T10:16:18Z</time></trkpt><trkpt lat="46.02397990942021" lon="12.205139231035433"><ele>879.0</ele><time>2026-05-03T10:16:19Z</time></trkpt><trkpt lat="46.0238825657213" lon="12.205218183620387"><ele>884.0</ele><time>2026-05-03T10:16:20Z</time></trkpt><trkpt lat="46.0237733019785" lon="12.205306843329081"><ele>889.0</ele><time>2026-05-03T10:16:21Z</time></trkpt><trkpt lat="46.02365916887835" lon="12.205397671263992"><ele>894.0</ele><time>2026-05-03T10:16:22Z</time></trkpt><trkpt lat="46.023546225148515" lon="12.205460562034055"><ele>899.0</ele><time>2026-05-03T10:16:23Z</time></trkpt><trkpt lat="46.02343912758269" lon="12.20551529352987"><ele>899.0</ele><time>2026-05-03T10:16:24Z</time></trkpt><trkpt lat="46.023334864656505" lon="12.205576537923958"><ele>899.0000000000001</ele><time>2026-05-03T10:16:25Z</time></trkpt><trkpt lat="46.023232455777304" lon="12.20564304701007"><ele>899.0000000000001</ele><time>2026-05-03T10:16:26Z</time></trkpt><trkpt lat="46.02313507497607" lon="12.205709404334332"><ele>899.0</ele><time>2026-05-03T10:16:27Z</time></trkpt><trkpt lat="46.023041817252135" lon="12.205781415801468"><ele>899.0</ele><time>2026-05-03T10:16:28Z</time></trkpt><trkpt lat="46.02295244771531" lon="12.205870094451928"><ele>903.5</ele><time>2026-05-03T10:16:29Z</time></trkpt><trkpt lat="46.022860787700964" lon="12.205961803033084"><ele>908.0</ele><time>2026-05-03T10:16:30Z</time></trkpt><trkpt lat="46.02276479215063" lon="12.20605386762632"><ele>912.5</ele><time>2026-05-03T10:16:31Z</time></trkpt><trkpt lat="46.02265920615673" lon="12.206134087510296"><ele>917.0</ele><time>2026-05-03T10:16:32Z</time></trkpt><trkpt lat="46.02255868985962" lon="12.20619805361803"><ele>920.0</ele><time>2026-05-03T10:16:33Z</time></trkpt><trkpt lat="46.02245509868196" lon="12.206273420592918"><ele>923.0</ele><time>2026-05-03T10:16:34Z</time></trkpt><trkpt lat="46.0223546290533" lon="12.206352754178152"><ele>926.0</ele><time>2026-05-03T10:16:35Z</time></trkpt><trkpt lat="46.02224988472666" lon="12.206431388993785"><ele>929.0</ele><time>2026-05-03T10:16:36Z</time></trkpt><trkpt lat="46.0221451695798" lon="12.20650882151683"><ele>929.0</ele><time>2026-05-03T10:16:37Z</time></trkpt><trkpt lat="46.02204225390111" lon="12.20658784671168"><ele>929.0</ele><time>2026-05-03T10:16:38Z</time></trkpt><trkpt lat="46.02194325979687" lon="12.206672197190494"><ele>929.0</ele><time>2026-05-03T10:16:39Z</time></trkpt><trkpt lat="46.02184691784325" lon="12.206770529334824"><ele>929.0</ele><time>2026-05-03T10:16:40Z</time></trkpt><trkpt lat="46.02176087294192" lon="12.206881991344929"><ele>929.0</ele><time>2026-05-03T10:16:41Z</time></trkpt><trkpt lat="46.02167440462769" lon="12.206970791002508"><ele>929.0000000000001</ele><time>2026-05-03T10:16:42Z</time></trkpt><trkpt lat="46.021569008400526" lon="12.207033214269757"><ele>929.0000000000001</ele><time>2026-05-03T10:16:43Z</time></trkpt><trkpt lat="46.02146606994866" lon="12.207079096113118"><ele>929.0</ele><time>2026-05-03T10:16:44Z</time></trkpt><trkpt lat="46.02138327814269" lon="12.207135190073041"><ele>929.0</ele><time>2026-05-03T10:16:45Z</time></trkpt><trkpt lat="46.021320724552226" lon="12.207225335609552"><ele>932.4000000000001</ele><time>2026-05-03T10:16:46Z</time></trkpt><trkpt lat="46.02127171436171" lon="12.207325321996022"><ele>935.8000000000001</ele><time>2026-05-03T10:16:47Z</time></trkpt><trkpt lat="46.02123643948639" lon="12.207439427089668"><ele>939.1999999999999</ele><time>2026-05-03T10:16:47.999Z</time></trkpt><trkpt lat="46.021183992114196" lon="12.207535739899392"><ele>942.5999999999999</ele><time>2026-05-03T10:16:49Z</time></trkpt><trkpt lat="46.02110587824172" lon="12.207599219477366"><ele>946.0</ele><time>2026-05-03T10:16:50Z</time></trkpt><trkpt lat="46.0210116539661" lon="12.20766074799441"><ele>946.0</ele><time>2026-05-03T10:16:51Z</time></trkpt><trkpt lat="46.020914902670306" lon="12.20772862315664"><ele>945.9999999999999</ele><time>2026-05-03T10:16:52Z</time></trkpt><trkpt lat="46.02083576010799" lon="12.207821714399524"><ele>945.9999999999999</ele><time>2026-05-03T10:16:53Z</time></trkpt><trkpt lat="46.02076672388399" lon="12.207921195803921"><ele>946.0</ele><time>2026-05-03T10:16:54Z</time></trkpt><trkpt lat="46.02069884391929" lon="12.208020070438332"><ele>946.0</ele><time>2026-05-03T10:16:55Z</time></trkpt><trkpt lat="46.02060948480802" lon="12.208134992974731"><ele>948.0</ele><time>2026-05-03T10:16:56Z</time></trkpt><trkpt lat="46.02050906281551" lon="12.208237143251909"><ele>950.0</ele><time>2026-05-03T10:16:57Z</time></trkpt><trkpt lat="46.02041017818525" lon="12.208337520840388"><ele>952.0</ele><time>2026-05-03T10:16:58Z</time></trkpt><trkpt lat="46.020313312188236" lon="12.208434765345665"><ele>954.0</ele><time>2026-05-03T10:16:59Z</time></trkpt><trkpt lat="46.02020679344091" lon="12.208517912174948"><ele>954.0</ele><time>2026-05-03T10:17:00Z</time></trkpt><trkpt lat="46.02011958106764" lon="12.208603184172459"><ele>954.0000000000001</ele><time>2026-05-03T10:17:01Z</time></trkpt><trkpt lat="46.02004310099281" lon="12.208692073342416"><ele>954.0000000000001</ele><time>2026-05-03T10:17:02Z</time></trkpt><trkpt lat="46.01996612555991" lon="12.208785280115492"><ele>954.0</ele><time>2026-05-03T10:17:03Z</time></trkpt><trkpt lat="46.01989479477256" lon="12.20887254874433"><ele>954.0</ele><time>2026-05-03T10:17:04Z</time></trkpt><trkpt lat="46.01983398702696" lon="12.208955959347648"><ele>953.6666666666666</ele><time>2026-05-03T10:17:05Z</time></trkpt><trkpt lat="46.01977611392476" lon="12.209033572582829"><ele>953.3333333333333</ele><time>2026-05-03T10:17:06Z</time></trkpt><trkpt lat="46.019721020299805" lon="12.209115184173992"><ele>953.0</ele><time>2026-05-03T10:17:07Z</time></trkpt><trkpt lat="46.01965924409173" lon="12.209207438526706"><ele>952.6666666666666</ele><time>2026-05-03T10:17:08Z</time></trkpt><trkpt lat="46.01960907276201" lon="12.209321694890093"><ele>952.3333333333333</ele><time>2026-05-03T10:17:09Z</time></trkpt><trkpt lat="46.01956064793707" lon="12.209448139198546"><ele>952.0</ele><time>2026-05-03T10:17:10Z</time></trkpt><trkpt lat="46.01951427168649" lon="12.209564315670242"><ele>952.0</ele><time>2026-05-03T10:17:11Z</time></trkpt><trkpt lat="46.01945986128586" lon="12.209680452324024"><ele>952.0</ele><time>2026-05-03T10:17:12Z</time></trkpt><trkpt lat="46.01942118678936" lon="12.209818206650633"><ele>952.0</ele><time>2026-05-03T10:17:13Z</time></trkpt><trkpt lat="46.01940091831484" lon="12.209984325967607"><ele>952.0</ele><time>2026-05-03T10:17:14Z</time></trkpt><trkpt lat="46.019369976966615" lon="12.210153093406648"><ele>952.0</ele><time>2026-05-03T10:17:15Z</time></trkpt><trkpt lat="46.01932052931163" lon="12.210304728072282"><ele>948.0</ele><time>2026-05-03T10:17:16Z</time></trkpt><trkpt lat="46.019262506526545" lon="12.210434137896746"><ele>944.0</ele><time>2026-05-03T10:17:17Z</time></trkpt><trkpt lat="46.01919973171587" lon="12.210557255868142"><ele>940.0</ele><time>2026-05-03T10:17:18Z</time></trkpt><trkpt lat="46.019144373848576" lon="12.210683935424688"><ele>936.0</ele><time>2026-05-03T10:17:19Z</time></trkpt><trkpt lat="46.019085984882224" lon="12.210811945912317"><ele>932.0</ele><time>2026-05-03T10:17:20Z</time></trkpt><trkpt lat="46.019031810132866" lon="12.210934750365539"><ele>932.0</ele><time>2026-05-03T10:17:21Z</time></trkpt><trkpt lat="46.01899284218053" lon="12.2110675057823"><ele>932.0</ele><time>2026-05-03T10:17:22Z</time></trkpt><trkpt lat="46.01896688906692" lon="12.211202774714291"><ele>932.0</ele><time>2026-05-03T10:17:23Z</time></trkpt><trkpt lat="46.01892679248689" lon="12.211330800861766"><ele>932.0</ele><time>2026-05-03T10:17:24Z</time></trkpt><trkpt lat="46.01883495022904" lon="12.211390964428972"><ele>932.0</ele><time>2026-05-03T10:17:25Z</time></trkpt><trkpt lat="46.01877917470006" lon="12.21149088267458"><ele>930.5000000000001</ele><time>2026-05-03T10:17:26Z</time></trkpt><trkpt lat="46.01876756435461" lon="12.211599879089016"><ele>929.0</ele><time>2026-05-03T10:17:27Z</time></trkpt><trkpt lat="46.01876450435307" lon="12.211695292378058"><ele>927.5</ele><time>2026-05-03T10:17:28Z</time></trkpt><trkpt lat="46.01877854315447" lon="12.211786121950896"><ele>926.0</ele><time>2026-05-03T10:17:29Z</time></trkpt><trkpt lat="46.01889034822699" lon="12.211887896796117"><ele>924.5000000000001</ele><time>2026-05-03T10:17:31Z</time></trkpt><trkpt lat="46.018974467832564" lon="12.211903441618926"><ele>923.0</ele><time>2026-05-03T10:17:32Z</time></trkpt><trkpt lat="46.01906298740541" lon="12.211919494786015"><ele>920.0</ele><time>2026-05-03T10:17:33Z</time></trkpt><trkpt lat="46.01915675487348" lon="12.211945176096192"><ele>917.0</ele><time>2026-05-03T10:17:34Z</time></trkpt><trkpt lat="46.01927037331122" lon="12.21196982025909"><ele>914.0</ele><time>2026-05-03T10:17:35Z</time></trkpt><trkpt lat="46.01938956529303" lon="12.211982253262047"><ele>911.0</ele><time>2026-05-03T10:17:36Z</time></trkpt><trkpt lat="46.019511842662034" lon="12.211962491518888"><ele>911.0</ele><time>2026-05-03T10:17:37Z</time></trkpt><trkpt lat="46.0196347108965" lon="12.211913282075166"><ele>911.0</ele><time>2026-05-03T10:17:38Z</time></trkpt><trkpt lat="46.01975067590877" lon="12.211849150127899"><ele>911.0</ele><time>2026-05-03T10:17:39Z</time></trkpt><trkpt lat="46.0198719974722" lon="12.211802109613691"><ele>911.0</ele><time>2026-05-03T10:17:40Z</time></trkpt><trkpt lat="46.01999377291528" lon="12.211796387489676"><ele>910.25</ele><time>2026-05-03T10:17:41Z</time></trkpt><trkpt lat="46.0201072211135" lon="12.211790634200801"><ele>909.5</ele><time>2026-05-03T10:17:42Z</time></trkpt><trkpt lat="46.02021620577972" lon="12.21178496712178"><ele>908.75</ele><time>2026-05-03T10:17:43Z</time></trkpt><trkpt lat="46.020325414813954" lon="12.211782444754757"><ele>908.0</ele><time>2026-05-03T10:17:44Z</time></trkpt><trkpt lat="46.02044366948403" lon="12.211779180465278"><ele>908.0</ele><time>2026-05-03T10:17:45Z</time></trkpt><trkpt lat="46.02056885985167" lon="12.21177357388512"><ele>908.0</ele><time>2026-05-03T10:17:46Z</time></trkpt><trkpt lat="46.02069405909572" lon="12.211767966906459"><ele>908.0</ele><time>2026-05-03T10:17:47Z</time></trkpt><trkpt lat="46.02081669842616" lon="12.21176418707874"><ele>908.0</ele><time>2026-05-03T10:17:48Z</time></trkpt><trkpt lat="46.02093670801075" lon="12.211768545642293"><ele>909.0</ele><time>2026-05-03T10:17:49Z</time></trkpt><trkpt lat="46.02105878888359" lon="12.211766079236181"><ele>910.0</ele><time>2026-05-03T10:17:50Z</time></trkpt><trkpt lat="46.02118295087826" lon="12.211736170152806"><ele>911.0</ele><time>2026-05-03T10:17:51Z</time></trkpt><trkpt lat="46.02130529254276" lon="12.211657296300402"><ele>912.0</ele><time>2026-05-03T10:17:52Z</time></trkpt><trkpt lat="46.021434682478706" lon="12.211581429432426"><ele>912.0</ele><time>2026-05-03T10:17:53Z</time></trkpt><trkpt lat="46.02156640519192" lon="12.211529936755813"><ele>912.0</ele><time>2026-05-03T10:17:54Z</time></trkpt><trkpt lat="46.02166194828887" lon="12.211494434446058"><ele>912.0</ele><time>2026-05-03T10:17:55Z</time></trkpt><trkpt lat="46.02176445980965" lon="12.211516291245031"><ele>912.0</ele><time>2026-05-03T10:17:57Z</time></trkpt><trkpt lat="46.021841677104014" lon="12.211537018214926"><ele>912.0</ele><time>2026-05-03T10:17:58Z</time></trkpt><trkpt lat="46.021931427372174" lon="12.211570796999325"><ele>913.8</ele><time>2026-05-03T10:17:59Z</time></trkpt><trkpt lat="46.02202579157456" lon="12.211613661437646"><ele>915.6</ele><time>2026-05-03T10:18:00Z</time></trkpt><trkpt lat="46.02211166827892" lon="12.211674839115846"><ele>917.3999999999999</ele><time>2026-05-03T10:18:01Z</time></trkpt><trkpt lat="46.02219608923319" lon="12.211728824336594"><ele>919.1999999999999</ele><time>2026-05-03T10:18:02Z</time></trkpt><trkpt lat="46.022271024354204" lon="12.211778856126289"><ele>921.0</ele><time>2026-05-03T10:18:03Z</time></trkpt><trkpt lat="46.02237525832701" lon="12.211800749173372"><ele>922.1999999999999</ele><time>2026-05-03T10:18:04Z</time></trkpt><trkpt lat="46.02249097520973" lon="12.211720704819587"><ele>923.3999999999999</ele><time>2026-05-03T10:18:05Z</time></trkpt><trkpt lat="46.022583834640876" lon="12.211659701914169"><ele>924.6</ele><time>2026-05-03T10:18:06Z</time></trkpt><trkpt lat="46.02266471452538" lon="12.211610017125203"><ele>925.8</ele><time>2026-05-03T10:18:07Z</time></trkpt><trkpt lat="46.02273639870215" lon="12.21157391897005"><ele>927.0</ele><time>2026-05-03T10:18:08Z</time></trkpt><trkpt lat="46.022810334787344" lon="12.211544459143157"><ele>927.0</ele><time>2026-05-03T10:18:09Z</time></trkpt><trkpt lat="46.02289595473723" lon="12.211549310922782"><ele>927.0</ele><time>2026-05-03T10:18:10Z</time></trkpt><trkpt lat="46.02299908592356" lon="12.211588462249942"><ele>927.0</ele><time>2026-05-03T10:18:11Z</time></trkpt><trkpt lat="46.02311082050083" lon="12.211623895126325"><ele>927.0</ele><time>2026-05-03T10:18:12Z</time></trkpt><trkpt lat="46.02323493251363" lon="12.211649632776489"><ele>927.0</ele><time>2026-05-03T10:18:13Z</time></trkpt><trkpt lat="46.02335597474441" lon="12.211665376556164"><ele>925.8</ele><time>2026-05-03T10:18:14Z</time></trkpt><trkpt lat="46.023470525265694" lon="12.211668987074003"><ele>924.6</ele><time>2026-05-03T10:18:15Z</time></trkpt><trkpt lat="46.02356228478645" lon="12.211613236611353"><ele>923.3999999999999</ele><time>2026-05-03T10:18:16Z</time></trkpt><trkpt lat="46.023630899366886" lon="12.211624842542552"><ele>922.1999999999999</ele><time>2026-05-03T10:18:17Z</time></trkpt><trkpt lat="46.023660424443236" lon="12.211763854564664"><ele>921.0</ele><time>2026-05-03T10:18:19Z</time></trkpt><trkpt lat="46.02373641162315" lon="12.211892593846397"><ele>921.0</ele><time>2026-05-03T10:18:21Z</time></trkpt><trkpt lat="46.023785315122986" lon="12.211972292511318"><ele>920.9999999999999</ele><time>2026-05-03T10:18:22Z</time></trkpt><trkpt lat="46.02387501732805" lon="12.212083899008846"><ele>920.9999999999999</ele><time>2026-05-03T10:18:24Z</time></trkpt><trkpt lat="46.023969512414645" lon="12.212133440464983"><ele>921.0</ele><time>2026-05-03T10:18:25Z</time></trkpt><trkpt lat="46.02405129070187" lon="12.212144601772241"><ele>921.0</ele><time>2026-05-03T10:18:26Z</time></trkpt><trkpt lat="46.024135795863465" lon="12.21214272441584"><ele>918.8333333333334</ele><time>2026-05-03T10:18:27Z</time></trkpt><trkpt lat="46.02422525363433" lon="12.212114116093085"><ele>916.6666666666667</ele><time>2026-05-03T10:18:28Z</time></trkpt><trkpt lat="46.02430772052669" lon="12.212027374350141"><ele>914.5</ele><time>2026-05-03T10:18:29Z</time></trkpt><trkpt lat="46.02438183765363" lon="12.211953365175859"><ele>912.3333333333334</ele><time>2026-05-03T10:18:30Z</time></trkpt><trkpt lat="46.02443729254432" lon="12.211875954702577"><ele>910.1666666666667</ele><time>2026-05-03T10:18:31Z</time></trkpt><trkpt lat="46.02446127417848" lon="12.211773479671322"><ele>908.0</ele><time>2026-05-03T10:18:32Z</time></trkpt><trkpt lat="46.024493970711255" lon="12.211680848923146"><ele>908.0</ele><time>2026-05-03T10:18:33Z</time></trkpt><trkpt lat="46.02453145779123" lon="12.21157728524273"><ele>908.0</ele><time>2026-05-03T10:18:34Z</time></trkpt><trkpt lat="46.024582932060945" lon="12.211454135664871"><ele>908.0</ele><time>2026-05-03T10:18:35Z</time></trkpt><trkpt lat="46.0246472589971" lon="12.211347646415126"><ele>908.0</ele><time>2026-05-03T10:18:36Z</time></trkpt><trkpt lat="46.02471778027872" lon="12.211263734765044"><ele>908.0</ele><time>2026-05-03T10:18:37Z</time></trkpt><trkpt lat="46.02479755965434" lon="12.211179385242708"><ele>904.8333333333334</ele><time>2026-05-03T10:18:38Z</time></trkpt><trkpt lat="46.024862444816534" lon="12.211100512170217"><ele>901.6666666666667</ele><time>2026-05-03T10:18:39Z</time></trkpt><trkpt lat="46.02495885944775" lon="12.211079610294984"><ele>898.5</ele><time>2026-05-03T10:18:41Z</time></trkpt><trkpt lat="46.02499638965349" lon="12.211161752072902"><ele>895.3333333333333</ele><time>2026-05-03T10:18:42Z</time></trkpt><trkpt lat="46.02503054177152" lon="12.211251457132395"><ele>892.1666666666666</ele><time>2026-05-03T10:18:43Z</time></trkpt><trkpt lat="46.02508018277901" lon="12.211314690008255"><ele>889.0</ele><time>2026-05-03T10:18:44Z</time></trkpt><trkpt lat="46.02514854479222" lon="12.211346455693624"><ele>889.0</ele><time>2026-05-03T10:18:45Z</time></trkpt><trkpt lat="46.02523260268965" lon="12.211395285621911"><ele>889.0000000000001</ele><time>2026-05-03T10:18:46Z</time></trkpt><trkpt lat="46.02534145006293" lon="12.21141990757844"><ele>889.0000000000001</ele><time>2026-05-03T10:18:47Z</time></trkpt><trkpt lat="46.02544138885513" lon="12.21141743675622"><ele>889.0</ele><time>2026-05-03T10:18:48Z</time></trkpt><trkpt lat="46.025534022348346" lon="12.211445958008357"><ele>889.0</ele><time>2026-05-03T10:18:49Z</time></trkpt><trkpt lat="46.025615372577306" lon="12.211473340558838"><ele>889.0</ele><time>2026-05-03T10:18:50Z</time></trkpt><trkpt lat="46.025699908419824" lon="12.211462681973275"><ele>889.0000000000001</ele><time>2026-05-03T10:18:51Z</time></trkpt><trkpt lat="46.02577059949655" lon="12.211389575269266"><ele>889.0000000000001</ele><time>2026-05-03T10:18:52Z</time></trkpt><trkpt lat="46.025829202406925" lon="12.211287375415429"><ele>889.0</ele><time>2026-05-03T10:18:53Z</time></trkpt><trkpt lat="46.025870073197325" lon="12.211151306618955"><ele>889.0</ele><time>2026-05-03T10:18:54Z</time></trkpt><trkpt lat="46.02590079372724" lon="12.211011679859645"><ele>889.8000000000001</ele><time>2026-05-03T10:18:55Z</time></trkpt><trkpt lat="46.02595199599233" lon="12.210881966801297"><ele>890.6000000000001</ele><time>2026-05-03T10:18:56Z</time></trkpt><trkpt lat="46.02602307810568" lon="12.21079271849884"><ele>891.4</ele><time>2026-05-03T10:18:57Z</time></trkpt><trkpt lat="46.026079394750525" lon="12.21067669567721"><ele>892.2</ele><time>2026-05-03T10:18:58Z</time></trkpt><trkpt lat="46.02616706610345" lon="12.210625658078563"><ele>893.0</ele><time>2026-05-03T10:18:59Z</time></trkpt><trkpt lat="46.026250516938404" lon="12.21057186657433"><ele>892.75</ele><time>2026-05-03T10:19:00Z</time></trkpt><trkpt lat="46.026353765816964" lon="12.210547998669828"><ele>892.5</ele><time>2026-05-03T10:19:01Z</time></trkpt><trkpt lat="46.026464410617535" lon="12.210481031211419"><ele>892.25</ele><time>2026-05-03T10:19:02Z</time></trkpt><trkpt lat="46.02657449837878" lon="12.210409724367299"><ele>892.0</ele><time>2026-05-03T10:19:03Z</time></trkpt><trkpt lat="46.02668336692962" lon="12.210312479774178"><ele>892.0</ele><time>2026-05-03T10:19:04Z</time></trkpt><trkpt lat="46.02680019012465" lon="12.210245752504248"><ele>892.0</ele><time>2026-05-03T10:19:05Z</time></trkpt><trkpt lat="46.02690832736748" lon="12.210169791097885"><ele>892.0</ele><time>2026-05-03T10:19:06Z</time></trkpt><trkpt lat="46.027005012506045" lon="12.210105936292983"><ele>892.0</ele><time>2026-05-03T10:19:07Z</time></trkpt><trkpt lat="46.02710142900064" lon="12.21003852150698"><ele>892.0</ele><time>2026-05-03T10:19:08Z</time></trkpt><trkpt lat="46.02719062575873" lon="12.209941584893915"><ele>892.0</ele><time>2026-05-03T10:19:09Z</time></trkpt><trkpt lat="46.02726083555768" lon="12.209814451140991"><ele>892.0</ele><time>2026-05-03T10:19:10Z</time></trkpt><trkpt lat="46.02732816917375" lon="12.209686922448816"><ele>892.0</ele><time>2026-05-03T10:19:11Z</time></trkpt><trkpt lat="46.02739913392377" lon="12.209559299046331"><ele>892.0</ele><time>2026-05-03T10:19:12Z</time></trkpt><trkpt lat="46.02747227827441" lon="12.209439990001293"><ele>891.4000000000001</ele><time>2026-05-03T10:19:13Z</time></trkpt><trkpt lat="46.02754664057568" lon="12.209328668705963"><ele>890.8000000000001</ele><time>2026-05-03T10:19:14Z</time></trkpt><trkpt lat="46.02761254819194" lon="12.20922279905199"><ele>890.2</ele><time>2026-05-03T10:19:15Z</time></trkpt><trkpt lat="46.027678212154775" lon="12.20911249746714"><ele>889.6</ele><time>2026-05-03T10:19:16Z</time></trkpt><trkpt lat="46.02774391909949" lon="12.20900154586424"><ele>889.0</ele><time>2026-05-03T10:19:17Z</time></trkpt><trkpt lat="46.027814479310535" lon="12.208899889407684"><ele>886.6</ele><time>2026-05-03T10:19:18Z</time></trkpt><trkpt lat="46.027880413556126" lon="12.208793956480287"><ele>884.2</ele><time>2026-05-03T10:19:19Z</time></trkpt><trkpt lat="46.02794998781231" lon="12.208680923391757"><ele>881.8000000000001</ele><time>2026-05-03T10:19:20Z</time></trkpt><trkpt lat="46.02801660628765" lon="12.20857465457574"><ele>879.4000000000001</ele><time>2026-05-03T10:19:21Z</time></trkpt><trkpt lat="46.02808138001991" lon="12.208470769971921"><ele>877.0</ele><time>2026-05-03T10:19:22Z</time></trkpt><trkpt lat="46.02814761514896" lon="12.208367189229705"><ele>877.0</ele><time>2026-05-03T10:19:23Z</time></trkpt><trkpt lat="46.02820949992738" lon="12.208274609054412"><ele>877.0</ele><time>2026-05-03T10:19:24Z</time></trkpt><trkpt lat="46.02828949521782" lon="12.208207448069572"><ele>877.0</ele><time>2026-05-03T10:19:25Z</time></trkpt><trkpt lat="46.028367614634405" lon="12.208120115215667"><ele>877.0</ele><time>2026-05-03T10:19:26Z</time></trkpt><trkpt lat="46.02843318183472" lon="12.208022212648244"><ele>877.0</ele><time>2026-05-03T10:19:27Z</time></trkpt><trkpt lat="46.02851909710471" lon="12.207946205209236"><ele>877.75</ele><time>2026-05-03T10:19:28Z</time></trkpt><trkpt lat="46.02861174005778" lon="12.20788471841875"><ele>878.5</ele><time>2026-05-03T10:19:29Z</time></trkpt><trkpt lat="46.02872287884713" lon="12.207860644034197"><ele>879.25</ele><time>2026-05-03T10:19:30Z</time></trkpt><trkpt lat="46.02883969647461" lon="12.20781722659461"><ele>880.0</ele><time>2026-05-03T10:19:31Z</time></trkpt><trkpt lat="46.02895164328424" lon="12.207764035724342"><ele>880.0</ele><time>2026-05-03T10:19:32Z</time></trkpt><trkpt lat="46.0290600504404" lon="12.20771041086771"><ele>880.0</ele><time>2026-05-03T10:19:33Z</time></trkpt><trkpt lat="46.02916693229509" lon="12.207670969712268"><ele>880.0</ele><time>2026-05-03T10:19:34Z</time></trkpt><trkpt lat="46.02925214983542" lon="12.207608845824469"><ele>880.0</ele><time>2026-05-03T10:19:35Z</time></trkpt><trkpt lat="46.029325480255714" lon="12.207488621124224"><ele>880.0</ele><time>2026-05-03T10:19:36Z</time></trkpt><trkpt lat="46.02940415727113" lon="12.207357215565777"><ele>876.75</ele><time>2026-05-03T10:19:37Z</time></trkpt><trkpt lat="46.02952346846869" lon="12.207276113571881"><ele>873.5</ele><time>2026-05-03T10:19:38Z</time></trkpt><trkpt lat="46.029649431947206" lon="12.207187069686361"><ele>870.25</ele><time>2026-05-03T10:19:39Z</time></trkpt><trkpt lat="46.02977045306411" lon="12.207086395167787"><ele>867.0</ele><time>2026-05-03T10:19:40Z</time></trkpt><trkpt lat="46.02987652292134" lon="12.206986148937899"><ele>868.25</ele><time>2026-05-03T10:19:41Z</time></trkpt><trkpt lat="46.02999617872193" lon="12.206899632981365"><ele>869.5</ele><time>2026-05-03T10:19:42Z</time></trkpt><trkpt lat="46.03010724009128" lon="12.206819340832173"><ele>870.75</ele><time>2026-05-03T10:19:43Z</time></trkpt><trkpt lat="46.030218454476035" lon="12.206745435631518"><ele>872.0</ele><time>2026-05-03T10:19:44Z</time></trkpt><trkpt lat="46.0303220141721" lon="12.206680597183729"><ele>872.0</ele><time>2026-05-03T10:19:45Z</time></trkpt><trkpt lat="46.030427595515235" lon="12.206632895474087"><ele>872.0</ele><time>2026-05-03T10:19:46Z</time></trkpt><trkpt lat="46.03052794489788" lon="12.206583811637001"><ele>872.0</ele><time>2026-05-03T10:19:47Z</time></trkpt><trkpt lat="46.0306177470813" lon="12.206578677234852"><ele>872.0</ele><time>2026-05-03T10:19:48Z</time></trkpt><trkpt lat="46.03070004170461" lon="12.206554975258632"><ele>872.0</ele><time>2026-05-03T10:19:49Z</time></trkpt><trkpt lat="46.03077302787243" lon="12.206512058792468"><ele>871.6</ele><time>2026-05-03T10:19:50Z</time></trkpt><trkpt lat="46.03085950763708" lon="12.206491748050967"><ele>871.2</ele><time>2026-05-03T10:19:51Z</time></trkpt><trkpt lat="46.03096154658927" lon="12.206450825859816"><ele>870.8</ele><time>2026-05-03T10:19:52Z</time></trkpt><trkpt lat="46.03106382093712" lon="12.206410909735954"><ele>870.4</ele><time>2026-05-03T10:19:53Z</time></trkpt><trkpt lat="46.03115408993284" lon="12.206349355545688"><ele>870.0</ele><time>2026-05-03T10:19:54Z</time></trkpt><trkpt lat="46.031219991825395" lon="12.206239276602409"><ele>870.0</ele><time>2026-05-03T10:19:55Z</time></trkpt><trkpt lat="46.031260781961365" lon="12.206104300116605"><ele>870.0</ele><time>2026-05-03T10:19:56Z</time></trkpt><trkpt lat="46.031325802315294" lon="12.205998273842404"><ele>870.0</ele><time>2026-05-03T10:19:57Z</time></trkpt><trkpt lat="46.03138009127694" lon="12.205912706366723"><ele>870.0</ele><time>2026-05-03T10:19:58Z</time></trkpt><trkpt lat="46.0314461817178" lon="12.20588488778837"><ele>870.0</ele><time>2026-05-03T10:19:59Z</time></trkpt><trkpt lat="46.03152358230405" lon="12.205864336012342"><ele>870.0</ele><time>2026-05-03T10:20:00Z</time></trkpt><trkpt lat="46.03161329163341" lon="12.205843109996623"><ele>869.6</ele><time>2026-05-03T10:20:01Z</time></trkpt><trkpt lat="46.03170817049452" lon="12.205809713864983"><ele>869.2</ele><time>2026-05-03T10:20:02Z</time></trkpt><trkpt lat="46.03179297380012" lon="12.205739130282604"><ele>868.8</ele><time>2026-05-03T10:20:03Z</time></trkpt><trkpt lat="46.031847601034244" lon="12.20562354495374"><ele>868.4</ele><time>2026-05-03T10:20:04Z</time></trkpt><trkpt lat="46.03188513090077" lon="12.205497111591598"><ele>868.0</ele><time>2026-05-03T10:20:05Z</time></trkpt><trkpt lat="46.031922857091295" lon="12.205375310490323"><ele>868.0</ele><time>2026-05-03T10:20:06Z</time></trkpt><trkpt lat="46.03198472702612" lon="12.205273681488144"><ele>868.0</ele><time>2026-05-03T10:20:07Z</time></trkpt><trkpt lat="46.03206902610253" lon="12.205178472997188"><ele>868.0</ele><time>2026-05-03T10:20:08Z</time></trkpt><trkpt lat="46.03218634245717" lon="12.205140337933269"><ele>868.0</ele><time>2026-05-03T10:20:09Z</time></trkpt><trkpt lat="46.03230147670378" lon="12.205057810756877"><ele>868.0</ele><time>2026-05-03T10:20:10Z</time></trkpt><trkpt lat="46.03241591721806" lon="12.204982866062739"><ele>868.0</ele><time>2026-05-03T10:20:11Z</time></trkpt><trkpt lat="46.03250715359718" lon="12.204863105300099"><ele>868.0</ele><time>2026-05-03T10:20:12Z</time></trkpt><trkpt lat="46.03259280599796" lon="12.204740088400102"><ele>868.0</ele><time>2026-05-03T10:20:13Z</time></trkpt><trkpt lat="46.03269982088736" lon="12.20465838025684"><ele>865.0</ele><time>2026-05-03T10:20:14Z</time></trkpt><trkpt lat="46.03281536709183" lon="12.204588015399377"><ele>862.0</ele><time>2026-05-03T10:20:15Z</time></trkpt><trkpt lat="46.03291125648821" lon="12.204483448736507"><ele>859.0</ele><time>2026-05-03T10:20:16Z</time></trkpt><trkpt lat="46.03300181520315" lon="12.204388675128879"><ele>856.0</ele><time>2026-05-03T10:20:17Z</time></trkpt><trkpt lat="46.03308445516746" lon="12.20429062522643"><ele>855.9999999999999</ele><time>2026-05-03T10:20:18Z</time></trkpt><trkpt lat="46.03318290626843" lon="12.204270086225382"><ele>856.0</ele><time>2026-05-03T10:20:19Z</time></trkpt><trkpt lat="46.03326663985904" lon="12.204277663261305"><ele>856.0</ele><time>2026-05-03T10:20:20Z</time></trkpt><trkpt lat="46.0333523120507" lon="12.20428226842974"><ele>856.0</ele><time>2026-05-03T10:20:21Z</time></trkpt><trkpt lat="46.033445098775935" lon="12.204275073047516"><ele>855.9999999999999</ele><time>2026-05-03T10:20:22Z</time></trkpt><trkpt lat="46.033523074922634" lon="12.204226203208282"><ele>856.0</ele><time>2026-05-03T10:20:23Z</time></trkpt><trkpt lat="46.03357930020174" lon="12.204101410308136"><ele>852.8</ele><time>2026-05-03T10:20:24Z</time></trkpt><trkpt lat="46.03363397511711" lon="12.20399117588321"><ele>849.5999999999999</ele><time>2026-05-03T10:20:25Z</time></trkpt><trkpt lat="46.03369411720517" lon="12.203869256001767"><ele>846.4</ele><time>2026-05-03T10:20:26Z</time></trkpt><trkpt lat="46.0337485604619" lon="12.203744254694843"><ele>843.2</ele><time>2026-05-03T10:20:27Z</time></trkpt><trkpt lat="46.03380062445261" lon="12.203614799218967"><ele>840.0</ele><time>2026-05-03T10:20:28Z</time></trkpt><trkpt lat="46.03387653615492" lon="12.20351094786492"><ele>840.0</ele><time>2026-05-03T10:20:29Z</time></trkpt><trkpt lat="46.033941977899886" lon="12.20339629836156"><ele>840.0</ele><time>2026-05-03T10:20:30Z</time></trkpt><trkpt lat="46.03403642911801" lon="12.20331776108826"><ele>840.0</ele><time>2026-05-03T10:20:31Z</time></trkpt><trkpt lat="46.034124841613405" lon="12.203206048341695"><ele>840.0</ele><time>2026-05-03T10:20:32Z</time></trkpt><trkpt lat="46.03423310803117" lon="12.203152023072473"><ele>840.0</ele><time>2026-05-03T10:20:33Z</time></trkpt><trkpt lat="46.03433481023079" lon="12.203081772778374"><ele>836.4</ele><time>2026-05-03T10:20:34Z</time></trkpt><trkpt lat="46.03442739586234" lon="12.202998877521312"><ele>832.8</ele><time>2026-05-03T10:20:35Z</time></trkpt><trkpt lat="46.03452055299758" lon="12.202947719218322"><ele>829.2</ele><time>2026-05-03T10:20:36Z</time></trkpt><trkpt lat="46.03461825262363" lon="12.202883555081588"><ele>825.6</ele><time>2026-05-03T10:20:37Z</time></trkpt><trkpt lat="46.03471244587068" lon="12.20281390246304"><ele>822.0</ele><time>2026-05-03T10:20:38Z</time></trkpt><trkpt lat="46.0347993598197" lon="12.202758260232928"><ele>822.0</ele><time>2026-05-03T10:20:39Z</time></trkpt><trkpt lat="46.034893425236106" lon="12.202715605731672"><ele>822.0</ele><time>2026-05-03T10:20:40Z</time></trkpt><trkpt lat="46.03500459509186" lon="12.202670507517853"><ele>822.0</ele><time>2026-05-03T10:20:41Z</time></trkpt><trkpt lat="46.03510450692017" lon="12.202621861829934"><ele>822.0</ele><time>2026-05-03T10:20:42Z</time></trkpt><trkpt lat="46.03518706358627" lon="12.202548252349144"><ele>822.0</ele><time>2026-05-03T10:20:43Z</time></trkpt><trkpt lat="46.035246718211035" lon="12.202446783763708"><ele>820.0</ele><time>2026-05-03T10:20:44Z</time></trkpt><trkpt lat="46.03528806067362" lon="12.202321944524035"><ele>818.0</ele><time>2026-05-03T10:20:45Z</time></trkpt><trkpt lat="46.03531192117712" lon="12.202190982523083"><ele>816.0</ele><time>2026-05-03T10:20:46Z</time></trkpt><trkpt lat="46.03531706224064" lon="12.202059371006253"><ele>814.0</ele><time>2026-05-03T10:20:47Z</time></trkpt><trkpt lat="46.03532315560194" lon="12.201924998294277"><ele>812.0</ele><time>2026-05-03T10:20:48Z</time></trkpt><trkpt lat="46.035328035759385" lon="12.201816798656711"><ele>812.0</ele><time>2026-05-03T10:20:49Z</time></trkpt><trkpt lat="46.0353825045011" lon="12.201727222665308"><ele>812.0</ele><time>2026-05-03T10:20:50Z</time></trkpt><trkpt lat="46.03544517469299" lon="12.201643954646297"><ele>812.0</ele><time>2026-05-03T10:20:51Z</time></trkpt><trkpt lat="46.03551998739224" lon="12.201586936407152"><ele>812.0</ele><time>2026-05-03T10:20:52Z</time></trkpt><trkpt lat="46.035609845844" lon="12.201542478477993"><ele>812.0</ele><time>2026-05-03T10:20:53Z</time></trkpt><trkpt lat="46.035718360367284" lon="12.201510647728783"><ele>808.2</ele><time>2026-05-03T10:20:54Z</time></trkpt><trkpt lat="46.03582788486973" lon="12.201471031810613"><ele>804.4000000000001</ele><time>2026-05-03T10:20:55Z</time></trkpt><trkpt lat="46.03593290075378" lon="12.201423078020923"><ele>800.5999999999999</ele><time>2026-05-03T10:20:56Z</time></trkpt><trkpt lat="46.03603545496503" lon="12.201374500050566"><ele>796.8</ele><time>2026-05-03T10:20:57Z</time></trkpt><trkpt lat="46.03613464381316" lon="12.20132437509738"><ele>793.0</ele><time>2026-05-03T10:20:58Z</time></trkpt><trkpt lat="46.03622859208516" lon="12.201263231565704"><ele>793.0</ele><time>2026-05-03T10:20:59Z</time></trkpt><trkpt lat="46.03632046380635" lon="12.201220364351384"><ele>793.0</ele><time>2026-05-03T10:21:00Z</time></trkpt><trkpt lat="46.03641641311082" lon="12.201174765763227"><ele>793.0</ele><time>2026-05-03T10:21:01Z</time></trkpt><trkpt lat="46.0365171574076" lon="12.201128590795113"><ele>793.0</ele><time>2026-05-03T10:21:02Z</time></trkpt><trkpt lat="46.03661984192665" lon="12.201089926096751"><ele>793.0</ele><time>2026-05-03T10:21:03Z</time></trkpt><trkpt lat="46.036721680738836" lon="12.201047273244454"><ele>794.4</ele><time>2026-05-03T10:21:04Z</time></trkpt><trkpt lat="46.03682039385612" lon="12.201003614745314"><ele>795.8</ele><time>2026-05-03T10:21:05Z</time></trkpt><trkpt lat="46.036918450084954" lon="12.200963409512589"><ele>797.2</ele><time>2026-05-03T10:21:06Z</time></trkpt><trkpt lat="46.037017696565776" lon="12.200928773023154"><ele>798.6</ele><time>2026-05-03T10:21:07Z</time></trkpt><trkpt lat="46.037127771382046" lon="12.200921963300301"><ele>800.0</ele><time>2026-05-03T10:21:08Z</time></trkpt><trkpt lat="46.03723971271401" lon="12.200898469590935"><ele>800.0</ele><time>2026-05-03T10:21:09Z</time></trkpt><trkpt lat="46.037359063682686" lon="12.200859280458284"><ele>800.0</ele><time>2026-05-03T10:21:10Z</time></trkpt><trkpt lat="46.03748016952326" lon="12.200885414599586"><ele>800.0</ele><time>2026-05-03T10:21:11Z</time></trkpt><trkpt lat="46.037600306455346" lon="12.200901390949099"><ele>800.0</ele><time>2026-05-03T10:21:12Z</time></trkpt><trkpt lat="46.037724916246056" lon="12.200919668576436"><ele>798.5</ele><time>2026-05-03T10:21:13Z</time></trkpt><trkpt lat="46.03784973861156" lon="12.200907393522318"><ele>797.0</ele><time>2026-05-03T10:21:14Z</time></trkpt><trkpt lat="46.03797459159861" lon="12.200918615084294"><ele>795.5</ele><time>2026-05-03T10:21:15Z</time></trkpt><trkpt lat="46.038096324187656" lon="12.200906246106491"><ele>794.0</ele><time>2026-05-03T10:21:16Z</time></trkpt><trkpt lat="46.0382143908819" lon="12.200890524395806"><ele>791.0</ele><time>2026-05-03T10:21:17Z</time></trkpt><trkpt lat="46.038334961224194" lon="12.20088458200095"><ele>788.0</ele><time>2026-05-03T10:21:18Z</time></trkpt><trkpt lat="46.0384573577818" lon="12.200876842115727"><ele>785.0</ele><time>2026-05-03T10:21:19Z</time></trkpt><trkpt lat="46.03857259961043" lon="12.200873814704307"><ele>782.0</ele><time>2026-05-03T10:21:20Z</time></trkpt><trkpt lat="46.03868087836712" lon="12.200855103605809"><ele>782.0000000000001</ele><time>2026-05-03T10:21:21Z</time></trkpt><trkpt lat="46.038783155415814" lon="12.200811490433821"><ele>782.0</ele><time>2026-05-03T10:21:22Z</time></trkpt><trkpt lat="46.03887075192712" lon="12.200744472028525"><ele>782.0</ele><time>2026-05-03T10:21:23Z</time></trkpt><trkpt lat="46.038925924899985" lon="12.200682187245187"><ele>782.0</ele><time>2026-05-03T10:21:24Z</time></trkpt><trkpt lat="46.03890568265844" lon="12.200824412315784"><ele>782.0000000000001</ele><time>2026-05-03T10:21:29Z</time></trkpt><trkpt lat="46.0389088045931" lon="12.200926326307046"><ele>782.0</ele><time>2026-05-03T10:21:30Z</time></trkpt><trkpt lat="46.03889814491345" lon="12.201026317268044"><ele>782.0</ele><time>2026-05-03T10:21:31Z</time></trkpt><trkpt lat="46.03888919302464" lon="12.201141855890302"><ele>782.0</ele><time>2026-05-03T10:21:32Z</time></trkpt><trkpt lat="46.038884320155994" lon="12.201291525570866"><ele>782.0</ele><time>2026-05-03T10:21:33Z</time></trkpt><trkpt lat="46.03889354833323" lon="12.201441945732704"><ele>782.0</ele><time>2026-05-03T10:21:34Z</time></trkpt><trkpt lat="46.0389193649973" lon="12.201566887092518"><ele>782.0</ele><time>2026-05-03T10:21:35Z</time></trkpt><trkpt lat="46.038957399114885" lon="12.201691677308949"><ele>782.8</ele><time>2026-05-03T10:21:36Z</time></trkpt><trkpt lat="46.03900204411045" lon="12.201814075760987"><ele>783.6</ele><time>2026-05-03T10:21:37Z</time></trkpt><trkpt lat="46.03906263615539" lon="12.201932196186464"><ele>784.4</ele><time>2026-05-03T10:21:38Z</time></trkpt><trkpt lat="46.039141581981504" lon="12.202040565849574"><ele>785.1999999999999</ele><time>2026-05-03T10:21:39Z</time></trkpt><trkpt lat="46.0392249853164" lon="12.202170393976948"><ele>786.0</ele><time>2026-05-03T10:21:40Z</time></trkpt><trkpt lat="46.03930298043838" lon="12.202311035407353"><ele>789.0</ele><time>2026-05-03T10:21:41Z</time></trkpt><trkpt lat="46.03938199123236" lon="12.202461125749082"><ele>792.0</ele><time>2026-05-03T10:21:42Z</time></trkpt><trkpt lat="46.03945095387632" lon="12.202629621408217"><ele>795.0</ele><time>2026-05-03T10:21:43Z</time></trkpt><trkpt lat="46.039471319915634" lon="12.202821110986607"><ele>798.0</ele><time>2026-05-03T10:21:44Z</time></trkpt><trkpt lat="46.03947864807776" lon="12.2030190107114"><ele>802.25</ele><time>2026-05-03T10:21:45Z</time></trkpt><trkpt lat="46.03948418187211" lon="12.203218925187391"><ele>806.5</ele><time>2026-05-03T10:21:46Z</time></trkpt><trkpt lat="46.03948914725387" lon="12.203425154378474"><ele>810.75</ele><time>2026-05-03T10:21:47Z</time></trkpt><trkpt lat="46.039509532169966" lon="12.203634086446474"><ele>815.0</ele><time>2026-05-03T10:21:48Z</time></trkpt><trkpt lat="46.03949705554535" lon="12.20384868038685"><ele>818.75</ele><time>2026-05-03T10:21:49Z</time></trkpt><trkpt lat="46.03950080880281" lon="12.20406338434597"><ele>822.5</ele><time>2026-05-03T10:21:50Z</time></trkpt><trkpt lat="46.03951612045554" lon="12.204256640623573"><ele>826.25</ele><time>2026-05-03T10:21:51Z</time></trkpt><trkpt lat="46.039535354625045" lon="12.204446931478271"><ele>830.0</ele><time>2026-05-03T10:21:52Z</time></trkpt><trkpt lat="46.03956572958728" lon="12.204631737285943"><ele>830.0</ele><time>2026-05-03T10:21:53Z</time></trkpt><trkpt lat="46.039620840793695" lon="12.204805883582011"><ele>830.0</ele><time>2026-05-03T10:21:54Z</time></trkpt><trkpt lat="46.03970449984785" lon="12.20495440321756"><ele>830.0</ele><time>2026-05-03T10:21:55Z</time></trkpt><trkpt lat="46.03982037888383" lon="12.20503851877228"><ele>830.0</ele><time>2026-05-03T10:21:56Z</time></trkpt><trkpt lat="46.039948739530956" lon="12.205133303871722"><ele>829.0</ele><time>2026-05-03T10:21:57Z</time></trkpt><trkpt lat="46.040068352510445" lon="12.205242239942372"><ele>828.0</ele><time>2026-05-03T10:21:58Z</time></trkpt><trkpt lat="46.040192203423665" lon="12.205339226412908"><ele>827.0</ele><time>2026-05-03T10:21:59Z</time></trkpt><trkpt lat="46.04029980163921" lon="12.205464286416234"><ele>826.0</ele><time>2026-05-03T10:22:00Z</time></trkpt><trkpt lat="46.040404619606555" lon="12.205600552822778"><ele>828.0</ele><time>2026-05-03T10:22:01Z</time></trkpt><trkpt lat="46.04051083661817" lon="12.205743117702932"><ele>830.0</ele><time>2026-05-03T10:22:02Z</time></trkpt><trkpt lat="46.040618781262616" lon="12.205883386227619"><ele>832.0</ele><time>2026-05-03T10:22:03Z</time></trkpt><trkpt lat="46.04073073657126" lon="12.206030638289304"><ele>834.0</ele><time>2026-05-03T10:22:04Z</time></trkpt><trkpt lat="46.04083514135696" lon="12.206171775588812"><ele>834.0</ele><time>2026-05-03T10:22:05Z</time></trkpt><trkpt lat="46.040923618984195" lon="12.206293668021353"><ele>834.0</ele><time>2026-05-03T10:22:06Z</time></trkpt><trkpt lat="46.040991723201444" lon="12.206432777477552"><ele>834.0</ele><time>2026-05-03T10:22:07Z</time></trkpt><trkpt lat="46.04105638949426" lon="12.206572122122314"><ele>834.0</ele><time>2026-05-03T10:22:08Z</time></trkpt><trkpt lat="46.04111147330649" lon="12.206708281991538"><ele>834.6666666666666</ele><time>2026-05-03T10:22:09Z</time></trkpt><trkpt lat="46.04116043836462" lon="12.206811898250242"><ele>835.3333333333333</ele><time>2026-05-03T10:22:10Z</time></trkpt><trkpt lat="46.04120510185349" lon="12.206898498014407"><ele>836.0</ele><time>2026-05-03T10:22:11Z</time></trkpt><trkpt lat="46.04124584214916" lon="12.206995629254177"><ele>836.6666666666666</ele><time>2026-05-03T10:22:12Z</time></trkpt><trkpt lat="46.04128025820838" lon="12.207092022015837"><ele>837.3333333333333</ele><time>2026-05-03T10:22:13Z</time></trkpt><trkpt lat="46.0413165637284" lon="12.207179957612166"><ele>838.0</ele><time>2026-05-03T10:22:14Z</time></trkpt><trkpt lat="46.04135972547682" lon="12.207269179683118"><ele>838.4</ele><time>2026-05-03T10:22:15Z</time></trkpt><trkpt lat="46.0414085085622" lon="12.207373787896413"><ele>838.8</ele><time>2026-05-03T10:22:16Z</time></trkpt><trkpt lat="46.04146180248055" lon="12.207486990648095"><ele>839.2</ele><time>2026-05-03T10:22:17Z</time></trkpt><trkpt lat="46.041518633906804" lon="12.207610021414315"><ele>839.6</ele><time>2026-05-03T10:22:18Z</time></trkpt><trkpt lat="46.041584494606596" lon="12.207728802851868"><ele>840.0</ele><time>2026-05-03T10:22:19Z</time></trkpt><trkpt lat="46.04167776277821" lon="12.207851340832326"><ele>838.5</ele><time>2026-05-03T10:22:20Z</time></trkpt><trkpt lat="46.041798736759716" lon="12.207939194322217"><ele>837.0</ele><time>2026-05-03T10:22:21Z</time></trkpt><trkpt lat="46.04194135717583" lon="12.207998608890662"><ele>835.5</ele><time>2026-05-03T10:22:22Z</time></trkpt><trkpt lat="46.04207413859058" lon="12.208056779245844"><ele>834.0</ele><time>2026-05-03T10:22:23Z</time></trkpt><trkpt lat="46.0421938716656" lon="12.208149244007776"><ele>834.0</ele><time>2026-05-03T10:22:24Z</time></trkpt><trkpt lat="46.042284558649634" lon="12.20830641194547"><ele>834.0</ele><time>2026-05-03T10:22:25Z</time></trkpt><trkpt lat="46.04239179067672" lon="12.20844709581817"><ele>834.0</ele><time>2026-05-03T10:22:26Z</time></trkpt><trkpt lat="46.042507285836166" lon="12.208573023939705"><ele>834.0</ele><time>2026-05-03T10:22:27Z</time></trkpt><trkpt lat="46.04262929168552" lon="12.208691776214325"><ele>833.75</ele><time>2026-05-03T10:22:28Z</time></trkpt><trkpt lat="46.042756064904594" lon="12.20878486875439"><ele>833.5</ele><time>2026-05-03T10:22:29Z</time></trkpt><trkpt lat="46.042875763207135" lon="12.208887908284959"><ele>833.25</ele><time>2026-05-03T10:22:30Z</time></trkpt><trkpt lat="46.04297429208621" lon="12.209005342369476"><ele>833.0</ele><time>2026-05-03T10:22:31Z</time></trkpt><trkpt lat="46.043007715325686" lon="12.209166845847378"><ele>834.5</ele><time>2026-05-03T10:22:32Z</time></trkpt><trkpt lat="46.04305659478653" lon="12.209339266262615"><ele>836.0</ele><time>2026-05-03T10:22:33Z</time></trkpt><trkpt lat="46.04312127478336" lon="12.209515337038422"><ele>837.5</ele><time>2026-05-03T10:22:34Z</time></trkpt><trkpt lat="46.043170976815425" lon="12.209705892022585"><ele>839.0</ele><time>2026-05-03T10:22:35Z</time></trkpt><trkpt lat="46.043222246619784" lon="12.209901388052137"><ele>840.0</ele><time>2026-05-03T10:22:36Z</time></trkpt><trkpt lat="46.043290401986" lon="12.210065615447817"><ele>841.0</ele><time>2026-05-03T10:22:37Z</time></trkpt><trkpt lat="46.043381717711114" lon="12.210202594771316"><ele>842.0</ele><time>2026-05-03T10:22:38Z</time></trkpt><trkpt lat="46.043492730289245" lon="12.21031472640583"><ele>843.0</ele><time>2026-05-03T10:22:39Z</time></trkpt><trkpt lat="46.043591041216715" lon="12.2104208863687"><ele>843.0</ele><time>2026-05-03T10:22:40Z</time></trkpt><trkpt lat="46.043687131103745" lon="12.210548699765999"><ele>843.0</ele><time>2026-05-03T10:22:41Z</time></trkpt><trkpt lat="46.04377713699236" lon="12.210705617297435"><ele>843.0</ele><time>2026-05-03T10:22:42Z</time></trkpt><trkpt lat="46.043872660722315" lon="12.210867957866983"><ele>843.0</ele><time>2026-05-03T10:22:43Z</time></trkpt><trkpt lat="46.04397136921828" lon="12.211040553637282"><ele>843.0</ele><time>2026-05-03T10:22:44Z</time></trkpt><trkpt lat="46.044064676513436" lon="12.211222444111668"><ele>843.0</ele><time>2026-05-03T10:22:45Z</time></trkpt><trkpt lat="46.04415383320704" lon="12.21138665504088"><ele>843.0</ele><time>2026-05-03T10:22:46Z</time></trkpt><trkpt lat="46.044235064464345" lon="12.21154167829781"><ele>843.0</ele><time>2026-05-03T10:22:47Z</time></trkpt><trkpt lat="46.04431125413942" lon="12.2116879762026"><ele>843.2</ele><time>2026-05-03T10:22:48Z</time></trkpt><trkpt lat="46.04436399014107" lon="12.211783285270245"><ele>843.4</ele><time>2026-05-03T10:22:49Z</time></trkpt><trkpt lat="46.04438383739501" lon="12.211872501756117"><ele>843.6</ele><time>2026-05-03T10:22:50Z</time></trkpt><trkpt lat="46.04452429119757" lon="12.211862010257484"><ele>843.8000000000001</ele><time>2026-05-03T10:22:51Z</time></trkpt><trkpt lat="46.04462644750842" lon="12.211901266503014"><ele>844.0</ele><time>2026-05-03T10:22:52Z</time></trkpt><trkpt lat="46.04472754260422" lon="12.211953098186225"><ele>844.0</ele><time>2026-05-03T10:22:53Z</time></trkpt><trkpt lat="46.04482087934835" lon="12.211997480233853"><ele>844.0</ele><time>2026-05-03T10:22:54Z</time></trkpt><trkpt lat="46.04490924705516" lon="12.21201575179907"><ele>844.0</ele><time>2026-05-03T10:22:55Z</time></trkpt><trkpt lat="46.04499910128313" lon="12.211996305820849"><ele>844.0</ele><time>2026-05-03T10:22:56Z</time></trkpt><trkpt lat="46.04509000373872" lon="12.211935199400921"><ele>844.0</ele><time>2026-05-03T10:22:57Z</time></trkpt><trkpt lat="46.04518433301876" lon="12.211846310657602"><ele>844.2</ele><time>2026-05-03T10:22:58Z</time></trkpt><trkpt lat="46.04528621459546" lon="12.211751386789247"><ele>844.4000000000001</ele><time>2026-05-03T10:22:59Z</time></trkpt><trkpt lat="46.04538153291982" lon="12.211665019687059"><ele>844.6</ele><time>2026-05-03T10:23:00Z</time></trkpt><trkpt lat="46.04546766361669" lon="12.211581727832344"><ele>844.8</ele><time>2026-05-03T10:23:01Z</time></trkpt><trkpt lat="46.045552831481956" lon="12.211509833631856"><ele>845.0</ele><time>2026-05-03T10:23:02Z</time></trkpt><trkpt lat="46.04563452900223" lon="12.211433183287962"><ele>845.0</ele><time>2026-05-03T10:23:03Z</time></trkpt><trkpt lat="46.045704526484215" lon="12.211336717372703"><ele>845.0</ele><time>2026-05-03T10:23:04Z</time></trkpt><trkpt lat="46.045759688880146" lon="12.211199824722602"><ele>845.0</ele><time>2026-05-03T10:23:05Z</time></trkpt><trkpt lat="46.04580617551057" lon="12.21104169239818"><ele>845.0</ele><time>2026-05-03T10:23:06Z</time></trkpt><trkpt lat="46.04585666892817" lon="12.2108818754902"><ele>845.0</ele><time>2026-05-03T10:23:07Z</time></trkpt><trkpt lat="46.045909672654304" lon="12.210722779009792"><ele>844.6666666666667</ele><time>2026-05-03T10:23:08Z</time></trkpt><trkpt lat="46.04598407566729" lon="12.210625834151656"><ele>844.3333333333334</ele><time>2026-05-03T10:23:09Z</time></trkpt><trkpt lat="46.045995028533746" lon="12.210479181026288"><ele>844.0</ele><time>2026-05-03T10:23:10Z</time></trkpt><trkpt lat="46.04600605986866" lon="12.21037376840015"><ele>843.6666666666667</ele><time>2026-05-03T10:23:11Z</time></trkpt><trkpt lat="46.045994075612185" lon="12.210265545475579"><ele>843.3333333333334</ele><time>2026-05-03T10:23:12Z</time></trkpt><trkpt lat="46.045963765135276" lon="12.210148177820408"><ele>843.0</ele><time>2026-05-03T10:23:13Z</time></trkpt><trkpt lat="46.04593998567167" lon="12.210048999339044"><ele>843.0</ele><time>2026-05-03T10:23:14Z</time></trkpt><trkpt lat="46.04589169878714" lon="12.209886285296632"><ele>843.0</ele><time>2026-05-03T10:23:16Z</time></trkpt><trkpt lat="46.045850406687684" lon="12.209795213366002"><ele>843.0</ele><time>2026-05-03T10:23:17Z</time></trkpt><trkpt lat="46.045794468267225" lon="12.209664262478785"><ele>843.0</ele><time>2026-05-03T10:23:18Z</time></trkpt><trkpt lat="46.04574413800903" lon="12.209530986924246"><ele>843.0</ele><time>2026-05-03T10:23:19Z</time></trkpt><trkpt lat="46.04569280748323" lon="12.2093988924167"><ele>844.0</ele><time>2026-05-03T10:23:20Z</time></trkpt><trkpt lat="46.045648377640724" lon="12.20927972457328"><ele>845.0</ele><time>2026-05-03T10:23:21Z</time></trkpt><trkpt lat="46.04560265661311" lon="12.209172172778388"><ele>846.0</ele><time>2026-05-03T10:23:22Z</time></trkpt><trkpt lat="46.045563887131784" lon="12.20905584753021"><ele>847.0</ele><time>2026-05-03T10:23:23Z</time></trkpt><trkpt lat="46.04550470549319" lon="12.208957745908794"><ele>848.0</ele><time>2026-05-03T10:23:24Z</time></trkpt><trkpt lat="46.04545237122362" lon="12.208832143649138"><ele>845.5999999999999</ele><time>2026-05-03T10:23:25Z</time></trkpt><trkpt lat="46.04540394021723" lon="12.208696258032102"><ele>843.1999999999999</ele><time>2026-05-03T10:23:26Z</time></trkpt><trkpt lat="46.04534335157649" lon="12.208587539240703"><ele>840.8</ele><time>2026-05-03T10:23:27Z</time></trkpt><trkpt lat="46.04528394494565" lon="12.208482004662017"><ele>838.4</ele><time>2026-05-03T10:23:28Z</time></trkpt><trkpt lat="46.04522383006987" lon="12.208389630590258"><ele>836.0</ele><time>2026-05-03T10:23:29Z</time></trkpt><trkpt lat="46.04519204657496" lon="12.208288566142782"><ele>834.6666666666667</ele><time>2026-05-03T10:23:30Z</time></trkpt><trkpt lat="46.04511348945736" lon="12.208119802776025"><ele>833.3333333333334</ele><time>2026-05-03T10:23:32Z</time></trkpt><trkpt lat="46.04508462554789" lon="12.20800812579448"><ele>832.0</ele><time>2026-05-03T10:23:33Z</time></trkpt><trkpt lat="46.04506731615039" lon="12.207901549525864"><ele>830.6666666666667</ele><time>2026-05-03T10:23:34Z</time></trkpt><trkpt lat="46.045055811455" lon="12.20780785430381"><ele>829.3333333333334</ele><time>2026-05-03T10:23:35Z</time></trkpt><trkpt lat="46.04504667027115" lon="12.207715265141177"><ele>828.0</ele><time>2026-05-03T10:23:36Z</time></trkpt><trkpt lat="46.04503361344417" lon="12.20755835742576"><ele>828.0</ele><time>2026-05-03T10:23:38Z</time></trkpt><trkpt lat="46.045032359433016" lon="12.207370758472662"><ele>828.0</ele><time>2026-05-03T10:23:40Z</time></trkpt><trkpt lat="46.04500915896582" lon="12.207280660691733"><ele>828.0</ele><time>2026-05-03T10:23:42Z</time></trkpt><trkpt lat="46.044991155102565" lon="12.207183548173868"><ele>828.0</ele><time>2026-05-03T10:23:44Z</time></trkpt><trkpt lat="46.044947202294814" lon="12.207028877660974"><ele>828.0</ele><time>2026-05-03T10:23:46Z</time></trkpt><trkpt lat="46.04489490705386" lon="12.206854482204843"><ele>826.5999999999999</ele><time>2026-05-03T10:23:48Z</time></trkpt><trkpt lat="46.04485697769271" lon="12.206730742096594"><ele>825.1999999999999</ele><time>2026-05-03T10:23:50Z</time></trkpt><trkpt lat="46.044805447306494" lon="12.206574662736976"><ele>823.8</ele><time>2026-05-03T10:23:52Z</time></trkpt><trkpt lat="46.04474263485552" lon="12.206430098984638"><ele>822.4</ele><time>2026-05-03T10:23:54Z</time></trkpt><trkpt lat="46.04468117948879" lon="12.206317878298089"><ele>821.0</ele><time>2026-05-03T10:23:56Z</time></trkpt><trkpt lat="46.0446016131438" lon="12.206229304143784"><ele>819.8</ele><time>2026-05-03T10:23:58Z</time></trkpt><trkpt lat="46.04451028048267" lon="12.206154826097515"><ele>818.5999999999999</ele><time>2026-05-03T10:24:00Z</time></trkpt><trkpt lat="46.044429390553674" lon="12.206069634645068"><ele>817.4</ele><time>2026-05-03T10:24:02Z</time></trkpt><trkpt lat="46.044352194006024" lon="12.20597057532802"><ele>816.2</ele><time>2026-05-03T10:24:04Z</time></trkpt><trkpt lat="46.04430812613691" lon="12.20583549840367"><ele>815.0</ele><time>2026-05-03T10:24:06Z</time></trkpt><trkpt lat="46.044324446049046" lon="12.205678157105783"><ele>815.0000000000001</ele><time>2026-05-03T10:24:08Z</time></trkpt><trkpt lat="46.044328778890765" lon="12.20558205845425"><ele>815.0</ele><time>2026-05-03T10:24:09Z</time></trkpt><trkpt lat="46.04435947157335" lon="12.205409736904443"><ele>815.0</ele><time>2026-05-03T10:24:11Z</time></trkpt><trkpt lat="46.04438074988378" lon="12.20531789071112"><ele>815.0</ele><time>2026-05-03T10:24:12Z</time></trkpt><trkpt lat="46.04438852774545" lon="12.205224577218198"><ele>815.0000000000001</ele><time>2026-05-03T10:24:13Z</time></trkpt><trkpt lat="46.044379309429324" lon="12.205129705640747"><ele>815.0</ele><time>2026-05-03T10:24:14Z</time></trkpt><trkpt lat="46.04435983730105" lon="12.2050320475036"><ele>815.0</ele><time>2026-05-03T10:24:15Z</time></trkpt><trkpt lat="46.04430839671843" lon="12.204863276466922"><ele>815.0</ele><time>2026-05-03T10:24:17Z</time></trkpt><trkpt lat="46.04423815481553" lon="12.204745527290823"><ele>815.0</ele><time>2026-05-03T10:24:19Z</time></trkpt><trkpt lat="46.04415992351274" lon="12.20465165010451"><ele>815.0</ele><time>2026-05-03T10:24:21Z</time></trkpt><trkpt lat="46.044064702352664" lon="12.20454609485719"><ele>812.4</ele><time>2026-05-03T10:24:23Z</time></trkpt><trkpt lat="46.04398294757411" lon="12.204436531978493"><ele>809.8</ele><time>2026-05-03T10:24:25Z</time></trkpt><trkpt lat="46.04390985221322" lon="12.20434408224311"><ele>807.2</ele><time>2026-05-03T10:24:27Z</time></trkpt><trkpt lat="46.043832020447475" lon="12.204229864330234"><ele>804.6</ele><time>2026-05-03T10:24:29Z</time></trkpt><trkpt lat="46.04376323739204" lon="12.204144997728974"><ele>802.0</ele><time>2026-05-03T10:24:31Z</time></trkpt><trkpt lat="46.04371975637392" lon="12.204052032678044"><ele>799.8</ele><time>2026-05-03T10:24:33Z</time></trkpt><trkpt lat="46.04365745764317" lon="12.20395378191481"><ele>797.6</ele><time>2026-05-03T10:24:35Z</time></trkpt><trkpt lat="46.04360045027607" lon="12.203828424511787"><ele>795.4</ele><time>2026-05-03T10:24:38Z</time></trkpt><trkpt lat="46.043566602135336" lon="12.203723848418282"><ele>793.1999999999999</ele><time>2026-05-03T10:24:40Z</time></trkpt><trkpt lat="46.043548374265306" lon="12.203614292822875"><ele>791.0</ele><time>2026-05-03T10:24:42Z</time></trkpt><trkpt lat="46.04354714632974" lon="12.203469110721652"><ele>791.0000000000001</ele><time>2026-05-03T10:24:44Z</time></trkpt><trkpt lat="46.04355051339438" lon="12.203342257408284"><ele>791.0</ele><time>2026-05-03T10:24:46Z</time></trkpt><trkpt lat="46.04357812235897" lon="12.203222595223389"><ele>791.0</ele><time>2026-05-03T10:24:48Z</time></trkpt><trkpt lat="46.043610848092996" lon="12.20313102257779"><ele>791.0</ele><time>2026-05-03T10:24:50Z</time></trkpt><trkpt lat="46.04363133179329" lon="12.20302799727156"><ele>791.0000000000001</ele><time>2026-05-03T10:24:52Z</time></trkpt><trkpt lat="46.04365008507974" lon="12.202915935467004"><ele>791.0</ele><time>2026-05-03T10:24:54Z</time></trkpt><trkpt lat="46.04367201324895" lon="12.20281906045759"><ele>789.5000000000001</ele><time>2026-05-03T10:24:56Z</time></trkpt><trkpt lat="46.043699619758165" lon="12.202719847912723"><ele>788.0</ele><time>2026-05-03T10:24:58Z</time></trkpt><trkpt lat="46.0437359276463" lon="12.202610305778338"><ele>786.5</ele><time>2026-05-03T10:25:00Z</time></trkpt><trkpt lat="46.04377203766506" lon="12.202521269081817"><ele>785.0</ele><time>2026-05-03T10:25:02Z</time></trkpt><trkpt lat="46.04379549518408" lon="12.20241648499825"><ele>783.5000000000001</ele><time>2026-05-03T10:25:04Z</time></trkpt><trkpt lat="46.0438293519785" lon="12.202321988571503"><ele>782.0</ele><time>2026-05-03T10:25:06Z</time></trkpt><trkpt lat="46.04386022716515" lon="12.20222170003059"><ele>781.8333333333334</ele><time>2026-05-03T10:25:08Z</time></trkpt><trkpt lat="46.04389699581281" lon="12.20212119838927"><ele>781.6666666666667</ele><time>2026-05-03T10:25:10Z</time></trkpt><trkpt lat="46.04393530863134" lon="12.202026065434112"><ele>781.5</ele><time>2026-05-03T10:25:12Z</time></trkpt><trkpt lat="46.044001849245696" lon="12.201938342403201"><ele>781.3333333333333</ele><time>2026-05-03T10:25:15Z</time></trkpt><trkpt lat="46.04408610375543" lon="12.201874696880267"><ele>781.1666666666666</ele><time>2026-05-03T10:25:18Z</time></trkpt><trkpt lat="46.04415539927467" lon="12.201762455105287"><ele>781.0</ele><time>2026-05-03T10:25:21Z</time></trkpt><trkpt lat="46.04417768955123" lon="12.20164757927297"><ele>780.9999999999999</ele><time>2026-05-03T10:25:23Z</time></trkpt><trkpt lat="46.04418367126601" lon="12.201553712380827"><ele>781.0</ele><time>2026-05-03T10:25:25Z</time></trkpt><trkpt lat="46.04419674914692" lon="12.201427828254959"><ele>781.0</ele><time>2026-05-03T10:25:28Z</time></trkpt><trkpt lat="46.04418539281668" lon="12.201330658150463"><ele>781.0</ele><time>2026-05-03T10:25:31Z</time></trkpt><trkpt lat="46.04419821035852" lon="12.201229975688547"><ele>780.9999999999999</ele><time>2026-05-03T10:25:33Z</time></trkpt><trkpt lat="46.044217502824175" lon="12.201095391761534"><ele>781.0</ele><time>2026-05-03T10:26:57Z</time></trkpt><trkpt lat="46.04417627909227" lon="12.200990319785538"><ele>780.3333333333333</ele><time>2026-05-03T10:26:59Z</time></trkpt><trkpt lat="46.04415305622114" lon="12.200893412392123"><ele>779.6666666666666</ele><time>2026-05-03T10:27:01Z</time></trkpt><trkpt lat="46.04416443251961" lon="12.200789605751932"><ele>779.0</ele><time>2026-05-03T10:27:04Z</time></trkpt><trkpt lat="46.04412944179629" lon="12.200700738434373"><ele>778.3333333333333</ele><time>2026-05-03T10:27:06Z</time></trkpt><trkpt lat="46.04410673931271" lon="12.200590384616754"><ele>777.6666666666666</ele><time>2026-05-03T10:27:08Z</time></trkpt><trkpt lat="46.04410663949647" lon="12.200450908657446"><ele>777.0</ele><time>2026-05-03T10:27:10Z</time></trkpt><trkpt lat="46.04411808453467" lon="12.200354708011972"><ele>774.8333333333334</ele><time>2026-05-03T10:27:12Z</time></trkpt><trkpt lat="46.044137556476215" lon="12.200263792952722"><ele>772.6666666666666</ele><time>2026-05-03T10:27:14Z</time></trkpt><trkpt lat="46.04413890110477" lon="12.200166124186046"><ele>770.5</ele><time>2026-05-03T10:27:16Z</time></trkpt><trkpt lat="46.0440946385586" lon="12.200047875204326"><ele>768.3333333333333</ele><time>2026-05-03T10:27:19.001Z</time></trkpt><trkpt lat="46.04403564511962" lon="12.199914233900726"><ele>766.1666666666666</ele><time>2026-05-03T10:27:22.001Z</time></trkpt><trkpt lat="46.04399724086791" lon="12.199805253967625"><ele>764.0</ele><time>2026-05-03T10:27:24.001Z</time></trkpt><trkpt lat="46.043959935812595" lon="12.199682022681898"><ele>761.5</ele><time>2026-05-03T10:27:26.001Z</time></trkpt><trkpt lat="46.04393956210974" lon="12.199571591569816"><ele>759.0</ele><time>2026-05-03T10:27:28.001Z</time></trkpt><trkpt lat="46.04392224804595" lon="12.199453457433256"><ele>756.5</ele><time>2026-05-03T10:27:30.001Z</time></trkpt><trkpt lat="46.04391029899224" lon="12.199337065973761"><ele>754.0</ele><time>2026-05-03T10:27:32.001Z</time></trkpt><trkpt lat="46.043917442339364" lon="12.19920531627005"><ele>751.5</ele><time>2026-05-03T10:27:34.001Z</time></trkpt><trkpt lat="46.04391186458406" lon="12.199080731392995"><ele>749.0</ele><time>2026-05-03T10:27:36Z</time></trkpt><trkpt lat="46.043925706612235" lon="12.198968801107512"><ele>746.6</ele><time>2026-05-03T10:27:38Z</time></trkpt><trkpt lat="46.043913942224016" lon="12.198829289420495"><ele>744.2</ele><time>2026-05-03T10:27:40Z</time></trkpt><trkpt lat="46.04389393111863" lon="12.198719583876668"><ele>741.8000000000001</ele><time>2026-05-03T10:27:42Z</time></trkpt><trkpt lat="46.04389546256851" lon="12.19858522771422"><ele>739.4000000000001</ele><time>2026-05-03T10:27:44Z</time></trkpt><trkpt lat="46.04389774353364" lon="12.19845552210427"><ele>737.0</ele><time>2026-05-03T10:27:46Z</time></trkpt><trkpt lat="46.04388736261417" lon="12.198249138261609"><ele>735.6</ele><time>2026-05-03T10:27:48Z</time></trkpt><trkpt lat="46.04387310632323" lon="12.198083104979295"><ele>734.2</ele><time>2026-05-03T10:27:50Z</time></trkpt><trkpt lat="46.04387315527074" lon="12.19791641219761"><ele>732.8</ele><time>2026-05-03T10:27:52Z</time></trkpt><trkpt lat="46.04385733062609" lon="12.197818557231768"><ele>731.4</ele><time>2026-05-03T10:27:53Z</time></trkpt><trkpt lat="46.043826871626756" lon="12.197653230975726"><ele>730.0</ele><time>2026-05-03T10:27:55Z</time></trkpt><trkpt lat="46.04380907616228" lon="12.197564836632763"><ele>730.0</ele><time>2026-05-03T10:27:56Z</time></trkpt><trkpt lat="46.0437905267172" lon="12.197472696845589"><ele>730.0</ele><time>2026-05-03T10:27:57Z</time></trkpt><trkpt lat="46.043764288667674" lon="12.197390097314555"><ele>730.0</ele><time>2026-05-03T10:27:58Z</time></trkpt><trkpt lat="46.04372837602984" lon="12.197208713099892"><ele>730.0</ele><time>2026-05-03T10:28:00Z</time></trkpt><trkpt lat="46.04370566603687" lon="12.197114627482899"><ele>730.0</ele><time>2026-05-03T10:28:01Z</time></trkpt><trkpt lat="46.04368678242753" lon="12.197021283363679"><ele>730.0</ele><time>2026-05-03T10:28:02Z</time></trkpt><trkpt lat="46.04366350338838" lon="12.196928713751497"><ele>729.5714285714287</ele><time>2026-05-03T10:28:03Z</time></trkpt><trkpt lat="46.04366140200848" lon="12.196815979559942"><ele>729.1428571428571</ele><time>2026-05-03T10:28:04Z</time></trkpt><trkpt lat="46.04364756272729" lon="12.196715721068532"><ele>728.7142857142858</ele><time>2026-05-03T10:28:05Z</time></trkpt><trkpt lat="46.04363338015207" lon="12.1966135985995"><ele>728.2857142857143</ele><time>2026-05-03T10:28:06Z</time></trkpt><trkpt lat="46.04361264985994" lon="12.196515473019627"><ele>727.8571428571429</ele><time>2026-05-03T10:28:07Z</time></trkpt><trkpt lat="46.04360271057833" lon="12.196413854585584"><ele>727.4285714285714</ele><time>2026-05-03T10:28:08Z</time></trkpt><trkpt lat="46.04358878008355" lon="12.19631981810486"><ele>727.0</ele><time>2026-05-03T10:28:09Z</time></trkpt><trkpt lat="46.043586044674804" lon="12.19622658910967"><ele>725.8</ele><time>2026-05-03T10:28:10Z</time></trkpt><trkpt lat="46.043575988752245" lon="12.196131303691837"><ele>724.6</ele><time>2026-05-03T10:28:11Z</time></trkpt><trkpt lat="46.04359179562515" lon="12.195980431111686"><ele>723.4</ele><time>2026-05-03T10:28:13Z</time></trkpt><trkpt lat="46.04362861175079" lon="12.195856854867722"><ele>722.1999999999999</ele><time>2026-05-03T10:28:15Z</time></trkpt><trkpt lat="46.04368502154963" lon="12.195717352314388"><ele>721.0</ele><time>2026-05-03T10:28:17Z</time></trkpt><trkpt lat="46.04377651226892" lon="12.19561805431386"><ele>720.1999999999999</ele><time>2026-05-03T10:28:19Z</time></trkpt><trkpt lat="46.04387674284325" lon="12.195529967199068"><ele>719.4</ele><time>2026-05-03T10:28:21Z</time></trkpt><trkpt lat="46.04395094590639" lon="12.195450949315271"><ele>718.6</ele><time>2026-05-03T10:28:23Z</time></trkpt><trkpt lat="46.044012367760764" lon="12.195395652358233"><ele>717.8</ele><time>2026-05-03T10:28:25Z</time></trkpt><trkpt lat="46.04406560271069" lon="12.195322576201447"><ele>717.0</ele><time>2026-05-03T10:28:28Z</time></trkpt><trkpt lat="46.044163825278574" lon="12.195241811780502"><ele>716.8333333333334</ele><time>2026-05-03T10:28:30Z</time></trkpt><trkpt lat="46.044223296711515" lon="12.19518490152508"><ele>716.6666666666666</ele><time>2026-05-03T10:28:31Z</time></trkpt><trkpt lat="46.044282858744666" lon="12.195118480638572"><ele>716.5</ele><time>2026-05-03T10:28:32Z</time></trkpt><trkpt lat="46.04434913947435" lon="12.195051351500185"><ele>716.3333333333333</ele><time>2026-05-03T10:28:33Z</time></trkpt><trkpt lat="46.04440703793662" lon="12.194990843922794"><ele>716.1666666666666</ele><time>2026-05-03T10:28:34Z</time></trkpt><trkpt lat="46.04446267043738" lon="12.194934590891432"><ele>716.0</ele><time>2026-05-03T10:28:35Z</time></trkpt><trkpt lat="46.04456049687705" lon="12.194838297461713"><ele>715.4</ele><time>2026-05-03T10:28:37Z</time></trkpt><trkpt lat="46.04464416553451" lon="12.19476944737187"><ele>714.8</ele><time>2026-05-03T10:28:39Z</time></trkpt><trkpt lat="46.04474596444433" lon="12.194704916399571"><ele>714.1999999999999</ele><time>2026-05-03T10:28:41Z</time></trkpt><trkpt lat="46.04484384591942" lon="12.194646390622784"><ele>713.5999999999999</ele><time>2026-05-03T10:28:43Z</time></trkpt><trkpt lat="46.04494675423625" lon="12.194588648773125"><ele>713.0</ele><time>2026-05-03T10:28:45Z</time></trkpt><trkpt lat="46.045028774701976" lon="12.194530908077498"><ele>712.5</ele><time>2026-05-03T10:28:47Z</time></trkpt><trkpt lat="46.04511172976903" lon="12.194484449490298"><ele>712.0</ele><time>2026-05-03T10:28:49Z</time></trkpt><trkpt lat="46.045194411699654" lon="12.194436757409857"><ele>711.5</ele><time>2026-05-03T10:28:51Z</time></trkpt><trkpt lat="46.04527577598753" lon="12.19441654376034"><ele>711.0</ele><time>2026-05-03T10:28:53Z</time></trkpt><trkpt lat="46.045353327822255" lon="12.194385227509157"><ele>710.5</ele><time>2026-05-03T10:28:55Z</time></trkpt><trkpt lat="46.04543459680534" lon="12.194385732409204"><ele>710.0</ele><time>2026-05-03T10:28:57Z</time></trkpt><trkpt lat="46.04553936165581" lon="12.194395687905688"><ele>710.0</ele><time>2026-05-03T10:28:59Z</time></trkpt><trkpt lat="46.04560910543938" lon="12.194402413291519"><ele>710.0</ele><time>2026-05-03T10:29:00Z</time></trkpt><trkpt lat="46.045682073228186" lon="12.194398865529072"><ele>710.0</ele><time>2026-05-03T10:29:01Z</time></trkpt><trkpt lat="46.04574898066321" lon="12.194398390578108"><ele>710.0</ele><time>2026-05-03T10:29:02Z</time></trkpt><trkpt lat="46.04581651694815" lon="12.194393741624998"><ele>710.0</ele><time>2026-05-03T10:29:03Z</time></trkpt><trkpt lat="46.04588863649914" lon="12.194385425941267"><ele>710.0</ele><time>2026-05-03T10:29:04Z</time></trkpt><trkpt lat="46.04595968591818" lon="12.194390462393342"><ele>710.0</ele><time>2026-05-03T10:29:05Z</time></trkpt><trkpt lat="46.04603044128119" lon="12.194386441798702"><ele>709.0</ele><time>2026-05-03T10:29:06Z</time></trkpt><trkpt lat="46.04613460300258" lon="12.194379508341074"><ele>708.0</ele><time>2026-05-03T10:29:08Z</time></trkpt><trkpt lat="46.04621360342954" lon="12.194370427796688"><ele>707.0</ele><time>2026-05-03T10:29:10Z</time></trkpt><trkpt lat="46.04627712862558" lon="12.194374401774178"><ele>706.0</ele><time>2026-05-03T10:29:12Z</time></trkpt><trkpt lat="46.04634442553446" lon="12.194365079863625"><ele>705.0</ele><time>2026-05-03T10:29:14Z</time></trkpt><trkpt lat="46.046419724752724" lon="12.19435882445024"><ele>704.0</ele><time>2026-05-03T10:29:16Z</time></trkpt><trkpt lat="46.04650573017064" lon="12.19435848750416"><ele>704.0</ele><time>2026-05-03T10:29:18Z</time></trkpt><trkpt lat="46.04657645630715" lon="12.194356056379625"><ele>704.0</ele><time>2026-05-03T10:29:21Z</time></trkpt><trkpt lat="46.04663983591643" lon="12.19436930560266"><ele>704.0</ele><time>2026-05-03T10:29:23Z</time></trkpt><trkpt lat="46.04672183324353" lon="12.194372137871461"><ele>704.0</ele><time>2026-05-03T10:29:26Z</time></trkpt><trkpt lat="46.04678642020022" lon="12.19436214849187"><ele>704.0</ele><time>2026-05-03T10:29:29Z</time></trkpt><trkpt lat="46.04684769006168" lon="12.194335342758313"><ele>704.0</ele><time>2026-05-03T10:29:32Z</time></trkpt><trkpt lat="46.046906878350924" lon="12.194303966715392"><ele>704.0</ele><time>2026-05-03T10:29:34Z</time></trkpt><trkpt lat="46.04697919697613" lon="12.194225535833352"><ele>702.8571428571429</ele><time>2026-05-03T10:29:37Z</time></trkpt><trkpt lat="46.04701919815284" lon="12.194144205180372"><ele>701.7142857142857</ele><time>2026-05-03T10:29:40Z</time></trkpt><trkpt lat="46.047063413198074" lon="12.194065958712388"><ele>700.5714285714286</ele><time>2026-05-03T10:29:42Z</time></trkpt><trkpt lat="46.04711873527313" lon="12.193994312376324"><ele>699.4285714285714</ele><time>2026-05-03T10:29:44Z</time></trkpt><trkpt lat="46.04717709083498" lon="12.193918326371561"><ele>698.2857142857143</ele><time>2026-05-03T10:29:47Z</time></trkpt><trkpt lat="46.047243716661164" lon="12.19386629703381"><ele>697.1428571428571</ele><time>2026-05-03T10:29:49Z</time></trkpt><trkpt lat="46.04730136096609" lon="12.193811012005893"><ele>696.0</ele><time>2026-05-03T10:29:51Z</time></trkpt><trkpt lat="46.04737761772414" lon="12.193750833461225"><ele>695.5999999999999</ele><time>2026-05-03T10:29:53Z</time></trkpt><trkpt lat="46.04744889596284" lon="12.193677699964839"><ele>695.2</ele><time>2026-05-03T10:29:55Z</time></trkpt><trkpt lat="46.04752359291715" lon="12.193558847681032"><ele>694.8</ele><time>2026-05-03T10:29:57Z</time></trkpt><trkpt lat="46.04758909696848" lon="12.193425086727647"><ele>694.4000000000001</ele><time>2026-05-03T10:29:59Z</time></trkpt><trkpt lat="46.047650995159024" lon="12.19331357976512"><ele>694.0</ele><time>2026-05-03T10:30:01Z</time></trkpt><trkpt lat="46.047703968988465" lon="12.193205884305739"><ele>693.2</ele><time>2026-05-03T10:30:03Z</time></trkpt><trkpt lat="46.047771116410125" lon="12.193122311251551"><ele>692.4000000000001</ele><time>2026-05-03T10:30:05Z</time></trkpt><trkpt lat="46.04784813097997" lon="12.19301347671979"><ele>691.6</ele><time>2026-05-03T10:30:07Z</time></trkpt><trkpt lat="46.04793587323563" lon="12.192924362908334"><ele>690.8</ele><time>2026-05-03T10:30:09Z</time></trkpt><trkpt lat="46.048020103226996" lon="12.19285414739261"><ele>690.0</ele><time>2026-05-03T10:30:11Z</time></trkpt><trkpt lat="46.04811351710607" lon="12.192759139144203"><ele>690.0</ele><time>2026-05-03T10:30:13Z</time></trkpt><trkpt lat="46.048200220884866" lon="12.192699127859392"><ele>690.0</ele><time>2026-05-03T10:30:15Z</time></trkpt><trkpt lat="46.04827393654111" lon="12.192626082645937"><ele>690.0</ele><time>2026-05-03T10:30:17Z</time></trkpt><trkpt lat="46.048316190541364" lon="12.192520618050565"><ele>690.0</ele><time>2026-05-03T10:30:19Z</time></trkpt><trkpt lat="46.04832134197753" lon="12.192347972640764"><ele>690.0</ele><time>2026-05-03T10:30:22Z</time></trkpt><trkpt lat="46.04833114781929" lon="12.192243992027253"><ele>689.3333333333334</ele><time>2026-05-03T10:30:24Z</time></trkpt><trkpt lat="46.048339726785976" lon="12.192083809957984"><ele>688.6666666666666</ele><time>2026-05-03T10:30:26Z</time></trkpt><trkpt lat="46.048295654234295" lon="12.192014452616489"><ele>688.0</ele><time>2026-05-03T10:30:27Z</time></trkpt><trkpt lat="46.04823493788715" lon="12.191884517906871"><ele>687.3333333333333</ele><time>2026-05-03T10:30:29Z</time></trkpt><trkpt lat="46.04817990881519" lon="12.191786975404703"><ele>686.6666666666666</ele><time>2026-05-03T10:30:31Z</time></trkpt><trkpt lat="46.04812759611294" lon="12.191707619007492"><ele>686.0</ele><time>2026-05-03T10:30:33Z</time></trkpt><trkpt lat="46.04808338304638" lon="12.191631499856266"><ele>686.0</ele><time>2026-05-03T10:30:35Z</time></trkpt><trkpt lat="46.04805769037348" lon="12.191524861056768"><ele>686.0</ele><time>2026-05-03T10:30:38Z</time></trkpt><trkpt lat="46.048095307470554" lon="12.191403750602001"><ele>686.0</ele><time>2026-05-03T10:30:42Z</time></trkpt><trkpt lat="46.04814581921682" lon="12.191320058653618"><ele>686.0</ele><time>2026-05-03T10:30:44Z</time></trkpt><trkpt lat="46.04825168790699" lon="12.191272410867343"><ele>686.0</ele><time>2026-05-03T10:30:46Z</time></trkpt><trkpt lat="46.04836893118882" lon="12.191237449095352"><ele>684.6666666666666</ele><time>2026-05-03T10:30:48Z</time></trkpt><trkpt lat="46.04847275017099" lon="12.191200691513934"><ele>683.3333333333333</ele><time>2026-05-03T10:30:50Z</time></trkpt><trkpt lat="46.048557838695324" lon="12.191155222060505"><ele>682.0</ele><time>2026-05-03T10:30:52Z</time></trkpt><trkpt lat="46.048665443282516" lon="12.191092642505211"><ele>680.6666666666666</ele><time>2026-05-03T10:30:54Z</time></trkpt><trkpt lat="46.04872915984983" lon="12.19107636066765"><ele>679.3333333333334</ele><time>2026-05-03T10:30:55Z</time></trkpt><trkpt lat="46.04878243490103" lon="12.19112476628204"><ele>678.0</ele><time>2026-05-03T10:30:56Z</time></trkpt><trkpt lat="46.04886762381787" lon="12.19117825558705"><ele>678.0</ele><time>2026-05-03T10:30:58Z</time></trkpt><trkpt lat="46.04893987487888" lon="12.191245931590958"><ele>678.0</ele><time>2026-05-03T10:31:00Z</time></trkpt><trkpt lat="46.04899734716414" lon="12.191314741510283"><ele>678.0</ele><time>2026-05-03T10:31:02Z</time></trkpt><trkpt lat="46.04905940266852" lon="12.191357779261878"><ele>678.0</ele><time>2026-05-03T10:31:04Z</time></trkpt><trkpt lat="46.04914146331802" lon="12.191399585364065"><ele>678.0</ele><time>2026-05-03T10:31:07Z</time></trkpt><trkpt lat="46.04924027177533" lon="12.19142849004377"><ele>678.0</ele><time>2026-05-03T10:31:10Z</time></trkpt><trkpt lat="46.049323493862246" lon="12.191422702417642"><ele>675.4</ele><time>2026-05-03T10:31:12Z</time></trkpt><trkpt lat="46.0494084526475" lon="12.191422782042165"><ele>672.8</ele><time>2026-05-03T10:31:14Z</time></trkpt><trkpt lat="46.0495028577381" lon="12.191432180889201"><ele>670.2</ele><time>2026-05-03T10:31:16Z</time></trkpt><trkpt lat="46.04956676469548" lon="12.191427972143877"><ele>667.6</ele><time>2026-05-03T10:31:17Z</time></trkpt><trkpt lat="46.04963825372337" lon="12.191423264063108"><ele>665.0</ele><time>2026-05-03T10:31:18Z</time></trkpt><trkpt lat="46.04974394010014" lon="12.191300526235468"><ele>665.0</ele><time>2026-05-03T10:31:20Z</time></trkpt><trkpt lat="46.04980226789849" lon="12.191250127144372"><ele>665.0</ele><time>2026-05-03T10:31:22Z</time></trkpt><trkpt lat="46.04986060151278" lon="12.191207668355343"><ele>665.0</ele><time>2026-05-03T10:31:30.999Z</time></trkpt><trkpt lat="46.04992991383062" lon="12.191161770463804"><ele>665.0</ele><time>2026-05-03T10:31:32.999Z</time></trkpt><trkpt lat="46.04999950335528" lon="12.191145282493535"><ele>665.0</ele><time>2026-05-03T10:31:34.999Z</time></trkpt><trkpt lat="46.05010743789499" lon="12.191160382164481"><ele>665.0</ele><time>2026-05-03T10:31:36.999Z</time></trkpt><trkpt lat="46.05020542824722" lon="12.191186094511933"><ele>664.6666666666666</ele><time>2026-05-03T10:31:38.999Z</time></trkpt><trkpt lat="46.050302620227654" lon="12.191183773262837"><ele>664.3333333333333</ele><time>2026-05-03T10:31:40.999Z</time></trkpt><trkpt lat="46.05038282594191" lon="12.191128257521841"><ele>664.0</ele><time>2026-05-03T10:31:42.999Z</time></trkpt><trkpt lat="46.05045868497657" lon="12.191046140048721"><ele>663.6666666666666</ele><time>2026-05-03T10:31:44.999Z</time></trkpt><trkpt lat="46.050499715114505" lon="12.190970094929936"><ele>663.3333333333334</ele><time>2026-05-03T10:31:45.999Z</time></trkpt><trkpt lat="46.050553990251814" lon="12.190859808939251"><ele>663.0</ele><time>2026-05-03T10:31:46.999Z</time></trkpt><trkpt lat="46.05061183450655" lon="12.190739450722855"><ele>663.4</ele><time>2026-05-03T10:31:47.999Z</time></trkpt><trkpt lat="46.05065870333874" lon="12.190600555676484"><ele>663.8</ele><time>2026-05-03T10:31:48.999Z</time></trkpt><trkpt lat="46.05067614925349" lon="12.190462041885036"><ele>664.2</ele><time>2026-05-03T10:31:49.999Z</time></trkpt><trkpt lat="46.0506632747569" lon="12.190299842396339"><ele>664.6</ele><time>2026-05-03T10:31:50.999Z</time></trkpt><trkpt lat="46.05064217653703" lon="12.190143198723014"><ele>665.0</ele><time>2026-05-03T10:31:51.999Z</time></trkpt><trkpt lat="46.05060877685029" lon="12.189981381283008"><ele>665.2</ele><time>2026-05-03T10:31:52.999Z</time></trkpt><trkpt lat="46.05057283491933" lon="12.18983577743218"><ele>665.4</ele><time>2026-05-03T10:31:53.999Z</time></trkpt><trkpt lat="46.05053427261952" lon="12.18970449429434"><ele>665.5999999999999</ele><time>2026-05-03T10:31:54.999Z</time></trkpt><trkpt lat="46.05050061589868" lon="12.189586746219817"><ele>665.8</ele><time>2026-05-03T10:31:55.999Z</time></trkpt><trkpt lat="46.0504779119971" lon="12.189468373855735"><ele>666.0</ele><time>2026-05-03T10:31:56.999Z</time></trkpt><trkpt lat="46.05046764933052" lon="12.18936517670522"><ele>666.0</ele><time>2026-05-03T10:31:57.999Z</time></trkpt><trkpt lat="46.05046830744431" lon="12.189260364893723"><ele>666.0</ele><time>2026-05-03T10:31:58.999Z</time></trkpt><trkpt lat="46.050481009028296" lon="12.189157354336617"><ele>666.0</ele><time>2026-05-03T10:31:59.999Z</time></trkpt><trkpt lat="46.050498535813986" lon="12.189037856966515"><ele>666.0</ele><time>2026-05-03T10:32:00.999Z</time></trkpt><trkpt lat="46.05051926826836" lon="12.188895191625155"><ele>666.0</ele><time>2026-05-03T10:32:01.999Z</time></trkpt><trkpt lat="46.050549606958796" lon="12.188738754198635"><ele>666.0</ele><time>2026-05-03T10:32:02.999Z</time></trkpt><trkpt lat="46.05058661159603" lon="12.18856680793321"><ele>667.0</ele><time>2026-05-03T10:32:03.999Z</time></trkpt><trkpt lat="46.050625396564435" lon="12.188393940042982"><ele>668.0</ele><time>2026-05-03T10:32:04.999Z</time></trkpt><trkpt lat="46.05066738199597" lon="12.188216725151873"><ele>669.0</ele><time>2026-05-03T10:32:05.999Z</time></trkpt><trkpt lat="46.050702829071184" lon="12.188040853180263"><ele>670.0</ele><time>2026-05-03T10:32:06.999Z</time></trkpt><trkpt lat="46.05075961066303" lon="12.187877294514337"><ele>669.0</ele><time>2026-05-03T10:32:07.999Z</time></trkpt><trkpt lat="46.05083766016145" lon="12.187746483292667"><ele>668.0</ele><time>2026-05-03T10:32:08.999Z</time></trkpt><trkpt lat="46.05093132727011" lon="12.187639933280593"><ele>667.0</ele><time>2026-05-03T10:32:09.999Z</time></trkpt><trkpt lat="46.05102868482478" lon="12.187540821900809"><ele>666.0</ele><time>2026-05-03T10:32:10.999Z</time></trkpt><trkpt lat="46.05112845022667" lon="12.187441261022911"><ele>666.0</ele><time>2026-05-03T10:32:11.999Z</time></trkpt><trkpt lat="46.0512269971456" lon="12.187352135847163"><ele>666.0</ele><time>2026-05-03T10:32:12.999Z</time></trkpt><trkpt lat="46.05132873627416" lon="12.187287519231221"><ele>666.0</ele><time>2026-05-03T10:32:13.999Z</time></trkpt><trkpt lat="46.051435090977414" lon="12.187226344708032"><ele>666.0</ele><time>2026-05-03T10:32:14.999Z</time></trkpt><trkpt lat="46.051524311157294" lon="12.187157134200488"><ele>666.0</ele><time>2026-05-03T10:32:15.999Z</time></trkpt><trkpt lat="46.051618414631754" lon="12.187077983922162"><ele>666.25</ele><time>2026-05-03T10:32:16.999Z</time></trkpt><trkpt lat="46.05172592853466" lon="12.186987189881737"><ele>666.5</ele><time>2026-05-03T10:32:17.999Z</time></trkpt><trkpt lat="46.05183188033988" lon="12.186863819067407"><ele>666.75</ele><time>2026-05-03T10:32:18.999Z</time></trkpt><trkpt lat="46.0519366112325" lon="12.186704149178263"><ele>667.0</ele><time>2026-05-03T10:32:19.999Z</time></trkpt><trkpt lat="46.05202871013911" lon="12.186530202951918"><ele>667.6666666666667</ele><time>2026-05-03T10:32:20.999Z</time></trkpt><trkpt lat="46.052107201909664" lon="12.186339650361516"><ele>668.3333333333334</ele><time>2026-05-03T10:32:21.999Z</time></trkpt><trkpt lat="46.05218580584231" lon="12.186143073540359"><ele>669.0</ele><time>2026-05-03T10:32:22.999Z</time></trkpt><trkpt lat="46.05226335623248" lon="12.185940163362275"><ele>669.0</ele><time>2026-05-03T10:32:23.999Z</time></trkpt><trkpt lat="46.052334628556586" lon="12.185749975376353"><ele>669.0</ele><time>2026-05-03T10:32:24.999Z</time></trkpt><trkpt lat="46.052407468065326" lon="12.185574834586642"><ele>669.0</ele><time>2026-05-03T10:32:25.999Z</time></trkpt><trkpt lat="46.052486344847765" lon="12.185403912820275"><ele>669.0</ele><time>2026-05-03T10:32:26.999Z</time></trkpt><trkpt lat="46.0525713635451" lon="12.185253680044305"><ele>665.5</ele><time>2026-05-03T10:32:27.999Z</time></trkpt><trkpt lat="46.05265523757933" lon="12.185111466396554"><ele>662.0</ele><time>2026-05-03T10:32:28.999Z</time></trkpt><trkpt lat="46.052740400605416" lon="12.184971438449322"><ele>658.5</ele><time>2026-05-03T10:32:29.999Z</time></trkpt><trkpt lat="46.05282537212848" lon="12.184829876524564"><ele>655.0</ele><time>2026-05-03T10:32:30.999Z</time></trkpt><trkpt lat="46.052898369445444" lon="12.184682202410283"><ele>655.0</ele><time>2026-05-03T10:32:31.999Z</time></trkpt><trkpt lat="46.052957269184226" lon="12.184517861361517"><ele>655.0</ele><time>2026-05-03T10:32:32.999Z</time></trkpt><trkpt lat="46.052995725661354" lon="12.184346024904396"><ele>655.0</ele><time>2026-05-03T10:32:33.999Z</time></trkpt><trkpt lat="46.05303460912788" lon="12.184177262366537"><ele>655.0</ele><time>2026-05-03T10:32:34.999Z</time></trkpt><trkpt lat="46.053079765344144" lon="12.184013178966044"><ele>657.25</ele><time>2026-05-03T10:32:35.999Z</time></trkpt><trkpt lat="46.05312111013198" lon="12.183847202217962"><ele>659.5</ele><time>2026-05-03T10:32:36.999Z</time></trkpt><trkpt lat="46.05317235809536" lon="12.183669713567028"><ele>661.75</ele><time>2026-05-03T10:32:37.999Z</time></trkpt><trkpt lat="46.05324089308926" lon="12.1834949451448"><ele>664.0</ele><time>2026-05-03T10:32:38.999Z</time></trkpt><trkpt lat="46.053318511467786" lon="12.18331377712677"><ele>657.6666666666667</ele><time>2026-05-03T10:32:39.999Z</time></trkpt><trkpt lat="46.053396853713394" lon="12.183131087684458"><ele>651.3333333333334</ele><time>2026-05-03T10:32:40.999Z</time></trkpt><trkpt lat="46.05347684051056" lon="12.182937797978985"><ele>645.0</ele><time>2026-05-03T10:32:41.999Z</time></trkpt><trkpt lat="46.05355843031454" lon="12.182730823165853"><ele>645.0</ele><time>2026-05-03T10:32:42.999Z</time></trkpt><trkpt lat="46.053645862197726" lon="12.1825152689496"><ele>645.0</ele><time>2026-05-03T10:32:43.999Z</time></trkpt><trkpt lat="46.05373166984781" lon="12.182298351344691"><ele>645.0</ele><time>2026-05-03T10:32:44.999Z</time></trkpt><trkpt lat="46.05381100723576" lon="12.182090937774976"><ele>647.0</ele><time>2026-05-03T10:32:45.999Z</time></trkpt><trkpt lat="46.05389177709642" lon="12.181886348638413"><ele>649.0</ele><time>2026-05-03T10:32:46.999Z</time></trkpt><trkpt lat="46.053972768058316" lon="12.18167966267854"><ele>651.0</ele><time>2026-05-03T10:32:47.999Z</time></trkpt><trkpt lat="46.05405217934545" lon="12.18147302591671"><ele>648.0</ele><time>2026-05-03T10:32:48.999Z</time></trkpt><trkpt lat="46.054137118531905" lon="12.18127005260658"><ele>645.0</ele><time>2026-05-03T10:32:49.999Z</time></trkpt><trkpt lat="46.05422757409182" lon="12.18106915375351"><ele>642.0</ele><time>2026-05-03T10:32:50.999Z</time></trkpt><trkpt lat="46.05431113123998" lon="12.180884056409388"><ele>642.0</ele><time>2026-05-03T10:32:51.999Z</time></trkpt><trkpt lat="46.05439101510497" lon="12.180702020708061"><ele>642.0</ele><time>2026-05-03T10:32:52.999Z</time></trkpt><trkpt lat="46.054468725484156" lon="12.180530227037869"><ele>642.0</ele><time>2026-05-03T10:32:53.999Z</time></trkpt><trkpt lat="46.05455141366812" lon="12.180379590592404"><ele>642.0</ele><time>2026-05-03T10:32:54.999Z</time></trkpt><trkpt lat="46.05466368342157" lon="12.180265888011045"><ele>641.75</ele><time>2026-05-03T10:32:55.999Z</time></trkpt><trkpt lat="46.05480324637824" lon="12.18019166564756"><ele>641.5</ele><time>2026-05-03T10:32:56.999Z</time></trkpt><trkpt lat="46.05494906705287" lon="12.180145922877681"><ele>641.25</ele><time>2026-05-03T10:32:57.999Z</time></trkpt><trkpt lat="46.05509621798633" lon="12.180103146888149"><ele>641.0</ele><time>2026-05-03T10:32:58.999Z</time></trkpt><trkpt lat="46.05523508013571" lon="12.180042918071123"><ele>641.0</ele><time>2026-05-03T10:32:59.999Z</time></trkpt><trkpt lat="46.05535562826696" lon="12.179938576033624"><ele>641.0</ele><time>2026-05-03T10:33:00.999Z</time></trkpt><trkpt lat="46.05545836357872" lon="12.179786711232742"><ele>641.0</ele><time>2026-05-03T10:33:01.999Z</time></trkpt><trkpt lat="46.0555498574565" lon="12.17962001117591"><ele>641.0</ele><time>2026-05-03T10:33:02.999Z</time></trkpt><trkpt lat="46.05562755849285" lon="12.179468325261762"><ele>642.0</ele><time>2026-05-03T10:33:03.999Z</time></trkpt><trkpt lat="46.055689978049536" lon="12.179303285200515"><ele>643.0</ele><time>2026-05-03T10:33:04.999Z</time></trkpt><trkpt lat="46.05574119118066" lon="12.179112308748246"><ele>644.0</ele><time>2026-05-03T10:33:05.999Z</time></trkpt><trkpt lat="46.055796018419905" lon="12.178916249844706"><ele>645.0</ele><time>2026-05-03T10:33:06.999Z</time></trkpt><trkpt lat="46.055853536284566" lon="12.178724935244492"><ele>645.0</ele><time>2026-05-03T10:33:07.999Z</time></trkpt><trkpt lat="46.0559337446032" lon="12.178556859502237"><ele>645.0</ele><time>2026-05-03T10:33:08.999Z</time></trkpt><trkpt lat="46.05603123769598" lon="12.178404150675357"><ele>645.0</ele><time>2026-05-03T10:33:09.999Z</time></trkpt><trkpt lat="46.05613332851816" lon="12.178262283123857"><ele>645.0</ele><time>2026-05-03T10:33:10.999Z</time></trkpt><trkpt lat="46.05623342976375" lon="12.178113428571411"><ele>644.25</ele><time>2026-05-03T10:33:11.999Z</time></trkpt><trkpt lat="46.05633585579778" lon="12.177966983038106"><ele>643.5</ele><time>2026-05-03T10:33:12.999Z</time></trkpt><trkpt lat="46.05644327885074" lon="12.177833308790932"><ele>642.75</ele><time>2026-05-03T10:33:13.999Z</time></trkpt><trkpt lat="46.0565556010356" lon="12.177700331056666"><ele>642.0</ele><time>2026-05-03T10:33:14.999Z</time></trkpt><trkpt lat="46.05667762827588" lon="12.177569341968091"><ele>642.0</ele><time>2026-05-03T10:33:15.999Z</time></trkpt><trkpt lat="46.056803767061545" lon="12.17742933012378"><ele>642.0</ele><time>2026-05-03T10:33:16.999Z</time></trkpt><trkpt lat="46.056926132234544" lon="12.177294201010831"><ele>642.0</ele><time>2026-05-03T10:33:17.999Z</time></trkpt><trkpt lat="46.05704969826172" lon="12.17716875275615"><ele>645.3333333333334</ele><time>2026-05-03T10:33:18.999Z</time></trkpt><trkpt lat="46.05717322016405" lon="12.177050191624286"><ele>648.6666666666667</ele><time>2026-05-03T10:33:19.999Z</time></trkpt><trkpt lat="46.05729576226269" lon="12.176923217301105"><ele>652.0</ele><time>2026-05-03T10:33:20.999Z</time></trkpt><trkpt lat="46.05742504790248" lon="12.176798845034286"><ele>649.0</ele><time>2026-05-03T10:33:21.999Z</time></trkpt><trkpt lat="46.05755697491849" lon="12.17667481600658"><ele>646.0</ele><time>2026-05-03T10:33:22.999Z</time></trkpt><trkpt lat="46.05768295089009" lon="12.17655494775609"><ele>643.0</ele><time>2026-05-03T10:33:23.999Z</time></trkpt><trkpt lat="46.057811136678" lon="12.17643502215145"><ele>643.0</ele><time>2026-05-03T10:33:24.999Z</time></trkpt><trkpt lat="46.05793785139878" lon="12.176311148983542"><ele>643.0</ele><time>2026-05-03T10:33:25.999Z</time></trkpt><trkpt lat="46.05819661375585" lon="12.17605188042839"><ele>638.6666666666667</ele><time>2026-05-03T10:33:27.999Z</time></trkpt><trkpt lat="46.05832395454062" lon="12.175924347038986"><ele>634.3333333333334</ele><time>2026-05-03T10:33:28.999Z</time></trkpt><trkpt lat="46.05845703686571" lon="12.17580526548067"><ele>630.0</ele><time>2026-05-03T10:33:29.999Z</time></trkpt><trkpt lat="46.058595244474006" lon="12.175693538253968"><ele>630.0</ele><time>2026-05-03T10:33:30.999Z</time></trkpt><trkpt lat="46.05873443550439" lon="12.17559664537198"><ele>630.0</ele><time>2026-05-03T10:33:31.999Z</time></trkpt><trkpt lat="46.05886375202819" lon="12.175508281758576"><ele>630.0</ele><time>2026-05-03T10:33:32.999Z</time></trkpt><trkpt lat="46.05898984903399" lon="12.17543070327759"><ele>630.0</ele><time>2026-05-03T10:33:33.999Z</time></trkpt><trkpt lat="46.05912062593446" lon="12.175378833570857"><ele>629.5</ele><time>2026-05-03T10:33:34.999Z</time></trkpt><trkpt lat="46.059253450028436" lon="12.175329616324344"><ele>629.0</ele><time>2026-05-03T10:33:35.998Z</time></trkpt><trkpt lat="46.05938010791751" lon="12.175231463032523"><ele>628.5</ele><time>2026-05-03T10:33:36.998Z</time></trkpt><trkpt lat="46.05949844425205" lon="12.175106751188245"><ele>628.0</ele><time>2026-05-03T10:33:37.998Z</time></trkpt><trkpt lat="46.05960223803919" lon="12.17498406546078"><ele>628.0</ele><time>2026-05-03T10:33:38.998Z</time></trkpt><trkpt lat="46.059698593223914" lon="12.174872774155507"><ele>628.0</ele><time>2026-05-03T10:33:39.999Z</time></trkpt><trkpt lat="46.059781094546345" lon="12.174769525851893"><ele>628.0</ele><time>2026-05-03T10:33:40.999Z</time></trkpt><trkpt lat="46.05984431817442" lon="12.174671152798027"><ele>628.0</ele><time>2026-05-03T10:33:41.999Z</time></trkpt><trkpt lat="46.05988642928672" lon="12.174546680054323"><ele>628.0</ele><time>2026-05-03T10:33:42.999Z</time></trkpt><trkpt lat="46.059890252925804" lon="12.174374839301024"><ele>628.0</ele><time>2026-05-03T10:33:43.999Z</time></trkpt><trkpt lat="46.059862090674905" lon="12.17418397900088"><ele>628.0</ele><time>2026-05-03T10:33:44.999Z</time></trkpt><trkpt lat="46.05983076178576" lon="12.173981326344471"><ele>628.0</ele><time>2026-05-03T10:33:45.999Z</time></trkpt><trkpt lat="46.059815323574895" lon="12.173752178948225"><ele>628.0</ele><time>2026-05-03T10:33:46.999Z</time></trkpt><trkpt lat="46.05980366903309" lon="12.17350879380401"><ele>628.3333333333334</ele><time>2026-05-03T10:33:47.999Z</time></trkpt><trkpt lat="46.05978702192323" lon="12.173264644246425"><ele>628.6666666666666</ele><time>2026-05-03T10:33:48.999Z</time></trkpt><trkpt lat="46.05977032728659" lon="12.17301505267927"><ele>629.0</ele><time>2026-05-03T10:33:49.999Z</time></trkpt><trkpt lat="46.05975073062669" lon="12.172765580266052"><ele>628.3333333333333</ele><time>2026-05-03T10:33:50.999Z</time></trkpt><trkpt lat="46.05972519298163" lon="12.172534060435057"><ele>627.6666666666666</ele><time>2026-05-03T10:33:51.999Z</time></trkpt><trkpt lat="46.05970880690703" lon="12.172321925749698"><ele>627.0</ele><time>2026-05-03T10:33:52.999Z</time></trkpt><trkpt lat="46.059700364218905" lon="12.172115928271618"><ele>626.0</ele><time>2026-05-03T10:33:53.999Z</time></trkpt><trkpt lat="46.05970607315249" lon="12.171918015347929"><ele>625.0</ele><time>2026-05-03T10:33:54.999Z</time></trkpt><trkpt lat="46.059722651799554" lon="12.171729896045864"><ele>624.0</ele><time>2026-05-03T10:33:55.999Z</time></trkpt><trkpt lat="46.05975297095479" lon="12.171558431753244"><ele>623.0</ele><time>2026-05-03T10:33:56.999Z</time></trkpt><trkpt lat="46.05978477764046" lon="12.17137461840366"><ele>621.0</ele><time>2026-05-03T10:33:57.999Z</time></trkpt><trkpt lat="46.05979380932547" lon="12.171189854081032"><ele>619.0</ele><time>2026-05-03T10:33:58.999Z</time></trkpt><trkpt lat="46.05978216619314" lon="12.171006466353587"><ele>617.0</ele><time>2026-05-03T10:33:59.999Z</time></trkpt><trkpt lat="46.059770997910974" lon="12.170834516327623"><ele>615.0</ele><time>2026-05-03T10:34:00.999Z</time></trkpt><trkpt lat="46.059757453321915" lon="12.17068730722635"><ele>613.8</ele><time>2026-05-03T10:34:01.999Z</time></trkpt><trkpt lat="46.05974315436353" lon="12.170555167302322"><ele>612.6</ele><time>2026-05-03T10:34:02.999Z</time></trkpt><trkpt lat="46.059738794801106" lon="12.170451281953305"><ele>611.4</ele><time>2026-05-03T10:34:03.999Z</time></trkpt><trkpt lat="46.05973608364704" lon="12.170324370602282"><ele>610.2</ele><time>2026-05-03T10:34:05.999Z</time></trkpt><trkpt lat="46.059602448882515" lon="12.170392996201478"><ele>609.0</ele><time>2026-05-03T10:34:10.999Z</time></trkpt><trkpt lat="46.05953784560677" lon="12.170478854070849"><ele>609.0</ele><time>2026-05-03T10:34:11.999Z</time></trkpt><trkpt lat="46.059452893874166" lon="12.170524489398264"><ele>609.0</ele><time>2026-05-03T10:34:12.999Z</time></trkpt><trkpt lat="46.059373159375774" lon="12.17060760558142"><ele>609.0</ele><time>2026-05-03T10:34:13.999Z</time></trkpt><trkpt lat="46.05926607521069" lon="12.170691844530987"><ele>609.0</ele><time>2026-05-03T10:34:14.999Z</time></trkpt><trkpt lat="46.05915556694475" lon="12.170778949547845"><ele>609.0</ele><time>2026-05-03T10:34:15.999Z</time></trkpt><trkpt lat="46.05905436593653" lon="12.170867666959818"><ele>612.5</ele><time>2026-05-03T10:34:16.999Z</time></trkpt><trkpt lat="46.058945225360546" lon="12.170967880344735"><ele>616.0</ele><time>2026-05-03T10:34:17.999Z</time></trkpt><trkpt lat="46.05882745571856" lon="12.171063654650323"><ele>619.5</ele><time>2026-05-03T10:34:18.999Z</time></trkpt><trkpt lat="46.05870493777672" lon="12.171162665608467"><ele>623.0</ele><time>2026-05-03T10:34:19.999Z</time></trkpt><trkpt lat="46.05859864558011" lon="12.171244472790704"><ele>623.0</ele><time>2026-05-03T10:34:20.999Z</time></trkpt><trkpt lat="46.05850613379876" lon="12.171305927767243"><ele>623.0</ele><time>2026-05-03T10:34:21.999Z</time></trkpt><trkpt lat="46.05840226062597" lon="12.17132415639447"><ele>623.0</ele><time>2026-05-03T10:34:22.999Z</time></trkpt><trkpt lat="46.05831327581376" lon="12.17123337786"><ele>623.0</ele><time>2026-05-03T10:34:23.999Z</time></trkpt><trkpt lat="46.05824404452314" lon="12.171128379987353"><ele>623.0</ele><time>2026-05-03T10:34:24.999Z</time></trkpt><trkpt lat="46.05816839476026" lon="12.170998664248316"><ele>624.0</ele><time>2026-05-03T10:34:25.999Z</time></trkpt><trkpt lat="46.058076683413155" lon="12.170848821731477"><ele>625.0</ele><time>2026-05-03T10:34:26.999Z</time></trkpt><trkpt lat="46.057972649852836" lon="12.170723403315245"><ele>626.0</ele><time>2026-05-03T10:34:27.999Z</time></trkpt><trkpt lat="46.05785809822519" lon="12.170598611226048"><ele>627.0</ele><time>2026-05-03T10:34:28.999Z</time></trkpt><trkpt lat="46.05772313249575" lon="12.1705123940705"><ele>627.0</ele><time>2026-05-03T10:34:29.999Z</time></trkpt><trkpt lat="46.057574387180296" lon="12.170475174178778"><ele>627.0</ele><time>2026-05-03T10:34:30.999Z</time></trkpt><trkpt lat="46.0574233302974" lon="12.170471127389604"><ele>627.0</ele><time>2026-05-03T10:34:31.999Z</time></trkpt><trkpt lat="46.05727511770319" lon="12.170491437057045"><ele>628.3333333333334</ele><time>2026-05-03T10:34:32.999Z</time></trkpt><trkpt lat="46.05711664349562" lon="12.170499710163588"><ele>629.6666666666667</ele><time>2026-05-03T10:34:33.999Z</time></trkpt><trkpt lat="46.05695800652319" lon="12.17049533112727"><ele>631.0</ele><time>2026-05-03T10:34:34.999Z</time></trkpt><trkpt lat="46.05679647800632" lon="12.170491678234887"><ele>631.0</ele><time>2026-05-03T10:34:35.999Z</time></trkpt><trkpt lat="46.05663289548346" lon="12.1704965768762"><ele>631.0</ele><time>2026-05-03T10:34:36.999Z</time></trkpt><trkpt lat="46.056466493377634" lon="12.170494055956397"><ele>631.0</ele><time>2026-05-03T10:34:37.999Z</time></trkpt><trkpt lat="46.05629801759624" lon="12.1704876791637"><ele>633.0</ele><time>2026-05-03T10:34:38.999Z</time></trkpt><trkpt lat="46.05613768114908" lon="12.170485803091898"><ele>635.0</ele><time>2026-05-03T10:34:39.999Z</time></trkpt><trkpt lat="46.055974579448936" lon="12.170489129731765"><ele>637.0</ele><time>2026-05-03T10:34:40.999Z</time></trkpt><trkpt lat="46.05581555163708" lon="12.17049582790287"><ele>637.75</ele><time>2026-05-03T10:34:41.999Z</time></trkpt><trkpt lat="46.055660439250225" lon="12.17051401696383"><ele>638.5</ele><time>2026-05-03T10:34:42.999Z</time></trkpt><trkpt lat="46.05551852325873" lon="12.170566163397236"><ele>639.25</ele><time>2026-05-03T10:34:43.999Z</time></trkpt><trkpt lat="46.055395588527176" lon="12.170653110178659"><ele>640.0</ele><time>2026-05-03T10:34:44.999Z</time></trkpt><trkpt lat="46.05529166590066" lon="12.170773194250648"><ele>642.0</ele><time>2026-05-03T10:34:45.999Z</time></trkpt><trkpt lat="46.05521070746641" lon="12.170918781936148"><ele>644.0</ele><time>2026-05-03T10:34:46.999Z</time></trkpt><trkpt lat="46.05514178935566" lon="12.17106917343883"><ele>646.0</ele><time>2026-05-03T10:34:47.999Z</time></trkpt><trkpt lat="46.05505314282335" lon="12.171180246635434"><ele>648.0</ele><time>2026-05-03T10:34:48.999Z</time></trkpt><trkpt lat="46.0549584083622" lon="12.171259560255853"><ele>648.0</ele><time>2026-05-03T10:34:49.999Z</time></trkpt><trkpt lat="46.05487363832434" lon="12.171307470907625"><ele>648.0</ele><time>2026-05-03T10:34:50.999Z</time></trkpt><trkpt lat="46.05479617709575" lon="12.171364576800915"><ele>648.0</ele><time>2026-05-03T10:34:52.999Z</time></trkpt><trkpt lat="46.054726275118384" lon="12.171199758630351"><ele>648.0</ele><time>2026-05-03T10:34:55.999Z</time></trkpt><trkpt lat="46.054663218677284" lon="12.171099768299378"><ele>648.0</ele><time>2026-05-03T10:34:56.999Z</time></trkpt><trkpt lat="46.054609410760406" lon="12.17095221653341"><ele>648.0</ele><time>2026-05-03T10:34:57.999Z</time></trkpt><trkpt lat="46.054546679888006" lon="12.170797633474503"><ele>648.0</ele><time>2026-05-03T10:34:58.999Z</time></trkpt><trkpt lat="46.054487330247056" lon="12.170662398350476"><ele>648.0</ele><time>2026-05-03T10:34:59.999Z</time></trkpt><trkpt lat="46.05440952447612" lon="12.170536143707762"><ele>648.0</ele><time>2026-05-03T10:35:00.999Z</time></trkpt><trkpt lat="46.054313100217854" lon="12.170453026604786"><ele>648.0</ele><time>2026-05-03T10:35:01.999Z</time></trkpt><trkpt lat="46.054185985455014" lon="12.1704037186515"><ele>648.0</ele><time>2026-05-03T10:35:02.999Z</time></trkpt><trkpt lat="46.05404734177171" lon="12.17037056042684"><ele>648.0</ele><time>2026-05-03T10:35:03.999Z</time></trkpt><trkpt lat="46.053927988942654" lon="12.170304748207652"><ele>648.0</ele><time>2026-05-03T10:35:04.999Z</time></trkpt><trkpt lat="46.0538116198028" lon="12.170270470006392"><ele>648.0</ele><time>2026-05-03T10:35:05.999Z</time></trkpt><trkpt lat="46.05371578189729" lon="12.170165160088994"><ele>648.0</ele><time>2026-05-03T10:35:06.999Z</time></trkpt><trkpt lat="46.05362388462243" lon="12.17006027258103"><ele>648.0</ele><time>2026-05-03T10:35:07.999Z</time></trkpt><trkpt lat="46.05354058205495" lon="12.169957234340483"><ele>648.0</ele><time>2026-05-03T10:35:08.999Z</time></trkpt><trkpt lat="46.05346820351976" lon="12.169856452128279"><ele>648.0</ele><time>2026-05-03T10:35:09.999Z</time></trkpt><trkpt lat="46.05342740478872" lon="12.169761403935958"><ele>648.0</ele><time>2026-05-03T10:35:10.999Z</time></trkpt><trkpt lat="46.05340944046449" lon="12.169671774639934"><ele>648.0</ele><time>2026-05-03T10:35:11.999Z</time></trkpt><trkpt lat="46.05345943798529" lon="12.169600260455391"><ele>648.0</ele><time>2026-05-03T10:35:12.999Z</time></trkpt><trkpt lat="46.05352778321147" lon="12.169600490652083"><ele>648.0</ele><time>2026-05-03T10:35:13.999Z</time></trkpt><trkpt lat="46.05359894442662" lon="12.169665171887093"><ele>648.0</ele><time>2026-05-03T10:35:14.999Z</time></trkpt><trkpt lat="46.05370860416926" lon="12.169710699548865"><ele>648.0</ele><time>2026-05-03T10:35:15.999Z</time></trkpt><trkpt lat="46.05383437758976" lon="12.169775523415234"><ele>648.0</ele><time>2026-05-03T10:35:16.999Z</time></trkpt><trkpt lat="46.05396742388805" lon="12.169808264600274"><ele>648.0</ele><time>2026-05-03T10:35:17.999Z</time></trkpt><trkpt lat="46.05410955941948" lon="12.169788717235875"><ele>648.0</ele><time>2026-05-03T10:35:18.999Z</time></trkpt><trkpt lat="46.05424870631123" lon="12.169707996272583"><ele>648.0</ele><time>2026-05-03T10:35:19.999Z</time></trkpt><trkpt lat="46.05438143848396" lon="12.16959139933422"><ele>647.0</ele><time>2026-05-03T10:35:20.999Z</time></trkpt><trkpt lat="46.05448301297522" lon="12.169453371148144"><ele>646.0</ele><time>2026-05-03T10:35:21.999Z</time></trkpt><trkpt lat="46.05454588421604" lon="12.169335272290486"><ele>645.0</ele><time>2026-05-03T10:35:22.999Z</time></trkpt><trkpt lat="46.05458005719757" lon="12.169166901067703"><ele>644.0</ele><time>2026-05-03T10:35:23.999Z</time></trkpt><trkpt lat="46.054582176475954" lon="12.168966070228224"><ele>642.75</ele><time>2026-05-03T10:35:24.999Z</time></trkpt><trkpt lat="46.054582444127114" lon="12.168759867960922"><ele>641.5</ele><time>2026-05-03T10:35:25.999Z</time></trkpt><trkpt lat="46.05459613651821" lon="12.1685986263111"><ele>640.25</ele><time>2026-05-03T10:35:26.999Z</time></trkpt><trkpt lat="46.05460466251842" lon="12.168454617276126"><ele>639.0</ele><time>2026-05-03T10:35:27.999Z</time></trkpt><trkpt lat="46.054590226771715" lon="12.168291575050269"><ele>637.5</ele><time>2026-05-03T10:35:28.999Z</time></trkpt><trkpt lat="46.05454388205669" lon="12.168117522356507"><ele>636.0</ele><time>2026-05-03T10:35:29.999Z</time></trkpt><trkpt lat="46.054500935766995" lon="12.167936644946645"><ele>634.5</ele><time>2026-05-03T10:35:30.999Z</time></trkpt><trkpt lat="46.05445830022769" lon="12.167752027889344"><ele>633.0</ele><time>2026-05-03T10:35:31.999Z</time></trkpt><trkpt lat="46.054447671811076" lon="12.167560112418064"><ele>633.0</ele><time>2026-05-03T10:35:32.999Z</time></trkpt><trkpt lat="46.05445675160707" lon="12.167392751992818"><ele>633.0</ele><time>2026-05-03T10:35:33.999Z</time></trkpt><trkpt lat="46.054481793485905" lon="12.167217686516576"><ele>633.0</ele><time>2026-05-03T10:35:34.999Z</time></trkpt><trkpt lat="46.05450228308941" lon="12.167041802317128"><ele>633.0</ele><time>2026-05-03T10:35:35.999Z</time></trkpt><trkpt lat="46.05450731719046" lon="12.166862761936398"><ele>632.25</ele><time>2026-05-03T10:35:36.999Z</time></trkpt><trkpt lat="46.054507967585224" lon="12.166681997831306"><ele>631.5</ele><time>2026-05-03T10:35:37.999Z</time></trkpt><trkpt lat="46.05449847974182" lon="12.166513518521565"><ele>630.75</ele><time>2026-05-03T10:35:38.999Z</time></trkpt><trkpt lat="46.05447683786941" lon="12.166352539189722"><ele>630.0</ele><time>2026-05-03T10:35:39.999Z</time></trkpt><trkpt lat="46.05444835727049" lon="12.166224561800044"><ele>630.2</ele><time>2026-05-03T10:35:40.999Z</time></trkpt><trkpt lat="46.054403047920076" lon="12.16612800572343"><ele>630.4</ele><time>2026-05-03T10:35:41.999Z</time></trkpt><trkpt lat="46.05433203954223" lon="12.166063050199245"><ele>630.6</ele><time>2026-05-03T10:35:42.999Z</time></trkpt><trkpt lat="46.054226258264904" lon="12.166040576166797"><ele>630.8</ele><time>2026-05-03T10:35:43.999Z</time></trkpt><trkpt lat="46.054111965484445" lon="12.166072605571816"><ele>631.0</ele><time>2026-05-03T10:35:44.999Z</time></trkpt><trkpt lat="46.05400176801996" lon="12.166150847170865"><ele>631.0</ele><time>2026-05-03T10:35:45.999Z</time></trkpt><trkpt lat="46.05391834799876" lon="12.166209519251902"><ele>631.0</ele><time>2026-05-03T10:35:46.999Z</time></trkpt><trkpt lat="46.05384515396999" lon="12.166205750328192"><ele>631.0</ele><time>2026-05-03T10:35:47.999Z</time></trkpt><trkpt lat="46.05374978426574" lon="12.16613546331108"><ele>631.0</ele><time>2026-05-03T10:35:49.999Z</time></trkpt><trkpt lat="46.053777171311665" lon="12.166010695257352"><ele>631.0</ele><time>2026-05-03T10:35:50.999Z</time></trkpt><trkpt lat="46.05382479210246" lon="12.165912018615147"><ele>631.0</ele><time>2026-05-03T10:35:51.999Z</time></trkpt><trkpt lat="46.053895554879226" lon="12.165805419134173"><ele>631.75</ele><time>2026-05-03T10:35:52.999Z</time></trkpt><trkpt lat="46.053959424016924" lon="12.165644243334246"><ele>632.5</ele><time>2026-05-03T10:35:53.999Z</time></trkpt><trkpt lat="46.054029759607474" lon="12.165493710304746"><ele>633.25</ele><time>2026-05-03T10:35:54.999Z</time></trkpt><trkpt lat="46.05410817057948" lon="12.165344769802733"><ele>634.0</ele><time>2026-05-03T10:35:55.999Z</time></trkpt><trkpt lat="46.05417364886272" lon="12.165209776545293"><ele>633.6</ele><time>2026-05-03T10:35:56.999Z</time></trkpt><trkpt lat="46.054223541396375" lon="12.165081786558149"><ele>633.2</ele><time>2026-05-03T10:35:57.999Z</time></trkpt><trkpt lat="46.05423419475867" lon="12.164925877228502"><ele>632.8000000000001</ele><time>2026-05-03T10:35:58.999Z</time></trkpt><trkpt lat="46.05420624932737" lon="12.16474845673321"><ele>632.4</ele><time>2026-05-03T10:35:59.999Z</time></trkpt><trkpt lat="46.05414527541728" lon="12.164642665050275"><ele>632.0</ele><time>2026-05-03T10:36:00.999Z</time></trkpt><trkpt lat="46.05408283871899" lon="12.164402286247176"><ele>632.0</ele><time>2026-05-03T10:36:01.999Z</time></trkpt><trkpt lat="46.05401938613152" lon="12.164191938940759"><ele>632.0</ele><time>2026-05-03T10:36:02.999Z</time></trkpt><trkpt lat="46.053951494441264" lon="12.16398139620794"><ele>632.0</ele><time>2026-05-03T10:36:03.999Z</time></trkpt><trkpt lat="46.05389208917647" lon="12.163776770843619"><ele>630.5</ele><time>2026-05-03T10:36:04.999Z</time></trkpt><trkpt lat="46.05383111441345" lon="12.163574059888607"><ele>629.0</ele><time>2026-05-03T10:36:05.999Z</time></trkpt><trkpt lat="46.05376898581621" lon="12.163375974311467"><ele>627.5</ele><time>2026-05-03T10:36:06.999Z</time></trkpt><trkpt lat="46.05375661741848" lon="12.163182653643007"><ele>626.0</ele><time>2026-05-03T10:36:07.999Z</time></trkpt><trkpt lat="46.053765167169956" lon="12.163008048691125"><ele>625.75</ele><time>2026-05-03T10:36:08.999Z</time></trkpt><trkpt lat="46.05379244004259" lon="12.162819368044197"><ele>625.5</ele><time>2026-05-03T10:36:09.999Z</time></trkpt><trkpt lat="46.05381908804956" lon="12.16260783734099"><ele>625.25</ele><time>2026-05-03T10:36:10.999Z</time></trkpt><trkpt lat="46.05380713824891" lon="12.162414323282436"><ele>625.0</ele><time>2026-05-03T10:36:11.999Z</time></trkpt><trkpt lat="46.05377163331333" lon="12.162241297826586"><ele>624.6</ele><time>2026-05-03T10:36:12.999Z</time></trkpt><trkpt lat="46.053723014216644" lon="12.162088107853261"><ele>624.2</ele><time>2026-05-03T10:36:13.999Z</time></trkpt><trkpt lat="46.053748697700335" lon="12.161941895987809"><ele>623.8</ele><time>2026-05-03T10:36:14.999Z</time></trkpt><trkpt lat="46.05380685682484" lon="12.161826537545352"><ele>623.4</ele><time>2026-05-03T10:36:16Z</time></trkpt><trkpt lat="46.0539098093308" lon="12.161785915424753"><ele>623.0</ele><time>2026-05-03T10:36:17Z</time></trkpt><trkpt lat="46.054027537248125" lon="12.161712992033983"><ele>621.3333333333333</ele><time>2026-05-03T10:36:18Z</time></trkpt><trkpt lat="46.05415447345028" lon="12.161612928137572"><ele>619.6666666666666</ele><time>2026-05-03T10:36:19Z</time></trkpt><trkpt lat="46.05429704396981" lon="12.161525958703459"><ele>618.0</ele><time>2026-05-03T10:36:20Z</time></trkpt><trkpt lat="46.05444378900059" lon="12.161422919166544"><ele>617.3333333333334</ele><time>2026-05-03T10:36:21Z</time></trkpt><trkpt lat="46.054585731109796" lon="12.161317916350827"><ele>616.6666666666667</ele><time>2026-05-03T10:36:22Z</time></trkpt><trkpt lat="46.05473267447567" lon="12.161210128195385"><ele>616.0</ele><time>2026-05-03T10:36:23Z</time></trkpt><trkpt lat="46.05487651285752" lon="12.161086218278419"><ele>616.0</ele><time>2026-05-03T10:36:24Z</time></trkpt><trkpt lat="46.055007688268" lon="12.160963168863047"><ele>616.0</ele><time>2026-05-03T10:36:25Z</time></trkpt><trkpt lat="46.055118514640995" lon="12.160832671095639"><ele>616.0</ele><time>2026-05-03T10:36:26Z</time></trkpt><trkpt lat="46.055207198935776" lon="12.160673762250507"><ele>616.0</ele><time>2026-05-03T10:36:27Z</time></trkpt><trkpt lat="46.05527382563863" lon="12.160495445197904"><ele>616.0</ele><time>2026-05-03T10:36:28Z</time></trkpt><trkpt lat="46.05532423477567" lon="12.160302650616156"><ele>616.0</ele><time>2026-05-03T10:36:29Z</time></trkpt><trkpt lat="46.0554148185416" lon="12.160165261933473"><ele>616.0</ele><time>2026-05-03T10:36:30Z</time></trkpt><trkpt lat="46.05552247210918" lon="12.160060181786227"><ele>616.0</ele><time>2026-05-03T10:36:31Z</time></trkpt><trkpt lat="46.05562809568478" lon="12.159961265437872"><ele>616.25</ele><time>2026-05-03T10:36:32Z</time></trkpt><trkpt lat="46.05573456152879" lon="12.159858060600662"><ele>616.5</ele><time>2026-05-03T10:36:33Z</time></trkpt><trkpt lat="46.05582622968838" lon="12.159733475415814"><ele>616.75</ele><time>2026-05-03T10:36:34Z</time></trkpt><trkpt lat="46.05592059937464" lon="12.159608639147997"><ele>617.0</ele><time>2026-05-03T10:36:35Z</time></trkpt><trkpt lat="46.05599074442935" lon="12.159460203590017"><ele>615.4</ele><time>2026-05-03T10:36:36Z</time></trkpt><trkpt lat="46.05604782665328" lon="12.159335083525288"><ele>613.8000000000001</ele><time>2026-05-03T10:36:37Z</time></trkpt><trkpt lat="46.05611007916473" lon="12.15924589315441"><ele>612.2</ele><time>2026-05-03T10:36:38Z</time></trkpt><trkpt lat="46.056198189041524" lon="12.159194476641938"><ele>610.6</ele><time>2026-05-03T10:36:39Z</time></trkpt><trkpt lat="46.056300634407265" lon="12.159193992298983"><ele>609.0</ele><time>2026-05-03T10:36:40Z</time></trkpt><trkpt lat="46.05638919627003" lon="12.159310328628044"><ele>609.0</ele><time>2026-05-03T10:36:41Z</time></trkpt><trkpt lat="46.05649191435134" lon="12.159343773662487"><ele>609.0</ele><time>2026-05-03T10:36:42Z</time></trkpt><trkpt lat="46.05657366919522" lon="12.15939649689207"><ele>609.0</ele><time>2026-05-03T10:36:43Z</time></trkpt><trkpt lat="46.05666081285436" lon="12.159420939098062"><ele>609.0</ele><time>2026-05-03T10:36:44Z</time></trkpt><trkpt lat="46.05675043324588" lon="12.159411953605444"><ele>609.0</ele><time>2026-05-03T10:36:45Z</time></trkpt><trkpt lat="46.05683350900009" lon="12.159348162314963"><ele>607.75</ele><time>2026-05-03T10:36:46Z</time></trkpt><trkpt lat="46.0568984994867" lon="12.159229560230228"><ele>606.5</ele><time>2026-05-03T10:36:47Z</time></trkpt><trkpt lat="46.056941758537775" lon="12.159072184066"><ele>605.25</ele><time>2026-05-03T10:36:48Z</time></trkpt><trkpt lat="46.05695431677595" lon="12.158880989124087"><ele>604.0</ele><time>2026-05-03T10:36:49Z</time></trkpt><trkpt lat="46.056953781079486" lon="12.158689005688961"><ele>604.0</ele><time>2026-05-03T10:36:50Z</time></trkpt><trkpt lat="46.0569461797682" lon="12.158489617652071"><ele>604.0</ele><time>2026-05-03T10:36:51Z</time></trkpt><trkpt lat="46.05696138397751" lon="12.15829455392237"><ele>604.0</ele><time>2026-05-03T10:36:52Z</time></trkpt><trkpt lat="46.057004208534295" lon="12.158123160021212"><ele>604.0</ele><time>2026-05-03T10:36:53Z</time></trkpt><trkpt lat="46.057043008586454" lon="12.15796489007112"><ele>602.6</ele><time>2026-05-03T10:36:54Z</time></trkpt><trkpt lat="46.05707188578509" lon="12.157836892066603"><ele>601.2</ele><time>2026-05-03T10:36:55Z</time></trkpt><trkpt lat="46.05710045179056" lon="12.157735017843466"><ele>599.8000000000001</ele><time>2026-05-03T10:36:56Z</time></trkpt><trkpt lat="46.05716801699305" lon="12.157661924464703"><ele>598.4</ele><time>2026-05-03T10:36:58Z</time></trkpt><trkpt lat="46.0572669605719" lon="12.157762399829705"><ele>597.0</ele><time>2026-05-03T10:37:00Z</time></trkpt><trkpt lat="46.05731478930043" lon="12.157907820556744"><ele>597.0</ele><time>2026-05-03T10:37:01Z</time></trkpt><trkpt lat="46.057370389797406" lon="12.158060446498725"><ele>597.0</ele><time>2026-05-03T10:37:02Z</time></trkpt><trkpt lat="46.057430964629916" lon="12.158208674557795"><ele>597.0</ele><time>2026-05-03T10:37:03Z</time></trkpt><trkpt lat="46.05749338131747" lon="12.158360309002523"><ele>597.0</ele><time>2026-05-03T10:37:04Z</time></trkpt><trkpt lat="46.05754733967677" lon="12.15849121565379"><ele>594.4</ele><time>2026-05-03T10:37:05Z</time></trkpt><trkpt lat="46.05759697745034" lon="12.158580390378365"><ele>591.8000000000001</ele><time>2026-05-03T10:37:06Z</time></trkpt><trkpt lat="46.05766793668521" lon="12.158629580916026"><ele>589.2</ele><time>2026-05-03T10:37:07Z</time></trkpt><trkpt lat="46.05775366053838" lon="12.158608297517844"><ele>586.6</ele><time>2026-05-03T10:37:08Z</time></trkpt><trkpt lat="46.05782472663365" lon="12.158506300834842"><ele>584.0</ele><time>2026-05-03T10:37:09Z</time></trkpt><trkpt lat="46.057873513049785" lon="12.158348708975012"><ele>583.0</ele><time>2026-05-03T10:37:10Z</time></trkpt><trkpt lat="46.057913956454364" lon="12.158172479975779"><ele>582.0</ele><time>2026-05-03T10:37:11Z</time></trkpt><trkpt lat="46.05796387270354" lon="12.15798301938186"><ele>581.0</ele><time>2026-05-03T10:37:12Z</time></trkpt><trkpt lat="46.058020435985476" lon="12.157793606028143"><ele>580.0</ele><time>2026-05-03T10:37:13Z</time></trkpt><trkpt lat="46.05806624817224" lon="12.157616549234351"><ele>580.0</ele><time>2026-05-03T10:37:14Z</time></trkpt><trkpt lat="46.058102329403994" lon="12.157446627983655"><ele>580.0</ele><time>2026-05-03T10:37:15Z</time></trkpt><trkpt lat="46.058113590089405" lon="12.157256713246666"><ele>580.0</ele><time>2026-05-03T10:37:16Z</time></trkpt><trkpt lat="46.05810436228234" lon="12.157067243829083"><ele>580.0</ele><time>2026-05-03T10:37:17Z</time></trkpt><trkpt lat="46.05810810555654" lon="12.156867686313856"><ele>579.25</ele><time>2026-05-03T10:37:18Z</time></trkpt><trkpt lat="46.05816866926623" lon="12.156686679755818"><ele>578.5</ele><time>2026-05-03T10:37:19Z</time></trkpt><trkpt lat="46.05826072364747" lon="12.156532809250631"><ele>577.75</ele><time>2026-05-03T10:37:20Z</time></trkpt><trkpt lat="46.058315475232455" lon="12.156339459320431"><ele>577.0</ele><time>2026-05-03T10:37:21Z</time></trkpt><trkpt lat="46.058386237301335" lon="12.156163578331496"><ele>574.25</ele><time>2026-05-03T10:37:22Z</time></trkpt><trkpt lat="46.058433777601664" lon="12.155977960673592"><ele>571.5</ele><time>2026-05-03T10:37:23Z</time></trkpt><trkpt lat="46.058476818087584" lon="12.155792771419408"><ele>568.75</ele><time>2026-05-03T10:37:24Z</time></trkpt><trkpt lat="46.05852113092979" lon="12.155605772225373"><ele>566.0</ele><time>2026-05-03T10:37:25Z</time></trkpt><trkpt lat="46.058566428788794" lon="12.155411804630361"><ele>566.0</ele><time>2026-05-03T10:37:26Z</time></trkpt><trkpt lat="46.058607923401794" lon="12.155203115184182"><ele>566.0</ele><time>2026-05-03T10:37:27Z</time></trkpt><trkpt lat="46.05864423835625" lon="12.154989392872917"><ele>566.0</ele><time>2026-05-03T10:37:28Z</time></trkpt><trkpt lat="46.05867931871472" lon="12.154779269232963"><ele>564.25</ele><time>2026-05-03T10:37:29Z</time></trkpt><trkpt lat="46.05871586840873" lon="12.154577986696063"><ele>562.5</ele><time>2026-05-03T10:37:30Z</time></trkpt><trkpt lat="46.058756904240994" lon="12.154378725112648"><ele>560.75</ele><time>2026-05-03T10:37:31Z</time></trkpt><trkpt lat="46.05882895208023" lon="12.154200192671857"><ele>559.0</ele><time>2026-05-03T10:37:32Z</time></trkpt><trkpt lat="46.05885893557802" lon="12.154000631974485"><ele>557.25</ele><time>2026-05-03T10:37:33Z</time></trkpt><trkpt lat="46.05889163365667" lon="12.153811814434155"><ele>555.5</ele><time>2026-05-03T10:37:34Z</time></trkpt><trkpt lat="46.05890766414379" lon="12.15362214686861"><ele>553.75</ele><time>2026-05-03T10:37:35Z</time></trkpt><trkpt lat="46.05894702109775" lon="12.153453623061418"><ele>552.0</ele><time>2026-05-03T10:37:36Z</time></trkpt><trkpt lat="46.059001766323476" lon="12.153285961461311"><ele>551.25</ele><time>2026-05-03T10:37:37Z</time></trkpt><trkpt lat="46.05906673949153" lon="12.15311362280127"><ele>550.5</ele><time>2026-05-03T10:37:38Z</time></trkpt><trkpt lat="46.0591300884114" lon="12.152916880538871"><ele>549.75</ele><time>2026-05-03T10:37:39Z</time></trkpt><trkpt lat="46.05920362160154" lon="12.152719860221906"><ele>549.0</ele><time>2026-05-03T10:37:40Z</time></trkpt><trkpt lat="46.059274537715645" lon="12.152521170410607"><ele>544.25</ele><time>2026-05-03T10:37:41Z</time></trkpt><trkpt lat="46.05934593674282" lon="12.152329956646753"><ele>539.5</ele><time>2026-05-03T10:37:42Z</time></trkpt><trkpt lat="46.05940760477232" lon="12.152139735221335"><ele>534.75</ele><time>2026-05-03T10:37:43Z</time></trkpt><trkpt lat="46.059464530208636" lon="12.151950853420004"><ele>530.0</ele><time>2026-05-03T10:37:44Z</time></trkpt><trkpt lat="46.05950626682846" lon="12.151765928686611"><ele>530.0</ele><time>2026-05-03T10:37:45Z</time></trkpt><trkpt lat="46.059535602883194" lon="12.151572163658777"><ele>530.0</ele><time>2026-05-03T10:37:46Z</time></trkpt><trkpt lat="46.05956424563085" lon="12.15138468929307"><ele>530.0</ele><time>2026-05-03T10:37:47Z</time></trkpt><trkpt lat="46.059596266724036" lon="12.151194570274937"><ele>530.0</ele><time>2026-05-03T10:37:48Z</time></trkpt><trkpt lat="46.05961480758609" lon="12.150996177733369"><ele>528.75</ele><time>2026-05-03T10:37:49Z</time></trkpt><trkpt lat="46.05962303817303" lon="12.150791603493328"><ele>527.5</ele><time>2026-05-03T10:37:50Z</time></trkpt><trkpt lat="46.059633294127906" lon="12.150597765803374"><ele>526.25</ele><time>2026-05-03T10:37:51Z</time></trkpt><trkpt lat="46.0596579805533" lon="12.150409743675892"><ele>525.0</ele><time>2026-05-03T10:37:52Z</time></trkpt><trkpt lat="46.05970457738447" lon="12.150245486153223"><ele>523.8</ele><time>2026-05-03T10:37:53Z</time></trkpt><trkpt lat="46.0597119530147" lon="12.150113413674239"><ele>522.6</ele><time>2026-05-03T10:37:54Z</time></trkpt><trkpt lat="46.05970671705283" lon="12.149987761159833"><ele>521.4</ele><time>2026-05-03T10:37:55Z</time></trkpt><trkpt lat="46.05965331439618" lon="12.149855809511388"><ele>520.2</ele><time>2026-05-03T10:37:56Z</time></trkpt><trkpt lat="46.05955995761292" lon="12.14972958718935"><ele>519.0</ele><time>2026-05-03T10:37:57Z</time></trkpt><trkpt lat="46.059468596617265" lon="12.149590426090748"><ele>516.25</ele><time>2026-05-03T10:37:58Z</time></trkpt><trkpt lat="46.05938504062765" lon="12.14945779480241"><ele>513.5</ele><time>2026-05-03T10:37:59Z</time></trkpt><trkpt lat="46.059312605748396" lon="12.149330604674562"><ele>510.75</ele><time>2026-05-03T10:38:00Z</time></trkpt><trkpt lat="46.05929482252365" lon="12.149170033371973"><ele>508.0</ele><time>2026-05-03T10:38:01Z</time></trkpt><trkpt lat="46.059277311692306" lon="12.148997921020461"><ele>507.5</ele><time>2026-05-03T10:38:02Z</time></trkpt><trkpt lat="46.05927264162752" lon="12.148844368610787"><ele>507.0</ele><time>2026-05-03T10:38:03Z</time></trkpt><trkpt lat="46.05929811516714" lon="12.148695817906523"><ele>506.5</ele><time>2026-05-03T10:38:04Z</time></trkpt><trkpt lat="46.05936781924644" lon="12.148559216243086"><ele>506.0</ele><time>2026-05-03T10:38:05Z</time></trkpt><trkpt lat="46.059418539288416" lon="12.148393266285009"><ele>504.5</ele><time>2026-05-03T10:38:06Z</time></trkpt><trkpt lat="46.059430389204756" lon="12.148203054207611"><ele>503.0</ele><time>2026-05-03T10:38:07Z</time></trkpt><trkpt lat="46.059418584302506" lon="12.148021959855829"><ele>501.5</ele><time>2026-05-03T10:38:08Z</time></trkpt><trkpt lat="46.059375153568716" lon="12.147858873415037"><ele>500.0</ele><time>2026-05-03T10:38:09Z</time></trkpt><trkpt lat="46.059294102387035" lon="12.147730040847762"><ele>500.0</ele><time>2026-05-03T10:38:10Z</time></trkpt><trkpt lat="46.05919820576649" lon="12.147597004062966"><ele>500.0</ele><time>2026-05-03T10:38:11Z</time></trkpt><trkpt lat="46.059128839490306" lon="12.147425254751088"><ele>500.0</ele><time>2026-05-03T10:38:12Z</time></trkpt><trkpt lat="46.05905226428518" lon="12.14724951250161"><ele>500.0</ele><time>2026-05-03T10:38:13Z</time></trkpt><trkpt lat="46.05897358027883" lon="12.147070450743051"><ele>500.0</ele><time>2026-05-03T10:38:14Z</time></trkpt><trkpt lat="46.05888797351058" lon="12.146899671774108"><ele>500.0</ele><time>2026-05-03T10:38:15Z</time></trkpt><trkpt lat="46.058784299587174" lon="12.146750735754017"><ele>500.0</ele><time>2026-05-03T10:38:16Z</time></trkpt><trkpt lat="46.0586762809053" lon="12.146627514959045"><ele>500.0</ele><time>2026-05-03T10:38:17Z</time></trkpt><trkpt lat="46.05861369682624" lon="12.146464950594627"><ele>496.25</ele><time>2026-05-03T10:38:18Z</time></trkpt><trkpt lat="46.0585727969582" lon="12.146298207073134"><ele>492.5</ele><time>2026-05-03T10:38:18.999Z</time></trkpt><trkpt lat="46.05855656714207" lon="12.146115121378449"><ele>488.75</ele><time>2026-05-03T10:38:19.999Z</time></trkpt><trkpt lat="46.05855279364781" lon="12.145926382396217"><ele>485.0</ele><time>2026-05-03T10:38:20.999Z</time></trkpt><trkpt lat="46.058556817291986" lon="12.14576996477549"><ele>483.0</ele><time>2026-05-03T10:38:21.999Z</time></trkpt><trkpt lat="46.058566188494765" lon="12.145648272320427"><ele>481.0</ele><time>2026-05-03T10:38:22.999Z</time></trkpt><trkpt lat="46.058607634678374" lon="12.145487702643695"><ele>479.0</ele><time>2026-05-03T10:38:24.999Z</time></trkpt><trkpt lat="46.05866448949742" lon="12.145443135053005"><ele>477.0</ele><time>2026-05-03T10:38:25.999Z</time></trkpt><trkpt lat="46.05875835845518" lon="12.145493655657864"><ele>475.0</ele><time>2026-05-03T10:38:26.999Z</time></trkpt><trkpt lat="46.058863780193015" lon="12.145520908487411"><ele>475.0</ele><time>2026-05-03T10:38:27.999Z</time></trkpt><trkpt lat="46.05897027148364" lon="12.145569930198393"><ele>475.0</ele><time>2026-05-03T10:38:28.999Z</time></trkpt><trkpt lat="46.05908569622899" lon="12.145600092515036"><ele>475.0</ele><time>2026-05-03T10:38:29.999Z</time></trkpt><trkpt lat="46.05919567132512" lon="12.145622050481187"><ele>475.0</ele><time>2026-05-03T10:38:30.999Z</time></trkpt><trkpt lat="46.059313252547405" lon="12.145638977509376"><ele>472.0</ele><time>2026-05-03T10:38:31.999Z</time></trkpt><trkpt lat="46.05943843857084" lon="12.145651060375295"><ele>469.0</ele><time>2026-05-03T10:38:32.999Z</time></trkpt><trkpt lat="46.05956075136868" lon="12.145661914126428"><ele>466.0</ele><time>2026-05-03T10:38:33.999Z</time></trkpt><trkpt lat="46.05967681426763" lon="12.145665133621467"><ele>463.0</ele><time>2026-05-03T10:38:34.999Z</time></trkpt><trkpt lat="46.059789776158695" lon="12.145659869831011"><ele>463.0</ele><time>2026-05-03T10:38:35.999Z</time></trkpt><trkpt lat="46.05990125856814" lon="12.145659945846635"><ele>462.99999999999994</ele><time>2026-05-03T10:38:36.999Z</time></trkpt><trkpt lat="46.0600074662582" lon="12.145673904555803"><ele>462.99999999999994</ele><time>2026-05-03T10:38:37.999Z</time></trkpt><trkpt lat="46.060104139347224" lon="12.145739936678492"><ele>463.0</ele><time>2026-05-03T10:38:38.999Z</time></trkpt><trkpt lat="46.060204334391926" lon="12.145784311891196"><ele>463.0</ele><time>2026-05-03T10:38:39.999Z</time></trkpt><trkpt lat="46.0603007699429" lon="12.14585552154833"><ele>462.2</ele><time>2026-05-03T10:38:40.999Z</time></trkpt><trkpt lat="46.06040271770264" lon="12.14592802967991"><ele>461.4</ele><time>2026-05-03T10:38:41.999Z</time></trkpt><trkpt lat="46.060508417181296" lon="12.145984936821739"><ele>460.59999999999997</ele><time>2026-05-03T10:38:42.999Z</time></trkpt><trkpt lat="46.06061855278184" lon="12.146017426600618"><ele>459.79999999999995</ele><time>2026-05-03T10:38:43.999Z</time></trkpt><trkpt lat="46.06072699874173" lon="12.146029459832194"><ele>459.0</ele><time>2026-05-03T10:38:44.999Z</time></trkpt><trkpt lat="46.06083476804882" lon="12.146050213464097"><ele>457.5</ele><time>2026-05-03T10:38:45.999Z</time></trkpt><trkpt lat="46.0609255811233" lon="12.146077262530012"><ele>456.0</ele><time>2026-05-03T10:38:46.999Z</time></trkpt><trkpt lat="46.060995907584015" lon="12.146107805735934"><ele>454.5</ele><time>2026-05-03T10:38:47.999Z</time></trkpt><trkpt lat="46.06106208220027" lon="12.14612512970513"><ele>453.0</ele><time>2026-05-03T10:38:48.999Z</time></trkpt><trkpt lat="46.06111535109611" lon="12.146058661024433"><ele>451.5</ele><time>2026-05-03T10:38:49.999Z</time></trkpt><trkpt lat="46.0611430039914" lon="12.145946990891444"><ele>450.0</ele><time>2026-05-03T10:38:50.999Z</time></trkpt><trkpt lat="46.06113957133322" lon="12.145821996201434"><ele>448.0</ele><time>2026-05-03T10:38:51.999Z</time></trkpt><trkpt lat="46.06108934682646" lon="12.145683182908563"><ele>446.0</ele><time>2026-05-03T10:38:52.999Z</time></trkpt><trkpt lat="46.06102626077056" lon="12.145539765816864"><ele>444.0</ele><time>2026-05-03T10:38:53.999Z</time></trkpt><trkpt lat="46.06096901432691" lon="12.145398421920461"><ele>442.0</ele><time>2026-05-03T10:38:54.999Z</time></trkpt><trkpt lat="46.06091692921152" lon="12.14524658338613"><ele>442.0</ele><time>2026-05-03T10:38:55.999Z</time></trkpt><trkpt lat="46.06086212952596" lon="12.145084117028512"><ele>442.0</ele><time>2026-05-03T10:38:56.999Z</time></trkpt><trkpt lat="46.060805000284624" lon="12.1449145130999"><ele>442.0</ele><time>2026-05-03T10:38:57.999Z</time></trkpt><trkpt lat="46.06075377309418" lon="12.144732784379373"><ele>442.0</ele><time>2026-05-03T10:38:58.999Z</time></trkpt><trkpt lat="46.06069448399765" lon="12.144551693011637"><ele>442.75</ele><time>2026-05-03T10:38:59.999Z</time></trkpt><trkpt lat="46.06064001619543" lon="12.144382723631487"><ele>443.5</ele><time>2026-05-03T10:39:00.999Z</time></trkpt><trkpt lat="46.060587982941094" lon="12.144221293558164"><ele>444.25</ele><time>2026-05-03T10:39:01.999Z</time></trkpt><trkpt lat="46.06053727597669" lon="12.144070961390428"><ele>445.0</ele><time>2026-05-03T10:39:02.999Z</time></trkpt><trkpt lat="46.06049113889015" lon="12.143925222277996"><ele>442.6</ele><time>2026-05-03T10:39:03.999Z</time></trkpt><trkpt lat="46.06049413176098" lon="12.143775437277107"><ele>440.2</ele><time>2026-05-03T10:39:04.999Z</time></trkpt><trkpt lat="46.0605168221039" lon="12.143642040672239"><ele>437.79999999999995</ele><time>2026-05-03T10:39:05.999Z</time></trkpt><trkpt lat="46.06055782373492" lon="12.143516852066947"><ele>435.4</ele><time>2026-05-03T10:39:06.999Z</time></trkpt><trkpt lat="46.06058050276334" lon="12.143419888814963"><ele>433.0</ele><time>2026-05-03T10:39:07.999Z</time></trkpt><trkpt lat="46.0606816570102" lon="12.143370311695396"><ele>433.0</ele><time>2026-05-03T10:39:09.999Z</time></trkpt><trkpt lat="46.06077788672134" lon="12.143368913812543"><ele>433.0</ele><time>2026-05-03T10:39:10.999Z</time></trkpt><trkpt lat="46.0608899544025" lon="12.143410198029642"><ele>433.0</ele><time>2026-05-03T10:39:11.999Z</time></trkpt><trkpt lat="46.06100556557195" lon="12.14348808552784"><ele>433.0</ele><time>2026-05-03T10:39:12.999Z</time></trkpt><trkpt lat="46.06111526047283" lon="12.14357295801319"><ele>432.0</ele><time>2026-05-03T10:39:13.999Z</time></trkpt><trkpt lat="46.0612198881197" lon="12.143641886136425"><ele>430.99999999999994</ele><time>2026-05-03T10:39:14.999Z</time></trkpt><trkpt lat="46.061311273419264" lon="12.143698132550684"><ele>429.99999999999994</ele><time>2026-05-03T10:39:15.999Z</time></trkpt><trkpt lat="46.06139631290877" lon="12.143751109053806"><ele>429.0</ele><time>2026-05-03T10:39:16.999Z</time></trkpt><trkpt lat="46.0614819238551" lon="12.143808675009502"><ele>428.0</ele><time>2026-05-03T10:39:17.999Z</time></trkpt><trkpt lat="46.061568586290186" lon="12.143862597846958"><ele>427.8333333333333</ele><time>2026-05-03T10:39:18.999Z</time></trkpt><trkpt lat="46.06165040503684" lon="12.143914743055364"><ele>427.66666666666663</ele><time>2026-05-03T10:39:19.999Z</time></trkpt><trkpt lat="46.061730719733966" lon="12.143964168784183"><ele>427.5</ele><time>2026-05-03T10:39:20.999Z</time></trkpt><trkpt lat="46.06180842971064" lon="12.144015492253935"><ele>427.33333333333337</ele><time>2026-05-03T10:39:21.999Z</time></trkpt><trkpt lat="46.061881430246984" lon="12.144066771141427"><ele>427.1666666666667</ele><time>2026-05-03T10:39:23Z</time></trkpt><trkpt lat="46.06195009744195" lon="12.144110432281616"><ele>427.0</ele><time>2026-05-03T10:39:24Z</time></trkpt><trkpt lat="46.06202658158318" lon="12.144159453861093"><ele>427.0</ele><time>2026-05-03T10:39:25Z</time></trkpt><trkpt lat="46.06210824948716" lon="12.144208914665832"><ele>427.00000000000006</ele><time>2026-05-03T10:39:26Z</time></trkpt><trkpt lat="46.062195939162855" lon="12.144265705479809"><ele>427.00000000000006</ele><time>2026-05-03T10:39:27Z</time></trkpt><trkpt lat="46.062283528907" lon="12.144319082151133"><ele>427.0</ele><time>2026-05-03T10:39:28Z</time></trkpt><trkpt lat="46.06237433701081" lon="12.144331084390169"><ele>427.0</ele><time>2026-05-03T10:39:29Z</time></trkpt><trkpt lat="46.062465528569795" lon="12.144285982717903"><ele>424.75</ele><time>2026-05-03T10:39:30Z</time></trkpt><trkpt lat="46.06254519641163" lon="12.144179779980231"><ele>422.5</ele><time>2026-05-03T10:39:31Z</time></trkpt><trkpt lat="46.062619687685554" lon="12.144049127692549"><ele>420.25</ele><time>2026-05-03T10:39:32Z</time></trkpt><trkpt lat="46.06269786607249" lon="12.143912264322525"><ele>418.0</ele><time>2026-05-03T10:39:33Z</time></trkpt><trkpt lat="46.0627848890361" lon="12.143790086056972"><ele>416.5</ele><time>2026-05-03T10:39:34Z</time></trkpt><trkpt lat="46.06287652780913" lon="12.143667547347613"><ele>415.0</ele><time>2026-05-03T10:39:35Z</time></trkpt><trkpt lat="46.06296837411139" lon="12.143533352667339"><ele>413.5</ele><time>2026-05-03T10:39:36Z</time></trkpt><trkpt lat="46.063062984120606" lon="12.143402413892057"><ele>412.0</ele><time>2026-05-03T10:39:37Z</time></trkpt><trkpt lat="46.0631556991987" lon="12.1432678079752"><ele>411.25</ele><time>2026-05-03T10:39:38Z</time></trkpt><trkpt lat="46.0632426676855" lon="12.143143162457969"><ele>410.5</ele><time>2026-05-03T10:39:39Z</time></trkpt><trkpt lat="46.0633324388439" lon="12.14302673950634"><ele>409.75</ele><time>2026-05-03T10:39:40Z</time></trkpt><trkpt lat="46.063428234082444" lon="12.142906955253666"><ele>409.0</ele><time>2026-05-03T10:39:41Z</time></trkpt><trkpt lat="46.0635433212655" lon="12.142811136063923"><ele>407.75</ele><time>2026-05-03T10:39:42Z</time></trkpt><trkpt lat="46.06367911732763" lon="12.142739702351328"><ele>406.5</ele><time>2026-05-03T10:39:43Z</time></trkpt><trkpt lat="46.06381813278503" lon="12.142700824571216"><ele>405.25</ele><time>2026-05-03T10:39:44Z</time></trkpt><trkpt lat="46.0639730227286" lon="12.142687445477463"><ele>404.0</ele><time>2026-05-03T10:39:45Z</time></trkpt><trkpt lat="46.06412914446722" lon="12.1426863450356"><ele>400.66666666666663</ele><time>2026-05-03T10:39:46Z</time></trkpt><trkpt lat="46.06429168031056" lon="12.142680512465207"><ele>397.33333333333337</ele><time>2026-05-03T10:39:47Z</time></trkpt><trkpt lat="46.06445445004839" lon="12.14266702286399"><ele>394.0</ele><time>2026-05-03T10:39:48Z</time></trkpt><trkpt lat="46.06460841766566" lon="12.142648414919709"><ele>394.0</ele><time>2026-05-03T10:39:49Z</time></trkpt><trkpt lat="46.06474696912471" lon="12.142646608534294"><ele>394.0</ele><time>2026-05-03T10:39:50Z</time></trkpt><trkpt lat="46.0648937046106" lon="12.142663517209574"><ele>394.0</ele><time>2026-05-03T10:39:51Z</time></trkpt><trkpt lat="46.06504829374013" lon="12.142713883873453"><ele>394.0</ele><time>2026-05-03T10:39:52Z</time></trkpt><trkpt lat="46.065184267193445" lon="12.142851958972905"><ele>391.33333333333337</ele><time>2026-05-03T10:39:53Z</time></trkpt><trkpt lat="46.06531927507854" lon="12.14297985105542"><ele>388.66666666666663</ele><time>2026-05-03T10:39:53.999Z</time></trkpt><trkpt lat="46.065461940995505" lon="12.143081599231836"><ele>386.0</ele><time>2026-05-03T10:39:54.999Z</time></trkpt><trkpt lat="46.065605193910926" lon="12.143188026911613"><ele>387.3333333333333</ele><time>2026-05-03T10:39:55.999Z</time></trkpt><trkpt lat="46.06576082959341" lon="12.14324921989327"><ele>388.66666666666663</ele><time>2026-05-03T10:39:56.999Z</time></trkpt><trkpt lat="46.0659225971558" lon="12.143276044682352"><ele>390.0</ele><time>2026-05-03T10:39:57.999Z</time></trkpt><trkpt lat="46.06607785150472" lon="12.14330459535648"><ele>388.0</ele><time>2026-05-03T10:39:58.999Z</time></trkpt><trkpt lat="46.066219220597105" lon="12.143323221518733"><ele>386.0</ele><time>2026-05-03T10:39:59.999Z</time></trkpt><trkpt lat="46.066356565722145" lon="12.143269663054157"><ele>384.0</ele><time>2026-05-03T10:40:00.999Z</time></trkpt><trkpt lat="46.06648589983045" lon="12.143149587793236"><ele>382.0</ele><time>2026-05-03T10:40:01.999Z</time></trkpt><trkpt lat="46.06661169586905" lon="12.143015240684484"><ele>380.0</ele><time>2026-05-03T10:40:02.999Z</time></trkpt><trkpt lat="46.06673747729588" lon="12.142893570788532"><ele>378.0</ele><time>2026-05-03T10:40:03.999Z</time></trkpt><trkpt lat="46.0668622147944" lon="12.142778186242793"><ele>376.0</ele><time>2026-05-03T10:40:04.999Z</time></trkpt><trkpt lat="46.06697050883977" lon="12.142675268370102"><ele>374.0</ele><time>2026-05-03T10:40:05.999Z</time></trkpt><trkpt lat="46.06707399181156" lon="12.142587687199835"><ele>374.0</ele><time>2026-05-03T10:40:06.999Z</time></trkpt><trkpt lat="46.06716234208284" lon="12.142500348580018"><ele>374.0</ele><time>2026-05-03T10:40:07.999Z</time></trkpt><trkpt lat="46.06726515272929" lon="12.142421953649832"><ele>374.0</ele><time>2026-05-03T10:40:08.999Z</time></trkpt><trkpt lat="46.06736515256191" lon="12.142334536916128"><ele>374.0</ele><time>2026-05-03T10:40:09.999Z</time></trkpt><trkpt lat="46.06746888451584" lon="12.142240048512377"><ele>373.25</ele><time>2026-05-03T10:40:10.999Z</time></trkpt><trkpt lat="46.06757352730076" lon="12.142149179590307"><ele>372.5</ele><time>2026-05-03T10:40:11.999Z</time></trkpt><trkpt lat="46.06768132887744" lon="12.142056063085992"><ele>371.75</ele><time>2026-05-03T10:40:12.999Z</time></trkpt><trkpt lat="46.06779218200502" lon="12.141962625542956"><ele>371.0</ele><time>2026-05-03T10:40:13.999Z</time></trkpt><trkpt lat="46.06790851622016" lon="12.14187216326556"><ele>371.0</ele><time>2026-05-03T10:40:14.999Z</time></trkpt><trkpt lat="46.06801994772885" lon="12.141775883003712"><ele>371.0</ele><time>2026-05-03T10:40:15.999Z</time></trkpt><trkpt lat="46.068136671993024" lon="12.141674895606654"><ele>371.0</ele><time>2026-05-03T10:40:16.999Z</time></trkpt><trkpt lat="46.06825623315761" lon="12.141570334543516"><ele>371.0</ele><time>2026-05-03T10:40:17.999Z</time></trkpt><trkpt lat="46.06837727801178" lon="12.14146448896652"><ele>370.5</ele><time>2026-05-03T10:40:18.999Z</time></trkpt><trkpt lat="46.0684955161252" lon="12.141352585104128"><ele>370.0</ele><time>2026-05-03T10:40:19.999Z</time></trkpt><trkpt lat="46.06862080624064" lon="12.141240450676056"><ele>369.5</ele><time>2026-05-03T10:40:20.999Z</time></trkpt><trkpt lat="46.06875181131709" lon="12.14113029010622"><ele>369.0</ele><time>2026-05-03T10:40:21.999Z</time></trkpt><trkpt lat="46.068880492115944" lon="12.141015061768252"><ele>369.0</ele><time>2026-05-03T10:40:22.999Z</time></trkpt><trkpt lat="46.06901317750439" lon="12.140906966276594"><ele>369.0</ele><time>2026-05-03T10:40:24Z</time></trkpt><trkpt lat="46.06914251401891" lon="12.140801466788394"><ele>369.0</ele><time>2026-05-03T10:40:25Z</time></trkpt><trkpt lat="46.069270191068725" lon="12.140695740035644"><ele>369.0</ele><time>2026-05-03T10:40:26Z</time></trkpt><trkpt lat="46.06938748026514" lon="12.140599582838947"><ele>369.0</ele><time>2026-05-03T10:40:27Z</time></trkpt><trkpt lat="46.06949077452859" lon="12.140498594337807"><ele>369.0</ele><time>2026-05-03T10:40:28Z</time></trkpt><trkpt lat="46.06957762940744" lon="12.140377126086799"><ele>369.0</ele><time>2026-05-03T10:40:29Z</time></trkpt><trkpt lat="46.069633441982326" lon="12.1402174585416"><ele>369.0</ele><time>2026-05-03T10:40:30Z</time></trkpt><trkpt lat="46.06965324147181" lon="12.14003430153132"><ele>369.0</ele><time>2026-05-03T10:40:31Z</time></trkpt><trkpt lat="46.06964836272465" lon="12.139828912278636"><ele>369.0</ele><time>2026-05-03T10:40:32Z</time></trkpt><trkpt lat="46.06964345844973" lon="12.139622388159754"><ele>369.0</ele><time>2026-05-03T10:40:33Z</time></trkpt><trkpt lat="46.069650078668985" lon="12.13944519992314"><ele>369.0</ele><time>2026-05-03T10:40:34Z</time></trkpt><trkpt lat="46.06966693972066" lon="12.139277545021235"><ele>369.0</ele><time>2026-05-03T10:40:35Z</time></trkpt><trkpt lat="46.06971982840306" lon="12.139144559440414"><ele>369.0</ele><time>2026-05-03T10:40:36Z</time></trkpt><trkpt lat="46.06980798699852" lon="12.139070296698227"><ele>369.0</ele><time>2026-05-03T10:40:37Z</time></trkpt><trkpt lat="46.06992043323705" lon="12.139008797314052"><ele>369.0</ele><time>2026-05-03T10:40:38Z</time></trkpt><trkpt lat="46.070036516410966" lon="12.138935429080856"><ele>368.25</ele><time>2026-05-03T10:40:39Z</time></trkpt><trkpt lat="46.070161015523404" lon="12.138863599206935"><ele>367.5</ele><time>2026-05-03T10:40:40Z</time></trkpt><trkpt lat="46.07029884006539" lon="12.138787951468343"><ele>366.75</ele><time>2026-05-03T10:40:41Z</time></trkpt><trkpt lat="46.07044405411233" lon="12.138698137266816"><ele>366.0</ele><time>2026-05-03T10:40:42Z</time></trkpt><trkpt lat="46.070595507611195" lon="12.138609118169274"><ele>366.0</ele><time>2026-05-03T10:40:43Z</time></trkpt><trkpt lat="46.070737318479054" lon="12.138517279417425"><ele>366.0</ele><time>2026-05-03T10:40:44Z</time></trkpt><trkpt lat="46.07087565127907" lon="12.138413098371213"><ele>366.0</ele><time>2026-05-03T10:40:45Z</time></trkpt><trkpt lat="46.07099977344555" lon="12.138265931632692"><ele>366.0</ele><time>2026-05-03T10:40:46Z</time></trkpt><trkpt lat="46.07111818249785" lon="12.138101587644227"><ele>366.0</ele><time>2026-05-03T10:40:47Z</time></trkpt><trkpt lat="46.07122117057765" lon="12.137951025094644"><ele>366.0</ele><time>2026-05-03T10:40:48Z</time></trkpt><trkpt lat="46.07132327365409" lon="12.13781101517138"><ele>366.0</ele><time>2026-05-03T10:40:49Z</time></trkpt><trkpt lat="46.07143533311298" lon="12.137675960338038"><ele>366.0</ele><time>2026-05-03T10:40:50Z</time></trkpt><trkpt lat="46.07156561804873" lon="12.137564028619956"><ele>366.0</ele><time>2026-05-03T10:40:51Z</time></trkpt><trkpt lat="46.071699897734455" lon="12.137480256211402"><ele>366.0</ele><time>2026-05-03T10:40:52Z</time></trkpt><trkpt lat="46.07182695801116" lon="12.137394778991524"><ele>366.75</ele><time>2026-05-03T10:40:53Z</time></trkpt><trkpt lat="46.071940466997226" lon="12.137307229289545"><ele>367.5</ele><time>2026-05-03T10:40:54Z</time></trkpt><trkpt lat="46.07204376647271" lon="12.137196050234628"><ele>368.25</ele><time>2026-05-03T10:40:55Z</time></trkpt><trkpt lat="46.072125062012795" lon="12.137045768507274"><ele>369.0</ele><time>2026-05-03T10:40:56Z</time></trkpt><trkpt lat="46.07219109507852" lon="12.136862851042657"><ele>369.0</ele><time>2026-05-03T10:40:57Z</time></trkpt><trkpt lat="46.07223852173769" lon="12.136661341269354"><ele>369.0</ele><time>2026-05-03T10:40:58Z</time></trkpt><trkpt lat="46.0722941896845" lon="12.136458604813763"><ele>369.0</ele><time>2026-05-03T10:40:59Z</time></trkpt><trkpt lat="46.072350518606164" lon="12.136245799202056"><ele>369.5</ele><time>2026-05-03T10:41:00Z</time></trkpt><trkpt lat="46.07240560074756" lon="12.136031553831735"><ele>370.0</ele><time>2026-05-03T10:41:01Z</time></trkpt><trkpt lat="46.07245296581662" lon="12.135845317327446"><ele>370.5</ele><time>2026-05-03T10:41:02Z</time></trkpt><trkpt lat="46.07250219558233" lon="12.135666247750404"><ele>371.0</ele><time>2026-05-03T10:41:03Z</time></trkpt><trkpt lat="46.07255064526404" lon="12.13548668073278"><ele>369.5</ele><time>2026-05-03T10:41:04Z</time></trkpt><trkpt lat="46.07260054345797" lon="12.135300795978155"><ele>368.0</ele><time>2026-05-03T10:41:05Z</time></trkpt><trkpt lat="46.07265918982148" lon="12.1351251770761"><ele>366.5</ele><time>2026-05-03T10:41:06Z</time></trkpt><trkpt lat="46.072725046028836" lon="12.134944930686578"><ele>365.0</ele><time>2026-05-03T10:41:07Z</time></trkpt><trkpt lat="46.07278654445099" lon="12.134762005485273"><ele>364.5</ele><time>2026-05-03T10:41:08Z</time></trkpt><trkpt lat="46.07284409174139" lon="12.134575378609709"><ele>364.0</ele><time>2026-05-03T10:41:09Z</time></trkpt><trkpt lat="46.072891005710005" lon="12.134396988690039"><ele>363.5</ele><time>2026-05-03T10:41:10Z</time></trkpt><trkpt lat="46.07291898114622" lon="12.134210101626795"><ele>363.0</ele><time>2026-05-03T10:41:11Z</time></trkpt><trkpt lat="46.072963226192456" lon="12.134042391627634"><ele>362.25</ele><time>2026-05-03T10:41:12Z</time></trkpt><trkpt lat="46.07301304672556" lon="12.133892830603767"><ele>361.5</ele><time>2026-05-03T10:41:13Z</time></trkpt><trkpt lat="46.073078648697" lon="12.133763818519341"><ele>360.75</ele><time>2026-05-03T10:41:14Z</time></trkpt><trkpt lat="46.073156637238974" lon="12.133645820443542"><ele>360.0</ele><time>2026-05-03T10:41:15Z</time></trkpt><trkpt lat="46.07326847760368" lon="12.133595582298762"><ele>358.2</ele><time>2026-05-03T10:41:16Z</time></trkpt><trkpt lat="46.07333853117192" lon="12.133470635677428"><ele>356.4</ele><time>2026-05-03T10:41:17Z</time></trkpt><trkpt lat="46.07339642370277" lon="12.133363346198696"><ele>354.6</ele><time>2026-05-03T10:41:18Z</time></trkpt><trkpt lat="46.07344008661206" lon="12.133267262355778"><ele>352.8</ele><time>2026-05-03T10:41:19Z</time></trkpt><trkpt lat="46.07350087179104" lon="12.133137692381746"><ele>351.0</ele><time>2026-05-03T10:41:21Z</time></trkpt><trkpt lat="46.07357401140605" lon="12.133034568862605"><ele>350.8</ele><time>2026-05-03T10:41:23Z</time></trkpt><trkpt lat="46.07363426589868" lon="12.132890964586737"><ele>350.6</ele><time>2026-05-03T10:41:25Z</time></trkpt><trkpt lat="46.07372066974057" lon="12.132799173350904"><ele>350.4</ele><time>2026-05-03T10:41:27Z</time></trkpt><trkpt lat="46.07377754815422" lon="12.132730340124116"><ele>350.2</ele><time>2026-05-03T10:41:46Z</time></trkpt><trkpt lat="46.07380364341982" lon="12.13254862064888"><ele>350.0</ele><time>2026-05-03T10:41:49Z</time></trkpt><trkpt lat="46.07374797086104" lon="12.132467499022983"><ele>349.6</ele><time>2026-05-03T10:41:50Z</time></trkpt><trkpt lat="46.07372073735378" lon="12.132355027224495"><ele>349.2</ele><time>2026-05-03T10:41:51Z</time></trkpt><trkpt lat="46.07369080183775" lon="12.132219609664343"><ele>348.79999999999995</ele><time>2026-05-03T10:41:52Z</time></trkpt><trkpt lat="46.073656454421176" lon="12.132079085041116"><ele>348.4</ele><time>2026-05-03T10:41:53Z</time></trkpt><trkpt lat="46.073616569022654" lon="12.131926096424477"><ele>348.0</ele><time>2026-05-03T10:41:54Z</time></trkpt><trkpt lat="46.073577664280066" lon="12.131777047856172"><ele>348.0</ele><time>2026-05-03T10:41:55Z</time></trkpt><trkpt lat="46.073543122563855" lon="12.131637523911268"><ele>348.0</ele><time>2026-05-03T10:41:56Z</time></trkpt><trkpt lat="46.073514459682855" lon="12.131500479743977"><ele>348.0</ele><time>2026-05-03T10:41:57Z</time></trkpt><trkpt lat="46.073483346615646" lon="12.131374989148975"><ele>348.0</ele><time>2026-05-03T10:41:58Z</time></trkpt><trkpt lat="46.073450419081226" lon="12.13126452967591"><ele>348.0</ele><time>2026-05-03T10:41:58.999Z</time></trkpt><trkpt lat="46.0734240897173" lon="12.131162062624421"><ele>347.8333333333333</ele><time>2026-05-03T10:41:59.999Z</time></trkpt><trkpt lat="46.07340726627794" lon="12.131070561081032"><ele>347.6666666666667</ele><time>2026-05-03T10:42:00.999Z</time></trkpt><trkpt lat="46.07338594265815" lon="12.130968034966882"><ele>347.5</ele><time>2026-05-03T10:42:02.999Z</time></trkpt><trkpt lat="46.07337612415981" lon="12.13087351228123"><ele>347.33333333333337</ele><time>2026-05-03T10:42:07.999Z</time></trkpt><trkpt lat="46.07337556195352" lon="12.130773977182315"><ele>347.1666666666667</ele><time>2026-05-03T10:45:19.001Z</time></trkpt><trkpt lat="46.07329627273853" lon="12.130660306283565"><ele>347.0</ele><time>2026-05-03T10:45:24.001Z</time></trkpt><trkpt lat="46.07325690619576" lon="12.130542791742016"><ele>347.0</ele><time>2026-05-03T10:45:25.001Z</time></trkpt><trkpt lat="46.073229672964565" lon="12.130425686101182"><ele>347.0</ele><time>2026-05-03T10:45:26.001Z</time></trkpt><trkpt lat="46.07320083120804" lon="12.130289695818746"><ele>347.0</ele><time>2026-05-03T10:45:27.001Z</time></trkpt><trkpt lat="46.073160933719095" lon="12.130146290975864"><ele>347.0</ele><time>2026-05-03T10:45:28.001Z</time></trkpt><trkpt lat="46.07311708339319" lon="12.129984709848866"><ele>347.0</ele><time>2026-05-03T10:45:29.001Z</time></trkpt><trkpt lat="46.07308229055927" lon="12.129825745416207"><ele>346.75</ele><time>2026-05-03T10:45:30.001Z</time></trkpt><trkpt lat="46.073036728851655" lon="12.129648896193869"><ele>346.5</ele><time>2026-05-03T10:45:31.001Z</time></trkpt><trkpt lat="46.072992247144676" lon="12.129463789938539"><ele>346.25</ele><time>2026-05-03T10:45:32.001Z</time></trkpt><trkpt lat="46.07294193919054" lon="12.129259887916685"><ele>346.0</ele><time>2026-05-03T10:45:33.001Z</time></trkpt><trkpt lat="46.07288017822187" lon="12.129047571890531"><ele>346.0</ele><time>2026-05-03T10:45:34.001Z</time></trkpt><trkpt lat="46.07282667798759" lon="12.128839675630228"><ele>346.0</ele><time>2026-05-03T10:45:35.001Z</time></trkpt><trkpt lat="46.07277177559809" lon="12.128627675593048"><ele>346.0</ele><time>2026-05-03T10:45:36.001Z</time></trkpt><trkpt lat="46.07271299326439" lon="12.12840151365675"><ele>345.66666666666663</ele><time>2026-05-03T10:45:37.001Z</time></trkpt><trkpt lat="46.07265519577757" lon="12.128167075245804"><ele>345.3333333333333</ele><time>2026-05-03T10:45:38.001Z</time></trkpt><trkpt lat="46.07259438932259" lon="12.127931781171139"><ele>345.0</ele><time>2026-05-03T10:45:39.001Z</time></trkpt><trkpt lat="46.07253002900898" lon="12.12770476939998"><ele>345.0</ele><time>2026-05-03T10:45:40.001Z</time></trkpt><trkpt lat="46.072465597843554" lon="12.127479488658345"><ele>345.0</ele><time>2026-05-03T10:45:41.001Z</time></trkpt><trkpt lat="46.07240753404613" lon="12.127247590168249"><ele>345.0</ele><time>2026-05-03T10:45:42.001Z</time></trkpt><trkpt lat="46.07234629519014" lon="12.127015081957"><ele>345.6666666666667</ele><time>2026-05-03T10:45:43.001Z</time></trkpt><trkpt lat="46.0722901695567" lon="12.126795171059298"><ele>346.33333333333337</ele><time>2026-05-03T10:45:44.001Z</time></trkpt><trkpt lat="46.07223989348757" lon="12.12659760983053"><ele>347.0</ele><time>2026-05-03T10:45:45.001Z</time></trkpt><trkpt lat="46.07218571059447" lon="12.126402513268927"><ele>347.0</ele><time>2026-05-03T10:45:46.001Z</time></trkpt><trkpt lat="46.072134931395475" lon="12.126200618400086"><ele>347.0</ele><time>2026-05-03T10:45:47.001Z</time></trkpt><trkpt lat="46.0720774103009" lon="12.125994426692072"><ele>347.0</ele><time>2026-05-03T10:45:48.001Z</time></trkpt><trkpt lat="46.07202128992191" lon="12.125794153508565"><ele>346.5</ele><time>2026-05-03T10:45:49.001Z</time></trkpt><trkpt lat="46.07197408746564" lon="12.125604942145596"><ele>346.0</ele><time>2026-05-03T10:45:50.001Z</time></trkpt><trkpt lat="46.07192315063818" lon="12.125422888919296"><ele>345.5</ele><time>2026-05-03T10:45:51.001Z</time></trkpt><trkpt lat="46.071880857401005" lon="12.125247552405282"><ele>345.0</ele><time>2026-05-03T10:45:52.001Z</time></trkpt><trkpt lat="46.07185153862492" lon="12.125101156017477"><ele>345.0</ele><time>2026-05-03T10:45:53.001Z</time></trkpt><trkpt lat="46.071843872437704" lon="12.124951083814246"><ele>345.0</ele><time>2026-05-03T10:45:54.001Z</time></trkpt><trkpt lat="46.07188852836317" lon="12.124812744326052"><ele>345.0</ele><time>2026-05-03T10:45:55.001Z</time></trkpt><trkpt lat="46.071913671579" lon="12.124675970150411"><ele>345.0</ele><time>2026-05-03T10:45:56.001Z</time></trkpt><trkpt lat="46.07198288264451" lon="12.124548313006063"><ele>345.0</ele><time>2026-05-03T10:45:57.001Z</time></trkpt><trkpt lat="46.07199385039672" lon="12.124369323950253"><ele>344.25</ele><time>2026-05-03T10:45:58.001Z</time></trkpt><trkpt lat="46.07203533087313" lon="12.124192375667976"><ele>343.5</ele><time>2026-05-03T10:45:59.001Z</time></trkpt><trkpt lat="46.07209892331768" lon="12.124025582788178"><ele>342.75</ele><time>2026-05-03T10:46:00.001Z</time></trkpt><trkpt lat="46.07221604451587" lon="12.123922864986897"><ele>342.0</ele><time>2026-05-03T10:46:01.001Z</time></trkpt><trkpt lat="46.07232553585193" lon="12.123791312406897"><ele>341.0</ele><time>2026-05-03T10:46:02.001Z</time></trkpt><trkpt lat="46.0724331614734" lon="12.12363549098368"><ele>340.0</ele><time>2026-05-03T10:46:03.001Z</time></trkpt><trkpt lat="46.072538989601576" lon="12.123517241394453"><ele>339.0</ele><time>2026-05-03T10:46:04.001Z</time></trkpt><trkpt lat="46.07262840811658" lon="12.123414000656986"><ele>338.0</ele><time>2026-05-03T10:46:05.001Z</time></trkpt><trkpt lat="46.072722247288624" lon="12.123335189733842"><ele>337.25</ele><time>2026-05-03T10:46:06.001Z</time></trkpt><trkpt lat="46.072828102907515" lon="12.123308453466196"><ele>336.5</ele><time>2026-05-03T10:46:07.001Z</time></trkpt><trkpt lat="46.07293453521223" lon="12.123345664069033"><ele>335.75</ele><time>2026-05-03T10:46:08.001Z</time></trkpt><trkpt lat="46.07302549786577" lon="12.123460708663846"><ele>335.0</ele><time>2026-05-03T10:46:09.001Z</time></trkpt><trkpt lat="46.073107758806884" lon="12.123589751527728"><ele>335.0</ele><time>2026-05-03T10:46:10.001Z</time></trkpt><trkpt lat="46.07311969076926" lon="12.123774923115606"><ele>335.0</ele><time>2026-05-03T10:46:11.001Z</time></trkpt><trkpt lat="46.07312772659206" lon="12.123941100132791"><ele>335.0</ele><time>2026-05-03T10:46:12.001Z</time></trkpt><trkpt lat="46.0730647848108" lon="12.124098738539073"><ele>335.0</ele><time>2026-05-03T10:46:13.001Z</time></trkpt><trkpt lat="46.07294711130861" lon="12.124163958210909"><ele>335.0</ele><time>2026-05-03T10:46:14.001Z</time></trkpt><trkpt lat="46.072846746554795" lon="12.124199318944994"><ele>335.0</ele><time>2026-05-03T10:46:15.001Z</time></trkpt><trkpt lat="46.07273605977175" lon="12.124181946682658"><ele>335.0</ele><time>2026-05-03T10:46:16.001Z</time></trkpt><trkpt lat="46.072622944865245" lon="12.124103132082823"><ele>335.0</ele><time>2026-05-03T10:46:17.001Z</time></trkpt><trkpt lat="46.07250510293017" lon="12.124004456888322"><ele>336.0</ele><time>2026-05-03T10:46:18.001Z</time></trkpt><trkpt lat="46.07237739452523" lon="12.123839847283806"><ele>337.0</ele><time>2026-05-03T10:46:19.001Z</time></trkpt><trkpt lat="46.072236137414926" lon="12.123651825877058"><ele>338.0</ele><time>2026-05-03T10:46:20.001Z</time></trkpt><trkpt lat="46.0721045528057" lon="12.123462001275712"><ele>338.0</ele><time>2026-05-03T10:46:21.001Z</time></trkpt><trkpt lat="46.07196484024402" lon="12.123259327893784"><ele>338.0</ele><time>2026-05-03T10:46:22.001Z</time></trkpt><trkpt lat="46.07182144652208" lon="12.123056403184718"><ele>338.0</ele><time>2026-05-03T10:46:23.001Z</time></trkpt><trkpt lat="46.071688010248764" lon="12.122833577262528"><ele>339.33333333333337</ele><time>2026-05-03T10:46:24.001Z</time></trkpt><trkpt lat="46.071554206375495" lon="12.122591167545488"><ele>340.6666666666667</ele><time>2026-05-03T10:46:25.001Z</time></trkpt><trkpt lat="46.07142134966778" lon="12.122343536186959"><ele>342.0</ele><time>2026-05-03T10:46:26.001Z</time></trkpt><trkpt lat="46.07129806067608" lon="12.122093121815928"><ele>342.0</ele><time>2026-05-03T10:46:27.001Z</time></trkpt><trkpt lat="46.071177305474414" lon="12.121838620535735"><ele>342.0</ele><time>2026-05-03T10:46:28.001Z</time></trkpt><trkpt lat="46.071065459903615" lon="12.12156963200661"><ele>342.0</ele><time>2026-05-03T10:46:29.001Z</time></trkpt><trkpt lat="46.07094370408407" lon="12.121307076384305"><ele>342.3333333333333</ele><time>2026-05-03T10:46:30.001Z</time></trkpt><trkpt lat="46.07083148638653" lon="12.121038384737766"><ele>342.66666666666663</ele><time>2026-05-03T10:46:31.001Z</time></trkpt><trkpt lat="46.070721715859456" lon="12.12076854360517"><ele>343.0</ele><time>2026-05-03T10:46:32.001Z</time></trkpt><trkpt lat="46.07061103094852" lon="12.120497796029577"><ele>343.0</ele><time>2026-05-03T10:46:33.001Z</time></trkpt><trkpt lat="46.07050695868176" lon="12.120231726016126"><ele>343.0</ele><time>2026-05-03T10:46:34.001Z</time></trkpt><trkpt lat="46.07039953229871" lon="12.119972681289992"><ele>343.0</ele><time>2026-05-03T10:46:35.001Z</time></trkpt><trkpt lat="46.07029485253342" lon="12.119716002961535"><ele>343.0</ele><time>2026-05-03T10:46:36.001Z</time></trkpt><trkpt lat="46.07018907739375" lon="12.119459910229786"><ele>343.0</ele><time>2026-05-03T10:46:37.001Z</time></trkpt><trkpt lat="46.07008718436525" lon="12.119203620239395"><ele>343.0</ele><time>2026-05-03T10:46:38.001Z</time></trkpt><trkpt lat="46.06998586016921" lon="12.118946890999673"><ele>344.0</ele><time>2026-05-03T10:46:39.001Z</time></trkpt><trkpt lat="46.069879960255264" lon="12.118689371928916"><ele>345.0</ele><time>2026-05-03T10:46:40.001Z</time></trkpt><trkpt lat="46.069775849664104" lon="12.118431372262902"><ele>346.0</ele><time>2026-05-03T10:46:41.001Z</time></trkpt><trkpt lat="46.069672201375255" lon="12.118160688145776"><ele>344.0</ele><time>2026-05-03T10:46:42.001Z</time></trkpt><trkpt lat="46.06957666395509" lon="12.117876435776873"><ele>342.0</ele><time>2026-05-03T10:46:43.001Z</time></trkpt><trkpt lat="46.069487159384835" lon="12.11757962760285"><ele>340.0</ele><time>2026-05-03T10:46:44.001Z</time></trkpt><trkpt lat="46.06940897718417" lon="12.117278465407491"><ele>337.66666666666663</ele><time>2026-05-03T10:46:45.001Z</time></trkpt><trkpt lat="46.069345312897205" lon="12.116968766840417"><ele>335.3333333333333</ele><time>2026-05-03T10:46:46.001Z</time></trkpt><trkpt lat="46.069287908204004" lon="12.11665532184957"><ele>333.0</ele><time>2026-05-03T10:46:47.001Z</time></trkpt><trkpt lat="46.069241559261314" lon="12.11634239086258"><ele>333.0</ele><time>2026-05-03T10:46:48.001Z</time></trkpt><trkpt lat="46.06920414582917" lon="12.1160241011796"><ele>333.0</ele><time>2026-05-03T10:46:49.001Z</time></trkpt><trkpt lat="46.06917823450948" lon="12.1157028690945"><ele>333.0</ele><time>2026-05-03T10:46:50.001Z</time></trkpt><trkpt lat="46.06915256667238" lon="12.115378780267369"><ele>335.3333333333333</ele><time>2026-05-03T10:46:51.001Z</time></trkpt><trkpt lat="46.06913429855442" lon="12.115062856085489"><ele>337.66666666666663</ele><time>2026-05-03T10:46:52.001Z</time></trkpt><trkpt lat="46.06911399869609" lon="12.11474183790296"><ele>340.0</ele><time>2026-05-03T10:46:53.001Z</time></trkpt><trkpt lat="46.069093807674065" lon="12.11442072996195"><ele>343.0</ele><time>2026-05-03T10:46:54.001Z</time></trkpt><trkpt lat="46.06907611586934" lon="12.114102957620103"><ele>346.0</ele><time>2026-05-03T10:46:55.001Z</time></trkpt><trkpt lat="46.0690613221527" lon="12.113784423797908"><ele>349.0</ele><time>2026-05-03T10:46:56.001Z</time></trkpt><trkpt lat="46.069040408544005" lon="12.113469901720674"><ele>349.3333333333333</ele><time>2026-05-03T10:46:57.001Z</time></trkpt><trkpt lat="46.06902401352768" lon="12.113160994678179"><ele>349.6666666666667</ele><time>2026-05-03T10:46:58.001Z</time></trkpt><trkpt lat="46.06899657206439" lon="12.112851595672037"><ele>350.0</ele><time>2026-05-03T10:46:59.001Z</time></trkpt><trkpt lat="46.0689669655063" lon="12.112545213918912"><ele>348.6666666666667</ele><time>2026-05-03T10:47:00.001Z</time></trkpt><trkpt lat="46.06894515123154" lon="12.112242868558745"><ele>347.3333333333333</ele><time>2026-05-03T10:47:01.001Z</time></trkpt><trkpt lat="46.06892215752606" lon="12.11194172924108"><ele>346.0</ele><time>2026-05-03T10:47:02.001Z</time></trkpt><trkpt lat="46.06890116794614" lon="12.1116399312021"><ele>344.0</ele><time>2026-05-03T10:47:03.001Z</time></trkpt><trkpt lat="46.06888408257474" lon="12.111343097599304"><ele>342.0</ele><time>2026-05-03T10:47:04.001Z</time></trkpt><trkpt lat="46.06886228474934" lon="12.111039999808312"><ele>340.0</ele><time>2026-05-03T10:47:05.001Z</time></trkpt><trkpt lat="46.06883931372048" lon="12.110736801529054"><ele>339.3333333333333</ele><time>2026-05-03T10:47:06.001Z</time></trkpt><trkpt lat="46.06880667771657" lon="12.110434380989004"><ele>338.6666666666667</ele><time>2026-05-03T10:47:07.001Z</time></trkpt><trkpt lat="46.06876443000396" lon="12.110130923567286"><ele>338.0</ele><time>2026-05-03T10:47:08.001Z</time></trkpt><trkpt lat="46.06871820751531" lon="12.109822581795148"><ele>338.0</ele><time>2026-05-03T10:47:09.001Z</time></trkpt><trkpt lat="46.06866106145462" lon="12.109515000877296"><ele>338.0</ele><time>2026-05-03T10:47:10.001Z</time></trkpt><trkpt lat="46.06860142403025" lon="12.109196971546856"><ele>338.0</ele><time>2026-05-03T10:47:11.001Z</time></trkpt><trkpt lat="46.068535022301646" lon="12.10888422332076"><ele>337.0</ele><time>2026-05-03T10:47:12.001Z</time></trkpt><trkpt lat="46.06846563543454" lon="12.108567646714684"><ele>336.0</ele><time>2026-05-03T10:47:13.001Z</time></trkpt><trkpt lat="46.06838923746733" lon="12.10825880987206"><ele>335.5</ele><time>2026-05-03T10:47:14.001Z</time></trkpt><trkpt lat="46.06830842733054" lon="12.107951013246497"><ele>335.0</ele><time>2026-05-03T10:47:15.001Z</time></trkpt><trkpt lat="46.06822916902342" lon="12.107641438008411"><ele>335.5</ele><time>2026-05-03T10:47:16.001Z</time></trkpt><trkpt lat="46.068149424937786" lon="12.107329504147515"><ele>336.0</ele><time>2026-05-03T10:47:17.001Z</time></trkpt><trkpt lat="46.06807174888203" lon="12.107017944545472"><ele>336.0</ele><time>2026-05-03T10:47:18.001Z</time></trkpt><trkpt lat="46.067992026375016" lon="12.106704521718202"><ele>336.0</ele><time>2026-05-03T10:47:19.001Z</time></trkpt><trkpt lat="46.06790861092398" lon="12.106393112884668"><ele>335.0</ele><time>2026-05-03T10:47:20.001Z</time></trkpt><trkpt lat="46.06782890016304" lon="12.106085880695368"><ele>334.0</ele><time>2026-05-03T10:47:21.001Z</time></trkpt><trkpt lat="46.067749205578046" lon="12.105774693121516"><ele>333.0</ele><time>2026-05-03T10:47:22.001Z</time></trkpt><trkpt lat="46.06767227625066" lon="12.10546582403656"><ele>332.0</ele><time>2026-05-03T10:47:23.001Z</time></trkpt><trkpt lat="46.06759674638386" lon="12.105153395506242"><ele>332.0</ele><time>2026-05-03T10:47:24.001Z</time></trkpt><trkpt lat="46.06751917036469" lon="12.104841870497376"><ele>332.0</ele><time>2026-05-03T10:47:25.001Z</time></trkpt><trkpt lat="46.067439422830205" lon="12.104529897736969"><ele>332.0</ele><time>2026-05-03T10:47:26.001Z</time></trkpt><trkpt lat="46.06736290075138" lon="12.104222239664786"><ele>332.0</ele><time>2026-05-03T10:47:27.001Z</time></trkpt><trkpt lat="46.06728689070166" lon="12.103918806125872"><ele>331.0</ele><time>2026-05-03T10:47:28.001Z</time></trkpt><trkpt lat="46.06721124585337" lon="12.103613510394323"><ele>330.0</ele><time>2026-05-03T10:47:29.001Z</time></trkpt><trkpt lat="46.067135900108966" lon="12.103303392072233"><ele>329.5</ele><time>2026-05-03T10:47:30.001Z</time></trkpt><trkpt lat="46.067059666461056" lon="12.102996705169149"><ele>329.0</ele><time>2026-05-03T10:47:31.001Z</time></trkpt><trkpt lat="46.066985832433126" lon="12.102687107061316"><ele>328.6666666666667</ele><time>2026-05-03T10:47:32.001Z</time></trkpt><trkpt lat="46.06691596915671" lon="12.102380982937563"><ele>328.3333333333333</ele><time>2026-05-03T10:47:33.001Z</time></trkpt><trkpt lat="46.06684498253567" lon="12.102080781007807"><ele>328.0</ele><time>2026-05-03T10:47:34.001Z</time></trkpt><trkpt lat="46.06677297019466" lon="12.101784118571297"><ele>327.66666666666663</ele><time>2026-05-03T10:47:35.001Z</time></trkpt><trkpt lat="46.066697123784884" lon="12.101483962431473"><ele>327.3333333333333</ele><time>2026-05-03T10:47:36.001Z</time></trkpt><trkpt lat="46.06661566849448" lon="12.101182010449211"><ele>327.0</ele><time>2026-05-03T10:47:37.001Z</time></trkpt><trkpt lat="46.06654384450257" lon="12.10088247194718"><ele>327.0</ele><time>2026-05-03T10:47:38.001Z</time></trkpt><trkpt lat="46.066473578513225" lon="12.100582253345225"><ele>327.0</ele><time>2026-05-03T10:47:39.001Z</time></trkpt><trkpt lat="46.06640551172224" lon="12.100289036438944"><ele>327.0</ele><time>2026-05-03T10:47:40.001Z</time></trkpt><trkpt lat="46.0663352837323" lon="12.1000122593189"><ele>326.3333333333333</ele><time>2026-05-03T10:47:41.001Z</time></trkpt><trkpt lat="46.06627246206054" lon="12.099757672722264"><ele>325.66666666666663</ele><time>2026-05-03T10:47:42.001Z</time></trkpt><trkpt lat="46.066220083134354" lon="12.09951257358149"><ele>325.0</ele><time>2026-05-03T10:47:43.001Z</time></trkpt><trkpt lat="46.06616635357804" lon="12.099262292218642"><ele>324.0</ele><time>2026-05-03T10:47:44.001Z</time></trkpt><trkpt lat="46.06611213867929" lon="12.099009328476935"><ele>323.0</ele><time>2026-05-03T10:47:45.001Z</time></trkpt><trkpt lat="46.06605578420748" lon="12.098745532837667"><ele>322.0</ele><time>2026-05-03T10:47:46.001Z</time></trkpt><trkpt lat="46.06599756890269" lon="12.098484697294325"><ele>322.3333333333333</ele><time>2026-05-03T10:47:47.001Z</time></trkpt><trkpt lat="46.06594374416703" lon="12.09822732173597"><ele>322.6666666666667</ele><time>2026-05-03T10:47:48.001Z</time></trkpt><trkpt lat="46.065890728047066" lon="12.097967673896324"><ele>323.0</ele><time>2026-05-03T10:47:49.001Z</time></trkpt><trkpt lat="46.06584121078704" lon="12.097707955059507"><ele>323.0</ele><time>2026-05-03T10:47:50.001Z</time></trkpt><trkpt lat="46.065788655317974" lon="12.097450367902272"><ele>323.0</ele><time>2026-05-03T10:47:51.001Z</time></trkpt><trkpt lat="46.065735372276684" lon="12.097197343336108"><ele>323.0</ele><time>2026-05-03T10:47:52.001Z</time></trkpt><trkpt lat="46.065678366642636" lon="12.096939509802372"><ele>323.33333333333337</ele><time>2026-05-03T10:47:53.001Z</time></trkpt><trkpt lat="46.065624235659385" lon="12.096685072040646"><ele>323.6666666666667</ele><time>2026-05-03T10:47:54.001Z</time></trkpt><trkpt lat="46.06556823539335" lon="12.096430938946488"><ele>324.0</ele><time>2026-05-03T10:47:55.001Z</time></trkpt><trkpt lat="46.065515932761954" lon="12.096177782879924"><ele>324.0</ele><time>2026-05-03T10:47:56.001Z</time></trkpt><trkpt lat="46.06546805121527" lon="12.09592555451809"><ele>324.0</ele><time>2026-05-03T10:47:57.001Z</time></trkpt><trkpt lat="46.065409409547286" lon="12.09567156914435"><ele>324.0</ele><time>2026-05-03T10:47:58.001Z</time></trkpt><trkpt lat="46.06535696568262" lon="12.095414989411383"><ele>323.3333333333333</ele><time>2026-05-03T10:47:59.001Z</time></trkpt><trkpt lat="46.06529992813768" lon="12.095151778169981"><ele>322.66666666666663</ele><time>2026-05-03T10:48:00.001Z</time></trkpt><trkpt lat="46.06524847159161" lon="12.094887793181343"><ele>322.0</ele><time>2026-05-03T10:48:01.001Z</time></trkpt><trkpt lat="46.06519411935956" lon="12.09463266889597"><ele>321.66666666666663</ele><time>2026-05-03T10:48:02.001Z</time></trkpt><trkpt lat="46.065140995740606" lon="12.094374101212956"><ele>321.3333333333333</ele><time>2026-05-03T10:48:03.001Z</time></trkpt><trkpt lat="46.065094394869874" lon="12.094123419275732"><ele>321.0</ele><time>2026-05-03T10:48:04.001Z</time></trkpt><trkpt lat="46.06503748732736" lon="12.093871480695073"><ele>321.6666666666667</ele><time>2026-05-03T10:48:05.001Z</time></trkpt><trkpt lat="46.064986855572975" lon="12.093618713310427"><ele>322.33333333333337</ele><time>2026-05-03T10:48:06.001Z</time></trkpt><trkpt lat="46.0649360088272" lon="12.093363855296598"><ele>323.0</ele><time>2026-05-03T10:48:07.001Z</time></trkpt><trkpt lat="46.06488912593638" lon="12.093110698459181"><ele>321.6666666666667</ele><time>2026-05-03T10:48:08.001Z</time></trkpt><trkpt lat="46.06484320323497" lon="12.092854958876456"><ele>320.3333333333333</ele><time>2026-05-03T10:48:09.001Z</time></trkpt><trkpt lat="46.064788437184355" lon="12.092601417362138"><ele>319.0</ele><time>2026-05-03T10:48:10.001Z</time></trkpt><trkpt lat="46.06472982972125" lon="12.092350278013594"><ele>319.0</ele><time>2026-05-03T10:48:11.001Z</time></trkpt><trkpt lat="46.064677903820645" lon="12.092104274749008"><ele>319.0</ele><time>2026-05-03T10:48:12.001Z</time></trkpt><trkpt lat="46.06463299495501" lon="12.091882805948677"><ele>319.0</ele><time>2026-05-03T10:48:13.001Z</time></trkpt><trkpt lat="46.0645873544747" lon="12.09167223693559"><ele>319.25</ele><time>2026-05-03T10:48:14.001Z</time></trkpt><trkpt lat="46.0645491867625" lon="12.091470036665864"><ele>319.5</ele><time>2026-05-03T10:48:15.001Z</time></trkpt><trkpt lat="46.06451222653791" lon="12.091276746613994"><ele>319.75</ele><time>2026-05-03T10:48:16.002Z</time></trkpt><trkpt lat="46.06447002783428" lon="12.091088228297885"><ele>320.0</ele><time>2026-05-03T10:48:17.002Z</time></trkpt><trkpt lat="46.06443653000164" lon="12.090899004184362"><ele>319.75</ele><time>2026-05-03T10:48:18.002Z</time></trkpt><trkpt lat="46.06439858877395" lon="12.090706282848792"><ele>319.5</ele><time>2026-05-03T10:48:19.002Z</time></trkpt><trkpt lat="46.064362889288766" lon="12.09050991613796"><ele>319.25</ele><time>2026-05-03T10:48:20.002Z</time></trkpt><trkpt lat="46.06432492103091" lon="12.090315158409238"><ele>319.0</ele><time>2026-05-03T10:48:21.002Z</time></trkpt><trkpt lat="46.06428366334478" lon="12.090125388074881"><ele>319.0</ele><time>2026-05-03T10:48:22.002Z</time></trkpt><trkpt lat="46.06423987100088" lon="12.089933511651363"><ele>319.0</ele><time>2026-05-03T10:48:23.002Z</time></trkpt><trkpt lat="46.06419812821404" lon="12.08973835521252"><ele>319.0</ele><time>2026-05-03T10:48:24.002Z</time></trkpt><trkpt lat="46.06416169979968" lon="12.089548145379824"><ele>319.0</ele><time>2026-05-03T10:48:25.002Z</time></trkpt><trkpt lat="46.064132462258875" lon="12.089365787978936"><ele>319.5</ele><time>2026-05-03T10:48:26.002Z</time></trkpt><trkpt lat="46.06409961859141" lon="12.089199143281354"><ele>320.0</ele><time>2026-05-03T10:48:27.002Z</time></trkpt><trkpt lat="46.06406787828672" lon="12.089031819502207"><ele>320.5</ele><time>2026-05-03T10:48:28.002Z</time></trkpt><trkpt lat="46.06403924314617" lon="12.088865757314192"><ele>321.0</ele><time>2026-05-03T10:48:29.002Z</time></trkpt><trkpt lat="46.06399662870908" lon="12.088699801563102"><ele>322.25</ele><time>2026-05-03T10:48:30.002Z</time></trkpt><trkpt lat="46.06396332970232" lon="12.088535031881726"><ele>323.5</ele><time>2026-05-03T10:48:31.002Z</time></trkpt><trkpt lat="46.06392981847386" lon="12.088364533269282"><ele>324.75</ele><time>2026-05-03T10:48:32.002Z</time></trkpt><trkpt lat="46.06389565458029" lon="12.088189923538366"><ele>326.0</ele><time>2026-05-03T10:48:33.002Z</time></trkpt><trkpt lat="46.06385795729876" lon="12.088022279009996"><ele>326.0</ele><time>2026-05-03T10:48:34.002Z</time></trkpt><trkpt lat="46.06382551916876" lon="12.087850748971599"><ele>326.0</ele><time>2026-05-03T10:48:35.002Z</time></trkpt><trkpt lat="46.063796488556314" lon="12.087679128184575"><ele>326.0</ele><time>2026-05-03T10:48:36.002Z</time></trkpt><trkpt lat="46.06375923823057" lon="12.08752079986344"><ele>326.0</ele><time>2026-05-03T10:48:37.002Z</time></trkpt><trkpt lat="46.06372207146064" lon="12.087368137332467"><ele>326.0</ele><time>2026-05-03T10:48:38.002Z</time></trkpt><trkpt lat="46.063686719101185" lon="12.087202847138471"><ele>326.0</ele><time>2026-05-03T10:48:39.002Z</time></trkpt><trkpt lat="46.06365118208295" lon="12.087035934278893"><ele>326.0</ele><time>2026-05-03T10:48:40.002Z</time></trkpt><trkpt lat="46.06361346420215" lon="12.086862330808428"><ele>326.0</ele><time>2026-05-03T10:48:41.002Z</time></trkpt><trkpt lat="46.06358275087681" lon="12.086687432398243"><ele>326.6</ele><time>2026-05-03T10:48:42.002Z</time></trkpt><trkpt lat="46.063545679116615" lon="12.086522766458714"><ele>327.20000000000005</ele><time>2026-05-03T10:48:43.002Z</time></trkpt><trkpt lat="46.06350973894691" lon="12.086368625444033"><ele>327.79999999999995</ele><time>2026-05-03T10:48:44.002Z</time></trkpt><trkpt lat="46.06348693567904" lon="12.086243778119405"><ele>328.4</ele><time>2026-05-03T10:48:45.002Z</time></trkpt><trkpt lat="46.063466165932205" lon="12.086134014660702"><ele>329.0</ele><time>2026-05-03T10:48:46.002Z</time></trkpt><trkpt lat="46.0634487209332" lon="12.086031819733096"><ele>329.0</ele><time>2026-05-03T10:48:47.002Z</time></trkpt><trkpt lat="46.06342674614208" lon="12.08591861113391"><ele>329.0</ele><time>2026-05-03T10:48:48.002Z</time></trkpt><trkpt lat="46.063403123218" lon="12.08579741279986"><ele>329.0</ele><time>2026-05-03T10:48:49.002Z</time></trkpt><trkpt lat="46.063379360308275" lon="12.08571197448049"><ele>329.0</ele><time>2026-05-03T10:48:50.002Z</time></trkpt><trkpt lat="46.06339087315252" lon="12.085618588707195"><ele>329.0</ele><time>2026-05-03T10:48:52.001Z</time></trkpt><trkpt lat="46.06352215907734" lon="12.085610431106359"><ele>329.0</ele><time>2026-05-03T10:48:54.001Z</time></trkpt><trkpt lat="46.06358094491643" lon="12.085521869773169"><ele>329.0</ele><time>2026-05-03T10:48:56.001Z</time></trkpt><trkpt lat="46.06363757811828" lon="12.085598547233769"><ele>329.0</ele><time>2026-05-03T10:48:58.001Z</time></trkpt><trkpt lat="46.06370045255464" lon="12.085707943476782"><ele>329.0</ele><time>2026-05-03T10:49:00.001Z</time></trkpt><trkpt lat="46.06376639096974" lon="12.085772294556788"><ele>329.0</ele><time>2026-05-03T10:49:03.001Z</time></trkpt><trkpt lat="46.06381979493472" lon="12.085858773426772"><ele>329.0</ele><time>2026-05-03T10:49:05Z</time></trkpt><trkpt lat="46.063873265369246" lon="12.085920873738338"><ele>329.0</ele><time>2026-05-03T10:49:06Z</time></trkpt><trkpt lat="46.06393209737839" lon="12.085995851018343"><ele>329.0</ele><time>2026-05-03T10:49:07Z</time></trkpt><trkpt lat="46.06399583063237" lon="12.086061515848666"><ele>329.0</ele><time>2026-05-03T10:49:08Z</time></trkpt><trkpt lat="46.06405866763705" lon="12.086109004551444"><ele>329.0</ele><time>2026-05-03T10:49:09Z</time></trkpt><trkpt lat="46.064117047728566" lon="12.086147636220774"><ele>329.0</ele><time>2026-05-03T10:49:10Z</time></trkpt><trkpt lat="46.06417659934668" lon="12.086182323318267"><ele>329.0</ele><time>2026-05-03T10:49:11Z</time></trkpt><trkpt lat="46.064278087105706" lon="12.086252686505352"><ele>329.0</ele><time>2026-05-03T10:49:13Z</time></trkpt><trkpt lat="46.064372714216326" lon="12.086312852732611"><ele>329.0</ele><time>2026-05-03T10:49:15Z</time></trkpt><trkpt lat="46.06444038542492" lon="12.086390746738376"><ele>329.0</ele><time>2026-05-03T10:49:17Z</time></trkpt><trkpt lat="46.06436662143582" lon="12.086328100388512"><ele>329.0</ele><time>2026-05-03T10:49:25Z</time></trkpt><trkpt lat="46.06429863426091" lon="12.086283923852108"><ele>329.0</ele><time>2026-05-03T10:49:26Z</time></trkpt><trkpt lat="46.064236794982634" lon="12.086243742093595"><ele>329.0</ele><time>2026-05-03T10:49:27Z</time></trkpt><trkpt lat="46.064132080321485" lon="12.086169500793586"><ele>329.0</ele><time>2026-05-03T10:49:29Z</time></trkpt><trkpt lat="46.064074801486505" lon="12.08609885126616"><ele>329.0</ele><time>2026-05-03T10:49:30Z</time></trkpt><trkpt lat="46.0640023101958" lon="12.086051533278342"><ele>329.0</ele><time>2026-05-03T10:49:31Z</time></trkpt><trkpt lat="46.06392698911298" lon="12.085997631102206"><ele>329.0</ele><time>2026-05-03T10:49:32Z</time></trkpt><trkpt lat="46.0638463344538" lon="12.085926005213825"><ele>329.0</ele><time>2026-05-03T10:49:33Z</time></trkpt><trkpt lat="46.06375853312567" lon="12.08586207632685"><ele>329.0</ele><time>2026-05-03T10:49:34Z</time></trkpt><trkpt lat="46.063704017697425" lon="12.085798166420496"><ele>329.0</ele><time>2026-05-03T10:49:35Z</time></trkpt><trkpt lat="46.063836378408794" lon="12.08557761113001"><ele>329.6666666666667</ele><time>2026-05-03T10:49:38Z</time></trkpt><trkpt lat="46.06390675682979" lon="12.085522229838926"><ele>330.33333333333337</ele><time>2026-05-03T10:49:39Z</time></trkpt><trkpt lat="46.06398690588685" lon="12.085470205835882"><ele>331.0</ele><time>2026-05-03T10:49:40Z</time></trkpt><trkpt lat="46.064069098405305" lon="12.085422480841244"><ele>331.6666666666667</ele><time>2026-05-03T10:49:41Z</time></trkpt><trkpt lat="46.06415036632741" lon="12.085385795797846"><ele>332.3333333333333</ele><time>2026-05-03T10:49:42Z</time></trkpt><trkpt lat="46.064233235254505" lon="12.085371069488293"><ele>333.0</ele><time>2026-05-03T10:49:43Z</time></trkpt><trkpt lat="46.06433242444078" lon="12.085370600277104"><ele>333.6666666666667</ele><time>2026-05-03T10:49:45Z</time></trkpt><trkpt lat="46.0644050449104" lon="12.085335117714882"><ele>334.3333333333333</ele><time>2026-05-03T10:49:47Z</time></trkpt><trkpt lat="46.06450397853579" lon="12.085389164036341"><ele>335.0</ele><time>2026-05-03T10:49:56Z</time></trkpt><trkpt lat="46.064587430913065" lon="12.085395991123855"><ele>335.66666666666663</ele><time>2026-05-03T10:49:57Z</time></trkpt><trkpt lat="46.06467659825938" lon="12.08540309176499"><ele>336.3333333333333</ele><time>2026-05-03T10:49:58Z</time></trkpt><trkpt lat="46.0647656855467" lon="12.085413483419591"><ele>337.0</ele><time>2026-05-03T10:49:59Z</time></trkpt><trkpt lat="46.06484574929513" lon="12.085405776707182"><ele>337.0</ele><time>2026-05-03T10:50:00Z</time></trkpt><trkpt lat="46.06490863970471" lon="12.085379004135214"><ele>337.0</ele><time>2026-05-03T10:50:01Z</time></trkpt><trkpt lat="46.06481970944365" lon="12.085368109407364"><ele>337.0</ele><time>2026-05-03T10:50:47.001Z</time></trkpt><trkpt lat="46.064737787711614" lon="12.085415790738844"><ele>337.0</ele><time>2026-05-03T10:50:49.001Z</time></trkpt><trkpt lat="46.064644763689195" lon="12.085409838032417"><ele>337.0</ele><time>2026-05-03T10:50:51.001Z</time></trkpt><trkpt lat="46.06455611654116" lon="12.085387480431585"><ele>337.0</ele><time>2026-05-03T10:50:53.001Z</time></trkpt><trkpt lat="46.06445449368056" lon="12.08536902750051"><ele>337.0</ele><time>2026-05-03T10:50:55Z</time></trkpt><trkpt lat="46.064340830852885" lon="12.085361730631776"><ele>337.0</ele><time>2026-05-03T10:50:57Z</time></trkpt><trkpt lat="46.06423304049621" lon="12.085379010694188"><ele>337.0</ele><time>2026-05-03T10:50:59Z</time></trkpt><trkpt lat="46.0641644115472" lon="12.085368311585528"><ele>337.0</ele><time>2026-05-03T10:51:00Z</time></trkpt><trkpt lat="46.064099727959864" lon="12.085381712288095"><ele>337.0</ele><time>2026-05-03T10:51:01Z</time></trkpt><trkpt lat="46.06404355783659" lon="12.08542620932087"><ele>337.0</ele><time>2026-05-03T10:51:02Z</time></trkpt><trkpt lat="46.06393480307732" lon="12.085509806025662"><ele>336.20000000000005</ele><time>2026-05-03T10:51:04Z</time></trkpt><trkpt lat="46.06383300455063" lon="12.085603225179169"><ele>335.4</ele><time>2026-05-03T10:51:06Z</time></trkpt><trkpt lat="46.063731482037596" lon="12.085671430017763"><ele>334.6</ele><time>2026-05-03T10:51:08Z</time></trkpt><trkpt lat="46.06363593160591" lon="12.08562044858897"><ele>333.79999999999995</ele><time>2026-05-03T10:51:10Z</time></trkpt><trkpt lat="46.06358966127265" lon="12.085550212659058"><ele>333.0</ele><time>2026-05-03T10:51:11Z</time></trkpt><trkpt lat="46.06356173766692" lon="12.085434968065645"><ele>333.0</ele><time>2026-05-03T10:51:12Z</time></trkpt><trkpt lat="46.0635115466459" lon="12.08535730186817"><ele>333.0</ele><time>2026-05-03T10:51:13Z</time></trkpt><trkpt lat="46.06346789374755" lon="12.085273031133188"><ele>333.0</ele><time>2026-05-03T10:51:14Z</time></trkpt><trkpt lat="46.06343418340892" lon="12.085173304925316"><ele>333.0</ele><time>2026-05-03T10:51:15Z</time></trkpt><trkpt lat="46.063394750208836" lon="12.08508847811713"><ele>333.0</ele><time>2026-05-03T10:51:16Z</time></trkpt><trkpt lat="46.06333772050908" lon="12.084961025379489"><ele>333.0</ele><time>2026-05-03T10:51:18Z</time></trkpt><trkpt lat="46.06329089948787" lon="12.084890671152195"><ele>332.8333333333333</ele><time>2026-05-03T10:51:19Z</time></trkpt><trkpt lat="46.06325867975342" lon="12.084799006472236"><ele>332.6666666666667</ele><time>2026-05-03T10:51:20Z</time></trkpt><trkpt lat="46.063224134492906" lon="12.084702520743749"><ele>332.5</ele><time>2026-05-03T10:51:21Z</time></trkpt><trkpt lat="46.06318951286142" lon="12.084599320501656"><ele>332.33333333333337</ele><time>2026-05-03T10:51:22Z</time></trkpt><trkpt lat="46.06315349985637" lon="12.08448486436585"><ele>332.1666666666667</ele><time>2026-05-03T10:51:23Z</time></trkpt><trkpt lat="46.063120437228065" lon="12.084377195560519"><ele>332.0</ele><time>2026-05-03T10:51:24Z</time></trkpt><trkpt lat="46.06308499658161" lon="12.084265026343477"><ele>332.0</ele><time>2026-05-03T10:51:25Z</time></trkpt><trkpt lat="46.06304406982793" lon="12.084161312606321"><ele>332.0</ele><time>2026-05-03T10:51:26Z</time></trkpt><trkpt lat="46.06300682690384" lon="12.084051584095244"><ele>332.0</ele><time>2026-05-03T10:51:27Z</time></trkpt><trkpt lat="46.06297982528967" lon="12.083927707892691"><ele>332.0</ele><time>2026-05-03T10:51:28Z</time></trkpt><trkpt lat="46.06294015258725" lon="12.08380336222915"><ele>332.0</ele><time>2026-05-03T10:51:29Z</time></trkpt><trkpt lat="46.06290306079463" lon="12.083682719108353"><ele>332.0</ele><time>2026-05-03T10:51:30Z</time></trkpt><trkpt lat="46.06285816495663" lon="12.083561593185326"><ele>333.0</ele><time>2026-05-03T10:51:31Z</time></trkpt><trkpt lat="46.0628171692997" lon="12.0834479254329"><ele>334.0</ele><time>2026-05-03T10:51:32Z</time></trkpt><trkpt lat="46.062772408654155" lon="12.083331834212249"><ele>335.0</ele><time>2026-05-03T10:51:33Z</time></trkpt><trkpt lat="46.06272725263793" lon="12.08321265582167"><ele>336.0</ele><time>2026-05-03T10:51:34Z</time></trkpt><trkpt lat="46.06268049774669" lon="12.083080021436471"><ele>337.0</ele><time>2026-05-03T10:51:35Z</time></trkpt><trkpt lat="46.06262565921389" lon="12.082954970688455"><ele>337.40000000000003</ele><time>2026-05-03T10:51:36Z</time></trkpt><trkpt lat="46.06257924970844" lon="12.082826216028796"><ele>337.8</ele><time>2026-05-03T10:51:37Z</time></trkpt><trkpt lat="46.062534047462584" lon="12.082697931466468"><ele>338.2</ele><time>2026-05-03T10:51:38Z</time></trkpt><trkpt lat="46.062476493753294" lon="12.08257521773536"><ele>338.6</ele><time>2026-05-03T10:51:39Z</time></trkpt><trkpt lat="46.06242674014319" lon="12.082451930349487"><ele>339.0</ele><time>2026-05-03T10:51:40Z</time></trkpt><trkpt lat="46.062378530810754" lon="12.082320476449713"><ele>339.0</ele><time>2026-05-03T10:51:41Z</time></trkpt><trkpt lat="46.062327795096294" lon="12.082193710613875"><ele>339.0</ele><time>2026-05-03T10:51:42Z</time></trkpt><trkpt lat="46.06228093485433" lon="12.082071274248664"><ele>339.0</ele><time>2026-05-03T10:51:43Z</time></trkpt><trkpt lat="46.062235958881516" lon="12.08194392290768"><ele>339.0</ele><time>2026-05-03T10:51:44Z</time></trkpt><trkpt lat="46.062184087455634" lon="12.081815084829127"><ele>339.0</ele><time>2026-05-03T10:51:45Z</time></trkpt><trkpt lat="46.0621353349688" lon="12.081684885808853"><ele>340.79999999999995</ele><time>2026-05-03T10:51:46Z</time></trkpt><trkpt lat="46.06208932520165" lon="12.081554374234697"><ele>342.59999999999997</ele><time>2026-05-03T10:51:47Z</time></trkpt><trkpt lat="46.06204435280887" lon="12.081416163933092"><ele>344.4</ele><time>2026-05-03T10:51:48Z</time></trkpt><trkpt lat="46.06200006899084" lon="12.081283195788231"><ele>346.2</ele><time>2026-05-03T10:51:49Z</time></trkpt><trkpt lat="46.06196160776117" lon="12.081156467225012"><ele>348.0</ele><time>2026-05-03T10:51:50Z</time></trkpt><trkpt lat="46.06193983090092" lon="12.081054661063822"><ele>348.0</ele><time>2026-05-03T10:51:51Z</time></trkpt><trkpt lat="46.06192449676118" lon="12.080963986025099"><ele>348.0</ele><time>2026-05-03T10:51:52Z</time></trkpt><trkpt lat="46.0618968657387" lon="12.080825940595915"><ele>348.0</ele><time>2026-05-03T10:51:54Z</time></trkpt><trkpt lat="46.06185780691748" lon="12.080744175667371"><ele>348.0</ele><time>2026-05-03T10:52:09Z</time></trkpt><trkpt lat="46.061825831445546" lon="12.080620801763121"><ele>348.0</ele><time>2026-05-03T10:52:15Z</time></trkpt><trkpt lat="46.06177410732938" lon="12.080515895980824"><ele>348.0</ele><time>2026-05-03T10:52:17Z</time></trkpt><trkpt lat="46.061756530737796" lon="12.080392138133412"><ele>348.6666666666667</ele><time>2026-05-03T10:52:20Z</time></trkpt><trkpt lat="46.06171878211779" lon="12.080306177883678"><ele>349.3333333333333</ele><time>2026-05-03T10:52:23Z</time></trkpt><trkpt lat="46.06167856523561" lon="12.080213582353124"><ele>350.0</ele><time>2026-05-03T10:52:26Z</time></trkpt><trkpt lat="46.06166647497347" lon="12.080108817732059"><ele>350.66666666666663</ele><time>2026-05-03T10:52:29.001Z</time></trkpt><trkpt lat="46.06163661367454" lon="12.079996425053528"><ele>351.3333333333333</ele><time>2026-05-03T10:52:33.001Z</time></trkpt><trkpt lat="46.06160342845589" lon="12.079899347880877"><ele>352.0</ele><time>2026-05-03T10:52:35.001Z</time></trkpt><trkpt lat="46.06158382660726" lon="12.07977050838034"><ele>351.8</ele><time>2026-05-03T10:52:37.001Z</time></trkpt><trkpt lat="46.06158053277536" lon="12.079634698381486"><ele>351.6</ele><time>2026-05-03T10:52:39.001Z</time></trkpt><trkpt lat="46.06155913277714" lon="12.079488727947734"><ele>351.40000000000003</ele><time>2026-05-03T10:52:41.001Z</time></trkpt><trkpt lat="46.06160471519288" lon="12.079318225473108"><ele>351.20000000000005</ele><time>2026-05-03T10:52:43.001Z</time></trkpt><trkpt lat="46.061633043893806" lon="12.079170858720786"><ele>351.0</ele><time>2026-05-03T10:52:45.001Z</time></trkpt><trkpt lat="46.0616488226682" lon="12.079019636004068"><ele>350.0</ele><time>2026-05-03T10:52:47Z</time></trkpt><trkpt lat="46.06170794689226" lon="12.078874220738108"><ele>349.0</ele><time>2026-05-03T10:52:49Z</time></trkpt><trkpt lat="46.06173676736257" lon="12.078771048801837"><ele>348.0</ele><time>2026-05-03T10:52:50Z</time></trkpt><trkpt lat="46.0617634841672" lon="12.078644542397669"><ele>347.0</ele><time>2026-05-03T10:52:51Z</time></trkpt><trkpt lat="46.06177499257702" lon="12.078524519652904"><ele>346.0</ele><time>2026-05-03T10:52:52Z</time></trkpt><trkpt lat="46.061773731978455" lon="12.078402820325834"><ele>345.20000000000005</ele><time>2026-05-03T10:52:53Z</time></trkpt><trkpt lat="46.06176664004119" lon="12.078264542772002"><ele>344.40000000000003</ele><time>2026-05-03T10:52:54Z</time></trkpt><trkpt lat="46.061747198923015" lon="12.07812105110245"><ele>343.6</ele><time>2026-05-03T10:52:55Z</time></trkpt><trkpt lat="46.06172118716064" lon="12.077970215927563"><ele>342.8</ele><time>2026-05-03T10:52:56Z</time></trkpt><trkpt lat="46.06169978078971" lon="12.077821860058991"><ele>342.0</ele><time>2026-05-03T10:52:57Z</time></trkpt><trkpt lat="46.061681893153704" lon="12.077665664433903"><ele>342.0</ele><time>2026-05-03T10:52:58Z</time></trkpt><trkpt lat="46.06167901414525" lon="12.077512042052062"><ele>342.0</ele><time>2026-05-03T10:52:59Z</time></trkpt><trkpt lat="46.06168856781646" lon="12.07736450840946"><ele>342.0</ele><time>2026-05-03T10:53:00Z</time></trkpt><trkpt lat="46.06170489581915" lon="12.077229005186993"><ele>342.0</ele><time>2026-05-03T10:53:01Z</time></trkpt><trkpt lat="46.06171916624068" lon="12.077101974683854"><ele>342.0</ele><time>2026-05-03T10:53:02Z</time></trkpt><trkpt lat="46.06173881987889" lon="12.076975729576501"><ele>341.40000000000003</ele><time>2026-05-03T10:53:03Z</time></trkpt><trkpt lat="46.06176818099221" lon="12.076840799723652"><ele>340.8</ele><time>2026-05-03T10:53:04Z</time></trkpt><trkpt lat="46.061802457422154" lon="12.076717472621906"><ele>340.2</ele><time>2026-05-03T10:53:05Z</time></trkpt><trkpt lat="46.061834600914345" lon="12.07658946385888"><ele>339.6</ele><time>2026-05-03T10:53:06Z</time></trkpt><trkpt lat="46.06186705732259" lon="12.076443618513595"><ele>339.0</ele><time>2026-05-03T10:53:07Z</time></trkpt><trkpt lat="46.06190717504892" lon="12.076291743872764"><ele>337.79999999999995</ele><time>2026-05-03T10:53:08Z</time></trkpt><trkpt lat="46.06194862880243" lon="12.076149900640347"><ele>336.59999999999997</ele><time>2026-05-03T10:53:09Z</time></trkpt><trkpt lat="46.061983012991725" lon="12.07601638986079"><ele>335.4</ele><time>2026-05-03T10:53:10Z</time></trkpt><trkpt lat="46.06201858745589" lon="12.075883879044556"><ele>334.2</ele><time>2026-05-03T10:53:11Z</time></trkpt><trkpt lat="46.06205717669344" lon="12.075758440678495"><ele>333.0</ele><time>2026-05-03T10:53:12Z</time></trkpt><trkpt lat="46.06209323597145" lon="12.075638297468881"><ele>331.79999999999995</ele><time>2026-05-03T10:53:13Z</time></trkpt><trkpt lat="46.06213000906911" lon="12.07551776801311"><ele>330.6</ele><time>2026-05-03T10:53:14Z</time></trkpt><trkpt lat="46.06217318913508" lon="12.075403165236064"><ele>329.4</ele><time>2026-05-03T10:53:15Z</time></trkpt><trkpt lat="46.0622373258307" lon="12.075315665462373"><ele>328.20000000000005</ele><time>2026-05-03T10:53:16Z</time></trkpt><trkpt lat="46.062314921201505" lon="12.075256317569757"><ele>327.0</ele><time>2026-05-03T10:53:17Z</time></trkpt><trkpt lat="46.062413597132355" lon="12.075285105567248"><ele>326.20000000000005</ele><time>2026-05-03T10:53:18Z</time></trkpt><trkpt lat="46.06250572213829" lon="12.075330881411022"><ele>325.4</ele><time>2026-05-03T10:53:19Z</time></trkpt><trkpt lat="46.06261465636371" lon="12.075359083215755"><ele>324.6</ele><time>2026-05-03T10:53:20Z</time></trkpt><trkpt lat="46.06271059506481" lon="12.075415369744121"><ele>323.79999999999995</ele><time>2026-05-03T10:53:21Z</time></trkpt><trkpt lat="46.06280183941062" lon="12.07546445526669"><ele>323.0</ele><time>2026-05-03T10:53:22Z</time></trkpt><trkpt lat="46.062877537957206" lon="12.075505206658024"><ele>323.0</ele><time>2026-05-03T10:53:23Z</time></trkpt><trkpt lat="46.062978706859326" lon="12.07543862746756"><ele>323.0</ele><time>2026-05-03T10:53:25Z</time></trkpt><trkpt lat="46.06297057759303" lon="12.07532844448926"><ele>323.0</ele><time>2026-05-03T10:53:26Z</time></trkpt><trkpt lat="46.06290924305634" lon="12.075242374489974"><ele>323.0</ele><time>2026-05-03T10:53:27Z</time></trkpt><trkpt lat="46.06282478325477" lon="12.075159511829893"><ele>323.0</ele><time>2026-05-03T10:53:28Z</time></trkpt><trkpt lat="46.062734585769554" lon="12.075057519339746"><ele>322.0</ele><time>2026-05-03T10:53:29Z</time></trkpt><trkpt lat="46.06264655741646" lon="12.074935840973767"><ele>321.0</ele><time>2026-05-03T10:53:30Z</time></trkpt><trkpt lat="46.06254553152932" lon="12.07480546499599"><ele>320.0</ele><time>2026-05-03T10:53:31Z</time></trkpt><trkpt lat="46.06244692842956" lon="12.07466269138048"><ele>319.0</ele><time>2026-05-03T10:53:32Z</time></trkpt><trkpt lat="46.0623458261651" lon="12.07452181802085"><ele>319.0</ele><time>2026-05-03T10:53:33Z</time></trkpt><trkpt lat="46.06225876467035" lon="12.074395326029114"><ele>319.0</ele><time>2026-05-03T10:53:34Z</time></trkpt><trkpt lat="46.06217475475018" lon="12.074282510808617"><ele>319.0</ele><time>2026-05-03T10:53:35Z</time></trkpt><trkpt lat="46.06209188940884" lon="12.07416115903662"><ele>319.0</ele><time>2026-05-03T10:53:36Z</time></trkpt><trkpt lat="46.06200471548603" lon="12.074034188153886"><ele>317.0</ele><time>2026-05-03T10:53:37Z</time></trkpt><trkpt lat="46.06191953924408" lon="12.073911972475896"><ele>315.0</ele><time>2026-05-03T10:53:38Z</time></trkpt><trkpt lat="46.06184703893284" lon="12.073790116683403"><ele>313.0</ele><time>2026-05-03T10:53:39Z</time></trkpt><trkpt lat="46.06178393435609" lon="12.073640320736825"><ele>311.0</ele><time>2026-05-03T10:53:40Z</time></trkpt><trkpt lat="46.0617629116514" lon="12.073453934134248"><ele>311.0</ele><time>2026-05-03T10:53:41Z</time></trkpt><trkpt lat="46.06172879184373" lon="12.073273066350948"><ele>311.0</ele><time>2026-05-03T10:53:42Z</time></trkpt><trkpt lat="46.06168267434928" lon="12.073088222975999"><ele>311.0</ele><time>2026-05-03T10:53:43Z</time></trkpt><trkpt lat="46.06164954683928" lon="12.07290616420273"><ele>311.0</ele><time>2026-05-03T10:53:44Z</time></trkpt><trkpt lat="46.06161787625943" lon="12.072719359667207"><ele>311.0</ele><time>2026-05-03T10:53:45Z</time></trkpt><trkpt lat="46.06158182454771" lon="12.07251994236327"><ele>311.0</ele><time>2026-05-03T10:53:46Z</time></trkpt><trkpt lat="46.06153876686821" lon="12.07231250321074"><ele>311.0</ele><time>2026-05-03T10:53:47Z</time></trkpt><trkpt lat="46.061495589660375" lon="12.072114463039345"><ele>311.0</ele><time>2026-05-03T10:53:48Z</time></trkpt><trkpt lat="46.06144540035286" lon="12.071935295066009"><ele>309.5</ele><time>2026-05-03T10:53:49Z</time></trkpt><trkpt lat="46.06138978977315" lon="12.071772763220793"><ele>308.0</ele><time>2026-05-03T10:53:50Z</time></trkpt><trkpt lat="46.06134546682691" lon="12.071614499471021"><ele>306.5</ele><time>2026-05-03T10:53:51Z</time></trkpt><trkpt lat="46.06129617401633" lon="12.07146127783549"><ele>305.0</ele><time>2026-05-03T10:53:52Z</time></trkpt><trkpt lat="46.06124897927626" lon="12.071311103963959"><ele>302.8</ele><time>2026-05-03T10:53:53Z</time></trkpt><trkpt lat="46.06120704458802" lon="12.071169241622433"><ele>300.6</ele><time>2026-05-03T10:53:54Z</time></trkpt><trkpt lat="46.06117728400979" lon="12.071029167638645"><ele>298.4</ele><time>2026-05-03T10:53:55Z</time></trkpt><trkpt lat="46.06118025358827" lon="12.070882409996317"><ele>296.2</ele><time>2026-05-03T10:53:56Z</time></trkpt><trkpt lat="46.061215944667396" lon="12.07075038095986"><ele>294.0</ele><time>2026-05-03T10:53:57Z</time></trkpt><trkpt lat="46.06127174826671" lon="12.070612375471361"><ele>291.0</ele><time>2026-05-03T10:53:58Z</time></trkpt><trkpt lat="46.0613398795195" lon="12.07047501520236"><ele>288.0</ele><time>2026-05-03T10:53:59Z</time></trkpt><trkpt lat="46.061417685379965" lon="12.070337592451184"><ele>285.0</ele><time>2026-05-03T10:54:00Z</time></trkpt><trkpt lat="46.061506736590985" lon="12.070246791272975"><ele>282.0</ele><time>2026-05-03T10:54:01Z</time></trkpt><trkpt lat="46.06160504028705" lon="12.070188343259376"><ele>280.8</ele><time>2026-05-03T10:54:02Z</time></trkpt><trkpt lat="46.06170957709677" lon="12.070125781603277"><ele>279.6</ele><time>2026-05-03T10:54:03Z</time></trkpt><trkpt lat="46.061802593320444" lon="12.070057406829033"><ele>278.40000000000003</ele><time>2026-05-03T10:54:04Z</time></trkpt><trkpt lat="46.061894600825404" lon="12.070007124736117"><ele>277.2</ele><time>2026-05-03T10:54:05Z</time></trkpt><trkpt lat="46.061980192566935" lon="12.06994924943791"><ele>276.0</ele><time>2026-05-03T10:54:06Z</time></trkpt><trkpt lat="46.062047807561335" lon="12.069895011052068"><ele>276.0</ele><time>2026-05-03T10:54:07Z</time></trkpt><trkpt lat="46.06207646181233" lon="12.069808886822926"><ele>276.0</ele><time>2026-05-03T10:54:08Z</time></trkpt><trkpt lat="46.062042397409" lon="12.069717444621903"><ele>276.0</ele><time>2026-05-03T10:54:09Z</time></trkpt><trkpt lat="46.06196001946059" lon="12.069673084149342"><ele>276.0</ele><time>2026-05-03T10:54:10Z</time></trkpt><trkpt lat="46.06185181881376" lon="12.069657937445026"><ele>276.0</ele><time>2026-05-03T10:54:11Z</time></trkpt><trkpt lat="46.061737212633794" lon="12.069676097688266"><ele>276.0</ele><time>2026-05-03T10:54:12Z</time></trkpt><trkpt lat="46.061633388099544" lon="12.069765994033594"><ele>276.0</ele><time>2026-05-03T10:54:13Z</time></trkpt><trkpt lat="46.061543534888195" lon="12.069881687095272"><ele>276.0</ele><time>2026-05-03T10:54:14Z</time></trkpt><trkpt lat="46.0614422693095" lon="12.06998781319036"><ele>276.0</ele><time>2026-05-03T10:54:15Z</time></trkpt><trkpt lat="46.061334141766835" lon="12.070053938005737"><ele>277.2</ele><time>2026-05-03T10:54:16Z</time></trkpt><trkpt lat="46.0612443833679" lon="12.070127577167067"><ele>278.40000000000003</ele><time>2026-05-03T10:54:17Z</time></trkpt><trkpt lat="46.06115518989755" lon="12.07016751428181"><ele>279.6</ele><time>2026-05-03T10:54:18Z</time></trkpt><trkpt lat="46.06106448723593" lon="12.070165691182927"><ele>280.8</ele><time>2026-05-03T10:54:19Z</time></trkpt><trkpt lat="46.06096298561962" lon="12.070167645405734"><ele>282.0</ele><time>2026-05-03T10:54:20Z</time></trkpt><trkpt lat="46.06087132471293" lon="12.07009898165676"><ele>282.0</ele><time>2026-05-03T10:54:21Z</time></trkpt><trkpt lat="46.060786713412945" lon="12.069997042922136"><ele>282.0</ele><time>2026-05-03T10:54:22Z</time></trkpt><trkpt lat="46.06072173109376" lon="12.069853376018523"><ele>282.0</ele><time>2026-05-03T10:54:23Z</time></trkpt><trkpt lat="46.06068733034727" lon="12.069677139997607"><ele>282.0</ele><time>2026-05-03T10:54:24Z</time></trkpt><trkpt lat="46.06068321933141" lon="12.069490563611616"><ele>280.25</ele><time>2026-05-03T10:54:25Z</time></trkpt><trkpt lat="46.060705385636325" lon="12.069305788595003"><ele>278.5</ele><time>2026-05-03T10:54:26Z</time></trkpt><trkpt lat="46.06073108695971" lon="12.069120377165907"><ele>276.75</ele><time>2026-05-03T10:54:27Z</time></trkpt><trkpt lat="46.06074332538439" lon="12.068943020655773"><ele>275.0</ele><time>2026-05-03T10:54:28Z</time></trkpt><trkpt lat="46.0607597249376" lon="12.068795186157537"><ele>275.2</ele><time>2026-05-03T10:54:29Z</time></trkpt><trkpt lat="46.060792748350835" lon="12.068664004430156"><ele>275.4</ele><time>2026-05-03T10:54:30Z</time></trkpt><trkpt lat="46.06078820714903" lon="12.068534484265006"><ele>275.6</ele><time>2026-05-03T10:54:31Z</time></trkpt><trkpt lat="46.06080246776931" lon="12.068384359362524"><ele>275.8</ele><time>2026-05-03T10:54:32Z</time></trkpt><trkpt lat="46.06081136639046" lon="12.068173170120417"><ele>276.0</ele><time>2026-05-03T10:54:33.001Z</time></trkpt><trkpt lat="46.06083224917335" lon="12.067901852292117"><ele>276.3333333333333</ele><time>2026-05-03T10:54:34.001Z</time></trkpt><trkpt lat="46.06085218662919" lon="12.067596923259995"><ele>276.66666666666663</ele><time>2026-05-03T10:54:35.001Z</time></trkpt><trkpt lat="46.06086947879353" lon="12.067334209036387"><ele>277.0</ele><time>2026-05-03T10:54:36.001Z</time></trkpt><trkpt lat="46.06088586113097" lon="12.067109882025356"><ele>277.0</ele><time>2026-05-03T10:54:37.001Z</time></trkpt><trkpt lat="46.06089146470185" lon="12.06690293564421"><ele>277.0</ele><time>2026-05-03T10:54:38.001Z</time></trkpt><trkpt lat="46.06093111466779" lon="12.066707122893652"><ele>277.0</ele><time>2026-05-03T10:54:39.001Z</time></trkpt><trkpt lat="46.06085188036184" lon="12.066500161967701"><ele>277.0</ele><time>2026-05-03T10:54:40.001Z</time></trkpt><trkpt lat="46.0606886123074" lon="12.066408001149483"><ele>279.0</ele><time>2026-05-03T10:54:41Z</time></trkpt><trkpt lat="46.06054586350823" lon="12.066296585727143"><ele>281.0</ele><time>2026-05-03T10:54:42Z</time></trkpt><trkpt lat="46.06040857067387" lon="12.066169999041893"><ele>283.0</ele><time>2026-05-03T10:54:43Z</time></trkpt><trkpt lat="46.06027800856476" lon="12.066048760283094"><ele>283.0</ele><time>2026-05-03T10:54:44Z</time></trkpt><trkpt lat="46.06015788585482" lon="12.065954546168038"><ele>283.0</ele><time>2026-05-03T10:54:45Z</time></trkpt><trkpt lat="46.06004030491738" lon="12.065910549209713"><ele>283.0</ele><time>2026-05-03T10:54:46Z</time></trkpt><trkpt lat="46.05990458072023" lon="12.065905862555974"><ele>283.0</ele><time>2026-05-03T10:54:47Z</time></trkpt><trkpt lat="46.05976929419912" lon="12.065939971507644"><ele>284.75</ele><time>2026-05-03T10:54:48Z</time></trkpt><trkpt lat="46.05964110440792" lon="12.065970971601134"><ele>286.5</ele><time>2026-05-03T10:54:49Z</time></trkpt><trkpt lat="46.059524448758985" lon="12.06599380939642"><ele>288.25</ele><time>2026-05-03T10:54:50Z</time></trkpt><trkpt lat="46.05940616023147" lon="12.065972836155776"><ele>290.0</ele><time>2026-05-03T10:54:51Z</time></trkpt><trkpt lat="46.05929748661951" lon="12.065939551678907"><ele>290.0</ele><time>2026-05-03T10:54:52Z</time></trkpt><trkpt lat="46.0591865412224" lon="12.06587442748205"><ele>290.0</ele><time>2026-05-03T10:54:53Z</time></trkpt><trkpt lat="46.059089028212085" lon="12.065775982232141"><ele>290.0</ele><time>2026-05-03T10:54:54Z</time></trkpt><trkpt lat="46.058986514357656" lon="12.065676816385979"><ele>290.0</ele><time>2026-05-03T10:54:55Z</time></trkpt><trkpt lat="46.058888999813355" lon="12.065584394378531"><ele>290.75</ele><time>2026-05-03T10:54:56Z</time></trkpt><trkpt lat="46.05878492427572" lon="12.06550664465586"><ele>291.5</ele><time>2026-05-03T10:54:57Z</time></trkpt><trkpt lat="46.05869019376382" lon="12.065405139400056"><ele>292.25</ele><time>2026-05-03T10:54:58Z</time></trkpt><trkpt lat="46.05859257347431" lon="12.065293948753315"><ele>293.0</ele><time>2026-05-03T10:54:59Z</time></trkpt><trkpt lat="46.058521063836146" lon="12.065148163404606"><ele>293.0</ele><time>2026-05-03T10:55:00Z</time></trkpt><trkpt lat="46.05845367653072" lon="12.065014150685531"><ele>293.0</ele><time>2026-05-03T10:55:01Z</time></trkpt><trkpt lat="46.05839188766379" lon="12.064884658994565"><ele>293.0</ele><time>2026-05-03T10:55:02Z</time></trkpt><trkpt lat="46.058329251093944" lon="12.064770545653253"><ele>293.0</ele><time>2026-05-03T10:55:03Z</time></trkpt><trkpt lat="46.058279385461624" lon="12.064654390211885"><ele>293.0</ele><time>2026-05-03T10:55:04Z</time></trkpt><trkpt lat="46.05822933513456" lon="12.064541779209565"><ele>292.99999999999994</ele><time>2026-05-03T10:55:05Z</time></trkpt><trkpt lat="46.058185362156756" lon="12.06444827073065"><ele>293.0</ele><time>2026-05-03T10:55:06Z</time></trkpt><trkpt lat="46.0581464285978" lon="12.064351248387078"><ele>293.0</ele><time>2026-05-03T10:55:07Z</time></trkpt><trkpt lat="46.05810469129046" lon="12.064259426388249"><ele>293.0</ele><time>2026-05-03T10:55:08Z</time></trkpt><trkpt lat="46.0580667298486" lon="12.064171207322843"><ele>293.0</ele><time>2026-05-03T10:55:09Z</time></trkpt><trkpt lat="46.058029024682554" lon="12.064088986790823"><ele>292.99999999999994</ele><time>2026-05-03T10:55:10Z</time></trkpt><trkpt lat="46.057993734434355" lon="12.063995124382735"><ele>293.0</ele><time>2026-05-03T10:55:24Z</time></trkpt><trkpt lat="46.057945735560224" lon="12.06387548467234"><ele>293.0</ele><time>2026-05-03T10:57:06Z</time></trkpt><trkpt lat="46.057896531561944" lon="12.06376866716721"><ele>293.0</ele><time>2026-05-03T10:57:07Z</time></trkpt><trkpt lat="46.05783772664353" lon="12.06363205745861"><ele>293.0</ele><time>2026-05-03T10:57:08Z</time></trkpt><trkpt lat="46.057766120526765" lon="12.063467965124023"><ele>293.0</ele><time>2026-05-03T10:57:09Z</time></trkpt><trkpt lat="46.057691762332" lon="12.063304508092012"><ele>292.6666666666667</ele><time>2026-05-03T10:57:10Z</time></trkpt><trkpt lat="46.05760902467117" lon="12.063108811604584"><ele>292.3333333333333</ele><time>2026-05-03T10:57:11Z</time></trkpt><trkpt lat="46.05752695553556" lon="12.062893207791696"><ele>292.0</ele><time>2026-05-03T10:57:12Z</time></trkpt><trkpt lat="46.05745959245595" lon="12.062676795011434"><ele>292.66666666666663</ele><time>2026-05-03T10:57:13Z</time></trkpt><trkpt lat="46.057417949880765" lon="12.062430745582743"><ele>293.3333333333333</ele><time>2026-05-03T10:57:14Z</time></trkpt><trkpt lat="46.05736462167453" lon="12.062177707721252"><ele>294.0</ele><time>2026-05-03T10:57:15Z</time></trkpt><trkpt lat="46.057314534882856" lon="12.061926834600037"><ele>294.0</ele><time>2026-05-03T10:57:16Z</time></trkpt><trkpt lat="46.057252890837155" lon="12.061687423209026"><ele>294.0</ele><time>2026-05-03T10:57:17Z</time></trkpt><trkpt lat="46.05721449914593" lon="12.061419447673916"><ele>294.0</ele><time>2026-05-03T10:57:18Z</time></trkpt><trkpt lat="46.05716249668697" lon="12.06114876046386"><ele>293.6666666666667</ele><time>2026-05-03T10:57:19Z</time></trkpt><trkpt lat="46.057109434561106" lon="12.06087308785587"><ele>293.33333333333337</ele><time>2026-05-03T10:57:20Z</time></trkpt><trkpt lat="46.05705595492889" lon="12.060595246260966"><ele>293.0</ele><time>2026-05-03T10:57:21Z</time></trkpt><trkpt lat="46.057004714945364" lon="12.0603529429643"><ele>293.0</ele><time>2026-05-03T10:57:22Z</time></trkpt><trkpt lat="46.056947027501685" lon="12.06013091919305"><ele>293.0</ele><time>2026-05-03T10:57:23Z</time></trkpt><trkpt lat="46.056858054475605" lon="12.059948671271076"><ele>293.0</ele><time>2026-05-03T10:57:24Z</time></trkpt><trkpt lat="46.05675768591026" lon="12.059785246544314"><ele>293.0</ele><time>2026-05-03T10:57:25Z</time></trkpt><trkpt lat="46.05662311548459" lon="12.05964994471182"><ele>293.0</ele><time>2026-05-03T10:57:26Z</time></trkpt><trkpt lat="46.056460104409055" lon="12.05956436570688"><ele>293.0</ele><time>2026-05-03T10:57:27Z</time></trkpt><trkpt lat="46.056288420123614" lon="12.059521215575062"><ele>294.33333333333337</ele><time>2026-05-03T10:57:28Z</time></trkpt><trkpt lat="46.05610614364938" lon="12.059504725840439"><ele>295.6666666666667</ele><time>2026-05-03T10:57:29Z</time></trkpt><trkpt lat="46.05594704982658" lon="12.059408171522344"><ele>297.0</ele><time>2026-05-03T10:57:30Z</time></trkpt><trkpt lat="46.055795724322635" lon="12.059293683139705"><ele>297.3333333333333</ele><time>2026-05-03T10:57:31Z</time></trkpt><trkpt lat="46.05565984590896" lon="12.059148259229744"><ele>297.66666666666663</ele><time>2026-05-03T10:57:32Z</time></trkpt><trkpt lat="46.05554489150563" lon="12.058975812224874"><ele>298.0</ele><time>2026-05-03T10:57:33Z</time></trkpt><trkpt lat="46.05543989512811" lon="12.05877375357032"><ele>297.0</ele><time>2026-05-03T10:57:34Z</time></trkpt><trkpt lat="46.05533546261795" lon="12.058565555063735"><ele>296.0</ele><time>2026-05-03T10:57:35Z</time></trkpt><trkpt lat="46.05522903970926" lon="12.058349896349139"><ele>295.0</ele><time>2026-05-03T10:57:36Z</time></trkpt><trkpt lat="46.05512385808919" lon="12.058136324498118"><ele>295.0</ele><time>2026-05-03T10:57:37Z</time></trkpt><trkpt lat="46.0550171032469" lon="12.057919439738008"><ele>295.0</ele><time>2026-05-03T10:57:38Z</time></trkpt><trkpt lat="46.05491263472652" lon="12.057707200426593"><ele>295.0</ele><time>2026-05-03T10:57:39Z</time></trkpt><trkpt lat="46.05481084073096" lon="12.05750039406947"><ele>294.3333333333333</ele><time>2026-05-03T10:57:40Z</time></trkpt><trkpt lat="46.05470221849349" lon="12.057320455414148"><ele>293.6666666666667</ele><time>2026-05-03T10:57:41Z</time></trkpt><trkpt lat="46.054615714874366" lon="12.05713574920528"><ele>293.0</ele><time>2026-05-03T10:57:42Z</time></trkpt><trkpt lat="46.05453226204459" lon="12.05696844099191"><ele>293.0</ele><time>2026-05-03T10:57:43Z</time></trkpt><trkpt lat="46.05445494102821" lon="12.05681415747445"><ele>293.0</ele><time>2026-05-03T10:57:44Z</time></trkpt><trkpt lat="46.05438590477041" lon="12.056670535834574"><ele>293.0</ele><time>2026-05-03T10:57:45Z</time></trkpt><trkpt lat="46.05432336792781" lon="12.056542406778108"><ele>293.0</ele><time>2026-05-03T10:57:46Z</time></trkpt><trkpt lat="46.05427457555819" lon="12.056432184387571"><ele>293.0</ele><time>2026-05-03T10:57:47Z</time></trkpt><trkpt lat="46.054225651447275" lon="12.056344083780544"><ele>293.0</ele><time>2026-05-03T10:57:48Z</time></trkpt><trkpt lat="46.05419978340095" lon="12.056259717805931"><ele>293.0</ele><time>2026-05-03T10:57:49Z</time></trkpt><trkpt lat="46.053965034842776" lon="12.05636155351072"><ele>293.0</ele><time>2026-05-03T10:57:51Z</time></trkpt><trkpt lat="46.0538513652141" lon="12.056461243630714"><ele>293.75</ele><time>2026-05-03T10:57:52Z</time></trkpt><trkpt lat="46.05374378960463" lon="12.056589778100015"><ele>294.5</ele><time>2026-05-03T10:57:53Z</time></trkpt><trkpt lat="46.05362900047103" lon="12.05670463299606"><ele>295.25</ele><time>2026-05-03T10:57:54Z</time></trkpt><trkpt lat="46.0535022516187" lon="12.056829992866277"><ele>296.0</ele><time>2026-05-03T10:57:55Z</time></trkpt><trkpt lat="46.05336779145432" lon="12.056964188034645"><ele>296.33333333333337</ele><time>2026-05-03T10:57:56Z</time></trkpt><trkpt lat="46.053228029506975" lon="12.057101317865271"><ele>296.6666666666667</ele><time>2026-05-03T10:57:57Z</time></trkpt><trkpt lat="46.05309320496372" lon="12.057237439461984"><ele>297.0</ele><time>2026-05-03T10:57:58Z</time></trkpt><trkpt lat="46.052944184595" lon="12.05738045586948"><ele>297.0</ele><time>2026-05-03T10:57:59Z</time></trkpt><trkpt lat="46.05279198106147" lon="12.057523405019976"><ele>297.0</ele><time>2026-05-03T10:58:00Z</time></trkpt><trkpt lat="46.05264019052185" lon="12.057662819420138"><ele>297.0</ele><time>2026-05-03T10:58:01Z</time></trkpt><trkpt lat="46.05248962396247" lon="12.057803285111888"><ele>298.0</ele><time>2026-05-03T10:58:02Z</time></trkpt><trkpt lat="46.05234343243025" lon="12.057948984070675"><ele>299.0</ele><time>2026-05-03T10:58:03Z</time></trkpt><trkpt lat="46.05219809575775" lon="12.058088532972093"><ele>300.0</ele><time>2026-05-03T10:58:04Z</time></trkpt><trkpt lat="46.05205273469649" lon="12.058221609594002"><ele>300.6666666666667</ele><time>2026-05-03T10:58:05Z</time></trkpt><trkpt lat="46.0519154032386" lon="12.058350354820094"><ele>301.33333333333337</ele><time>2026-05-03T10:58:06Z</time></trkpt><trkpt lat="46.05178257424474" lon="12.058473025394633"><ele>302.0</ele><time>2026-05-03T10:58:07Z</time></trkpt><trkpt lat="46.05163554747477" lon="12.058595493963187"><ele>302.33333333333337</ele><time>2026-05-03T10:58:08Z</time></trkpt><trkpt lat="46.05147604562517" lon="12.058695153911692"><ele>302.6666666666667</ele><time>2026-05-03T10:58:09Z</time></trkpt><trkpt lat="46.05130931975237" lon="12.05877696672697"><ele>303.0</ele><time>2026-05-03T10:58:10Z</time></trkpt><trkpt lat="46.05114523735659" lon="12.05885371267805"><ele>303.0</ele><time>2026-05-03T10:58:11Z</time></trkpt><trkpt lat="46.050978821212915" lon="12.058940331997563"><ele>303.0</ele><time>2026-05-03T10:58:12Z</time></trkpt><trkpt lat="46.05081054883348" lon="12.059034228470622"><ele>303.0</ele><time>2026-05-03T10:58:13Z</time></trkpt><trkpt lat="46.050642353280615" lon="12.059132842075432"><ele>303.6666666666667</ele><time>2026-05-03T10:58:14Z</time></trkpt><trkpt lat="46.05046218787522" lon="12.059228697438357"><ele>304.33333333333337</ele><time>2026-05-03T10:58:15Z</time></trkpt><trkpt lat="46.050283501063966" lon="12.059320750368617"><ele>305.0</ele><time>2026-05-03T10:58:16Z</time></trkpt><trkpt lat="46.05010636722166" lon="12.059415150652294"><ele>304.6666666666667</ele><time>2026-05-03T10:58:17Z</time></trkpt><trkpt lat="46.04993255421629" lon="12.05950876743497"><ele>304.3333333333333</ele><time>2026-05-03T10:58:18Z</time></trkpt><trkpt lat="46.049760665789066" lon="12.059602356724685"><ele>304.0</ele><time>2026-05-03T10:58:19Z</time></trkpt><trkpt lat="46.0495913223404" lon="12.059702189831059"><ele>304.0</ele><time>2026-05-03T10:58:20Z</time></trkpt><trkpt lat="46.04942916446777" lon="12.059806203838585"><ele>304.0</ele><time>2026-05-03T10:58:21Z</time></trkpt><trkpt lat="46.049267626565964" lon="12.05991256338178"><ele>304.0</ele><time>2026-05-03T10:58:22Z</time></trkpt><trkpt lat="46.049109818303556" lon="12.060019727699105"><ele>306.0</ele><time>2026-05-03T10:58:23Z</time></trkpt><trkpt lat="46.04895646712348" lon="12.06011974540037"><ele>308.0</ele><time>2026-05-03T10:58:24Z</time></trkpt><trkpt lat="46.048823036207395" lon="12.060210908924434"><ele>310.0</ele><time>2026-05-03T10:58:25Z</time></trkpt><trkpt lat="46.048698622155975" lon="12.06029111599373"><ele>310.0</ele><time>2026-05-03T10:58:26Z</time></trkpt><trkpt lat="46.04858972811319" lon="12.060374191727163"><ele>310.0</ele><time>2026-05-03T10:58:27Z</time></trkpt><trkpt lat="46.04848705035974" lon="12.060450173335868"><ele>310.0</ele><time>2026-05-03T10:58:28Z</time></trkpt><trkpt lat="46.048393713603886" lon="12.060512344409373"><ele>310.0</ele><time>2026-05-03T10:58:29Z</time></trkpt><trkpt lat="46.04831222913613" lon="12.06056126739862"><ele>310.0</ele><time>2026-05-03T10:58:30Z</time></trkpt><trkpt lat="46.04825139806841" lon="12.060591799857688"><ele>311.4</ele><time>2026-05-03T10:58:31Z</time></trkpt><trkpt lat="46.048159512989386" lon="12.060611446217376"><ele>312.8</ele><time>2026-05-03T10:58:33Z</time></trkpt><trkpt lat="46.04806434703931" lon="12.060583311554426"><ele>314.2</ele><time>2026-05-03T10:58:37Z</time></trkpt><trkpt lat="46.04794267887905" lon="12.060591564169814"><ele>315.6</ele><time>2026-05-03T10:58:39Z</time></trkpt><trkpt lat="46.04788989060955" lon="12.060655176780502"><ele>317.0</ele><time>2026-05-03T10:58:40Z</time></trkpt><trkpt lat="46.04786003714129" lon="12.060766930250542"><ele>316.6</ele><time>2026-05-03T10:58:41Z</time></trkpt><trkpt lat="46.04784433519462" lon="12.06087395003715"><ele>316.2</ele><time>2026-05-03T10:58:42Z</time></trkpt><trkpt lat="46.04780494103127" lon="12.060951290522103"><ele>315.8</ele><time>2026-05-03T10:58:43Z</time></trkpt><trkpt lat="46.04771185474272" lon="12.060993949949502"><ele>315.4</ele><time>2026-05-03T10:58:45Z</time></trkpt><trkpt lat="46.04764139114247" lon="12.060993848408044"><ele>315.0</ele><time>2026-05-03T10:58:47Z</time></trkpt><trkpt lat="46.047482538507225" lon="12.060898826813515"><ele>315.0</ele><time>2026-05-03T10:58:52Z</time></trkpt><trkpt lat="46.04764744055739" lon="12.061005098655794"><ele>315.0</ele><time>2026-05-03T10:58:55Z</time></trkpt><trkpt lat="46.0475912920623" lon="12.060841402643202"><ele>315.0</ele><time>2026-05-03T10:59:10Z</time></trkpt><trkpt lat="46.047620055497454" lon="12.060739885240501"><ele>315.0</ele><time>2026-05-03T10:59:22Z</time></trkpt><trkpt lat="46.04757493578483" lon="12.060817405575035"><ele>315.0</ele><time>2026-05-03T10:59:49Z</time></trkpt></trkseg><trkseg><trkpt lat="46.04764630227969" lon="12.060842851297743"><ele>315.0</ele><time>2026-05-03T12:08:31.38Z</time></trkpt><trkpt lat="46.04758010713209" lon="12.060862518064697"><ele>315.0</ele><time>2026-05-03T12:10:41.999Z</time></trkpt><trkpt lat="46.047643834110865" lon="12.06092770885227"><ele>315.0</ele><time>2026-05-03T12:10:55.999Z</time></trkpt><trkpt lat="46.04768152714994" lon="12.061000780921006"><ele>315.0</ele><time>2026-05-03T12:10:58.999Z</time></trkpt><trkpt lat="46.04776452921804" lon="12.061027430262683"><ele>315.0</ele><time>2026-05-03T12:11:05.999Z</time></trkpt><trkpt lat="46.047868995538366" lon="12.061044740071832"><ele>315.0</ele><time>2026-05-03T12:11:07.999Z</time></trkpt><trkpt lat="46.04792652224313" lon="12.061120634052116"><ele>315.0</ele><time>2026-05-03T12:11:09.999Z</time></trkpt><trkpt lat="46.04798240645505" lon="12.061251437740781"><ele>315.0</ele><time>2026-05-03T12:11:11.999Z</time></trkpt><trkpt lat="46.04799419644102" lon="12.061373395163441"><ele>315.0</ele><time>2026-05-03T12:11:12.999Z</time></trkpt><trkpt lat="46.047990677560186" lon="12.061506284480114"><ele>315.0</ele><time>2026-05-03T12:11:13.999Z</time></trkpt><trkpt lat="46.047983158951396" lon="12.061647045407039"><ele>315.0</ele><time>2026-05-03T12:11:14.999Z</time></trkpt><trkpt lat="46.047979209138035" lon="12.06179359173823"><ele>314.6</ele><time>2026-05-03T12:11:15.999Z</time></trkpt><trkpt lat="46.047977494894184" lon="12.061931175565606"><ele>314.2</ele><time>2026-05-03T12:11:16.999Z</time></trkpt><trkpt lat="46.04797754527735" lon="12.062081571222736"><ele>313.8</ele><time>2026-05-03T12:11:17.999Z</time></trkpt><trkpt lat="46.047972147149125" lon="12.062238006136955"><ele>313.4</ele><time>2026-05-03T12:11:18.999Z</time></trkpt><trkpt lat="46.047976782098715" lon="12.062396648797284"><ele>313.0</ele><time>2026-05-03T12:11:19.999Z</time></trkpt><trkpt lat="46.04797509281071" lon="12.06256340070024"><ele>312.5</ele><time>2026-05-03T12:11:20.999Z</time></trkpt><trkpt lat="46.04797466163157" lon="12.062744051320106"><ele>312.0</ele><time>2026-05-03T12:11:21.999Z</time></trkpt><trkpt lat="46.0479745154896" lon="12.06293897135622"><ele>311.5</ele><time>2026-05-03T12:11:22.999Z</time></trkpt><trkpt lat="46.04797838398204" lon="12.06313885059511"><ele>311.0</ele><time>2026-05-03T12:11:23.999Z</time></trkpt><trkpt lat="46.04797914318239" lon="12.063351367116793"><ele>311.0</ele><time>2026-05-03T12:11:24.999Z</time></trkpt><trkpt lat="46.04798219411681" lon="12.06355039438185"><ele>311.0</ele><time>2026-05-03T12:11:25.999Z</time></trkpt><trkpt lat="46.047981772616765" lon="12.063764189859693"><ele>311.0</ele><time>2026-05-03T12:11:26.999Z</time></trkpt><trkpt lat="46.04798088550399" lon="12.063979420278473"><ele>311.0</ele><time>2026-05-03T12:11:27.999Z</time></trkpt><trkpt lat="46.0479848840362" lon="12.064201412965277"><ele>311.0</ele><time>2026-05-03T12:11:28.999Z</time></trkpt><trkpt lat="46.04798522335545" lon="12.064434218006197"><ele>311.0</ele><time>2026-05-03T12:11:29.999Z</time></trkpt><trkpt lat="46.047992920043676" lon="12.064673822825267"><ele>311.0</ele><time>2026-05-03T12:11:30.999Z</time></trkpt><trkpt lat="46.04799795022066" lon="12.064914234537843"><ele>312.0</ele><time>2026-05-03T12:11:31.999Z</time></trkpt><trkpt lat="46.04800810922066" lon="12.065155076860993"><ele>313.0</ele><time>2026-05-03T12:11:32.999Z</time></trkpt><trkpt lat="46.04803111393829" lon="12.065398398150872"><ele>314.0</ele><time>2026-05-03T12:11:33.999Z</time></trkpt><trkpt lat="46.048064694374666" lon="12.065640317177783"><ele>314.0</ele><time>2026-05-03T12:11:34.999Z</time></trkpt><trkpt lat="46.04811909786803" lon="12.065876862026633"><ele>314.0</ele><time>2026-05-03T12:11:35.999Z</time></trkpt><trkpt lat="46.048181296852476" lon="12.066116178431663"><ele>314.0</ele><time>2026-05-03T12:11:36.999Z</time></trkpt><trkpt lat="46.04825528120595" lon="12.066359001445326"><ele>313.33333333333337</ele><time>2026-05-03T12:11:37.999Z</time></trkpt><trkpt lat="46.04834247599607" lon="12.066603158460172"><ele>312.6666666666667</ele><time>2026-05-03T12:11:38.999Z</time></trkpt><trkpt lat="46.04844846366107" lon="12.066842713964935"><ele>312.0</ele><time>2026-05-03T12:11:39.999Z</time></trkpt><trkpt lat="46.048565124074976" lon="12.067074236347162"><ele>312.0</ele><time>2026-05-03T12:11:40.999Z</time></trkpt><trkpt lat="46.048693358097225" lon="12.06729802419899"><ele>312.0</ele><time>2026-05-03T12:11:41.999Z</time></trkpt><trkpt lat="46.04884134503238" lon="12.067504125917775"><ele>312.0</ele><time>2026-05-03T12:11:42.999Z</time></trkpt><trkpt lat="46.04900350974239" lon="12.067696043084025"><ele>309.6666666666667</ele><time>2026-05-03T12:11:43.999Z</time></trkpt><trkpt lat="46.049175245938" lon="12.067869328821432"><ele>307.33333333333337</ele><time>2026-05-03T12:11:44.999Z</time></trkpt><trkpt lat="46.04935157513928" lon="12.068037056300618"><ele>305.0</ele><time>2026-05-03T12:11:45.999Z</time></trkpt><trkpt lat="46.049521266695855" lon="12.068207413452697"><ele>305.6666666666667</ele><time>2026-05-03T12:11:46.999Z</time></trkpt><trkpt lat="46.049691103359976" lon="12.068374772103406"><ele>306.3333333333333</ele><time>2026-05-03T12:11:47.999Z</time></trkpt><trkpt lat="46.049855064279924" lon="12.068548733417368"><ele>307.0</ele><time>2026-05-03T12:11:48.999Z</time></trkpt><trkpt lat="46.05002464771574" lon="12.068717692562624"><ele>307.0</ele><time>2026-05-03T12:11:49.999Z</time></trkpt><trkpt lat="46.05019387365885" lon="12.068893878633878"><ele>307.0</ele><time>2026-05-03T12:11:50.999Z</time></trkpt><trkpt lat="46.05036650784261" lon="12.069070483654748"><ele>307.0</ele><time>2026-05-03T12:11:51.999Z</time></trkpt><trkpt lat="46.05053180641792" lon="12.069251022276985"><ele>309.3333333333333</ele><time>2026-05-03T12:11:52.999Z</time></trkpt><trkpt lat="46.05069657512599" lon="12.069432224273424"><ele>311.6666666666667</ele><time>2026-05-03T12:11:53.999Z</time></trkpt><trkpt lat="46.050865455008356" lon="12.069616789187426"><ele>314.0</ele><time>2026-05-03T12:11:54.999Z</time></trkpt><trkpt lat="46.05103689124942" lon="12.069797486808936"><ele>315.0</ele><time>2026-05-03T12:11:55.999Z</time></trkpt><trkpt lat="46.051206779227336" lon="12.069973024940591"><ele>316.0</ele><time>2026-05-03T12:11:56.999Z</time></trkpt><trkpt lat="46.05138402448672" lon="12.070151873674575"><ele>317.0</ele><time>2026-05-03T12:11:57.999Z</time></trkpt><trkpt lat="46.051557520028325" lon="12.070326133463071"><ele>315.33333333333337</ele><time>2026-05-03T12:11:58.999Z</time></trkpt><trkpt lat="46.05173595847521" lon="12.070514216538344"><ele>313.6666666666667</ele><time>2026-05-03T12:11:59.999Z</time></trkpt><trkpt lat="46.051914247449616" lon="12.07069078586689"><ele>312.0</ele><time>2026-05-03T12:12:00.999Z</time></trkpt><trkpt lat="46.05209795101658" lon="12.070868301981339"><ele>312.0</ele><time>2026-05-03T12:12:01.999Z</time></trkpt><trkpt lat="46.052276890264565" lon="12.0710559517561"><ele>312.0</ele><time>2026-05-03T12:12:02.999Z</time></trkpt><trkpt lat="46.05245516060146" lon="12.071245789228838"><ele>312.0</ele><time>2026-05-03T12:12:03.999Z</time></trkpt><trkpt lat="46.05263779136917" lon="12.071433348576823"><ele>312.3333333333333</ele><time>2026-05-03T12:12:04.999Z</time></trkpt><trkpt lat="46.05281328639694" lon="12.071616111659123"><ele>312.66666666666663</ele><time>2026-05-03T12:12:05.999Z</time></trkpt><trkpt lat="46.05299162265974" lon="12.071798719587623"><ele>313.0</ele><time>2026-05-03T12:12:06.999Z</time></trkpt><trkpt lat="46.053169847132935" lon="12.071980168745739"><ele>311.66666666666663</ele><time>2026-05-03T12:12:07.999Z</time></trkpt><trkpt lat="46.05334372263931" lon="12.072164793863017"><ele>310.3333333333333</ele><time>2026-05-03T12:12:08.999Z</time></trkpt><trkpt lat="46.05351860598246" lon="12.072345048508481"><ele>309.0</ele><time>2026-05-03T12:12:09.999Z</time></trkpt><trkpt lat="46.05369498479415" lon="12.072528910692837"><ele>309.0</ele><time>2026-05-03T12:12:10.998Z</time></trkpt><trkpt lat="46.05386850628477" lon="12.072708471640498"><ele>309.0</ele><time>2026-05-03T12:12:11.998Z</time></trkpt><trkpt lat="46.054039167100136" lon="12.072891029215285"><ele>309.0</ele><time>2026-05-03T12:12:12.998Z</time></trkpt><trkpt lat="46.05420608177638" lon="12.073060633629686"><ele>309.0</ele><time>2026-05-03T12:12:13.998Z</time></trkpt><trkpt lat="46.05438122009294" lon="12.073224173183728"><ele>309.0</ele><time>2026-05-03T12:12:14.998Z</time></trkpt><trkpt lat="46.0545596324481" lon="12.073381617920914"><ele>309.0</ele><time>2026-05-03T12:12:15.998Z</time></trkpt><trkpt lat="46.054747014649685" lon="12.0735097108721"><ele>309.0</ele><time>2026-05-03T12:12:16.998Z</time></trkpt><trkpt lat="46.054931579405604" lon="12.073635975128354"><ele>309.0</ele><time>2026-05-03T12:12:17.998Z</time></trkpt><trkpt lat="46.05512444061961" lon="12.07374523926883"><ele>309.0</ele><time>2026-05-03T12:12:18.998Z</time></trkpt><trkpt lat="46.055310565388595" lon="12.073851217036895"><ele>308.3333333333333</ele><time>2026-05-03T12:12:19.998Z</time></trkpt><trkpt lat="46.05549341463817" lon="12.073956762710187"><ele>307.66666666666663</ele><time>2026-05-03T12:12:20.998Z</time></trkpt><trkpt lat="46.05567781116002" lon="12.074051571458309"><ele>307.0</ele><time>2026-05-03T12:12:21.998Z</time></trkpt><trkpt lat="46.05586075776235" lon="12.074141697985588"><ele>307.0</ele><time>2026-05-03T12:12:22.998Z</time></trkpt><trkpt lat="46.0560463403882" lon="12.07423096612141"><ele>307.0</ele><time>2026-05-03T12:12:23.998Z</time></trkpt><trkpt lat="46.0562350276358" lon="12.07429774772634"><ele>307.0</ele><time>2026-05-03T12:12:24.998Z</time></trkpt><trkpt lat="46.05642623219973" lon="12.074374879574254"><ele>307.0</ele><time>2026-05-03T12:12:25.998Z</time></trkpt><trkpt lat="46.056613173043935" lon="12.07442613511184"><ele>307.0</ele><time>2026-05-03T12:12:26.998Z</time></trkpt><trkpt lat="46.05680636907118" lon="12.074460826535727"><ele>307.0</ele><time>2026-05-03T12:12:27.998Z</time></trkpt><trkpt lat="46.056996710110454" lon="12.07448232108002"><ele>307.0</ele><time>2026-05-03T12:12:28.998Z</time></trkpt><trkpt lat="46.05718556326166" lon="12.074502749084315"><ele>307.0</ele><time>2026-05-03T12:12:29.998Z</time></trkpt><trkpt lat="46.057360592591394" lon="12.07453854656068"><ele>307.0</ele><time>2026-05-03T12:12:30.998Z</time></trkpt><trkpt lat="46.057523694919716" lon="12.074568177815292"><ele>306.66666666666663</ele><time>2026-05-03T12:12:31.998Z</time></trkpt><trkpt lat="46.057684167612145" lon="12.074615269591197"><ele>306.3333333333333</ele><time>2026-05-03T12:12:32.998Z</time></trkpt><trkpt lat="46.05784012320826" lon="12.07467536466601"><ele>306.0</ele><time>2026-05-03T12:12:33.998Z</time></trkpt><trkpt lat="46.057988507837976" lon="12.07477848780315"><ele>306.0</ele><time>2026-05-03T12:12:34.998Z</time></trkpt><trkpt lat="46.05812904318177" lon="12.074912400662068"><ele>306.0</ele><time>2026-05-03T12:12:35.998Z</time></trkpt><trkpt lat="46.05825679915605" lon="12.07507466600308"><ele>306.0</ele><time>2026-05-03T12:12:36.998Z</time></trkpt><trkpt lat="46.058377555299074" lon="12.07525764417648"><ele>307.6666666666667</ele><time>2026-05-03T12:12:37.998Z</time></trkpt><trkpt lat="46.05848017618752" lon="12.07543312173691"><ele>309.33333333333337</ele><time>2026-05-03T12:12:38.998Z</time></trkpt><trkpt lat="46.05857233517872" lon="12.075624814115116"><ele>311.0</ele><time>2026-05-03T12:12:39.998Z</time></trkpt><trkpt lat="46.05865777704501" lon="12.075834945580441"><ele>311.0</ele><time>2026-05-03T12:12:40.998Z</time></trkpt><trkpt lat="46.058741114901714" lon="12.076063231890188"><ele>311.0</ele><time>2026-05-03T12:12:41.998Z</time></trkpt><trkpt lat="46.05881845657856" lon="12.076312674890342"><ele>311.0</ele><time>2026-05-03T12:12:42.998Z</time></trkpt><trkpt lat="46.05888393928707" lon="12.076582561308578"><ele>312.33333333333337</ele><time>2026-05-03T12:12:43.998Z</time></trkpt><trkpt lat="46.05896665637389" lon="12.076866048831477"><ele>313.6666666666667</ele><time>2026-05-03T12:12:44.998Z</time></trkpt><trkpt lat="46.0590535364358" lon="12.077163468275877"><ele>315.0</ele><time>2026-05-03T12:12:45.998Z</time></trkpt><trkpt lat="46.05914996915142" lon="12.077469282132782"><ele>311.0</ele><time>2026-05-03T12:12:46.998Z</time></trkpt><trkpt lat="46.059234531765476" lon="12.077787797359738"><ele>307.0</ele><time>2026-05-03T12:12:47.998Z</time></trkpt><trkpt lat="46.059322323439616" lon="12.078113832529189"><ele>306.5</ele><time>2026-05-03T12:12:48.998Z</time></trkpt><trkpt lat="46.05941452775747" lon="12.078438169487988"><ele>306.0</ele><time>2026-05-03T12:12:49.998Z</time></trkpt><trkpt lat="46.05950554767602" lon="12.07876250870148"><ele>306.0</ele><time>2026-05-03T12:12:50.998Z</time></trkpt><trkpt lat="46.05959881013355" lon="12.079086553592097"><ele>306.0</ele><time>2026-05-03T12:12:51.998Z</time></trkpt><trkpt lat="46.059691508291635" lon="12.0794036310768"><ele>305.5</ele><time>2026-05-03T12:12:52.998Z</time></trkpt><trkpt lat="46.059781187220864" lon="12.079714300055569"><ele>305.0</ele><time>2026-05-03T12:12:53.998Z</time></trkpt><trkpt lat="46.059820162511414" lon="12.08004384784232"><ele>304.0</ele><time>2026-05-03T12:12:54.998Z</time></trkpt><trkpt lat="46.05990183697049" lon="12.080335853679276"><ele>303.0</ele><time>2026-05-03T12:12:55.998Z</time></trkpt><trkpt lat="46.06004472574623" lon="12.080600034869004"><ele>305.6666666666667</ele><time>2026-05-03T12:12:56.998Z</time></trkpt><trkpt lat="46.06013154377914" lon="12.080894024217422"><ele>308.33333333333337</ele><time>2026-05-03T12:12:57.998Z</time></trkpt><trkpt lat="46.06021526426224" lon="12.08118347459666"><ele>311.0</ele><time>2026-05-03T12:12:58.998Z</time></trkpt><trkpt lat="46.06030319310648" lon="12.081473329788826"><ele>311.6666666666667</ele><time>2026-05-03T12:12:59.998Z</time></trkpt><trkpt lat="46.060390588149765" lon="12.081767836780223"><ele>312.3333333333333</ele><time>2026-05-03T12:13:00.998Z</time></trkpt><trkpt lat="46.06047547689429" lon="12.08206126692333"><ele>313.0</ele><time>2026-05-03T12:13:01.999Z</time></trkpt><trkpt lat="46.06056083307782" lon="12.082355973831639"><ele>313.3333333333333</ele><time>2026-05-03T12:13:02.999Z</time></trkpt><trkpt lat="46.06064649717289" lon="12.082648853208433"><ele>313.6666666666667</ele><time>2026-05-03T12:13:03.999Z</time></trkpt><trkpt lat="46.06073068022202" lon="12.082935327277053"><ele>314.0</ele><time>2026-05-03T12:13:04.999Z</time></trkpt><trkpt lat="46.06081530976025" lon="12.083215209963656"><ele>314.33333333333337</ele><time>2026-05-03T12:13:05.999Z</time></trkpt><trkpt lat="46.06090283540173" lon="12.083497696073499"><ele>314.6666666666667</ele><time>2026-05-03T12:13:06.999Z</time></trkpt><trkpt lat="46.0609971132761" lon="12.083770485705024"><ele>315.0</ele><time>2026-05-03T12:13:07.999Z</time></trkpt><trkpt lat="46.0610973378792" lon="12.08403059724865"><ele>314.6666666666667</ele><time>2026-05-03T12:13:08.999Z</time></trkpt><trkpt lat="46.06119844051953" lon="12.084257717985748"><ele>314.33333333333337</ele><time>2026-05-03T12:13:09.999Z</time></trkpt><trkpt lat="46.06130601760379" lon="12.084443170010392"><ele>314.0</ele><time>2026-05-03T12:13:10.999Z</time></trkpt><trkpt lat="46.06142206001335" lon="12.08461003693346"><ele>314.0</ele><time>2026-05-03T12:13:11.999Z</time></trkpt><trkpt lat="46.06155154320029" lon="12.084781888228456"><ele>314.0</ele><time>2026-05-03T12:13:12.999Z</time></trkpt><trkpt lat="46.061687191091586" lon="12.084946907973139"><ele>314.0</ele><time>2026-05-03T12:13:13.999Z</time></trkpt><trkpt lat="46.0618188368001" lon="12.085090701873698"><ele>315.25</ele><time>2026-05-03T12:13:14.999Z</time></trkpt><trkpt lat="46.061950329513515" lon="12.085201000869798"><ele>316.5</ele><time>2026-05-03T12:13:15.999Z</time></trkpt><trkpt lat="46.06207686869143" lon="12.085301905508029"><ele>317.75</ele><time>2026-05-03T12:13:16.999Z</time></trkpt><trkpt lat="46.06220290836361" lon="12.085389236748401"><ele>319.0</ele><time>2026-05-03T12:13:17.999Z</time></trkpt><trkpt lat="46.06231925743343" lon="12.085466014234019"><ele>319.0</ele><time>2026-05-03T12:13:18.999Z</time></trkpt><trkpt lat="46.06242702699504" lon="12.085556796656403"><ele>319.0</ele><time>2026-05-03T12:13:19.999Z</time></trkpt><trkpt lat="46.06253621592081" lon="12.08565476914882"><ele>319.0</ele><time>2026-05-03T12:13:20.999Z</time></trkpt><trkpt lat="46.062642293916845" lon="12.085779614713191"><ele>319.0</ele><time>2026-05-03T12:13:21.999Z</time></trkpt><trkpt lat="46.06274387575389" lon="12.085911947625966"><ele>320.75</ele><time>2026-05-03T12:13:22.999Z</time></trkpt><trkpt lat="46.062847255627375" lon="12.086043551777701"><ele>322.5</ele><time>2026-05-03T12:13:23.999Z</time></trkpt><trkpt lat="46.06295101622738" lon="12.08618675486233"><ele>324.25</ele><time>2026-05-03T12:13:24.999Z</time></trkpt><trkpt lat="46.063052679331186" lon="12.086334608851717"><ele>326.0</ele><time>2026-05-03T12:13:25.999Z</time></trkpt><trkpt lat="46.063163937118134" lon="12.086484337263553"><ele>326.0</ele><time>2026-05-03T12:13:26.999Z</time></trkpt><trkpt lat="46.06327338585223" lon="12.086628965396367"><ele>326.0</ele><time>2026-05-03T12:13:27.999Z</time></trkpt><trkpt lat="46.063381028528475" lon="12.086781225814265"><ele>326.0</ele><time>2026-05-03T12:13:28.999Z</time></trkpt><trkpt lat="46.06348721581453" lon="12.086936918542024"><ele>326.0</ele><time>2026-05-03T12:13:29.999Z</time></trkpt><trkpt lat="46.06357872496003" lon="12.087091427483543"><ele>326.0</ele><time>2026-05-03T12:13:30.999Z</time></trkpt><trkpt lat="46.06364764871316" lon="12.087249195026859"><ele>326.0</ele><time>2026-05-03T12:13:31.999Z</time></trkpt><trkpt lat="46.063704836204984" lon="12.087436067980777"><ele>326.0</ele><time>2026-05-03T12:13:32.999Z</time></trkpt><trkpt lat="46.0637542297664" lon="12.087631678809931"><ele>326.0</ele><time>2026-05-03T12:13:33.999Z</time></trkpt><trkpt lat="46.06379667801267" lon="12.087848576874444"><ele>326.0</ele><time>2026-05-03T12:13:34.999Z</time></trkpt><trkpt lat="46.063837589435046" lon="12.088074493270748"><ele>326.0</ele><time>2026-05-03T12:13:35.999Z</time></trkpt><trkpt lat="46.063879866995805" lon="12.088306445844754"><ele>326.0</ele><time>2026-05-03T12:13:36.999Z</time></trkpt><trkpt lat="46.06392900900166" lon="12.088548341237367"><ele>326.0</ele><time>2026-05-03T12:13:37.999Z</time></trkpt><trkpt lat="46.06397701658532" lon="12.08878798516205"><ele>326.0</ele><time>2026-05-03T12:13:38.999Z</time></trkpt><trkpt lat="46.06402320414744" lon="12.08904135272251"><ele>324.33333333333337</ele><time>2026-05-03T12:13:39.999Z</time></trkpt><trkpt lat="46.06407113163759" lon="12.089284245834147"><ele>322.6666666666667</ele><time>2026-05-03T12:13:40.999Z</time></trkpt><trkpt lat="46.06412164172592" lon="12.089526014694128"><ele>321.0</ele><time>2026-05-03T12:13:41.999Z</time></trkpt><trkpt lat="46.06417684912887" lon="12.089776139536461"><ele>320.3333333333333</ele><time>2026-05-03T12:13:42.999Z</time></trkpt><trkpt lat="46.06423034205526" lon="12.090016362526177"><ele>319.66666666666663</ele><time>2026-05-03T12:13:43.999Z</time></trkpt><trkpt lat="46.06427679630446" lon="12.090259966599522"><ele>319.0</ele><time>2026-05-03T12:13:44.999Z</time></trkpt><trkpt lat="46.064323665861686" lon="12.090515801558157"><ele>319.3333333333333</ele><time>2026-05-03T12:13:45.999Z</time></trkpt><trkpt lat="46.064373286946875" lon="12.090775034499277"><ele>319.6666666666667</ele><time>2026-05-03T12:13:46.999Z</time></trkpt><trkpt lat="46.06442447995068" lon="12.091037308036366"><ele>320.0</ele><time>2026-05-03T12:13:47.999Z</time></trkpt><trkpt lat="46.064480909769536" lon="12.091298676898088"><ele>320.0</ele><time>2026-05-03T12:13:48.999Z</time></trkpt><trkpt lat="46.064532924642165" lon="12.09156844782823"><ele>320.0</ele><time>2026-05-03T12:13:49.999Z</time></trkpt><trkpt lat="46.064587298057376" lon="12.091831795636416"><ele>320.0</ele><time>2026-05-03T12:13:50.999Z</time></trkpt><trkpt lat="46.06464037080708" lon="12.092088976264234"><ele>319.6666666666667</ele><time>2026-05-03T12:13:51.999Z</time></trkpt><trkpt lat="46.06469232556301" lon="12.092345572712196"><ele>319.3333333333333</ele><time>2026-05-03T12:13:52.999Z</time></trkpt><trkpt lat="46.064743805163005" lon="12.092600038950211"><ele>319.0</ele><time>2026-05-03T12:13:53.999Z</time></trkpt><trkpt lat="46.064796523121544" lon="12.092851441177329"><ele>318.3333333333333</ele><time>2026-05-03T12:13:54.999Z</time></trkpt><trkpt lat="46.06484924894707" lon="12.093102891713102"><ele>317.6666666666667</ele><time>2026-05-03T12:13:55.999Z</time></trkpt><trkpt lat="46.06489990161731" lon="12.09334882005122"><ele>317.0</ele><time>2026-05-03T12:13:56.999Z</time></trkpt><trkpt lat="46.06494694346962" lon="12.093593445368315"><ele>318.33333333333337</ele><time>2026-05-03T12:13:57.999Z</time></trkpt><trkpt lat="46.06499966178472" lon="12.093841772250633"><ele>319.6666666666667</ele><time>2026-05-03T12:13:58.999Z</time></trkpt><trkpt lat="46.06505421259676" lon="12.09408457407251"><ele>321.0</ele><time>2026-05-03T12:13:59.999Z</time></trkpt><trkpt lat="46.065101608784204" lon="12.094327737379022"><ele>321.0</ele><time>2026-05-03T12:14:00.999Z</time></trkpt><trkpt lat="46.06515695881476" lon="12.094565414855687"><ele>321.0</ele><time>2026-05-03T12:14:01.999Z</time></trkpt><trkpt lat="46.065208773672936" lon="12.094810782667013"><ele>321.0</ele><time>2026-05-03T12:14:02.999Z</time></trkpt><trkpt lat="46.06525026685127" lon="12.095060806440998"><ele>321.3333333333333</ele><time>2026-05-03T12:14:03.999Z</time></trkpt><trkpt lat="46.06529815434285" lon="12.095311677664716"><ele>321.66666666666663</ele><time>2026-05-03T12:14:04.999Z</time></trkpt><trkpt lat="46.065353558616636" lon="12.095564597970116"><ele>322.0</ele><time>2026-05-03T12:14:05.999Z</time></trkpt><trkpt lat="46.06540832249107" lon="12.095826104658029"><ele>322.66666666666663</ele><time>2026-05-03T12:14:06.999Z</time></trkpt><trkpt lat="46.06545868789094" lon="12.096091793074303"><ele>323.3333333333333</ele><time>2026-05-03T12:14:07.998Z</time></trkpt><trkpt lat="46.06551770689825" lon="12.096359106384464"><ele>324.0</ele><time>2026-05-03T12:14:08.998Z</time></trkpt><trkpt lat="46.06557901500656" lon="12.096633540487058"><ele>324.0</ele><time>2026-05-03T12:14:09.998Z</time></trkpt><trkpt lat="46.06563486049482" lon="12.096906899829683"><ele>324.0</ele><time>2026-05-03T12:14:10.998Z</time></trkpt><trkpt lat="46.065690743059726" lon="12.09718813859303"><ele>324.0</ele><time>2026-05-03T12:14:11.998Z</time></trkpt><trkpt lat="46.06574609076957" lon="12.097473619396556"><ele>323.6666666666667</ele><time>2026-05-03T12:14:12.998Z</time></trkpt><trkpt lat="46.065806938322496" lon="12.09775413286491"><ele>323.33333333333337</ele><time>2026-05-03T12:14:13.998Z</time></trkpt><trkpt lat="46.06586717421642" lon="12.09803855792586"><ele>323.0</ele><time>2026-05-03T12:14:14.998Z</time></trkpt><trkpt lat="46.065925830475514" lon="12.098320427229336"><ele>322.6666666666667</ele><time>2026-05-03T12:14:15.998Z</time></trkpt><trkpt lat="46.0659870418139" lon="12.098606001385798"><ele>322.3333333333333</ele><time>2026-05-03T12:14:16.998Z</time></trkpt><trkpt lat="46.066043398962904" lon="12.098891214062341"><ele>322.0</ele><time>2026-05-03T12:14:17.998Z</time></trkpt><trkpt lat="46.06609835004431" lon="12.09917938488072"><ele>323.0</ele><time>2026-05-03T12:14:18.998Z</time></trkpt><trkpt lat="46.066156512227515" lon="12.099457202763224"><ele>324.0</ele><time>2026-05-03T12:14:19.998Z</time></trkpt><trkpt lat="46.06621509670102" lon="12.099735874454943"><ele>325.0</ele><time>2026-05-03T12:14:20.998Z</time></trkpt><trkpt lat="46.06627187013557" lon="12.100012340982914"><ele>325.66666666666663</ele><time>2026-05-03T12:14:21.998Z</time></trkpt><trkpt lat="46.06633873671001" lon="12.100288706438961"><ele>326.3333333333333</ele><time>2026-05-03T12:14:22.998Z</time></trkpt><trkpt lat="46.0664066604976" lon="12.100564052151958"><ele>327.0</ele><time>2026-05-03T12:14:23.998Z</time></trkpt><trkpt lat="46.06647417696936" lon="12.100834162070942"><ele>327.0</ele><time>2026-05-03T12:14:24.998Z</time></trkpt><trkpt lat="46.06654083518982" lon="12.101102864801346"><ele>327.0</ele><time>2026-05-03T12:14:25.998Z</time></trkpt><trkpt lat="46.066610607990434" lon="12.101379881466569"><ele>327.0</ele><time>2026-05-03T12:14:26.998Z</time></trkpt><trkpt lat="46.06667789458265" lon="12.101655367004286"><ele>327.3333333333333</ele><time>2026-05-03T12:14:27.998Z</time></trkpt><trkpt lat="46.066743702187274" lon="12.101934712110918"><ele>327.66666666666663</ele><time>2026-05-03T12:14:28.998Z</time></trkpt><trkpt lat="46.066811021063586" lon="12.102205954293932"><ele>328.0</ele><time>2026-05-03T12:14:29.998Z</time></trkpt><trkpt lat="46.066880693116424" lon="12.102477514855181"><ele>328.3333333333333</ele><time>2026-05-03T12:14:30.998Z</time></trkpt><trkpt lat="46.06695322929028" lon="12.10275126324904"><ele>328.6666666666667</ele><time>2026-05-03T12:14:31.998Z</time></trkpt><trkpt lat="46.067021036204416" lon="12.103029583135555"><ele>329.0</ele><time>2026-05-03T12:14:32.998Z</time></trkpt><trkpt lat="46.067088711755716" lon="12.103305247500197"><ele>329.33333333333337</ele><time>2026-05-03T12:14:33.998Z</time></trkpt><trkpt lat="46.06715574082085" lon="12.103583494725072"><ele>329.6666666666667</ele><time>2026-05-03T12:14:34.998Z</time></trkpt><trkpt lat="46.06722869120733" lon="12.103856963528637"><ele>330.0</ele><time>2026-05-03T12:14:35.998Z</time></trkpt><trkpt lat="46.06730285209743" lon="12.104133536130636"><ele>330.6666666666667</ele><time>2026-05-03T12:14:36.998Z</time></trkpt><trkpt lat="46.06737454638234" lon="12.104408616746902"><ele>331.33333333333337</ele><time>2026-05-03T12:14:37.998Z</time></trkpt><trkpt lat="46.06744473399496" lon="12.10468911679984"><ele>332.0</ele><time>2026-05-03T12:14:38.998Z</time></trkpt><trkpt lat="46.067511787720676" lon="12.104968908722967"><ele>332.0</ele><time>2026-05-03T12:14:39.998Z</time></trkpt><trkpt lat="46.06757969780846" lon="12.105238854901042"><ele>332.0</ele><time>2026-05-03T12:14:40.998Z</time></trkpt><trkpt lat="46.067652719157984" lon="12.105516098051094"><ele>332.0</ele><time>2026-05-03T12:14:41.998Z</time></trkpt><trkpt lat="46.0677229974209" lon="12.10579616343432"><ele>332.6666666666667</ele><time>2026-05-03T12:14:42.998Z</time></trkpt><trkpt lat="46.06779413475517" lon="12.10608075742768"><ele>333.3333333333333</ele><time>2026-05-03T12:14:43.998Z</time></trkpt><trkpt lat="46.06786406936892" lon="12.10636736224509"><ele>334.0</ele><time>2026-05-03T12:14:44.998Z</time></trkpt><trkpt lat="46.067936610845294" lon="12.106659522399042"><ele>334.3333333333333</ele><time>2026-05-03T12:14:45.998Z</time></trkpt><trkpt lat="46.06801008079479" lon="12.106947690465304"><ele>334.6666666666667</ele><time>2026-05-03T12:14:46.998Z</time></trkpt><trkpt lat="46.06807976100331" lon="12.107236847524655"><ele>335.0</ele><time>2026-05-03T12:14:47.998Z</time></trkpt><trkpt lat="46.06815050236176" lon="12.10752439163653"><ele>335.0</ele><time>2026-05-03T12:14:48.998Z</time></trkpt><trkpt lat="46.06822662438312" lon="12.107813909377063"><ele>335.0</ele><time>2026-05-03T12:14:49.998Z</time></trkpt><trkpt lat="46.06830031607" lon="12.108095683176634"><ele>335.0</ele><time>2026-05-03T12:14:50.998Z</time></trkpt><trkpt lat="46.06836972291062" lon="12.108366821747914"><ele>335.33333333333337</ele><time>2026-05-03T12:14:51.998Z</time></trkpt><trkpt lat="46.06843333709363" lon="12.108625093119379"><ele>335.6666666666667</ele><time>2026-05-03T12:14:52.998Z</time></trkpt><trkpt lat="46.06849650866641" lon="12.108872005325358"><ele>336.0</ele><time>2026-05-03T12:14:53.997Z</time></trkpt><trkpt lat="46.068551690014935" lon="12.109109028655471"><ele>336.25</ele><time>2026-05-03T12:14:54.997Z</time></trkpt><trkpt lat="46.06859415951841" lon="12.109327918513166"><ele>336.5</ele><time>2026-05-03T12:14:55.997Z</time></trkpt><trkpt lat="46.068635071281214" lon="12.109532176122825"><ele>336.75</ele><time>2026-05-03T12:14:56.997Z</time></trkpt><trkpt lat="46.068674861208045" lon="12.109731739730233"><ele>337.0</ele><time>2026-05-03T12:14:57.997Z</time></trkpt><trkpt lat="46.06870715695526" lon="12.109927733934214"><ele>337.0</ele><time>2026-05-03T12:14:58.997Z</time></trkpt><trkpt lat="46.06873051382345" lon="12.11011413579278"><ele>337.0</ele><time>2026-05-03T12:14:59.997Z</time></trkpt><trkpt lat="46.06875391393778" lon="12.110299982755222"><ele>337.0</ele><time>2026-05-03T12:15:00.997Z</time></trkpt><trkpt lat="46.06877950747267" lon="12.110487073069683"><ele>337.0</ele><time>2026-05-03T12:15:01.997Z</time></trkpt><trkpt lat="46.0688025565601" lon="12.110670714202678"><ele>337.6</ele><time>2026-05-03T12:15:02.997Z</time></trkpt><trkpt lat="46.06882138395514" lon="12.110824750348984"><ele>338.20000000000005</ele><time>2026-05-03T12:15:03.998Z</time></trkpt><trkpt lat="46.0688338758861" lon="12.110977841614817"><ele>338.8</ele><time>2026-05-03T12:15:04.998Z</time></trkpt><trkpt lat="46.068844997908016" lon="12.111118898260186"><ele>339.4</ele><time>2026-05-03T12:15:05.998Z</time></trkpt><trkpt lat="46.06885349874354" lon="12.111247552626997"><ele>340.0</ele><time>2026-05-03T12:15:06.998Z</time></trkpt><trkpt lat="46.068860819280545" lon="12.11136159373148"><ele>340.0</ele><time>2026-05-03T12:15:07.998Z</time></trkpt><trkpt lat="46.06886745896253" lon="12.111502774557868"><ele>340.0</ele><time>2026-05-03T12:15:09.998Z</time></trkpt><trkpt lat="46.06888457195328" lon="12.11160825452011"><ele>340.0</ele><time>2026-05-03T12:15:15.998Z</time></trkpt><trkpt lat="46.06901458680483" lon="12.111676424440208"><ele>340.0</ele><time>2026-05-03T12:15:17.998Z</time></trkpt><trkpt lat="46.069103399197004" lon="12.111689251274349"><ele>340.0</ele><time>2026-05-03T12:15:18.998Z</time></trkpt><trkpt lat="46.0691927718361" lon="12.111728925970388"><ele>340.0</ele><time>2026-05-03T12:15:19.998Z</time></trkpt><trkpt lat="46.06926161360798" lon="12.111818822400913"><ele>340.0</ele><time>2026-05-03T12:15:20.998Z</time></trkpt><trkpt lat="46.06930239687056" lon="12.11196394179395"><ele>340.0</ele><time>2026-05-03T12:15:21.998Z</time></trkpt><trkpt lat="46.06933370401768" lon="12.11213052723621"><ele>340.0</ele><time>2026-05-03T12:15:22.998Z</time></trkpt><trkpt lat="46.069371981130914" lon="12.112298701917577"><ele>340.0</ele><time>2026-05-03T12:15:23.998Z</time></trkpt><trkpt lat="46.06941033168084" lon="12.112463931966133"><ele>340.0</ele><time>2026-05-03T12:15:24.998Z</time></trkpt><trkpt lat="46.06944556419067" lon="12.112618538969288"><ele>340.0</ele><time>2026-05-03T12:15:25.998Z</time></trkpt><trkpt lat="46.069473045099656" lon="12.112745793611989"><ele>340.0</ele><time>2026-05-03T12:15:26.999Z</time></trkpt><trkpt lat="46.069499240508655" lon="12.112871421385945"><ele>340.0</ele><time>2026-05-03T12:15:27.999Z</time></trkpt><trkpt lat="46.06951567854424" lon="12.113018740472548"><ele>340.0</ele><time>2026-05-03T12:15:28.999Z</time></trkpt><trkpt lat="46.069527064532345" lon="12.11317679345085"><ele>340.6</ele><time>2026-05-03T12:15:29.999Z</time></trkpt><trkpt lat="46.069538392905336" lon="12.113319493870899"><ele>341.2</ele><time>2026-05-03T12:15:30.999Z</time></trkpt><trkpt lat="46.06954013647902" lon="12.113435423512156"><ele>341.79999999999995</ele><time>2026-05-03T12:15:31.999Z</time></trkpt><trkpt lat="46.06952059361371" lon="12.113554643592465"><ele>342.4</ele><time>2026-05-03T12:15:33.999Z</time></trkpt><trkpt lat="46.0694985471895" lon="12.113642730574767"><ele>343.0</ele><time>2026-05-03T12:15:36.999Z</time></trkpt><trkpt lat="46.06931408281922" lon="12.113646899698088"><ele>343.0</ele><time>2026-05-03T12:15:37.999Z</time></trkpt><trkpt lat="46.069232994416396" lon="12.113708866487112"><ele>343.0</ele><time>2026-05-03T12:15:38.999Z</time></trkpt><trkpt lat="46.06912747776572" lon="12.113755421503335"><ele>343.0</ele><time>2026-05-03T12:15:39.999Z</time></trkpt><trkpt lat="46.0690216075726" lon="12.113820204941828"><ele>343.0</ele><time>2026-05-03T12:15:40.999Z</time></trkpt><trkpt lat="46.068919932639005" lon="12.113858928152524"><ele>343.0</ele><time>2026-05-03T12:15:41.999Z</time></trkpt><trkpt lat="46.06881543245275" lon="12.113931726033464"><ele>344.5</ele><time>2026-05-03T12:15:42.999Z</time></trkpt><trkpt lat="46.06872507992555" lon="12.114052167996052"><ele>346.0</ele><time>2026-05-03T12:15:43.999Z</time></trkpt><trkpt lat="46.068638681509015" lon="12.11417234195254"><ele>347.5</ele><time>2026-05-03T12:15:44.999Z</time></trkpt><trkpt lat="46.06854654690309" lon="12.114282524753401"><ele>349.0</ele><time>2026-05-03T12:15:45.999Z</time></trkpt><trkpt lat="46.06844615077057" lon="12.114373398681634"><ele>349.0</ele><time>2026-05-03T12:15:46.999Z</time></trkpt><trkpt lat="46.06834404774183" lon="12.11446805163829"><ele>349.0</ele><time>2026-05-03T12:15:47.999Z</time></trkpt><trkpt lat="46.06824281975682" lon="12.114554075085877"><ele>349.0</ele><time>2026-05-03T12:15:48.999Z</time></trkpt><trkpt lat="46.06813625441061" lon="12.114613813846924"><ele>349.0</ele><time>2026-05-03T12:15:49.999Z</time></trkpt><trkpt lat="46.068052970663324" lon="12.114681628471047"><ele>349.0</ele><time>2026-05-03T12:15:50.999Z</time></trkpt><trkpt lat="46.06796517789173" lon="12.114749571184536"><ele>349.4</ele><time>2026-05-03T12:15:51.999Z</time></trkpt><trkpt lat="46.06787871511143" lon="12.114811901854711"><ele>349.79999999999995</ele><time>2026-05-03T12:15:52.999Z</time></trkpt><trkpt lat="46.067793484451705" lon="12.1148701042994"><ele>350.20000000000005</ele><time>2026-05-03T12:15:53.999Z</time></trkpt><trkpt lat="46.067698402032526" lon="12.11492310439488"><ele>350.6</ele><time>2026-05-03T12:15:54.999Z</time></trkpt><trkpt lat="46.06759314640234" lon="12.11496812553331"><ele>351.0</ele><time>2026-05-03T12:15:55.999Z</time></trkpt><trkpt lat="46.06747909930475" lon="12.115008766796336"><ele>349.3333333333333</ele><time>2026-05-03T12:15:56.999Z</time></trkpt><trkpt lat="46.0673454373761" lon="12.11504981839396"><ele>347.66666666666663</ele><time>2026-05-03T12:15:57.999Z</time></trkpt><trkpt lat="46.067197628706715" lon="12.115094544492232"><ele>346.0</ele><time>2026-05-03T12:15:58.999Z</time></trkpt><trkpt lat="46.06703794355504" lon="12.115142864498877"><ele>346.0</ele><time>2026-05-03T12:15:59.999Z</time></trkpt><trkpt lat="46.0668822401684" lon="12.115208427382894"><ele>346.0</ele><time>2026-05-03T12:16:00.999Z</time></trkpt><trkpt lat="46.06672957775786" lon="12.115251171414773"><ele>346.0</ele><time>2026-05-03T12:16:01.999Z</time></trkpt><trkpt lat="46.06657329028977" lon="12.115303791658175"><ele>345.66666666666663</ele><time>2026-05-03T12:16:02.999Z</time></trkpt><trkpt lat="46.06641120636579" lon="12.11532831560473"><ele>345.3333333333333</ele><time>2026-05-03T12:16:03.999Z</time></trkpt><trkpt lat="46.06624971317748" lon="12.115382309028686"><ele>345.0</ele><time>2026-05-03T12:16:04.999Z</time></trkpt><trkpt lat="46.066090884598644" lon="12.11543802290969"><ele>345.0</ele><time>2026-05-03T12:16:05.999Z</time></trkpt><trkpt lat="46.06592755380237" lon="12.11547726107855"><ele>345.0</ele><time>2026-05-03T12:16:06.999Z</time></trkpt><trkpt lat="46.0657620571854" lon="12.115494856790713"><ele>345.0</ele><time>2026-05-03T12:16:07.999Z</time></trkpt><trkpt lat="46.06558972334712" lon="12.1154923437745"><ele>347.0</ele><time>2026-05-03T12:16:08.999Z</time></trkpt><trkpt lat="46.065410698365774" lon="12.115481484743167"><ele>349.0</ele><time>2026-05-03T12:16:09.999Z</time></trkpt><trkpt lat="46.06523975290502" lon="12.115465953095839"><ele>351.0</ele><time>2026-05-03T12:16:10.999Z</time></trkpt><trkpt lat="46.06509056354076" lon="12.115434957162355"><ele>351.0</ele><time>2026-05-03T12:16:11.999Z</time></trkpt><trkpt lat="46.064965190280574" lon="12.115380733089962"><ele>351.0</ele><time>2026-05-03T12:16:12.999Z</time></trkpt><trkpt lat="46.06486827186776" lon="12.115293128130226"><ele>351.0</ele><time>2026-05-03T12:16:13.999Z</time></trkpt><trkpt lat="46.06481266945924" lon="12.115157338491148"><ele>351.0</ele><time>2026-05-03T12:16:14.999Z</time></trkpt><trkpt lat="46.064739602766736" lon="12.11498905784376"><ele>353.25</ele><time>2026-05-03T12:16:15.999Z</time></trkpt><trkpt lat="46.06465340200957" lon="12.114818857644499"><ele>355.5</ele><time>2026-05-03T12:16:16.999Z</time></trkpt><trkpt lat="46.06455641123359" lon="12.114656690701993"><ele>357.75</ele><time>2026-05-03T12:16:17.999Z</time></trkpt><trkpt lat="46.06444281456485" lon="12.1145121960061"><ele>360.0</ele><time>2026-05-03T12:16:18.999Z</time></trkpt><trkpt lat="46.06432996288713" lon="12.114356757322588"><ele>360.0</ele><time>2026-05-03T12:16:19.999Z</time></trkpt><trkpt lat="46.064211799729414" lon="12.11420716772658"><ele>360.0</ele><time>2026-05-03T12:16:20.999Z</time></trkpt><trkpt lat="46.06411128923437" lon="12.114075669061462"><ele>360.0</ele><time>2026-05-03T12:16:21.999Z</time></trkpt><trkpt lat="46.0640275939856" lon="12.113968321910974"><ele>360.0</ele><time>2026-05-03T12:16:22.999Z</time></trkpt><trkpt lat="46.06396738131059" lon="12.113853548673"><ele>360.4</ele><time>2026-05-03T12:16:23.999Z</time></trkpt><trkpt lat="46.063898631214755" lon="12.113769122455695"><ele>360.8</ele><time>2026-05-03T12:16:24.999Z</time></trkpt><trkpt lat="46.06383338104547" lon="12.113714370137133"><ele>361.20000000000005</ele><time>2026-05-03T12:16:25.999Z</time></trkpt><trkpt lat="46.06374635085045" lon="12.113625450533847"><ele>361.6</ele><time>2026-05-03T12:16:27.999Z</time></trkpt><trkpt lat="46.063675247712034" lon="12.113590903774677"><ele>362.0</ele><time>2026-05-03T12:16:30.998Z</time></trkpt><trkpt lat="46.06357973981971" lon="12.113668677676799"><ele>362.0</ele><time>2026-05-03T12:16:32.998Z</time></trkpt><trkpt lat="46.063521043366" lon="12.113757296550522"><ele>362.0</ele><time>2026-05-03T12:16:33.998Z</time></trkpt><trkpt lat="46.06345121243062" lon="12.113850536614612"><ele>362.0</ele><time>2026-05-03T12:16:34.998Z</time></trkpt><trkpt lat="46.0633783317231" lon="12.113949872922198"><ele>362.0</ele><time>2026-05-03T12:16:35.998Z</time></trkpt><trkpt lat="46.06330727220981" lon="12.114046866451584"><ele>362.0</ele><time>2026-05-03T12:16:36.998Z</time></trkpt><trkpt lat="46.063242046920585" lon="12.114170285843489"><ele>363.5</ele><time>2026-05-03T12:16:37.998Z</time></trkpt><trkpt lat="46.06316931758043" lon="12.114310077517494"><ele>365.0</ele><time>2026-05-03T12:16:38.998Z</time></trkpt><trkpt lat="46.06306837848222" lon="12.114432199090414"><ele>366.5</ele><time>2026-05-03T12:16:39.998Z</time></trkpt><trkpt lat="46.06296144120908" lon="12.114560684534858"><ele>368.0</ele><time>2026-05-03T12:16:40.998Z</time></trkpt><trkpt lat="46.0628494774539" lon="12.114695752676084"><ele>368.0</ele><time>2026-05-03T12:16:41.998Z</time></trkpt><trkpt lat="46.062755723828054" lon="12.114839176812323"><ele>368.0</ele><time>2026-05-03T12:16:42.998Z</time></trkpt><trkpt lat="46.06267853191827" lon="12.114956136937618"><ele>368.0</ele><time>2026-05-03T12:16:43.998Z</time></trkpt><trkpt lat="46.06259880828794" lon="12.115081050655574"><ele>368.0</ele><time>2026-05-03T12:16:44.998Z</time></trkpt><trkpt lat="46.062532038280686" lon="12.115214673593446"><ele>368.6666666666667</ele><time>2026-05-03T12:16:45.998Z</time></trkpt><trkpt lat="46.062478272217184" lon="12.115338340758372"><ele>369.33333333333337</ele><time>2026-05-03T12:16:46.998Z</time></trkpt><trkpt lat="46.06243088809506" lon="12.11545582579801"><ele>370.0</ele><time>2026-05-03T12:16:47.998Z</time></trkpt><trkpt lat="46.062394042465584" lon="12.115557513394613"><ele>370.6666666666667</ele><time>2026-05-03T12:16:48.998Z</time></trkpt><trkpt lat="46.06237190975436" lon="12.115659268745183"><ele>371.3333333333333</ele><time>2026-05-03T12:16:49.997Z</time></trkpt><trkpt lat="46.062358261739114" lon="12.115785127483958"><ele>372.0</ele><time>2026-05-03T12:16:50.997Z</time></trkpt><trkpt lat="46.06236694162567" lon="12.11592245396254"><ele>374.6</ele><time>2026-05-03T12:16:51.997Z</time></trkpt><trkpt lat="46.062362133859246" lon="12.116057946931583"><ele>377.20000000000005</ele><time>2026-05-03T12:16:52.997Z</time></trkpt><trkpt lat="46.06236823295602" lon="12.116196454427394"><ele>379.8</ele><time>2026-05-03T12:16:53.997Z</time></trkpt><trkpt lat="46.06238425305363" lon="12.116341030941598"><ele>382.4</ele><time>2026-05-03T12:16:54.997Z</time></trkpt><trkpt lat="46.06240539003061" lon="12.116484215057712"><ele>385.0</ele><time>2026-05-03T12:16:55.997Z</time></trkpt><trkpt lat="46.06243274956271" lon="12.116627903244048"><ele>385.4</ele><time>2026-05-03T12:16:56.997Z</time></trkpt><trkpt lat="46.06243034586772" lon="12.116779355514009"><ele>385.8</ele><time>2026-05-03T12:16:57.997Z</time></trkpt><trkpt lat="46.0624324336044" lon="12.116930270383826"><ele>386.20000000000005</ele><time>2026-05-03T12:16:58.997Z</time></trkpt><trkpt lat="46.06241571258256" lon="12.117077391890831"><ele>386.6</ele><time>2026-05-03T12:16:59.996Z</time></trkpt><trkpt lat="46.06241099020523" lon="12.117230467961768"><ele>387.0</ele><time>2026-05-03T12:17:00.996Z</time></trkpt><trkpt lat="46.0624053957225" lon="12.117373902707614"><ele>387.20000000000005</ele><time>2026-05-03T12:17:01.996Z</time></trkpt><trkpt lat="46.06239692943696" lon="12.117507826022937"><ele>387.4</ele><time>2026-05-03T12:17:02.996Z</time></trkpt><trkpt lat="46.06238631338051" lon="12.117641136260904"><ele>387.6</ele><time>2026-05-03T12:17:03.996Z</time></trkpt><trkpt lat="46.06237279122577" lon="12.1177778839986"><ele>387.79999999999995</ele><time>2026-05-03T12:17:04.996Z</time></trkpt><trkpt lat="46.06235693513222" lon="12.117917274440506"><ele>388.0</ele><time>2026-05-03T12:17:05.996Z</time></trkpt><trkpt lat="46.06233854160604" lon="12.118061914952408"><ele>388.0</ele><time>2026-05-03T12:17:06.996Z</time></trkpt><trkpt lat="46.0623172045049" lon="12.118206967221422"><ele>388.0</ele><time>2026-05-03T12:17:07.997Z</time></trkpt><trkpt lat="46.06229284118056" lon="12.118351968834709"><ele>388.0</ele><time>2026-05-03T12:17:08.997Z</time></trkpt><trkpt lat="46.062269897801684" lon="12.118502081126852"><ele>388.0</ele><time>2026-05-03T12:17:09.997Z</time></trkpt><trkpt lat="46.062223528708316" lon="12.118653796014305"><ele>388.0</ele><time>2026-05-03T12:17:10.997Z</time></trkpt><trkpt lat="46.06211647634107" lon="12.118748619548638"><ele>387.5</ele><time>2026-05-03T12:17:11.997Z</time></trkpt><trkpt lat="46.06202057394586" lon="12.118878814594817"><ele>387.0</ele><time>2026-05-03T12:17:12.997Z</time></trkpt><trkpt lat="46.06191754340794" lon="12.119002136076363"><ele>386.5</ele><time>2026-05-03T12:17:13.997Z</time></trkpt><trkpt lat="46.0618013694343" lon="12.119115255995725"><ele>386.0</ele><time>2026-05-03T12:17:14.997Z</time></trkpt><trkpt lat="46.06167155148711" lon="12.119210468747854"><ele>389.5</ele><time>2026-05-03T12:17:15.997Z</time></trkpt><trkpt lat="46.06155582756795" lon="12.119310431890922"><ele>393.0</ele><time>2026-05-03T12:17:16.997Z</time></trkpt><trkpt lat="46.061463066577545" lon="12.11944535239082"><ele>396.5</ele><time>2026-05-03T12:17:17.997Z</time></trkpt><trkpt lat="46.061385327224976" lon="12.119603731831027"><ele>400.0</ele><time>2026-05-03T12:17:18.997Z</time></trkpt><trkpt lat="46.06133031434366" lon="12.11979841501092"><ele>399.75</ele><time>2026-05-03T12:17:19.997Z</time></trkpt><trkpt lat="46.0612838611772" lon="12.119993400860182"><ele>399.5</ele><time>2026-05-03T12:17:20.997Z</time></trkpt><trkpt lat="46.061184413560085" lon="12.120121386792967"><ele>399.25</ele><time>2026-05-03T12:17:21.997Z</time></trkpt><trkpt lat="46.0610600545175" lon="12.120190921582635"><ele>399.0</ele><time>2026-05-03T12:17:22.997Z</time></trkpt><trkpt lat="46.06092481908875" lon="12.120273501077822"><ele>399.0</ele><time>2026-05-03T12:17:23.997Z</time></trkpt><trkpt lat="46.06081387903686" lon="12.120380673222819"><ele>399.0</ele><time>2026-05-03T12:17:24.997Z</time></trkpt><trkpt lat="46.060699369819844" lon="12.120478979217939"><ele>399.0</ele><time>2026-05-03T12:17:25.997Z</time></trkpt><trkpt lat="46.06059466236955" lon="12.120634972440156"><ele>399.0</ele><time>2026-05-03T12:17:26.998Z</time></trkpt><trkpt lat="46.06049585403983" lon="12.120816968347167"><ele>403.66666666666663</ele><time>2026-05-03T12:17:27.998Z</time></trkpt><trkpt lat="46.06040156095385" lon="12.121012998285133"><ele>408.3333333333333</ele><time>2026-05-03T12:17:28.998Z</time></trkpt><trkpt lat="46.060312836347045" lon="12.121220393956252"><ele>413.0</ele><time>2026-05-03T12:17:29.998Z</time></trkpt><trkpt lat="46.06020473147688" lon="12.121383198617243"><ele>413.0</ele><time>2026-05-03T12:17:30.998Z</time></trkpt><trkpt lat="46.06009753930285" lon="12.121490245979352"><ele>413.0</ele><time>2026-05-03T12:17:31.998Z</time></trkpt><trkpt lat="46.05998585230078" lon="12.12153117195379"><ele>413.0</ele><time>2026-05-03T12:17:32.998Z</time></trkpt><trkpt lat="46.05986725668664" lon="12.121518793515484"><ele>413.0</ele><time>2026-05-03T12:17:33.998Z</time></trkpt><trkpt lat="46.05976284678361" lon="12.121499738087653"><ele>416.0</ele><time>2026-05-03T12:17:34.998Z</time></trkpt><trkpt lat="46.0596092595042" lon="12.121480439121246"><ele>419.0</ele><time>2026-05-03T12:17:35.998Z</time></trkpt><trkpt lat="46.05945814929721" lon="12.121520314254756"><ele>422.0</ele><time>2026-05-03T12:17:36.998Z</time></trkpt><trkpt lat="46.059302170406816" lon="12.121528538866771"><ele>422.0</ele><time>2026-05-03T12:17:37.998Z</time></trkpt><trkpt lat="46.0591601708797" lon="12.121483055786529"><ele>422.0</ele><time>2026-05-03T12:17:38.998Z</time></trkpt><trkpt lat="46.059014417525965" lon="12.12144955389866"><ele>422.0</ele><time>2026-05-03T12:17:39.998Z</time></trkpt><trkpt lat="46.05886542848663" lon="12.121419635205676"><ele>422.0</ele><time>2026-05-03T12:17:40.998Z</time></trkpt><trkpt lat="46.05871811808868" lon="12.12138451858625"><ele>425.5</ele><time>2026-05-03T12:17:41.998Z</time></trkpt><trkpt lat="46.05858068994916" lon="12.12133113280594"><ele>429.0</ele><time>2026-05-03T12:17:42.998Z</time></trkpt><trkpt lat="46.05843052633412" lon="12.12127333601559"><ele>432.5</ele><time>2026-05-03T12:17:43.998Z</time></trkpt><trkpt lat="46.058300192265186" lon="12.121282537932068"><ele>436.0</ele><time>2026-05-03T12:17:44.998Z</time></trkpt><trkpt lat="46.05817330963091" lon="12.121318329210803"><ele>439.0</ele><time>2026-05-03T12:17:45.998Z</time></trkpt><trkpt lat="46.05803934635013" lon="12.121390331894355"><ele>442.0</ele><time>2026-05-03T12:17:46.998Z</time></trkpt><trkpt lat="46.05790820387761" lon="12.121449513572568"><ele>445.0</ele><time>2026-05-03T12:17:47.998Z</time></trkpt><trkpt lat="46.05780030546132" lon="12.121503809024162"><ele>448.0</ele><time>2026-05-03T12:17:48.998Z</time></trkpt><trkpt lat="46.057713342531585" lon="12.1215953718015"><ele>448.5</ele><time>2026-05-03T12:17:49.998Z</time></trkpt><trkpt lat="46.057645484313305" lon="12.121744161526426"><ele>449.0</ele><time>2026-05-03T12:17:50.998Z</time></trkpt><trkpt lat="46.05760314062988" lon="12.121936010012542"><ele>449.5</ele><time>2026-05-03T12:17:51.998Z</time></trkpt><trkpt lat="46.05758660316936" lon="12.122107651302507"><ele>450.0</ele><time>2026-05-03T12:17:52.998Z</time></trkpt><trkpt lat="46.05755296475916" lon="12.122211598195967"><ele>450.0</ele><time>2026-05-03T12:17:53.998Z</time></trkpt><trkpt lat="46.05747669466774" lon="12.122265521784023"><ele>450.0</ele><time>2026-05-03T12:17:54.998Z</time></trkpt><trkpt lat="46.05738919953133" lon="12.122185652991853"><ele>450.0</ele><time>2026-05-03T12:17:55.998Z</time></trkpt><trkpt lat="46.057351000018166" lon="12.122077724974934"><ele>450.0</ele><time>2026-05-03T12:17:56.998Z</time></trkpt><trkpt lat="46.057255826686095" lon="12.121969823728506"><ele>450.0</ele><time>2026-05-03T12:17:57.998Z</time></trkpt><trkpt lat="46.057167296729446" lon="12.121833505048908"><ele>453.25</ele><time>2026-05-03T12:17:58.998Z</time></trkpt><trkpt lat="46.05707235855543" lon="12.121706702058246"><ele>456.5</ele><time>2026-05-03T12:17:59.998Z</time></trkpt><trkpt lat="46.05697416922568" lon="12.121591913190256"><ele>459.75</ele><time>2026-05-03T12:18:00.998Z</time></trkpt><trkpt lat="46.05686032596361" lon="12.121490739733147"><ele>463.0</ele><time>2026-05-03T12:18:01.998Z</time></trkpt><trkpt lat="46.056796532827114" lon="12.121341269109417"><ele>463.0</ele><time>2026-05-03T12:18:02.998Z</time></trkpt><trkpt lat="46.0567268899961" lon="12.121213087451425"><ele>463.0</ele><time>2026-05-03T12:18:03.998Z</time></trkpt><trkpt lat="46.05671081204531" lon="12.121021210942416"><ele>463.0</ele><time>2026-05-03T12:18:04.998Z</time></trkpt><trkpt lat="46.05665868648812" lon="12.120827994248309"><ele>463.0</ele><time>2026-05-03T12:18:05.998Z</time></trkpt><trkpt lat="46.05658239745989" lon="12.12064511238231"><ele>464.25</ele><time>2026-05-03T12:18:06.998Z</time></trkpt><trkpt lat="46.05649712942462" lon="12.12046641305357"><ele>465.5</ele><time>2026-05-03T12:18:07.998Z</time></trkpt><trkpt lat="46.05638466630239" lon="12.120322228952327"><ele>466.75</ele><time>2026-05-03T12:18:08.998Z</time></trkpt><trkpt lat="46.056267057661096" lon="12.120204562430663"><ele>468.0</ele><time>2026-05-03T12:18:09.998Z</time></trkpt><trkpt lat="46.05615080661875" lon="12.120128050644864"><ele>468.0</ele><time>2026-05-03T12:18:10.998Z</time></trkpt><trkpt lat="46.056045912199934" lon="12.120094471887905"><ele>467.99999999999994</ele><time>2026-05-03T12:18:11.998Z</time></trkpt><trkpt lat="46.05595747411127" lon="12.120062433474487"><ele>467.99999999999994</ele><time>2026-05-03T12:18:12.998Z</time></trkpt><trkpt lat="46.0558668116677" lon="12.12001716920208"><ele>468.0</ele><time>2026-05-03T12:18:13.998Z</time></trkpt><trkpt lat="46.05576924480736" lon="12.119981529909651"><ele>468.0</ele><time>2026-05-03T12:18:14.998Z</time></trkpt><trkpt lat="46.05568005417825" lon="12.119953316155623"><ele>468.6666666666667</ele><time>2026-05-03T12:18:15.998Z</time></trkpt><trkpt lat="46.05560251111862" lon="12.119933208892752"><ele>469.33333333333337</ele><time>2026-05-03T12:18:16.998Z</time></trkpt><trkpt lat="46.05550667783329" lon="12.119866077099369"><ele>470.0</ele><time>2026-05-03T12:18:18.998Z</time></trkpt><trkpt lat="46.055431037268136" lon="12.119813588512036"><ele>470.6666666666667</ele><time>2026-05-03T12:18:20.998Z</time></trkpt><trkpt lat="46.05532256385517" lon="12.119821800209277"><ele>471.33333333333337</ele><time>2026-05-03T12:18:22.998Z</time></trkpt><trkpt lat="46.05526120601539" lon="12.119843524570555"><ele>472.0</ele><time>2026-05-03T12:18:23.998Z</time></trkpt><trkpt lat="46.05517386994962" lon="12.119863896388885"><ele>472.83333333333337</ele><time>2026-05-03T12:18:25.998Z</time></trkpt><trkpt lat="46.05521257552364" lon="12.119983117374087"><ele>473.6666666666667</ele><time>2026-05-03T12:18:29.998Z</time></trkpt><trkpt lat="46.055246969822065" lon="12.120072548199081"><ele>474.5</ele><time>2026-05-03T12:18:30.998Z</time></trkpt><trkpt lat="46.05528469288774" lon="12.120176012629177"><ele>475.33333333333337</ele><time>2026-05-03T12:18:31.998Z</time></trkpt><trkpt lat="46.0553185488169" lon="12.120281539503496"><ele>476.1666666666667</ele><time>2026-05-03T12:18:32.998Z</time></trkpt><trkpt lat="46.055343193059855" lon="12.120386698829712"><ele>477.0</ele><time>2026-05-03T12:18:33.998Z</time></trkpt><trkpt lat="46.055289696171634" lon="12.120546382919587"><ele>477.0</ele><time>2026-05-03T12:18:34.998Z</time></trkpt><trkpt lat="46.05532260691754" lon="12.120697189618747"><ele>477.0</ele><time>2026-05-03T12:18:35.998Z</time></trkpt><trkpt lat="46.05534200147923" lon="12.120861102312903"><ele>477.0</ele><time>2026-05-03T12:18:36.998Z</time></trkpt><trkpt lat="46.05535652332364" lon="12.12103426300438"><ele>477.0</ele><time>2026-05-03T12:18:37.998Z</time></trkpt><trkpt lat="46.05537319977432" lon="12.121194123668387"><ele>479.0</ele><time>2026-05-03T12:18:38.998Z</time></trkpt><trkpt lat="46.055384507128686" lon="12.121363139668457"><ele>481.0</ele><time>2026-05-03T12:18:39.998Z</time></trkpt><trkpt lat="46.055391643749694" lon="12.121525525030583"><ele>483.0</ele><time>2026-05-03T12:18:40.998Z</time></trkpt><trkpt lat="46.05536544023749" lon="12.121695874902603"><ele>485.0</ele><time>2026-05-03T12:18:41.998Z</time></trkpt><trkpt lat="46.055344455546155" lon="12.12185829453339"><ele>486.2</ele><time>2026-05-03T12:18:42.998Z</time></trkpt><trkpt lat="46.05533082854965" lon="12.122004481466986"><ele>487.4</ele><time>2026-05-03T12:18:43.998Z</time></trkpt><trkpt lat="46.05531244797605" lon="12.122128915278944"><ele>488.6</ele><time>2026-05-03T12:18:44.998Z</time></trkpt><trkpt lat="46.05527907892245" lon="12.122218885709511"><ele>489.8</ele><time>2026-05-03T12:18:45.998Z</time></trkpt><trkpt lat="46.055216913001495" lon="12.12236553715814"><ele>491.0</ele><time>2026-05-03T12:18:47.998Z</time></trkpt><trkpt lat="46.05510830977024" lon="12.122400913030411"><ele>490.99999999999994</ele><time>2026-05-03T12:18:49.998Z</time></trkpt><trkpt lat="46.055044931015736" lon="12.12242985558169"><ele>491.0</ele><time>2026-05-03T12:18:50.998Z</time></trkpt><trkpt lat="46.05493255134102" lon="12.122453454027921"><ele>491.0</ele><time>2026-05-03T12:18:52.998Z</time></trkpt><trkpt lat="46.05487054825322" lon="12.12243271999919"><ele>491.0</ele><time>2026-05-03T12:18:53.998Z</time></trkpt><trkpt lat="46.054794404229845" lon="12.12239615958037"><ele>490.99999999999994</ele><time>2026-05-03T12:18:54.998Z</time></trkpt><trkpt lat="46.054722737670346" lon="12.122375320158735"><ele>491.0</ele><time>2026-05-03T12:18:55.998Z</time></trkpt><trkpt lat="46.05465276050263" lon="12.122354971973143"><ele>490.6</ele><time>2026-05-03T12:18:56.998Z</time></trkpt><trkpt lat="46.05456205948447" lon="12.122322023020384"><ele>490.20000000000005</ele><time>2026-05-03T12:18:58.998Z</time></trkpt><trkpt lat="46.05459003841756" lon="12.122220248178769"><ele>489.79999999999995</ele><time>2026-05-03T12:18:59.998Z</time></trkpt><trkpt lat="46.054557912320895" lon="12.122092292027416"><ele>489.4</ele><time>2026-05-03T12:19:00.998Z</time></trkpt><trkpt lat="46.054525483844" lon="12.121945794748346"><ele>489.0</ele><time>2026-05-03T12:19:01.998Z</time></trkpt><trkpt lat="46.05449565054945" lon="12.121790201838985"><ele>489.0</ele><time>2026-05-03T12:19:02.998Z</time></trkpt><trkpt lat="46.05446906289964" lon="12.121640682071542"><ele>489.0</ele><time>2026-05-03T12:19:03.998Z</time></trkpt><trkpt lat="46.05444680079757" lon="12.121505441632015"><ele>489.0</ele><time>2026-05-03T12:19:04.998Z</time></trkpt><trkpt lat="46.054424838958994" lon="12.121370659487447"><ele>489.0</ele><time>2026-05-03T12:19:05.997Z</time></trkpt><trkpt lat="46.05440266352317" lon="12.12123456646154"><ele>489.0</ele><time>2026-05-03T12:19:06.997Z</time></trkpt><trkpt lat="46.0543813870295" lon="12.12110399768233"><ele>489.0</ele><time>2026-05-03T12:19:07.997Z</time></trkpt><trkpt lat="46.05433655861802" lon="12.120974638339167"><ele>489.0</ele><time>2026-05-03T12:19:08.997Z</time></trkpt><trkpt lat="46.05430870574804" lon="12.120818589510229"><ele>489.0</ele><time>2026-05-03T12:19:09.997Z</time></trkpt><trkpt lat="46.05426103719156" lon="12.120676209687517"><ele>489.0</ele><time>2026-05-03T12:19:10.997Z</time></trkpt><trkpt lat="46.05419090828389" lon="12.120551670576868"><ele>489.0</ele><time>2026-05-03T12:19:11.997Z</time></trkpt><trkpt lat="46.05412446020906" lon="12.12043592649651"><ele>488.79999999999995</ele><time>2026-05-03T12:19:12.997Z</time></trkpt><trkpt lat="46.05404638531955" lon="12.120331358194584"><ele>488.59999999999997</ele><time>2026-05-03T12:19:13.997Z</time></trkpt><trkpt lat="46.05398637128157" lon="12.120204759699163"><ele>488.4</ele><time>2026-05-03T12:19:14.997Z</time></trkpt><trkpt lat="46.05391463456671" lon="12.12008593060243"><ele>488.2</ele><time>2026-05-03T12:19:15.998Z</time></trkpt><trkpt lat="46.053838254670765" lon="12.119961059729217"><ele>488.0</ele><time>2026-05-03T12:19:16.998Z</time></trkpt><trkpt lat="46.05376305416335" lon="12.119839016351811"><ele>487.99999999999994</ele><time>2026-05-03T12:19:17.998Z</time></trkpt><trkpt lat="46.05368530412331" lon="12.119729285279332"><ele>488.0</ele><time>2026-05-03T12:19:18.998Z</time></trkpt><trkpt lat="46.05361928922913" lon="12.119631078054525"><ele>488.0</ele><time>2026-05-03T12:19:19.998Z</time></trkpt><trkpt lat="46.05356407731778" lon="12.119556343287327"><ele>488.0</ele><time>2026-05-03T12:19:20.998Z</time></trkpt><trkpt lat="46.053511678302975" lon="12.119493415376043"><ele>487.99999999999994</ele><time>2026-05-03T12:19:21.998Z</time></trkpt><trkpt lat="46.05347328441866" lon="12.119400834683967"><ele>488.0</ele><time>2026-05-03T12:19:22.998Z</time></trkpt><trkpt lat="46.05343461944103" lon="12.11931413060391"><ele>488.0</ele><time>2026-05-03T12:19:23.998Z</time></trkpt><trkpt lat="46.05341650726048" lon="12.119225767484549"><ele>487.99999999999994</ele><time>2026-05-03T12:19:24.998Z</time></trkpt><trkpt lat="46.05340007642536" lon="12.119134271997178"><ele>487.99999999999994</ele><time>2026-05-03T12:19:25.998Z</time></trkpt><trkpt lat="46.053380387234355" lon="12.118977002329405"><ele>488.0</ele><time>2026-05-03T12:19:27.998Z</time></trkpt><trkpt lat="46.05322928189453" lon="12.119019422721406"><ele>488.0</ele><time>2026-05-03T12:19:30.998Z</time></trkpt><trkpt lat="46.05318176404236" lon="12.1191176435501"><ele>488.4</ele><time>2026-05-03T12:19:31.998Z</time></trkpt><trkpt lat="46.05313422484031" lon="12.119227291787736"><ele>488.79999999999995</ele><time>2026-05-03T12:19:32.998Z</time></trkpt><trkpt lat="46.05306335359689" lon="12.11930768177147"><ele>489.2</ele><time>2026-05-03T12:19:33.998Z</time></trkpt><trkpt lat="46.05299593377993" lon="12.119406368493463"><ele>489.6</ele><time>2026-05-03T12:19:34.998Z</time></trkpt><trkpt lat="46.05291681352705" lon="12.119505717087106"><ele>490.0</ele><time>2026-05-03T12:19:35.998Z</time></trkpt><trkpt lat="46.0528227418651" lon="12.119573354376405"><ele>490.0</ele><time>2026-05-03T12:19:36.998Z</time></trkpt><trkpt lat="46.05272495783339" lon="12.119632269659094"><ele>490.0</ele><time>2026-05-03T12:19:37.998Z</time></trkpt><trkpt lat="46.05262255039614" lon="12.1197150557222"><ele>490.0</ele><time>2026-05-03T12:19:38.998Z</time></trkpt><trkpt lat="46.052510406769386" lon="12.119790769275777"><ele>490.0</ele><time>2026-05-03T12:19:39.999Z</time></trkpt><trkpt lat="46.05240489151154" lon="12.119888920815633"><ele>491.0</ele><time>2026-05-03T12:19:40.999Z</time></trkpt><trkpt lat="46.052313069571426" lon="12.120007805214735"><ele>492.0</ele><time>2026-05-03T12:19:41.999Z</time></trkpt><trkpt lat="46.052235944266855" lon="12.120144952776917"><ele>493.0</ele><time>2026-05-03T12:19:42.999Z</time></trkpt><trkpt lat="46.052160124670884" lon="12.120297594431307"><ele>494.0</ele><time>2026-05-03T12:19:43.999Z</time></trkpt><trkpt lat="46.052079790193005" lon="12.120448152357739"><ele>494.0</ele><time>2026-05-03T12:19:44.999Z</time></trkpt><trkpt lat="46.051977344645074" lon="12.120563996120426"><ele>494.0</ele><time>2026-05-03T12:19:45.999Z</time></trkpt><trkpt lat="46.05189184219491" lon="12.120701103634676"><ele>494.0</ele><time>2026-05-03T12:19:46.999Z</time></trkpt><trkpt lat="46.05179650813579" lon="12.120818557427997"><ele>494.0</ele><time>2026-05-03T12:19:47.999Z</time></trkpt><trkpt lat="46.05170508001199" lon="12.12093074423377"><ele>496.2</ele><time>2026-05-03T12:19:48.999Z</time></trkpt><trkpt lat="46.05161596396244" lon="12.121038275021219"><ele>498.4</ele><time>2026-05-03T12:19:49.999Z</time></trkpt><trkpt lat="46.05153426551099" lon="12.121145139028144"><ele>500.6</ele><time>2026-05-03T12:19:50.999Z</time></trkpt><trkpt lat="46.05146084340748" lon="12.121264383995568"><ele>502.8</ele><time>2026-05-03T12:19:51.999Z</time></trkpt><trkpt lat="46.0514044690221" lon="12.121397374841253"><ele>505.0</ele><time>2026-05-03T12:19:52.999Z</time></trkpt><trkpt lat="46.05134771319489" lon="12.121544020368608"><ele>506.75</ele><time>2026-05-03T12:19:53.999Z</time></trkpt><trkpt lat="46.051291970447586" lon="12.121687245077986"><ele>508.5</ele><time>2026-05-03T12:19:54.999Z</time></trkpt><trkpt lat="46.05124179111938" lon="12.121836890256601"><ele>510.25</ele><time>2026-05-03T12:19:55.999Z</time></trkpt><trkpt lat="46.05120769507711" lon="12.12199048205598"><ele>512.0</ele><time>2026-05-03T12:19:56.999Z</time></trkpt><trkpt lat="46.051187329801415" lon="12.12214655195923"><ele>512.0</ele><time>2026-05-03T12:19:57.999Z</time></trkpt><trkpt lat="46.051198765291865" lon="12.122303875015563"><ele>512.0</ele><time>2026-05-03T12:19:58.999Z</time></trkpt><trkpt lat="46.05124475452421" lon="12.122445255809165"><ele>512.0</ele><time>2026-05-03T12:19:59.999Z</time></trkpt><trkpt lat="46.051293760742304" lon="12.122584884499542"><ele>512.0</ele><time>2026-05-03T12:20:00.999Z</time></trkpt><trkpt lat="46.051321619054555" lon="12.122740527656099"><ele>512.0</ele><time>2026-05-03T12:20:01.999Z</time></trkpt><trkpt lat="46.05135582014974" lon="12.122921484562132"><ele>514.25</ele><time>2026-05-03T12:20:02.999Z</time></trkpt><trkpt lat="46.05137812302679" lon="12.123111619866025"><ele>516.5</ele><time>2026-05-03T12:20:03.999Z</time></trkpt><trkpt lat="46.05136059456065" lon="12.123301000142478"><ele>518.75</ele><time>2026-05-03T12:20:04.999Z</time></trkpt><trkpt lat="46.051342491099774" lon="12.123470602537331"><ele>521.0</ele><time>2026-05-03T12:20:05.999Z</time></trkpt><trkpt lat="46.051327576463166" lon="12.123600078901356"><ele>521.5</ele><time>2026-05-03T12:20:06.999Z</time></trkpt><trkpt lat="46.05131198856135" lon="12.12369805782568"><ele>522.0</ele><time>2026-05-03T12:20:07.999Z</time></trkpt><trkpt lat="46.05121041259642" lon="12.12380661061424"><ele>522.5</ele><time>2026-05-03T12:20:09.999Z</time></trkpt><trkpt lat="46.05114318010019" lon="12.123838785111419"><ele>523.0</ele><time>2026-05-03T12:20:10.999Z</time></trkpt><trkpt lat="46.05107795834074" lon="12.12387427662772"><ele>523.5</ele><time>2026-05-03T12:20:11.999Z</time></trkpt><trkpt lat="46.050995543374334" lon="12.123783313606612"><ele>524.0</ele><time>2026-05-03T12:20:12.999Z</time></trkpt><trkpt lat="46.050901325586295" lon="12.12376491610427"><ele>524.0</ele><time>2026-05-03T12:20:13.999Z</time></trkpt><trkpt lat="46.05079901320622" lon="12.123779913737774"><ele>524.0</ele><time>2026-05-03T12:20:14.999Z</time></trkpt><trkpt lat="46.05068364860555" lon="12.123764008183619"><ele>524.0</ele><time>2026-05-03T12:20:15.999Z</time></trkpt><trkpt lat="46.0505670568776" lon="12.123802993259227"><ele>524.0</ele><time>2026-05-03T12:20:16.999Z</time></trkpt><trkpt lat="46.050452375275015" lon="12.123845303185233"><ele>526.5</ele><time>2026-05-03T12:20:17.999Z</time></trkpt><trkpt lat="46.0503465880967" lon="12.123864978092017"><ele>529.0</ele><time>2026-05-03T12:20:18.999Z</time></trkpt><trkpt lat="46.05026581154515" lon="12.123889966568848"><ele>531.5</ele><time>2026-05-03T12:20:19.999Z</time></trkpt><trkpt lat="46.050199480996106" lon="12.123879245318516"><ele>534.0</ele><time>2026-05-03T12:20:20.999Z</time></trkpt><trkpt lat="46.050141439024735" lon="12.123783794029858"><ele>536.5</ele><time>2026-05-03T12:20:22.999Z</time></trkpt><trkpt lat="46.05015437980847" lon="12.12368459912612"><ele>539.0</ele><time>2026-05-03T12:20:23.999Z</time></trkpt><trkpt lat="46.050133800608826" lon="12.12354826415447"><ele>539.0</ele><time>2026-05-03T12:20:24.999Z</time></trkpt><trkpt lat="46.05007408873979" lon="12.123416228154849"><ele>539.0</ele><time>2026-05-03T12:20:25.999Z</time></trkpt><trkpt lat="46.0500005036963" lon="12.123300421989551"><ele>539.0</ele><time>2026-05-03T12:20:26.999Z</time></trkpt><trkpt lat="46.04993277435772" lon="12.123212022139999"><ele>539.0</ele><time>2026-05-03T12:20:27.999Z</time></trkpt><trkpt lat="46.04982679630717" lon="12.123147755227896"><ele>539.0</ele><time>2026-05-03T12:20:28.999Z</time></trkpt><trkpt lat="46.04970925580237" lon="12.123111403969709"><ele>542.0</ele><time>2026-05-03T12:20:29.999Z</time></trkpt><trkpt lat="46.04958169588863" lon="12.12309478611211"><ele>545.0</ele><time>2026-05-03T12:20:30.999Z</time></trkpt><trkpt lat="46.049476180303174" lon="12.123106071813101"><ele>548.0</ele><time>2026-05-03T12:20:31.999Z</time></trkpt><trkpt lat="46.049381281526145" lon="12.123160425857362"><ele>551.0</ele><time>2026-05-03T12:20:32.999Z</time></trkpt><trkpt lat="46.04929985813377" lon="12.123267616481375"><ele>554.0</ele><time>2026-05-03T12:20:33.999Z</time></trkpt><trkpt lat="46.04922844766739" lon="12.123426581427129"><ele>554.4</ele><time>2026-05-03T12:20:34.999Z</time></trkpt><trkpt lat="46.04917825257562" lon="12.123580447221542"><ele>554.8</ele><time>2026-05-03T12:20:35.999Z</time></trkpt><trkpt lat="46.04915617501682" lon="12.123750100475489"><ele>555.2</ele><time>2026-05-03T12:20:36.999Z</time></trkpt><trkpt lat="46.04915966266312" lon="12.12390384454039"><ele>555.6</ele><time>2026-05-03T12:20:37.999Z</time></trkpt><trkpt lat="46.04916537181817" lon="12.124008009667389"><ele>556.0</ele><time>2026-05-03T12:20:38.999Z</time></trkpt><trkpt lat="46.04912417023815" lon="12.124084665613667"><ele>559.0</ele><time>2026-05-03T12:20:39.999Z</time></trkpt><trkpt lat="46.04905235699438" lon="12.124123752732503"><ele>562.0</ele><time>2026-05-03T12:20:40.999Z</time></trkpt><trkpt lat="46.04896211288157" lon="12.124090039900617"><ele>565.0</ele><time>2026-05-03T12:20:41.999Z</time></trkpt><trkpt lat="46.04890288941452" lon="12.123990624126423"><ele>568.0</ele><time>2026-05-03T12:20:42.999Z</time></trkpt><trkpt lat="46.048803479355854" lon="12.123950546940355"><ele>571.0</ele><time>2026-05-03T12:20:43.999Z</time></trkpt><trkpt lat="46.048701988512214" lon="12.123964468803075"><ele>571.0</ele><time>2026-05-03T12:20:44.999Z</time></trkpt><trkpt lat="46.04860601050727" lon="12.124044005098769"><ele>571.0</ele><time>2026-05-03T12:20:45.999Z</time></trkpt><trkpt lat="46.048497611389024" lon="12.124032298077637"><ele>571.0</ele><time>2026-05-03T12:20:46.999Z</time></trkpt><trkpt lat="46.0483897329077" lon="12.123997113668947"><ele>571.0</ele><time>2026-05-03T12:20:47.999Z</time></trkpt><trkpt lat="46.04827580103706" lon="12.12400120832568"><ele>571.0</ele><time>2026-05-03T12:20:48.999Z</time></trkpt><trkpt lat="46.048182050927394" lon="12.124057146251825"><ele>576.6666666666667</ele><time>2026-05-03T12:20:49.999Z</time></trkpt><trkpt lat="46.048117628357964" lon="12.124119931307563"><ele>582.3333333333334</ele><time>2026-05-03T12:20:50.999Z</time></trkpt><trkpt lat="46.04807405803492" lon="12.124209663967765"><ele>588.0</ele><time>2026-05-03T12:20:51.999Z</time></trkpt><trkpt lat="46.04803745692113" lon="12.124324602750917"><ele>593.6666666666666</ele><time>2026-05-03T12:20:53.999Z</time></trkpt><trkpt lat="46.04808940665575" lon="12.124484110837544"><ele>599.3333333333333</ele><time>2026-05-03T12:20:55.999Z</time></trkpt><trkpt lat="46.04812362968878" lon="12.124588717880284"><ele>605.0</ele><time>2026-05-03T12:20:56.999Z</time></trkpt><trkpt lat="46.0481710140556" lon="12.124661788255207"><ele>605.0</ele><time>2026-05-03T12:20:57.999Z</time></trkpt><trkpt lat="46.04824521798786" lon="12.124703362917714"><ele>605.0</ele><time>2026-05-03T12:20:58.999Z</time></trkpt><trkpt lat="46.04833785973142" lon="12.124761855625957"><ele>605.0</ele><time>2026-05-03T12:20:59.999Z</time></trkpt><trkpt lat="46.048422869924394" lon="12.12484186849827"><ele>605.0</ele><time>2026-05-03T12:21:00.999Z</time></trkpt><trkpt lat="46.04849842781011" lon="12.124921403838425"><ele>605.0</ele><time>2026-05-03T12:21:01.999Z</time></trkpt><trkpt lat="46.04856960637604" lon="12.1250299973799"><ele>604.2</ele><time>2026-05-03T12:21:02.999Z</time></trkpt><trkpt lat="46.048667389533236" lon="12.125125812837318"><ele>603.4</ele><time>2026-05-03T12:21:03.999Z</time></trkpt><trkpt lat="46.048747219516784" lon="12.125223777255671"><ele>602.6</ele><time>2026-05-03T12:21:04.999Z</time></trkpt><trkpt lat="46.04878612271443" lon="12.125341100976113"><ele>601.8</ele><time>2026-05-03T12:21:05.999Z</time></trkpt><trkpt lat="46.0487669214176" lon="12.125455960003684"><ele>601.0</ele><time>2026-05-03T12:21:06.999Z</time></trkpt><trkpt lat="46.04873342316599" lon="12.125535316643488"><ele>601.0</ele><time>2026-05-03T12:21:07.999Z</time></trkpt><trkpt lat="46.04869503438617" lon="12.125656496831406"><ele>601.0</ele><time>2026-05-03T12:21:08.999Z</time></trkpt><trkpt lat="46.04865030805282" lon="12.12576736196678"><ele>601.0</ele><time>2026-05-03T12:21:09.999Z</time></trkpt><trkpt lat="46.04859328100185" lon="12.125866517602649"><ele>601.0</ele><time>2026-05-03T12:21:10.999Z</time></trkpt><trkpt lat="46.04853330469927" lon="12.125959002902134"><ele>601.0</ele><time>2026-05-03T12:21:11.998Z</time></trkpt><trkpt lat="46.04847050264378" lon="12.126045361901882"><ele>601.0</ele><time>2026-05-03T12:21:12.998Z</time></trkpt><trkpt lat="46.04840757229296" lon="12.126124857949852"><ele>602.8</ele><time>2026-05-03T12:21:13.998Z</time></trkpt><trkpt lat="46.04833265490052" lon="12.126219914081368"><ele>604.6</ele><time>2026-05-03T12:21:14.998Z</time></trkpt><trkpt lat="46.04826192271137" lon="12.126313126682751"><ele>606.4</ele><time>2026-05-03T12:21:15.998Z</time></trkpt><trkpt lat="46.048203241319165" lon="12.126433918396058"><ele>608.2</ele><time>2026-05-03T12:21:16.999Z</time></trkpt><trkpt lat="46.0481406071811" lon="12.12655004500674"><ele>610.0</ele><time>2026-05-03T12:21:17.999Z</time></trkpt><trkpt lat="46.04809477996508" lon="12.12668289810439"><ele>611.2</ele><time>2026-05-03T12:21:18.999Z</time></trkpt><trkpt lat="46.048058416880245" lon="12.12680988854748"><ele>612.4</ele><time>2026-05-03T12:21:19.999Z</time></trkpt><trkpt lat="46.04801997465672" lon="12.126934588583694"><ele>613.6</ele><time>2026-05-03T12:21:20.999Z</time></trkpt><trkpt lat="46.047973966727604" lon="12.127054712358074"><ele>614.8</ele><time>2026-05-03T12:21:21.999Z</time></trkpt><trkpt lat="46.04792343412772" lon="12.12718072424966"><ele>616.0</ele><time>2026-05-03T12:21:22.999Z</time></trkpt><trkpt lat="46.04785419292478" lon="12.127291022987569"><ele>616.5</ele><time>2026-05-03T12:21:23.999Z</time></trkpt><trkpt lat="46.047789408370576" lon="12.12740305444034"><ele>617.0</ele><time>2026-05-03T12:21:24.999Z</time></trkpt><trkpt lat="46.047735320366456" lon="12.12747967598725"><ele>617.5</ele><time>2026-05-03T12:21:25.999Z</time></trkpt><trkpt lat="46.04768227422739" lon="12.12754915833732"><ele>618.0</ele><time>2026-05-03T12:21:26.999Z</time></trkpt><trkpt lat="46.047627879640565" lon="12.127618042438955"><ele>618.5</ele><time>2026-05-03T12:21:27.999Z</time></trkpt><trkpt lat="46.04757612987583" lon="12.127683022091416"><ele>619.0</ele><time>2026-05-03T12:21:28.999Z</time></trkpt><trkpt lat="46.04749378411277" lon="12.127804905765863"><ele>621.6</ele><time>2026-05-03T12:21:30.999Z</time></trkpt><trkpt lat="46.04740448180052" lon="12.12791442800987"><ele>624.2</ele><time>2026-05-03T12:21:32.999Z</time></trkpt><trkpt lat="46.04732199001901" lon="12.128020230143735"><ele>626.8000000000001</ele><time>2026-05-03T12:21:34.999Z</time></trkpt><trkpt lat="46.04724449771886" lon="12.12811060850467"><ele>629.4</ele><time>2026-05-03T12:21:36.999Z</time></trkpt><trkpt lat="46.04716543186879" lon="12.128170669336145"><ele>632.0</ele><time>2026-05-03T12:21:38.999Z</time></trkpt><trkpt lat="46.04709651609739" lon="12.12825670266286"><ele>632.0</ele><time>2026-05-03T12:21:41.999Z</time></trkpt><trkpt lat="46.04702096081601" lon="12.128288635097885"><ele>632.0</ele><time>2026-05-03T12:21:43.999Z</time></trkpt><trkpt lat="46.046929391105046" lon="12.128324516209053"><ele>632.0</ele><time>2026-05-03T12:21:45.999Z</time></trkpt><trkpt lat="46.046824409878155" lon="12.128348420697113"><ele>632.0</ele><time>2026-05-03T12:21:47.999Z</time></trkpt><trkpt lat="46.046723031204856" lon="12.128362026027729"><ele>632.0</ele><time>2026-05-03T12:21:49.999Z</time></trkpt><trkpt lat="46.04664354245057" lon="12.128397967150587"><ele>634.1666666666666</ele><time>2026-05-03T12:21:51.999Z</time></trkpt><trkpt lat="46.04654546717325" lon="12.128385078632844"><ele>636.3333333333333</ele><time>2026-05-03T12:21:53.999Z</time></trkpt><trkpt lat="46.046450568060514" lon="12.128409709098971"><ele>638.5</ele><time>2026-05-03T12:21:55.999Z</time></trkpt><trkpt lat="46.046376384020896" lon="12.128386548579554"><ele>640.6666666666666</ele><time>2026-05-03T12:21:57.999Z</time></trkpt><trkpt lat="46.04630196948551" lon="12.128405215194114"><ele>642.8333333333334</ele><time>2026-05-03T12:22:00Z</time></trkpt><trkpt lat="46.04623151580481" lon="12.12842734647947"><ele>645.0</ele><time>2026-05-03T12:22:10Z</time></trkpt><trkpt lat="46.046160737287565" lon="12.128521705131645"><ele>645.0</ele><time>2026-05-03T12:23:52Z</time></trkpt><trkpt lat="46.04606647378308" lon="12.128572082918035"><ele>645.0</ele><time>2026-05-03T12:23:54Z</time></trkpt><trkpt lat="46.045959409024675" lon="12.128652649198012"><ele>645.0</ele><time>2026-05-03T12:23:56Z</time></trkpt><trkpt lat="46.04588757873835" lon="12.128689775295614"><ele>645.0</ele><time>2026-05-03T12:23:57Z</time></trkpt><trkpt lat="46.045828906264376" lon="12.128747955955186"><ele>645.0</ele><time>2026-05-03T12:23:58Z</time></trkpt><trkpt lat="46.04576878039293" lon="12.12880757830536"><ele>645.0</ele><time>2026-05-03T12:23:59Z</time></trkpt><trkpt lat="46.04571376596128" lon="12.128861066431767"><ele>647.1666666666666</ele><time>2026-05-03T12:24:00Z</time></trkpt><trkpt lat="46.04565711333156" lon="12.128910529710497"><ele>649.3333333333334</ele><time>2026-05-03T12:24:01Z</time></trkpt><trkpt lat="46.045590175410375" lon="12.128958716902943"><ele>651.5</ele><time>2026-05-03T12:24:02Z</time></trkpt><trkpt lat="46.045474627026636" lon="12.1289900081566"><ele>653.6666666666667</ele><time>2026-05-03T12:24:04Z</time></trkpt><trkpt lat="46.04538974518641" lon="12.128995000344345"><ele>655.8333333333334</ele><time>2026-05-03T12:24:05Z</time></trkpt><trkpt lat="46.0452961570262" lon="12.128989864324845"><ele>658.0</ele><time>2026-05-03T12:24:06Z</time></trkpt><trkpt lat="46.04519503139022" lon="12.129004755158794"><ele>658.0</ele><time>2026-05-03T12:24:07Z</time></trkpt><trkpt lat="46.04510382373488" lon="12.129040766998385"><ele>658.0</ele><time>2026-05-03T12:24:08Z</time></trkpt><trkpt lat="46.04501330904879" lon="12.12908675399317"><ele>658.0</ele><time>2026-05-03T12:24:09Z</time></trkpt><trkpt lat="46.04492446312952" lon="12.129151220898539"><ele>658.0</ele><time>2026-05-03T12:24:10Z</time></trkpt><trkpt lat="46.0448465346188" lon="12.129219738803885"><ele>658.0</ele><time>2026-05-03T12:24:11Z</time></trkpt><trkpt lat="46.044780779656584" lon="12.129312242731903"><ele>657.6666666666667</ele><time>2026-05-03T12:24:12Z</time></trkpt><trkpt lat="46.044718350576375" lon="12.129386483271428"><ele>657.3333333333334</ele><time>2026-05-03T12:24:13Z</time></trkpt><trkpt lat="46.04465933759875" lon="12.129430815125858"><ele>657.0</ele><time>2026-05-03T12:24:14Z</time></trkpt><trkpt lat="46.04459103672825" lon="12.12945988265154"><ele>656.6666666666666</ele><time>2026-05-03T12:24:15Z</time></trkpt><trkpt lat="46.044515304675535" lon="12.12940684298535"><ele>656.3333333333333</ele><time>2026-05-03T12:24:16.001Z</time></trkpt><trkpt lat="46.04444798426488" lon="12.129376492681294"><ele>656.0</ele><time>2026-05-03T12:24:17.001Z</time></trkpt><trkpt lat="46.044373935254555" lon="12.129343824589936"><ele>656.0</ele><time>2026-05-03T12:24:18.001Z</time></trkpt><trkpt lat="46.04427875739989" lon="12.129288613013875"><ele>656.0</ele><time>2026-05-03T12:24:19.001Z</time></trkpt><trkpt lat="46.04418398371367" lon="12.129234789143815"><ele>656.0</ele><time>2026-05-03T12:24:20.001Z</time></trkpt><trkpt lat="46.04408837328305" lon="12.129225264932552"><ele>656.0</ele><time>2026-05-03T12:24:21.001Z</time></trkpt><trkpt lat="46.04399198050753" lon="12.129238035968777"><ele>656.0</ele><time>2026-05-03T12:24:22.001Z</time></trkpt><trkpt lat="46.04389254414592" lon="12.129276404166767"><ele>657.0</ele><time>2026-05-03T12:24:23.001Z</time></trkpt><trkpt lat="46.043786758316706" lon="12.129307663806106"><ele>658.0</ele><time>2026-05-03T12:24:24.001Z</time></trkpt><trkpt lat="46.04369778574417" lon="12.12928166557015"><ele>659.0</ele><time>2026-05-03T12:24:25.001Z</time></trkpt><trkpt lat="46.043559245865296" lon="12.129354105492054"><ele>660.0</ele><time>2026-05-03T12:24:26.001Z</time></trkpt><trkpt lat="46.04350106991711" lon="12.129311483226408"><ele>661.0</ele><time>2026-05-03T12:24:27.001Z</time></trkpt><trkpt lat="46.043400694475636" lon="12.129309728498352"><ele>661.0</ele><time>2026-05-03T12:24:28.001Z</time></trkpt><trkpt lat="46.04331362059883" lon="12.129233134115157"><ele>661.0</ele><time>2026-05-03T12:24:29.001Z</time></trkpt><trkpt lat="46.04321014103087" lon="12.12912404491893"><ele>661.0</ele><time>2026-05-03T12:24:30.001Z</time></trkpt><trkpt lat="46.043095497164" lon="12.129124353886942"><ele>661.0</ele><time>2026-05-03T12:24:31.001Z</time></trkpt><trkpt lat="46.042984272719195" lon="12.129125911492999"><ele>663.0</ele><time>2026-05-03T12:24:32.001Z</time></trkpt><trkpt lat="46.04286099639882" lon="12.129124282881445"><ele>665.0</ele><time>2026-05-03T12:24:33.001Z</time></trkpt><trkpt lat="46.04274669588004" lon="12.129118904973582"><ele>667.0</ele><time>2026-05-03T12:24:34.001Z</time></trkpt><trkpt lat="46.042641836862984" lon="12.129109072409669"><ele>669.0</ele><time>2026-05-03T12:24:35.001Z</time></trkpt><trkpt lat="46.04255181746775" lon="12.129089149456902"><ele>671.0</ele><time>2026-05-03T12:24:36.001Z</time></trkpt><trkpt lat="46.042473357689325" lon="12.12905262282094"><ele>677.1999999999999</ele><time>2026-05-03T12:24:37.001Z</time></trkpt><trkpt lat="46.04238176094702" lon="12.129003816885719"><ele>683.4</ele><time>2026-05-03T12:24:38.001Z</time></trkpt><trkpt lat="46.04228097867935" lon="12.128948469625728"><ele>689.6</ele><time>2026-05-03T12:24:39.001Z</time></trkpt><trkpt lat="46.04217626382199" lon="12.128900503952147"><ele>695.8</ele><time>2026-05-03T12:24:40.001Z</time></trkpt><trkpt lat="46.042082965950165" lon="12.128848888806905"><ele>702.0</ele><time>2026-05-03T12:24:41.001Z</time></trkpt><trkpt lat="46.04201035336147" lon="12.128822446469416"><ele>702.0</ele><time>2026-05-03T12:24:42.001Z</time></trkpt><trkpt lat="46.0419342473734" lon="12.128826469917083"><ele>702.0</ele><time>2026-05-03T12:24:43.001Z</time></trkpt><trkpt lat="46.041859479343806" lon="12.128845514519597"><ele>702.0</ele><time>2026-05-03T12:24:44.001Z</time></trkpt><trkpt lat="46.041781126960046" lon="12.1288885632155"><ele>702.0</ele><time>2026-05-03T12:24:45.001Z</time></trkpt><trkpt lat="46.041719481929974" lon="12.12895758457265"><ele>702.0</ele><time>2026-05-03T12:24:46.001Z</time></trkpt><trkpt lat="46.041667650937526" lon="12.1290635267308"><ele>702.0</ele><time>2026-05-03T12:24:47.001Z</time></trkpt><trkpt lat="46.041612443038154" lon="12.12918685099544"><ele>703.2</ele><time>2026-05-03T12:24:48.001Z</time></trkpt><trkpt lat="46.041565898079064" lon="12.129329383992289"><ele>704.4000000000001</ele><time>2026-05-03T12:24:49.001Z</time></trkpt><trkpt lat="46.04151892303149" lon="12.129451058966655"><ele>705.5999999999999</ele><time>2026-05-03T12:24:50.001Z</time></trkpt><trkpt lat="46.04145329718796" lon="12.129539809393648"><ele>706.8</ele><time>2026-05-03T12:24:51.001Z</time></trkpt><trkpt lat="46.04136886683689" lon="12.129621445867514"><ele>708.0</ele><time>2026-05-03T12:24:52.001Z</time></trkpt><trkpt lat="46.04126607975046" lon="12.129687578292728"><ele>708.0</ele><time>2026-05-03T12:24:53.001Z</time></trkpt><trkpt lat="46.04116649547453" lon="12.129781770691263"><ele>708.0</ele><time>2026-05-03T12:24:54.001Z</time></trkpt><trkpt lat="46.04107418155778" lon="12.129883713941254"><ele>708.0</ele><time>2026-05-03T12:24:55.001Z</time></trkpt><trkpt lat="46.040957928221054" lon="12.129948478130594"><ele>708.0</ele><time>2026-05-03T12:24:56.001Z</time></trkpt><trkpt lat="46.040842530230215" lon="12.130001371517794"><ele>708.0</ele><time>2026-05-03T12:24:57.001Z</time></trkpt><trkpt lat="46.040721143052615" lon="12.130014413456575"><ele>708.0</ele><time>2026-05-03T12:24:58.001Z</time></trkpt><trkpt lat="46.040605801378774" lon="12.130024908523664"><ele>708.0</ele><time>2026-05-03T12:24:59.001Z</time></trkpt><trkpt lat="46.04048182428697" lon="12.130021482033818"><ele>708.0</ele><time>2026-05-03T12:25:00.001Z</time></trkpt><trkpt lat="46.04035810580291" lon="12.130031843309437"><ele>708.0</ele><time>2026-05-03T12:25:01.001Z</time></trkpt><trkpt lat="46.040270244961604" lon="12.130051422787266"><ele>708.0</ele><time>2026-05-03T12:25:02.001Z</time></trkpt><trkpt lat="46.04016193909095" lon="12.130093831893456"><ele>708.0</ele><time>2026-05-03T12:25:03.001Z</time></trkpt><trkpt lat="46.04005723359155" lon="12.130152565887654"><ele>708.0</ele><time>2026-05-03T12:25:04.001Z</time></trkpt><trkpt lat="46.03995216691248" lon="12.130216591012518"><ele>708.0</ele><time>2026-05-03T12:25:05.001Z</time></trkpt><trkpt lat="46.03984119167987" lon="12.130275538001651"><ele>712.25</ele><time>2026-05-03T12:25:06.001Z</time></trkpt><trkpt lat="46.03973136624763" lon="12.130337704843955"><ele>716.5</ele><time>2026-05-03T12:25:07.001Z</time></trkpt><trkpt lat="46.039623507419655" lon="12.130397993985298"><ele>720.75</ele><time>2026-05-03T12:25:08.001Z</time></trkpt><trkpt lat="46.039512635506476" lon="12.130465835212757"><ele>725.0</ele><time>2026-05-03T12:25:09.001Z</time></trkpt><trkpt lat="46.03940380700228" lon="12.130533248936667"><ele>725.0</ele><time>2026-05-03T12:25:10.001Z</time></trkpt><trkpt lat="46.039304813769746" lon="12.13058994841744"><ele>725.0</ele><time>2026-05-03T12:25:11.001Z</time></trkpt><trkpt lat="46.03919545472146" lon="12.130644359302854"><ele>725.0</ele><time>2026-05-03T12:25:12.001Z</time></trkpt><trkpt lat="46.03909246645652" lon="12.130690854426021"><ele>725.0</ele><time>2026-05-03T12:25:13.001Z</time></trkpt><trkpt lat="46.03898122839958" lon="12.130707615031824"><ele>725.0</ele><time>2026-05-03T12:25:14.001Z</time></trkpt><trkpt lat="46.03887956126817" lon="12.130733048167873"><ele>723.8</ele><time>2026-05-03T12:25:15.001Z</time></trkpt><trkpt lat="46.038779052147895" lon="12.130755220074539"><ele>722.6</ele><time>2026-05-03T12:25:16.001Z</time></trkpt><trkpt lat="46.038677731753225" lon="12.13077635697926"><ele>721.4000000000001</ele><time>2026-05-03T12:25:17.001Z</time></trkpt><trkpt lat="46.03857188986813" lon="12.130797008288225"><ele>720.2</ele><time>2026-05-03T12:25:18.001Z</time></trkpt><trkpt lat="46.03846269141788" lon="12.13081798109722"><ele>719.0</ele><time>2026-05-03T12:25:19.001Z</time></trkpt><trkpt lat="46.038357554487625" lon="12.130846855157792"><ele>719.6</ele><time>2026-05-03T12:25:20.001Z</time></trkpt><trkpt lat="46.03825002331714" lon="12.13086059183182"><ele>720.2</ele><time>2026-05-03T12:25:21.001Z</time></trkpt><trkpt lat="46.03815230701867" lon="12.130890400089989"><ele>720.8000000000001</ele><time>2026-05-03T12:25:22.001Z</time></trkpt><trkpt lat="46.03805721469572" lon="12.130871502656959"><ele>721.4000000000001</ele><time>2026-05-03T12:25:23.001Z</time></trkpt><trkpt lat="46.03796624318085" lon="12.130861063764812"><ele>722.0</ele><time>2026-05-03T12:25:24.001Z</time></trkpt><trkpt lat="46.03787899847302" lon="12.130826425888335"><ele>722.0</ele><time>2026-05-03T12:25:25.001Z</time></trkpt><trkpt lat="46.03780747164175" lon="12.130772655464604"><ele>722.0</ele><time>2026-05-03T12:25:26.001Z</time></trkpt><trkpt lat="46.0377336849562" lon="12.130697144183738"><ele>722.0</ele><time>2026-05-03T12:25:27.001Z</time></trkpt><trkpt lat="46.03766259941793" lon="12.130616441162587"><ele>722.0</ele><time>2026-05-03T12:25:28.001Z</time></trkpt><trkpt lat="46.03761258788717" lon="12.130534881797141"><ele>722.0</ele><time>2026-05-03T12:25:29.001Z</time></trkpt><trkpt lat="46.03756848560846" lon="12.130435645161432"><ele>722.0</ele><time>2026-05-03T12:25:30.001Z</time></trkpt><trkpt lat="46.03754148358377" lon="12.130329512916463"><ele>726.2</ele><time>2026-05-03T12:25:31.001Z</time></trkpt><trkpt lat="46.037537130059235" lon="12.130213663030148"><ele>730.4000000000001</ele><time>2026-05-03T12:25:32.001Z</time></trkpt><trkpt lat="46.03753259066545" lon="12.130074643593604"><ele>734.5999999999999</ele><time>2026-05-03T12:25:33.001Z</time></trkpt><trkpt lat="46.03752679123255" lon="12.12993263782708"><ele>738.8</ele><time>2026-05-03T12:25:34.001Z</time></trkpt><trkpt lat="46.03751540248817" lon="12.129801657242032"><ele>743.0</ele><time>2026-05-03T12:25:35.001Z</time></trkpt><trkpt lat="46.03748726775418" lon="12.1296832561909"><ele>745.6666666666666</ele><time>2026-05-03T12:25:36.001Z</time></trkpt><trkpt lat="46.037427924912464" lon="12.129582139644292"><ele>748.3333333333333</ele><time>2026-05-03T12:25:37.001Z</time></trkpt><trkpt lat="46.03734719686122" lon="12.129507773556666"><ele>751.0</ele><time>2026-05-03T12:25:38.001Z</time></trkpt><trkpt lat="46.037256279485824" lon="12.129463261752244"><ele>753.6666666666666</ele><time>2026-05-03T12:25:39.001Z</time></trkpt><trkpt lat="46.03717808787727" lon="12.129444832257047"><ele>756.3333333333334</ele><time>2026-05-03T12:25:40.001Z</time></trkpt><trkpt lat="46.03709572392343" lon="12.129445702743231"><ele>759.0</ele><time>2026-05-03T12:25:41.001Z</time></trkpt><trkpt lat="46.037002136836755" lon="12.129486471686514"><ele>759.0</ele><time>2026-05-03T12:25:42.001Z</time></trkpt><trkpt lat="46.036917479870084" lon="12.129547066336134"><ele>759.0</ele><time>2026-05-03T12:25:43.001Z</time></trkpt><trkpt lat="46.036852034621155" lon="12.129588260496671"><ele>759.0</ele><time>2026-05-03T12:25:44.001Z</time></trkpt><trkpt lat="46.036780989253835" lon="12.129624006647179"><ele>759.0</ele><time>2026-05-03T12:25:45.001Z</time></trkpt><trkpt lat="46.03671707752939" lon="12.129637892257662"><ele>759.0</ele><time>2026-05-03T12:25:46.001Z</time></trkpt><trkpt lat="46.03665370150353" lon="12.12963644835186"><ele>759.0</ele><time>2026-05-03T12:25:47.001Z</time></trkpt><trkpt lat="46.03656641289243" lon="12.129628407348669"><ele>759.6</ele><time>2026-05-03T12:25:48.001Z</time></trkpt><trkpt lat="46.03646387841445" lon="12.12963316145327"><ele>760.2</ele><time>2026-05-03T12:25:49.001Z</time></trkpt><trkpt lat="46.036363326197865" lon="12.129600138015864"><ele>760.8000000000001</ele><time>2026-05-03T12:25:50.001Z</time></trkpt><trkpt lat="46.036255294510184" lon="12.129574818089795"><ele>761.4000000000001</ele><time>2026-05-03T12:25:51.001Z</time></trkpt><trkpt lat="46.036153294068896" lon="12.129553298812569"><ele>762.0</ele><time>2026-05-03T12:25:52.001Z</time></trkpt><trkpt lat="46.03605610876116" lon="12.129532389535663"><ele>762.0</ele><time>2026-05-03T12:25:53.001Z</time></trkpt><trkpt lat="46.03595379990395" lon="12.129507207476495"><ele>762.0</ele><time>2026-05-03T12:25:54.001Z</time></trkpt><trkpt lat="46.03585159004549" lon="12.129471180524053"><ele>762.0</ele><time>2026-05-03T12:25:55.001Z</time></trkpt><trkpt lat="46.035758578067934" lon="12.12937766607487"><ele>762.0</ele><time>2026-05-03T12:25:56.001Z</time></trkpt><trkpt lat="46.035659563537344" lon="12.129252524018938"><ele>763.25</ele><time>2026-05-03T12:25:57.001Z</time></trkpt><trkpt lat="46.035542977278034" lon="12.129187196546074"><ele>764.5</ele><time>2026-05-03T12:25:58.001Z</time></trkpt><trkpt lat="46.03541277948757" lon="12.129161801573424"><ele>765.75</ele><time>2026-05-03T12:25:59.001Z</time></trkpt><trkpt lat="46.03529800397064" lon="12.129082601224434"><ele>767.0</ele><time>2026-05-03T12:26:00.001Z</time></trkpt><trkpt lat="46.03521607138584" lon="12.129000934604118"><ele>767.0</ele><time>2026-05-03T12:26:01.001Z</time></trkpt><trkpt lat="46.03513043882613" lon="12.128907743883369"><ele>767.0</ele><time>2026-05-03T12:26:02.001Z</time></trkpt><trkpt lat="46.035040583828106" lon="12.128811723989255"><ele>767.0</ele><time>2026-05-03T12:26:03.001Z</time></trkpt><trkpt lat="46.03493574218415" lon="12.128702788393031"><ele>767.0</ele><time>2026-05-03T12:26:04.001Z</time></trkpt><trkpt lat="46.03481745265326" lon="12.128582450991802"><ele>764.0</ele><time>2026-05-03T12:26:05.001Z</time></trkpt><trkpt lat="46.03471165366564" lon="12.12848627234031"><ele>761.0</ele><time>2026-05-03T12:26:06.001Z</time></trkpt><trkpt lat="46.034591197424895" lon="12.12840205215156"><ele>758.0</ele><time>2026-05-03T12:26:07.001Z</time></trkpt><trkpt lat="46.03446566222221" lon="12.128332602872192"><ele>755.0</ele><time>2026-05-03T12:26:08.001Z</time></trkpt><trkpt lat="46.034332719416" lon="12.128257895385463"><ele>757.25</ele><time>2026-05-03T12:26:09.001Z</time></trkpt><trkpt lat="46.034196737272865" lon="12.128170613862496"><ele>759.5</ele><time>2026-05-03T12:26:10.001Z</time></trkpt><trkpt lat="46.03406831213545" lon="12.128082246605898"><ele>761.75</ele><time>2026-05-03T12:26:11.001Z</time></trkpt><trkpt lat="46.03396049273529" lon="12.128001513976525"><ele>764.0</ele><time>2026-05-03T12:26:12.001Z</time></trkpt><trkpt lat="46.03386106034938" lon="12.12792328058286"><ele>764.0</ele><time>2026-05-03T12:26:13.001Z</time></trkpt><trkpt lat="46.033761349523175" lon="12.127849700152487"><ele>764.0</ele><time>2026-05-03T12:26:14.001Z</time></trkpt><trkpt lat="46.033655972134945" lon="12.127808103583677"><ele>764.0</ele><time>2026-05-03T12:26:15.001Z</time></trkpt><trkpt lat="46.033543401914635" lon="12.127742348313332"><ele>764.0</ele><time>2026-05-03T12:26:16.001Z</time></trkpt><trkpt lat="46.03342159523653" lon="12.127700646999175"><ele>764.0</ele><time>2026-05-03T12:26:17.001Z</time></trkpt><trkpt lat="46.033311030419625" lon="12.127679424372912"><ele>764.0</ele><time>2026-05-03T12:26:18.001Z</time></trkpt><trkpt lat="46.03319807215874" lon="12.12769618956864"><ele>764.0</ele><time>2026-05-03T12:26:19.001Z</time></trkpt><trkpt lat="46.03307220404457" lon="12.127693679738078"><ele>764.0</ele><time>2026-05-03T12:26:20.001Z</time></trkpt><trkpt lat="46.03296281201679" lon="12.127729602084756"><ele>763.3333333333333</ele><time>2026-05-03T12:26:21.001Z</time></trkpt><trkpt lat="46.03286427402597" lon="12.127764681534883"><ele>762.6666666666666</ele><time>2026-05-03T12:26:22.001Z</time></trkpt><trkpt lat="46.032778632512006" lon="12.127788644468561"><ele>762.0</ele><time>2026-05-03T12:26:23.001Z</time></trkpt><trkpt lat="46.032700496644026" lon="12.127811537922394"><ele>761.3333333333334</ele><time>2026-05-03T12:26:24.001Z</time></trkpt><trkpt lat="46.03261104030175" lon="12.127811684546378"><ele>760.6666666666667</ele><time>2026-05-03T12:26:25.001Z</time></trkpt><trkpt lat="46.03253871922725" lon="12.127814435091631"><ele>760.0</ele><time>2026-05-03T12:26:26.001Z</time></trkpt><trkpt lat="46.03246634443583" lon="12.127796091454298"><ele>758.8</ele><time>2026-05-03T12:26:27.001Z</time></trkpt><trkpt lat="46.03237746154285" lon="12.12777716315419"><ele>757.6</ele><time>2026-05-03T12:26:28.001Z</time></trkpt><trkpt lat="46.03228598084572" lon="12.127773104871535"><ele>756.4000000000001</ele><time>2026-05-03T12:26:29.001Z</time></trkpt><trkpt lat="46.032195806107836" lon="12.127804144176778"><ele>755.2</ele><time>2026-05-03T12:26:30.001Z</time></trkpt><trkpt lat="46.03210251895296" lon="12.127798096976223"><ele>754.0</ele><time>2026-05-03T12:26:31.001Z</time></trkpt><trkpt lat="46.032012488946" lon="12.127794684338209"><ele>754.0</ele><time>2026-05-03T12:26:32.001Z</time></trkpt><trkpt lat="46.031947603979575" lon="12.127721528162532"><ele>754.0</ele><time>2026-05-03T12:26:33.001Z</time></trkpt><trkpt lat="46.03189966579489" lon="12.127658876414568"><ele>754.0</ele><time>2026-05-03T12:26:34.001Z</time></trkpt><trkpt lat="46.031840548861226" lon="12.127599241319697"><ele>754.0</ele><time>2026-05-03T12:26:35.001Z</time></trkpt><trkpt lat="46.03176416158343" lon="12.127523185222115"><ele>754.0</ele><time>2026-05-03T12:26:36.001Z</time></trkpt><trkpt lat="46.031679016144935" lon="12.127445058757372"><ele>754.0</ele><time>2026-05-03T12:26:37.001Z</time></trkpt><trkpt lat="46.03157558845315" lon="12.127381439436919"><ele>755.0</ele><time>2026-05-03T12:26:38.001Z</time></trkpt><trkpt lat="46.031468356492425" lon="12.127366844409513"><ele>756.0</ele><time>2026-05-03T12:26:39.001Z</time></trkpt><trkpt lat="46.03136246821546" lon="12.127335700967922"><ele>757.0</ele><time>2026-05-03T12:26:40.001Z</time></trkpt><trkpt lat="46.031266945322905" lon="12.127282606531683"><ele>758.0</ele><time>2026-05-03T12:26:41.001Z</time></trkpt><trkpt lat="46.03116509246531" lon="12.127243333696729"><ele>759.0</ele><time>2026-05-03T12:26:42.001Z</time></trkpt><trkpt lat="46.03106467716404" lon="12.12719471259994"><ele>759.0</ele><time>2026-05-03T12:26:43.001Z</time></trkpt><trkpt lat="46.03095849483537" lon="12.127134627398272"><ele>759.0</ele><time>2026-05-03T12:26:44.001Z</time></trkpt><trkpt lat="46.03084439151694" lon="12.127065693729502"><ele>759.0</ele><time>2026-05-03T12:26:45.001Z</time></trkpt><trkpt lat="46.03072512237003" lon="12.12699363908896"><ele>759.0</ele><time>2026-05-03T12:26:46.001Z</time></trkpt><trkpt lat="46.03060028014471" lon="12.126920747628386"><ele>755.5</ele><time>2026-05-03T12:26:47.001Z</time></trkpt><trkpt lat="46.03048170678712" lon="12.126880431868782"><ele>752.0</ele><time>2026-05-03T12:26:48.001Z</time></trkpt><trkpt lat="46.03036068490515" lon="12.126824938277657"><ele>748.5</ele><time>2026-05-03T12:26:49.001Z</time></trkpt><trkpt lat="46.03025220539161" lon="12.126732592132011"><ele>745.0</ele><time>2026-05-03T12:26:50.001Z</time></trkpt><trkpt lat="46.030149755338805" lon="12.126636667071708"><ele>746.0</ele><time>2026-05-03T12:26:51.001Z</time></trkpt><trkpt lat="46.03004748567968" lon="12.12653352274506"><ele>747.0</ele><time>2026-05-03T12:26:52.001Z</time></trkpt><trkpt lat="46.02995012527747" lon="12.12643884569424"><ele>748.0</ele><time>2026-05-03T12:26:53.001Z</time></trkpt><trkpt lat="46.029843185308316" lon="12.126376249150724"><ele>749.0</ele><time>2026-05-03T12:26:54.001Z</time></trkpt><trkpt lat="46.02974965093287" lon="12.126302963145934"><ele>747.6</ele><time>2026-05-03T12:26:55.001Z</time></trkpt><trkpt lat="46.029666402717226" lon="12.126238433733446"><ele>746.2</ele><time>2026-05-03T12:26:56.001Z</time></trkpt><trkpt lat="46.02958869561767" lon="12.126199374297181"><ele>744.8000000000001</ele><time>2026-05-03T12:26:57.001Z</time></trkpt><trkpt lat="46.029526005027854" lon="12.126171473419031"><ele>743.4000000000001</ele><time>2026-05-03T12:26:58.001Z</time></trkpt><trkpt lat="46.02955063927882" lon="12.125882580555945"><ele>742.0</ele><time>2026-05-03T12:27:00.001Z</time></trkpt><trkpt lat="46.02955360134885" lon="12.125723006271288"><ele>742.0</ele><time>2026-05-03T12:27:01.001Z</time></trkpt><trkpt lat="46.02954688350125" lon="12.125543792296854"><ele>742.0</ele><time>2026-05-03T12:27:02.001Z</time></trkpt><trkpt lat="46.02954157244792" lon="12.125361386048358"><ele>742.0</ele><time>2026-05-03T12:27:03.001Z</time></trkpt><trkpt lat="46.02952551149627" lon="12.125179167492998"><ele>742.0</ele><time>2026-05-03T12:27:04.001Z</time></trkpt><trkpt lat="46.029524600001956" lon="12.124995928864978"><ele>741.75</ele><time>2026-05-03T12:27:05.001Z</time></trkpt><trkpt lat="46.02952162661244" lon="12.12480696405593"><ele>741.5</ele><time>2026-05-03T12:27:06.001Z</time></trkpt><trkpt lat="46.029549441822574" lon="12.124629502174344"><ele>741.25</ele><time>2026-05-03T12:27:07.001Z</time></trkpt><trkpt lat="46.02959124490938" lon="12.124478640622506"><ele>741.0</ele><time>2026-05-03T12:27:08.001Z</time></trkpt><trkpt lat="46.02964653831633" lon="12.124363121913433"><ele>741.0</ele><time>2026-05-03T12:27:09.001Z</time></trkpt><trkpt lat="46.02972797368525" lon="12.124302127462146"><ele>741.0</ele><time>2026-05-03T12:27:10.001Z</time></trkpt><trkpt lat="46.029811513392445" lon="12.12428292570794"><ele>741.0</ele><time>2026-05-03T12:27:11.001Z</time></trkpt><trkpt lat="46.029894625589996" lon="12.12431795061788"><ele>741.0</ele><time>2026-05-03T12:27:12.001Z</time></trkpt><trkpt lat="46.02996721481259" lon="12.124383295094189"><ele>741.0</ele><time>2026-05-03T12:27:13.001Z</time></trkpt><trkpt lat="46.03004218519609" lon="12.12446854471059"><ele>741.0</ele><time>2026-05-03T12:27:14.001Z</time></trkpt><trkpt lat="46.0301229431591" lon="12.124556021178659"><ele>744.0</ele><time>2026-05-03T12:27:15.001Z</time></trkpt><trkpt lat="46.03021207662588" lon="12.124630182199612"><ele>747.0</ele><time>2026-05-03T12:27:16.001Z</time></trkpt><trkpt lat="46.030297910751685" lon="12.12471293223684"><ele>750.0</ele><time>2026-05-03T12:27:17.001Z</time></trkpt><trkpt lat="46.0303949732105" lon="12.124763186969703"><ele>753.0</ele><time>2026-05-03T12:27:18.001Z</time></trkpt><trkpt lat="46.03049178320014" lon="12.124776213487443"><ele>756.0</ele><time>2026-05-03T12:27:19.001Z</time></trkpt><trkpt lat="46.0305751541363" lon="12.124731548749633"><ele>756.0</ele><time>2026-05-03T12:27:20.001Z</time></trkpt><trkpt lat="46.03062264865341" lon="12.12463757594349"><ele>756.0</ele><time>2026-05-03T12:27:21.001Z</time></trkpt><trkpt lat="46.03065508108274" lon="12.124505122559393"><ele>756.0</ele><time>2026-05-03T12:27:22.001Z</time></trkpt><trkpt lat="46.030669298765794" lon="12.124350895613368"><ele>756.0</ele><time>2026-05-03T12:27:23.001Z</time></trkpt><trkpt lat="46.03067623705755" lon="12.124179398264879"><ele>756.0</ele><time>2026-05-03T12:27:24.001Z</time></trkpt><trkpt lat="46.030687758894075" lon="12.124003611572233"><ele>754.75</ele><time>2026-05-03T12:27:25.001Z</time></trkpt><trkpt lat="46.030740479331925" lon="12.123855644239091"><ele>753.5</ele><time>2026-05-03T12:27:26.001Z</time></trkpt><trkpt lat="46.03080896881207" lon="12.123723842800075"><ele>752.25</ele><time>2026-05-03T12:27:27.001Z</time></trkpt><trkpt lat="46.03089050883239" lon="12.123584675601673"><ele>751.0</ele><time>2026-05-03T12:27:28.001Z</time></trkpt><trkpt lat="46.030980586765395" lon="12.1234479267582"><ele>753.25</ele><time>2026-05-03T12:27:29.001Z</time></trkpt><trkpt lat="46.031076064529536" lon="12.123325697486184"><ele>755.5</ele><time>2026-05-03T12:27:30.002Z</time></trkpt><trkpt lat="46.031189546021714" lon="12.123225193884467"><ele>757.75</ele><time>2026-05-03T12:27:31.002Z</time></trkpt><trkpt lat="46.0313188619032" lon="12.123130309072485"><ele>760.0</ele><time>2026-05-03T12:27:32.002Z</time></trkpt><trkpt lat="46.031444365056004" lon="12.12304710488557"><ele>760.0</ele><time>2026-05-03T12:27:33.002Z</time></trkpt><trkpt lat="46.0315763422664" lon="12.123002603642407"><ele>760.0</ele><time>2026-05-03T12:27:34.001Z</time></trkpt><trkpt lat="46.03171271992292" lon="12.122932358076909"><ele>760.0</ele><time>2026-05-03T12:27:35.001Z</time></trkpt><trkpt lat="46.03185666425155" lon="12.122922936873216"><ele>760.0</ele><time>2026-05-03T12:27:36.001Z</time></trkpt><trkpt lat="46.032010295650196" lon="12.12288296989454"><ele>762.6666666666667</ele><time>2026-05-03T12:27:37.001Z</time></trkpt><trkpt lat="46.032161893026505" lon="12.1228125127118"><ele>765.3333333333334</ele><time>2026-05-03T12:27:38.001Z</time></trkpt><trkpt lat="46.032309199368214" lon="12.122729678191012"><ele>768.0</ele><time>2026-05-03T12:27:39.001Z</time></trkpt><trkpt lat="46.0324567238412" lon="12.122646006590038"><ele>767.75</ele><time>2026-05-03T12:27:40.001Z</time></trkpt><trkpt lat="46.03260034734427" lon="12.122567588770584"><ele>767.5</ele><time>2026-05-03T12:27:41.001Z</time></trkpt><trkpt lat="46.03273303457041" lon="12.122481633628277"><ele>767.25</ele><time>2026-05-03T12:27:42.001Z</time></trkpt><trkpt lat="46.03285503822166" lon="12.122371834810512"><ele>767.0</ele><time>2026-05-03T12:27:43.001Z</time></trkpt><trkpt lat="46.03298110708351" lon="12.122259459022251"><ele>767.0</ele><time>2026-05-03T12:27:44.001Z</time></trkpt><trkpt lat="46.03310902929624" lon="12.122146768254412"><ele>767.0</ele><time>2026-05-03T12:27:45Z</time></trkpt><trkpt lat="46.03323404301824" lon="12.122030810204228"><ele>767.0</ele><time>2026-05-03T12:27:46Z</time></trkpt><trkpt lat="46.03335549142779" lon="12.121916962541217"><ele>767.0</ele><time>2026-05-03T12:27:47Z</time></trkpt><trkpt lat="46.033460968308454" lon="12.121794387460376"><ele>769.0</ele><time>2026-05-03T12:27:48Z</time></trkpt><trkpt lat="46.03356182927183" lon="12.121654978953858"><ele>771.0</ele><time>2026-05-03T12:27:49Z</time></trkpt><trkpt lat="46.03366903690782" lon="12.121531958688188"><ele>773.0</ele><time>2026-05-03T12:27:50Z</time></trkpt><trkpt lat="46.03377970585107" lon="12.121426631727829"><ele>775.0</ele><time>2026-05-03T12:27:51Z</time></trkpt><trkpt lat="46.03388169491248" lon="12.121321155011533"><ele>772.25</ele><time>2026-05-03T12:27:52Z</time></trkpt><trkpt lat="46.033981265168" lon="12.121226852532294"><ele>769.5</ele><time>2026-05-03T12:27:53Z</time></trkpt><trkpt lat="46.034074701087825" lon="12.121129549713109"><ele>766.75</ele><time>2026-05-03T12:27:54Z</time></trkpt><trkpt lat="46.03416997171376" lon="12.12103872167554"><ele>764.0</ele><time>2026-05-03T12:27:55Z</time></trkpt><trkpt lat="46.03427039576165" lon="12.120944473402966"><ele>764.0</ele><time>2026-05-03T12:27:56Z</time></trkpt><trkpt lat="46.03437739689155" lon="12.12086528791259"><ele>764.0</ele><time>2026-05-03T12:27:57Z</time></trkpt><trkpt lat="46.03448957113209" lon="12.120789903882848"><ele>764.0</ele><time>2026-05-03T12:27:58Z</time></trkpt><trkpt lat="46.0345976296368" lon="12.120704346858865"><ele>764.0</ele><time>2026-05-03T12:27:59Z</time></trkpt><trkpt lat="46.03469794452167" lon="12.120600887283883"><ele>761.5</ele><time>2026-05-03T12:28:00Z</time></trkpt><trkpt lat="46.03478054384123" lon="12.12044921026893"><ele>759.0</ele><time>2026-05-03T12:28:01Z</time></trkpt><trkpt lat="46.034858021744384" lon="12.120257932197324"><ele>756.5</ele><time>2026-05-03T12:28:02Z</time></trkpt><trkpt lat="46.03493121039429" lon="12.120062996019154"><ele>754.0</ele><time>2026-05-03T12:28:03Z</time></trkpt><trkpt lat="46.03500419228309" lon="12.119879243822215"><ele>754.0</ele><time>2026-05-03T12:28:04Z</time></trkpt><trkpt lat="46.03507769280953" lon="12.119725389308273"><ele>754.0</ele><time>2026-05-03T12:28:05Z</time></trkpt><trkpt lat="46.03517401964589" lon="12.119616095634356"><ele>754.0</ele><time>2026-05-03T12:28:06Z</time></trkpt><trkpt lat="46.03528540408323" lon="12.119560996023708"><ele>754.0</ele><time>2026-05-03T12:28:07Z</time></trkpt><trkpt lat="46.03540635930472" lon="12.119497139221286"><ele>754.0</ele><time>2026-05-03T12:28:08Z</time></trkpt><trkpt lat="46.03552067587843" lon="12.119415111999448"><ele>754.0</ele><time>2026-05-03T12:28:09Z</time></trkpt><trkpt lat="46.03560016120542" lon="12.119267315564544"><ele>754.0</ele><time>2026-05-03T12:28:10Z</time></trkpt><trkpt lat="46.035645601627856" lon="12.119135702051787"><ele>754.0</ele><time>2026-05-03T12:28:11Z</time></trkpt><trkpt lat="46.03566104334926" lon="12.118984374212351"><ele>751.75</ele><time>2026-05-03T12:28:12Z</time></trkpt><trkpt lat="46.035686078436875" lon="12.118816676599385"><ele>749.5</ele><time>2026-05-03T12:28:13Z</time></trkpt><trkpt lat="46.03574582894277" lon="12.118666855651982"><ele>747.25</ele><time>2026-05-03T12:28:14Z</time></trkpt><trkpt lat="46.03584782409324" lon="12.118534360805981"><ele>745.0</ele><time>2026-05-03T12:28:15Z</time></trkpt><trkpt lat="46.03594334557845" lon="12.118368621117726"><ele>741.6666666666667</ele><time>2026-05-03T12:28:16Z</time></trkpt><trkpt lat="46.0360475115077" lon="12.118217033131264"><ele>738.3333333333334</ele><time>2026-05-03T12:28:17Z</time></trkpt><trkpt lat="46.03615336364875" lon="12.118052784585027"><ele>735.0</ele><time>2026-05-03T12:28:18Z</time></trkpt><trkpt lat="46.036263362717136" lon="12.117895125120837"><ele>735.0</ele><time>2026-05-03T12:28:19Z</time></trkpt><trkpt lat="46.0363738364149" lon="12.117727186587924"><ele>735.0</ele><time>2026-05-03T12:28:20Z</time></trkpt><trkpt lat="46.03648547465089" lon="12.117547196476053"><ele>735.0</ele><time>2026-05-03T12:28:21Z</time></trkpt><trkpt lat="46.036601235125445" lon="12.11736547973173"><ele>732.6666666666666</ele><time>2026-05-03T12:28:22Z</time></trkpt><trkpt lat="46.03671566683311" lon="12.11718071549576"><ele>730.3333333333333</ele><time>2026-05-03T12:28:23Z</time></trkpt><trkpt lat="46.0368269155897" lon="12.116995526668138"><ele>728.0</ele><time>2026-05-03T12:28:24Z</time></trkpt><trkpt lat="46.036940024054836" lon="12.116805555536649"><ele>728.0</ele><time>2026-05-03T12:28:25Z</time></trkpt><trkpt lat="46.037057139683284" lon="12.116607003564289"><ele>728.0</ele><time>2026-05-03T12:28:26Z</time></trkpt><trkpt lat="46.03716639793214" lon="12.116402711928403"><ele>728.0</ele><time>2026-05-03T12:28:27Z</time></trkpt><trkpt lat="46.03728033348124" lon="12.116208643268493"><ele>724.3333333333333</ele><time>2026-05-03T12:28:28Z</time></trkpt><trkpt lat="46.03739162049493" lon="12.116006812863354"><ele>720.6666666666666</ele><time>2026-05-03T12:28:29Z</time></trkpt><trkpt lat="46.03749701957401" lon="12.115815080287113"><ele>717.0</ele><time>2026-05-03T12:28:30Z</time></trkpt><trkpt lat="46.037608874088164" lon="12.115637941767236"><ele>712.0</ele><time>2026-05-03T12:28:31Z</time></trkpt><trkpt lat="46.03771167904966" lon="12.115458731984097"><ele>707.0</ele><time>2026-05-03T12:28:32Z</time></trkpt><trkpt lat="46.03781615181727" lon="12.11528043775646"><ele>702.0</ele><time>2026-05-03T12:28:33Z</time></trkpt><trkpt lat="46.03792356773308" lon="12.11509258843402"><ele>702.0</ele><time>2026-05-03T12:28:34Z</time></trkpt><trkpt lat="46.03803113823797" lon="12.114908166567181"><ele>702.0</ele><time>2026-05-03T12:28:35Z</time></trkpt><trkpt lat="46.038142730609955" lon="12.114717355524741"><ele>702.0</ele><time>2026-05-03T12:28:36Z</time></trkpt><trkpt lat="46.03825313702558" lon="12.114529305792846"><ele>701.0</ele><time>2026-05-03T12:28:37Z</time></trkpt><trkpt lat="46.03836050727273" lon="12.114340489565729"><ele>700.0</ele><time>2026-05-03T12:28:38Z</time></trkpt><trkpt lat="46.03846471978598" lon="12.114159784614017"><ele>699.0</ele><time>2026-05-03T12:28:39Z</time></trkpt><trkpt lat="46.03856930551824" lon="12.113986856919901"><ele>695.6666666666666</ele><time>2026-05-03T12:28:40Z</time></trkpt><trkpt lat="46.03866841194608" lon="12.113807207206971"><ele>692.3333333333333</ele><time>2026-05-03T12:28:41Z</time></trkpt><trkpt lat="46.03876492178031" lon="12.113630920047028"><ele>689.0</ele><time>2026-05-03T12:28:42Z</time></trkpt><trkpt lat="46.038858004554875" lon="12.113461007041808"><ele>689.0</ele><time>2026-05-03T12:28:43Z</time></trkpt><trkpt lat="46.038956663879745" lon="12.113297540790505"><ele>689.0</ele><time>2026-05-03T12:28:44Z</time></trkpt><trkpt lat="46.039073756947076" lon="12.113162792230414"><ele>689.0</ele><time>2026-05-03T12:28:45Z</time></trkpt><trkpt lat="46.039184641503965" lon="12.11309199617752"><ele>689.0</ele><time>2026-05-03T12:28:46Z</time></trkpt><trkpt lat="46.039294486263536" lon="12.113087933398516"><ele>686.5</ele><time>2026-05-03T12:28:47Z</time></trkpt><trkpt lat="46.039421768939164" lon="12.113099076552738"><ele>684.0</ele><time>2026-05-03T12:28:48Z</time></trkpt><trkpt lat="46.03956080557064" lon="12.113113565534974"><ele>681.5</ele><time>2026-05-03T12:28:49Z</time></trkpt><trkpt lat="46.039714767945114" lon="12.113112923803701"><ele>679.0</ele><time>2026-05-03T12:28:50Z</time></trkpt><trkpt lat="46.03987185550067" lon="12.113139617611715"><ele>677.5</ele><time>2026-05-03T12:28:51Z</time></trkpt><trkpt lat="46.04001650304592" lon="12.113159512426453"><ele>676.0</ele><time>2026-05-03T12:28:52Z</time></trkpt><trkpt lat="46.040158269537606" lon="12.113149347799498"><ele>674.5</ele><time>2026-05-03T12:28:53Z</time></trkpt><trkpt lat="46.0402804718722" lon="12.11308362952088"><ele>673.0</ele><time>2026-05-03T12:28:54Z</time></trkpt><trkpt lat="46.04037459057175" lon="12.112967997781213"><ele>673.0</ele><time>2026-05-03T12:28:55Z</time></trkpt><trkpt lat="46.04042712216287" lon="12.11280910560419"><ele>673.0</ele><time>2026-05-03T12:28:56Z</time></trkpt><trkpt lat="46.04044469804823" lon="12.112608441779319"><ele>673.0</ele><time>2026-05-03T12:28:57Z</time></trkpt><trkpt lat="46.04042853085416" lon="12.112391010078719"><ele>673.0</ele><time>2026-05-03T12:28:58Z</time></trkpt><trkpt lat="46.04039818726937" lon="12.1121609543179"><ele>670.3333333333334</ele><time>2026-05-03T12:28:59Z</time></trkpt><trkpt lat="46.040369109527504" lon="12.111921619566035"><ele>667.6666666666666</ele><time>2026-05-03T12:29:00Z</time></trkpt><trkpt lat="46.04034465767593" lon="12.111680687104375"><ele>665.0</ele><time>2026-05-03T12:29:01Z</time></trkpt><trkpt lat="46.04031918718064" lon="12.111439093299731"><ele>663.25</ele><time>2026-05-03T12:29:02Z</time></trkpt><trkpt lat="46.04031642654651" lon="12.111203445552848"><ele>661.5</ele><time>2026-05-03T12:29:03Z</time></trkpt><trkpt lat="46.040302520551286" lon="12.110993497027632"><ele>659.75</ele><time>2026-05-03T12:29:04Z</time></trkpt><trkpt lat="46.04031543058739" lon="12.110801456101207"><ele>658.0</ele><time>2026-05-03T12:29:05Z</time></trkpt><trkpt lat="46.04036708274872" lon="12.11061671425951"><ele>656.25</ele><time>2026-05-03T12:29:06Z</time></trkpt><trkpt lat="46.04042864206309" lon="12.11041540598706"><ele>654.5</ele><time>2026-05-03T12:29:07Z</time></trkpt><trkpt lat="46.04048667187494" lon="12.110226208343652"><ele>652.75</ele><time>2026-05-03T12:29:08Z</time></trkpt><trkpt lat="46.040549657092406" lon="12.110056588883884"><ele>651.0</ele><time>2026-05-03T12:29:09Z</time></trkpt><trkpt lat="46.04063671351444" lon="12.109915114076218"><ele>649.0</ele><time>2026-05-03T12:29:10Z</time></trkpt><trkpt lat="46.04072710349536" lon="12.109784248173538"><ele>647.0</ele><time>2026-05-03T12:29:11Z</time></trkpt><trkpt lat="46.04078563002397" lon="12.10965896038503"><ele>645.0</ele><time>2026-05-03T12:29:12Z</time></trkpt><trkpt lat="46.04082514198425" lon="12.109559262349908"><ele>643.0</ele><time>2026-05-03T12:29:13Z</time></trkpt><trkpt lat="46.04081133739695" lon="12.109457357579808"><ele>641.0</ele><time>2026-05-03T12:29:14Z</time></trkpt><trkpt lat="46.0407594917483" lon="12.109364356995929"><ele>640.5</ele><time>2026-05-03T12:29:15Z</time></trkpt><trkpt lat="46.040638001302526" lon="12.109347655912897"><ele>640.0</ele><time>2026-05-03T12:29:16Z</time></trkpt><trkpt lat="46.04050791989319" lon="12.109366510249846"><ele>639.5</ele><time>2026-05-03T12:29:17Z</time></trkpt><trkpt lat="46.04037464761714" lon="12.109348261662255"><ele>639.0</ele><time>2026-05-03T12:29:18Z</time></trkpt><trkpt lat="46.040255943207036" lon="12.109344413956661"><ele>639.0</ele><time>2026-05-03T12:29:19Z</time></trkpt><trkpt lat="46.040164757769" lon="12.109335788801749"><ele>639.0</ele><time>2026-05-03T12:29:20Z</time></trkpt><trkpt lat="46.04009295657845" lon="12.109311709637103"><ele>639.0</ele><time>2026-05-03T12:29:21Z</time></trkpt><trkpt lat="46.0400464722119" lon="12.10916916968559"><ele>639.0</ele><time>2026-05-03T12:29:23Z</time></trkpt><trkpt lat="46.040123938117524" lon="12.109076431581363"><ele>639.0</ele><time>2026-05-03T12:29:24Z</time></trkpt><trkpt lat="46.040224882241304" lon="12.109002077192894"><ele>636.25</ele><time>2026-05-03T12:29:25Z</time></trkpt><trkpt lat="46.040309651305186" lon="12.108854568959455"><ele>633.5</ele><time>2026-05-03T12:29:26.001Z</time></trkpt><trkpt lat="46.04035191398637" lon="12.108667807317163"><ele>630.75</ele><time>2026-05-03T12:29:27.001Z</time></trkpt><trkpt lat="46.040396688814255" lon="12.108477415124394"><ele>628.0</ele><time>2026-05-03T12:29:28.001Z</time></trkpt><trkpt lat="46.04044285116672" lon="12.108274409617302"><ele>626.0</ele><time>2026-05-03T12:29:29.001Z</time></trkpt><trkpt lat="46.04048343307952" lon="12.108090001496626"><ele>624.0</ele><time>2026-05-03T12:29:30.001Z</time></trkpt><trkpt lat="46.04052021621722" lon="12.107914010490386"><ele>622.0</ele><time>2026-05-03T12:29:31.001Z</time></trkpt><trkpt lat="46.04056046875688" lon="12.107755590043428"><ele>620.0</ele><time>2026-05-03T12:29:32.001Z</time></trkpt><trkpt lat="46.04058040406433" lon="12.107626886037032"><ele>620.0</ele><time>2026-05-03T12:29:33.001Z</time></trkpt><trkpt lat="46.040571324012795" lon="12.10753305591087"><ele>620.0</ele><time>2026-05-03T12:29:34.001Z</time></trkpt><trkpt lat="46.0405189108531" lon="12.10746468370462"><ele>620.0</ele><time>2026-05-03T12:29:35.001Z</time></trkpt><trkpt lat="46.0404342417274" lon="12.107458552283179"><ele>620.0</ele><time>2026-05-03T12:29:36Z</time></trkpt><trkpt lat="46.040333673235764" lon="12.107495096405403"><ele>620.0</ele><time>2026-05-03T12:29:37Z</time></trkpt><trkpt lat="46.040243556320114" lon="12.107641056719693"><ele>620.0</ele><time>2026-05-03T12:29:38Z</time></trkpt><trkpt lat="46.04014559776975" lon="12.107778131307873"><ele>620.0</ele><time>2026-05-03T12:29:39Z</time></trkpt><trkpt lat="46.04005000815486" lon="12.107892654151804"><ele>620.0</ele><time>2026-05-03T12:29:40Z</time></trkpt><trkpt lat="46.03995429857741" lon="12.108013917500077"><ele>620.0</ele><time>2026-05-03T12:29:41Z</time></trkpt><trkpt lat="46.03987154927071" lon="12.108113324950077"><ele>621.0</ele><time>2026-05-03T12:29:42Z</time></trkpt><trkpt lat="46.03979644074351" lon="12.108184728483003"><ele>622.0</ele><time>2026-05-03T12:29:43Z</time></trkpt><trkpt lat="46.039735532177986" lon="12.108242535381988"><ele>623.0</ele><time>2026-05-03T12:29:44Z</time></trkpt><trkpt lat="46.03967008909754" lon="12.10825951244781"><ele>624.0</ele><time>2026-05-03T12:29:45Z</time></trkpt><trkpt lat="46.039611507963585" lon="12.108169211752637"><ele>625.0</ele><time>2026-05-03T12:29:46Z</time></trkpt><trkpt lat="46.03957867300646" lon="12.108082562708574"><ele>626.0</ele><time>2026-05-03T12:29:47Z</time></trkpt><trkpt lat="46.03956442119137" lon="12.107971374630454"><ele>622.5</ele><time>2026-05-03T12:29:48Z</time></trkpt><trkpt lat="46.0396248966966" lon="12.107861338590086"><ele>619.0</ele><time>2026-05-03T12:29:49Z</time></trkpt><trkpt lat="46.03971578495423" lon="12.107775293637557"><ele>615.5</ele><time>2026-05-03T12:29:50Z</time></trkpt><trkpt lat="46.03980581077711" lon="12.10764167157215"><ele>612.0</ele><time>2026-05-03T12:29:51Z</time></trkpt><trkpt lat="46.03984811310037" lon="12.107455152235607"><ele>610.25</ele><time>2026-05-03T12:29:52Z</time></trkpt><trkpt lat="46.03986015355176" lon="12.107255241938956"><ele>608.5</ele><time>2026-05-03T12:29:53Z</time></trkpt><trkpt lat="46.03983164245076" lon="12.107040027154826"><ele>606.75</ele><time>2026-05-03T12:29:54Z</time></trkpt><trkpt lat="46.039784031598955" lon="12.106827033546416"><ele>605.0</ele><time>2026-05-03T12:29:55Z</time></trkpt><trkpt lat="46.03972249101712" lon="12.106637598852254"><ele>603.5</ele><time>2026-05-03T12:29:56Z</time></trkpt><trkpt lat="46.03966084058545" lon="12.106448343747624"><ele>602.0</ele><time>2026-05-03T12:29:57Z</time></trkpt><trkpt lat="46.03960348612151" lon="12.106253199133851"><ele>600.5</ele><time>2026-05-03T12:29:58Z</time></trkpt><trkpt lat="46.039547437648565" lon="12.106065533910128"><ele>599.0</ele><time>2026-05-03T12:29:59Z</time></trkpt><trkpt lat="46.03949334743994" lon="12.105891234221838"><ele>597.0</ele><time>2026-05-03T12:30:00Z</time></trkpt><trkpt lat="46.0394388997115" lon="12.105722951711087"><ele>595.0</ele><time>2026-05-03T12:30:01Z</time></trkpt><trkpt lat="46.039426291581925" lon="12.105559022136232"><ele>593.0</ele><time>2026-05-03T12:30:02Z</time></trkpt><trkpt lat="46.03941616343527" lon="12.105416553542572"><ele>591.0</ele><time>2026-05-03T12:30:03Z</time></trkpt><trkpt lat="46.03948092684791" lon="12.105301890297783"><ele>589.0</ele><time>2026-05-03T12:30:04Z</time></trkpt><trkpt lat="46.03956609451003" lon="12.105216979599401"><ele>589.0</ele><time>2026-05-03T12:30:05Z</time></trkpt><trkpt lat="46.03968459609175" lon="12.10520450069628"><ele>589.0</ele><time>2026-05-03T12:30:06Z</time></trkpt><trkpt lat="46.039817349038124" lon="12.10514385461503"><ele>589.0</ele><time>2026-05-03T12:30:07Z</time></trkpt><trkpt lat="46.03995953761168" lon="12.105109688184557"><ele>589.0</ele><time>2026-05-03T12:30:08Z</time></trkpt><trkpt lat="46.04010733272149" lon="12.10510424656872"><ele>589.25</ele><time>2026-05-03T12:30:09Z</time></trkpt><trkpt lat="46.04026213871185" lon="12.105104900247438"><ele>589.5</ele><time>2026-05-03T12:30:10Z</time></trkpt><trkpt lat="46.040401562881165" lon="12.105095460970295"><ele>589.75</ele><time>2026-05-03T12:30:11Z</time></trkpt><trkpt lat="46.040530253274056" lon="12.10504529636272"><ele>590.0</ele><time>2026-05-03T12:30:12Z</time></trkpt><trkpt lat="46.040652606690884" lon="12.104947013329193"><ele>586.0</ele><time>2026-05-03T12:30:13Z</time></trkpt><trkpt lat="46.040769968168945" lon="12.104802077704887"><ele>582.0</ele><time>2026-05-03T12:30:14Z</time></trkpt><trkpt lat="46.04088358780189" lon="12.10467916886341"><ele>578.0</ele><time>2026-05-03T12:30:15Z</time></trkpt><trkpt lat="46.04101167335991" lon="12.104625746432093"><ele>574.0</ele><time>2026-05-03T12:30:16Z</time></trkpt><trkpt lat="46.04114660808706" lon="12.104552554851661"><ele>574.0</ele><time>2026-05-03T12:30:17Z</time></trkpt><trkpt lat="46.04129059512801" lon="12.10451540240185"><ele>574.0</ele><time>2026-05-03T12:30:18Z</time></trkpt><trkpt lat="46.04142994922918" lon="12.104448184858732"><ele>574.0</ele><time>2026-05-03T12:30:19Z</time></trkpt><trkpt lat="46.041566672414234" lon="12.104377321955404"><ele>574.0</ele><time>2026-05-03T12:30:20Z</time></trkpt><trkpt lat="46.04169499041885" lon="12.104288445860696"><ele>573.0</ele><time>2026-05-03T12:30:21Z</time></trkpt><trkpt lat="46.041823858643305" lon="12.10419651752122"><ele>572.0</ele><time>2026-05-03T12:30:22Z</time></trkpt><trkpt lat="46.04194682027648" lon="12.104115534923608"><ele>571.0</ele><time>2026-05-03T12:30:23Z</time></trkpt><trkpt lat="46.04206158379303" lon="12.104023401671324"><ele>570.0</ele><time>2026-05-03T12:30:24Z</time></trkpt><trkpt lat="46.04216309848496" lon="12.10393444822407"><ele>567.75</ele><time>2026-05-03T12:30:25Z</time></trkpt><trkpt lat="46.042235678183616" lon="12.103836429905767"><ele>565.5</ele><time>2026-05-03T12:30:26Z</time></trkpt><trkpt lat="46.04227579162547" lon="12.103689252177222"><ele>563.25</ele><time>2026-05-03T12:30:27Z</time></trkpt><trkpt lat="46.04226128119006" lon="12.103515923724464"><ele>561.0</ele><time>2026-05-03T12:30:28Z</time></trkpt><trkpt lat="46.04222657318244" lon="12.103319514731666"><ele>560.0</ele><time>2026-05-03T12:30:29Z</time></trkpt><trkpt lat="46.042196863923564" lon="12.103109823279826"><ele>559.0</ele><time>2026-05-03T12:30:30Z</time></trkpt><trkpt lat="46.042178610890936" lon="12.102895920300492"><ele>558.0</ele><time>2026-05-03T12:30:31Z</time></trkpt><trkpt lat="46.042168128342745" lon="12.102696347031603"><ele>557.0</ele><time>2026-05-03T12:30:32Z</time></trkpt><trkpt lat="46.04216470981698" lon="12.10251298773651"><ele>556.0</ele><time>2026-05-03T12:30:33Z</time></trkpt><trkpt lat="46.04215254089481" lon="12.102345266464592"><ele>555.0</ele><time>2026-05-03T12:30:34Z</time></trkpt><trkpt lat="46.042162283251834" lon="12.102178679645439"><ele>554.0</ele><time>2026-05-03T12:30:35Z</time></trkpt><trkpt lat="46.042166615390656" lon="12.102013881829293"><ele>553.0</ele><time>2026-05-03T12:30:36Z</time></trkpt><trkpt lat="46.04219139336846" lon="12.101861737034278"><ele>553.0</ele><time>2026-05-03T12:30:37Z</time></trkpt><trkpt lat="46.04223280677927" lon="12.101695284454534"><ele>553.0</ele><time>2026-05-03T12:30:38Z</time></trkpt><trkpt lat="46.0422706412731" lon="12.10153648599997"><ele>553.0</ele><time>2026-05-03T12:30:39Z</time></trkpt><trkpt lat="46.042311366955374" lon="12.101381586321072"><ele>553.0</ele><time>2026-05-03T12:30:40Z</time></trkpt><trkpt lat="46.04235924480319" lon="12.101240021019217"><ele>552.6666666666667</ele><time>2026-05-03T12:30:41Z</time></trkpt><trkpt lat="46.042412257698736" lon="12.10111376653879"><ele>552.3333333333334</ele><time>2026-05-03T12:30:42Z</time></trkpt><trkpt lat="46.042467242552874" lon="12.101020717862335"><ele>552.0</ele><time>2026-05-03T12:30:43Z</time></trkpt><trkpt lat="46.04252764043935" lon="12.10094562892892"><ele>551.6666666666666</ele><time>2026-05-03T12:30:44Z</time></trkpt><trkpt lat="46.04258923326746" lon="12.100884355460211"><ele>551.3333333333333</ele><time>2026-05-03T12:30:45Z</time></trkpt><trkpt lat="46.04265214667258" lon="12.100822041303829"><ele>551.0</ele><time>2026-05-03T12:30:46Z</time></trkpt><trkpt lat="46.042712981587734" lon="12.100758069912684"><ele>548.75</ele><time>2026-05-03T12:30:47Z</time></trkpt><trkpt lat="46.04276724212311" lon="12.100673981370859"><ele>546.5</ele><time>2026-05-03T12:30:48Z</time></trkpt><trkpt lat="46.042862359623385" lon="12.10058393671944"><ele>544.25</ele><time>2026-05-03T12:30:50Z</time></trkpt><trkpt lat="46.04272973509772" lon="12.100376215887676"><ele>542.0</ele><time>2026-05-03T12:30:54Z</time></trkpt><trkpt lat="46.04263102948546" lon="12.100338212984456"><ele>542.0</ele><time>2026-05-03T12:30:55Z</time></trkpt><trkpt lat="46.04253930556904" lon="12.100271992006794"><ele>542.0</ele><time>2026-05-03T12:30:56Z</time></trkpt><trkpt lat="46.04242890534766" lon="12.100219255469208"><ele>542.0</ele><time>2026-05-03T12:30:57Z</time></trkpt><trkpt lat="46.042305061366974" lon="12.100198429204076"><ele>542.0</ele><time>2026-05-03T12:30:58Z</time></trkpt><trkpt lat="46.04218761153782" lon="12.100159915401477"><ele>542.0</ele><time>2026-05-03T12:30:59Z</time></trkpt><trkpt lat="46.04205846563174" lon="12.100147155921686"><ele>542.0</ele><time>2026-05-03T12:31:00Z</time></trkpt><trkpt lat="46.04192631500257" lon="12.10010295984397"><ele>542.0</ele><time>2026-05-03T12:31:01Z</time></trkpt><trkpt lat="46.04179923625293" lon="12.100099549845307"><ele>542.0</ele><time>2026-05-03T12:31:02Z</time></trkpt><trkpt lat="46.04166717544511" lon="12.100083248757706"><ele>541.25</ele><time>2026-05-03T12:31:03Z</time></trkpt><trkpt lat="46.0415248768436" lon="12.100088153716529"><ele>540.5</ele><time>2026-05-03T12:31:04Z</time></trkpt><trkpt lat="46.041390468357164" lon="12.100112290783972"><ele>539.75</ele><time>2026-05-03T12:31:05Z</time></trkpt><trkpt lat="46.041271710313346" lon="12.100138739769694"><ele>539.0</ele><time>2026-05-03T12:31:06Z</time></trkpt><trkpt lat="46.04116605943003" lon="12.100184016142537"><ele>539.0</ele><time>2026-05-03T12:31:07Z</time></trkpt><trkpt lat="46.04105473735352" lon="12.100258410379942"><ele>539.0</ele><time>2026-05-03T12:31:08Z</time></trkpt><trkpt lat="46.04095416351206" lon="12.100368808611462"><ele>539.0</ele><time>2026-05-03T12:31:09Z</time></trkpt><trkpt lat="46.04086757662902" lon="12.100498920239522"><ele>539.0</ele><time>2026-05-03T12:31:10Z</time></trkpt><trkpt lat="46.04079512920526" lon="12.100623652606748"><ele>537.75</ele><time>2026-05-03T12:31:11Z</time></trkpt><trkpt lat="46.0407220336589" lon="12.100740267579308"><ele>536.5</ele><time>2026-05-03T12:31:12Z</time></trkpt><trkpt lat="46.0406477436078" lon="12.100858091265248"><ele>535.25</ele><time>2026-05-03T12:31:13Z</time></trkpt><trkpt lat="46.040563426950065" lon="12.10097934189153"><ele>534.0</ele><time>2026-05-03T12:31:14Z</time></trkpt><trkpt lat="46.04045382179859" lon="12.10108769140713"><ele>534.0</ele><time>2026-05-03T12:31:15Z</time></trkpt><trkpt lat="46.04034743568089" lon="12.101149227480988"><ele>534.0</ele><time>2026-05-03T12:31:16Z</time></trkpt><trkpt lat="46.04024417460985" lon="12.101140018535023"><ele>534.0</ele><time>2026-05-03T12:31:17Z</time></trkpt><trkpt lat="46.040145382306385" lon="12.101103227758177"><ele>534.0</ele><time>2026-05-03T12:31:18Z</time></trkpt><trkpt lat="46.040047356461436" lon="12.101049585358682"><ele>534.0</ele><time>2026-05-03T12:31:19Z</time></trkpt><trkpt lat="46.03997155491963" lon="12.100999175235158"><ele>534.1666666666666</ele><time>2026-05-03T12:31:20Z</time></trkpt><trkpt lat="46.03988292731757" lon="12.100943918318022"><ele>534.3333333333334</ele><time>2026-05-03T12:31:22Z</time></trkpt><trkpt lat="46.03983573298368" lon="12.100862618724067"><ele>534.5</ele><time>2026-05-03T12:31:25Z</time></trkpt><trkpt lat="46.03975812562665" lon="12.100780289804794"><ele>534.6666666666667</ele><time>2026-05-03T12:31:30Z</time></trkpt><trkpt lat="46.039706590257666" lon="12.100713521624762"><ele>534.8333333333334</ele><time>2026-05-03T12:31:31Z</time></trkpt><trkpt lat="46.03965855587537" lon="12.100633951035679"><ele>535.0</ele><time>2026-05-03T12:31:32Z</time></trkpt><trkpt lat="46.03961478367055" lon="12.100562187234072"><ele>535.0</ele><time>2026-05-03T12:31:33Z</time></trkpt><trkpt lat="46.039556875448" lon="12.100469293425096"><ele>535.0</ele><time>2026-05-03T12:31:34Z</time></trkpt><trkpt lat="46.03948865016211" lon="12.100376540680006"><ele>535.0</ele><time>2026-05-03T12:31:35Z</time></trkpt><trkpt lat="46.03942177314122" lon="12.10029162325807"><ele>535.0</ele><time>2026-05-03T12:31:36Z</time></trkpt><trkpt lat="46.03935238133006" lon="12.100209292084488"><ele>535.0</ele><time>2026-05-03T12:31:37Z</time></trkpt><trkpt lat="46.03927418573735" lon="12.100130971930943"><ele>535.0</ele><time>2026-05-03T12:31:38Z</time></trkpt><trkpt lat="46.03919047466444" lon="12.100055270466015"><ele>535.0</ele><time>2026-05-03T12:31:39Z</time></trkpt><trkpt lat="46.039112299189625" lon="12.099970546169374"><ele>535.0</ele><time>2026-05-03T12:31:40Z</time></trkpt><trkpt lat="46.03902863691755" lon="12.09989227125912"><ele>535.0</ele><time>2026-05-03T12:31:41Z</time></trkpt><trkpt lat="46.03896059647423" lon="12.099807218898828"><ele>535.0</ele><time>2026-05-03T12:31:42Z</time></trkpt><trkpt lat="46.03891003339868" lon="12.099706387641312"><ele>534.1666666666667</ele><time>2026-05-03T12:31:43Z</time></trkpt><trkpt lat="46.03888590308915" lon="12.099584098082943"><ele>533.3333333333334</ele><time>2026-05-03T12:31:44Z</time></trkpt><trkpt lat="46.03885651217511" lon="12.099471146428812"><ele>532.5</ele><time>2026-05-03T12:31:45Z</time></trkpt><trkpt lat="46.03881735410739" lon="12.099358508256339"><ele>531.6666666666666</ele><time>2026-05-03T12:31:46Z</time></trkpt><trkpt lat="46.03879647367169" lon="12.099244136710475"><ele>530.8333333333333</ele><time>2026-05-03T12:31:47Z</time></trkpt><trkpt lat="46.03877563104461" lon="12.09913678842502"><ele>530.0</ele><time>2026-05-03T12:31:48Z</time></trkpt><trkpt lat="46.038748421411725" lon="12.099035713956392"><ele>530.0</ele><time>2026-05-03T12:31:49Z</time></trkpt><trkpt lat="46.03873406684889" lon="12.098941668846376"><ele>530.0</ele><time>2026-05-03T12:31:50Z</time></trkpt><trkpt lat="46.03869102190457" lon="12.098790752475251"><ele>530.0</ele><time>2026-05-03T12:31:52Z</time></trkpt><trkpt lat="46.03865552238125" lon="12.098699438081654"><ele>530.0</ele><time>2026-05-03T12:31:54Z</time></trkpt><trkpt lat="46.03854833239659" lon="12.098614153651692"><ele>530.0</ele><time>2026-05-03T12:32:33Z</time></trkpt><trkpt lat="46.03849361757154" lon="12.098540509005705"><ele>530.0</ele><time>2026-05-03T12:32:34Z</time></trkpt><trkpt lat="46.03842248912025" lon="12.098473286199654"><ele>530.0</ele><time>2026-05-03T12:32:35Z</time></trkpt><trkpt lat="46.038318261606484" lon="12.098422593607433"><ele>530.0</ele><time>2026-05-03T12:32:36Z</time></trkpt><trkpt lat="46.038205464136446" lon="12.09839717820305"><ele>530.0</ele><time>2026-05-03T12:32:37Z</time></trkpt><trkpt lat="46.038087588041236" lon="12.098381806780766"><ele>530.0</ele><time>2026-05-03T12:32:38Z</time></trkpt><trkpt lat="46.03795850495936" lon="12.098379897654407"><ele>528.75</ele><time>2026-05-03T12:32:39Z</time></trkpt><trkpt lat="46.03782512264749" lon="12.098404856615542"><ele>527.5</ele><time>2026-05-03T12:32:40Z</time></trkpt><trkpt lat="46.037689755164436" lon="12.09846895125088"><ele>526.25</ele><time>2026-05-03T12:32:41Z</time></trkpt><trkpt lat="46.0375683901361" lon="12.098533897090029"><ele>525.0</ele><time>2026-05-03T12:32:42Z</time></trkpt><trkpt lat="46.03745599410905" lon="12.098607478170852"><ele>518.0</ele><time>2026-05-03T12:32:43Z</time></trkpt><trkpt lat="46.03735188251334" lon="12.098680037906416"><ele>511.0</ele><time>2026-05-03T12:32:44Z</time></trkpt><trkpt lat="46.03726653218671" lon="12.09877192698953"><ele>504.0</ele><time>2026-05-03T12:32:45Z</time></trkpt><trkpt lat="46.03720974231016" lon="12.098908897947505"><ele>497.0</ele><time>2026-05-03T12:32:46Z</time></trkpt><trkpt lat="46.03717862989624" lon="12.09907604331369"><ele>496.75</ele><time>2026-05-03T12:32:47Z</time></trkpt><trkpt lat="46.03716516678954" lon="12.099251362745427"><ele>496.5</ele><time>2026-05-03T12:32:48Z</time></trkpt><trkpt lat="46.0371549646492" lon="12.099431462525354"><ele>496.25</ele><time>2026-05-03T12:32:49Z</time></trkpt><trkpt lat="46.03713529979245" lon="12.099609725593126"><ele>496.0</ele><time>2026-05-03T12:32:50Z</time></trkpt><trkpt lat="46.03712192370475" lon="12.099792667916057"><ele>495.75</ele><time>2026-05-03T12:32:51Z</time></trkpt><trkpt lat="46.037116720790344" lon="12.099981796318954"><ele>495.5</ele><time>2026-05-03T12:32:52Z</time></trkpt><trkpt lat="46.03711294576087" lon="12.10016029593167"><ele>495.25</ele><time>2026-05-03T12:32:53Z</time></trkpt><trkpt lat="46.037118829528524" lon="12.100335856855697"><ele>495.0</ele><time>2026-05-03T12:32:54Z</time></trkpt><trkpt lat="46.037123480673706" lon="12.100510094857711"><ele>495.0</ele><time>2026-05-03T12:32:55Z</time></trkpt><trkpt lat="46.037124692118326" lon="12.100672998799054"><ele>495.0</ele><time>2026-05-03T12:32:56Z</time></trkpt><trkpt lat="46.03713071558923" lon="12.100830686578474"><ele>495.0</ele><time>2026-05-03T12:32:57Z</time></trkpt><trkpt lat="46.037146006245585" lon="12.100992266285704"><ele>495.0</ele><time>2026-05-03T12:32:58Z</time></trkpt><trkpt lat="46.03718788964016" lon="12.101150262422369"><ele>495.4</ele><time>2026-05-03T12:32:59Z</time></trkpt><trkpt lat="46.037246586825376" lon="12.101287021521172"><ele>495.8</ele><time>2026-05-03T12:33:00Z</time></trkpt><trkpt lat="46.03729502730316" lon="12.101425717338854"><ele>496.20000000000005</ele><time>2026-05-03T12:33:01Z</time></trkpt><trkpt lat="46.03731122164215" lon="12.101572432793457"><ele>496.6</ele><time>2026-05-03T12:33:02Z</time></trkpt><trkpt lat="46.03725459949784" lon="12.101708090534075"><ele>497.0</ele><time>2026-05-03T12:33:03Z</time></trkpt><trkpt lat="46.03719377965076" lon="12.10182230361012"><ele>498.0</ele><time>2026-05-03T12:33:04Z</time></trkpt><trkpt lat="46.037097929301645" lon="12.101919654863954"><ele>499.0</ele><time>2026-05-03T12:33:05Z</time></trkpt><trkpt lat="46.03699216304613" lon="12.102044030010292"><ele>500.0</ele><time>2026-05-03T12:33:06Z</time></trkpt><trkpt lat="46.03687555563202" lon="12.102169306103793"><ele>501.0</ele><time>2026-05-03T12:33:07Z</time></trkpt><trkpt lat="46.036739766243606" lon="12.1022760218689"><ele>500.25</ele><time>2026-05-03T12:33:08Z</time></trkpt><trkpt lat="46.03660405068151" lon="12.102340209065627"><ele>499.5</ele><time>2026-05-03T12:33:09Z</time></trkpt><trkpt lat="46.03647018232677" lon="12.102357384397495"><ele>498.75</ele><time>2026-05-03T12:33:10Z</time></trkpt><trkpt lat="46.03633783380094" lon="12.102318914306613"><ele>498.0</ele><time>2026-05-03T12:33:11Z</time></trkpt><trkpt lat="46.03619630031172" lon="12.102275006794018"><ele>498.0</ele><time>2026-05-03T12:33:12Z</time></trkpt><trkpt lat="46.036056651445094" lon="12.102237858970655"><ele>498.0</ele><time>2026-05-03T12:33:13Z</time></trkpt><trkpt lat="46.03591267678926" lon="12.102183657797982"><ele>498.0</ele><time>2026-05-03T12:33:14Z</time></trkpt><trkpt lat="46.035787590415495" lon="12.10210067986703"><ele>498.0</ele><time>2026-05-03T12:33:15Z</time></trkpt><trkpt lat="46.03566055838438" lon="12.101990664098205"><ele>501.25</ele><time>2026-05-03T12:33:16Z</time></trkpt><trkpt lat="46.03552612269838" lon="12.101871497011041"><ele>504.5</ele><time>2026-05-03T12:33:17Z</time></trkpt><trkpt lat="46.035411561528996" lon="12.1017713382243"><ele>507.75</ele><time>2026-05-03T12:33:18Z</time></trkpt><trkpt lat="46.03528795367853" lon="12.101644865481598"><ele>511.0</ele><time>2026-05-03T12:33:19Z</time></trkpt><trkpt lat="46.035174229867344" lon="12.101499042538718"><ele>505.0</ele><time>2026-05-03T12:33:20Z</time></trkpt><trkpt lat="46.03507600003418" lon="12.101368305413626"><ele>499.0</ele><time>2026-05-03T12:33:21Z</time></trkpt><trkpt lat="46.03499047561668" lon="12.10124662972246"><ele>493.0</ele><time>2026-05-03T12:33:22Z</time></trkpt><trkpt lat="46.03491058003526" lon="12.101168432154514"><ele>487.0</ele><time>2026-05-03T12:33:23Z</time></trkpt><trkpt lat="46.03483094410581" lon="12.10110203990411"><ele>481.0</ele><time>2026-05-03T12:33:24Z</time></trkpt><trkpt lat="46.034732496476444" lon="12.101082815614532"><ele>476.0</ele><time>2026-05-03T12:33:25Z</time></trkpt><trkpt lat="46.034621240798266" lon="12.101118863169424"><ele>471.0</ele><time>2026-05-03T12:33:26Z</time></trkpt><trkpt lat="46.03449921978751" lon="12.101198524276693"><ele>466.0</ele><time>2026-05-03T12:33:27Z</time></trkpt><trkpt lat="46.03437908847961" lon="12.101309394044353"><ele>461.0</ele><time>2026-05-03T12:33:28Z</time></trkpt><trkpt lat="46.03426406238089" lon="12.101438853081603"><ele>462.5</ele><time>2026-05-03T12:33:29Z</time></trkpt><trkpt lat="46.03416823129283" lon="12.101593969325608"><ele>464.0</ele><time>2026-05-03T12:33:30Z</time></trkpt><trkpt lat="46.03407699034552" lon="12.101759602102238"><ele>465.5</ele><time>2026-05-03T12:33:31Z</time></trkpt><trkpt lat="46.03398395650147" lon="12.101926039560057"><ele>467.0</ele><time>2026-05-03T12:33:32Z</time></trkpt><trkpt lat="46.03389266835094" lon="12.102090341449902"><ele>467.0</ele><time>2026-05-03T12:33:33Z</time></trkpt><trkpt lat="46.03380867426549" lon="12.102241396420718"><ele>467.0</ele><time>2026-05-03T12:33:34Z</time></trkpt><trkpt lat="46.033719891409106" lon="12.102388337243829"><ele>467.0</ele><time>2026-05-03T12:33:35Z</time></trkpt><trkpt lat="46.03362208458167" lon="12.102500051563922"><ele>467.0</ele><time>2026-05-03T12:33:36Z</time></trkpt><trkpt lat="46.03354691872779" lon="12.102598701113028"><ele>469.20000000000005</ele><time>2026-05-03T12:33:37Z</time></trkpt><trkpt lat="46.03346974681273" lon="12.10265841644762"><ele>471.40000000000003</ele><time>2026-05-03T12:33:38Z</time></trkpt><trkpt lat="46.03338520221914" lon="12.102679085669873"><ele>473.59999999999997</ele><time>2026-05-03T12:33:39Z</time></trkpt><trkpt lat="46.03328819537327" lon="12.102697597795242"><ele>475.79999999999995</ele><time>2026-05-03T12:33:40Z</time></trkpt><trkpt lat="46.03318121470863" lon="12.102598363530488"><ele>478.0</ele><time>2026-05-03T12:33:41Z</time></trkpt><trkpt lat="46.03308096761424" lon="12.102447670042654"><ele>477.25</ele><time>2026-05-03T12:33:42Z</time></trkpt><trkpt lat="46.032978004139075" lon="12.102297165666794"><ele>476.5</ele><time>2026-05-03T12:33:43Z</time></trkpt><trkpt lat="46.032887388239594" lon="12.10215071152355"><ele>475.75</ele><time>2026-05-03T12:33:44Z</time></trkpt><trkpt lat="46.032799930516624" lon="12.10204380308187"><ele>475.0</ele><time>2026-05-03T12:33:45Z</time></trkpt><trkpt lat="46.03273566333714" lon="12.101937507982301"><ele>475.0</ele><time>2026-05-03T12:33:46Z</time></trkpt><trkpt lat="46.03269806263491" lon="12.101811847049168"><ele>475.0</ele><time>2026-05-03T12:33:47Z</time></trkpt><trkpt lat="46.032664191744956" lon="12.101650523759782"><ele>475.0</ele><time>2026-05-03T12:33:48Z</time></trkpt><trkpt lat="46.032630404680354" lon="12.101466643948294"><ele>475.0</ele><time>2026-05-03T12:33:49Z</time></trkpt><trkpt lat="46.032600652066535" lon="12.10128357964831"><ele>475.0</ele><time>2026-05-03T12:33:50Z</time></trkpt><trkpt lat="46.03257254488168" lon="12.101107900992702"><ele>475.0</ele><time>2026-05-03T12:33:51Z</time></trkpt><trkpt lat="46.03254444380779" lon="12.10093790373435"><ele>475.0</ele><time>2026-05-03T12:33:52Z</time></trkpt><trkpt lat="46.032513411647926" lon="12.100765038559292"><ele>475.0</ele><time>2026-05-03T12:33:53Z</time></trkpt><trkpt lat="46.032470140979804" lon="12.10059921250065"><ele>476.2</ele><time>2026-05-03T12:33:54Z</time></trkpt><trkpt lat="46.03244480137307" lon="12.100450773933222"><ele>477.4</ele><time>2026-05-03T12:33:55Z</time></trkpt><trkpt lat="46.03240668518737" lon="12.100314685767518"><ele>478.6</ele><time>2026-05-03T12:33:56Z</time></trkpt><trkpt lat="46.03235610117685" lon="12.10020768577332"><ele>479.8</ele><time>2026-05-03T12:33:57Z</time></trkpt><trkpt lat="46.032278542453064" lon="12.100112159869276"><ele>481.0</ele><time>2026-05-03T12:33:58Z</time></trkpt><trkpt lat="46.032177557083685" lon="12.10004933247592"><ele>481.0</ele><time>2026-05-03T12:33:59Z</time></trkpt><trkpt lat="46.03207420590209" lon="12.100016690640434"><ele>481.0</ele><time>2026-05-03T12:34:00Z</time></trkpt><trkpt lat="46.031949001672885" lon="12.100009186583872"><ele>481.0</ele><time>2026-05-03T12:34:01Z</time></trkpt><trkpt lat="46.031825034797045" lon="12.09999704077849"><ele>481.0</ele><time>2026-05-03T12:34:02Z</time></trkpt><trkpt lat="46.03170213049032" lon="12.099990794399597"><ele>481.6</ele><time>2026-05-03T12:34:03Z</time></trkpt><trkpt lat="46.03158917348049" lon="12.099998686689739"><ele>482.20000000000005</ele><time>2026-05-03T12:34:04Z</time></trkpt><trkpt lat="46.031501016072454" lon="12.099972068987656"><ele>482.79999999999995</ele><time>2026-05-03T12:34:05Z</time></trkpt><trkpt lat="46.03142870174146" lon="12.099924049694252"><ele>483.4</ele><time>2026-05-03T12:34:06Z</time></trkpt><trkpt lat="46.03136835590506" lon="12.099812792937689"><ele>484.0</ele><time>2026-05-03T12:34:07Z</time></trkpt><trkpt lat="46.03128342975633" lon="12.099701858602826"><ele>486.0</ele><time>2026-05-03T12:34:08Z</time></trkpt><trkpt lat="46.03118615747914" lon="12.099570725994806"><ele>488.0</ele><time>2026-05-03T12:34:09Z</time></trkpt><trkpt lat="46.03108979977249" lon="12.099436029122808"><ele>490.0</ele><time>2026-05-03T12:34:10Z</time></trkpt><trkpt lat="46.03099329799913" lon="12.099292266576553"><ele>492.0</ele><time>2026-05-03T12:34:11Z</time></trkpt><trkpt lat="46.030911302911065" lon="12.099154861495643"><ele>494.6</ele><time>2026-05-03T12:34:12Z</time></trkpt><trkpt lat="46.03085953240859" lon="12.099029070470866"><ele>497.20000000000005</ele><time>2026-05-03T12:34:13Z</time></trkpt><trkpt lat="46.03083896577512" lon="12.09890073523822"><ele>499.8</ele><time>2026-05-03T12:34:14Z</time></trkpt><trkpt lat="46.03086535310913" lon="12.098771748311432"><ele>502.4</ele><time>2026-05-03T12:34:15Z</time></trkpt><trkpt lat="46.03088564322509" lon="12.098624304069785"><ele>505.0</ele><time>2026-05-03T12:34:16Z</time></trkpt><trkpt lat="46.0309098100632" lon="12.098466442748531"><ele>505.0</ele><time>2026-05-03T12:34:17Z</time></trkpt><trkpt lat="46.03092262300817" lon="12.098307945839059"><ele>505.0</ele><time>2026-05-03T12:34:18Z</time></trkpt><trkpt lat="46.03089207452779" lon="12.09814999506481"><ele>505.0</ele><time>2026-05-03T12:34:19Z</time></trkpt><trkpt lat="46.0308626965583" lon="12.097989890190233"><ele>505.0</ele><time>2026-05-03T12:34:20Z</time></trkpt><trkpt lat="46.03081247303851" lon="12.097840985038234"><ele>510.00000000000006</ele><time>2026-05-03T12:34:21Z</time></trkpt><trkpt lat="46.03078441117761" lon="12.09769572469325"><ele>515.0</ele><time>2026-05-03T12:34:22Z</time></trkpt><trkpt lat="46.03077303445101" lon="12.097585552335087"><ele>520.0</ele><time>2026-05-03T12:34:23Z</time></trkpt><trkpt lat="46.030769267082626" lon="12.09748771841876"><ele>525.0</ele><time>2026-05-03T12:34:24Z</time></trkpt><trkpt lat="46.03083736684262" lon="12.097390385892853"><ele>530.0</ele><time>2026-05-03T12:34:25Z</time></trkpt><trkpt lat="46.03090609774129" lon="12.097298799985845"><ele>535.0</ele><time>2026-05-03T12:34:26Z</time></trkpt><trkpt lat="46.03096863395679" lon="12.097165271716738"><ele>535.0</ele><time>2026-05-03T12:34:27Z</time></trkpt><trkpt lat="46.031041987932824" lon="12.097030074331567"><ele>535.0</ele><time>2026-05-03T12:34:28Z</time></trkpt><trkpt lat="46.03108441793653" lon="12.096876490233507"><ele>535.0</ele><time>2026-05-03T12:34:29Z</time></trkpt><trkpt lat="46.03113381273456" lon="12.096695382225057"><ele>535.0</ele><time>2026-05-03T12:34:30Z</time></trkpt><trkpt lat="46.031214668751886" lon="12.096522586481028"><ele>538.25</ele><time>2026-05-03T12:34:31Z</time></trkpt><trkpt lat="46.03127640211513" lon="12.09632995028503"><ele>541.5</ele><time>2026-05-03T12:34:32Z</time></trkpt><trkpt lat="46.031345602251534" lon="12.096141215900843"><ele>544.75</ele><time>2026-05-03T12:34:33Z</time></trkpt><trkpt lat="46.031412441142365" lon="12.09598539011677"><ele>548.0</ele><time>2026-05-03T12:34:34Z</time></trkpt><trkpt lat="46.031489360445896" lon="12.095875464552938"><ele>548.0</ele><time>2026-05-03T12:34:35Z</time></trkpt><trkpt lat="46.03159617320889" lon="12.095863033555803"><ele>548.0</ele><time>2026-05-03T12:34:36Z</time></trkpt><trkpt lat="46.031702664625065" lon="12.09580615253489"><ele>548.0</ele><time>2026-05-03T12:34:37Z</time></trkpt><trkpt lat="46.031805547825975" lon="12.095736714826225"><ele>548.0</ele><time>2026-05-03T12:34:38Z</time></trkpt><trkpt lat="46.03190207121277" lon="12.095689917271383"><ele>548.0</ele><time>2026-05-03T12:34:39Z</time></trkpt><trkpt lat="46.03196751834667" lon="12.095620720551441"><ele>545.8</ele><time>2026-05-03T12:34:40Z</time></trkpt><trkpt lat="46.032012881677915" lon="12.095498561181035"><ele>543.5999999999999</ele><time>2026-05-03T12:34:41Z</time></trkpt><trkpt lat="46.032031283152854" lon="12.095344481419902"><ele>541.4000000000001</ele><time>2026-05-03T12:34:42Z</time></trkpt><trkpt lat="46.032011513117254" lon="12.095206118398183"><ele>539.2</ele><time>2026-05-03T12:34:43Z</time></trkpt><trkpt lat="46.03193779687136" lon="12.095097166411666"><ele>537.0</ele><time>2026-05-03T12:34:44Z</time></trkpt><trkpt lat="46.03187996519345" lon="12.094991256596266"><ele>537.0</ele><time>2026-05-03T12:34:45Z</time></trkpt><trkpt lat="46.03182535747028" lon="12.094933520893374"><ele>537.0</ele><time>2026-05-03T12:34:46Z</time></trkpt><trkpt lat="46.03178024879086" lon="12.09486547782669"><ele>537.0</ele><time>2026-05-03T12:34:48Z</time></trkpt><trkpt lat="46.03186656567219" lon="12.094867268768066"><ele>537.0</ele><time>2026-05-03T12:34:58Z</time></trkpt><trkpt lat="46.03195186600776" lon="12.094768900871026"><ele>537.0</ele><time>2026-05-03T12:35:00Z</time></trkpt><trkpt lat="46.03195498878618" lon="12.094610674604496"><ele>537.0</ele><time>2026-05-03T12:35:02Z</time></trkpt><trkpt lat="46.031903293022296" lon="12.094449226113513"><ele>537.8333333333334</ele><time>2026-05-03T12:35:04Z</time></trkpt><trkpt lat="46.031856476023016" lon="12.0943728129944"><ele>538.6666666666666</ele><time>2026-05-03T12:35:05Z</time></trkpt><trkpt lat="46.03181394354791" lon="12.094291481982728"><ele>539.5</ele><time>2026-05-03T12:35:06Z</time></trkpt><trkpt lat="46.031787727868895" lon="12.094174822733105"><ele>540.3333333333333</ele><time>2026-05-03T12:35:07Z</time></trkpt><trkpt lat="46.03179045292842" lon="12.094058675551892"><ele>541.1666666666666</ele><time>2026-05-03T12:35:08Z</time></trkpt><trkpt lat="46.03177555677067" lon="12.09392349694988"><ele>542.0</ele><time>2026-05-03T12:35:09Z</time></trkpt><trkpt lat="46.03176288284172" lon="12.093770419152158"><ele>542.25</ele><time>2026-05-03T12:35:10Z</time></trkpt><trkpt lat="46.03176429050816" lon="12.093601300838646"><ele>542.5</ele><time>2026-05-03T12:35:11Z</time></trkpt><trkpt lat="46.031765023033266" lon="12.093445574374718"><ele>542.75</ele><time>2026-05-03T12:35:12Z</time></trkpt><trkpt lat="46.03175743396364" lon="12.093280647405965"><ele>543.0</ele><time>2026-05-03T12:35:13Z</time></trkpt><trkpt lat="46.03174417518913" lon="12.093105802575582"><ele>542.6</ele><time>2026-05-03T12:35:14Z</time></trkpt><trkpt lat="46.03172259880114" lon="12.092959837838698"><ele>542.1999999999999</ele><time>2026-05-03T12:35:15Z</time></trkpt><trkpt lat="46.031692035012625" lon="12.092843787171802"><ele>541.8</ele><time>2026-05-03T12:35:16Z</time></trkpt><trkpt lat="46.03165272952864" lon="12.092724996860834"><ele>541.4</ele><time>2026-05-03T12:35:17Z</time></trkpt><trkpt lat="46.03161088397087" lon="12.092588564441566"><ele>541.0</ele><time>2026-05-03T12:35:18Z</time></trkpt><trkpt lat="46.0315661456222" lon="12.092453067447222"><ele>544.2</ele><time>2026-05-03T12:35:19Z</time></trkpt><trkpt lat="46.0315298855953" lon="12.09231101867117"><ele>547.4000000000001</ele><time>2026-05-03T12:35:20Z</time></trkpt><trkpt lat="46.03146673243018" lon="12.09218327587721"><ele>550.6</ele><time>2026-05-03T12:35:21Z</time></trkpt><trkpt lat="46.031423191401174" lon="12.092043237872055"><ele>553.8000000000001</ele><time>2026-05-03T12:35:22Z</time></trkpt><trkpt lat="46.03140148166335" lon="12.09189358320178"><ele>557.0</ele><time>2026-05-03T12:35:23Z</time></trkpt><trkpt lat="46.03136040987517" lon="12.091743743014172"><ele>557.0</ele><time>2026-05-03T12:35:24Z</time></trkpt><trkpt lat="46.03134078052851" lon="12.09158156615867"><ele>557.0</ele><time>2026-05-03T12:35:25Z</time></trkpt><trkpt lat="46.03132304022739" lon="12.091411538195137"><ele>557.0</ele><time>2026-05-03T12:35:26Z</time></trkpt><trkpt lat="46.03130563285313" lon="12.091246113529216"><ele>557.0</ele><time>2026-05-03T12:35:27Z</time></trkpt><trkpt lat="46.03127916236656" lon="12.091084664550708"><ele>557.0</ele><time>2026-05-03T12:35:28Z</time></trkpt><trkpt lat="46.03124480668896" lon="12.090930316918975"><ele>557.0</ele><time>2026-05-03T12:35:29Z</time></trkpt><trkpt lat="46.03119704148308" lon="12.090782462438275"><ele>557.0</ele><time>2026-05-03T12:35:30Z</time></trkpt><trkpt lat="46.031139190779584" lon="12.09064861261767"><ele>557.0</ele><time>2026-05-03T12:35:31Z</time></trkpt><trkpt lat="46.031092060921885" lon="12.090537839683174"><ele>557.0</ele><time>2026-05-03T12:35:32Z</time></trkpt><trkpt lat="46.03106054108497" lon="12.090433638405075"><ele>556.3333333333333</ele><time>2026-05-03T12:35:33Z</time></trkpt><trkpt lat="46.031030390511695" lon="12.090343974080993"><ele>555.6666666666666</ele><time>2026-05-03T12:35:34Z</time></trkpt><trkpt lat="46.031018975165104" lon="12.090192207372342"><ele>555.0</ele><time>2026-05-03T12:35:36Z</time></trkpt><trkpt lat="46.031075843562625" lon="12.090149735360034"><ele>554.3333333333334</ele><time>2026-05-03T12:35:37Z</time></trkpt><trkpt lat="46.031157302846054" lon="12.090180106193593"><ele>553.6666666666667</ele><time>2026-05-03T12:35:38Z</time></trkpt><trkpt lat="46.03124047465803" lon="12.090168840919315"><ele>553.0</ele><time>2026-05-03T12:35:39Z</time></trkpt><trkpt lat="46.03133889712771" lon="12.090148063269046"><ele>553.0</ele><time>2026-05-03T12:35:40Z</time></trkpt><trkpt lat="46.0314575585625" lon="12.090116346212694"><ele>553.0</ele><time>2026-05-03T12:35:41Z</time></trkpt><trkpt lat="46.03155957012767" lon="12.090089079502574"><ele>553.0</ele><time>2026-05-03T12:35:42Z</time></trkpt><trkpt lat="46.0316596085448" lon="12.090063696015552"><ele>553.0</ele><time>2026-05-03T12:35:43Z</time></trkpt><trkpt lat="46.03174167367195" lon="12.090028867157619"><ele>553.0</ele><time>2026-05-03T12:35:44Z</time></trkpt><trkpt lat="46.031821640909286" lon="12.09003566858858"><ele>551.1666666666667</ele><time>2026-05-03T12:35:45Z</time></trkpt><trkpt lat="46.03190528021162" lon="12.090058432387265"><ele>549.3333333333334</ele><time>2026-05-03T12:35:46Z</time></trkpt><trkpt lat="46.03199067817735" lon="12.090072935377373"><ele>547.5</ele><time>2026-05-03T12:35:47Z</time></trkpt><trkpt lat="46.03208302860386" lon="12.090089457353189"><ele>545.6666666666666</ele><time>2026-05-03T12:35:48Z</time></trkpt><trkpt lat="46.032165905642685" lon="12.09010455027391"><ele>543.8333333333333</ele><time>2026-05-03T12:35:49Z</time></trkpt><trkpt lat="46.03223753471379" lon="12.090131750708933"><ele>542.0</ele><time>2026-05-03T12:35:50Z</time></trkpt><trkpt lat="46.03228708767565" lon="12.0902095920443"><ele>542.0</ele><time>2026-05-03T12:35:51Z</time></trkpt><trkpt lat="46.032328662797916" lon="12.090370929865466"><ele>542.0</ele><time>2026-05-03T12:35:53Z</time></trkpt><trkpt lat="46.03234510798394" lon="12.090459836247737"><ele>542.0</ele><time>2026-05-03T12:35:54Z</time></trkpt><trkpt lat="46.032369044992514" lon="12.090563403791819"><ele>542.0</ele><time>2026-05-03T12:35:55Z</time></trkpt><trkpt lat="46.03238666041413" lon="12.090656291029381"><ele>542.0</ele><time>2026-05-03T12:35:56Z</time></trkpt><trkpt lat="46.03239614433969" lon="12.090858374816875"><ele>542.5</ele><time>2026-05-03T12:35:58Z</time></trkpt><trkpt lat="46.03240233892083" lon="12.090983039538445"><ele>543.0</ele><time>2026-05-03T12:35:59Z</time></trkpt><trkpt lat="46.03242571928494" lon="12.091102766108625"><ele>543.5</ele><time>2026-05-03T12:36:00Z</time></trkpt><trkpt lat="46.03243890754386" lon="12.091229409393232"><ele>544.0</ele><time>2026-05-03T12:36:01Z</time></trkpt><trkpt lat="46.03246527554573" lon="12.091341697892904"><ele>544.5</ele><time>2026-05-03T12:36:02Z</time></trkpt><trkpt lat="46.03249682620976" lon="12.09144091418738"><ele>545.0</ele><time>2026-05-03T12:36:03Z</time></trkpt><trkpt lat="46.03253068109568" lon="12.091531203464267"><ele>543.8333333333333</ele><time>2026-05-03T12:36:04Z</time></trkpt><trkpt lat="46.03257427483284" lon="12.091615216569979"><ele>542.6666666666666</ele><time>2026-05-03T12:36:05Z</time></trkpt><trkpt lat="46.03263266506103" lon="12.09168141923917"><ele>541.5</ele><time>2026-05-03T12:36:06Z</time></trkpt><trkpt lat="46.03269913103234" lon="12.091734918966935"><ele>540.3333333333334</ele><time>2026-05-03T12:36:07Z</time></trkpt><trkpt lat="46.0327702753137" lon="12.091771654225322"><ele>539.1666666666667</ele><time>2026-05-03T12:36:08Z</time></trkpt><trkpt lat="46.032844767659526" lon="12.091785011827005"><ele>538.0</ele><time>2026-05-03T12:36:09Z</time></trkpt><trkpt lat="46.03292628597257" lon="12.091778623237671"><ele>538.0</ele><time>2026-05-03T12:36:10Z</time></trkpt><trkpt lat="46.033013240114954" lon="12.091755479726862"><ele>538.0</ele><time>2026-05-03T12:36:11Z</time></trkpt><trkpt lat="46.033092623687835" lon="12.091734332939726"><ele>538.0</ele><time>2026-05-03T12:36:12Z</time></trkpt><trkpt lat="46.03317245440523" lon="12.091709397731707"><ele>538.0</ele><time>2026-05-03T12:36:13Z</time></trkpt><trkpt lat="46.03325204713873" lon="12.091698029548592"><ele>538.0</ele><time>2026-05-03T12:36:14Z</time></trkpt><trkpt lat="46.03332167590463" lon="12.091695327090475"><ele>538.0</ele><time>2026-05-03T12:36:15Z</time></trkpt><trkpt lat="46.03340215540579" lon="12.091718384863976"><ele>537.8333333333334</ele><time>2026-05-03T12:36:16Z</time></trkpt><trkpt lat="46.033478621674845" lon="12.091730842015778"><ele>537.6666666666667</ele><time>2026-05-03T12:36:17Z</time></trkpt><trkpt lat="46.03354584099813" lon="12.091740677460372"><ele>537.5</ele><time>2026-05-03T12:36:18Z</time></trkpt><trkpt lat="46.033663512007884" lon="12.091714658806575"><ele>537.3333333333334</ele><time>2026-05-03T12:36:20Z</time></trkpt><trkpt lat="46.033724815369176" lon="12.091677090272908"><ele>537.1666666666666</ele><time>2026-05-03T12:36:21Z</time></trkpt><trkpt lat="46.03378809115431" lon="12.091626888584885"><ele>537.0</ele><time>2026-05-03T12:36:22Z</time></trkpt><trkpt lat="46.033858283620816" lon="12.091582645583369"><ele>537.0</ele><time>2026-05-03T12:36:23Z</time></trkpt><trkpt lat="46.03392560159661" lon="12.091530948677212"><ele>537.0</ele><time>2026-05-03T12:36:24Z</time></trkpt><trkpt lat="46.03400606768198" lon="12.091469835011297"><ele>537.0</ele><time>2026-05-03T12:36:25Z</time></trkpt><trkpt lat="46.03407051390795" lon="12.091409141521282"><ele>537.0</ele><time>2026-05-03T12:36:26Z</time></trkpt><trkpt lat="46.03412308978373" lon="12.09133648145399"><ele>537.0</ele><time>2026-05-03T12:36:27Z</time></trkpt><trkpt lat="46.03415142980209" lon="12.091244327028244"><ele>537.0</ele><time>2026-05-03T12:36:28Z</time></trkpt><trkpt lat="46.03416506897289" lon="12.091133326429729"><ele>536.0</ele><time>2026-05-03T12:36:29Z</time></trkpt><trkpt lat="46.03417568661539" lon="12.091016962231043"><ele>535.0</ele><time>2026-05-03T12:36:30Z</time></trkpt><trkpt lat="46.03417835288478" lon="12.090902885338574"><ele>534.0</ele><time>2026-05-03T12:36:31Z</time></trkpt><trkpt lat="46.034191246706605" lon="12.090793759208713"><ele>533.0</ele><time>2026-05-03T12:36:32Z</time></trkpt><trkpt lat="46.034215379149565" lon="12.090694433596173"><ele>532.0</ele><time>2026-05-03T12:36:33Z</time></trkpt><trkpt lat="46.034237545094264" lon="12.09059281692921"><ele>531.0</ele><time>2026-05-03T12:36:34Z</time></trkpt><trkpt lat="46.03428713575871" lon="12.090509270467184"><ele>531.0</ele><time>2026-05-03T12:36:35Z</time></trkpt><trkpt lat="46.034312151188125" lon="12.09040249860458"><ele>531.0</ele><time>2026-05-03T12:36:36Z</time></trkpt><trkpt lat="46.03433330820254" lon="12.090303601752987"><ele>531.0</ele><time>2026-05-03T12:36:37Z</time></trkpt><trkpt lat="46.034340320149184" lon="12.090196158813951"><ele>531.0</ele><time>2026-05-03T12:36:38Z</time></trkpt><trkpt lat="46.0343421635438" lon="12.090068151545871"><ele>531.0</ele><time>2026-05-03T12:36:39Z</time></trkpt><trkpt lat="46.03433907385441" lon="12.08994514728757"><ele>531.0</ele><time>2026-05-03T12:36:40Z</time></trkpt><trkpt lat="46.03433679680129" lon="12.0898133146163"><ele>532.2</ele><time>2026-05-03T12:36:41Z</time></trkpt><trkpt lat="46.03433131666739" lon="12.089673423128836"><ele>533.4000000000001</ele><time>2026-05-03T12:36:42Z</time></trkpt><trkpt lat="46.03432766443161" lon="12.089538524225548"><ele>534.6</ele><time>2026-05-03T12:36:43Z</time></trkpt><trkpt lat="46.03431895528877" lon="12.089404057669205"><ele>535.8000000000001</ele><time>2026-05-03T12:36:44Z</time></trkpt><trkpt lat="46.03431585416609" lon="12.089265930143632"><ele>537.0</ele><time>2026-05-03T12:36:45Z</time></trkpt><trkpt lat="46.034335489124665" lon="12.08911750759708"><ele>537.2</ele><time>2026-05-03T12:36:46Z</time></trkpt><trkpt lat="46.03433925634536" lon="12.088972229830583"><ele>537.4000000000001</ele><time>2026-05-03T12:36:47Z</time></trkpt><trkpt lat="46.03437587733064" lon="12.088837813051134"><ele>537.5999999999999</ele><time>2026-05-03T12:36:48Z</time></trkpt><trkpt lat="46.034395358151606" lon="12.088705678935208"><ele>537.8</ele><time>2026-05-03T12:36:49Z</time></trkpt><trkpt lat="46.03438472573307" lon="12.088576295208544"><ele>538.0</ele><time>2026-05-03T12:36:50Z</time></trkpt><trkpt lat="46.034378156657" lon="12.08845179107881"><ele>538.0</ele><time>2026-05-03T12:36:51Z</time></trkpt><trkpt lat="46.034382855523624" lon="12.088302614932015"><ele>538.0</ele><time>2026-05-03T12:36:52Z</time></trkpt><trkpt lat="46.03435570630681" lon="12.088146895918026"><ele>538.0</ele><time>2026-05-03T12:36:53Z</time></trkpt><trkpt lat="46.03434239045469" lon="12.087970094902868"><ele>538.0</ele><time>2026-05-03T12:36:54Z</time></trkpt><trkpt lat="46.03435017750042" lon="12.08778913858641"><ele>535.5</ele><time>2026-05-03T12:36:55Z</time></trkpt><trkpt lat="46.03434654253352" lon="12.087608573276608"><ele>533.0</ele><time>2026-05-03T12:36:56Z</time></trkpt><trkpt lat="46.03435290569669" lon="12.087444450161795"><ele>530.5</ele><time>2026-05-03T12:36:57Z</time></trkpt><trkpt lat="46.03436634575776" lon="12.087262176995468"><ele>528.0</ele><time>2026-05-03T12:36:58Z</time></trkpt><trkpt lat="46.034382178722076" lon="12.087070390381797"><ele>526.25</ele><time>2026-05-03T12:36:59Z</time></trkpt><trkpt lat="46.034402398296585" lon="12.08686757319446"><ele>524.5</ele><time>2026-05-03T12:37:00Z</time></trkpt><trkpt lat="46.03441350264796" lon="12.086671904020923"><ele>522.75</ele><time>2026-05-03T12:37:01Z</time></trkpt><trkpt lat="46.03443643688496" lon="12.086484834004008"><ele>521.0</ele><time>2026-05-03T12:37:02Z</time></trkpt><trkpt lat="46.03446089245928" lon="12.086310065487735"><ele>519.5</ele><time>2026-05-03T12:37:03Z</time></trkpt><trkpt lat="46.03450292857894" lon="12.086145157128003"><ele>518.0</ele><time>2026-05-03T12:37:04Z</time></trkpt><trkpt lat="46.034527834562" lon="12.085983541144689"><ele>516.5</ele><time>2026-05-03T12:37:05Z</time></trkpt><trkpt lat="46.03455189032935" lon="12.085812360558688"><ele>515.0</ele><time>2026-05-03T12:37:06Z</time></trkpt><trkpt lat="46.03455531198324" lon="12.085625658609613"><ele>511.4</ele><time>2026-05-03T12:37:07Z</time></trkpt><trkpt lat="46.034569178934476" lon="12.085458369794159"><ele>507.8</ele><time>2026-05-03T12:37:08Z</time></trkpt><trkpt lat="46.03456150443539" lon="12.08532093074455"><ele>504.20000000000005</ele><time>2026-05-03T12:37:09Z</time></trkpt><trkpt lat="46.034531280756944" lon="12.085192630578957"><ele>500.6</ele><time>2026-05-03T12:37:10Z</time></trkpt><trkpt lat="46.034474123351195" lon="12.085098766228132"><ele>497.0</ele><time>2026-05-03T12:37:11Z</time></trkpt><trkpt lat="46.03437256901398" lon="12.08504801626085"><ele>497.0</ele><time>2026-05-03T12:37:12Z</time></trkpt><trkpt lat="46.034249890436165" lon="12.085051651427955"><ele>497.0</ele><time>2026-05-03T12:37:13Z</time></trkpt><trkpt lat="46.03412536094053" lon="12.085087315660436"><ele>497.0</ele><time>2026-05-03T12:37:14Z</time></trkpt><trkpt lat="46.033996696205385" lon="12.085137449823163"><ele>497.0</ele><time>2026-05-03T12:37:15Z</time></trkpt><trkpt lat="46.03387337036456" lon="12.085155635915731"><ele>496.6</ele><time>2026-05-03T12:37:16Z</time></trkpt><trkpt lat="46.033775171705415" lon="12.085155706165759"><ele>496.20000000000005</ele><time>2026-05-03T12:37:17Z</time></trkpt><trkpt lat="46.03371272736427" lon="12.085063326604097"><ele>495.8</ele><time>2026-05-03T12:37:18Z</time></trkpt><trkpt lat="46.033663416003684" lon="12.084967245225682"><ele>495.4</ele><time>2026-05-03T12:37:19Z</time></trkpt><trkpt lat="46.03362776143334" lon="12.084840010705827"><ele>495.0</ele><time>2026-05-03T12:37:20Z</time></trkpt><trkpt lat="46.033588933019246" lon="12.084702470594793"><ele>493.3333333333333</ele><time>2026-05-03T12:37:21Z</time></trkpt><trkpt lat="46.0335561894963" lon="12.084585432675553"><ele>491.66666666666663</ele><time>2026-05-03T12:37:22Z</time></trkpt><trkpt lat="46.03352638831982" lon="12.084480502802096"><ele>490.0</ele><time>2026-05-03T12:37:23Z</time></trkpt><trkpt lat="46.03349261866946" lon="12.084387176169107"><ele>488.3333333333333</ele><time>2026-05-03T12:37:24Z</time></trkpt><trkpt lat="46.03343036869589" lon="12.084327084701755"><ele>486.66666666666663</ele><time>2026-05-03T12:37:25Z</time></trkpt><trkpt lat="46.033315019757715" lon="12.08437346039279"><ele>485.0</ele><time>2026-05-03T12:37:26Z</time></trkpt><trkpt lat="46.03324980199992" lon="12.084541603119643"><ele>484.4</ele><time>2026-05-03T12:37:27Z</time></trkpt><trkpt lat="46.03317827072485" lon="12.084666214853987"><ele>483.8</ele><time>2026-05-03T12:37:28Z</time></trkpt><trkpt lat="46.03311834091204" lon="12.084810035271131"><ele>483.20000000000005</ele><time>2026-05-03T12:37:29Z</time></trkpt><trkpt lat="46.03306515353789" lon="12.084954469276807"><ele>482.6</ele><time>2026-05-03T12:37:30Z</time></trkpt><trkpt lat="46.0329897753835" lon="12.085028385317306"><ele>482.0</ele><time>2026-05-03T12:37:31Z</time></trkpt><trkpt lat="46.03291174673826" lon="12.085067543909906"><ele>481.99999999999994</ele><time>2026-05-03T12:37:32Z</time></trkpt><trkpt lat="46.03283846306948" lon="12.08511051992543"><ele>482.0</ele><time>2026-05-03T12:37:33Z</time></trkpt><trkpt lat="46.03275158326403" lon="12.085122797091795"><ele>482.0</ele><time>2026-05-03T12:37:34Z</time></trkpt><trkpt lat="46.03266575361765" lon="12.085145127089806"><ele>482.0</ele><time>2026-05-03T12:37:35Z</time></trkpt><trkpt lat="46.032598419131375" lon="12.08516264547256"><ele>481.99999999999994</ele><time>2026-05-03T12:37:36Z</time></trkpt><trkpt lat="46.03252587110073" lon="12.085181520310071"><ele>482.0</ele><time>2026-05-03T12:37:37Z</time></trkpt><trkpt lat="46.03245542456315" lon="12.08515729127717"><ele>482.0</ele><time>2026-05-03T12:37:39Z</time></trkpt><trkpt lat="46.03245270888579" lon="12.085061700127138"><ele>482.00000000000006</ele><time>2026-05-03T12:37:40Z</time></trkpt><trkpt lat="46.03255168867111" lon="12.084933511597528"><ele>482.00000000000006</ele><time>2026-05-03T12:37:41Z</time></trkpt><trkpt lat="46.032581378151356" lon="12.0847984591375"><ele>482.0</ele><time>2026-05-03T12:37:42Z</time></trkpt><trkpt lat="46.03261993625322" lon="12.084661722300885"><ele>482.0</ele><time>2026-05-03T12:37:43Z</time></trkpt><trkpt lat="46.03266892553747" lon="12.08453998657915"><ele>480.0</ele><time>2026-05-03T12:37:44Z</time></trkpt><trkpt lat="46.032707822588705" lon="12.084398821007658"><ele>478.00000000000006</ele><time>2026-05-03T12:37:45Z</time></trkpt><trkpt lat="46.03271814951032" lon="12.0842441182008"><ele>476.00000000000006</ele><time>2026-05-03T12:37:46Z</time></trkpt><trkpt lat="46.03272645500476" lon="12.08409716448958"><ele>474.0</ele><time>2026-05-03T12:37:47Z</time></trkpt><trkpt lat="46.03271518036621" lon="12.083941164887232"><ele>472.0</ele><time>2026-05-03T12:37:48Z</time></trkpt><trkpt lat="46.03273157805121" lon="12.083799658050257"><ele>470.6</ele><time>2026-05-03T12:37:49Z</time></trkpt><trkpt lat="46.03277203275652" lon="12.083682702166694"><ele>469.20000000000005</ele><time>2026-05-03T12:37:50Z</time></trkpt><trkpt lat="46.032846522370534" lon="12.083585884013909"><ele>467.8</ele><time>2026-05-03T12:37:51Z</time></trkpt><trkpt lat="46.032903384722225" lon="12.083474917094648"><ele>466.4</ele><time>2026-05-03T12:37:52Z</time></trkpt><trkpt lat="46.03292406581471" lon="12.083353983838597"><ele>465.0</ele><time>2026-05-03T12:37:53Z</time></trkpt><trkpt lat="46.03293445072391" lon="12.083231811142676"><ele>461.6</ele><time>2026-05-03T12:37:54Z</time></trkpt><trkpt lat="46.03291148543177" lon="12.083099142955144"><ele>458.2</ele><time>2026-05-03T12:37:55Z</time></trkpt><trkpt lat="46.03287288840347" lon="12.083004505699757"><ele>454.79999999999995</ele><time>2026-05-03T12:37:56Z</time></trkpt><trkpt lat="46.03283193216255" lon="12.082836329478024"><ele>451.4</ele><time>2026-05-03T12:37:58Z</time></trkpt><trkpt lat="46.03280970552183" lon="12.082740431030773"><ele>448.0</ele><time>2026-05-03T12:37:59Z</time></trkpt><trkpt lat="46.03288317012084" lon="12.082647164751856"><ele>448.00000000000006</ele><time>2026-05-03T12:38:01Z</time></trkpt><trkpt lat="46.03292348120573" lon="12.082570632236608"><ele>448.0</ele><time>2026-05-03T12:38:02Z</time></trkpt><trkpt lat="46.03297558551782" lon="12.082490521012133"><ele>448.0</ele><time>2026-05-03T12:38:03Z</time></trkpt><trkpt lat="46.03301088057024" lon="12.08238788977319"><ele>448.0</ele><time>2026-05-03T12:38:04Z</time></trkpt><trkpt lat="46.03303208410875" lon="12.082265056062225"><ele>448.00000000000006</ele><time>2026-05-03T12:38:05Z</time></trkpt><trkpt lat="46.03306310872991" lon="12.082130700534158"><ele>448.0</ele><time>2026-05-03T12:38:06Z</time></trkpt><trkpt lat="46.033090598443344" lon="12.081976065737225"><ele>443.25</ele><time>2026-05-03T12:38:07Z</time></trkpt><trkpt lat="46.033137319303336" lon="12.081819255082445"><ele>438.5</ele><time>2026-05-03T12:38:08Z</time></trkpt><trkpt lat="46.03317247772407" lon="12.081652704760936"><ele>433.75</ele><time>2026-05-03T12:38:09Z</time></trkpt><trkpt lat="46.03320061126207" lon="12.08147532409988"><ele>429.0</ele><time>2026-05-03T12:38:10Z</time></trkpt><trkpt lat="46.03323638823909" lon="12.081303918660723"><ele>425.75</ele><time>2026-05-03T12:38:11Z</time></trkpt><trkpt lat="46.03327211586122" lon="12.08112826048286"><ele>422.5</ele><time>2026-05-03T12:38:12Z</time></trkpt><trkpt lat="46.03329465452767" lon="12.080938463864687"><ele>419.25</ele><time>2026-05-03T12:38:13Z</time></trkpt><trkpt lat="46.03330373888273" lon="12.08074540888522"><ele>416.0</ele><time>2026-05-03T12:38:14Z</time></trkpt><trkpt lat="46.03330871535878" lon="12.080548251362"><ele>415.8</ele><time>2026-05-03T12:38:15Z</time></trkpt><trkpt lat="46.03334247959909" lon="12.080387480926381"><ele>415.6</ele><time>2026-05-03T12:38:16Z</time></trkpt><trkpt lat="46.03339836011284" lon="12.080262769924344"><ele>415.4</ele><time>2026-05-03T12:38:17Z</time></trkpt><trkpt lat="46.03347448074279" lon="12.080159046532179"><ele>415.2</ele><time>2026-05-03T12:38:17.999Z</time></trkpt><trkpt lat="46.03356784354147" lon="12.080106625204294"><ele>415.0</ele><time>2026-05-03T12:38:18.999Z</time></trkpt><trkpt lat="46.03367440578644" lon="12.080074130367858"><ele>415.0</ele><time>2026-05-03T12:38:19.999Z</time></trkpt><trkpt lat="46.0337847517963" lon="12.080034417259773"><ele>415.0</ele><time>2026-05-03T12:38:20.999Z</time></trkpt><trkpt lat="46.03390160599405" lon="12.079991773595259"><ele>415.0</ele><time>2026-05-03T12:38:21.999Z</time></trkpt><trkpt lat="46.034009030212815" lon="12.079945092171076"><ele>415.0</ele><time>2026-05-03T12:38:22.999Z</time></trkpt><trkpt lat="46.03410117441414" lon="12.079869942571795"><ele>414.0</ele><time>2026-05-03T12:38:23.999Z</time></trkpt><trkpt lat="46.034146483491554" lon="12.079740136167421"><ele>413.0</ele><time>2026-05-03T12:38:24.999Z</time></trkpt><trkpt lat="46.034160628045804" lon="12.079584657300916"><ele>412.0</ele><time>2026-05-03T12:38:25.999Z</time></trkpt><trkpt lat="46.03414527686791" lon="12.079430356943476"><ele>411.0</ele><time>2026-05-03T12:38:26.999Z</time></trkpt><trkpt lat="46.03416752951876" lon="12.07924756685545"><ele>410.0</ele><time>2026-05-03T12:38:27.999Z</time></trkpt><trkpt lat="46.03416255160514" lon="12.079098955263598"><ele>406.0</ele><time>2026-05-03T12:38:28.999Z</time></trkpt><trkpt lat="46.03414353315962" lon="12.078951175062086"><ele>402.0</ele><time>2026-05-03T12:38:29.999Z</time></trkpt><trkpt lat="46.0341030524848" lon="12.078816579381792"><ele>398.0</ele><time>2026-05-03T12:38:30.999Z</time></trkpt><trkpt lat="46.03403721181579" lon="12.07873231132651"><ele>394.0</ele><time>2026-05-03T12:38:31.999Z</time></trkpt><trkpt lat="46.033995081136574" lon="12.078638364919724"><ele>390.0</ele><time>2026-05-03T12:38:32.999Z</time></trkpt><trkpt lat="46.033985060530526" lon="12.078507183767337"><ele>390.0</ele><time>2026-05-03T12:38:34.999Z</time></trkpt><trkpt lat="46.03408868201289" lon="12.078492943402052"><ele>390.0</ele><time>2026-05-03T12:38:35.999Z</time></trkpt><trkpt lat="46.03417877524951" lon="12.07841174626239"><ele>390.0</ele><time>2026-05-03T12:38:36.999Z</time></trkpt><trkpt lat="46.03427351180293" lon="12.078322289522108"><ele>390.0</ele><time>2026-05-03T12:38:37.999Z</time></trkpt><trkpt lat="46.034346279713596" lon="12.078189330169234"><ele>390.0</ele><time>2026-05-03T12:38:38.999Z</time></trkpt><trkpt lat="46.034392477871485" lon="12.078055486474897"><ele>387.8333333333333</ele><time>2026-05-03T12:38:39.999Z</time></trkpt><trkpt lat="46.03443640629302" lon="12.077963431487904"><ele>385.6666666666667</ele><time>2026-05-03T12:38:40.999Z</time></trkpt><trkpt lat="46.03446596594461" lon="12.077874910149866"><ele>383.5</ele><time>2026-05-03T12:38:41.999Z</time></trkpt><trkpt lat="46.03441603592001" lon="12.077744062919965"><ele>381.33333333333337</ele><time>2026-05-03T12:38:43.999Z</time></trkpt><trkpt lat="46.034352244855576" lon="12.077767694443807"><ele>379.1666666666667</ele><time>2026-05-03T12:38:44.999Z</time></trkpt><trkpt lat="46.034289803115975" lon="12.077841501579138"><ele>377.0</ele><time>2026-05-03T12:38:45.999Z</time></trkpt><trkpt lat="46.03423364952137" lon="12.077944717568771"><ele>377.0</ele><time>2026-05-03T12:38:46.999Z</time></trkpt><trkpt lat="46.03417959558821" lon="12.078053748397913"><ele>377.0</ele><time>2026-05-03T12:38:47.999Z</time></trkpt><trkpt lat="46.03411288561842" lon="12.078090536234644"><ele>377.0</ele><time>2026-05-03T12:38:48.999Z</time></trkpt><trkpt lat="46.034053537185926" lon="12.077998798227583"><ele>377.0</ele><time>2026-05-03T12:38:49.999Z</time></trkpt><trkpt lat="46.03402101526919" lon="12.07791571213764"><ele>377.0</ele><time>2026-05-03T12:38:50.999Z</time></trkpt><trkpt lat="46.033996126398456" lon="12.077822915660114"><ele>377.0</ele><time>2026-05-03T12:38:51.999Z</time></trkpt><trkpt lat="46.03395766012302" lon="12.077727596260953"><ele>379.5</ele><time>2026-05-03T12:38:52.999Z</time></trkpt><trkpt lat="46.033928094894705" lon="12.077645627181301"><ele>382.0</ele><time>2026-05-03T12:38:53.999Z</time></trkpt><trkpt lat="46.033926478390455" lon="12.077528932131534"><ele>384.5</ele><time>2026-05-03T12:38:55.999Z</time></trkpt><trkpt lat="46.03401254129349" lon="12.07744757217274"><ele>387.0</ele><time>2026-05-03T12:38:57.999Z</time></trkpt><trkpt lat="46.034059348197474" lon="12.07736475996158"><ele>389.49999999999994</ele><time>2026-05-03T12:38:58.999Z</time></trkpt><trkpt lat="46.034127082889675" lon="12.077284256313671"><ele>392.0</ele><time>2026-05-03T12:38:59.999Z</time></trkpt><trkpt lat="46.034187782936975" lon="12.077203454369123"><ele>391.99999999999994</ele><time>2026-05-03T12:39:00.999Z</time></trkpt><trkpt lat="46.03424796371147" lon="12.077117182226399"><ele>392.0</ele><time>2026-05-03T12:39:01.999Z</time></trkpt><trkpt lat="46.03430652947826" lon="12.077048216514916"><ele>392.0</ele><time>2026-05-03T12:39:02.999Z</time></trkpt><trkpt lat="46.03436971312829" lon="12.076970520533322"><ele>392.0</ele><time>2026-05-03T12:39:03.999Z</time></trkpt><trkpt lat="46.034415226438476" lon="12.07690490513362"><ele>391.99999999999994</ele><time>2026-05-03T12:39:04.999Z</time></trkpt><trkpt lat="46.03441702311407" lon="12.076795179453352"><ele>392.0</ele><time>2026-05-03T12:39:06.999Z</time></trkpt><trkpt lat="46.03434148328761" lon="12.076774218799557"><ele>391.99999999999994</ele><time>2026-05-03T12:39:07.999Z</time></trkpt><trkpt lat="46.03428065223939" lon="12.076749678568207"><ele>392.0</ele><time>2026-05-03T12:39:08.999Z</time></trkpt><trkpt lat="46.034215441098866" lon="12.076724581077904"><ele>392.0</ele><time>2026-05-03T12:39:09.999Z</time></trkpt><trkpt lat="46.034161532749906" lon="12.076656397334716"><ele>392.0</ele><time>2026-05-03T12:39:10.999Z</time></trkpt><trkpt lat="46.03410953390836" lon="12.076588569542897"><ele>391.99999999999994</ele><time>2026-05-03T12:39:11.999Z</time></trkpt><trkpt lat="46.034029528172084" lon="12.076485668727942"><ele>392.0</ele><time>2026-05-03T12:39:13.999Z</time></trkpt><trkpt lat="46.034062995562934" lon="12.07639239468628"><ele>397.8</ele><time>2026-05-03T12:39:17Z</time></trkpt><trkpt lat="46.03412832309904" lon="12.076428653829213"><ele>403.6</ele><time>2026-05-03T12:39:18Z</time></trkpt><trkpt lat="46.034210917691" lon="12.076465139202126"><ele>409.40000000000003</ele><time>2026-05-03T12:39:19Z</time></trkpt><trkpt lat="46.03431185847935" lon="12.076482528684826"><ele>415.20000000000005</ele><time>2026-05-03T12:39:20Z</time></trkpt><trkpt lat="46.034423603622436" lon="12.076477585379884"><ele>421.0</ele><time>2026-05-03T12:39:21Z</time></trkpt><trkpt lat="46.034539095987796" lon="12.076458068529567"><ele>421.00000000000006</ele><time>2026-05-03T12:39:22Z</time></trkpt><trkpt lat="46.034654027526926" lon="12.076441350781472"><ele>421.0</ele><time>2026-05-03T12:39:23Z</time></trkpt><trkpt lat="46.034749481069845" lon="12.076422077033026"><ele>421.0</ele><time>2026-05-03T12:39:24Z</time></trkpt><trkpt lat="46.034817847058214" lon="12.07640371602412"><ele>421.0</ele><time>2026-05-03T12:39:25Z</time></trkpt><trkpt lat="46.03487971561877" lon="12.076371032054572"><ele>421.00000000000006</ele><time>2026-05-03T12:39:26Z</time></trkpt><trkpt lat="46.034932822190925" lon="12.076306696736726"><ele>421.0</ele><time>2026-05-03T12:39:27Z</time></trkpt><trkpt lat="46.0349672990952" lon="12.076223958230196"><ele>420.20000000000005</ele><time>2026-05-03T12:39:28Z</time></trkpt><trkpt lat="46.03499294760579" lon="12.076106033915629"><ele>419.40000000000003</ele><time>2026-05-03T12:39:29Z</time></trkpt><trkpt lat="46.03503886198553" lon="12.07597241398261"><ele>418.6</ele><time>2026-05-03T12:39:30Z</time></trkpt><trkpt lat="46.035111558490456" lon="12.075860583458944"><ele>417.8</ele><time>2026-05-03T12:39:31Z</time></trkpt><trkpt lat="46.03520076210947" lon="12.075747759480677"><ele>417.0</ele><time>2026-05-03T12:39:32Z</time></trkpt><trkpt lat="46.035283028317295" lon="12.075632206291113"><ele>420.1666666666667</ele><time>2026-05-03T12:39:33Z</time></trkpt><trkpt lat="46.03534631891708" lon="12.075537959125585"><ele>423.33333333333337</ele><time>2026-05-03T12:39:34Z</time></trkpt><trkpt lat="46.03538929264665" lon="12.075457174997274"><ele>426.5</ele><time>2026-05-03T12:39:35Z</time></trkpt><trkpt lat="46.03539513961573" lon="12.07535217309431"><ele>429.6666666666667</ele><time>2026-05-03T12:39:36Z</time></trkpt><trkpt lat="46.03538329366826" lon="12.075230086193779"><ele>432.83333333333337</ele><time>2026-05-03T12:39:37Z</time></trkpt><trkpt lat="46.03540745522555" lon="12.075144975307147"><ele>436.0</ele><time>2026-05-03T12:39:38Z</time></trkpt><trkpt lat="46.035466442588266" lon="12.075096880609328"><ele>436.0</ele><time>2026-05-03T12:39:39Z</time></trkpt><trkpt lat="46.03553726058866" lon="12.075130004134655"><ele>436.0</ele><time>2026-05-03T12:39:40Z</time></trkpt><trkpt lat="46.03560155584349" lon="12.075216924158719"><ele>436.0</ele><time>2026-05-03T12:39:41Z</time></trkpt><trkpt lat="46.03565583650401" lon="12.075329898305487"><ele>436.0</ele><time>2026-05-03T12:39:42Z</time></trkpt><trkpt lat="46.035718931418536" lon="12.075450923034087"><ele>436.0</ele><time>2026-05-03T12:39:43Z</time></trkpt><trkpt lat="46.03578020305436" lon="12.075584139451204"><ele>435.0</ele><time>2026-05-03T12:39:44Z</time></trkpt><trkpt lat="46.0358241274981" lon="12.075733719725498"><ele>434.0</ele><time>2026-05-03T12:39:45Z</time></trkpt><trkpt lat="46.03587007429837" lon="12.07586313171534"><ele>433.0</ele><time>2026-05-03T12:39:46Z</time></trkpt><trkpt lat="46.03591424192794" lon="12.075997920127476"><ele>432.0</ele><time>2026-05-03T12:39:47Z</time></trkpt><trkpt lat="46.0359863041688" lon="12.076123495872167"><ele>431.0</ele><time>2026-05-03T12:39:48Z</time></trkpt><trkpt lat="46.03605512726838" lon="12.076196605035229"><ele>428.6</ele><time>2026-05-03T12:39:49Z</time></trkpt><trkpt lat="46.03610839379362" lon="12.07632211730026"><ele>426.20000000000005</ele><time>2026-05-03T12:39:50Z</time></trkpt><trkpt lat="46.03613466014867" lon="12.076460862181984"><ele>423.79999999999995</ele><time>2026-05-03T12:39:51Z</time></trkpt><trkpt lat="46.036139559619826" lon="12.076592316276065"><ele>421.4</ele><time>2026-05-03T12:39:52Z</time></trkpt><trkpt lat="46.03618809226662" lon="12.076713032938084"><ele>419.0</ele><time>2026-05-03T12:39:53Z</time></trkpt><trkpt lat="46.03626641386303" lon="12.076824405143576"><ele>416.5</ele><time>2026-05-03T12:39:54Z</time></trkpt><trkpt lat="46.03636737002162" lon="12.076914967612854"><ele>414.0</ele><time>2026-05-03T12:39:55Z</time></trkpt><trkpt lat="46.03646236232186" lon="12.076997062209168"><ele>411.5</ele><time>2026-05-03T12:39:56Z</time></trkpt><trkpt lat="46.03654694614048" lon="12.077099401217826"><ele>409.0</ele><time>2026-05-03T12:39:57Z</time></trkpt><trkpt lat="46.036627283789905" lon="12.077214855741136"><ele>413.6</ele><time>2026-05-03T12:39:58Z</time></trkpt><trkpt lat="46.036696566069836" lon="12.077329509115064"><ele>418.2</ele><time>2026-05-03T12:39:59Z</time></trkpt><trkpt lat="46.036764118309286" lon="12.077432186191206"><ele>422.80000000000007</ele><time>2026-05-03T12:40:00Z</time></trkpt><trkpt lat="46.0368267855664" lon="12.077517536269719"><ele>427.40000000000003</ele><time>2026-05-03T12:40:01Z</time></trkpt><trkpt lat="46.03693000213827" lon="12.077582458987658"><ele>432.0</ele><time>2026-05-03T12:40:03Z</time></trkpt><trkpt lat="46.03700128617006" lon="12.077575357399311"><ele>432.0</ele><time>2026-05-03T12:40:04Z</time></trkpt><trkpt lat="46.03707849551506" lon="12.077524845506712"><ele>432.00000000000006</ele><time>2026-05-03T12:40:05Z</time></trkpt><trkpt lat="46.0371553214891" lon="12.077427320355286"><ele>432.00000000000006</ele><time>2026-05-03T12:40:05.999Z</time></trkpt><trkpt lat="46.03724269848264" lon="12.077316786961607"><ele>432.0</ele><time>2026-05-03T12:40:06.999Z</time></trkpt><trkpt lat="46.037333224684964" lon="12.077213228047025"><ele>432.0</ele><time>2026-05-03T12:40:07.999Z</time></trkpt><trkpt lat="46.03742056034331" lon="12.077104899783153"><ele>432.0</ele><time>2026-05-03T12:40:08.999Z</time></trkpt><trkpt lat="46.037493682329426" lon="12.076981015526734"><ele>432.0</ele><time>2026-05-03T12:40:09.999Z</time></trkpt><trkpt lat="46.03753904332648" lon="12.076819439410643"><ele>432.0</ele><time>2026-05-03T12:40:10.999Z</time></trkpt><trkpt lat="46.03757386479524" lon="12.07664681091608"><ele>432.0</ele><time>2026-05-03T12:40:11.999Z</time></trkpt><trkpt lat="46.03761032342114" lon="12.076494210632838"><ele>431.40000000000003</ele><time>2026-05-03T12:40:12.999Z</time></trkpt><trkpt lat="46.037648483575715" lon="12.07634323316912"><ele>430.80000000000007</ele><time>2026-05-03T12:40:13.999Z</time></trkpt><trkpt lat="46.03768617675347" lon="12.076195960339192"><ele>430.2</ele><time>2026-05-03T12:40:14.999Z</time></trkpt><trkpt lat="46.037728922212885" lon="12.07605163414203"><ele>429.6</ele><time>2026-05-03T12:40:15.999Z</time></trkpt><trkpt lat="46.037766531259415" lon="12.075902075798458"><ele>429.0</ele><time>2026-05-03T12:40:16.999Z</time></trkpt><trkpt lat="46.0378050728085" lon="12.075784774915792"><ele>429.6</ele><time>2026-05-03T12:40:17.999Z</time></trkpt><trkpt lat="46.03783744933832" lon="12.075688542825318"><ele>430.2</ele><time>2026-05-03T12:40:18.999Z</time></trkpt><trkpt lat="46.037875513237026" lon="12.075562713454367"><ele>430.80000000000007</ele><time>2026-05-03T12:40:20.999Z</time></trkpt><trkpt lat="46.0377701679269" lon="12.075495389737199"><ele>431.40000000000003</ele><time>2026-05-03T12:40:24.999Z</time></trkpt><trkpt lat="46.03763402521694" lon="12.075520287371496"><ele>432.0</ele><time>2026-05-03T12:40:26.999Z</time></trkpt><trkpt lat="46.03754651517893" lon="12.075536158627699"><ele>432.0</ele><time>2026-05-03T12:40:27.999Z</time></trkpt><trkpt lat="46.03748375213747" lon="12.075547280211726"><ele>432.00000000000006</ele><time>2026-05-03T12:40:28.999Z</time></trkpt><trkpt lat="46.037393515653264" lon="12.075563270080362"><ele>432.00000000000006</ele><time>2026-05-03T12:40:29.999Z</time></trkpt><trkpt lat="46.037285333359094" lon="12.075579518358516"><ele>432.0</ele><time>2026-05-03T12:40:30.999Z</time></trkpt><trkpt lat="46.037161878535365" lon="12.07558402690421"><ele>432.0</ele><time>2026-05-03T12:40:31.999Z</time></trkpt><trkpt lat="46.03703648207029" lon="12.07558059671795"><ele>431.8</ele><time>2026-05-03T12:40:32.999Z</time></trkpt><trkpt lat="46.0369279952698" lon="12.075561692807645"><ele>431.6</ele><time>2026-05-03T12:40:33.999Z</time></trkpt><trkpt lat="46.036825400346366" lon="12.075533053505328"><ele>431.40000000000003</ele><time>2026-05-03T12:40:34.999Z</time></trkpt><trkpt lat="46.03672469087906" lon="12.075481546895793"><ele>431.20000000000005</ele><time>2026-05-03T12:40:35.999Z</time></trkpt><trkpt lat="46.036646036505026" lon="12.075390074949013"><ele>431.0</ele><time>2026-05-03T12:40:37Z</time></trkpt><trkpt lat="46.03657238404769" lon="12.075306016582505"><ele>431.0</ele><time>2026-05-03T12:40:38Z</time></trkpt><trkpt lat="46.03650276342808" lon="12.075226941352408"><ele>431.0</ele><time>2026-05-03T12:40:39Z</time></trkpt><trkpt lat="46.03643647413383" lon="12.075149102101019"><ele>431.0</ele><time>2026-05-03T12:40:40Z</time></trkpt><trkpt lat="46.036369664459585" lon="12.0750644036919"><ele>431.0</ele><time>2026-05-03T12:40:41Z</time></trkpt><trkpt lat="46.03631686539217" lon="12.074952147449808"><ele>431.0</ele><time>2026-05-03T12:40:42Z</time></trkpt><trkpt lat="46.03626451401369" lon="12.07482286287557"><ele>434.5</ele><time>2026-05-03T12:40:43Z</time></trkpt><trkpt lat="46.036210520598836" lon="12.074687927399799"><ele>438.0</ele><time>2026-05-03T12:40:44Z</time></trkpt><trkpt lat="46.03615226680697" lon="12.074542344790446"><ele>441.5</ele><time>2026-05-03T12:40:45Z</time></trkpt><trkpt lat="46.03609237606989" lon="12.07439390823203"><ele>445.0</ele><time>2026-05-03T12:40:46Z</time></trkpt><trkpt lat="46.03602514644437" lon="12.074245154103076"><ele>445.0</ele><time>2026-05-03T12:40:47Z</time></trkpt><trkpt lat="46.035927457241236" lon="12.074115826412227"><ele>445.0</ele><time>2026-05-03T12:40:48Z</time></trkpt><trkpt lat="46.035844963518294" lon="12.073963133679083"><ele>445.0</ele><time>2026-05-03T12:40:49Z</time></trkpt><trkpt lat="46.03575567380157" lon="12.073811857517509"><ele>445.0</ele><time>2026-05-03T12:40:50Z</time></trkpt><trkpt lat="46.0356517397566" lon="12.073667817337544"><ele>450.0</ele><time>2026-05-03T12:40:51Z</time></trkpt><trkpt lat="46.035546805371844" lon="12.07351082195485"><ele>455.0</ele><time>2026-05-03T12:40:52Z</time></trkpt><trkpt lat="46.03543877629279" lon="12.07335443491363"><ele>460.0</ele><time>2026-05-03T12:40:53Z</time></trkpt><trkpt lat="46.03533900718503" lon="12.073210100868256"><ele>465.0</ele><time>2026-05-03T12:40:54Z</time></trkpt><trkpt lat="46.03525375915655" lon="12.073092651973125"><ele>465.0</ele><time>2026-05-03T12:40:55Z</time></trkpt><trkpt lat="46.03516610785109" lon="12.072990120085203"><ele>465.0</ele><time>2026-05-03T12:40:56Z</time></trkpt><trkpt lat="46.03505461240723" lon="12.072926813036112"><ele>465.0</ele><time>2026-05-03T12:40:57Z</time></trkpt><trkpt lat="46.03492246580391" lon="12.07288801922724"><ele>465.0</ele><time>2026-05-03T12:40:58Z</time></trkpt><trkpt lat="46.034786520498315" lon="12.072837538743256"><ele>468.5</ele><time>2026-05-03T12:40:59Z</time></trkpt><trkpt lat="46.0346672374988" lon="12.072738625778177"><ele>472.0</ele><time>2026-05-03T12:41:00Z</time></trkpt><trkpt lat="46.034536212865774" lon="12.072661545511073"><ele>475.5</ele><time>2026-05-03T12:41:01Z</time></trkpt><trkpt lat="46.034413944583534" lon="12.07255755843038"><ele>479.0</ele><time>2026-05-03T12:41:02Z</time></trkpt><trkpt lat="46.03430815762814" lon="12.072432637801743"><ele>479.0</ele><time>2026-05-03T12:41:03Z</time></trkpt><trkpt lat="46.03419639814231" lon="12.07231158183094"><ele>479.0</ele><time>2026-05-03T12:41:04Z</time></trkpt><trkpt lat="46.03408293735748" lon="12.072186401619447"><ele>479.0</ele><time>2026-05-03T12:41:05Z</time></trkpt><trkpt lat="46.03397102350139" lon="12.072061370914133"><ele>479.0</ele><time>2026-05-03T12:41:06Z</time></trkpt><trkpt lat="46.03386561259331" lon="12.07192191123219"><ele>485.25</ele><time>2026-05-03T12:41:07Z</time></trkpt><trkpt lat="46.0337701573002" lon="12.071772139606109"><ele>491.5</ele><time>2026-05-03T12:41:08Z</time></trkpt><trkpt lat="46.03368499082209" lon="12.07161261845935"><ele>497.75</ele><time>2026-05-03T12:41:09Z</time></trkpt><trkpt lat="46.033607710245626" lon="12.071448577053637"><ele>504.0</ele><time>2026-05-03T12:41:10Z</time></trkpt><trkpt lat="46.03352868327776" lon="12.071277321414566"><ele>504.0</ele><time>2026-05-03T12:41:11Z</time></trkpt><trkpt lat="46.03344430028966" lon="12.07109511994058"><ele>504.0</ele><time>2026-05-03T12:41:12Z</time></trkpt><trkpt lat="46.03333408110963" lon="12.070932002441214"><ele>504.0</ele><time>2026-05-03T12:41:13Z</time></trkpt><trkpt lat="46.03322932399725" lon="12.070767601427502"><ele>506.25</ele><time>2026-05-03T12:41:14Z</time></trkpt><trkpt lat="46.03311058837447" lon="12.070641872658454"><ele>508.5</ele><time>2026-05-03T12:41:15Z</time></trkpt><trkpt lat="46.03298530666932" lon="12.070536066861225"><ele>510.75</ele><time>2026-05-03T12:41:16Z</time></trkpt><trkpt lat="46.03286811927346" lon="12.070444389304223"><ele>513.0</ele><time>2026-05-03T12:41:17Z</time></trkpt><trkpt lat="46.032751044570354" lon="12.070380950485404"><ele>513.0</ele><time>2026-05-03T12:41:18Z</time></trkpt><trkpt lat="46.032629661434676" lon="12.070356016971688"><ele>513.0</ele><time>2026-05-03T12:41:19Z</time></trkpt><trkpt lat="46.03253929869686" lon="12.070332512431838"><ele>513.0</ele><time>2026-05-03T12:41:20Z</time></trkpt><trkpt lat="46.03245420985603" lon="12.070313322577679"><ele>513.0</ele><time>2026-05-03T12:41:21Z</time></trkpt><trkpt lat="46.032360248028645" lon="12.070360425514993"><ele>513.0</ele><time>2026-05-03T12:41:22Z</time></trkpt><trkpt lat="46.0322584855071" lon="12.070429917548772"><ele>518.25</ele><time>2026-05-03T12:41:23Z</time></trkpt><trkpt lat="46.0321467391452" lon="12.070499300192498"><ele>523.5</ele><time>2026-05-03T12:41:24Z</time></trkpt><trkpt lat="46.0320449782045" lon="12.07059557836206"><ele>528.75</ele><time>2026-05-03T12:41:25Z</time></trkpt><trkpt lat="46.031986133682764" lon="12.070755924851957"><ele>534.0</ele><time>2026-05-03T12:41:26Z</time></trkpt><trkpt lat="46.03191440535943" lon="12.07092428098263"><ele>534.0</ele><time>2026-05-03T12:41:27Z</time></trkpt><trkpt lat="46.031854654616545" lon="12.071106071035208"><ele>534.0</ele><time>2026-05-03T12:41:28Z</time></trkpt><trkpt lat="46.03179066207536" lon="12.071272803250626"><ele>534.0</ele><time>2026-05-03T12:41:29Z</time></trkpt><trkpt lat="46.03175461750932" lon="12.071457527484405"><ele>534.0</ele><time>2026-05-03T12:41:30Z</time></trkpt><trkpt lat="46.031724114937184" lon="12.071647919725104"><ele>534.0</ele><time>2026-05-03T12:41:31Z</time></trkpt><trkpt lat="46.03168734514805" lon="12.071826547311343"><ele>534.0</ele><time>2026-05-03T12:41:32Z</time></trkpt><trkpt lat="46.03161222865434" lon="12.071944062495842"><ele>534.0</ele><time>2026-05-03T12:41:33Z</time></trkpt><trkpt lat="46.03154264094622" lon="12.072050335177162"><ele>534.0</ele><time>2026-05-03T12:41:34Z</time></trkpt><trkpt lat="46.031469547654524" lon="12.072152167091673"><ele>534.0</ele><time>2026-05-03T12:41:35Z</time></trkpt><trkpt lat="46.031387837653234" lon="12.07224071147871"><ele>536.6666666666666</ele><time>2026-05-03T12:41:36Z</time></trkpt><trkpt lat="46.031313413266275" lon="12.072278108694862"><ele>539.3333333333334</ele><time>2026-05-03T12:41:37Z</time></trkpt><trkpt lat="46.03124554802744" lon="12.072272197626342"><ele>542.0</ele><time>2026-05-03T12:41:38Z</time></trkpt><trkpt lat="46.03116977122625" lon="12.072247769758008"><ele>544.6666666666667</ele><time>2026-05-03T12:41:39Z</time></trkpt><trkpt lat="46.031086414830746" lon="12.072203476857679"><ele>547.3333333333334</ele><time>2026-05-03T12:41:40Z</time></trkpt><trkpt lat="46.0310106225263" lon="12.072131344722138"><ele>550.0</ele><time>2026-05-03T12:41:41Z</time></trkpt><trkpt lat="46.03092504473425" lon="12.072050798936449"><ele>550.0</ele><time>2026-05-03T12:41:42Z</time></trkpt><trkpt lat="46.030827956882355" lon="12.071971351657812"><ele>550.0</ele><time>2026-05-03T12:41:43Z</time></trkpt><trkpt lat="46.03072255286038" lon="12.07193431238175"><ele>550.0</ele><time>2026-05-03T12:41:44Z</time></trkpt><trkpt lat="46.030629874616956" lon="12.071892912560072"><ele>550.0</ele><time>2026-05-03T12:41:45Z</time></trkpt><trkpt lat="46.03052672951147" lon="12.07190072481446"><ele>550.0</ele><time>2026-05-03T12:41:46Z</time></trkpt><trkpt lat="46.03042832331459" lon="12.071943100815922"><ele>552.8</ele><time>2026-05-03T12:41:47Z</time></trkpt><trkpt lat="46.03033722581749" lon="12.07203187561513"><ele>555.6</ele><time>2026-05-03T12:41:48Z</time></trkpt><trkpt lat="46.030263634515414" lon="12.072156647995493"><ele>558.4</ele><time>2026-05-03T12:41:49Z</time></trkpt><trkpt lat="46.030203256664024" lon="12.072287645065721"><ele>561.2</ele><time>2026-05-03T12:41:50Z</time></trkpt><trkpt lat="46.03015124993933" lon="12.072412364334982"><ele>564.0</ele><time>2026-05-03T12:41:51Z</time></trkpt><trkpt lat="46.03009586537185" lon="12.072524536883735"><ele>565.0</ele><time>2026-05-03T12:41:52Z</time></trkpt><trkpt lat="46.03002587193396" lon="12.07262980173849"><ele>566.0</ele><time>2026-05-03T12:41:53Z</time></trkpt><trkpt lat="46.02995984318159" lon="12.072742444684168"><ele>567.0</ele><time>2026-05-03T12:41:54Z</time></trkpt><trkpt lat="46.029870756451174" lon="12.07285783569426"><ele>568.0</ele><time>2026-05-03T12:41:55Z</time></trkpt><trkpt lat="46.02977650085716" lon="12.0730074229419"><ele>573.6666666666667</ele><time>2026-05-03T12:41:56Z</time></trkpt><trkpt lat="46.0296802316059" lon="12.073158700482269"><ele>579.3333333333334</ele><time>2026-05-03T12:41:57Z</time></trkpt><trkpt lat="46.02957602420567" lon="12.073322102321283"><ele>585.0</ele><time>2026-05-03T12:41:58Z</time></trkpt><trkpt lat="46.02947658116969" lon="12.073507156147294"><ele>585.0</ele><time>2026-05-03T12:41:59Z</time></trkpt><trkpt lat="46.029375479773634" lon="12.073673225143752"><ele>585.0</ele><time>2026-05-03T12:42:00Z</time></trkpt><trkpt lat="46.029284658468555" lon="12.073824011896441"><ele>585.0</ele><time>2026-05-03T12:42:01Z</time></trkpt><trkpt lat="46.02919619045206" lon="12.073978174655888"><ele>585.0</ele><time>2026-05-03T12:42:02Z</time></trkpt><trkpt lat="46.02911996160168" lon="12.074116712377116"><ele>586.1666666666666</ele><time>2026-05-03T12:42:03Z</time></trkpt><trkpt lat="46.02904641614621" lon="12.07419822495357"><ele>587.3333333333334</ele><time>2026-05-03T12:42:04Z</time></trkpt><trkpt lat="46.02895072605273" lon="12.074275251154031"><ele>588.5</ele><time>2026-05-03T12:42:06Z</time></trkpt><trkpt lat="46.02889091642767" lon="12.074202338726586"><ele>589.6666666666667</ele><time>2026-05-03T12:42:07Z</time></trkpt><trkpt lat="46.02886521727469" lon="12.074109098505886"><ele>590.8333333333334</ele><time>2026-05-03T12:42:08Z</time></trkpt><trkpt lat="46.0287987601836" lon="12.074010370185007"><ele>592.0</ele><time>2026-05-03T12:42:09Z</time></trkpt><trkpt lat="46.02871222029498" lon="12.073893895722456"><ele>593.6</ele><time>2026-05-03T12:42:10Z</time></trkpt><trkpt lat="46.028602333254405" lon="12.073826511016259"><ele>595.2</ele><time>2026-05-03T12:42:10.999Z</time></trkpt><trkpt lat="46.028498525641176" lon="12.073781072923436"><ele>596.8</ele><time>2026-05-03T12:42:11.999Z</time></trkpt><trkpt lat="46.02839982477502" lon="12.0737821701679"><ele>598.4</ele><time>2026-05-03T12:42:12.999Z</time></trkpt><trkpt lat="46.02832684602924" lon="12.07375143381206"><ele>600.0</ele><time>2026-05-03T12:42:13.999Z</time></trkpt><trkpt lat="46.028231561959714" lon="12.073849509487534"><ele>603.25</ele><time>2026-05-03T12:42:14.999Z</time></trkpt><trkpt lat="46.02813598578344" lon="12.07391875662851"><ele>606.5</ele><time>2026-05-03T12:42:15.999Z</time></trkpt><trkpt lat="46.02804614475575" lon="12.074060515837088"><ele>609.75</ele><time>2026-05-03T12:42:17Z</time></trkpt><trkpt lat="46.02797929571969" lon="12.07421478062959"><ele>613.0</ele><time>2026-05-03T12:42:18Z</time></trkpt><trkpt lat="46.02797455627251" lon="12.074397760288553"><ele>613.0</ele><time>2026-05-03T12:42:19Z</time></trkpt><trkpt lat="46.027942149697786" lon="12.074600645369356"><ele>613.0</ele><time>2026-05-03T12:42:20Z</time></trkpt><trkpt lat="46.02793708127559" lon="12.074794049140506"><ele>613.0</ele><time>2026-05-03T12:42:21Z</time></trkpt><trkpt lat="46.027930427815235" lon="12.074970737079651"><ele>613.0</ele><time>2026-05-03T12:42:22Z</time></trkpt><trkpt lat="46.027884034201705" lon="12.075114440419966"><ele>613.0</ele><time>2026-05-03T12:42:23Z</time></trkpt><trkpt lat="46.02782508565128" lon="12.075244788747204"><ele>613.0</ele><time>2026-05-03T12:42:24Z</time></trkpt><trkpt lat="46.02775230143136" lon="12.075348497579233"><ele>613.0</ele><time>2026-05-03T12:42:25Z</time></trkpt><trkpt lat="46.027689616053664" lon="12.075462272036216"><ele>613.0</ele><time>2026-05-03T12:42:26Z</time></trkpt><trkpt lat="46.02760567711292" lon="12.075547061168676"><ele>613.0</ele><time>2026-05-03T12:42:27Z</time></trkpt><trkpt lat="46.027530805546554" lon="12.075662711473225"><ele>614.1999999999999</ele><time>2026-05-03T12:42:28Z</time></trkpt><trkpt lat="46.027460626698144" lon="12.075741793697974"><ele>615.4</ele><time>2026-05-03T12:42:29Z</time></trkpt><trkpt lat="46.02737306969604" lon="12.075809520995763"><ele>616.5999999999999</ele><time>2026-05-03T12:42:30Z</time></trkpt><trkpt lat="46.027271403091575" lon="12.075807550539535"><ele>617.8</ele><time>2026-05-03T12:42:31Z</time></trkpt><trkpt lat="46.027147337813155" lon="12.075870176999462"><ele>619.0</ele><time>2026-05-03T12:42:32Z</time></trkpt><trkpt lat="46.027031887115214" lon="12.075929123345762"><ele>619.0</ele><time>2026-05-03T12:42:33Z</time></trkpt><trkpt lat="46.026919275762" lon="12.07600873877907"><ele>619.0</ele><time>2026-05-03T12:42:34Z</time></trkpt><trkpt lat="46.02682099904119" lon="12.076053684008555"><ele>619.0</ele><time>2026-05-03T12:42:35Z</time></trkpt><trkpt lat="46.02674247238488" lon="12.076048246594668"><ele>619.0</ele><time>2026-05-03T12:42:36Z</time></trkpt><trkpt lat="46.026643963274196" lon="12.075975371807107"><ele>619.0</ele><time>2026-05-03T12:42:38Z</time></trkpt><trkpt lat="46.02659114534708" lon="12.075915259252453"><ele>622.0</ele><time>2026-05-03T12:42:39Z</time></trkpt><trkpt lat="46.026513988834104" lon="12.075836019393"><ele>625.0</ele><time>2026-05-03T12:42:40Z</time></trkpt><trkpt lat="46.026423849729746" lon="12.075757721504695"><ele>628.0</ele><time>2026-05-03T12:42:41Z</time></trkpt><trkpt lat="46.026315016439945" lon="12.075714471383586"><ele>631.0</ele><time>2026-05-03T12:42:42Z</time></trkpt><trkpt lat="46.02620378609553" lon="12.075693796138237"><ele>634.0</ele><time>2026-05-03T12:42:43Z</time></trkpt><trkpt lat="46.026097131347555" lon="12.075663369754057"><ele>637.0</ele><time>2026-05-03T12:42:44Z</time></trkpt><trkpt lat="46.02598902985064" lon="12.075624331383217"><ele>640.0</ele><time>2026-05-03T12:42:45Z</time></trkpt><trkpt lat="46.02588300799379" lon="12.075599569671255"><ele>643.0</ele><time>2026-05-03T12:42:46Z</time></trkpt><trkpt lat="46.025772034920216" lon="12.075563222226448"><ele>646.0</ele><time>2026-05-03T12:42:47Z</time></trkpt><trkpt lat="46.025672325645594" lon="12.075526572544492"><ele>649.0</ele><time>2026-05-03T12:42:48Z</time></trkpt><trkpt lat="46.02558837128809" lon="12.075477083761111"><ele>649.8000000000001</ele><time>2026-05-03T12:42:49Z</time></trkpt><trkpt lat="46.02552944904777" lon="12.075436450258758"><ele>650.6</ele><time>2026-05-03T12:42:50Z</time></trkpt><trkpt lat="46.02542877116205" lon="12.075435132919495"><ele>651.4</ele><time>2026-05-03T12:42:52Z</time></trkpt><trkpt lat="46.025420596594316" lon="12.07554404058791"><ele>652.2</ele><time>2026-05-03T12:42:53Z</time></trkpt><trkpt lat="46.02546179801696" lon="12.075721822477766"><ele>653.0</ele><time>2026-05-03T12:42:55Z</time></trkpt><trkpt lat="46.02548186285096" lon="12.075867758421952"><ele>653.0</ele><time>2026-05-03T12:42:56Z</time></trkpt><trkpt lat="46.025517898753215" lon="12.075992716143336"><ele>653.0</ele><time>2026-05-03T12:42:57Z</time></trkpt><trkpt lat="46.02558641140968" lon="12.076122058824255"><ele>653.0</ele><time>2026-05-03T12:42:58Z</time></trkpt><trkpt lat="46.025625734932326" lon="12.07622142655893"><ele>653.0</ele><time>2026-05-03T12:42:59Z</time></trkpt><trkpt lat="46.0256507842109" lon="12.076350790133917"><ele>653.0</ele><time>2026-05-03T12:43:01Z</time></trkpt><trkpt lat="46.0255710655571" lon="12.076389209179686"><ele>653.0</ele><time>2026-05-03T12:43:03Z</time></trkpt><trkpt lat="46.02549852851445" lon="12.076409015682508"><ele>653.0</ele><time>2026-05-03T12:43:04Z</time></trkpt><trkpt lat="46.02541134702832" lon="12.076416135355615"><ele>653.0</ele><time>2026-05-03T12:43:05Z</time></trkpt><trkpt lat="46.0253203697774" lon="12.076433427250999"><ele>653.0</ele><time>2026-05-03T12:43:06Z</time></trkpt><trkpt lat="46.02523861336303" lon="12.07645830855837"><ele>653.0</ele><time>2026-05-03T12:43:07Z</time></trkpt><trkpt lat="46.02513968357826" lon="12.076478247587099"><ele>653.0</ele><time>2026-05-03T12:43:08Z</time></trkpt><trkpt lat="46.02503902351879" lon="12.076509859222023"><ele>652.25</ele><time>2026-05-03T12:43:09Z</time></trkpt><trkpt lat="46.024929341862325" lon="12.076540180128342"><ele>651.5</ele><time>2026-05-03T12:43:10Z</time></trkpt><trkpt lat="46.02481283216439" lon="12.07657684539779"><ele>650.75</ele><time>2026-05-03T12:43:11Z</time></trkpt><trkpt lat="46.024705785476925" lon="12.076610637189527"><ele>650.0</ele><time>2026-05-03T12:43:12Z</time></trkpt><trkpt lat="46.02459235900753" lon="12.076591278989742"><ele>654.25</ele><time>2026-05-03T12:43:13Z</time></trkpt><trkpt lat="46.024467142391906" lon="12.076579341726928"><ele>658.5</ele><time>2026-05-03T12:43:14Z</time></trkpt><trkpt lat="46.02433072078054" lon="12.076585319506034"><ele>662.75</ele><time>2026-05-03T12:43:15Z</time></trkpt><trkpt lat="46.02419440469631" lon="12.076588139993179"><ele>667.0</ele><time>2026-05-03T12:43:16Z</time></trkpt><trkpt lat="46.024055848306645" lon="12.076601069055043"><ele>666.75</ele><time>2026-05-03T12:43:17Z</time></trkpt><trkpt lat="46.023916398771945" lon="12.076609179103446"><ele>666.5</ele><time>2026-05-03T12:43:18Z</time></trkpt><trkpt lat="46.02378702218082" lon="12.076627205132558"><ele>666.25</ele><time>2026-05-03T12:43:19Z</time></trkpt><trkpt lat="46.023666412053565" lon="12.076662383351279"><ele>666.0</ele><time>2026-05-03T12:43:20Z</time></trkpt><trkpt lat="46.02355478951058" lon="12.076697769671574"><ele>666.0</ele><time>2026-05-03T12:43:21Z</time></trkpt><trkpt lat="46.02344591983206" lon="12.076686173778265"><ele>666.0</ele><time>2026-05-03T12:43:22Z</time></trkpt><trkpt lat="46.02333440068324" lon="12.076706027277774"><ele>666.0</ele><time>2026-05-03T12:43:23Z</time></trkpt><trkpt lat="46.02321822257455" lon="12.07672859601257"><ele>666.0</ele><time>2026-05-03T12:43:24Z</time></trkpt><trkpt lat="46.023104544220814" lon="12.0767518617774"><ele>669.4</ele><time>2026-05-03T12:43:25Z</time></trkpt><trkpt lat="46.022994064888195" lon="12.076774472844317"><ele>672.8</ele><time>2026-05-03T12:43:26Z</time></trkpt><trkpt lat="46.02287914958768" lon="12.076797574053396"><ele>676.1999999999999</ele><time>2026-05-03T12:43:27Z</time></trkpt><trkpt lat="46.02277252999762" lon="12.07681769697018"><ele>679.5999999999999</ele><time>2026-05-03T12:43:28Z</time></trkpt><trkpt lat="46.022683771666436" lon="12.076827908964146"><ele>683.0</ele><time>2026-05-03T12:43:29Z</time></trkpt><trkpt lat="46.02259937671456" lon="12.076824711544367"><ele>683.0</ele><time>2026-05-03T12:43:30Z</time></trkpt><trkpt lat="46.022522838729756" lon="12.076799422796743"><ele>683.0</ele><time>2026-05-03T12:43:31Z</time></trkpt><trkpt lat="46.02242487765031" lon="12.07677619459509"><ele>683.0</ele><time>2026-05-03T12:43:32Z</time></trkpt><trkpt lat="46.02232083794476" lon="12.076772710121888"><ele>683.0</ele><time>2026-05-03T12:43:33Z</time></trkpt><trkpt lat="46.02220261246524" lon="12.076802851268216"><ele>683.0</ele><time>2026-05-03T12:43:34Z</time></trkpt><trkpt lat="46.02208304024278" lon="12.076842728304207"><ele>687.75</ele><time>2026-05-03T12:43:35Z</time></trkpt><trkpt lat="46.0219668743788" lon="12.076885882986192"><ele>692.5</ele><time>2026-05-03T12:43:36Z</time></trkpt><trkpt lat="46.02185481552293" lon="12.076926706860139"><ele>697.25</ele><time>2026-05-03T12:43:37Z</time></trkpt><trkpt lat="46.021741342766724" lon="12.076972127307027"><ele>702.0</ele><time>2026-05-03T12:43:38Z</time></trkpt><trkpt lat="46.02163093349719" lon="12.077030114325064"><ele>704.4000000000001</ele><time>2026-05-03T12:43:39Z</time></trkpt><trkpt lat="46.02152258052492" lon="12.077061881720411"><ele>706.8000000000001</ele><time>2026-05-03T12:43:40Z</time></trkpt><trkpt lat="46.02141751827579" lon="12.077081106195271"><ele>709.2</ele><time>2026-05-03T12:43:41Z</time></trkpt><trkpt lat="46.02131147939522" lon="12.077121412588996"><ele>711.6</ele><time>2026-05-03T12:43:42Z</time></trkpt><trkpt lat="46.021201980224525" lon="12.077161028901616"><ele>714.0</ele><time>2026-05-03T12:43:43Z</time></trkpt><trkpt lat="46.02109587617456" lon="12.07718748186832"><ele>714.0</ele><time>2026-05-03T12:43:44Z</time></trkpt><trkpt lat="46.02098311840473" lon="12.077225577320524"><ele>714.0</ele><time>2026-05-03T12:43:45Z</time></trkpt><trkpt lat="46.02086248163352" lon="12.077242207906213"><ele>714.0</ele><time>2026-05-03T12:43:46Z</time></trkpt><trkpt lat="46.02075042703695" lon="12.077232139355658"><ele>714.0</ele><time>2026-05-03T12:43:47Z</time></trkpt><trkpt lat="46.02064611038965" lon="12.077238981947003"><ele>716.0</ele><time>2026-05-03T12:43:48Z</time></trkpt><trkpt lat="46.020551473555315" lon="12.077232540313826"><ele>718.0</ele><time>2026-05-03T12:43:49Z</time></trkpt><trkpt lat="46.02045882142296" lon="12.077205457312308"><ele>720.0</ele><time>2026-05-03T12:43:50Z</time></trkpt><trkpt lat="46.02036953511814" lon="12.07716577739324"><ele>722.0</ele><time>2026-05-03T12:43:51Z</time></trkpt><trkpt lat="46.02028092113586" lon="12.07710954923566"><ele>724.0</ele><time>2026-05-03T12:43:52Z</time></trkpt><trkpt lat="46.02019773652325" lon="12.07706695756768"><ele>724.0</ele><time>2026-05-03T12:43:53Z</time></trkpt><trkpt lat="46.02007806688335" lon="12.077069210177699"><ele>724.0</ele><time>2026-05-03T12:43:55Z</time></trkpt><trkpt lat="46.02003172683585" lon="12.077158287798742"><ele>724.0</ele><time>2026-05-03T12:43:56Z</time></trkpt><trkpt lat="46.019999783101156" lon="12.077246555861969"><ele>724.0</ele><time>2026-05-03T12:43:57Z</time></trkpt><trkpt lat="46.01998203314881" lon="12.077344742872235"><ele>724.0</ele><time>2026-05-03T12:43:58Z</time></trkpt><trkpt lat="46.0199308869002" lon="12.077404146259152"><ele>724.0</ele><time>2026-05-03T12:43:59Z</time></trkpt><trkpt lat="46.01987385236576" lon="12.077450775780049"><ele>726.1666666666667</ele><time>2026-05-03T12:44:00Z</time></trkpt><trkpt lat="46.0197706927358" lon="12.077415210208308"><ele>728.3333333333334</ele><time>2026-05-03T12:44:02Z</time></trkpt><trkpt lat="46.01970231591534" lon="12.077407251638043"><ele>730.5</ele><time>2026-05-03T12:44:03Z</time></trkpt><trkpt lat="46.019622859762165" lon="12.07739842315288"><ele>732.6666666666666</ele><time>2026-05-03T12:44:04Z</time></trkpt><trkpt lat="46.019539541943324" lon="12.077392879653488"><ele>734.8333333333333</ele><time>2026-05-03T12:44:05Z</time></trkpt><trkpt lat="46.0194444791973" lon="12.077383667615015"><ele>737.0</ele><time>2026-05-03T12:44:06Z</time></trkpt><trkpt lat="46.01937211985561" lon="12.07736505027244"><ele>737.0</ele><time>2026-05-03T12:44:07Z</time></trkpt><trkpt lat="46.01932316669854" lon="12.07729147561648"><ele>737.0</ele><time>2026-05-03T12:44:08Z</time></trkpt><trkpt lat="46.01924147252153" lon="12.077216010530217"><ele>737.0</ele><time>2026-05-03T12:44:09Z</time></trkpt><trkpt lat="46.01915613787196" lon="12.077178302078176"><ele>737.0</ele><time>2026-05-03T12:44:10Z</time></trkpt><trkpt lat="46.01905739771947" lon="12.077218730183882"><ele>737.0</ele><time>2026-05-03T12:44:11Z</time></trkpt><trkpt lat="46.018972702099084" lon="12.077240214245673"><ele>737.0</ele><time>2026-05-03T12:44:12Z</time></trkpt><trkpt lat="46.01889861961728" lon="12.077285694077423"><ele>735.8</ele><time>2026-05-03T12:44:13Z</time></trkpt><trkpt lat="46.018874718836116" lon="12.077404501884933"><ele>734.6</ele><time>2026-05-03T12:44:14Z</time></trkpt><trkpt lat="46.018870673869436" lon="12.077521654000199"><ele>733.4</ele><time>2026-05-03T12:44:15Z</time></trkpt><trkpt lat="46.01886893803892" lon="12.077633451334778"><ele>732.1999999999999</ele><time>2026-05-03T12:44:16Z</time></trkpt><trkpt lat="46.01885390183624" lon="12.077749786803102"><ele>731.0</ele><time>2026-05-03T12:44:17Z</time></trkpt><trkpt lat="46.018757750623934" lon="12.077875643956693"><ele>731.0</ele><time>2026-05-03T12:44:19Z</time></trkpt><trkpt lat="46.018664961957334" lon="12.077860467582028"><ele>731.0</ele><time>2026-05-03T12:44:20Z</time></trkpt><trkpt lat="46.018563310141445" lon="12.07786805400242"><ele>731.0</ele><time>2026-05-03T12:44:21Z</time></trkpt><trkpt lat="46.018460533233934" lon="12.077891054687054"><ele>731.0</ele><time>2026-05-03T12:44:22Z</time></trkpt><trkpt lat="46.01834890140501" lon="12.07791011786557"><ele>731.0</ele><time>2026-05-03T12:44:23Z</time></trkpt><trkpt lat="46.01824338102769" lon="12.077928202214085"><ele>731.8</ele><time>2026-05-03T12:44:24Z</time></trkpt><trkpt lat="46.01814273570999" lon="12.077937519670291"><ele>732.5999999999999</ele><time>2026-05-03T12:44:25Z</time></trkpt><trkpt lat="46.0180435380191" lon="12.077936277594429"><ele>733.4</ele><time>2026-05-03T12:44:26Z</time></trkpt><trkpt lat="46.01795939976037" lon="12.07787522759055"><ele>734.2</ele><time>2026-05-03T12:44:27Z</time></trkpt><trkpt lat="46.01786614749835" lon="12.077826699879932"><ele>735.0</ele><time>2026-05-03T12:44:28Z</time></trkpt><trkpt lat="46.017762178532855" lon="12.07777749746111"><ele>735.0</ele><time>2026-05-03T12:44:29Z</time></trkpt><trkpt lat="46.017668943696194" lon="12.07774188942997"><ele>735.0</ele><time>2026-05-03T12:44:30Z</time></trkpt><trkpt lat="46.017582375694865" lon="12.077704420097595"><ele>735.0</ele><time>2026-05-03T12:44:31Z</time></trkpt><trkpt lat="46.017495170365244" lon="12.077651287975817"><ele>735.0</ele><time>2026-05-03T12:44:32Z</time></trkpt><trkpt lat="46.017415036344076" lon="12.07758463480325"><ele>735.0</ele><time>2026-05-03T12:44:33Z</time></trkpt><trkpt lat="46.017361068461" lon="12.07748004290506"><ele>742.8</ele><time>2026-05-03T12:44:34Z</time></trkpt><trkpt lat="46.017269538151325" lon="12.07740467155141"><ele>750.6</ele><time>2026-05-03T12:44:35Z</time></trkpt><trkpt lat="46.017169307825476" lon="12.077381210135105"><ele>758.4000000000001</ele><time>2026-05-03T12:44:36Z</time></trkpt><trkpt lat="46.01705565062839" lon="12.077432247726726"><ele>766.2</ele><time>2026-05-03T12:44:37Z</time></trkpt><trkpt lat="46.01695758913374" lon="12.077431434368902"><ele>774.0</ele><time>2026-05-03T12:44:38Z</time></trkpt><trkpt lat="46.016882709057086" lon="12.077415394060324"><ele>774.0</ele><time>2026-05-03T12:44:39Z</time></trkpt><trkpt lat="46.01680388904496" lon="12.077338053867749"><ele>774.0</ele><time>2026-05-03T12:44:40Z</time></trkpt><trkpt lat="46.0167153598072" lon="12.077314287306653"><ele>774.0</ele><time>2026-05-03T12:44:41Z</time></trkpt><trkpt lat="46.016625680951165" lon="12.077332496601732"><ele>774.0</ele><time>2026-05-03T12:44:42Z</time></trkpt><trkpt lat="46.01653360747068" lon="12.07738014471992"><ele>774.0</ele><time>2026-05-03T12:44:43Z</time></trkpt><trkpt lat="46.01644118520287" lon="12.077405041511177"><ele>774.8000000000001</ele><time>2026-05-03T12:44:44Z</time></trkpt><trkpt lat="46.01635858474926" lon="12.077392655281205"><ele>775.6</ele><time>2026-05-03T12:44:45Z</time></trkpt><trkpt lat="46.016277887021914" lon="12.077361238801538"><ele>776.4</ele><time>2026-05-03T12:44:46Z</time></trkpt><trkpt lat="46.01619235530223" lon="12.077325081272688"><ele>777.2</ele><time>2026-05-03T12:44:47Z</time></trkpt><trkpt lat="46.01614382080285" lon="12.077266585685223"><ele>778.0</ele><time>2026-05-03T12:44:48Z</time></trkpt><trkpt lat="46.01607131673563" lon="12.077083878450798"><ele>778.0</ele><time>2026-05-03T12:44:50Z</time></trkpt><trkpt lat="46.01601714958279" lon="12.076991037747261"><ele>778.0</ele><time>2026-05-03T12:44:51Z</time></trkpt><trkpt lat="46.01595074991415" lon="12.07693395058418"><ele>778.0</ele><time>2026-05-03T12:44:52Z</time></trkpt><trkpt lat="46.015834895847945" lon="12.076953812510771"><ele>778.0</ele><time>2026-05-03T12:44:53Z</time></trkpt><trkpt lat="46.01575671939149" lon="12.077060919181394"><ele>778.0</ele><time>2026-05-03T12:44:54Z</time></trkpt><trkpt lat="46.015670204041434" lon="12.077085819923203"><ele>779.5999999999999</ele><time>2026-05-03T12:44:55Z</time></trkpt><trkpt lat="46.01558562280689" lon="12.077082629067895"><ele>781.1999999999999</ele><time>2026-05-03T12:44:56Z</time></trkpt><trkpt lat="46.01549203997443" lon="12.07707590706863"><ele>782.8</ele><time>2026-05-03T12:44:57Z</time></trkpt><trkpt lat="46.015409498668944" lon="12.077055752882995"><ele>784.4</ele><time>2026-05-03T12:44:58Z</time></trkpt><trkpt lat="46.01532098018135" lon="12.077015788334487"><ele>786.0</ele><time>2026-05-03T12:44:59Z</time></trkpt><trkpt lat="46.015235201516134" lon="12.076950542951627"><ele>786.0</ele><time>2026-05-03T12:45:00Z</time></trkpt><trkpt lat="46.01514389783442" lon="12.076896420980498"><ele>786.0</ele><time>2026-05-03T12:45:01Z</time></trkpt><trkpt lat="46.015060989405676" lon="12.076877817718922"><ele>786.0</ele><time>2026-05-03T12:45:02Z</time></trkpt><trkpt lat="46.014976371901035" lon="12.07692918601759"><ele>786.0</ele><time>2026-05-03T12:45:03Z</time></trkpt><trkpt lat="46.014879219340855" lon="12.07698119582801"><ele>786.0</ele><time>2026-05-03T12:45:04Z</time></trkpt><trkpt lat="46.01478901219698" lon="12.077017546634313"><ele>788.8</ele><time>2026-05-03T12:45:05Z</time></trkpt><trkpt lat="46.0146842969859" lon="12.076960224911412"><ele>791.5999999999999</ele><time>2026-05-03T12:45:06Z</time></trkpt><trkpt lat="46.01459814419355" lon="12.076948573347797"><ele>794.4</ele><time>2026-05-03T12:45:07Z</time></trkpt><trkpt lat="46.014491221375565" lon="12.076975051965038"><ele>797.2</ele><time>2026-05-03T12:45:08Z</time></trkpt><trkpt lat="46.014403724026344" lon="12.076968182718828"><ele>800.0</ele><time>2026-05-03T12:45:09Z</time></trkpt><trkpt lat="46.01432900051" lon="12.076931393857054"><ele>800.0</ele><time>2026-05-03T12:45:10Z</time></trkpt><trkpt lat="46.014245676047665" lon="12.076852847336204"><ele>800.0</ele><time>2026-05-03T12:45:11Z</time></trkpt><trkpt lat="46.01416369251908" lon="12.076766797445348"><ele>800.0</ele><time>2026-05-03T12:45:12Z</time></trkpt><trkpt lat="46.01409144559771" lon="12.076690691341241"><ele>800.0</ele><time>2026-05-03T12:45:13Z</time></trkpt><trkpt lat="46.01403512085737" lon="12.07664873788523"><ele>800.0</ele><time>2026-05-03T12:45:14Z</time></trkpt><trkpt lat="46.01393533668104" lon="12.076718831129206"><ele>800.5000000000001</ele><time>2026-05-03T12:45:15Z</time></trkpt><trkpt lat="46.01384209147801" lon="12.076722260482784"><ele>801.0</ele><time>2026-05-03T12:45:16Z</time></trkpt><trkpt lat="46.01377580497054" lon="12.07671641474269"><ele>801.5</ele><time>2026-05-03T12:45:17Z</time></trkpt><trkpt lat="46.01374443098817" lon="12.076636186441842"><ele>802.0</ele><time>2026-05-03T12:45:18Z</time></trkpt><trkpt lat="46.01367408808405" lon="12.076579537495027"><ele>802.5000000000001</ele><time>2026-05-03T12:45:19Z</time></trkpt><trkpt lat="46.013582171981184" lon="12.076548344203044"><ele>803.0</ele><time>2026-05-03T12:45:20Z</time></trkpt><trkpt lat="46.013475221153826" lon="12.076622755023942"><ele>803.0</ele><time>2026-05-03T12:45:21Z</time></trkpt><trkpt lat="46.01338987775352" lon="12.076611283643535"><ele>803.0</ele><time>2026-05-03T12:45:22Z</time></trkpt><trkpt lat="46.0133039972171" lon="12.07657166174742"><ele>803.0</ele><time>2026-05-03T12:45:23Z</time></trkpt><trkpt lat="46.013211582006214" lon="12.076523413832293"><ele>803.0</ele><time>2026-05-03T12:45:24Z</time></trkpt><trkpt lat="46.01309943838369" lon="12.076464821632142"><ele>803.0</ele><time>2026-05-03T12:45:25Z</time></trkpt><trkpt lat="46.012988808575166" lon="12.076430321221695"><ele>814.0</ele><time>2026-05-03T12:45:26Z</time></trkpt><trkpt lat="46.012879268742076" lon="12.076414210408215"><ele>825.0</ele><time>2026-05-03T12:45:27Z</time></trkpt><trkpt lat="46.01276207343424" lon="12.076411376499733"><ele>836.0</ele><time>2026-05-03T12:45:28Z</time></trkpt><trkpt lat="46.01263960443457" lon="12.076409488565947"><ele>847.0</ele><time>2026-05-03T12:45:29Z</time></trkpt><trkpt lat="46.012522451930614" lon="12.076395839055797"><ele>850.25</ele><time>2026-05-03T12:45:30.001Z</time></trkpt><trkpt lat="46.01240085335751" lon="12.076356300004575"><ele>853.5</ele><time>2026-05-03T12:45:31.001Z</time></trkpt><trkpt lat="46.0122644377104" lon="12.07636995163468"><ele>856.75</ele><time>2026-05-03T12:45:32.001Z</time></trkpt><trkpt lat="46.01212313625587" lon="12.076384589491052"><ele>860.0</ele><time>2026-05-03T12:45:33.001Z</time></trkpt><trkpt lat="46.011984230561126" lon="12.076394963822665"><ele>860.0</ele><time>2026-05-03T12:45:34.001Z</time></trkpt><trkpt lat="46.011856364949935" lon="12.076453402106734"><ele>860.0</ele><time>2026-05-03T12:45:35.001Z</time></trkpt><trkpt lat="46.0117317621527" lon="12.07651430147691"><ele>860.0</ele><time>2026-05-03T12:45:36.001Z</time></trkpt><trkpt lat="46.011615023289835" lon="12.076608111162106"><ele>860.0</ele><time>2026-05-03T12:45:37.001Z</time></trkpt><trkpt lat="46.01149149786818" lon="12.07666911399636"><ele>857.5</ele><time>2026-05-03T12:45:38.001Z</time></trkpt><trkpt lat="46.011359102316995" lon="12.076723145439203"><ele>855.0</ele><time>2026-05-03T12:45:39.001Z</time></trkpt><trkpt lat="46.01123010078905" lon="12.07676782453605"><ele>852.5</ele><time>2026-05-03T12:45:40.001Z</time></trkpt><trkpt lat="46.011102633777554" lon="12.07682119112619"><ele>850.0</ele><time>2026-05-03T12:45:41.001Z</time></trkpt><trkpt lat="46.01097839757939" lon="12.076826993719065"><ele>850.0</ele><time>2026-05-03T12:45:42.001Z</time></trkpt><trkpt lat="46.010859962324695" lon="12.07683850107349"><ele>850.0</ele><time>2026-05-03T12:45:43.001Z</time></trkpt><trkpt lat="46.010739368296235" lon="12.076854391123625"><ele>850.0</ele><time>2026-05-03T12:45:44.001Z</time></trkpt><trkpt lat="46.01062635056132" lon="12.076887202353824"><ele>850.0</ele><time>2026-05-03T12:45:45.001Z</time></trkpt><trkpt lat="46.01052997595389" lon="12.076973395524666"><ele>854.2</ele><time>2026-05-03T12:45:46.001Z</time></trkpt><trkpt lat="46.01043784339681" lon="12.077043528487332"><ele>858.4</ele><time>2026-05-03T12:45:47.001Z</time></trkpt><trkpt lat="46.01034926493416" lon="12.077113494460935"><ele>862.5999999999999</ele><time>2026-05-03T12:45:48.001Z</time></trkpt><trkpt lat="46.01025915536537" lon="12.077181969707103"><ele>866.8</ele><time>2026-05-03T12:45:49.001Z</time></trkpt><trkpt lat="46.010166549736745" lon="12.07721196722685"><ele>871.0</ele><time>2026-05-03T12:45:50.001Z</time></trkpt><trkpt lat="46.010052758456546" lon="12.077237728035465"><ele>875.75</ele><time>2026-05-03T12:45:51.001Z</time></trkpt><trkpt lat="46.00993504995134" lon="12.077282992787591"><ele>880.5</ele><time>2026-05-03T12:45:52.001Z</time></trkpt><trkpt lat="46.00981452162492" lon="12.07732228560399"><ele>885.25</ele><time>2026-05-03T12:45:53.001Z</time></trkpt><trkpt lat="46.009686800029215" lon="12.077358401038307"><ele>890.0</ele><time>2026-05-03T12:45:54.001Z</time></trkpt><trkpt lat="46.00955169505268" lon="12.07739185603828"><ele>890.0</ele><time>2026-05-03T12:45:55.001Z</time></trkpt><trkpt lat="46.009400592307976" lon="12.077419218641712"><ele>890.0</ele><time>2026-05-03T12:45:56.001Z</time></trkpt><trkpt lat="46.009248216997904" lon="12.077446472359668"><ele>890.0</ele><time>2026-05-03T12:45:57.001Z</time></trkpt><trkpt lat="46.00910262453131" lon="12.077463487943552"><ele>892.5</ele><time>2026-05-03T12:45:58.001Z</time></trkpt><trkpt lat="46.00896226083709" lon="12.077470418353927"><ele>895.0</ele><time>2026-05-03T12:45:59.001Z</time></trkpt><trkpt lat="46.008825120022365" lon="12.077468465939269"><ele>897.5</ele><time>2026-05-03T12:46:00.001Z</time></trkpt><trkpt lat="46.008683208507335" lon="12.07743001625239"><ele>900.0</ele><time>2026-05-03T12:46:01.001Z</time></trkpt><trkpt lat="46.00853804165965" lon="12.077448009936342"><ele>896.0</ele><time>2026-05-03T12:46:02.001Z</time></trkpt><trkpt lat="46.0083870943087" lon="12.077444744405108"><ele>892.0</ele><time>2026-05-03T12:46:03.001Z</time></trkpt><trkpt lat="46.008227530668876" lon="12.07744692367819"><ele>888.0</ele><time>2026-05-03T12:46:04.001Z</time></trkpt><trkpt lat="46.00806123107227" lon="12.077459473826906"><ele>888.0</ele><time>2026-05-03T12:46:05.001Z</time></trkpt><trkpt lat="46.00789310034771" lon="12.0774666875882"><ele>888.0</ele><time>2026-05-03T12:46:06.001Z</time></trkpt><trkpt lat="46.00773005675932" lon="12.077473983036814"><ele>888.0</ele><time>2026-05-03T12:46:07.001Z</time></trkpt><trkpt lat="46.00756631665912" lon="12.077485453635658"><ele>891.0</ele><time>2026-05-03T12:46:08.001Z</time></trkpt><trkpt lat="46.0074212406848" lon="12.077495472437288"><ele>894.0</ele><time>2026-05-03T12:46:09.001Z</time></trkpt><trkpt lat="46.00729633355425" lon="12.077505339462768"><ele>897.0</ele><time>2026-05-03T12:46:10.001Z</time></trkpt><trkpt lat="46.00717174741887" lon="12.077522701424273"><ele>900.0</ele><time>2026-05-03T12:46:11.001Z</time></trkpt><trkpt lat="46.00704761058341" lon="12.07754781400489"><ele>900.0</ele><time>2026-05-03T12:46:12.001Z</time></trkpt><trkpt lat="46.00692111772518" lon="12.077595099301638"><ele>900.0</ele><time>2026-05-03T12:46:13.001Z</time></trkpt><trkpt lat="46.00679953288922" lon="12.077642725503749"><ele>900.0</ele><time>2026-05-03T12:46:14.001Z</time></trkpt><trkpt lat="46.00669204405861" lon="12.077686117927723"><ele>900.0</ele><time>2026-05-03T12:46:15.001Z</time></trkpt><trkpt lat="46.00658806586001" lon="12.077720671981751"><ele>901.0</ele><time>2026-05-03T12:46:16.001Z</time></trkpt><trkpt lat="46.006493182466514" lon="12.077738615828466"><ele>902.0</ele><time>2026-05-03T12:46:17.001Z</time></trkpt><trkpt lat="46.00638730655738" lon="12.077734880257148"><ele>903.0</ele><time>2026-05-03T12:46:18.001Z</time></trkpt><trkpt lat="46.00627448879906" lon="12.077700276248152"><ele>904.0</ele><time>2026-05-03T12:46:19.001Z</time></trkpt><trkpt lat="46.00616031494978" lon="12.077653395152424"><ele>905.0</ele><time>2026-05-03T12:46:20.001Z</time></trkpt><trkpt lat="46.0060369945654" lon="12.077599732509439"><ele>905.0</ele><time>2026-05-03T12:46:21.001Z</time></trkpt><trkpt lat="46.00591864857256" lon="12.077538573920297"><ele>905.0</ele><time>2026-05-03T12:46:22.001Z</time></trkpt><trkpt lat="46.005796099627084" lon="12.0774529965346"><ele>905.0</ele><time>2026-05-03T12:46:23.001Z</time></trkpt><trkpt lat="46.005666684143634" lon="12.077389591626723"><ele>905.0</ele><time>2026-05-03T12:46:24.001Z</time></trkpt><trkpt lat="46.00554260242778" lon="12.077348630309794"><ele>907.75</ele><time>2026-05-03T12:46:25.001Z</time></trkpt><trkpt lat="46.00541289164848" lon="12.077307198622416"><ele>910.5</ele><time>2026-05-03T12:46:26.001Z</time></trkpt><trkpt lat="46.00527827208522" lon="12.077264198957716"><ele>913.25</ele><time>2026-05-03T12:46:27.001Z</time></trkpt><trkpt lat="46.00515215059456" lon="12.077217312841745"><ele>916.0</ele><time>2026-05-03T12:46:28.001Z</time></trkpt><trkpt lat="46.00503729996227" lon="12.077135635965066"><ele>915.8</ele><time>2026-05-03T12:46:29.001Z</time></trkpt><trkpt lat="46.00492494839044" lon="12.077075947557308"><ele>915.5999999999999</ele><time>2026-05-03T12:46:30.001Z</time></trkpt><trkpt lat="46.00481654850806" lon="12.077050154944425"><ele>915.4</ele><time>2026-05-03T12:46:31.001Z</time></trkpt><trkpt lat="46.00473482539538" lon="12.077013875432554"><ele>915.2</ele><time>2026-05-03T12:46:32.001Z</time></trkpt><trkpt lat="46.004665733430514" lon="12.076959907636086"><ele>915.0</ele><time>2026-05-03T12:46:33.001Z</time></trkpt><trkpt lat="46.00457022580195" lon="12.076986933897633"><ele>915.0</ele><time>2026-05-03T12:46:34.001Z</time></trkpt><trkpt lat="46.0044801730214" lon="12.077017301172122"><ele>915.0</ele><time>2026-05-03T12:46:35.001Z</time></trkpt><trkpt lat="46.004385587778444" lon="12.077076398627367"><ele>915.0</ele><time>2026-05-03T12:46:36.001Z</time></trkpt><trkpt lat="46.004293883518045" lon="12.077137101083014"><ele>915.0</ele><time>2026-05-03T12:46:37.001Z</time></trkpt><trkpt lat="46.00419502708932" lon="12.077195848131293"><ele>915.0</ele><time>2026-05-03T12:46:38.001Z</time></trkpt><trkpt lat="46.00410071887087" lon="12.077246931175992"><ele>910.5</ele><time>2026-05-03T12:46:39.001Z</time></trkpt><trkpt lat="46.004021544476345" lon="12.077294065319887"><ele>906.0</ele><time>2026-05-03T12:46:40.001Z</time></trkpt><trkpt lat="46.003943549618796" lon="12.0773365552006"><ele>901.5</ele><time>2026-05-03T12:46:41.001Z</time></trkpt><trkpt lat="46.00386445986482" lon="12.077379490287997"><ele>897.0</ele><time>2026-05-03T12:46:42.001Z</time></trkpt><trkpt lat="46.00377663374971" lon="12.077414173239506"><ele>892.5</ele><time>2026-05-03T12:46:43.001Z</time></trkpt><trkpt lat="46.00370955826076" lon="12.077415085947427"><ele>888.0</ele><time>2026-05-03T12:46:44.001Z</time></trkpt><trkpt lat="46.00364230328375" lon="12.077373472675351"><ele>888.0</ele><time>2026-05-03T12:47:53.001Z</time></trkpt><trkpt lat="46.00356432783647" lon="12.07739297393944"><ele>888.0</ele><time>2026-05-03T12:47:55.001Z</time></trkpt><trkpt lat="46.003497553324785" lon="12.077419088239248"><ele>888.0</ele><time>2026-05-03T12:47:57.001Z</time></trkpt><trkpt lat="46.003436716265746" lon="12.077445957461334"><ele>888.0</ele><time>2026-05-03T12:47:59.001Z</time></trkpt><trkpt lat="46.00336052251956" lon="12.077465307799137"><ele>888.0</ele><time>2026-05-03T12:48:01.001Z</time></trkpt><trkpt lat="46.00328141417785" lon="12.077452581297809"><ele>888.0</ele><time>2026-05-03T12:48:03.001Z</time></trkpt><trkpt lat="46.0032085212221" lon="12.077446662620645"><ele>888.0</ele><time>2026-05-03T12:48:04.001Z</time></trkpt><trkpt lat="46.0031454477365" lon="12.07743447988213"><ele>885.0</ele><time>2026-05-03T12:48:05.001Z</time></trkpt><trkpt lat="46.0030307396806" lon="12.077415464491303"><ele>882.0</ele><time>2026-05-03T12:48:07.001Z</time></trkpt><trkpt lat="46.00292325250696" lon="12.077432266691815"><ele>879.0</ele><time>2026-05-03T12:48:09.001Z</time></trkpt><trkpt lat="46.002825989939424" lon="12.077454812773352"><ele>876.0</ele><time>2026-05-03T12:48:11.001Z</time></trkpt><trkpt lat="46.00274203738894" lon="12.077491411427538"><ele>873.0</ele><time>2026-05-03T12:48:13.001Z</time></trkpt><trkpt lat="46.002614732397596" lon="12.077522501861196"><ele>877.5714285714284</ele><time>2026-05-03T12:48:15.001Z</time></trkpt><trkpt lat="46.00254381855738" lon="12.077550773609872"><ele>882.1428571428571</ele><time>2026-05-03T12:48:16.001Z</time></trkpt><trkpt lat="46.00247464828089" lon="12.077573975683825"><ele>886.7142857142857</ele><time>2026-05-03T12:48:17.001Z</time></trkpt><trkpt lat="46.002408690779745" lon="12.077600207954168"><ele>891.2857142857142</ele><time>2026-05-03T12:48:18.001Z</time></trkpt><trkpt lat="46.00233816590814" lon="12.07762376575254"><ele>895.8571428571428</ele><time>2026-05-03T12:48:19.001Z</time></trkpt><trkpt lat="46.00227072242531" lon="12.077646294585982"><ele>900.4285714285713</ele><time>2026-05-03T12:48:20.001Z</time></trkpt><trkpt lat="46.00219171121878" lon="12.077671942483875"><ele>905.0</ele><time>2026-05-03T12:48:21.001Z</time></trkpt><trkpt lat="46.00211735242852" lon="12.077704192376315"><ele>905.0</ele><time>2026-05-03T12:48:22.001Z</time></trkpt><trkpt lat="46.0020454690406" lon="12.07772975618134"><ele>904.9999999999999</ele><time>2026-05-03T12:48:23.001Z</time></trkpt><trkpt lat="46.0019800939688" lon="12.077748809574953"><ele>905.0</ele><time>2026-05-03T12:48:24.001Z</time></trkpt><trkpt lat="46.00191458385317" lon="12.077765697174314"><ele>905.0</ele><time>2026-05-03T12:48:25.001Z</time></trkpt><trkpt lat="46.00184048489171" lon="12.0777547214386"><ele>904.9999999999999</ele><time>2026-05-03T12:48:26.001Z</time></trkpt><trkpt lat="46.00177310635235" lon="12.077727871140393"><ele>905.0</ele><time>2026-05-03T12:48:27.001Z</time></trkpt><trkpt lat="46.00170512503847" lon="12.077682940579848"><ele>905.0</ele><time>2026-05-03T12:48:28.001Z</time></trkpt><trkpt lat="46.00165850152656" lon="12.077602228632381"><ele>906.6</ele><time>2026-05-03T12:48:29.001Z</time></trkpt><trkpt lat="46.001620717607445" lon="12.077527968790655"><ele>908.2</ele><time>2026-05-03T12:48:30.001Z</time></trkpt><trkpt lat="46.00153363574887" lon="12.077427148229093"><ele>909.8</ele><time>2026-05-03T12:48:32.001Z</time></trkpt><trkpt lat="46.0014357964248" lon="12.077360198953912"><ele>911.4</ele><time>2026-05-03T12:48:34.001Z</time></trkpt><trkpt lat="46.00132688256772" lon="12.07728238377091"><ele>913.0</ele><time>2026-05-03T12:48:36.001Z</time></trkpt><trkpt lat="46.0012048417437" lon="12.077209949269186"><ele>905.8</ele><time>2026-05-03T12:48:38.001Z</time></trkpt><trkpt lat="46.00109273154661" lon="12.077142874818552"><ele>898.5999999999999</ele><time>2026-05-03T12:48:40.001Z</time></trkpt><trkpt lat="46.00100050599956" lon="12.07708698703846"><ele>891.4000000000001</ele><time>2026-05-03T12:48:42.001Z</time></trkpt><trkpt lat="46.000894406479794" lon="12.077012609087404"><ele>884.2</ele><time>2026-05-03T12:48:44.001Z</time></trkpt><trkpt lat="46.00083870908227" lon="12.076965353748301"><ele>877.0</ele><time>2026-05-03T12:48:45.001Z</time></trkpt><trkpt lat="46.000734032087024" lon="12.07687653795795"><ele>874.6</ele><time>2026-05-03T12:48:47.001Z</time></trkpt><trkpt lat="46.000678470463676" lon="12.076833375912019"><ele>872.2</ele><time>2026-05-03T12:48:48.001Z</time></trkpt><trkpt lat="46.00057052394146" lon="12.076766704821832"><ele>869.8</ele><time>2026-05-03T12:48:50.001Z</time></trkpt><trkpt lat="46.00044805245676" lon="12.076751359262932"><ele>867.4</ele><time>2026-05-03T12:48:52.001Z</time></trkpt><trkpt lat="46.00038476387693" lon="12.076740581170341"><ele>865.0</ele><time>2026-05-03T12:48:53.001Z</time></trkpt><trkpt lat="46.0002752869506" lon="12.076730645170713"><ele>865.0</ele><time>2026-05-03T12:48:55.001Z</time></trkpt><trkpt lat="46.00016928571225" lon="12.076748614778563"><ele>865.0</ele><time>2026-05-03T12:48:57.001Z</time></trkpt><trkpt lat="46.00007310906257" lon="12.076780494857683"><ele>865.0</ele><time>2026-05-03T12:48:59.001Z</time></trkpt><trkpt lat="45.99997421172554" lon="12.076834567357935"><ele>865.0</ele><time>2026-05-03T12:49:01Z</time></trkpt><trkpt lat="45.9998984876505" lon="12.076912626731094"><ele>865.0</ele><time>2026-05-03T12:49:03Z</time></trkpt><trkpt lat="45.999833726158734" lon="12.076973591845984"><ele>864.9999999999999</ele><time>2026-05-03T12:49:05Z</time></trkpt><trkpt lat="45.99973880181415" lon="12.07701248704104"><ele>865.0</ele><time>2026-05-03T12:49:07Z</time></trkpt><trkpt lat="45.9997112793743" lon="12.077099623486987"><ele>865.0</ele><time>2026-05-03T12:49:08Z</time></trkpt><trkpt lat="45.999655292521545" lon="12.077157698484992"><ele>865.0</ele><time>2026-05-03T12:49:09Z</time></trkpt><trkpt lat="45.99959935703548" lon="12.077223110791872"><ele>864.9999999999999</ele><time>2026-05-03T12:49:10Z</time></trkpt><trkpt lat="45.99955018145845" lon="12.077284599361729"><ele>865.0</ele><time>2026-05-03T12:49:11Z</time></trkpt><trkpt lat="45.999460700778236" lon="12.077408369490911"><ele>863.4999999999999</ele><time>2026-05-03T12:49:13Z</time></trkpt><trkpt lat="45.999412881003146" lon="12.077474761733649"><ele>862.0</ele><time>2026-05-03T12:49:14Z</time></trkpt><trkpt lat="45.999368109541884" lon="12.07753951888437"><ele>860.5</ele><time>2026-05-03T12:49:15Z</time></trkpt><trkpt lat="45.99927451545392" lon="12.077667260779236"><ele>859.0</ele><time>2026-05-03T12:49:17Z</time></trkpt><trkpt lat="45.99921203101078" lon="12.077727175644453"><ele>857.4999999999999</ele><time>2026-05-03T12:49:18Z</time></trkpt><trkpt lat="45.99912296744999" lon="12.077818042235183"><ele>856.0</ele><time>2026-05-03T12:49:20Z</time></trkpt><trkpt lat="45.9990437400901" lon="12.077914085420888"><ele>855.9999999999999</ele><time>2026-05-03T12:49:22Z</time></trkpt><trkpt lat="45.99898214860833" lon="12.078033338374222"><ele>856.0</ele><time>2026-05-03T12:49:24Z</time></trkpt><trkpt lat="45.99891864991582" lon="12.078173314131215"><ele>856.0</ele><time>2026-05-03T12:49:26Z</time></trkpt><trkpt lat="45.99887792276148" lon="12.078247577286279"><ele>856.0</ele><time>2026-05-03T12:49:27Z</time></trkpt><trkpt lat="45.99884100760737" lon="12.078357508330138"><ele>855.9999999999999</ele><time>2026-05-03T12:49:29Z</time></trkpt><trkpt lat="45.998784109392744" lon="12.078410075057286"><ele>856.0</ele><time>2026-05-03T12:49:44Z</time></trkpt><trkpt lat="45.99878747222677" lon="12.07851142808925"><ele>855.9999999999999</ele><time>2026-05-03T12:52:54.001Z</time></trkpt><trkpt lat="45.99875342981785" lon="12.078413933053946"><ele>856.0</ele><time>2026-05-03T12:53:43.001Z</time></trkpt><trkpt lat="45.9988061629267" lon="12.078355261182752"><ele>856.0</ele><time>2026-05-03T12:54:03.001Z</time></trkpt><trkpt lat="45.99884816377623" lon="12.078273848070678"><ele>856.0</ele><time>2026-05-03T12:54:05.001Z</time></trkpt><trkpt lat="45.99891338887025" lon="12.078150117762712"><ele>855.9999999999999</ele><time>2026-05-03T12:54:07.001Z</time></trkpt><trkpt lat="45.99896476339096" lon="12.078008804509182"><ele>856.0</ele><time>2026-05-03T12:54:09.001Z</time></trkpt><trkpt lat="45.999082897758285" lon="12.077921056931046"><ele>864.1999999999999</ele><time>2026-05-03T12:54:11.001Z</time></trkpt><trkpt lat="45.99917175292355" lon="12.077819688542718"><ele>872.3999999999999</ele><time>2026-05-03T12:54:13.001Z</time></trkpt><trkpt lat="45.9992271427884" lon="12.077759081414142"><ele>880.6</ele><time>2026-05-03T12:54:14.001Z</time></trkpt><trkpt lat="45.999278928470936" lon="12.07770061383566"><ele>888.8</ele><time>2026-05-03T12:54:15.001Z</time></trkpt><trkpt lat="45.99938871141364" lon="12.077567562721665"><ele>897.0</ele><time>2026-05-03T12:54:17.001Z</time></trkpt><trkpt lat="45.999455643444854" lon="12.077479051145415"><ele>892.4285714285714</ele><time>2026-05-03T12:54:18.001Z</time></trkpt><trkpt lat="45.99951423888821" lon="12.077398812225763"><ele>887.8571428571428</ele><time>2026-05-03T12:54:19.001Z</time></trkpt><trkpt lat="45.999567950795544" lon="12.077325261372867"><ele>883.2857142857142</ele><time>2026-05-03T12:54:20.001Z</time></trkpt><trkpt lat="45.99962151691202" lon="12.077258750491913"><ele>878.7142857142858</ele><time>2026-05-03T12:54:21.001Z</time></trkpt><trkpt lat="45.999677113336894" lon="12.077195349169664"><ele>874.1428571428571</ele><time>2026-05-03T12:54:22.001Z</time></trkpt><trkpt lat="45.99973424624168" lon="12.077134648171022"><ele>869.5714285714286</ele><time>2026-05-03T12:54:23.001Z</time></trkpt><trkpt lat="45.99979581915476" lon="12.0770692302465"><ele>865.0</ele><time>2026-05-03T12:54:24.001Z</time></trkpt><trkpt lat="45.99985190911735" lon="12.077013595840143"><ele>865.0</ele><time>2026-05-03T12:54:25.001Z</time></trkpt><trkpt lat="45.999949101386015" lon="12.076925963432013"><ele>865.0</ele><time>2026-05-03T12:54:27.001Z</time></trkpt><trkpt lat="46.000063605776624" lon="12.07684825921163"><ele>865.0</ele><time>2026-05-03T12:54:29.001Z</time></trkpt><trkpt lat="46.000126853751524" lon="12.076821583324257"><ele>865.0</ele><time>2026-05-03T12:54:30.001Z</time></trkpt><trkpt lat="46.00018838204228" lon="12.076801547639162"><ele>865.0</ele><time>2026-05-03T12:54:31.001Z</time></trkpt><trkpt lat="46.00030966452295" lon="12.076783461435177"><ele>865.0</ele><time>2026-05-03T12:54:33.001Z</time></trkpt><trkpt lat="46.000428956195755" lon="12.07678854637288"><ele>865.0</ele><time>2026-05-03T12:54:35.001Z</time></trkpt><trkpt lat="46.00049565348985" lon="12.076797727778782"><ele>865.0</ele><time>2026-05-03T12:54:36.001Z</time></trkpt><trkpt lat="46.000567255509424" lon="12.07682099550091"><ele>865.0</ele><time>2026-05-03T12:54:37.001Z</time></trkpt><trkpt lat="46.00067800897341" lon="12.076877851071432"><ele>865.0</ele><time>2026-05-03T12:54:39.001Z</time></trkpt><trkpt lat="46.00074893106588" lon="12.07693188606734"><ele>864.9999999999999</ele><time>2026-05-03T12:54:40.001Z</time></trkpt><trkpt lat="46.00081473065076" lon="12.076979500706004"><ele>865.0</ele><time>2026-05-03T12:54:41.001Z</time></trkpt><trkpt lat="46.000874804715124" lon="12.077051797621266"><ele>865.0</ele><time>2026-05-03T12:54:42.001Z</time></trkpt><trkpt lat="46.00093737224219" lon="12.077097627539782"><ele>865.0</ele><time>2026-05-03T12:54:43.001Z</time></trkpt><trkpt lat="46.0010177707676" lon="12.077129965058427"><ele>864.9999999999999</ele><time>2026-05-03T12:54:44.001Z</time></trkpt><trkpt lat="46.00109351020077" lon="12.077187376108263"><ele>865.0</ele><time>2026-05-03T12:54:45.001Z</time></trkpt><trkpt lat="46.001164501453395" lon="12.077233614542378"><ele>867.4</ele><time>2026-05-03T12:54:46.001Z</time></trkpt><trkpt lat="46.001238122969504" lon="12.077278969581116"><ele>869.8</ele><time>2026-05-03T12:54:47.001Z</time></trkpt><trkpt lat="46.00130821779745" lon="12.077311905295147"><ele>872.2</ele><time>2026-05-03T12:54:48.001Z</time></trkpt><trkpt lat="46.00138022248912" lon="12.077368186193707"><ele>874.6</ele><time>2026-05-03T12:54:49.001Z</time></trkpt><trkpt lat="46.00147856421161" lon="12.077436626154878"><ele>877.0</ele><time>2026-05-03T12:54:51.001Z</time></trkpt><trkpt lat="46.00157001935314" lon="12.077530637756428"><ele>881.6666666666666</ele><time>2026-05-03T12:54:53.001Z</time></trkpt><trkpt lat="46.00164028036394" lon="12.077593631548018"><ele>886.3333333333333</ele><time>2026-05-03T12:54:54.001Z</time></trkpt><trkpt lat="46.0016867477451" lon="12.07768959968252"><ele>891.0</ele><time>2026-05-03T12:54:55.001Z</time></trkpt><trkpt lat="46.00174778511306" lon="12.077749958492126"><ele>895.6666666666667</ele><time>2026-05-03T12:54:56.001Z</time></trkpt><trkpt lat="46.00182038890875" lon="12.07779018981443"><ele>900.3333333333334</ele><time>2026-05-03T12:54:57.001Z</time></trkpt><trkpt lat="46.00189982779711" lon="12.077805877706766"><ele>905.0</ele><time>2026-05-03T12:54:58.001Z</time></trkpt><trkpt lat="46.00198345474638" lon="12.077778913788688"><ele>905.0</ele><time>2026-05-03T12:54:59.001Z</time></trkpt><trkpt lat="46.00205540796862" lon="12.077762095269518"><ele>904.9999999999999</ele><time>2026-05-03T12:55:00.001Z</time></trkpt><trkpt lat="46.00212707447605" lon="12.077739545941375"><ele>905.0</ele><time>2026-05-03T12:55:01.001Z</time></trkpt><trkpt lat="46.002197123574504" lon="12.077703017764188"><ele>905.0</ele><time>2026-05-03T12:55:02.001Z</time></trkpt><trkpt lat="46.00226581712569" lon="12.077680859401761"><ele>904.9999999999999</ele><time>2026-05-03T12:55:03.001Z</time></trkpt><trkpt lat="46.00232922906843" lon="12.077648922258739"><ele>905.0</ele><time>2026-05-03T12:55:04.001Z</time></trkpt><trkpt lat="46.0024017395599" lon="12.077645264819594"><ele>905.0</ele><time>2026-05-03T12:55:05.001Z</time></trkpt><trkpt lat="46.00252002152382" lon="12.077602899071964"><ele>905.8333333333334</ele><time>2026-05-03T12:55:07.001Z</time></trkpt><trkpt lat="46.002582647985164" lon="12.077580618587758"><ele>906.6666666666667</ele><time>2026-05-03T12:55:08.001Z</time></trkpt><trkpt lat="46.00270582050399" lon="12.077538634002686"><ele>907.5</ele><time>2026-05-03T12:55:10.001Z</time></trkpt><trkpt lat="46.0027671069931" lon="12.077496071568413"><ele>908.3333333333333</ele><time>2026-05-03T12:55:11.001Z</time></trkpt><trkpt lat="46.002830780475804" lon="12.077502101776865"><ele>909.1666666666666</ele><time>2026-05-03T12:55:12.001Z</time></trkpt><trkpt lat="46.00294469225132" lon="12.077456509616631"><ele>910.0</ele><time>2026-05-03T12:55:14.001Z</time></trkpt><trkpt lat="46.00307743764931" lon="12.0774461433059"><ele>909.9999999999999</ele><time>2026-05-03T12:55:16Z</time></trkpt><trkpt lat="46.00315630287302" lon="12.077438962389264"><ele>910.0</ele><time>2026-05-03T12:55:17Z</time></trkpt><trkpt lat="46.00323608909875" lon="12.077436233848546"><ele>910.0</ele><time>2026-05-03T12:55:18Z</time></trkpt><trkpt lat="46.003312530190435" lon="12.07743045521638"><ele>910.0</ele><time>2026-05-03T12:55:19Z</time></trkpt><trkpt lat="46.00338522890354" lon="12.077422176902674"><ele>909.9999999999999</ele><time>2026-05-03T12:55:20Z</time></trkpt><trkpt lat="46.00345622247432" lon="12.077411304097385"><ele>910.0</ele><time>2026-05-03T12:55:21Z</time></trkpt><trkpt lat="46.00353485590192" lon="12.077375695169373"><ele>905.6</ele><time>2026-05-03T12:55:22Z</time></trkpt><trkpt lat="46.00361591719872" lon="12.077386655942703"><ele>901.2</ele><time>2026-05-03T12:55:23Z</time></trkpt><trkpt lat="46.00373045292908" lon="12.077390490378153"><ele>896.8</ele><time>2026-05-03T12:55:25Z</time></trkpt><trkpt lat="46.003797996894036" lon="12.077412139652743"><ele>892.4</ele><time>2026-05-03T12:55:27Z</time></trkpt><trkpt lat="46.00388213765291" lon="12.077405234691135"><ele>888.0</ele><time>2026-05-03T12:55:29Z</time></trkpt><trkpt lat="46.00398249292144" lon="12.077341657331052"><ele>888.0</ele><time>2026-05-03T12:55:31Z</time></trkpt><trkpt lat="46.00408067035779" lon="12.077292984603254"><ele>888.0</ele><time>2026-05-03T12:55:33Z</time></trkpt><trkpt lat="46.004185037149256" lon="12.077233363047954"><ele>888.0</ele><time>2026-05-03T12:55:35Z</time></trkpt><trkpt lat="46.00430745781489" lon="12.077182277843015"><ele>888.0</ele><time>2026-05-03T12:55:37Z</time></trkpt><trkpt lat="46.00436760106872" lon="12.077148853820152"><ele>888.0</ele><time>2026-05-03T12:55:38Z</time></trkpt><trkpt lat="46.00442930395153" lon="12.077114563102986"><ele>892.5</ele><time>2026-05-03T12:55:39Z</time></trkpt><trkpt lat="46.00449438723154" lon="12.077080888020303"><ele>897.0</ele><time>2026-05-03T12:55:40Z</time></trkpt><trkpt lat="46.004616105813035" lon="12.077023081525619"><ele>901.5</ele><time>2026-05-03T12:55:42Z</time></trkpt><trkpt lat="46.00468395258807" lon="12.07701038025797"><ele>906.0</ele><time>2026-05-03T12:55:43Z</time></trkpt><trkpt lat="46.00475598849853" lon="12.077016380602847"><ele>910.5</ele><time>2026-05-03T12:55:44Z</time></trkpt><trkpt lat="46.004838813901884" lon="12.07696398737334"><ele>915.0</ele><time>2026-05-03T12:55:45Z</time></trkpt><trkpt lat="46.0049143505817" lon="12.07692004423073"><ele>915.0</ele><time>2026-05-03T12:55:46Z</time></trkpt><trkpt lat="46.00499282167144" lon="12.076909435924213"><ele>915.0</ele><time>2026-05-03T12:55:47Z</time></trkpt><trkpt lat="46.00506952092123" lon="12.076889738385756"><ele>915.0</ele><time>2026-05-03T12:55:48Z</time></trkpt><trkpt lat="46.00514681962094" lon="12.076859301329945"><ele>915.0</ele><time>2026-05-03T12:55:49Z</time></trkpt><trkpt lat="46.00522788089066" lon="12.07683011048083"><ele>915.0</ele><time>2026-05-03T12:55:50Z</time></trkpt><trkpt lat="46.005307793473" lon="12.076801430025213"><ele>915.0</ele><time>2026-05-03T12:55:51Z</time></trkpt><trkpt lat="46.005394247732404" lon="12.076769948937931"><ele>915.0</ele><time>2026-05-03T12:55:52Z</time></trkpt><trkpt lat="46.005489450425955" lon="12.076739938815376"><ele>915.0</ele><time>2026-05-03T12:55:53Z</time></trkpt><trkpt lat="46.00557468366633" lon="12.07672253379837"><ele>915.0</ele><time>2026-05-03T12:55:54Z</time></trkpt><trkpt lat="46.00565272849469" lon="12.076719781542455"><ele>915.0</ele><time>2026-05-03T12:55:55Z</time></trkpt><trkpt lat="46.005739566293585" lon="12.076757340955648"><ele>915.0</ele><time>2026-05-03T12:55:56Z</time></trkpt><trkpt lat="46.005817993606684" lon="12.076773927288206"><ele>915.0</ele><time>2026-05-03T12:55:57Z</time></trkpt><trkpt lat="46.00589131324019" lon="12.076783828753435"><ele>915.0</ele><time>2026-05-03T12:55:58Z</time></trkpt><trkpt lat="46.00596492414675" lon="12.07679096954566"><ele>915.0</ele><time>2026-05-03T12:55:59Z</time></trkpt><trkpt lat="46.00604210293831" lon="12.076784288051945"><ele>915.0</ele><time>2026-05-03T12:56:00Z</time></trkpt><trkpt lat="46.006111088966776" lon="12.07674649637537"><ele>915.0</ele><time>2026-05-03T12:56:01Z</time></trkpt><trkpt lat="46.006186129970196" lon="12.076732759086715"><ele>915.0</ele><time>2026-05-03T12:56:02Z</time></trkpt><trkpt lat="46.006264428728976" lon="12.076705927799246"><ele>915.0</ele><time>2026-05-03T12:56:03Z</time></trkpt><trkpt lat="46.00633999978569" lon="12.076669852678073"><ele>915.0</ele><time>2026-05-03T12:56:04Z</time></trkpt><trkpt lat="46.00640576071509" lon="12.076624014951724"><ele>915.0</ele><time>2026-05-03T12:56:05Z</time></trkpt><trkpt lat="46.00647418439744" lon="12.076576165945115"><ele>915.0</ele><time>2026-05-03T12:56:06Z</time></trkpt><trkpt lat="46.00654323200838" lon="12.076530840060801"><ele>915.0</ele><time>2026-05-03T12:56:07Z</time></trkpt><trkpt lat="46.006624105316575" lon="12.07648979645372"><ele>915.0</ele><time>2026-05-03T12:56:08Z</time></trkpt><trkpt lat="46.006703773477504" lon="12.076444201892274"><ele>915.0</ele><time>2026-05-03T12:56:09Z</time></trkpt><trkpt lat="46.006786811726414" lon="12.076408351294193"><ele>914.4285714285714</ele><time>2026-05-03T12:56:10Z</time></trkpt><trkpt lat="46.00687078664775" lon="12.07640212659902"><ele>913.8571428571429</ele><time>2026-05-03T12:56:11Z</time></trkpt><trkpt lat="46.00693952956589" lon="12.076388671635318"><ele>913.2857142857143</ele><time>2026-05-03T12:56:12Z</time></trkpt><trkpt lat="46.00701207498174" lon="12.076354757799589"><ele>912.7142857142858</ele><time>2026-05-03T12:56:13Z</time></trkpt><trkpt lat="46.00708961850928" lon="12.076351405712831"><ele>912.1428571428571</ele><time>2026-05-03T12:56:14Z</time></trkpt><trkpt lat="46.007159445065696" lon="12.076341406566751"><ele>911.5714285714287</ele><time>2026-05-03T12:56:15Z</time></trkpt><trkpt lat="46.007227519081255" lon="12.07632332574063"><ele>911.0</ele><time>2026-05-03T12:56:16Z</time></trkpt><trkpt lat="46.00729762071908" lon="12.076299651329268"><ele>911.0000000000001</ele><time>2026-05-03T12:56:17Z</time></trkpt><trkpt lat="46.007365642004174" lon="12.07627305394361"><ele>911.0</ele><time>2026-05-03T12:56:18Z</time></trkpt><trkpt lat="46.007474260151" lon="12.076235630531137"><ele>911.0</ele><time>2026-05-03T12:56:20Z</time></trkpt><trkpt lat="46.00754228290068" lon="12.076194414622536"><ele>911.0</ele><time>2026-05-03T12:56:21Z</time></trkpt><trkpt lat="46.00761949377727" lon="12.076133056435422"><ele>911.0000000000001</ele><time>2026-05-03T12:56:22Z</time></trkpt><trkpt lat="46.00770698901734" lon="12.07606039733727"><ele>911.0</ele><time>2026-05-03T12:56:23Z</time></trkpt><trkpt lat="46.00779708326423" lon="12.075983253057911"><ele>912.5999999999999</ele><time>2026-05-03T12:56:24Z</time></trkpt><trkpt lat="46.00788692114704" lon="12.075924038860432"><ele>914.1999999999999</ele><time>2026-05-03T12:56:25Z</time></trkpt><trkpt lat="46.00799157846344" lon="12.075907219842023"><ele>915.8000000000001</ele><time>2026-05-03T12:56:26Z</time></trkpt><trkpt lat="46.008088206330285" lon="12.075881482048944"><ele>917.4000000000001</ele><time>2026-05-03T12:56:27Z</time></trkpt><trkpt lat="46.00817772147313" lon="12.075853219870798"><ele>919.0</ele><time>2026-05-03T12:56:28Z</time></trkpt><trkpt lat="46.0082577213568" lon="12.075813429900164"><ele>919.0</ele><time>2026-05-03T12:56:29Z</time></trkpt><trkpt lat="46.00834453764913" lon="12.07577967093374"><ele>919.0000000000001</ele><time>2026-05-03T12:56:30Z</time></trkpt><trkpt lat="46.00844015712004" lon="12.07574611168007"><ele>919.0000000000001</ele><time>2026-05-03T12:56:31Z</time></trkpt><trkpt lat="46.008526001451585" lon="12.075706009885028"><ele>919.0</ele><time>2026-05-03T12:56:32Z</time></trkpt><trkpt lat="46.00861154767346" lon="12.075668221488659"><ele>919.0</ele><time>2026-05-03T12:56:33Z</time></trkpt><trkpt lat="46.00869784428612" lon="12.075666559429028"><ele>920.1666666666666</ele><time>2026-05-03T12:56:34Z</time></trkpt><trkpt lat="46.00878354759914" lon="12.075661591981202"><ele>921.3333333333333</ele><time>2026-05-03T12:56:35Z</time></trkpt><trkpt lat="46.00886810293755" lon="12.075653656141982"><ele>922.5</ele><time>2026-05-03T12:56:36Z</time></trkpt><trkpt lat="46.008938047036864" lon="12.07563009613872"><ele>923.6666666666667</ele><time>2026-05-03T12:56:37Z</time></trkpt><trkpt lat="46.00901005161795" lon="12.075621870522264"><ele>924.8333333333334</ele><time>2026-05-03T12:56:38Z</time></trkpt><trkpt lat="46.00911721882969" lon="12.075592725476302"><ele>926.0</ele><time>2026-05-03T12:56:40Z</time></trkpt><trkpt lat="46.00922769828539" lon="12.075541255432459"><ele>926.0000000000001</ele><time>2026-05-03T12:56:42Z</time></trkpt><trkpt lat="46.00929640525075" lon="12.075507083997582"><ele>926.0</ele><time>2026-05-03T12:56:43Z</time></trkpt><trkpt lat="46.009362589541794" lon="12.07545735402344"><ele>926.0</ele><time>2026-05-03T12:56:44Z</time></trkpt><trkpt lat="46.00943541521766" lon="12.075396771753212"><ele>926.0</ele><time>2026-05-03T12:56:45Z</time></trkpt><trkpt lat="46.009500142229584" lon="12.075342926619859"><ele>926.0000000000001</ele><time>2026-05-03T12:56:46Z</time></trkpt><trkpt lat="46.0095677483321" lon="12.075286686334703"><ele>926.0</ele><time>2026-05-03T12:56:47Z</time></trkpt><trkpt lat="46.00963206364862" lon="12.075221665341363"><ele>926.0000000000001</ele><time>2026-05-03T12:56:48Z</time></trkpt><trkpt lat="46.00970700644101" lon="12.075151770565308"><ele>926.0</ele><time>2026-05-03T12:56:49Z</time></trkpt><trkpt lat="46.009779676042506" lon="12.075090686363662"><ele>926.0</ele><time>2026-05-03T12:56:50Z</time></trkpt><trkpt lat="46.00985209292396" lon="12.07505293639015"><ele>926.0</ele><time>2026-05-03T12:56:51Z</time></trkpt><trkpt lat="46.00993091988822" lon="12.074993787089493"><ele>926.0000000000001</ele><time>2026-05-03T12:56:52Z</time></trkpt><trkpt lat="46.010005712460355" lon="12.074942051465502"><ele>926.0</ele><time>2026-05-03T12:56:53Z</time></trkpt><trkpt lat="46.01007766624187" lon="12.074878338976976"><ele>924.1666666666667</ele><time>2026-05-03T12:56:54Z</time></trkpt><trkpt lat="46.01015631850811" lon="12.074876050766642"><ele>922.3333333333334</ele><time>2026-05-03T12:56:55Z</time></trkpt><trkpt lat="46.01022855580698" lon="12.07486200534549"><ele>920.5</ele><time>2026-05-03T12:56:56Z</time></trkpt><trkpt lat="46.01034305011713" lon="12.074850951545349"><ele>918.6666666666667</ele><time>2026-05-03T12:56:58Z</time></trkpt><trkpt lat="46.0104597210571" lon="12.074840103248317"><ele>916.8333333333334</ele><time>2026-05-03T12:57:00Z</time></trkpt><trkpt lat="46.01052399861093" lon="12.074832742211372"><ele>915.0</ele><time>2026-05-03T12:57:01Z</time></trkpt><trkpt lat="46.01064679569914" lon="12.074819085998866"><ele>915.0</ele><time>2026-05-03T12:57:03Z</time></trkpt><trkpt lat="46.01071290300624" lon="12.074823157550348"><ele>915.0000000000001</ele><time>2026-05-03T12:57:04Z</time></trkpt><trkpt lat="46.010790337374274" lon="12.07480196307369"><ele>915.0</ele><time>2026-05-03T12:57:05Z</time></trkpt><trkpt lat="46.01086639567148" lon="12.074785302540343"><ele>915.0</ele><time>2026-05-03T12:57:06Z</time></trkpt><trkpt lat="46.01094587925292" lon="12.07476407905811"><ele>915.0000000000001</ele><time>2026-05-03T12:57:07Z</time></trkpt><trkpt lat="46.01101757461278" lon="12.074742124595272"><ele>915.0</ele><time>2026-05-03T12:57:08Z</time></trkpt><trkpt lat="46.01108836864343" lon="12.074717610163052"><ele>915.0</ele><time>2026-05-03T12:57:09Z</time></trkpt><trkpt lat="46.0111576831507" lon="12.074668631113404"><ele>913.5</ele><time>2026-05-03T12:57:10Z</time></trkpt><trkpt lat="46.011231003546825" lon="12.074642647505437"><ele>912.0</ele><time>2026-05-03T12:57:11Z</time></trkpt><trkpt lat="46.011309216971085" lon="12.07461073421758"><ele>910.5</ele><time>2026-05-03T12:57:12Z</time></trkpt><trkpt lat="46.01138433976731" lon="12.074566272238954"><ele>909.0</ele><time>2026-05-03T12:57:13Z</time></trkpt><trkpt lat="46.01145691100165" lon="12.074528445840716"><ele>907.5</ele><time>2026-05-03T12:57:14Z</time></trkpt><trkpt lat="46.01153253786623" lon="12.074483818769643"><ele>906.0</ele><time>2026-05-03T12:57:15Z</time></trkpt><trkpt lat="46.01160132154599" lon="12.074446499930977"><ele>905.8333333333334</ele><time>2026-05-03T12:57:16Z</time></trkpt><trkpt lat="46.01168234861675" lon="12.074427845441594"><ele>905.6666666666667</ele><time>2026-05-03T12:57:17Z</time></trkpt><trkpt lat="46.01174874401168" lon="12.074408559509239"><ele>905.5</ele><time>2026-05-03T12:57:18Z</time></trkpt><trkpt lat="46.01182188819657" lon="12.074394870601411"><ele>905.3333333333334</ele><time>2026-05-03T12:57:19Z</time></trkpt><trkpt lat="46.01189976701554" lon="12.074381994332734"><ele>905.1666666666667</ele><time>2026-05-03T12:57:20Z</time></trkpt><trkpt lat="46.01197883271901" lon="12.07436602091014"><ele>905.0</ele><time>2026-05-03T12:57:21Z</time></trkpt><trkpt lat="46.012057499234274" lon="12.074345154461902"><ele>905.0000000000001</ele><time>2026-05-03T12:57:22Z</time></trkpt><trkpt lat="46.012131652471155" lon="12.07431507515044"><ele>905.0</ele><time>2026-05-03T12:57:23Z</time></trkpt><trkpt lat="46.01220338978372" lon="12.074277587580104"><ele>905.0</ele><time>2026-05-03T12:57:24Z</time></trkpt><trkpt lat="46.01227405263795" lon="12.074231059725978"><ele>905.0</ele><time>2026-05-03T12:57:25Z</time></trkpt><trkpt lat="46.012338950140325" lon="12.074162591939569"><ele>905.0000000000001</ele><time>2026-05-03T12:57:26Z</time></trkpt><trkpt lat="46.012420966381946" lon="12.074111247863831"><ele>905.0</ele><time>2026-05-03T12:57:27Z</time></trkpt><trkpt lat="46.01250869966004" lon="12.074068062498956"><ele>904.8</ele><time>2026-05-03T12:57:28Z</time></trkpt><trkpt lat="46.01259734067906" lon="12.074039827280115"><ele>904.6</ele><time>2026-05-03T12:57:29Z</time></trkpt><trkpt lat="46.01268176824916" lon="12.07399246747995"><ele>904.4000000000001</ele><time>2026-05-03T12:57:30Z</time></trkpt><trkpt lat="46.012757718785664" lon="12.07391494142406"><ele>904.2</ele><time>2026-05-03T12:57:31Z</time></trkpt><trkpt lat="46.012838265668556" lon="12.073856300314239"><ele>904.0</ele><time>2026-05-03T12:57:32Z</time></trkpt><trkpt lat="46.012925515585806" lon="12.073790129001383"><ele>903.9999999999999</ele><time>2026-05-03T12:57:33Z</time></trkpt><trkpt lat="46.01301011645984" lon="12.073725835424165"><ele>904.0</ele><time>2026-05-03T12:57:34Z</time></trkpt><trkpt lat="46.01310216799842" lon="12.073704662527005"><ele>904.0</ele><time>2026-05-03T12:57:35Z</time></trkpt><trkpt lat="46.01318010272429" lon="12.073679969233055"><ele>904.0</ele><time>2026-05-03T12:57:36Z</time></trkpt><trkpt lat="46.01325193376793" lon="12.073656148904316"><ele>903.9999999999999</ele><time>2026-05-03T12:57:37Z</time></trkpt><trkpt lat="46.013320812112255" lon="12.073638010767354"><ele>904.0</ele><time>2026-05-03T12:57:38Z</time></trkpt><trkpt lat="46.013389274106906" lon="12.073616951463446"><ele>904.8000000000001</ele><time>2026-05-03T12:57:39Z</time></trkpt><trkpt lat="46.01350802895137" lon="12.073549099704465"><ele>905.6000000000001</ele><time>2026-05-03T12:57:41Z</time></trkpt><trkpt lat="46.01357017692681" lon="12.073481951920096"><ele>906.4</ele><time>2026-05-03T12:57:42Z</time></trkpt><trkpt lat="46.01362706806029" lon="12.073428941835358"><ele>907.2</ele><time>2026-05-03T12:57:43Z</time></trkpt><trkpt lat="46.013726602074875" lon="12.07336334647255"><ele>908.0</ele><time>2026-05-03T12:57:45Z</time></trkpt><trkpt lat="46.01381895358388" lon="12.073304684807784"><ele>908.2</ele><time>2026-05-03T12:57:47Z</time></trkpt><trkpt lat="46.013942160229696" lon="12.07325571110122"><ele>908.4</ele><time>2026-05-03T12:57:49Z</time></trkpt><trkpt lat="46.01406284323464" lon="12.073223553341776"><ele>908.6000000000001</ele><time>2026-05-03T12:57:51Z</time></trkpt><trkpt lat="46.014128856573585" lon="12.073211351535441"><ele>908.8000000000001</ele><time>2026-05-03T12:57:52Z</time></trkpt><trkpt lat="46.01423518718366" lon="12.073168151249883"><ele>909.0</ele><time>2026-05-03T12:57:54Z</time></trkpt><trkpt lat="46.014309259005245" lon="12.073147070189668"><ele>909.2</ele><time>2026-05-03T12:57:56Z</time></trkpt><trkpt lat="46.01438909748551" lon="12.073148987360328"><ele>909.4000000000001</ele><time>2026-05-03T12:57:58Z</time></trkpt><trkpt lat="46.014466795459214" lon="12.073158207129344"><ele>909.6</ele><time>2026-05-03T12:58:00Z</time></trkpt><trkpt lat="46.01458514930804" lon="12.073173164080423"><ele>909.8</ele><time>2026-05-03T12:58:02Z</time></trkpt><trkpt lat="46.01469158440457" lon="12.073183057371459"><ele>910.0</ele><time>2026-05-03T12:58:04Z</time></trkpt><trkpt lat="46.014800391501474" lon="12.073156770517622"><ele>909.9999999999999</ele><time>2026-05-03T12:58:06Z</time></trkpt><trkpt lat="46.014902503718915" lon="12.073089748182184"><ele>910.0</ele><time>2026-05-03T12:58:08Z</time></trkpt><trkpt lat="46.01498906532464" lon="12.07298119229362"><ele>910.0</ele><time>2026-05-03T12:58:10Z</time></trkpt><trkpt lat="46.015033613137334" lon="12.072916057583743"><ele>910.0</ele><time>2026-05-03T12:58:11Z</time></trkpt><trkpt lat="46.0150790099847" lon="12.072850662674854"><ele>909.9999999999999</ele><time>2026-05-03T12:58:12Z</time></trkpt><trkpt lat="46.015111289587644" lon="12.072769411449979"><ele>910.0</ele><time>2026-05-03T12:58:13Z</time></trkpt><trkpt lat="46.015164647778384" lon="12.072709837466899"><ele>909.2</ele><time>2026-05-03T12:58:14Z</time></trkpt><trkpt lat="46.01522509944438" lon="12.072660938149404"><ele>908.4</ele><time>2026-05-03T12:58:15Z</time></trkpt><trkpt lat="46.01531751647053" lon="12.072551784940904"><ele>907.5999999999999</ele><time>2026-05-03T12:58:17Z</time></trkpt><trkpt lat="46.01541378315474" lon="12.072487738650576"><ele>906.8</ele><time>2026-05-03T12:58:19Z</time></trkpt><trkpt lat="46.01552092460378" lon="12.072417416528367"><ele>906.0</ele><time>2026-05-03T12:58:21Z</time></trkpt><trkpt lat="46.015581239142904" lon="12.07238996310698"><ele>906.0</ele><time>2026-05-03T12:58:22Z</time></trkpt><trkpt lat="46.01568950145161" lon="12.072329138821518"><ele>905.9999999999999</ele><time>2026-05-03T12:58:24Z</time></trkpt><trkpt lat="46.015807000296434" lon="12.072235085324783"><ele>905.9999999999999</ele><time>2026-05-03T12:58:26Z</time></trkpt><trkpt lat="46.01591983769479" lon="12.072164510257492"><ele>906.0</ele><time>2026-05-03T12:58:28Z</time></trkpt><trkpt lat="46.01597101271856" lon="12.07210636231376"><ele>906.0</ele><time>2026-05-03T12:58:29Z</time></trkpt><trkpt lat="46.01601714169996" lon="12.072039962486544"><ele>904.4</ele><time>2026-05-03T12:58:30Z</time></trkpt><trkpt lat="46.01609926170335" lon="12.07190234096674"><ele>902.8</ele><time>2026-05-03T12:58:32Z</time></trkpt><trkpt lat="46.01614571386636" lon="12.071838369107713"><ele>901.1999999999999</ele><time>2026-05-03T12:58:33Z</time></trkpt><trkpt lat="46.01619379786872" lon="12.07177572324605"><ele>899.5999999999999</ele><time>2026-05-03T12:58:34Z</time></trkpt><trkpt lat="46.016264476237026" lon="12.071636509881985"><ele>898.0</ele><time>2026-05-03T12:58:36Z</time></trkpt><trkpt lat="46.016322045683665" lon="12.071477818684718"><ele>897.9999999999999</ele><time>2026-05-03T12:58:38Z</time></trkpt><trkpt lat="46.01635429157869" lon="12.071378304445377"><ele>898.0</ele><time>2026-05-03T12:58:39Z</time></trkpt><trkpt lat="46.01638246489273" lon="12.07127606028809"><ele>898.0</ele><time>2026-05-03T12:58:40Z</time></trkpt><trkpt lat="46.016419484797" lon="12.071176395367713"><ele>898.0</ele><time>2026-05-03T12:58:41Z</time></trkpt><trkpt lat="46.01644836444832" lon="12.0710799612984"><ele>897.9999999999999</ele><time>2026-05-03T12:58:42Z</time></trkpt><trkpt lat="46.01647154391772" lon="12.07097592754391"><ele>898.0</ele><time>2026-05-03T12:58:43Z</time></trkpt><trkpt lat="46.01648594547116" lon="12.070869060684595"><ele>896.6666666666666</ele><time>2026-05-03T12:58:44Z</time></trkpt><trkpt lat="46.01650720259815" lon="12.070763008830086"><ele>895.3333333333333</ele><time>2026-05-03T12:58:45Z</time></trkpt><trkpt lat="46.01651802795451" lon="12.070661237012523"><ele>894.0</ele><time>2026-05-03T12:58:46Z</time></trkpt><trkpt lat="46.016522988466306" lon="12.07051064807421"><ele>892.6666666666667</ele><time>2026-05-03T12:58:48Z</time></trkpt><trkpt lat="46.01655322380645" lon="12.070396392475313"><ele>891.3333333333334</ele><time>2026-05-03T12:58:50Z</time></trkpt><trkpt lat="46.016611239128785" lon="12.070267842002838"><ele>890.0</ele><time>2026-05-03T12:58:52Z</time></trkpt><trkpt lat="46.01666261093366" lon="12.070128466221508"><ele>887.2</ele><time>2026-05-03T12:58:54Z</time></trkpt><trkpt lat="46.016716947078024" lon="12.06998876005997"><ele>884.4</ele><time>2026-05-03T12:58:56Z</time></trkpt><trkpt lat="46.01678488561827" lon="12.069860599040538"><ele>881.5999999999999</ele><time>2026-05-03T12:58:58Z</time></trkpt><trkpt lat="46.016862257023206" lon="12.069765448693522"><ele>878.8</ele><time>2026-05-03T12:59:00Z</time></trkpt><trkpt lat="46.016952491432356" lon="12.069671015626694"><ele>876.0</ele><time>2026-05-03T12:59:02Z</time></trkpt><trkpt lat="46.01703835149689" lon="12.069580229716655"><ele>875.0</ele><time>2026-05-03T12:59:04Z</time></trkpt><trkpt lat="46.01712266285596" lon="12.069459987866288"><ele>874.0</ele><time>2026-05-03T12:59:06Z</time></trkpt><trkpt lat="46.01721041591017" lon="12.06934169517635"><ele>873.0</ele><time>2026-05-03T12:59:08Z</time></trkpt><trkpt lat="46.01730371520629" lon="12.069237501767686"><ele>872.0</ele><time>2026-05-03T12:59:10Z</time></trkpt><trkpt lat="46.01738251626334" lon="12.069165701919951"><ele>872.0</ele><time>2026-05-03T12:59:12Z</time></trkpt><trkpt lat="46.01747289101524" lon="12.069132650689706"><ele>872.0</ele><time>2026-05-03T12:59:14Z</time></trkpt><trkpt lat="46.01758563063975" lon="12.069085353529864"><ele>872.0</ele><time>2026-05-03T12:59:16Z</time></trkpt><trkpt lat="46.01765413713236" lon="12.06903382734986"><ele>872.0</ele><time>2026-05-03T12:59:17Z</time></trkpt><trkpt lat="46.017777885160186" lon="12.069013886573552"><ele>872.0</ele><time>2026-05-03T12:59:19Z</time></trkpt><trkpt lat="46.0178483658956" lon="12.069005741626714"><ele>870.2</ele><time>2026-05-03T12:59:20Z</time></trkpt><trkpt lat="46.017925491531344" lon="12.068998089013467"><ele>868.4000000000001</ele><time>2026-05-03T12:59:21Z</time></trkpt><trkpt lat="46.01799108876049" lon="12.06896064489407"><ele>866.5999999999999</ele><time>2026-05-03T12:59:22Z</time></trkpt><trkpt lat="46.01805361422473" lon="12.068931756915362"><ele>864.8</ele><time>2026-05-03T12:59:23Z</time></trkpt><trkpt lat="46.01816874260011" lon="12.06888508965663"><ele>863.0</ele><time>2026-05-03T12:59:25Z</time></trkpt><trkpt lat="46.01828334110019" lon="12.068792736683198"><ele>862.0000000000001</ele><time>2026-05-03T12:59:27Z</time></trkpt><trkpt lat="46.018354108197556" lon="12.068732909924988"><ele>861.0</ele><time>2026-05-03T12:59:28Z</time></trkpt><trkpt lat="46.018419554500674" lon="12.068658661826344"><ele>860.0</ele><time>2026-05-03T12:59:29Z</time></trkpt><trkpt lat="46.01849565841563" lon="12.068599260522769"><ele>859.0</ele><time>2026-05-03T12:59:30Z</time></trkpt><trkpt lat="46.01857015267108" lon="12.0685340305989"><ele>858.0000000000001</ele><time>2026-05-03T12:59:31Z</time></trkpt><trkpt lat="46.018644495435744" lon="12.068470887556712"><ele>857.0</ele><time>2026-05-03T12:59:32Z</time></trkpt><trkpt lat="46.0187288746911" lon="12.068417106276335"><ele>857.0</ele><time>2026-05-03T12:59:33Z</time></trkpt><trkpt lat="46.018818541634424" lon="12.068370058659621"><ele>857.0</ele><time>2026-05-03T12:59:34Z</time></trkpt><trkpt lat="46.01890446245931" lon="12.068307828012097"><ele>857.0</ele><time>2026-05-03T12:59:35Z</time></trkpt><trkpt lat="46.01899066387128" lon="12.068233594360978"><ele>857.0</ele><time>2026-05-03T12:59:36Z</time></trkpt><trkpt lat="46.01906919582039" lon="12.068162568921132"><ele>857.0</ele><time>2026-05-03T12:59:37Z</time></trkpt><trkpt lat="46.019149750916434" lon="12.068099539410284"><ele>854.8333333333334</ele><time>2026-05-03T12:59:38Z</time></trkpt><trkpt lat="46.01921666673119" lon="12.068039309692313"><ele>852.6666666666667</ele><time>2026-05-03T12:59:39Z</time></trkpt><trkpt lat="46.01928451468218" lon="12.067975837542994"><ele>850.5</ele><time>2026-05-03T12:59:40Z</time></trkpt><trkpt lat="46.01935945271661" lon="12.0679013005461"><ele>848.3333333333333</ele><time>2026-05-03T12:59:41Z</time></trkpt><trkpt lat="46.01942538758334" lon="12.06782703741268"><ele>846.1666666666666</ele><time>2026-05-03T12:59:42Z</time></trkpt><trkpt lat="46.01949515188631" lon="12.067760907661674"><ele>844.0</ele><time>2026-05-03T12:59:43Z</time></trkpt><trkpt lat="46.01955764238845" lon="12.067696322213246"><ele>844.0</ele><time>2026-05-03T12:59:44Z</time></trkpt><trkpt lat="46.01962079757373" lon="12.067630599548128"><ele>844.0</ele><time>2026-05-03T12:59:45Z</time></trkpt><trkpt lat="46.01967933316902" lon="12.067565107093813"><ele>844.0</ele><time>2026-05-03T12:59:46Z</time></trkpt><trkpt lat="46.01972560120588" lon="12.067497348017248"><ele>844.0</ele><time>2026-05-03T12:59:46.999Z</time></trkpt><trkpt lat="46.01976481743783" lon="12.067415276030799"><ele>844.0</ele><time>2026-05-03T12:59:47.999Z</time></trkpt><trkpt lat="46.01979827908429" lon="12.067321474215227"><ele>844.0</ele><time>2026-05-03T12:59:48.999Z</time></trkpt><trkpt lat="46.01982118866373" lon="12.067222534094512"><ele>844.0</ele><time>2026-05-03T12:59:49.999Z</time></trkpt><trkpt lat="46.01983889633087" lon="12.067128060673438"><ele>841.8333333333333</ele><time>2026-05-03T12:59:50.999Z</time></trkpt><trkpt lat="46.01985897487049" lon="12.067036785561331"><ele>839.6666666666666</ele><time>2026-05-03T12:59:51.999Z</time></trkpt><trkpt lat="46.019856845833786" lon="12.06685551424885"><ele>837.5</ele><time>2026-05-03T12:59:53.999Z</time></trkpt><trkpt lat="46.01982489674544" lon="12.066759693362073"><ele>835.3333333333333</ele><time>2026-05-03T12:59:54.999Z</time></trkpt><trkpt lat="46.019773792937755" lon="12.066666656291462"><ele>833.1666666666666</ele><time>2026-05-03T12:59:55.999Z</time></trkpt><trkpt lat="46.019716915732864" lon="12.066576673285773"><ele>831.0</ele><time>2026-05-03T12:59:56.999Z</time></trkpt><trkpt lat="46.019666457133965" lon="12.066477374102368"><ele>827.0</ele><time>2026-05-03T12:59:57.999Z</time></trkpt><trkpt lat="46.0196228421608" lon="12.066378225199918"><ele>823.0</ele><time>2026-05-03T12:59:58.999Z</time></trkpt><trkpt lat="46.019578900025394" lon="12.066270853418334"><ele>819.0</ele><time>2026-05-03T12:59:59.999Z</time></trkpt><trkpt lat="46.01953008256006" lon="12.066174259442112"><ele>815.0</ele><time>2026-05-03T13:00:00.999Z</time></trkpt><trkpt lat="46.019469548455014" lon="12.066083031781032"><ele>811.0</ele><time>2026-05-03T13:00:01.999Z</time></trkpt><trkpt lat="46.01943446022207" lon="12.065982110596623"><ele>807.0</ele><time>2026-05-03T13:00:02.999Z</time></trkpt><trkpt lat="46.01939606085007" lon="12.065901581017057"><ele>807.0</ele><time>2026-05-03T13:00:03.999Z</time></trkpt><trkpt lat="46.019360588625084" lon="12.06581858855908"><ele>807.0</ele><time>2026-05-03T13:00:04.999Z</time></trkpt><trkpt lat="46.0193321952802" lon="12.065733782198263"><ele>807.0</ele><time>2026-05-03T13:00:05.999Z</time></trkpt><trkpt lat="46.019346233439194" lon="12.065554923567163"><ele>807.0</ele><time>2026-05-03T13:00:07.999Z</time></trkpt><trkpt lat="46.01935605788963" lon="12.065451619335287"><ele>807.0</ele><time>2026-05-03T13:00:08.999Z</time></trkpt><trkpt lat="46.01936623639177" lon="12.065350494096489"><ele>807.0</ele><time>2026-05-03T13:00:09.999Z</time></trkpt><trkpt lat="46.01937998771523" lon="12.065187914282657"><ele>804.1666666666666</ele><time>2026-05-03T13:00:11.999Z</time></trkpt><trkpt lat="46.0194030577398" lon="12.065054467663874"><ele>801.3333333333333</ele><time>2026-05-03T13:00:13.999Z</time></trkpt><trkpt lat="46.01943545091682" lon="12.064913252566553"><ele>798.5</ele><time>2026-05-03T13:00:15.999Z</time></trkpt><trkpt lat="46.019475758328284" lon="12.064808787857812"><ele>795.6666666666666</ele><time>2026-05-03T13:00:17.999Z</time></trkpt><trkpt lat="46.01953895777825" lon="12.064700578593067"><ele>792.8333333333333</ele><time>2026-05-03T13:00:19.999Z</time></trkpt><trkpt lat="46.019582861686665" lon="12.064628996674017"><ele>790.0</ele><time>2026-05-03T13:00:20.999Z</time></trkpt><trkpt lat="46.01962714337858" lon="12.064554254446172"><ele>790.0</ele><time>2026-05-03T13:00:21.999Z</time></trkpt><trkpt lat="46.01967038808264" lon="12.064468490006545"><ele>790.0</ele><time>2026-05-03T13:00:22.999Z</time></trkpt><trkpt lat="46.019739752019426" lon="12.064342017181028"><ele>790.0</ele><time>2026-05-03T13:00:24.999Z</time></trkpt><trkpt lat="46.01982601282403" lon="12.064267764126809"><ele>790.0</ele><time>2026-05-03T13:00:26.999Z</time></trkpt><trkpt lat="46.01993371786053" lon="12.064254274792043"><ele>790.0</ele><time>2026-05-03T13:00:28.999Z</time></trkpt><trkpt lat="46.020056678265234" lon="12.06429257514737"><ele>789.9999999999999</ele><time>2026-05-03T13:00:30.999Z</time></trkpt><trkpt lat="46.020124139906244" lon="12.064311579982515"><ele>790.0</ele><time>2026-05-03T13:00:31.999Z</time></trkpt><trkpt lat="46.02019114262161" lon="12.064331321166874"><ele>790.0</ele><time>2026-05-03T13:00:32.999Z</time></trkpt><trkpt lat="46.02025669584772" lon="12.064352577655717"><ele>790.0</ele><time>2026-05-03T13:00:33.999Z</time></trkpt><trkpt lat="46.0203761796439" lon="12.064390888396716"><ele>789.9999999999999</ele><time>2026-05-03T13:00:35.999Z</time></trkpt><trkpt lat="46.02048624227636" lon="12.064424553198972"><ele>790.0</ele><time>2026-05-03T13:00:37.999Z</time></trkpt><trkpt lat="46.0205926553069" lon="12.064451288243182"><ele>789.9999999999999</ele><time>2026-05-03T13:00:39.999Z</time></trkpt><trkpt lat="46.02072078518997" lon="12.06447937959289"><ele>790.0</ele><time>2026-05-03T13:00:41.999Z</time></trkpt><trkpt lat="46.020790757869705" lon="12.064492931221992"><ele>790.0</ele><time>2026-05-03T13:00:42.999Z</time></trkpt><trkpt lat="46.020868585753455" lon="12.064506505864953"><ele>790.0</ele><time>2026-05-03T13:00:43.999Z</time></trkpt><trkpt lat="46.02095552467723" lon="12.064514028747741"><ele>789.9999999999999</ele><time>2026-05-03T13:00:44.999Z</time></trkpt><trkpt lat="46.02102941103164" lon="12.064523429921824"><ele>790.0</ele><time>2026-05-03T13:00:45.999Z</time></trkpt><trkpt lat="46.02109426677526" lon="12.064535019191698"><ele>789.2857142857142</ele><time>2026-05-03T13:00:46.999Z</time></trkpt><trkpt lat="46.02116414019575" lon="12.064538119527509"><ele>788.5714285714287</ele><time>2026-05-03T13:00:47.999Z</time></trkpt><trkpt lat="46.0212354960023" lon="12.064535021211432"><ele>787.8571428571429</ele><time>2026-05-03T13:00:48.999Z</time></trkpt><trkpt lat="46.02130837982746" lon="12.064530421124763"><ele>787.1428571428571</ele><time>2026-05-03T13:00:49.999Z</time></trkpt><trkpt lat="46.02138532621146" lon="12.064529208746468"><ele>786.4285714285713</ele><time>2026-05-03T13:00:50.999Z</time></trkpt><trkpt lat="46.02145829080423" lon="12.064535906450082"><ele>785.7142857142858</ele><time>2026-05-03T13:00:51.999Z</time></trkpt><trkpt lat="46.02154223065473" lon="12.064533908350784"><ele>785.0</ele><time>2026-05-03T13:00:52.999Z</time></trkpt><trkpt lat="46.02162391605969" lon="12.064531047208458"><ele>782.6666666666667</ele><time>2026-05-03T13:00:53.999Z</time></trkpt><trkpt lat="46.021705045326236" lon="12.06451281758766"><ele>780.3333333333334</ele><time>2026-05-03T13:00:54.999Z</time></trkpt><trkpt lat="46.021786816491755" lon="12.064484738585081"><ele>778.0</ele><time>2026-05-03T13:00:55.999Z</time></trkpt><trkpt lat="46.0218585551088" lon="12.064447625458028"><ele>775.6666666666667</ele><time>2026-05-03T13:00:56.999Z</time></trkpt><trkpt lat="46.02192667640735" lon="12.064396651972945"><ele>773.3333333333334</ele><time>2026-05-03T13:00:57.999Z</time></trkpt><trkpt lat="46.02198272329657" lon="12.064330013495075"><ele>771.0</ele><time>2026-05-03T13:00:58.999Z</time></trkpt><trkpt lat="46.02203683508998" lon="12.064250080331096"><ele>771.0</ele><time>2026-05-03T13:00:59.999Z</time></trkpt><trkpt lat="46.02208011506155" lon="12.064167841122496"><ele>771.0</ele><time>2026-05-03T13:01:00.999Z</time></trkpt><trkpt lat="46.02211158257104" lon="12.064057683161902"><ele>771.0</ele><time>2026-05-03T13:01:01.999Z</time></trkpt><trkpt lat="46.022139519465455" lon="12.06394137922644"><ele>771.0</ele><time>2026-05-03T13:01:02.999Z</time></trkpt><trkpt lat="46.02215331704681" lon="12.063827800505775"><ele>771.0</ele><time>2026-05-03T13:01:03.999Z</time></trkpt><trkpt lat="46.02215345849347" lon="12.063699271494949"><ele>771.0</ele><time>2026-05-03T13:01:04.999Z</time></trkpt><trkpt lat="46.02215868232236" lon="12.06358227207569"><ele>769.6666666666666</ele><time>2026-05-03T13:01:05.999Z</time></trkpt><trkpt lat="46.02216270316401" lon="12.063466871567213"><ele>768.3333333333334</ele><time>2026-05-03T13:01:06.999Z</time></trkpt><trkpt lat="46.02216441496358" lon="12.063355692761753"><ele>767.0</ele><time>2026-05-03T13:01:07.999Z</time></trkpt><trkpt lat="46.022170412861" lon="12.063245673670515"><ele>765.6666666666667</ele><time>2026-05-03T13:01:08.999Z</time></trkpt><trkpt lat="46.02216790540901" lon="12.06313028238524"><ele>764.3333333333334</ele><time>2026-05-03T13:01:09.999Z</time></trkpt><trkpt lat="46.022162246210364" lon="12.063008363464492"><ele>763.0</ele><time>2026-05-03T13:01:10.999Z</time></trkpt><trkpt lat="46.022157286078034" lon="12.062888704718587"><ele>761.3333333333334</ele><time>2026-05-03T13:01:11.999Z</time></trkpt><trkpt lat="46.022151518833525" lon="12.06277359725973"><ele>759.6666666666667</ele><time>2026-05-03T13:01:12.999Z</time></trkpt><trkpt lat="46.02213553382272" lon="12.062666201167689"><ele>758.0</ele><time>2026-05-03T13:01:13.999Z</time></trkpt><trkpt lat="46.02210895396222" lon="12.062563075278062"><ele>756.3333333333334</ele><time>2026-05-03T13:01:14.999Z</time></trkpt><trkpt lat="46.02207259606785" lon="12.062476748966557"><ele>754.6666666666666</ele><time>2026-05-03T13:01:15.999Z</time></trkpt><trkpt lat="46.022031173674385" lon="12.062391707287446"><ele>753.0</ele><time>2026-05-03T13:01:16.999Z</time></trkpt><trkpt lat="46.021992013447104" lon="12.062242392202666"><ele>750.0</ele><time>2026-05-03T13:01:18.999Z</time></trkpt><trkpt lat="46.022007467405246" lon="12.062110970538878"><ele>747.0</ele><time>2026-05-03T13:01:20.999Z</time></trkpt><trkpt lat="46.02202101299296" lon="12.061937251573626"><ele>744.0</ele><time>2026-05-03T13:01:22.999Z</time></trkpt><trkpt lat="46.021986289641106" lon="12.061847835131843"><ele>741.0</ele><time>2026-05-03T13:01:23.999Z</time></trkpt><trkpt lat="46.02196518196252" lon="12.061654708301882"><ele>738.0</ele><time>2026-05-03T13:01:25.999Z</time></trkpt><trkpt lat="46.02197295936031" lon="12.061563011732227"><ele>730.75</ele><time>2026-05-03T13:01:26.999Z</time></trkpt><trkpt lat="46.021993927384095" lon="12.061404883652255"><ele>723.5</ele><time>2026-05-03T13:01:28.999Z</time></trkpt><trkpt lat="46.02207250891738" lon="12.061290032106909"><ele>716.25</ele><time>2026-05-03T13:01:30.999Z</time></trkpt><trkpt lat="46.02218471900647" lon="12.06123172041398"><ele>709.0</ele><time>2026-05-03T13:01:32.999Z</time></trkpt><trkpt lat="46.02229917645471" lon="12.061175790247413"><ele>709.0</ele><time>2026-05-03T13:01:34.999Z</time></trkpt><trkpt lat="46.02241754346685" lon="12.061150750061131"><ele>709.0</ele><time>2026-05-03T13:01:36.999Z</time></trkpt><trkpt lat="46.02254200643638" lon="12.061095647231646"><ele>709.0</ele><time>2026-05-03T13:01:38.999Z</time></trkpt><trkpt lat="46.022606900369865" lon="12.061074843235058"><ele>709.0</ele><time>2026-05-03T13:01:39.999Z</time></trkpt><trkpt lat="46.022677597725036" lon="12.061054589555699"><ele>709.0</ele><time>2026-05-03T13:01:40.999Z</time></trkpt><trkpt lat="46.0227586379669" lon="12.06104998282949"><ele>709.3333333333334</ele><time>2026-05-03T13:01:41.999Z</time></trkpt><trkpt lat="46.02283844857327" lon="12.061015047483345"><ele>709.6666666666667</ele><time>2026-05-03T13:01:42.999Z</time></trkpt><trkpt lat="46.022920081898555" lon="12.061050379763143"><ele>710.0</ele><time>2026-05-03T13:01:43.999Z</time></trkpt><trkpt lat="46.023002765418795" lon="12.061049600082733"><ele>710.3333333333334</ele><time>2026-05-03T13:01:44.999Z</time></trkpt><trkpt lat="46.02308310542643" lon="12.061076356278544"><ele>710.6666666666666</ele><time>2026-05-03T13:01:45.999Z</time></trkpt><trkpt lat="46.023164668894296" lon="12.061099446096387"><ele>711.0</ele><time>2026-05-03T13:01:46.999Z</time></trkpt><trkpt lat="46.02324988092227" lon="12.061115850325196"><ele>709.6666666666666</ele><time>2026-05-03T13:01:47.999Z</time></trkpt><trkpt lat="46.02333084501077" lon="12.06112763362322"><ele>708.3333333333334</ele><time>2026-05-03T13:01:48.999Z</time></trkpt><trkpt lat="46.023405644116444" lon="12.061151134977667"><ele>707.0</ele><time>2026-05-03T13:01:49.999Z</time></trkpt><trkpt lat="46.02348498824477" lon="12.061181470654642"><ele>705.6666666666667</ele><time>2026-05-03T13:01:50.999Z</time></trkpt><trkpt lat="46.02356223799789" lon="12.061220124033467"><ele>704.3333333333334</ele><time>2026-05-03T13:01:51.999Z</time></trkpt><trkpt lat="46.02363245579427" lon="12.061244775661317"><ele>703.0</ele><time>2026-05-03T13:01:52.999Z</time></trkpt><trkpt lat="46.0236967974027" lon="12.061270248775948"><ele>703.0</ele><time>2026-05-03T13:01:53.999Z</time></trkpt><trkpt lat="46.02380283997491" lon="12.06132743933298"><ele>703.0</ele><time>2026-05-03T13:01:55.999Z</time></trkpt><trkpt lat="46.023903425374776" lon="12.061364805685441"><ele>703.0</ele><time>2026-05-03T13:01:57.999Z</time></trkpt><trkpt lat="46.02401912313209" lon="12.061398730066319"><ele>703.0</ele><time>2026-05-03T13:01:59.999Z</time></trkpt><trkpt lat="46.02408318445034" lon="12.061415366701741"><ele>703.0</ele><time>2026-05-03T13:02:00.999Z</time></trkpt><trkpt lat="46.02416106369738" lon="12.061435365341428"><ele>700.8333333333334</ele><time>2026-05-03T13:02:01.999Z</time></trkpt><trkpt lat="46.02429108254955" lon="12.061465433165367"><ele>698.6666666666667</ele><time>2026-05-03T13:02:03.999Z</time></trkpt><trkpt lat="46.02436201491513" lon="12.061477814248052"><ele>696.5</ele><time>2026-05-03T13:02:04.999Z</time></trkpt><trkpt lat="46.02444111616182" lon="12.06148556369891"><ele>694.3333333333334</ele><time>2026-05-03T13:02:05.999Z</time></trkpt><trkpt lat="46.024520929872864" lon="12.061486879482876"><ele>692.1666666666666</ele><time>2026-05-03T13:02:06.999Z</time></trkpt><trkpt lat="46.024598982158366" lon="12.061485934957352"><ele>690.0</ele><time>2026-05-03T13:02:07.999Z</time></trkpt><trkpt lat="46.024668408183" lon="12.061499621178607"><ele>690.0</ele><time>2026-05-03T13:02:08.999Z</time></trkpt><trkpt lat="46.0247823410717" lon="12.06148917383314"><ele>690.0</ele><time>2026-05-03T13:02:10.999Z</time></trkpt><trkpt lat="46.024849980705326" lon="12.061485931672527"><ele>690.0</ele><time>2026-05-03T13:02:11.999Z</time></trkpt><trkpt lat="46.02491624986787" lon="12.061465185520687"><ele>690.0</ele><time>2026-05-03T13:02:12.999Z</time></trkpt><trkpt lat="46.02497461530234" lon="12.061423028630093"><ele>690.0</ele><time>2026-05-03T13:02:13.999Z</time></trkpt><trkpt lat="46.025052390557384" lon="12.061323787358265"><ele>690.0</ele><time>2026-05-03T13:02:15.999Z</time></trkpt><trkpt lat="46.02510076557261" lon="12.061265531302588"><ele>687.3333333333334</ele><time>2026-05-03T13:02:16.999Z</time></trkpt><trkpt lat="46.025166007412444" lon="12.061242394804346"><ele>684.6666666666666</ele><time>2026-05-03T13:02:17.999Z</time></trkpt><trkpt lat="46.02523086432822" lon="12.061233255794106"><ele>682.0</ele><time>2026-05-03T13:02:18.999Z</time></trkpt><trkpt lat="46.02534194075732" lon="12.061324412877008"><ele>679.3333333333333</ele><time>2026-05-03T13:02:20.999Z</time></trkpt><trkpt lat="46.02540132267305" lon="12.061363348224754"><ele>676.6666666666666</ele><time>2026-05-03T13:02:21.999Z</time></trkpt><trkpt lat="46.02545687187901" lon="12.061409935284017"><ele>674.0</ele><time>2026-05-03T13:02:22.999Z</time></trkpt><trkpt lat="46.02551029664444" lon="12.06146357968965"><ele>674.0</ele><time>2026-05-03T13:02:23.999Z</time></trkpt><trkpt lat="46.025563309229184" lon="12.061521877671893"><ele>674.0</ele><time>2026-05-03T13:02:24.999Z</time></trkpt><trkpt lat="46.02561935982519" lon="12.061601734044627"><ele>674.0</ele><time>2026-05-03T13:02:25.999Z</time></trkpt><trkpt lat="46.02567217765935" lon="12.061674335090764"><ele>674.0</ele><time>2026-05-03T13:02:26.999Z</time></trkpt><trkpt lat="46.025750732712424" lon="12.061781746711846"><ele>674.0</ele><time>2026-05-03T13:02:28.999Z</time></trkpt><trkpt lat="46.02581652765971" lon="12.061861014354228"><ele>674.0</ele><time>2026-05-03T13:02:30.999Z</time></trkpt><trkpt lat="46.025933527585195" lon="12.06183183697734"><ele>672.1666666666666</ele><time>2026-05-03T13:02:32.999Z</time></trkpt><trkpt lat="46.02601540439853" lon="12.061724392950138"><ele>670.3333333333333</ele><time>2026-05-03T13:02:34.999Z</time></trkpt><trkpt lat="46.026081383504966" lon="12.061602018054613"><ele>668.5</ele><time>2026-05-03T13:02:36.999Z</time></trkpt><trkpt lat="46.02614311154941" lon="12.061552858718837"><ele>666.6666666666666</ele><time>2026-05-03T13:02:37.999Z</time></trkpt><trkpt lat="46.02619263487705" lon="12.061491479547096"><ele>664.8333333333334</ele><time>2026-05-03T13:02:38.999Z</time></trkpt><trkpt lat="46.02624518777251" lon="12.061426117035515"><ele>663.0</ele><time>2026-05-03T13:02:39.999Z</time></trkpt><trkpt lat="46.026295143176945" lon="12.061363018912774"><ele>662.8571428571428</ele><time>2026-05-03T13:02:40.999Z</time></trkpt><trkpt lat="46.02634225290462" lon="12.061282410910275"><ele>662.7142857142857</ele><time>2026-05-03T13:02:41.999Z</time></trkpt><trkpt lat="46.02639375746505" lon="12.06121687227792"><ele>662.5714285714286</ele><time>2026-05-03T13:02:42.999Z</time></trkpt><trkpt lat="46.02643928422893" lon="12.06114414777017"><ele>662.4285714285713</ele><time>2026-05-03T13:02:43.999Z</time></trkpt><trkpt lat="46.0264815344588" lon="12.061075069918237"><ele>662.2857142857142</ele><time>2026-05-03T13:02:44.999Z</time></trkpt><trkpt lat="46.02652047665575" lon="12.06100137710375"><ele>662.1428571428571</ele><time>2026-05-03T13:02:45.999Z</time></trkpt><trkpt lat="46.02656819126248" lon="12.060936516157923"><ele>662.0</ele><time>2026-05-03T13:02:46.999Z</time></trkpt><trkpt lat="46.026656362453494" lon="12.06081875170017"><ele>655.5</ele><time>2026-05-03T13:02:48.999Z</time></trkpt><trkpt lat="46.02673633727157" lon="12.06069773685033"><ele>649.0</ele><time>2026-05-03T13:02:50.999Z</time></trkpt><trkpt lat="46.026814023258616" lon="12.060577174479544"><ele>642.5</ele><time>2026-05-03T13:02:52.999Z</time></trkpt><trkpt lat="46.02689243429252" lon="12.060440983560122"><ele>636.0</ele><time>2026-05-03T13:02:54.999Z</time></trkpt><trkpt lat="46.02697472969644" lon="12.060315901912146"><ele>636.0</ele><time>2026-05-03T13:02:56.999Z</time></trkpt><trkpt lat="46.027054216662265" lon="12.060252701054162"><ele>636.0</ele><time>2026-05-03T13:02:58.999Z</time></trkpt><trkpt lat="46.0271614841576" lon="12.06021792709694"><ele>636.0</ele><time>2026-05-03T13:03:00.999Z</time></trkpt><trkpt lat="46.027257575855224" lon="12.060206077673016"><ele>636.0</ele><time>2026-05-03T13:03:03Z</time></trkpt><trkpt lat="46.02737221292931" lon="12.060213868492692"><ele>636.0</ele><time>2026-05-03T13:03:05Z</time></trkpt><trkpt lat="46.02746883770737" lon="12.060220082997835"><ele>632.4</ele><time>2026-05-03T13:03:07Z</time></trkpt><trkpt lat="46.027543452154426" lon="12.060262687529491"><ele>628.8</ele><time>2026-05-03T13:03:08.999Z</time></trkpt><trkpt lat="46.027627675764634" lon="12.060338976279334"><ele>625.1999999999999</ele><time>2026-05-03T13:03:10.999Z</time></trkpt><trkpt lat="46.02772872813333" lon="12.060423955127021"><ele>621.6</ele><time>2026-05-03T13:03:12.999Z</time></trkpt><trkpt lat="46.02782700286181" lon="12.060503088141859"><ele>618.0</ele><time>2026-05-03T13:03:14.999Z</time></trkpt><trkpt lat="46.02793935276164" lon="12.060564114041476"><ele>618.0</ele><time>2026-05-03T13:03:16.999Z</time></trkpt><trkpt lat="46.02800887248271" lon="12.060564703221901"><ele>618.0</ele><time>2026-05-03T13:03:17.999Z</time></trkpt><trkpt lat="46.02812778190786" lon="12.06051221506957"><ele>618.0</ele><time>2026-05-03T13:03:19.999Z</time></trkpt><trkpt lat="46.028182830529566" lon="12.060461920202888"><ele>618.0</ele><time>2026-05-03T13:03:20.999Z</time></trkpt><trkpt lat="46.028251813707875" lon="12.06044165838644"><ele>618.0</ele><time>2026-05-03T13:03:21.999Z</time></trkpt><trkpt lat="46.02832114687485" lon="12.060419260555255"><ele>618.0</ele><time>2026-05-03T13:03:22.999Z</time></trkpt><trkpt lat="46.02837794203503" lon="12.060367613707962"><ele>616.1428571428572</ele><time>2026-05-03T13:03:23.999Z</time></trkpt><trkpt lat="46.0284442451306" lon="12.060347817164795"><ele>614.2857142857143</ele><time>2026-05-03T13:03:24.999Z</time></trkpt><trkpt lat="46.028506273085256" lon="12.06030226307368"><ele>612.4285714285714</ele><time>2026-05-03T13:03:25.999Z</time></trkpt><trkpt lat="46.028571747921106" lon="12.060233106729905"><ele>610.5714285714287</ele><time>2026-05-03T13:03:26.999Z</time></trkpt><trkpt lat="46.0286231948614" lon="12.060147082735696"><ele>608.7142857142858</ele><time>2026-05-03T13:03:27.999Z</time></trkpt><trkpt lat="46.02865026411737" lon="12.06005168809007"><ele>606.8571428571429</ele><time>2026-05-03T13:03:28.999Z</time></trkpt><trkpt lat="46.028694493886846" lon="12.059970736518123"><ele>605.0</ele><time>2026-05-03T13:03:29.999Z</time></trkpt><trkpt lat="46.028723439531745" lon="12.059889051171332"><ele>604.4</ele><time>2026-05-03T13:03:30.999Z</time></trkpt><trkpt lat="46.028770102930295" lon="12.059729081508848"><ele>603.8</ele><time>2026-05-03T13:03:32.999Z</time></trkpt><trkpt lat="46.02878965174478" lon="12.059541161950062"><ele>603.2</ele><time>2026-05-03T13:03:34.999Z</time></trkpt><trkpt lat="46.028815150107405" lon="12.059455013300212"><ele>602.6</ele><time>2026-05-03T13:03:35.999Z</time></trkpt><trkpt lat="46.02880885934074" lon="12.059361847498076"><ele>602.0</ele><time>2026-05-03T13:03:36.999Z</time></trkpt><trkpt lat="46.02881632882746" lon="12.059200340481933"><ele>601.0</ele><time>2026-05-03T13:03:39Z</time></trkpt><trkpt lat="46.028802707725646" lon="12.059088274412044"><ele>600.0</ele><time>2026-05-03T13:05:17.999Z</time></trkpt><trkpt lat="46.02874706189405" lon="12.058896018334568"><ele>599.0</ele><time>2026-05-03T13:05:19.999Z</time></trkpt><trkpt lat="46.02870286826017" lon="12.05879205843703"><ele>598.0</ele><time>2026-05-03T13:05:20.999Z</time></trkpt><trkpt lat="46.02866201946737" lon="12.058676395549236"><ele>597.0</ele><time>2026-05-03T13:05:21.999Z</time></trkpt><trkpt lat="46.02863460468192" lon="12.058526474781686"><ele>597.0</ele><time>2026-05-03T13:05:22.999Z</time></trkpt><trkpt lat="46.02860723463027" lon="12.0584128475704"><ele>597.0</ele><time>2026-05-03T13:05:23.999Z</time></trkpt><trkpt lat="46.02859463472349" lon="12.058317687678137"><ele>597.0</ele><time>2026-05-03T13:05:24.999Z</time></trkpt><trkpt lat="46.02858551069655" lon="12.058218879073424"><ele>597.0</ele><time>2026-05-03T13:05:25.999Z</time></trkpt><trkpt lat="46.028580557536706" lon="12.058099289220662"><ele>597.0</ele><time>2026-05-03T13:05:26.999Z</time></trkpt><trkpt lat="46.028572746524354" lon="12.057974202302736"><ele>597.0</ele><time>2026-05-03T13:05:27.999Z</time></trkpt><trkpt lat="46.028543803303485" lon="12.057848808703657"><ele>596.0</ele><time>2026-05-03T13:05:28.999Z</time></trkpt><trkpt lat="46.028543399955986" lon="12.057703918392834"><ele>595.0</ele><time>2026-05-03T13:05:29.999Z</time></trkpt><trkpt lat="46.028525743000785" lon="12.057547600075702"><ele>594.0</ele><time>2026-05-03T13:05:30.999Z</time></trkpt><trkpt lat="46.028512931568976" lon="12.057421306498531"><ele>593.0</ele><time>2026-05-03T13:05:31.999Z</time></trkpt><trkpt lat="46.02850503313559" lon="12.0573161327519"><ele>592.0</ele><time>2026-05-03T13:05:32.999Z</time></trkpt><trkpt lat="46.028482607317216" lon="12.0572301660071"><ele>591.0</ele><time>2026-05-03T13:05:33.999Z</time></trkpt><trkpt lat="46.028469398677764" lon="12.057075357384383"><ele>588.4</ele><time>2026-05-03T13:05:35.999Z</time></trkpt><trkpt lat="46.02842425703491" lon="12.056931026216702"><ele>585.8</ele><time>2026-05-03T13:05:38Z</time></trkpt><trkpt lat="46.0284687807247" lon="12.056818450716603"><ele>583.1999999999999</ele><time>2026-05-03T13:05:40Z</time></trkpt><trkpt lat="46.028538430575864" lon="12.056768071509909"><ele>580.6</ele><time>2026-05-03T13:05:42Z</time></trkpt><trkpt lat="46.028610912667695" lon="12.056763935242309"><ele>578.0</ele><time>2026-05-03T13:05:44Z</time></trkpt><trkpt lat="46.02867311966144" lon="12.056954235765193"><ele>578.0</ele><time>2026-05-03T13:05:45Z</time></trkpt><trkpt lat="46.02872540858178" lon="12.057028427457212"><ele>578.0</ele><time>2026-05-03T13:05:46Z</time></trkpt><trkpt lat="46.02877464290729" lon="12.057108648195282"><ele>578.0</ele><time>2026-05-03T13:05:47Z</time></trkpt><trkpt lat="46.02882779866464" lon="12.05720099168755"><ele>578.0</ele><time>2026-05-03T13:05:48Z</time></trkpt><trkpt lat="46.028886685333006" lon="12.05730455081126"><ele>578.0</ele><time>2026-05-03T13:05:49Z</time></trkpt><trkpt lat="46.02894715687931" lon="12.0574184952691"><ele>578.0</ele><time>2026-05-03T13:05:50Z</time></trkpt><trkpt lat="46.029008268530326" lon="12.057521418459105"><ele>577.1999999999999</ele><time>2026-05-03T13:05:51Z</time></trkpt><trkpt lat="46.02904321370028" lon="12.05764284930788"><ele>576.4</ele><time>2026-05-03T13:05:52Z</time></trkpt><trkpt lat="46.02910426833902" lon="12.057741592406545"><ele>575.5999999999999</ele><time>2026-05-03T13:05:53Z</time></trkpt><trkpt lat="46.029145172029764" lon="12.057865399167508"><ele>574.8</ele><time>2026-05-03T13:05:54Z</time></trkpt><trkpt lat="46.02918206721572" lon="12.05799309924998"><ele>574.0</ele><time>2026-05-03T13:05:55Z</time></trkpt><trkpt lat="46.02920997896161" lon="12.058112284207946"><ele>574.0</ele><time>2026-05-03T13:05:56Z</time></trkpt><trkpt lat="46.02923671592814" lon="12.058237608674737"><ele>574.0</ele><time>2026-05-03T13:05:57Z</time></trkpt><trkpt lat="46.029270999670935" lon="12.05836896397728"><ele>574.0</ele><time>2026-05-03T13:05:58Z</time></trkpt><trkpt lat="46.02929937121051" lon="12.058483565110889"><ele>574.0</ele><time>2026-05-03T13:05:59Z</time></trkpt><trkpt lat="46.029330241454176" lon="12.058605288103346"><ele>574.0</ele><time>2026-05-03T13:06:00Z</time></trkpt><trkpt lat="46.029378981058265" lon="12.058716595096982"><ele>574.8</ele><time>2026-05-03T13:06:01Z</time></trkpt><trkpt lat="46.02943483859074" lon="12.058824774898962"><ele>575.5999999999999</ele><time>2026-05-03T13:06:02Z</time></trkpt><trkpt lat="46.02949861151223" lon="12.05894036495833"><ele>576.4</ele><time>2026-05-03T13:06:03Z</time></trkpt><trkpt lat="46.029556818765776" lon="12.059061434447164"><ele>577.1999999999999</ele><time>2026-05-03T13:06:04Z</time></trkpt><trkpt lat="46.02961980724505" lon="12.059182254361344"><ele>578.0</ele><time>2026-05-03T13:06:05Z</time></trkpt><trkpt lat="46.02967961554799" lon="12.059313772632505"><ele>579.0</ele><time>2026-05-03T13:06:06Z</time></trkpt><trkpt lat="46.02975237382525" lon="12.059437603578832"><ele>580.0</ele><time>2026-05-03T13:06:07Z</time></trkpt><trkpt lat="46.029824670753506" lon="12.059560659068948"><ele>581.0</ele><time>2026-05-03T13:06:08Z</time></trkpt><trkpt lat="46.029899339218424" lon="12.059690142544538"><ele>582.0</ele><time>2026-05-03T13:06:09Z</time></trkpt><trkpt lat="46.029974404277546" lon="12.059824400879489"><ele>576.25</ele><time>2026-05-03T13:06:10Z</time></trkpt><trkpt lat="46.030047547686706" lon="12.05995036212592"><ele>570.5</ele><time>2026-05-03T13:06:11Z</time></trkpt><trkpt lat="46.030131290300844" lon="12.060061849793101"><ele>564.75</ele><time>2026-05-03T13:06:12Z</time></trkpt><trkpt lat="46.030220489803575" lon="12.060170736650635"><ele>559.0</ele><time>2026-05-03T13:06:13Z</time></trkpt><trkpt lat="46.030308038502646" lon="12.060280574211204"><ele>559.0</ele><time>2026-05-03T13:06:14Z</time></trkpt><trkpt lat="46.030394583866" lon="12.060384684439432"><ele>559.0</ele><time>2026-05-03T13:06:15Z</time></trkpt><trkpt lat="46.030474097260466" lon="12.0604939353178"><ele>559.0</ele><time>2026-05-03T13:06:16Z</time></trkpt><trkpt lat="46.030550957872975" lon="12.060601029256866"><ele>559.0</ele><time>2026-05-03T13:06:17Z</time></trkpt><trkpt lat="46.030624186850325" lon="12.060728563466789"><ele>559.0</ele><time>2026-05-03T13:06:18Z</time></trkpt><trkpt lat="46.03070359649269" lon="12.060846930557654"><ele>559.25</ele><time>2026-05-03T13:06:19Z</time></trkpt><trkpt lat="46.03078983210011" lon="12.060983542263926"><ele>559.5</ele><time>2026-05-03T13:06:20Z</time></trkpt><trkpt lat="46.030879155530535" lon="12.06111544922619"><ele>559.75</ele><time>2026-05-03T13:06:21Z</time></trkpt><trkpt lat="46.03099016441572" lon="12.06124881285406"><ele>560.0</ele><time>2026-05-03T13:06:22Z</time></trkpt><trkpt lat="46.03108617695398" lon="12.061365846674017"><ele>557.0</ele><time>2026-05-03T13:06:23Z</time></trkpt><trkpt lat="46.031181791765505" lon="12.061469615071903"><ele>554.0</ele><time>2026-05-03T13:06:24Z</time></trkpt><trkpt lat="46.03127138189289" lon="12.0615642417489"><ele>551.0</ele><time>2026-05-03T13:06:25Z</time></trkpt><trkpt lat="46.03136310271464" lon="12.061627704460406"><ele>548.0</ele><time>2026-05-03T13:06:26Z</time></trkpt><trkpt lat="46.031459391484574" lon="12.061652936142474"><ele>545.0</ele><time>2026-05-03T13:06:27Z</time></trkpt><trkpt lat="46.03154848689037" lon="12.061631570384105"><ele>544.6</ele><time>2026-05-03T13:06:28Z</time></trkpt><trkpt lat="46.03161905437647" lon="12.061585371597637"><ele>544.2</ele><time>2026-05-03T13:06:29Z</time></trkpt><trkpt lat="46.03172158836646" lon="12.06145635073921"><ele>543.8</ele><time>2026-05-03T13:06:31Z</time></trkpt><trkpt lat="46.03179490680111" lon="12.061397027270608"><ele>543.4</ele><time>2026-05-03T13:06:32Z</time></trkpt><trkpt lat="46.03188991573102" lon="12.061361821780826"><ele>543.0</ele><time>2026-05-03T13:06:33Z</time></trkpt><trkpt lat="46.03199947305396" lon="12.061378180617982"><ele>542.4</ele><time>2026-05-03T13:06:34Z</time></trkpt><trkpt lat="46.032110433686825" lon="12.061356512112289"><ele>541.8</ele><time>2026-05-03T13:06:35Z</time></trkpt><trkpt lat="46.03222267481596" lon="12.061392987482314"><ele>541.2</ele><time>2026-05-03T13:06:36Z</time></trkpt><trkpt lat="46.032331223926676" lon="12.06142880331456"><ele>540.6</ele><time>2026-05-03T13:06:37Z</time></trkpt><trkpt lat="46.03243540182564" lon="12.061467716973892"><ele>540.0</ele><time>2026-05-03T13:06:38Z</time></trkpt><trkpt lat="46.032533650067826" lon="12.061504954399874"><ele>540.0</ele><time>2026-05-03T13:06:39Z</time></trkpt><trkpt lat="46.03263540267759" lon="12.061536294309924"><ele>540.0</ele><time>2026-05-03T13:06:40Z</time></trkpt><trkpt lat="46.032745396941515" lon="12.06158102275585"><ele>540.0</ele><time>2026-05-03T13:06:41Z</time></trkpt><trkpt lat="46.0328646770299" lon="12.061626926065385"><ele>540.0</ele><time>2026-05-03T13:06:42Z</time></trkpt><trkpt lat="46.03298661594159" lon="12.061667646462404"><ele>538.75</ele><time>2026-05-03T13:06:43Z</time></trkpt><trkpt lat="46.033103938490285" lon="12.061713776932981"><ele>537.5</ele><time>2026-05-03T13:06:44Z</time></trkpt><trkpt lat="46.03321620016658" lon="12.061751498481703"><ele>536.25</ele><time>2026-05-03T13:06:45Z</time></trkpt><trkpt lat="46.033330741860034" lon="12.061788927480215"><ele>535.0</ele><time>2026-05-03T13:06:46Z</time></trkpt><trkpt lat="46.03344867096555" lon="12.061831528776349"><ele>534.6</ele><time>2026-05-03T13:06:47Z</time></trkpt><trkpt lat="46.03355843472286" lon="12.061879223156664"><ele>534.2</ele><time>2026-05-03T13:06:48Z</time></trkpt><trkpt lat="46.03365613215433" lon="12.06192420927623"><ele>533.8</ele><time>2026-05-03T13:06:49Z</time></trkpt><trkpt lat="46.033745204310826" lon="12.061980338945736"><ele>533.4</ele><time>2026-05-03T13:06:50Z</time></trkpt><trkpt lat="46.03381860172197" lon="12.062074026401023"><ele>533.0</ele><time>2026-05-03T13:06:51Z</time></trkpt><trkpt lat="46.03389732516145" lon="12.062143003099967"><ele>533.0</ele><time>2026-05-03T13:06:52Z</time></trkpt><trkpt lat="46.033979874472855" lon="12.062187009960281"><ele>533.0</ele><time>2026-05-03T13:06:53Z</time></trkpt><trkpt lat="46.034047269189564" lon="12.062237938886547"><ele>533.0</ele><time>2026-05-03T13:06:54Z</time></trkpt><trkpt lat="46.034114613177735" lon="12.062251994821963"><ele>533.0</ele><time>2026-05-03T13:06:55Z</time></trkpt><trkpt lat="46.03418900510027" lon="12.062234480096214"><ele>533.0</ele><time>2026-05-03T13:06:56Z</time></trkpt><trkpt lat="46.03426513933935" lon="12.06219404708821"><ele>533.0</ele><time>2026-05-03T13:06:57Z</time></trkpt><trkpt lat="46.03433460232167" lon="12.062159924377362"><ele>531.7142857142857</ele><time>2026-05-03T13:06:58Z</time></trkpt><trkpt lat="46.034408491703104" lon="12.062155558647204"><ele>530.4285714285713</ele><time>2026-05-03T13:06:59Z</time></trkpt><trkpt lat="46.03446907877113" lon="12.062130623649299"><ele>529.1428571428571</ele><time>2026-05-03T13:07:00Z</time></trkpt><trkpt lat="46.0345339787712" lon="12.062098611093871"><ele>527.8571428571429</ele><time>2026-05-03T13:07:01Z</time></trkpt><trkpt lat="46.03460391102535" lon="12.062051160097248"><ele>526.5714285714287</ele><time>2026-05-03T13:07:02Z</time></trkpt><trkpt lat="46.03467514018005" lon="12.06199502378215"><ele>525.2857142857143</ele><time>2026-05-03T13:07:03Z</time></trkpt><trkpt lat="46.034727310104856" lon="12.061909483483978"><ele>524.0</ele><time>2026-05-03T13:07:04Z</time></trkpt><trkpt lat="46.03477932603276" lon="12.061821683267477"><ele>524.0</ele><time>2026-05-03T13:07:05Z</time></trkpt><trkpt lat="46.03481795965185" lon="12.061715282840257"><ele>524.0</ele><time>2026-05-03T13:07:06Z</time></trkpt><trkpt lat="46.03485176196481" lon="12.061590079814929"><ele>524.0</ele><time>2026-05-03T13:07:07Z</time></trkpt><trkpt lat="46.03485394664525" lon="12.061439484557066"><ele>524.0</ele><time>2026-05-03T13:07:08Z</time></trkpt><trkpt lat="46.03484331426493" lon="12.061269973719016"><ele>524.0</ele><time>2026-05-03T13:07:09Z</time></trkpt><trkpt lat="46.03485594257544" lon="12.061101160650498"><ele>524.0</ele><time>2026-05-03T13:07:10Z</time></trkpt><trkpt lat="46.03486226664427" lon="12.060939820108272"><ele>524.0</ele><time>2026-05-03T13:07:11Z</time></trkpt><trkpt lat="46.03487581469146" lon="12.060792472704534"><ele>524.0</ele><time>2026-05-03T13:07:12Z</time></trkpt><trkpt lat="46.03488968865226" lon="12.06065075084192"><ele>524.0</ele><time>2026-05-03T13:07:13Z</time></trkpt><trkpt lat="46.03490650067216" lon="12.060516089399751"><ele>524.0</ele><time>2026-05-03T13:07:14Z</time></trkpt><trkpt lat="46.03492596332839" lon="12.06038892337354"><ele>523.6</ele><time>2026-05-03T13:07:15Z</time></trkpt><trkpt lat="46.034953004597725" lon="12.060258037371806"><ele>523.2</ele><time>2026-05-03T13:07:16Z</time></trkpt><trkpt lat="46.034982686119406" lon="12.060130953654205"><ele>522.8000000000001</ele><time>2026-05-03T13:07:17Z</time></trkpt><trkpt lat="46.03501575047669" lon="12.06001186088999"><ele>522.4</ele><time>2026-05-03T13:07:18Z</time></trkpt><trkpt lat="46.035063731869855" lon="12.059904212628261"><ele>522.0</ele><time>2026-05-03T13:07:19Z</time></trkpt><trkpt lat="46.035117858258715" lon="12.05980557462896"><ele>518.4</ele><time>2026-05-03T13:07:20Z</time></trkpt><trkpt lat="46.03517242282914" lon="12.059707760889328"><ele>514.8000000000001</ele><time>2026-05-03T13:07:20.999Z</time></trkpt><trkpt lat="46.0352260853759" lon="12.059591356844907"><ele>511.2</ele><time>2026-05-03T13:07:21.999Z</time></trkpt><trkpt lat="46.03525779824864" lon="12.059448984695681"><ele>507.6</ele><time>2026-05-03T13:07:22.999Z</time></trkpt><trkpt lat="46.035300834863996" lon="12.059305072829845"><ele>504.0</ele><time>2026-05-03T13:07:23.999Z</time></trkpt><trkpt lat="46.03528253502113" lon="12.059122269015699"><ele>504.33333333333337</ele><time>2026-05-03T13:07:24.999Z</time></trkpt><trkpt lat="46.03526793787196" lon="12.058918351279525"><ele>504.6666666666667</ele><time>2026-05-03T13:07:25.999Z</time></trkpt><trkpt lat="46.03523962360337" lon="12.058686638261113"><ele>505.0</ele><time>2026-05-03T13:07:26.999Z</time></trkpt><trkpt lat="46.03520998931335" lon="12.058443810038336"><ele>504.0</ele><time>2026-05-03T13:07:27.999Z</time></trkpt><trkpt lat="46.03518117265201" lon="12.058206041562144"><ele>503.0</ele><time>2026-05-03T13:07:28.999Z</time></trkpt><trkpt lat="46.03514287892678" lon="12.057973435678518"><ele>502.0</ele><time>2026-05-03T13:07:29.999Z</time></trkpt><trkpt lat="46.03511929548967" lon="12.057741837563176"><ele>502.0</ele><time>2026-05-03T13:07:30.999Z</time></trkpt><trkpt lat="46.035091406728995" lon="12.057510354314362"><ele>502.0</ele><time>2026-05-03T13:07:31.999Z</time></trkpt><trkpt lat="46.03505794555121" lon="12.057276580491331"><ele>502.0</ele><time>2026-05-03T13:07:32.999Z</time></trkpt><trkpt lat="46.03503845923622" lon="12.057035079577915"><ele>501.0</ele><time>2026-05-03T13:07:33.999Z</time></trkpt><trkpt lat="46.03500000599368" lon="12.056807556141978"><ele>500.0</ele><time>2026-05-03T13:07:34.999Z</time></trkpt><trkpt lat="46.03496178411259" lon="12.056600518108695"><ele>499.0</ele><time>2026-05-03T13:07:35.999Z</time></trkpt><trkpt lat="46.03492172947224" lon="12.05640106876201"><ele>498.25</ele><time>2026-05-03T13:07:36.999Z</time></trkpt><trkpt lat="46.034864716898426" lon="12.056212107260572"><ele>497.5</ele><time>2026-05-03T13:07:38Z</time></trkpt><trkpt lat="46.0348188719074" lon="12.0560168010871"><ele>496.75</ele><time>2026-05-03T13:07:39Z</time></trkpt><trkpt lat="46.03475711160874" lon="12.055826071502604"><ele>496.0</ele><time>2026-05-03T13:07:40Z</time></trkpt><trkpt lat="46.03468358625626" lon="12.055645146655126"><ele>496.0</ele><time>2026-05-03T13:07:41Z</time></trkpt><trkpt lat="46.03460727780283" lon="12.055480035278658"><ele>496.0</ele><time>2026-05-03T13:07:42Z</time></trkpt><trkpt lat="46.0345382794726" lon="12.055340495154624"><ele>496.0</ele><time>2026-05-03T13:07:43Z</time></trkpt><trkpt lat="46.03447337146369" lon="12.05521862600275"><ele>496.0</ele><time>2026-05-03T13:07:44Z</time></trkpt><trkpt lat="46.03442112882394" lon="12.055103666462063"><ele>496.0</ele><time>2026-05-03T13:07:45Z</time></trkpt><trkpt lat="46.03433670563953" lon="12.054981568725793"><ele>496.0</ele><time>2026-05-03T13:07:46Z</time></trkpt><trkpt lat="46.03424744098021" lon="12.054839235284675"><ele>496.0</ele><time>2026-05-03T13:07:47Z</time></trkpt><trkpt lat="46.034148268253375" lon="12.054692236074134"><ele>496.0</ele><time>2026-05-03T13:07:48Z</time></trkpt><trkpt lat="46.03405435888573" lon="12.054542569214307"><ele>495.0</ele><time>2026-05-03T13:07:49Z</time></trkpt><trkpt lat="46.03396955561526" lon="12.054406298718002"><ele>494.0</ele><time>2026-05-03T13:07:50Z</time></trkpt><trkpt lat="46.03389742321474" lon="12.054261468195143"><ele>493.0</ele><time>2026-05-03T13:07:51Z</time></trkpt><trkpt lat="46.03381965663838" lon="12.054133817322205"><ele>492.0</ele><time>2026-05-03T13:07:52Z</time></trkpt><trkpt lat="46.03375164669094" lon="12.054000952591524"><ele>488.40000000000003</ele><time>2026-05-03T13:07:53Z</time></trkpt><trkpt lat="46.0336893155252" lon="12.053882621566785"><ele>484.80000000000007</ele><time>2026-05-03T13:07:54Z</time></trkpt><trkpt lat="46.033609235392184" lon="12.053793209516442"><ele>481.2</ele><time>2026-05-03T13:07:55Z</time></trkpt><trkpt lat="46.033523700921066" lon="12.05370768724438"><ele>477.6</ele><time>2026-05-03T13:07:56Z</time></trkpt><trkpt lat="46.03343070295526" lon="12.053637779592268"><ele>474.0</ele><time>2026-05-03T13:07:57Z</time></trkpt><trkpt lat="46.03335820809245" lon="12.053541593411257"><ele>471.6</ele><time>2026-05-03T13:07:58Z</time></trkpt><trkpt lat="46.03329601188755" lon="12.053456415876575"><ele>469.2</ele><time>2026-05-03T13:07:59Z</time></trkpt><trkpt lat="46.03323588382266" lon="12.05338019553275"><ele>466.80000000000007</ele><time>2026-05-03T13:08:00Z</time></trkpt><trkpt lat="46.03316634906974" lon="12.053317496772886"><ele>464.40000000000003</ele><time>2026-05-03T13:08:02Z</time></trkpt><trkpt lat="46.03302260722357" lon="12.05343097603934"><ele>462.0</ele><time>2026-05-03T13:08:07Z</time></trkpt><trkpt lat="46.032963104770175" lon="12.053533998562658"><ele>462.0</ele><time>2026-05-03T13:08:08Z</time></trkpt><trkpt lat="46.032896129470046" lon="12.053653797149048"><ele>462.00000000000006</ele><time>2026-05-03T13:08:09Z</time></trkpt><trkpt lat="46.03282367902825" lon="12.053797484180985"><ele>462.00000000000006</ele><time>2026-05-03T13:08:10Z</time></trkpt><trkpt lat="46.03276166973794" lon="12.053918133385084"><ele>462.0</ele><time>2026-05-03T13:08:11Z</time></trkpt><trkpt lat="46.032700662084665" lon="12.054003567265559"><ele>462.0</ele><time>2026-05-03T13:08:12Z</time></trkpt><trkpt lat="46.03258661149952" lon="12.053943998938294"><ele>462.0</ele><time>2026-05-03T13:08:13Z</time></trkpt><trkpt lat="46.03251364477756" lon="12.053992643535343"><ele>462.00000000000006</ele><time>2026-05-03T13:08:14Z</time></trkpt><trkpt lat="46.03241869897661" lon="12.054076954020205"><ele>462.00000000000006</ele><time>2026-05-03T13:08:15Z</time></trkpt><trkpt lat="46.03233666827557" lon="12.054162840755938"><ele>462.0</ele><time>2026-05-03T13:08:16Z</time></trkpt><trkpt lat="46.032254650520805" lon="12.054201354612886"><ele>462.0</ele><time>2026-05-03T13:08:17Z</time></trkpt><trkpt lat="46.032177745867145" lon="12.054182959063121"><ele>461.5</ele><time>2026-05-03T13:08:18Z</time></trkpt><trkpt lat="46.032116402285254" lon="12.054110344477095"><ele>461.0</ele><time>2026-05-03T13:08:19Z</time></trkpt><trkpt lat="46.03210067056759" lon="12.05398073641464"><ele>460.5</ele><time>2026-05-03T13:08:20Z</time></trkpt><trkpt lat="46.03204442767498" lon="12.053892011484942"><ele>460.0</ele><time>2026-05-03T13:08:21Z</time></trkpt><trkpt lat="46.03198202972481" lon="12.053817586725573"><ele>459.5</ele><time>2026-05-03T13:08:22Z</time></trkpt><trkpt lat="46.03190416247619" lon="12.053776250945571"><ele>459.0</ele><time>2026-05-03T13:08:23Z</time></trkpt><trkpt lat="46.031829001482954" lon="12.053768921356221"><ele>459.0</ele><time>2026-05-03T13:08:25Z</time></trkpt><trkpt lat="46.0317230904599" lon="12.053750777726895"><ele>459.0</ele><time>2026-05-03T13:08:27Z</time></trkpt><trkpt lat="46.03164610870436" lon="12.05372513139185"><ele>459.0</ele><time>2026-05-03T13:08:28Z</time></trkpt><trkpt lat="46.03155511790523" lon="12.053696576446903"><ele>459.0</ele><time>2026-05-03T13:08:29Z</time></trkpt><trkpt lat="46.031463453926754" lon="12.053668595977694"><ele>459.0</ele><time>2026-05-03T13:08:30Z</time></trkpt><trkpt lat="46.0313794542104" lon="12.053648076010331"><ele>456.79999999999995</ele><time>2026-05-03T13:08:31Z</time></trkpt><trkpt lat="46.03131104633657" lon="12.05367472504956"><ele>454.59999999999997</ele><time>2026-05-03T13:08:32Z</time></trkpt><trkpt lat="46.031251482404784" lon="12.053784745874488"><ele>452.4</ele><time>2026-05-03T13:08:33Z</time></trkpt><trkpt lat="46.031163134329056" lon="12.053874001266262"><ele>450.2</ele><time>2026-05-03T13:08:34Z</time></trkpt><trkpt lat="46.031073588580064" lon="12.053968053428308"><ele>448.0</ele><time>2026-05-03T13:08:35Z</time></trkpt><trkpt lat="46.0309764856397" lon="12.054063275735622"><ele>449.59999999999997</ele><time>2026-05-03T13:08:36Z</time></trkpt><trkpt lat="46.030887231802005" lon="12.054149407631014"><ele>451.19999999999993</ele><time>2026-05-03T13:08:37Z</time></trkpt><trkpt lat="46.030790449880605" lon="12.054235028038109"><ele>452.8</ele><time>2026-05-03T13:08:38Z</time></trkpt><trkpt lat="46.03070540605162" lon="12.054308619026898"><ele>454.4</ele><time>2026-05-03T13:08:39Z</time></trkpt><trkpt lat="46.03064430801069" lon="12.054405732828899"><ele>456.0</ele><time>2026-05-03T13:08:40Z</time></trkpt><trkpt lat="46.03060321651255" lon="12.054520168358343"><ele>456.0</ele><time>2026-05-03T13:08:41Z</time></trkpt><trkpt lat="46.03058480611519" lon="12.05463319554573"><ele>456.0</ele><time>2026-05-03T13:08:42Z</time></trkpt><trkpt lat="46.03058910367623" lon="12.05474305340435"><ele>456.0</ele><time>2026-05-03T13:08:43Z</time></trkpt><trkpt lat="46.03061955166219" lon="12.054823475520125"><ele>456.0</ele><time>2026-05-03T13:08:44Z</time></trkpt><trkpt lat="46.030675082472165" lon="12.054911768488463"><ele>456.0</ele><time>2026-05-03T13:08:45Z</time></trkpt><trkpt lat="46.030738600988364" lon="12.054995843096485"><ele>456.0</ele><time>2026-05-03T13:08:46Z</time></trkpt><trkpt lat="46.03074385110747" lon="12.055086945043278"><ele>456.0</ele><time>2026-05-03T13:08:47Z</time></trkpt><trkpt lat="46.03067804989654" lon="12.05517416577086"><ele>456.0</ele><time>2026-05-03T13:08:49Z</time></trkpt><trkpt lat="46.030583836004645" lon="12.05513656569971"><ele>456.0</ele><time>2026-05-03T13:08:51Z</time></trkpt><trkpt lat="46.03052119608414" lon="12.055072786203677"><ele>456.0</ele><time>2026-05-03T13:08:52Z</time></trkpt><trkpt lat="46.03043216401708" lon="12.055003282515036"><ele>456.0</ele><time>2026-05-03T13:08:53Z</time></trkpt><trkpt lat="46.030328451171776" lon="12.054927204347496"><ele>456.0</ele><time>2026-05-03T13:08:54Z</time></trkpt><trkpt lat="46.03023509895588" lon="12.054863316857144"><ele>456.0</ele><time>2026-05-03T13:08:55Z</time></trkpt><trkpt lat="46.03012330507268" lon="12.054793366982796"><ele>456.0</ele><time>2026-05-03T13:08:56Z</time></trkpt><trkpt lat="46.030015498853786" lon="12.054725912202121"><ele>456.0</ele><time>2026-05-03T13:08:57Z</time></trkpt><trkpt lat="46.02991155399329" lon="12.054660873494006"><ele>456.25</ele><time>2026-05-03T13:08:58Z</time></trkpt><trkpt lat="46.029798612390756" lon="12.054590205485201"><ele>456.5</ele><time>2026-05-03T13:08:59Z</time></trkpt><trkpt lat="46.02968563378784" lon="12.054520345418853"><ele>456.75</ele><time>2026-05-03T13:09:00Z</time></trkpt><trkpt lat="46.029574064007434" lon="12.054451945857405"><ele>457.0</ele><time>2026-05-03T13:09:01Z</time></trkpt><trkpt lat="46.029472900533406" lon="12.054389814924086"><ele>457.0</ele><time>2026-05-03T13:09:02Z</time></trkpt><trkpt lat="46.02937977949601" lon="12.054332551894364"><ele>457.00000000000006</ele><time>2026-05-03T13:09:03Z</time></trkpt><trkpt lat="46.02928831223237" lon="12.054314464425277"><ele>457.00000000000006</ele><time>2026-05-03T13:09:04Z</time></trkpt><trkpt lat="46.02920610545243" lon="12.054297111519363"><ele>457.0</ele><time>2026-05-03T13:09:05Z</time></trkpt><trkpt lat="46.029124772187785" lon="12.054334392481236"><ele>457.0</ele><time>2026-05-03T13:09:06Z</time></trkpt><trkpt lat="46.02904591020618" lon="12.054403312726613"><ele>460.0</ele><time>2026-05-03T13:09:07Z</time></trkpt><trkpt lat="46.02895250822862" lon="12.054450451833981"><ele>463.00000000000006</ele><time>2026-05-03T13:09:08Z</time></trkpt><trkpt lat="46.02885349909849" lon="12.054407523993206"><ele>466.00000000000006</ele><time>2026-05-03T13:09:09Z</time></trkpt><trkpt lat="46.028735601743264" lon="12.054423071152778"><ele>469.0</ele><time>2026-05-03T13:09:10Z</time></trkpt><trkpt lat="46.02861098887975" lon="12.054433061279486"><ele>472.0</ele><time>2026-05-03T13:09:11Z</time></trkpt><trkpt lat="46.028505206123015" lon="12.05445428897228"><ele>472.0</ele><time>2026-05-03T13:09:12Z</time></trkpt><trkpt lat="46.02842860129726" lon="12.054413754629314"><ele>472.00000000000006</ele><time>2026-05-03T13:09:13Z</time></trkpt><trkpt lat="46.02838958868821" lon="12.05433568960677"><ele>472.00000000000006</ele><time>2026-05-03T13:09:14Z</time></trkpt><trkpt lat="46.02832837828699" lon="12.054255634306381"><ele>472.0</ele><time>2026-05-03T13:09:15Z</time></trkpt><trkpt lat="46.028244823935836" lon="12.054166180288682"><ele>472.0</ele><time>2026-05-03T13:09:16Z</time></trkpt><trkpt lat="46.02814867245738" lon="12.054069193793032"><ele>464.75</ele><time>2026-05-03T13:09:17Z</time></trkpt><trkpt lat="46.02805148777084" lon="12.053981204614036"><ele>457.5</ele><time>2026-05-03T13:09:18Z</time></trkpt><trkpt lat="46.02794677721205" lon="12.053889319372844"><ele>450.25</ele><time>2026-05-03T13:09:19Z</time></trkpt><trkpt lat="46.02783228577787" lon="12.053801117829813"><ele>443.0</ele><time>2026-05-03T13:09:20Z</time></trkpt><trkpt lat="46.027710452329664" lon="12.053734560053647"><ele>443.0</ele><time>2026-05-03T13:09:21Z</time></trkpt><trkpt lat="46.02758074908722" lon="12.053690731686308"><ele>443.0</ele><time>2026-05-03T13:09:22Z</time></trkpt><trkpt lat="46.02746083346316" lon="12.05360568977125"><ele>443.0</ele><time>2026-05-03T13:09:23Z</time></trkpt><trkpt lat="46.027325181654675" lon="12.053577692926432"><ele>443.0</ele><time>2026-05-03T13:09:24Z</time></trkpt><trkpt lat="46.02719739957731" lon="12.053538172274553"><ele>443.4</ele><time>2026-05-03T13:09:25Z</time></trkpt><trkpt lat="46.02709274362531" lon="12.053486508053012"><ele>443.79999999999995</ele><time>2026-05-03T13:09:26Z</time></trkpt><trkpt lat="46.026991745820844" lon="12.053488948619215"><ele>444.2</ele><time>2026-05-03T13:09:27Z</time></trkpt><trkpt lat="46.026899711995426" lon="12.05348929616769"><ele>444.6</ele><time>2026-05-03T13:09:28Z</time></trkpt><trkpt lat="46.02681092291649" lon="12.053529920567161"><ele>445.0</ele><time>2026-05-03T13:09:29Z</time></trkpt><trkpt lat="46.026721585874654" lon="12.053584552184926"><ele>443.2</ele><time>2026-05-03T13:09:30Z</time></trkpt><trkpt lat="46.0266235488794" lon="12.053624515339232"><ele>441.4</ele><time>2026-05-03T13:09:31Z</time></trkpt><trkpt lat="46.026517577682355" lon="12.053584859948254"><ele>439.6</ele><time>2026-05-03T13:09:32Z</time></trkpt><trkpt lat="46.026407280772375" lon="12.0535617708296"><ele>437.8</ele><time>2026-05-03T13:09:33Z</time></trkpt><trkpt lat="46.02628722571983" lon="12.053531572942013"><ele>436.0</ele><time>2026-05-03T13:09:34Z</time></trkpt><trkpt lat="46.02615988215534" lon="12.053506876254866"><ele>436.0</ele><time>2026-05-03T13:09:35Z</time></trkpt><trkpt lat="46.02602434935123" lon="12.053522437946267"><ele>436.0</ele><time>2026-05-03T13:09:36Z</time></trkpt><trkpt lat="46.02589633620964" lon="12.053521187827627"><ele>436.0</ele><time>2026-05-03T13:09:37Z</time></trkpt><trkpt lat="46.02577320019505" lon="12.053522067301756"><ele>436.0</ele><time>2026-05-03T13:09:38Z</time></trkpt><trkpt lat="46.02566080087409" lon="12.053526653892161"><ele>432.1666666666667</ele><time>2026-05-03T13:09:39Z</time></trkpt><trkpt lat="46.025563111926495" lon="12.053551552041824"><ele>428.33333333333337</ele><time>2026-05-03T13:09:40Z</time></trkpt><trkpt lat="46.025470712500294" lon="12.053567104023669"><ele>424.5</ele><time>2026-05-03T13:09:41Z</time></trkpt><trkpt lat="46.025396020542466" lon="12.053589713663007"><ele>420.66666666666663</ele><time>2026-05-03T13:09:42Z</time></trkpt><trkpt lat="46.02533706192351" lon="12.053661716414283"><ele>416.8333333333333</ele><time>2026-05-03T13:09:43Z</time></trkpt><trkpt lat="46.02530093880181" lon="12.053776567488342"><ele>413.0</ele><time>2026-05-03T13:09:44Z</time></trkpt><trkpt lat="46.025263447617235" lon="12.05389592305287"><ele>412.99999999999994</ele><time>2026-05-03T13:09:45Z</time></trkpt><trkpt lat="46.02521251751038" lon="12.053990867223682"><ele>413.0</ele><time>2026-05-03T13:09:46Z</time></trkpt><trkpt lat="46.025129980825206" lon="12.054029090230605"><ele>413.0</ele><time>2026-05-03T13:09:47Z</time></trkpt><trkpt lat="46.025043411753" lon="12.053973462464189"><ele>413.0</ele><time>2026-05-03T13:09:48Z</time></trkpt><trkpt lat="46.024963351418755" lon="12.053999474942179"><ele>412.99999999999994</ele><time>2026-05-03T13:09:49Z</time></trkpt><trkpt lat="46.02487788517879" lon="12.054054156889114"><ele>413.0</ele><time>2026-05-03T13:09:50Z</time></trkpt><trkpt lat="46.0247934600647" lon="12.054141398103729"><ele>416.79999999999995</ele><time>2026-05-03T13:09:51Z</time></trkpt><trkpt lat="46.024719400721395" lon="12.054253280342056"><ele>420.6</ele><time>2026-05-03T13:09:52Z</time></trkpt><trkpt lat="46.02463361743048" lon="12.054357741602013"><ele>424.40000000000003</ele><time>2026-05-03T13:09:53Z</time></trkpt><trkpt lat="46.024542430324935" lon="12.054470524162005"><ele>428.20000000000005</ele><time>2026-05-03T13:09:54Z</time></trkpt><trkpt lat="46.024460217051306" lon="12.054558450796586"><ele>432.0</ele><time>2026-05-03T13:09:55Z</time></trkpt><trkpt lat="46.02439921405684" lon="12.054651168736905"><ele>432.0</ele><time>2026-05-03T13:09:56Z</time></trkpt><trkpt lat="46.02434874100563" lon="12.054712910697962"><ele>432.0</ele><time>2026-05-03T13:09:57Z</time></trkpt><trkpt lat="46.024281743341945" lon="12.054693568603449"><ele>432.0</ele><time>2026-05-03T13:09:58Z</time></trkpt><trkpt lat="46.02422637410862" lon="12.054649333432927"><ele>432.0</ele><time>2026-05-03T13:09:59Z</time></trkpt><trkpt lat="46.02420190712919" lon="12.05454973713365"><ele>432.0</ele><time>2026-05-03T13:10:00Z</time></trkpt><trkpt lat="46.024183325404415" lon="12.054453997866553"><ele>432.0</ele><time>2026-05-03T13:10:01Z</time></trkpt><trkpt lat="46.024143828895625" lon="12.054383127889379"><ele>432.0</ele><time>2026-05-03T13:10:03Z</time></trkpt><trkpt lat="46.024062737773356" lon="12.05430877235036"><ele>431.1666666666667</ele><time>2026-05-03T13:13:42.001Z</time></trkpt><trkpt lat="46.023955711273004" lon="12.05424664070408"><ele>430.33333333333337</ele><time>2026-05-03T13:13:44.001Z</time></trkpt><trkpt lat="46.02389866187773" lon="12.054191172144378"><ele>429.5</ele><time>2026-05-03T13:13:45.001Z</time></trkpt><trkpt lat="46.02384986919872" lon="12.054093318011365"><ele>428.6666666666667</ele><time>2026-05-03T13:13:46.001Z</time></trkpt><trkpt lat="46.02378940626378" lon="12.054016091654525"><ele>427.83333333333337</ele><time>2026-05-03T13:13:47.001Z</time></trkpt><trkpt lat="46.023721440935354" lon="12.053930504199233"><ele>427.0</ele><time>2026-05-03T13:13:48.001Z</time></trkpt><trkpt lat="46.02364958634359" lon="12.053856451022003"><ele>427.00000000000006</ele><time>2026-05-03T13:13:49.001Z</time></trkpt><trkpt lat="46.02357306464791" lon="12.053806407117925"><ele>427.0</ele><time>2026-05-03T13:13:50.001Z</time></trkpt><trkpt lat="46.0235199402001" lon="12.053729030391784"><ele>427.0</ele><time>2026-05-03T13:13:51.001Z</time></trkpt><trkpt lat="46.023466234449714" lon="12.053669183881656"><ele>427.0</ele><time>2026-05-03T13:13:52.001Z</time></trkpt><trkpt lat="46.023418425596475" lon="12.053595852934556"><ele>427.00000000000006</ele><time>2026-05-03T13:13:53.001Z</time></trkpt><trkpt lat="46.0233582081396" lon="12.05346964372935"><ele>427.0</ele><time>2026-05-03T13:13:55.001Z</time></trkpt><trkpt lat="46.023317493865775" lon="12.053367210280197"><ele>421.00000000000006</ele><time>2026-05-03T13:13:57.001Z</time></trkpt><trkpt lat="46.02326341708602" lon="12.053275683388534"><ele>415.0</ele><time>2026-05-03T13:14:00.001Z</time></trkpt><trkpt lat="46.02321116582255" lon="12.05320682991407"><ele>409.0</ele><time>2026-05-03T13:14:03.001Z</time></trkpt><trkpt lat="46.02313365715671" lon="12.053105495346434"><ele>403.0</ele><time>2026-05-03T13:14:06.001Z</time></trkpt><trkpt lat="46.02309102066527" lon="12.053038106252004"><ele>397.00000000000006</ele><time>2026-05-03T13:14:08.001Z</time></trkpt><trkpt lat="46.023023013251716" lon="12.052975527790645"><ele>391.0</ele><time>2026-05-03T13:14:16.001Z</time></trkpt><trkpt lat="46.02296442889742" lon="12.052915267703366"><ele>391.00000000000006</ele><time>2026-05-03T13:14:18.001Z</time></trkpt><trkpt lat="46.022884131905094" lon="12.052896146619885"><ele>391.0</ele><time>2026-05-03T13:14:20.001Z</time></trkpt><trkpt lat="46.022781290988725" lon="12.052923711814362"><ele>391.0</ele><time>2026-05-03T13:14:22.001Z</time></trkpt><trkpt lat="46.02267376561608" lon="12.053005688496738"><ele>391.0</ele><time>2026-05-03T13:14:24.001Z</time></trkpt><trkpt lat="46.02261216012938" lon="12.053033562796227"><ele>391.00000000000006</ele><time>2026-05-03T13:14:25.001Z</time></trkpt><trkpt lat="46.022556877297085" lon="12.053077859968546"><ele>391.0</ele><time>2026-05-03T13:14:26.001Z</time></trkpt><trkpt lat="46.022445640675144" lon="12.053152627247611"><ele>392.20000000000005</ele><time>2026-05-03T13:14:28.001Z</time></trkpt><trkpt lat="46.02238685793623" lon="12.053194971912182"><ele>393.40000000000003</ele><time>2026-05-03T13:14:29.001Z</time></trkpt><trkpt lat="46.022298343770004" lon="12.053299922933578"><ele>394.6</ele><time>2026-05-03T13:14:31.001Z</time></trkpt><trkpt lat="46.0222088897047" lon="12.053394562900321"><ele>395.8</ele><time>2026-05-03T13:14:33.001Z</time></trkpt><trkpt lat="46.02212009839932" lon="12.053391677238134"><ele>397.0</ele><time>2026-05-03T13:14:35.001Z</time></trkpt><trkpt lat="46.02202476679807" lon="12.053315949088994"><ele>400.8</ele><time>2026-05-03T13:14:37.001Z</time></trkpt><trkpt lat="46.021947290977295" lon="12.053296426797337"><ele>404.6</ele><time>2026-05-03T13:14:38.001Z</time></trkpt><trkpt lat="46.021856095437116" lon="12.05331544460287"><ele>408.40000000000003</ele><time>2026-05-03T13:14:39.001Z</time></trkpt><trkpt lat="46.021763554601144" lon="12.053343404255724"><ele>412.20000000000005</ele><time>2026-05-03T13:14:40.001Z</time></trkpt><trkpt lat="46.02166180004885" lon="12.053367978345621"><ele>416.0</ele><time>2026-05-03T13:14:41.001Z</time></trkpt><trkpt lat="46.021563063032396" lon="12.053393759529891"><ele>418.4</ele><time>2026-05-03T13:14:42.001Z</time></trkpt><trkpt lat="46.021472417930696" lon="12.05340318049345"><ele>420.8</ele><time>2026-05-03T13:14:43.001Z</time></trkpt><trkpt lat="46.0213929227763" lon="12.053426059012681"><ele>423.19999999999993</ele><time>2026-05-03T13:14:44.001Z</time></trkpt><trkpt lat="46.02132959274449" lon="12.053450793812832"><ele>425.59999999999997</ele><time>2026-05-03T13:14:45.001Z</time></trkpt><trkpt lat="46.021252884752705" lon="12.053332546527011"><ele>428.0</ele><time>2026-05-03T13:14:47.001Z</time></trkpt><trkpt lat="46.02130268111923" lon="12.05313930947875"><ele>428.0</ele><time>2026-05-03T13:14:49.001Z</time></trkpt><trkpt lat="46.02132401294475" lon="12.053026251787612"><ele>427.99999999999994</ele><time>2026-05-03T13:14:50.001Z</time></trkpt><trkpt lat="46.02138321269378" lon="12.052952529508081"><ele>427.99999999999994</ele><time>2026-05-03T13:14:51.001Z</time></trkpt><trkpt lat="46.02145064005935" lon="12.05286858496426"><ele>428.0</ele><time>2026-05-03T13:14:52.001Z</time></trkpt><trkpt lat="46.02151563423104" lon="12.052683320893552"><ele>428.0</ele><time>2026-05-03T13:14:53.001Z</time></trkpt><trkpt lat="46.02154772132166" lon="12.052529149180328"><ele>423.4</ele><time>2026-05-03T13:14:54.001Z</time></trkpt><trkpt lat="46.02158804336381" lon="12.052356698588344"><ele>418.79999999999995</ele><time>2026-05-03T13:14:55.001Z</time></trkpt><trkpt lat="46.02159053813512" lon="12.052223225341379"><ele>414.2</ele><time>2026-05-03T13:14:56.001Z</time></trkpt><trkpt lat="46.021570756980026" lon="12.052087485686624"><ele>409.6</ele><time>2026-05-03T13:14:57.001Z</time></trkpt><trkpt lat="46.02152366818625" lon="12.052000969227164"><ele>405.0</ele><time>2026-05-03T13:14:59.001Z</time></trkpt><trkpt lat="46.021453197985736" lon="12.051878225886925"><ele>405.0</ele><time>2026-05-03T13:15:01.001Z</time></trkpt><trkpt lat="46.02140107939475" lon="12.051818045270357"><ele>405.0</ele><time>2026-05-03T13:15:02.001Z</time></trkpt><trkpt lat="46.02134995099598" lon="12.051707414047526"><ele>405.0</ele><time>2026-05-03T13:15:03.001Z</time></trkpt><trkpt lat="46.02131045659175" lon="12.051608635263936"><ele>405.0</ele><time>2026-05-03T13:15:04.001Z</time></trkpt><trkpt lat="46.02133181962736" lon="12.051491211185125"><ele>405.0</ele><time>2026-05-03T13:15:05.001Z</time></trkpt><trkpt lat="46.021349806427864" lon="12.051374188338526"><ele>405.0</ele><time>2026-05-03T13:15:06.001Z</time></trkpt><trkpt lat="46.02137797767644" lon="12.05122835059349"><ele>400.8333333333333</ele><time>2026-05-03T13:15:07.001Z</time></trkpt><trkpt lat="46.021410585240666" lon="12.051074924526024"><ele>396.6666666666667</ele><time>2026-05-03T13:15:08.001Z</time></trkpt><trkpt lat="46.02143188836618" lon="12.05095989689636"><ele>392.5</ele><time>2026-05-03T13:15:09.001Z</time></trkpt><trkpt lat="46.021439788280496" lon="12.050863656540583"><ele>388.33333333333337</ele><time>2026-05-03T13:15:10.001Z</time></trkpt><trkpt lat="46.02141890675207" lon="12.050766536579427"><ele>384.1666666666667</ele><time>2026-05-03T13:15:11.001Z</time></trkpt><trkpt lat="46.021361357094456" lon="12.050707126868616"><ele>380.0</ele><time>2026-05-03T13:15:12.001Z</time></trkpt><trkpt lat="46.02126715400517" lon="12.050688446559302"><ele>375.0</ele><time>2026-05-03T13:15:13.001Z</time></trkpt><trkpt lat="46.02114164045339" lon="12.05068504329117"><ele>370.0</ele><time>2026-05-03T13:15:14.001Z</time></trkpt><trkpt lat="46.021023697317965" lon="12.050643730964605"><ele>365.0</ele><time>2026-05-03T13:15:15.001Z</time></trkpt><trkpt lat="46.020914493707885" lon="12.050619535844918"><ele>360.0</ele><time>2026-05-03T13:15:16.001Z</time></trkpt><trkpt lat="46.0208116524883" lon="12.050591916310914"><ele>357.8333333333333</ele><time>2026-05-03T13:15:17.001Z</time></trkpt><trkpt lat="46.020708982750136" lon="12.050577357149228"><ele>355.6666666666667</ele><time>2026-05-03T13:15:18.001Z</time></trkpt><trkpt lat="46.0206291578802" lon="12.050527764497556"><ele>353.5</ele><time>2026-05-03T13:15:19.001Z</time></trkpt><trkpt lat="46.020538973594206" lon="12.050488247213549"><ele>351.33333333333337</ele><time>2026-05-03T13:15:20.001Z</time></trkpt><trkpt lat="46.02052791997413" lon="12.050388307583159"><ele>349.1666666666667</ele><time>2026-05-03T13:15:21.001Z</time></trkpt><trkpt lat="46.02049204863198" lon="12.050277106473908"><ele>347.0</ele><time>2026-05-03T13:15:23.001Z</time></trkpt><trkpt lat="46.02055311622378" lon="12.050216161928802"><ele>347.0</ele><time>2026-05-03T13:15:26.001Z</time></trkpt><trkpt lat="46.02063299669638" lon="12.050270452576799"><ele>347.0</ele><time>2026-05-03T13:15:28.001Z</time></trkpt><trkpt lat="46.02069687136454" lon="12.050316423427898"><ele>347.0</ele><time>2026-05-03T13:15:29.001Z</time></trkpt><trkpt lat="46.020798856435775" lon="12.050381031069325"><ele>347.0</ele><time>2026-05-03T13:15:31.001Z</time></trkpt><trkpt lat="46.020912727124546" lon="12.050392841079029"><ele>347.0</ele><time>2026-05-03T13:15:33.001Z</time></trkpt><trkpt lat="46.02102916388267" lon="12.05037441021101"><ele>349.6</ele><time>2026-05-03T13:15:35.001Z</time></trkpt><trkpt lat="46.021155223234175" lon="12.050359247330665"><ele>352.20000000000005</ele><time>2026-05-03T13:15:37.001Z</time></trkpt><trkpt lat="46.02122699514341" lon="12.050369264912284"><ele>354.8</ele><time>2026-05-03T13:15:38.001Z</time></trkpt><trkpt lat="46.02134226116587" lon="12.050384636439674"><ele>357.4</ele><time>2026-05-03T13:15:40.001Z</time></trkpt><trkpt lat="46.021452291326895" lon="12.050414841691492"><ele>360.0</ele><time>2026-05-03T13:15:42.001Z</time></trkpt><trkpt lat="46.02152682068815" lon="12.050456357994847"><ele>360.0</ele><time>2026-05-03T13:15:44.001Z</time></trkpt><trkpt lat="46.02159373992933" lon="12.05054767988584"><ele>360.0</ele><time>2026-05-03T13:15:46.001Z</time></trkpt><trkpt lat="46.02165544251281" lon="12.050665516969095"><ele>360.0</ele><time>2026-05-03T13:15:48.001Z</time></trkpt><trkpt lat="46.02168030166408" lon="12.05075376132122"><ele>360.0</ele><time>2026-05-03T13:15:49.001Z</time></trkpt><trkpt lat="46.02171542053273" lon="12.050841000307315"><ele>360.0</ele><time>2026-05-03T13:15:50.001Z</time></trkpt><trkpt lat="46.02174965564876" lon="12.050920600340795"><ele>360.0</ele><time>2026-05-03T13:15:51.001Z</time></trkpt><trkpt lat="46.02181174295386" lon="12.051082503940503"><ele>362.6</ele><time>2026-05-03T13:15:53.001Z</time></trkpt><trkpt lat="46.02186899634699" lon="12.051232810465622"><ele>365.2</ele><time>2026-05-03T13:15:55.001Z</time></trkpt><trkpt lat="46.02191837967741" lon="12.051364248107827"><ele>367.79999999999995</ele><time>2026-05-03T13:15:57.001Z</time></trkpt><trkpt lat="46.021873077733225" lon="12.051485420541983"><ele>370.4</ele><time>2026-05-03T13:15:59.001Z</time></trkpt><trkpt lat="46.02195982927894" lon="12.051479709889644"><ele>373.0</ele><time>2026-05-03T13:16:00.001Z</time></trkpt><trkpt lat="46.021996204292805" lon="12.05158103627839"><ele>374.8333333333333</ele><time>2026-05-03T13:16:02.001Z</time></trkpt><trkpt lat="46.02203037130921" lon="12.0517090653853"><ele>376.66666666666663</ele><time>2026-05-03T13:16:04.001Z</time></trkpt><trkpt lat="46.02205155703903" lon="12.051859640918934"><ele>378.5</ele><time>2026-05-03T13:16:06.001Z</time></trkpt><trkpt lat="46.022036514171795" lon="12.051949368984893"><ele>380.3333333333333</ele><time>2026-05-03T13:16:07.001Z</time></trkpt><trkpt lat="46.02200974099068" lon="12.05203366718138"><ele>382.1666666666667</ele><time>2026-05-03T13:16:08.001Z</time></trkpt><trkpt lat="46.022065313248035" lon="12.052143787177133"><ele>384.0</ele><time>2026-05-03T13:16:10.001Z</time></trkpt><trkpt lat="46.022144466476064" lon="12.052141450079661"><ele>384.0</ele><time>2026-05-03T13:16:12.001Z</time></trkpt><trkpt lat="46.022222095846864" lon="12.052107818685288"><ele>384.0</ele><time>2026-05-03T13:16:13.001Z</time></trkpt><trkpt lat="46.02230245982317" lon="12.0520486719734"><ele>384.0</ele><time>2026-05-03T13:16:15.001Z</time></trkpt><trkpt lat="46.02236575321641" lon="12.051996439111447"><ele>384.0</ele><time>2026-05-03T13:16:16.001Z</time></trkpt><trkpt lat="46.02242646902304" lon="12.0519470087868"><ele>384.0</ele><time>2026-05-03T13:16:17.001Z</time></trkpt><trkpt lat="46.02248159711363" lon="12.051902264417924"><ele>384.0</ele><time>2026-05-03T13:16:18.001Z</time></trkpt><trkpt lat="46.02259329976577" lon="12.0518139979362"><ele>378.2</ele><time>2026-05-03T13:16:20.001Z</time></trkpt><trkpt lat="46.022651683801406" lon="12.051773270304338"><ele>372.4</ele><time>2026-05-03T13:16:21.001Z</time></trkpt><trkpt lat="46.022733116239394" lon="12.051745405577917"><ele>366.6</ele><time>2026-05-03T13:16:23.001Z</time></trkpt><trkpt lat="46.022815244621135" lon="12.051729431392635"><ele>360.8</ele><time>2026-05-03T13:16:25.001Z</time></trkpt><trkpt lat="46.02293198427276" lon="12.051755031389801"><ele>355.0</ele><time>2026-05-03T13:16:27.001Z</time></trkpt><trkpt lat="46.02303609525958" lon="12.051708196440597"><ele>355.0</ele><time>2026-05-03T13:16:29.001Z</time></trkpt><trkpt lat="46.023135493602815" lon="12.05168949213821"><ele>355.0</ele><time>2026-05-03T13:16:31.001Z</time></trkpt><trkpt lat="46.02323436152613" lon="12.05169105970958"><ele>355.0</ele><time>2026-05-03T13:16:33.001Z</time></trkpt><trkpt lat="46.02335120042648" lon="12.05169131141119"><ele>355.0</ele><time>2026-05-03T13:16:35.001Z</time></trkpt><trkpt lat="46.02340335792558" lon="12.051758352127269"><ele>355.0</ele><time>2026-05-03T13:16:36.001Z</time></trkpt><trkpt lat="46.02346792598867" lon="12.051802117371722"><ele>353.8333333333333</ele><time>2026-05-03T13:16:37.001Z</time></trkpt><trkpt lat="46.02354054100337" lon="12.051831640032312"><ele>352.66666666666663</ele><time>2026-05-03T13:16:38.001Z</time></trkpt><trkpt lat="46.0236065652373" lon="12.051883615152255"><ele>351.5</ele><time>2026-05-03T13:16:39.001Z</time></trkpt><trkpt lat="46.02367727287876" lon="12.05192632845324"><ele>350.3333333333333</ele><time>2026-05-03T13:16:40.001Z</time></trkpt><trkpt lat="46.02375184759954" lon="12.051978542412018"><ele>349.1666666666667</ele><time>2026-05-03T13:16:41.001Z</time></trkpt><trkpt lat="46.023828620046906" lon="12.052021866535144"><ele>348.0</ele><time>2026-05-03T13:16:42.001Z</time></trkpt><trkpt lat="46.023895151421925" lon="12.052061039633847"><ele>348.0</ele><time>2026-05-03T13:16:43.001Z</time></trkpt><trkpt lat="46.023959637937175" lon="12.052113734456693"><ele>348.0</ele><time>2026-05-03T13:16:44.001Z</time></trkpt><trkpt lat="46.024021881963264" lon="12.05216419236906"><ele>348.0</ele><time>2026-05-03T13:16:45.001Z</time></trkpt><trkpt lat="46.02408669875957" lon="12.052210269002874"><ele>348.0</ele><time>2026-05-03T13:16:46.001Z</time></trkpt><trkpt lat="46.02414867959421" lon="12.052255782758294"><ele>348.0</ele><time>2026-05-03T13:16:47.001Z</time></trkpt><trkpt lat="46.02421128763211" lon="12.052298772049408"><ele>348.0</ele><time>2026-05-03T13:16:48.001Z</time></trkpt><trkpt lat="46.02427042286418" lon="12.052367248991068"><ele>348.0</ele><time>2026-05-03T13:16:49.001Z</time></trkpt><trkpt lat="46.02433960629795" lon="12.052419870323762"><ele>347.5</ele><time>2026-05-03T13:16:50.001Z</time></trkpt><trkpt lat="46.02440342404527" lon="12.052465795651045"><ele>347.0</ele><time>2026-05-03T13:16:51.001Z</time></trkpt><trkpt lat="46.024469466802834" lon="12.052485627286059"><ele>346.5</ele><time>2026-05-03T13:16:52.001Z</time></trkpt><trkpt lat="46.02456278640036" lon="12.052524674290334"><ele>346.0</ele><time>2026-05-03T13:16:54.001Z</time></trkpt><trkpt lat="46.02466949005046" lon="12.052418323717442"><ele>345.5</ele><time>2026-05-03T13:16:56.001Z</time></trkpt><trkpt lat="46.02471516186394" lon="12.052355793983123"><ele>345.0</ele><time>2026-05-03T13:16:57.001Z</time></trkpt><trkpt lat="46.02480017807756" lon="12.052274196440047"><ele>345.0</ele><time>2026-05-03T13:16:59.001Z</time></trkpt><trkpt lat="46.024911189818106" lon="12.052278126924334"><ele>345.0</ele><time>2026-05-03T13:17:01.001Z</time></trkpt><trkpt lat="46.02503772294393" lon="12.052282043331807"><ele>345.0</ele><time>2026-05-03T13:17:03.001Z</time></trkpt><trkpt lat="46.025150613190625" lon="12.052226618500407"><ele>345.0</ele><time>2026-05-03T13:17:05.001Z</time></trkpt><trkpt lat="46.0252128781549" lon="12.052200473488824"><ele>345.0</ele><time>2026-05-03T13:17:06.001Z</time></trkpt><trkpt lat="46.02527793794052" lon="12.052170016477959"><ele>344.1666666666667</ele><time>2026-05-03T13:17:07.001Z</time></trkpt><trkpt lat="46.02533634640806" lon="12.052118084414184"><ele>343.3333333333333</ele><time>2026-05-03T13:17:08.001Z</time></trkpt><trkpt lat="46.02539593197446" lon="12.052055641329826"><ele>342.5</ele><time>2026-05-03T13:17:09.001Z</time></trkpt><trkpt lat="46.02544347642654" lon="12.051988486313"><ele>341.66666666666663</ele><time>2026-05-03T13:17:10.001Z</time></trkpt><trkpt lat="46.02554389855603" lon="12.051902630324706"><ele>340.8333333333333</ele><time>2026-05-03T13:17:12.001Z</time></trkpt><trkpt lat="46.02561868570906" lon="12.051824203691414"><ele>340.0</ele><time>2026-05-03T13:17:14.001Z</time></trkpt><trkpt lat="46.02569269685599" lon="12.051870582691578"><ele>340.0</ele><time>2026-05-03T13:17:16.001Z</time></trkpt><trkpt lat="46.02576736111876" lon="12.051954040876748"><ele>340.0</ele><time>2026-05-03T13:17:18.001Z</time></trkpt><trkpt lat="46.025844426302214" lon="12.052019069893486"><ele>340.0</ele><time>2026-05-03T13:17:20.001Z</time></trkpt><trkpt lat="46.025948664087544" lon="12.052063131845934"><ele>340.0</ele><time>2026-05-03T13:17:22.001Z</time></trkpt><trkpt lat="46.02604180665363" lon="12.051975339931115"><ele>340.0</ele><time>2026-05-03T13:17:24.001Z</time></trkpt><trkpt lat="46.02608374089559" lon="12.05190069010016"><ele>341.4</ele><time>2026-05-03T13:17:26.001Z</time></trkpt><trkpt lat="46.02613662496647" lon="12.051764443871123"><ele>342.8</ele><time>2026-05-03T13:17:28.001Z</time></trkpt><trkpt lat="46.026159156196336" lon="12.051677168921433"><ele>344.20000000000005</ele><time>2026-05-03T13:17:29.001Z</time></trkpt><trkpt lat="46.026209547490986" lon="12.05151217850836"><ele>345.6</ele><time>2026-05-03T13:17:31.001Z</time></trkpt><trkpt lat="46.02629810569169" lon="12.051392050383107"><ele>347.0</ele><time>2026-05-03T13:17:33.001Z</time></trkpt><trkpt lat="46.026349907184496" lon="12.051331842033386"><ele>347.0</ele><time>2026-05-03T13:17:34.001Z</time></trkpt><trkpt lat="46.02639813873547" lon="12.051263218027799"><ele>347.0</ele><time>2026-05-03T13:17:35.001Z</time></trkpt><trkpt lat="46.02644268865779" lon="12.051115471882188"><ele>347.0</ele><time>2026-05-03T13:17:37.001Z</time></trkpt><trkpt lat="46.02645337993298" lon="12.050940601621162"><ele>347.0</ele><time>2026-05-03T13:17:39.001Z</time></trkpt><trkpt lat="46.0264698050046" lon="12.05085180988431"><ele>347.0</ele><time>2026-05-03T13:17:40.001Z</time></trkpt><trkpt lat="46.026495494410966" lon="12.050753706119206"><ele>347.0</ele><time>2026-05-03T13:17:41.001Z</time></trkpt><trkpt lat="46.026514909754034" lon="12.050653567611873"><ele>347.6</ele><time>2026-05-03T13:17:42.001Z</time></trkpt><trkpt lat="46.02652457998771" lon="12.050474575598663"><ele>348.20000000000005</ele><time>2026-05-03T13:17:44.001Z</time></trkpt><trkpt lat="46.026507930054336" lon="12.050378700240756"><ele>348.8</ele><time>2026-05-03T13:17:45.001Z</time></trkpt><trkpt lat="46.02649183335796" lon="12.050211399184244"><ele>349.4</ele><time>2026-05-03T13:17:47.001Z</time></trkpt><trkpt lat="46.02647379711947" lon="12.050046831998076"><ele>350.0</ele><time>2026-05-03T13:17:49.001Z</time></trkpt><trkpt lat="46.02646803424853" lon="12.0499545694021"><ele>353.5</ele><time>2026-05-03T13:17:50.001Z</time></trkpt><trkpt lat="46.026495054078104" lon="12.049835862814314"><ele>357.0</ele><time>2026-05-03T13:17:52Z</time></trkpt><trkpt lat="46.02657537879311" lon="12.049784865344671"><ele>360.5</ele><time>2026-05-03T13:17:54Z</time></trkpt><trkpt lat="46.02668169183367" lon="12.049718559492236"><ele>364.0</ele><time>2026-05-03T13:17:56Z</time></trkpt><trkpt lat="46.026724641752665" lon="12.049651022913332"><ele>367.5</ele><time>2026-05-03T13:17:57Z</time></trkpt><trkpt lat="46.02679206516965" lon="12.049593829884005"><ele>371.0</ele><time>2026-05-03T13:17:58Z</time></trkpt><trkpt lat="46.02684877285459" lon="12.049525693563547"><ele>371.0</ele><time>2026-05-03T13:17:59Z</time></trkpt><trkpt lat="46.02693942412522" lon="12.049522697110332"><ele>371.0</ele><time>2026-05-03T13:18:00Z</time></trkpt><trkpt lat="46.02702293534196" lon="12.049511294862311"><ele>371.0</ele><time>2026-05-03T13:18:01Z</time></trkpt><trkpt lat="46.02710245283638" lon="12.049412529865789"><ele>371.0</ele><time>2026-05-03T13:18:02Z</time></trkpt><trkpt lat="46.02719401665118" lon="12.04939753858596"><ele>371.0</ele><time>2026-05-03T13:18:03Z</time></trkpt><trkpt lat="46.02728239563289" lon="12.049384455055728"><ele>371.0</ele><time>2026-05-03T13:18:04Z</time></trkpt><trkpt lat="46.027374702991466" lon="12.049374417065357"><ele>371.0</ele><time>2026-05-03T13:18:05Z</time></trkpt><trkpt lat="46.0274682106178" lon="12.049352714482813"><ele>371.0</ele><time>2026-05-03T13:18:06Z</time></trkpt><trkpt lat="46.02756172430863" lon="12.049367492802105"><ele>371.0</ele><time>2026-05-03T13:18:07Z</time></trkpt><trkpt lat="46.027649533751664" lon="12.049380000777996"><ele>371.0</ele><time>2026-05-03T13:18:08Z</time></trkpt><trkpt lat="46.02772445304229" lon="12.049409521625522"><ele>371.0</ele><time>2026-05-03T13:18:09Z</time></trkpt><trkpt lat="46.02778576267651" lon="12.049447559772629"><ele>370.20000000000005</ele><time>2026-05-03T13:18:10Z</time></trkpt><trkpt lat="46.0278704639919" lon="12.049522398182903"><ele>369.40000000000003</ele><time>2026-05-03T13:18:11Z</time></trkpt><trkpt lat="46.02794686634193" lon="12.04961723775802"><ele>368.6</ele><time>2026-05-03T13:18:12Z</time></trkpt><trkpt lat="46.02801712117964" lon="12.04971690278256"><ele>367.8</ele><time>2026-05-03T13:18:13Z</time></trkpt><trkpt lat="46.02805455510954" lon="12.049803292591632"><ele>367.0</ele><time>2026-05-03T13:18:14Z</time></trkpt><trkpt lat="46.02810400853204" lon="12.049961690622322"><ele>365.66666666666663</ele><time>2026-05-03T13:18:16Z</time></trkpt><trkpt lat="46.028134203356984" lon="12.050062255612907"><ele>364.3333333333333</ele><time>2026-05-03T13:18:17Z</time></trkpt><trkpt lat="46.0281659862635" lon="12.05016113683337"><ele>363.0</ele><time>2026-05-03T13:18:18Z</time></trkpt><trkpt lat="46.02822294277862" lon="12.050261764688065"><ele>361.6666666666667</ele><time>2026-05-03T13:18:19Z</time></trkpt><trkpt lat="46.028258497697784" lon="12.050369099741712"><ele>360.33333333333337</ele><time>2026-05-03T13:18:20Z</time></trkpt><trkpt lat="46.02828330376959" lon="12.050482617513177"><ele>359.0</ele><time>2026-05-03T13:18:21Z</time></trkpt><trkpt lat="46.028324117393076" lon="12.050565568629104"><ele>359.0</ele><time>2026-05-03T13:18:22Z</time></trkpt><trkpt lat="46.02839173377813" lon="12.050615557971184"><ele>359.0</ele><time>2026-05-03T13:18:24Z</time></trkpt><trkpt lat="46.02848909479448" lon="12.05051715703779"><ele>359.0</ele><time>2026-05-03T13:18:26Z</time></trkpt><trkpt lat="46.02852303895652" lon="12.050435021210868"><ele>359.0</ele><time>2026-05-03T13:18:27Z</time></trkpt><trkpt lat="46.02854013724042" lon="12.050326343883496"><ele>359.0</ele><time>2026-05-03T13:18:28Z</time></trkpt><trkpt lat="46.02856413800769" lon="12.050206492049325"><ele>359.0</ele><time>2026-05-03T13:18:29Z</time></trkpt><trkpt lat="46.028586943854876" lon="12.050105463346041"><ele>359.0</ele><time>2026-05-03T13:18:30Z</time></trkpt><trkpt lat="46.02859563019246" lon="12.050012201154212"><ele>359.0</ele><time>2026-05-03T13:18:31Z</time></trkpt><trkpt lat="46.028606920504856" lon="12.049920213022675"><ele>359.0</ele><time>2026-05-03T13:18:32Z</time></trkpt><trkpt lat="46.02861519338157" lon="12.049808533673763"><ele>359.0</ele><time>2026-05-03T13:18:33Z</time></trkpt><trkpt lat="46.0286394128418" lon="12.049718372739472"><ele>359.0</ele><time>2026-05-03T13:18:34Z</time></trkpt><trkpt lat="46.02870985224022" lon="12.049570508515128"><ele>359.0</ele><time>2026-05-03T13:18:36Z</time></trkpt><trkpt lat="46.02876117420591" lon="12.049471100511607"><ele>357.1666666666667</ele><time>2026-05-03T13:18:37Z</time></trkpt><trkpt lat="46.02882200555256" lon="12.049377101287837"><ele>355.33333333333337</ele><time>2026-05-03T13:18:38Z</time></trkpt><trkpt lat="46.02888192979651" lon="12.049305937479021"><ele>353.5</ele><time>2026-05-03T13:18:39Z</time></trkpt><trkpt lat="46.028939865341876" lon="12.04925120437557"><ele>351.6666666666667</ele><time>2026-05-03T13:18:40Z</time></trkpt><trkpt lat="46.029002244481106" lon="12.049209060796155"><ele>349.8333333333333</ele><time>2026-05-03T13:18:41Z</time></trkpt><trkpt lat="46.029069482510124" lon="12.049171332179869"><ele>348.0</ele><time>2026-05-03T13:18:42Z</time></trkpt><trkpt lat="46.029145330616245" lon="12.049158967644486"><ele>347.79999999999995</ele><time>2026-05-03T13:18:43Z</time></trkpt><trkpt lat="46.02922954207816" lon="12.04915535605217"><ele>347.6</ele><time>2026-05-03T13:18:44Z</time></trkpt><trkpt lat="46.029324803362506" lon="12.049160716390588"><ele>347.4</ele><time>2026-05-03T13:18:45Z</time></trkpt><trkpt lat="46.02941576688097" lon="12.049177087847822"><ele>347.20000000000005</ele><time>2026-05-03T13:18:46Z</time></trkpt><trkpt lat="46.02951074680292" lon="12.049195229230095"><ele>347.0</ele><time>2026-05-03T13:18:47Z</time></trkpt><trkpt lat="46.02960561098202" lon="12.049220148255294"><ele>347.0</ele><time>2026-05-03T13:18:48Z</time></trkpt><trkpt lat="46.02970365794636" lon="12.049249292643179"><ele>347.0</ele><time>2026-05-03T13:18:49Z</time></trkpt><trkpt lat="46.029797879824685" lon="12.049281389679217"><ele>347.0</ele><time>2026-05-03T13:18:50Z</time></trkpt><trkpt lat="46.029887597890834" lon="12.049313020350011"><ele>347.0</ele><time>2026-05-03T13:18:51Z</time></trkpt><trkpt lat="46.029981437431914" lon="12.049347596117084"><ele>347.0</ele><time>2026-05-03T13:18:52Z</time></trkpt><trkpt lat="46.03007361131234" lon="12.04937012258444"><ele>346.0</ele><time>2026-05-03T13:18:53Z</time></trkpt><trkpt lat="46.030171294303656" lon="12.04941292001166"><ele>345.0</ele><time>2026-05-03T13:18:54Z</time></trkpt><trkpt lat="46.03027035190886" lon="12.049455267655391"><ele>344.0</ele><time>2026-05-03T13:18:55Z</time></trkpt><trkpt lat="46.03036204223328" lon="12.049484428968842"><ele>343.0</ele><time>2026-05-03T13:18:56Z</time></trkpt><trkpt lat="46.0304557521862" lon="12.049537292362047"><ele>342.0</ele><time>2026-05-03T13:18:57Z</time></trkpt><trkpt lat="46.030536739437885" lon="12.049580241249826"><ele>342.0</ele><time>2026-05-03T13:18:58Z</time></trkpt><trkpt lat="46.03060057513993" lon="12.04962741216873"><ele>342.0</ele><time>2026-05-03T13:18:59Z</time></trkpt><trkpt lat="46.03066736425825" lon="12.049692134920905"><ele>342.0</ele><time>2026-05-03T13:19:00Z</time></trkpt><trkpt lat="46.03074162745852" lon="12.049777238261989"><ele>342.0</ele><time>2026-05-03T13:19:01Z</time></trkpt><trkpt lat="46.030800506193756" lon="12.049853152808693"><ele>342.0</ele><time>2026-05-03T13:19:02Z</time></trkpt><trkpt lat="46.030855317168594" lon="12.049928428348242"><ele>342.0</ele><time>2026-05-03T13:19:03Z</time></trkpt><trkpt lat="46.03091050460458" lon="12.04997700350849"><ele>341.5</ele><time>2026-05-03T13:19:04Z</time></trkpt><trkpt lat="46.03097591598385" lon="12.049987922548446"><ele>341.0</ele><time>2026-05-03T13:19:05Z</time></trkpt><trkpt lat="46.03102800175736" lon="12.04993424621779"><ele>340.5</ele><time>2026-05-03T13:19:06Z</time></trkpt><trkpt lat="46.03108256315901" lon="12.049781039576086"><ele>340.0</ele><time>2026-05-03T13:19:08Z</time></trkpt><trkpt lat="46.03106575486726" lon="12.049671372913052"><ele>339.5</ele><time>2026-05-03T13:19:09Z</time></trkpt><trkpt lat="46.03105526008925" lon="12.049569557178051"><ele>339.0</ele><time>2026-05-03T13:19:10Z</time></trkpt><trkpt lat="46.03106078855609" lon="12.049479198399943"><ele>339.0</ele><time>2026-05-03T13:19:11Z</time></trkpt><trkpt lat="46.03112765759346" lon="12.049381288866106"><ele>339.0</ele><time>2026-05-03T13:19:13Z</time></trkpt><trkpt lat="46.0312456414625" lon="12.04930770465252"><ele>339.0</ele><time>2026-05-03T13:19:15Z</time></trkpt><trkpt lat="46.03132353455647" lon="12.0492928577222"><ele>339.0</ele><time>2026-05-03T13:19:16Z</time></trkpt><trkpt lat="46.03142116751999" lon="12.049316128285227"><ele>339.0</ele><time>2026-05-03T13:19:18Z</time></trkpt><trkpt lat="46.03148278336447" lon="12.049408791543609"><ele>339.0</ele><time>2026-05-03T13:19:20Z</time></trkpt><trkpt lat="46.03163336598949" lon="12.049402365684662"><ele>339.0</ele><time>2026-05-03T13:19:22Z</time></trkpt><trkpt lat="46.03168713050072" lon="12.049288045173773"><ele>339.0</ele><time>2026-05-03T13:19:23Z</time></trkpt><trkpt lat="46.031692352745814" lon="12.04916063706953"><ele>339.0</ele><time>2026-05-03T13:19:24Z</time></trkpt><trkpt lat="46.03169523512488" lon="12.049049243665477"><ele>339.0</ele><time>2026-05-03T13:19:25Z</time></trkpt><trkpt lat="46.03171517746793" lon="12.048912634128175"><ele>339.3333333333333</ele><time>2026-05-03T13:19:26Z</time></trkpt><trkpt lat="46.03174394600057" lon="12.048817994210708"><ele>339.6666666666667</ele><time>2026-05-03T13:19:27Z</time></trkpt><trkpt lat="46.03178818050161" lon="12.048718008289091"><ele>340.0</ele><time>2026-05-03T13:19:28Z</time></trkpt><trkpt lat="46.03182942026733" lon="12.048608847749012"><ele>340.33333333333337</ele><time>2026-05-03T13:19:29Z</time></trkpt><trkpt lat="46.031865914835485" lon="12.048512247334356"><ele>340.6666666666667</ele><time>2026-05-03T13:19:30Z</time></trkpt><trkpt lat="46.03190192018044" lon="12.048413017662241"><ele>341.0</ele><time>2026-05-03T13:19:31Z</time></trkpt><trkpt lat="46.031946943408485" lon="12.048283621389608"><ele>341.0</ele><time>2026-05-03T13:19:32Z</time></trkpt><trkpt lat="46.03197034846732" lon="12.048159167717111"><ele>341.0</ele><time>2026-05-03T13:19:33Z</time></trkpt><trkpt lat="46.031977540224375" lon="12.048035253260776"><ele>341.0</ele><time>2026-05-03T13:19:34Z</time></trkpt><trkpt lat="46.03196356112982" lon="12.047908223510229"><ele>341.0</ele><time>2026-05-03T13:19:35Z</time></trkpt><trkpt lat="46.03192056316054" lon="12.047764059534979"><ele>341.0</ele><time>2026-05-03T13:19:36Z</time></trkpt><trkpt lat="46.031899695531386" lon="12.047660911296273"><ele>341.0</ele><time>2026-05-03T13:19:37Z</time></trkpt><trkpt lat="46.031916281893665" lon="12.04750710645534"><ele>341.0</ele><time>2026-05-03T13:19:39Z</time></trkpt><trkpt lat="46.03198590398883" lon="12.047472143746713"><ele>341.0</ele><time>2026-05-03T13:19:41Z</time></trkpt><trkpt lat="46.03204278773894" lon="12.047422817918394"><ele>341.0</ele><time>2026-05-03T13:19:42Z</time></trkpt><trkpt lat="46.03211887381497" lon="12.04738040939804"><ele>341.0</ele><time>2026-05-03T13:19:43Z</time></trkpt><trkpt lat="46.03221405342984" lon="12.047339033380164"><ele>341.0</ele><time>2026-05-03T13:19:44Z</time></trkpt><trkpt lat="46.032342912088076" lon="12.047287099757408"><ele>339.8</ele><time>2026-05-03T13:19:45Z</time></trkpt><trkpt lat="46.032466965914765" lon="12.04722550913075"><ele>338.6</ele><time>2026-05-03T13:19:46Z</time></trkpt><trkpt lat="46.03256249076963" lon="12.047177164183285"><ele>337.4</ele><time>2026-05-03T13:19:47Z</time></trkpt><trkpt lat="46.032643683110905" lon="12.047144635130556"><ele>336.2</ele><time>2026-05-03T13:19:48Z</time></trkpt><trkpt lat="46.0327667703362" lon="12.047111553443688"><ele>335.0</ele><time>2026-05-03T13:19:50Z</time></trkpt><trkpt lat="46.03283951384685" lon="12.047100870379728"><ele>335.0</ele><time>2026-05-03T13:19:51Z</time></trkpt><trkpt lat="46.03292208070746" lon="12.047101059149407"><ele>335.0</ele><time>2026-05-03T13:19:52Z</time></trkpt><trkpt lat="46.03302072737919" lon="12.047117818345344"><ele>335.0</ele><time>2026-05-03T13:19:53Z</time></trkpt><trkpt lat="46.03311609089146" lon="12.047133659730703"><ele>335.0</ele><time>2026-05-03T13:19:54Z</time></trkpt><trkpt lat="46.033204002100604" lon="12.047122400938257"><ele>335.0</ele><time>2026-05-03T13:19:55Z</time></trkpt><trkpt lat="46.03328297875116" lon="12.047101823506418"><ele>335.0</ele><time>2026-05-03T13:19:56Z</time></trkpt><trkpt lat="46.03335695079073" lon="12.047050636012498"><ele>333.8</ele><time>2026-05-03T13:19:56.999Z</time></trkpt><trkpt lat="46.033422522391014" lon="12.046947929074237"><ele>332.6</ele><time>2026-05-03T13:19:57.999Z</time></trkpt><trkpt lat="46.03350112265205" lon="12.04682810582054"><ele>331.4</ele><time>2026-05-03T13:19:58.999Z</time></trkpt><trkpt lat="46.033582363482694" lon="12.046704268875615"><ele>330.2</ele><time>2026-05-03T13:19:59.999Z</time></trkpt><trkpt lat="46.03366333275966" lon="12.046577842993496"><ele>329.0</ele><time>2026-05-03T13:20:00.999Z</time></trkpt><trkpt lat="46.033751164804244" lon="12.046459952616859"><ele>329.0</ele><time>2026-05-03T13:20:01.999Z</time></trkpt><trkpt lat="46.033838578665396" lon="12.046334118940573"><ele>329.0</ele><time>2026-05-03T13:20:02.999Z</time></trkpt><trkpt lat="46.033925356027446" lon="12.046224905532812"><ele>329.0</ele><time>2026-05-03T13:20:03.999Z</time></trkpt><trkpt lat="46.03402050784628" lon="12.046156881732447"><ele>329.0</ele><time>2026-05-03T13:20:04.999Z</time></trkpt><trkpt lat="46.03409471487041" lon="12.04610008387982"><ele>329.0</ele><time>2026-05-03T13:20:05.999Z</time></trkpt><trkpt lat="46.0341596985572" lon="12.046068747552335"><ele>334.0</ele><time>2026-05-03T13:20:06.999Z</time></trkpt><trkpt lat="46.034269468015175" lon="12.046077991834702"><ele>339.0</ele><time>2026-05-03T13:20:08.999Z</time></trkpt><trkpt lat="46.034395609589744" lon="12.046212394086886"><ele>344.0</ele><time>2026-05-03T13:20:10.999Z</time></trkpt><trkpt lat="46.034486390004325" lon="12.04628862637859"><ele>349.0</ele><time>2026-05-03T13:20:11.999Z</time></trkpt><trkpt lat="46.03458294899337" lon="12.046333077132095"><ele>349.0</ele><time>2026-05-03T13:20:12.999Z</time></trkpt><trkpt lat="46.034680057561005" lon="12.046378717942806"><ele>349.0</ele><time>2026-05-03T13:20:14Z</time></trkpt><trkpt lat="46.034778231041415" lon="12.0463888099198"><ele>349.0</ele><time>2026-05-03T13:20:15Z</time></trkpt><trkpt lat="46.034884388662086" lon="12.046365796895921"><ele>349.0</ele><time>2026-05-03T13:20:16Z</time></trkpt><trkpt lat="46.03498881293849" lon="12.046334387126892"><ele>349.0</ele><time>2026-05-03T13:20:17Z</time></trkpt><trkpt lat="46.03507897854614" lon="12.046300583634622"><ele>350.8333333333333</ele><time>2026-05-03T13:20:18Z</time></trkpt><trkpt lat="46.03515696721267" lon="12.046267011653304"><ele>352.66666666666663</ele><time>2026-05-03T13:20:19Z</time></trkpt><trkpt lat="46.03524640919855" lon="12.046286359289399"><ele>354.5</ele><time>2026-05-03T13:20:21Z</time></trkpt><trkpt lat="46.035250069272664" lon="12.046393029265806"><ele>356.3333333333333</ele><time>2026-05-03T13:20:22Z</time></trkpt><trkpt lat="46.035270065845296" lon="12.04650547144879"><ele>358.1666666666667</ele><time>2026-05-03T13:20:23Z</time></trkpt><trkpt lat="46.035295148923915" lon="12.046643249968616"><ele>360.0</ele><time>2026-05-03T13:20:24Z</time></trkpt><trkpt lat="46.03531666413149" lon="12.046784493335556"><ele>362.5</ele><time>2026-05-03T13:20:25Z</time></trkpt><trkpt lat="46.035336631093635" lon="12.046913634454228"><ele>365.0</ele><time>2026-05-03T13:20:26Z</time></trkpt><trkpt lat="46.035365458267464" lon="12.047037345362316"><ele>367.5</ele><time>2026-05-03T13:20:27Z</time></trkpt><trkpt lat="46.035419397025315" lon="12.047128835122932"><ele>370.0</ele><time>2026-05-03T13:20:28Z</time></trkpt><trkpt lat="46.03546851928793" lon="12.047223216316276"><ele>372.5</ele><time>2026-05-03T13:20:29Z</time></trkpt><trkpt lat="46.03544007133831" lon="12.047305182175092"><ele>375.0</ele><time>2026-05-03T13:20:30Z</time></trkpt><trkpt lat="46.035454361212466" lon="12.047417307387796"><ele>378.4</ele><time>2026-05-03T13:20:31Z</time></trkpt><trkpt lat="46.03546899110893" lon="12.047524638662532"><ele>381.8</ele><time>2026-05-03T13:20:32Z</time></trkpt><trkpt lat="46.03548672252858" lon="12.047632220778958"><ele>385.20000000000005</ele><time>2026-05-03T13:20:33Z</time></trkpt><trkpt lat="46.03556115538593" lon="12.047763758003997"><ele>388.6</ele><time>2026-05-03T13:20:35Z</time></trkpt><trkpt lat="46.035645631329615" lon="12.047718784551927"><ele>392.0</ele><time>2026-05-03T13:20:37Z</time></trkpt><trkpt lat="46.03571747125247" lon="12.047593585122877"><ele>392.0</ele><time>2026-05-03T13:20:38Z</time></trkpt><trkpt lat="46.035798495126876" lon="12.04752013057526"><ele>392.0</ele><time>2026-05-03T13:20:39Z</time></trkpt><trkpt lat="46.03591330918903" lon="12.047436869210344"><ele>392.0</ele><time>2026-05-03T13:20:40Z</time></trkpt><trkpt lat="46.03598966502044" lon="12.047383699932233"><ele>392.0</ele><time>2026-05-03T13:20:41Z</time></trkpt><trkpt lat="46.036070230441055" lon="12.047309641019858"><ele>392.0</ele><time>2026-05-03T13:20:42Z</time></trkpt><trkpt lat="46.03612010741211" lon="12.047231275291233"><ele>385.66666666666663</ele><time>2026-05-03T13:20:43Z</time></trkpt><trkpt lat="46.03613964885361" lon="12.047118005594976"><ele>379.3333333333333</ele><time>2026-05-03T13:20:44Z</time></trkpt><trkpt lat="46.03613210873916" lon="12.046987714452616"><ele>373.0</ele><time>2026-05-03T13:20:45Z</time></trkpt><trkpt lat="46.03614002847048" lon="12.04688336484925"><ele>366.66666666666663</ele><time>2026-05-03T13:20:46Z</time></trkpt><trkpt lat="46.036167195926495" lon="12.046794306228657"><ele>360.3333333333333</ele><time>2026-05-03T13:20:47Z</time></trkpt><trkpt lat="46.036278804673046" lon="12.046687308521769"><ele>354.0</ele><time>2026-05-03T13:20:49Z</time></trkpt><trkpt lat="46.036351094444036" lon="12.04660965349378"><ele>353.1666666666667</ele><time>2026-05-03T13:20:50Z</time></trkpt><trkpt lat="46.03643037923976" lon="12.04653115111869"><ele>352.3333333333333</ele><time>2026-05-03T13:20:51Z</time></trkpt><trkpt lat="46.03650940230763" lon="12.046462531573939"><ele>351.5</ele><time>2026-05-03T13:20:52Z</time></trkpt><trkpt lat="46.03658548996257" lon="12.0464178020349"><ele>350.66666666666663</ele><time>2026-05-03T13:20:53Z</time></trkpt><trkpt lat="46.036651587951624" lon="12.04641580450489"><ele>349.8333333333333</ele><time>2026-05-03T13:20:54Z</time></trkpt><trkpt lat="46.036717609777085" lon="12.046474186317075"><ele>349.0</ele><time>2026-05-03T13:20:55Z</time></trkpt><trkpt lat="46.03682151804844" lon="12.046472200061135"><ele>348.99999999999994</ele><time>2026-05-03T13:20:57Z</time></trkpt><trkpt lat="46.03688006584671" lon="12.046418505226885"><ele>349.0</ele><time>2026-05-03T13:20:58Z</time></trkpt><trkpt lat="46.03692981491013" lon="12.046339010659919"><ele>349.0</ele><time>2026-05-03T13:20:59Z</time></trkpt><trkpt lat="46.03697867923988" lon="12.046264494588687"><ele>349.0</ele><time>2026-05-03T13:21:00Z</time></trkpt><trkpt lat="46.03703087861086" lon="12.046184109037481"><ele>349.0</ele><time>2026-05-03T13:21:01Z</time></trkpt><trkpt lat="46.037078808067264" lon="12.046100477284778"><ele>348.99999999999994</ele><time>2026-05-03T13:21:02Z</time></trkpt><trkpt lat="46.03712424311423" lon="12.04601900705183"><ele>349.0</ele><time>2026-05-03T13:21:03Z</time></trkpt><trkpt lat="46.03721317662504" lon="12.045880601247811"><ele>349.79999999999995</ele><time>2026-05-03T13:21:05Z</time></trkpt><trkpt lat="46.03725410746036" lon="12.045789130807606"><ele>350.59999999999997</ele><time>2026-05-03T13:21:06Z</time></trkpt><trkpt lat="46.037306364934615" lon="12.045697317641777"><ele>351.4</ele><time>2026-05-03T13:21:07Z</time></trkpt><trkpt lat="46.037365181189685" lon="12.045579161453288"><ele>352.2</ele><time>2026-05-03T13:21:08Z</time></trkpt><trkpt lat="46.03741930610564" lon="12.045455953585314"><ele>353.0</ele><time>2026-05-03T13:21:09Z</time></trkpt><trkpt lat="46.03747194721662" lon="12.045333777784583"><ele>353.0</ele><time>2026-05-03T13:21:10Z</time></trkpt><trkpt lat="46.03751607186872" lon="12.045236039178882"><ele>353.0</ele><time>2026-05-03T13:21:11Z</time></trkpt><trkpt lat="46.03758866575372" lon="12.04510914645881"><ele>353.0</ele><time>2026-05-03T13:21:12.999Z</time></trkpt><trkpt lat="46.037634106369275" lon="12.04502844733823"><ele>353.0</ele><time>2026-05-03T13:21:13.999Z</time></trkpt><trkpt lat="46.03771568130163" lon="12.04497994384282"><ele>353.0</ele><time>2026-05-03T13:21:14.999Z</time></trkpt><trkpt lat="46.03779831900614" lon="12.044916013168113"><ele>353.0</ele><time>2026-05-03T13:21:15.999Z</time></trkpt><trkpt lat="46.03788637993966" lon="12.04485976455957"><ele>351.79999999999995</ele><time>2026-05-03T13:21:16.999Z</time></trkpt><trkpt lat="46.03796880130415" lon="12.044796190554447"><ele>350.6</ele><time>2026-05-03T13:21:17.999Z</time></trkpt><trkpt lat="46.038059872544096" lon="12.044780706383188"><ele>349.4</ele><time>2026-05-03T13:21:18.999Z</time></trkpt><trkpt lat="46.03815982770016" lon="12.044758345006592"><ele>348.20000000000005</ele><time>2026-05-03T13:21:19.999Z</time></trkpt><trkpt lat="46.03825969312267" lon="12.04473221993493"><ele>347.0</ele><time>2026-05-03T13:21:20.999Z</time></trkpt><trkpt lat="46.03836273988506" lon="12.04470456886928"><ele>347.0</ele><time>2026-05-03T13:21:21.999Z</time></trkpt><trkpt lat="46.038460774616105" lon="12.044665421213015"><ele>347.0</ele><time>2026-05-03T13:21:22.999Z</time></trkpt><trkpt lat="46.03856248135956" lon="12.044619524513546"><ele>347.0</ele><time>2026-05-03T13:21:23.999Z</time></trkpt><trkpt lat="46.03866147659923" lon="12.044562000246698"><ele>347.0</ele><time>2026-05-03T13:21:24.999Z</time></trkpt><trkpt lat="46.03875796690399" lon="12.044490419771947"><ele>347.0</ele><time>2026-05-03T13:21:25.999Z</time></trkpt><trkpt lat="46.038852678326265" lon="12.044404457323365"><ele>347.0</ele><time>2026-05-03T13:21:26.999Z</time></trkpt><trkpt lat="46.038943403833144" lon="12.044301161832733"><ele>347.0</ele><time>2026-05-03T13:21:27.999Z</time></trkpt><trkpt lat="46.0390242661717" lon="12.044196902386638"><ele>347.0</ele><time>2026-05-03T13:21:28.999Z</time></trkpt><trkpt lat="46.03909461389177" lon="12.044089036456949"><ele>347.0</ele><time>2026-05-03T13:21:29.999Z</time></trkpt><trkpt lat="46.039161119981756" lon="12.043974071601994"><ele>347.0</ele><time>2026-05-03T13:21:30.999Z</time></trkpt><trkpt lat="46.03923479840442" lon="12.043866201107452"><ele>344.40000000000003</ele><time>2026-05-03T13:21:31.999Z</time></trkpt><trkpt lat="46.03931338350169" lon="12.043758188009324"><ele>341.8</ele><time>2026-05-03T13:21:32.999Z</time></trkpt><trkpt lat="46.0394116294743" lon="12.04367590460618"><ele>339.2</ele><time>2026-05-03T13:21:33.999Z</time></trkpt><trkpt lat="46.039499851727896" lon="12.043586387720547"><ele>336.6</ele><time>2026-05-03T13:21:34.999Z</time></trkpt><trkpt lat="46.03959417948545" lon="12.043515424027941"><ele>334.0</ele><time>2026-05-03T13:21:35.999Z</time></trkpt><trkpt lat="46.03970509061067" lon="12.043453237319696"><ele>334.0</ele><time>2026-05-03T13:21:36.999Z</time></trkpt><trkpt lat="46.039828308835475" lon="12.043371199398944"><ele>334.0</ele><time>2026-05-03T13:21:37.999Z</time></trkpt><trkpt lat="46.03995174748231" lon="12.043322988372825"><ele>334.0</ele><time>2026-05-03T13:21:38.999Z</time></trkpt><trkpt lat="46.04006883224522" lon="12.043257481510159"><ele>334.0</ele><time>2026-05-03T13:21:39.999Z</time></trkpt><trkpt lat="46.0401815111322" lon="12.043173964074557"><ele>333.2</ele><time>2026-05-03T13:21:40.999Z</time></trkpt><trkpt lat="46.040282684512384" lon="12.043076295703468"><ele>332.4</ele><time>2026-05-03T13:21:41.999Z</time></trkpt><trkpt lat="46.040367347204906" lon="12.042971437490747"><ele>331.6</ele><time>2026-05-03T13:21:42.999Z</time></trkpt><trkpt lat="46.040421406930044" lon="12.042861212450406"><ele>330.8</ele><time>2026-05-03T13:21:43.999Z</time></trkpt><trkpt lat="46.040441388106515" lon="12.042742270200618"><ele>330.0</ele><time>2026-05-03T13:21:44.999Z</time></trkpt><trkpt lat="46.04043445789444" lon="12.042626775073442"><ele>330.00000000000006</ele><time>2026-05-03T13:21:45.999Z</time></trkpt><trkpt lat="46.04042384104475" lon="12.042522325495801"><ele>330.0</ele><time>2026-05-03T13:21:46.999Z</time></trkpt><trkpt lat="46.0404371308134" lon="12.042424569796042"><ele>330.0</ele><time>2026-05-03T13:21:47.999Z</time></trkpt><trkpt lat="46.04047902343788" lon="12.042354347362135"><ele>330.0</ele><time>2026-05-03T13:21:48.999Z</time></trkpt><trkpt lat="46.04055249412584" lon="12.042367880805191"><ele>330.0</ele><time>2026-05-03T13:21:49.999Z</time></trkpt><trkpt lat="46.04062012168881" lon="12.042334194503956"><ele>330.00000000000006</ele><time>2026-05-03T13:21:50.999Z</time></trkpt><trkpt lat="46.040709014918846" lon="12.042294034172984"><ele>330.0</ele><time>2026-05-03T13:21:51.999Z</time></trkpt><trkpt lat="46.040816588065596" lon="12.042244067044196"><ele>329.6</ele><time>2026-05-03T13:21:52.999Z</time></trkpt><trkpt lat="46.04091739862696" lon="12.042182929889854"><ele>329.2</ele><time>2026-05-03T13:21:53.999Z</time></trkpt><trkpt lat="46.04102706774459" lon="12.042133997438262"><ele>328.79999999999995</ele><time>2026-05-03T13:21:54.999Z</time></trkpt><trkpt lat="46.04112519376101" lon="12.042080818216245"><ele>328.4</ele><time>2026-05-03T13:21:55.999Z</time></trkpt><trkpt lat="46.04121967826566" lon="12.042017062934233"><ele>328.0</ele><time>2026-05-03T13:21:56.999Z</time></trkpt><trkpt lat="46.04129865369753" lon="12.041925075403785"><ele>328.0</ele><time>2026-05-03T13:21:57.999Z</time></trkpt><trkpt lat="46.04137918040021" lon="12.04186473649546"><ele>328.0</ele><time>2026-05-03T13:21:58.999Z</time></trkpt><trkpt lat="46.04145548515411" lon="12.041791111453325"><ele>328.0</ele><time>2026-05-03T13:21:59.999Z</time></trkpt><trkpt lat="46.041524047858935" lon="12.041724956465439"><ele>328.0</ele><time>2026-05-03T13:22:00.999Z</time></trkpt><trkpt lat="46.04158788919341" lon="12.041664134396193"><ele>328.0</ele><time>2026-05-03T13:22:01.999Z</time></trkpt><trkpt lat="46.04165630778436" lon="12.041601066405002"><ele>328.0</ele><time>2026-05-03T13:22:02.998Z</time></trkpt><trkpt lat="46.04172905276463" lon="12.041536568571177"><ele>327.16666666666663</ele><time>2026-05-03T13:22:03.998Z</time></trkpt><trkpt lat="46.04180470408472" lon="12.041471318086383"><ele>326.3333333333333</ele><time>2026-05-03T13:22:04.998Z</time></trkpt><trkpt lat="46.04188895033959" lon="12.041404813549235"><ele>325.5</ele><time>2026-05-03T13:22:05.998Z</time></trkpt><trkpt lat="46.04196670870771" lon="12.041376740055933"><ele>324.6666666666667</ele><time>2026-05-03T13:22:06.998Z</time></trkpt><trkpt lat="46.04205691105775" lon="12.041363196341091"><ele>323.83333333333337</ele><time>2026-05-03T13:22:07.998Z</time></trkpt><trkpt lat="46.042128636054834" lon="12.041368099122774"><ele>323.0</ele><time>2026-05-03T13:22:08.998Z</time></trkpt><trkpt lat="46.042225150888044" lon="12.041470398150034"><ele>323.0</ele><time>2026-05-03T13:22:10.998Z</time></trkpt><trkpt lat="46.042255819379164" lon="12.041591989933671"><ele>323.0</ele><time>2026-05-03T13:22:11.998Z</time></trkpt><trkpt lat="46.04231431011116" lon="12.041681634459442"><ele>323.0</ele><time>2026-05-03T13:22:12.998Z</time></trkpt><trkpt lat="46.04236862025847" lon="12.041755668255535"><ele>323.0</ele><time>2026-05-03T13:22:13.998Z</time></trkpt><trkpt lat="46.04248273446483" lon="12.041839318614857"><ele>323.0</ele><time>2026-05-03T13:22:15.998Z</time></trkpt><trkpt lat="46.04257395976408" lon="12.041882759284075"><ele>323.75</ele><time>2026-05-03T13:22:17.998Z</time></trkpt><trkpt lat="46.04266565661559" lon="12.041634453254696"><ele>324.5</ele><time>2026-05-03T13:22:18.998Z</time></trkpt><trkpt lat="46.0427369165593" lon="12.041506581053996"><ele>325.25</ele><time>2026-05-03T13:22:19.998Z</time></trkpt><trkpt lat="46.042823092800774" lon="12.041362729031745"><ele>326.0</ele><time>2026-05-03T13:22:20.998Z</time></trkpt><trkpt lat="46.04290147587257" lon="12.04123489803635"><ele>326.0</ele><time>2026-05-03T13:22:21.998Z</time></trkpt><trkpt lat="46.043001245458136" lon="12.041121195257245"><ele>326.0</ele><time>2026-05-03T13:22:22.999Z</time></trkpt><trkpt lat="46.04308952669032" lon="12.041017959920126"><ele>326.0</ele><time>2026-05-03T13:22:23.999Z</time></trkpt><trkpt lat="46.043167864632224" lon="12.040960157577869"><ele>326.0</ele><time>2026-05-03T13:22:24.999Z</time></trkpt><trkpt lat="46.04325133427844" lon="12.040927871712517"><ele>326.0</ele><time>2026-05-03T13:22:25.999Z</time></trkpt><trkpt lat="46.04333211614077" lon="12.04089200866334"><ele>327.33333333333337</ele><time>2026-05-03T13:22:26.999Z</time></trkpt><trkpt lat="46.04341878014814" lon="12.040876376847574"><ele>328.6666666666667</ele><time>2026-05-03T13:22:27.999Z</time></trkpt><trkpt lat="46.04349545069518" lon="12.040868574987972"><ele>330.0</ele><time>2026-05-03T13:22:28.999Z</time></trkpt><trkpt lat="46.04357167087655" lon="12.040848271319321"><ele>331.3333333333333</ele><time>2026-05-03T13:22:29.999Z</time></trkpt><trkpt lat="46.04365598581617" lon="12.04085916707041"><ele>332.66666666666663</ele><time>2026-05-03T13:22:30.999Z</time></trkpt><trkpt lat="46.043755252814144" lon="12.040834770993193"><ele>334.0</ele><time>2026-05-03T13:22:31.999Z</time></trkpt><trkpt lat="46.043842101564664" lon="12.040855677934625"><ele>334.0</ele><time>2026-05-03T13:22:32.999Z</time></trkpt><trkpt lat="46.043908922144794" lon="12.040954176653436"><ele>334.0</ele><time>2026-05-03T13:22:33.999Z</time></trkpt><trkpt lat="46.04395083461574" lon="12.041064980476559"><ele>334.0</ele><time>2026-05-03T13:22:34.999Z</time></trkpt><trkpt lat="46.04403340300583" lon="12.041191756880993"><ele>334.0</ele><time>2026-05-03T13:22:35.999Z</time></trkpt><trkpt lat="46.044107088218425" lon="12.041366516417407"><ele>334.0</ele><time>2026-05-03T13:22:36.999Z</time></trkpt><trkpt lat="46.04419784696641" lon="12.041542938094159"><ele>331.5</ele><time>2026-05-03T13:22:37.999Z</time></trkpt><trkpt lat="46.044290615976756" lon="12.041712962122977"><ele>329.0</ele><time>2026-05-03T13:22:38.999Z</time></trkpt><trkpt lat="46.044375182451745" lon="12.041858042395509"><ele>326.5</ele><time>2026-05-03T13:22:39.999Z</time></trkpt><trkpt lat="46.044461589424856" lon="12.041980922021448"><ele>324.0</ele><time>2026-05-03T13:22:40.999Z</time></trkpt><trkpt lat="46.04456194186709" lon="12.042075578637265"><ele>324.0</ele><time>2026-05-03T13:22:41.999Z</time></trkpt><trkpt lat="46.044678752223916" lon="12.042129511498157"><ele>324.0</ele><time>2026-05-03T13:22:42.999Z</time></trkpt><trkpt lat="46.04480156012668" lon="12.042147915005769"><ele>324.0</ele><time>2026-05-03T13:22:43.999Z</time></trkpt><trkpt lat="46.04492294566851" lon="12.042151249223584"><ele>324.0</ele><time>2026-05-03T13:22:44.999Z</time></trkpt><trkpt lat="46.04502758636536" lon="12.042169083177676"><ele>323.6666666666667</ele><time>2026-05-03T13:22:45.999Z</time></trkpt><trkpt lat="46.045121540373174" lon="12.042194553859948"><ele>323.3333333333333</ele><time>2026-05-03T13:22:46.999Z</time></trkpt><trkpt lat="46.04519464916381" lon="12.0422171912926"><ele>323.0</ele><time>2026-05-03T13:22:47.999Z</time></trkpt><trkpt lat="46.045258966714066" lon="12.042229733973853"><ele>322.66666666666663</ele><time>2026-05-03T13:22:49.999Z</time></trkpt><trkpt lat="46.04532648299575" lon="12.042125090022633"><ele>322.3333333333333</ele><time>2026-05-03T13:22:52.999Z</time></trkpt><trkpt lat="46.04536581652026" lon="12.042023553368809"><ele>322.0</ele><time>2026-05-03T13:22:53.999Z</time></trkpt><trkpt lat="46.04541442995735" lon="12.041932018679502"><ele>322.0</ele><time>2026-05-03T13:22:54.999Z</time></trkpt><trkpt lat="46.0454690599327" lon="12.041815103158958"><ele>322.0</ele><time>2026-05-03T13:22:55.999Z</time></trkpt><trkpt lat="46.045534587836066" lon="12.041723465775947"><ele>322.0</ele><time>2026-05-03T13:22:56.999Z</time></trkpt><trkpt lat="46.04560870675539" lon="12.041700107868412"><ele>322.0</ele><time>2026-05-03T13:22:57.999Z</time></trkpt><trkpt lat="46.04568559433832" lon="12.04166189113477"><ele>322.0</ele><time>2026-05-03T13:22:58.999Z</time></trkpt><trkpt lat="46.045765726262886" lon="12.0415940579037"><ele>322.0</ele><time>2026-05-03T13:22:59.999Z</time></trkpt><trkpt lat="46.04583562810714" lon="12.041526118467353"><ele>321.40000000000003</ele><time>2026-05-03T13:23:00.999Z</time></trkpt><trkpt lat="46.04587418923952" lon="12.041422575157746"><ele>320.8</ele><time>2026-05-03T13:23:01.999Z</time></trkpt><trkpt lat="46.0458880273481" lon="12.041289644296484"><ele>320.2</ele><time>2026-05-03T13:23:02.999Z</time></trkpt><trkpt lat="46.04589799138162" lon="12.041135470789959"><ele>319.6</ele><time>2026-05-03T13:23:03.999Z</time></trkpt><trkpt lat="46.04589849415495" lon="12.040978243017745"><ele>319.0</ele><time>2026-05-03T13:23:04.999Z</time></trkpt><trkpt lat="46.045886403715684" lon="12.04079558822841"><ele>319.0</ele><time>2026-05-03T13:23:05.999Z</time></trkpt><trkpt lat="46.04588177807039" lon="12.040623513758007"><ele>319.0</ele><time>2026-05-03T13:23:06.999Z</time></trkpt><trkpt lat="46.045860614789234" lon="12.040468722731273"><ele>319.0</ele><time>2026-05-03T13:23:07.999Z</time></trkpt><trkpt lat="46.045853726727614" lon="12.04031403749212"><ele>319.0</ele><time>2026-05-03T13:23:08.999Z</time></trkpt><trkpt lat="46.045865798316385" lon="12.040162270309436"><ele>319.0</ele><time>2026-05-03T13:23:09.999Z</time></trkpt><trkpt lat="46.04586847820006" lon="12.040012781631718"><ele>318.5</ele><time>2026-05-03T13:23:10.999Z</time></trkpt><trkpt lat="46.04588973020366" lon="12.039854322712525"><ele>318.0</ele><time>2026-05-03T13:23:11.999Z</time></trkpt><trkpt lat="46.04590658782127" lon="12.03966855042355"><ele>317.5</ele><time>2026-05-03T13:23:12.999Z</time></trkpt><trkpt lat="46.0459150285949" lon="12.039470932115536"><ele>317.0</ele><time>2026-05-03T13:23:13.999Z</time></trkpt><trkpt lat="46.04591841220643" lon="12.039267951134583"><ele>316.25</ele><time>2026-05-03T13:23:14.999Z</time></trkpt><trkpt lat="46.04591944301978" lon="12.039067239295079"><ele>315.5</ele><time>2026-05-03T13:23:15.999Z</time></trkpt><trkpt lat="46.045915196962724" lon="12.038890433656364"><ele>314.75</ele><time>2026-05-03T13:23:16.999Z</time></trkpt><trkpt lat="46.045924930303364" lon="12.038732908774929"><ele>314.0</ele><time>2026-05-03T13:23:17.999Z</time></trkpt><trkpt lat="46.04594715313059" lon="12.03861200189182"><ele>314.0</ele><time>2026-05-03T13:23:18.999Z</time></trkpt><trkpt lat="46.04597657762541" lon="12.038515278508324"><ele>314.0</ele><time>2026-05-03T13:23:19.999Z</time></trkpt><trkpt lat="46.04602537312908" lon="12.038418483919836"><ele>314.0</ele><time>2026-05-03T13:23:20.999Z</time></trkpt><trkpt lat="46.04608483825797" lon="12.038312821751306"><ele>314.0</ele><time>2026-05-03T13:23:21.999Z</time></trkpt><trkpt lat="46.046161013326966" lon="12.038207089074346"><ele>314.0</ele><time>2026-05-03T13:23:22.999Z</time></trkpt><trkpt lat="46.04624224777897" lon="12.038086031594478"><ele>313.5</ele><time>2026-05-03T13:23:23.999Z</time></trkpt><trkpt lat="46.046313710477264" lon="12.037952264369665"><ele>313.0</ele><time>2026-05-03T13:23:24.999Z</time></trkpt><trkpt lat="46.04637155979037" lon="12.037789810545261"><ele>312.5</ele><time>2026-05-03T13:23:25.999Z</time></trkpt><trkpt lat="46.046436027176895" lon="12.03764943207452"><ele>312.0</ele><time>2026-05-03T13:23:26.999Z</time></trkpt><trkpt lat="46.04649039037722" lon="12.037517415557824"><ele>312.2</ele><time>2026-05-03T13:23:27.999Z</time></trkpt><trkpt lat="46.04652130976314" lon="12.037384240663073"><ele>312.4</ele><time>2026-05-03T13:23:28.999Z</time></trkpt><trkpt lat="46.046518350968434" lon="12.037248728075726"><ele>312.6</ele><time>2026-05-03T13:23:29.999Z</time></trkpt><trkpt lat="46.04648536431462" lon="12.037124909207485"><ele>312.8</ele><time>2026-05-03T13:23:30.999Z</time></trkpt><trkpt lat="46.04642013129698" lon="12.0370207975635"><ele>313.0</ele><time>2026-05-03T13:23:31.999Z</time></trkpt><trkpt lat="46.04633955795758" lon="12.036939067514174"><ele>313.0</ele><time>2026-05-03T13:23:32.999Z</time></trkpt><trkpt lat="46.04624718721886" lon="12.036860287931397"><ele>313.0</ele><time>2026-05-03T13:23:33.999Z</time></trkpt><trkpt lat="46.04620923525336" lon="12.036731654153634"><ele>313.0</ele><time>2026-05-03T13:23:34.999Z</time></trkpt><trkpt lat="46.046173082357484" lon="12.036608969183384"><ele>313.0</ele><time>2026-05-03T13:23:35.999Z</time></trkpt><trkpt lat="46.046139104654124" lon="12.036470552935763"><ele>313.0</ele><time>2026-05-03T13:23:36.999Z</time></trkpt><trkpt lat="46.04611821928715" lon="12.036315612373873"><ele>312.5</ele><time>2026-05-03T13:23:37.999Z</time></trkpt><trkpt lat="46.046107385093" lon="12.036140563439485"><ele>312.0</ele><time>2026-05-03T13:23:38.999Z</time></trkpt><trkpt lat="46.0460835762746" lon="12.0359750194787"><ele>311.5</ele><time>2026-05-03T13:23:39.999Z</time></trkpt><trkpt lat="46.04603770451674" lon="12.035815963262701"><ele>311.0</ele><time>2026-05-03T13:23:40.999Z</time></trkpt><trkpt lat="46.04599527155172" lon="12.035657442789486"><ele>310.25</ele><time>2026-05-03T13:23:41.999Z</time></trkpt><trkpt lat="46.04593414778439" lon="12.035507924043756"><ele>309.5</ele><time>2026-05-03T13:23:42.999Z</time></trkpt><trkpt lat="46.04584912088865" lon="12.035379088897527"><ele>308.75</ele><time>2026-05-03T13:23:43.999Z</time></trkpt><trkpt lat="46.04576250901191" lon="12.035283847241274"><ele>308.0</ele><time>2026-05-03T13:23:44.999Z</time></trkpt><trkpt lat="46.045691435327555" lon="12.035181815317364"><ele>308.0</ele><time>2026-05-03T13:23:45.999Z</time></trkpt><trkpt lat="46.04562550715291" lon="12.035083956516504"><ele>308.0</ele><time>2026-05-03T13:23:46.999Z</time></trkpt><trkpt lat="46.04555863020286" lon="12.034975769309176"><ele>308.0</ele><time>2026-05-03T13:23:47.999Z</time></trkpt><trkpt lat="46.04551317826544" lon="12.034835914210367"><ele>308.0</ele><time>2026-05-03T13:23:48.999Z</time></trkpt><trkpt lat="46.04546028767008" lon="12.034690344363382"><ele>308.0</ele><time>2026-05-03T13:23:49.999Z</time></trkpt><trkpt lat="46.04541507993609" lon="12.034532770870372"><ele>306.75</ele><time>2026-05-03T13:23:50.999Z</time></trkpt><trkpt lat="46.04538758373553" lon="12.034378571399891"><ele>305.5</ele><time>2026-05-03T13:23:51.999Z</time></trkpt><trkpt lat="46.045378986439225" lon="12.034210819972941"><ele>304.25</ele><time>2026-05-03T13:23:52.999Z</time></trkpt><trkpt lat="46.045366245112035" lon="12.034031303855866"><ele>303.0</ele><time>2026-05-03T13:23:53.999Z</time></trkpt><trkpt lat="46.04534399509494" lon="12.033846602863036"><ele>300.0</ele><time>2026-05-03T13:23:54.999Z</time></trkpt><trkpt lat="46.045335253105584" lon="12.033667394485953"><ele>297.0</ele><time>2026-05-03T13:23:55.999Z</time></trkpt><trkpt lat="46.04530313652511" lon="12.033490332382312"><ele>294.0</ele><time>2026-05-03T13:23:56.999Z</time></trkpt><trkpt lat="46.04525195679882" lon="12.03331609816993"><ele>291.0</ele><time>2026-05-03T13:23:57.999Z</time></trkpt><trkpt lat="46.045204275126046" lon="12.033155555880048"><ele>289.6</ele><time>2026-05-03T13:23:58.999Z</time></trkpt><trkpt lat="46.045183093054824" lon="12.032990941992772"><ele>288.20000000000005</ele><time>2026-05-03T13:23:59.999Z</time></trkpt><trkpt lat="46.04516287037818" lon="12.032840819028365"><ele>286.79999999999995</ele><time>2026-05-03T13:24:00.999Z</time></trkpt><trkpt lat="46.045155704157665" lon="12.032691063870407"><ele>285.4</ele><time>2026-05-03T13:24:01.999Z</time></trkpt><trkpt lat="46.045168768969276" lon="12.032538263025238"><ele>284.0</ele><time>2026-05-03T13:24:02.999Z</time></trkpt><trkpt lat="46.045193747018295" lon="12.032393032866047"><ele>282.2</ele><time>2026-05-03T13:24:03.999Z</time></trkpt><trkpt lat="46.0452331475613" lon="12.032256172094682"><ele>280.4</ele><time>2026-05-03T13:24:05Z</time></trkpt><trkpt lat="46.04528060530885" lon="12.032127290709113"><ele>278.6</ele><time>2026-05-03T13:24:06Z</time></trkpt><trkpt lat="46.045337484601475" lon="12.032006526744103"><ele>276.8</ele><time>2026-05-03T13:24:07Z</time></trkpt><trkpt lat="46.04539762125394" lon="12.031911850869019"><ele>275.0</ele><time>2026-05-03T13:24:08Z</time></trkpt><trkpt lat="46.04546260482687" lon="12.031843910917086"><ele>275.0</ele><time>2026-05-03T13:24:08.998Z</time></trkpt><trkpt lat="46.04554838550233" lon="12.031790535095212"><ele>275.0</ele><time>2026-05-03T13:24:09.998Z</time></trkpt><trkpt lat="46.04562649707979" lon="12.03171335465426"><ele>275.0</ele><time>2026-05-03T13:24:10.998Z</time></trkpt><trkpt lat="46.04570309382818" lon="12.031631166031927"><ele>275.0</ele><time>2026-05-03T13:24:11.998Z</time></trkpt><trkpt lat="46.04577410635413" lon="12.03156086954495"><ele>275.0</ele><time>2026-05-03T13:24:12.998Z</time></trkpt><trkpt lat="46.04585045578432" lon="12.03154590543114"><ele>275.0</ele><time>2026-05-03T13:24:13.998Z</time></trkpt><trkpt lat="46.04593834727075" lon="12.031558584539232"><ele>275.0</ele><time>2026-05-03T13:24:14.998Z</time></trkpt><trkpt lat="46.046020748404096" lon="12.031570822050604"><ele>275.0</ele><time>2026-05-03T13:24:15.998Z</time></trkpt><trkpt lat="46.046095934181" lon="12.031567636742489"><ele>275.0</ele><time>2026-05-03T13:24:16.998Z</time></trkpt><trkpt lat="46.04615445378185" lon="12.031509736344798"><ele>275.0</ele><time>2026-05-03T13:24:17.998Z</time></trkpt><trkpt lat="46.046190181854605" lon="12.03139727514667"><ele>275.0</ele><time>2026-05-03T13:24:18.998Z</time></trkpt><trkpt lat="46.04620684411978" lon="12.031261735619978"><ele>275.0</ele><time>2026-05-03T13:24:19.998Z</time></trkpt><trkpt lat="46.046247523026075" lon="12.031141025270053"><ele>275.0</ele><time>2026-05-03T13:24:20.998Z</time></trkpt><trkpt lat="46.04629734323295" lon="12.03104072241357"><ele>275.0</ele><time>2026-05-03T13:24:21.999Z</time></trkpt><trkpt lat="46.046331889457754" lon="12.030923457550623"><ele>275.0</ele><time>2026-05-03T13:24:22.999Z</time></trkpt><trkpt lat="46.04635849516818" lon="12.030816052588438"><ele>275.0</ele><time>2026-05-03T13:24:23.999Z</time></trkpt><trkpt lat="46.04634376431692" lon="12.030692052282799"><ele>275.0</ele><time>2026-05-03T13:24:24.999Z</time></trkpt><trkpt lat="46.04632256897973" lon="12.030569657807787"><ele>275.0</ele><time>2026-05-03T13:24:25.999Z</time></trkpt><trkpt lat="46.04630693752122" lon="12.030454761478907"><ele>274.2</ele><time>2026-05-03T13:24:26.999Z</time></trkpt><trkpt lat="46.04629036808061" lon="12.030346566310017"><ele>273.4</ele><time>2026-05-03T13:24:27.999Z</time></trkpt><trkpt lat="46.04620383453115" lon="12.03023067189068"><ele>272.6</ele><time>2026-05-03T13:24:29.999Z</time></trkpt><trkpt lat="46.04612530128167" lon="12.030252618117567"><ele>271.8</ele><time>2026-05-03T13:24:30.999Z</time></trkpt><trkpt lat="46.046043605551255" lon="12.030330036214282"><ele>271.0</ele><time>2026-05-03T13:24:31.999Z</time></trkpt><trkpt lat="46.045951501627044" lon="12.030417143877834"><ele>271.0</ele><time>2026-05-03T13:24:32.999Z</time></trkpt><trkpt lat="46.04585805295472" lon="12.030495824158328"><ele>271.0</ele><time>2026-05-03T13:24:33.999Z</time></trkpt><trkpt lat="46.045747972284595" lon="12.030571170004682"><ele>271.0</ele><time>2026-05-03T13:24:34.999Z</time></trkpt><trkpt lat="46.045644760028196" lon="12.030654520171005"><ele>271.0</ele><time>2026-05-03T13:24:35.999Z</time></trkpt><trkpt lat="46.045564387368984" lon="12.030715645998047"><ele>271.0</ele><time>2026-05-03T13:24:36.999Z</time></trkpt><trkpt lat="46.045492308012264" lon="12.030758913593479"><ele>270.5</ele><time>2026-05-03T13:24:37.999Z</time></trkpt><trkpt lat="46.04541241130309" lon="12.030782179299212"><ele>270.0</ele><time>2026-05-03T13:24:39.999Z</time></trkpt><trkpt lat="46.045406213293525" lon="12.03068512315109"><ele>269.5</ele><time>2026-05-03T13:24:40.999Z</time></trkpt><trkpt lat="46.04546677331591" lon="12.030578129400142"><ele>269.0</ele><time>2026-05-03T13:24:42.999Z</time></trkpt><trkpt lat="46.04550782335531" lon="12.030494974823581"><ele>268.5</ele><time>2026-05-03T13:24:43.999Z</time></trkpt><trkpt lat="46.045550744326114" lon="12.030405856250747"><ele>268.0</ele><time>2026-05-03T13:24:44.999Z</time></trkpt><trkpt lat="46.04553895278072" lon="12.030277062949466"><ele>268.0</ele><time>2026-05-03T13:24:45.999Z</time></trkpt><trkpt lat="46.04552559458974" lon="12.03014827806533"><ele>268.0</ele><time>2026-05-03T13:24:46.999Z</time></trkpt><trkpt lat="46.04549886479338" lon="12.03002297356544"><ele>268.0</ele><time>2026-05-03T13:24:47.999Z</time></trkpt><trkpt lat="46.0454535806998" lon="12.029909987812278"><ele>268.0</ele><time>2026-05-03T13:24:48.999Z</time></trkpt><trkpt lat="46.04538891892758" lon="12.029809281172396"><ele>268.0</ele><time>2026-05-03T13:24:49.999Z</time></trkpt><trkpt lat="46.04533981210508" lon="12.029697244309018"><ele>267.4</ele><time>2026-05-03T13:24:50.999Z</time></trkpt><trkpt lat="46.04532270017639" lon="12.029564442527223"><ele>266.8</ele><time>2026-05-03T13:24:51.999Z</time></trkpt><trkpt lat="46.04531096464789" lon="12.029439195877131"><ele>266.2</ele><time>2026-05-03T13:24:52.999Z</time></trkpt><trkpt lat="46.045306789803504" lon="12.02928554328452"><ele>265.6</ele><time>2026-05-03T13:24:53.999Z</time></trkpt><trkpt lat="46.045302910710184" lon="12.029139780767961"><ele>265.0</ele><time>2026-05-03T13:24:54.999Z</time></trkpt><trkpt lat="46.04529965137494" lon="12.028986235022305"><ele>264.8</ele><time>2026-05-03T13:24:55.999Z</time></trkpt><trkpt lat="46.04529668979452" lon="12.028842298124514"><ele>264.6</ele><time>2026-05-03T13:24:56.999Z</time></trkpt><trkpt lat="46.04529105099786" lon="12.028708312911107"><ele>264.4</ele><time>2026-05-03T13:24:57.999Z</time></trkpt><trkpt lat="46.045272586960564" lon="12.02856862876428"><ele>264.2</ele><time>2026-05-03T13:24:58.999Z</time></trkpt><trkpt lat="46.045283646924645" lon="12.02842075779584"><ele>264.0</ele><time>2026-05-03T13:24:59.999Z</time></trkpt><trkpt lat="46.04529291149673" lon="12.028251291329603"><ele>264.0</ele><time>2026-05-03T13:25:00.999Z</time></trkpt><trkpt lat="46.04530272000225" lon="12.028061744690403"><ele>264.0</ele><time>2026-05-03T13:25:01.999Z</time></trkpt><trkpt lat="46.04530728579217" lon="12.027854062489073"><ele>264.0</ele><time>2026-05-03T13:25:02.999Z</time></trkpt><trkpt lat="46.04529825032964" lon="12.027657973972502"><ele>264.0</ele><time>2026-05-03T13:25:03.999Z</time></trkpt><trkpt lat="46.045273780445356" lon="12.027494162320732"><ele>264.0</ele><time>2026-05-03T13:25:04.999Z</time></trkpt><trkpt lat="46.04523676457933" lon="12.027338095103733"><ele>264.0</ele><time>2026-05-03T13:25:05.999Z</time></trkpt><trkpt lat="46.04519740459313" lon="12.027181532955751"><ele>264.0</ele><time>2026-05-03T13:25:06.999Z</time></trkpt><trkpt lat="46.045162969176275" lon="12.027018381757054"><ele>264.0</ele><time>2026-05-03T13:25:07.999Z</time></trkpt><trkpt lat="46.04513225272321" lon="12.026854353950192"><ele>264.0</ele><time>2026-05-03T13:25:08.999Z</time></trkpt><trkpt lat="46.04513391954089" lon="12.026683956820076"><ele>264.0</ele><time>2026-05-03T13:25:09.999Z</time></trkpt><trkpt lat="46.04511348713994" lon="12.02649988775732"><ele>264.0</ele><time>2026-05-03T13:25:10.999Z</time></trkpt><trkpt lat="46.04514040774466" lon="12.026313805610075"><ele>264.0</ele><time>2026-05-03T13:25:11.999Z</time></trkpt><trkpt lat="46.045158750920585" lon="12.026119047295694"><ele>264.0</ele><time>2026-05-03T13:25:13Z</time></trkpt><trkpt lat="46.0451782921572" lon="12.025916989003678"><ele>264.0</ele><time>2026-05-03T13:25:14Z</time></trkpt><trkpt lat="46.04519610250881" lon="12.025742843283915"><ele>264.0</ele><time>2026-05-03T13:25:15Z</time></trkpt><trkpt lat="46.045210903237624" lon="12.025588218511658"><ele>264.0</ele><time>2026-05-03T13:25:16Z</time></trkpt><trkpt lat="46.04522453618835" lon="12.02544528809467"><ele>264.0</ele><time>2026-05-03T13:25:17Z</time></trkpt><trkpt lat="46.04523679727841" lon="12.025316740940767"><ele>264.0</ele><time>2026-05-03T13:25:18Z</time></trkpt><trkpt lat="46.045246793095174" lon="12.025211943173556"><ele>264.0</ele><time>2026-05-03T13:25:19Z</time></trkpt><trkpt lat="46.04526004424024" lon="12.025073455910222"><ele>264.0</ele><time>2026-05-03T13:25:21Z</time></trkpt><trkpt lat="46.045044099504416" lon="12.025074196454398"><ele>264.75</ele><time>2026-05-03T13:25:23Z</time></trkpt><trkpt lat="46.04493731835487" lon="12.025099708964497"><ele>265.5</ele><time>2026-05-03T13:25:24Z</time></trkpt><trkpt lat="46.044809809138435" lon="12.025099143555499"><ele>266.25</ele><time>2026-05-03T13:25:25Z</time></trkpt><trkpt lat="46.0446692808201" lon="12.025083580110243"><ele>267.0</ele><time>2026-05-03T13:25:26Z</time></trkpt><trkpt lat="46.04452525474529" lon="12.025084658180424"><ele>267.0</ele><time>2026-05-03T13:25:27Z</time></trkpt><trkpt lat="46.04439859983431" lon="12.025084930863184"><ele>267.0</ele><time>2026-05-03T13:25:28Z</time></trkpt><trkpt lat="46.04429654356791" lon="12.025086798395701"><ele>267.0</ele><time>2026-05-03T13:25:29Z</time></trkpt><trkpt lat="46.04420209208903" lon="12.025100760153217"><ele>267.0</ele><time>2026-05-03T13:25:30Z</time></trkpt><trkpt lat="46.04409626420645" lon="12.025153675795066"><ele>267.0</ele><time>2026-05-03T13:25:31Z</time></trkpt><trkpt lat="46.043989031237366" lon="12.025263933004776"><ele>269.0</ele><time>2026-05-03T13:25:32Z</time></trkpt><trkpt lat="46.043880784477736" lon="12.025370025020342"><ele>271.0</ele><time>2026-05-03T13:25:33Z</time></trkpt><trkpt lat="46.04376426646336" lon="12.025463600180746"><ele>273.0</ele><time>2026-05-03T13:25:34Z</time></trkpt><trkpt lat="46.04365836951498" lon="12.025524911149068"><ele>275.0</ele><time>2026-05-03T13:25:35Z</time></trkpt><trkpt lat="46.04356541036121" lon="12.025565751125177"><ele>275.0</ele><time>2026-05-03T13:25:36Z</time></trkpt><trkpt lat="46.04348607065294" lon="12.025596311015228"><ele>275.0</ele><time>2026-05-03T13:25:37Z</time></trkpt><trkpt lat="46.04341365873062" lon="12.02556367210786"><ele>275.0</ele><time>2026-05-03T13:25:38Z</time></trkpt><trkpt lat="46.04334105117589" lon="12.025548676190184"><ele>275.0</ele><time>2026-05-03T13:25:40Z</time></trkpt><trkpt lat="46.043319324949785" lon="12.02579603221208"><ele>275.0</ele><time>2026-05-03T13:25:41Z</time></trkpt><trkpt lat="46.04331274721251" lon="12.025943830255112"><ele>275.75</ele><time>2026-05-03T13:25:42Z</time></trkpt><trkpt lat="46.043305978886835" lon="12.026118867599639"><ele>276.5</ele><time>2026-05-03T13:25:43Z</time></trkpt><trkpt lat="46.0432798674283" lon="12.02630673510127"><ele>277.25</ele><time>2026-05-03T13:25:44Z</time></trkpt><trkpt lat="46.043268017363744" lon="12.026502007799222"><ele>278.0</ele><time>2026-05-03T13:25:45Z</time></trkpt><trkpt lat="46.0432754752909" lon="12.026718145153453"><ele>288.33333333333337</ele><time>2026-05-03T13:25:46Z</time></trkpt><trkpt lat="46.04326192732338" lon="12.026949144598769"><ele>298.6666666666667</ele><time>2026-05-03T13:25:47Z</time></trkpt><trkpt lat="46.04326274867221" lon="12.027176736049594"><ele>309.0</ele><time>2026-05-03T13:25:48Z</time></trkpt><trkpt lat="46.043276020937654" lon="12.027396392409072"><ele>308.75</ele><time>2026-05-03T13:25:49Z</time></trkpt><trkpt lat="46.04329256602985" lon="12.027621516946668"><ele>308.5</ele><time>2026-05-03T13:25:50Z</time></trkpt><trkpt lat="46.04330145232856" lon="12.027829060120267"><ele>308.25</ele><time>2026-05-03T13:25:51Z</time></trkpt><trkpt lat="46.04327773027073" lon="12.028008847796606"><ele>308.0</ele><time>2026-05-03T13:25:52Z</time></trkpt><trkpt lat="46.04323941682125" lon="12.028149492643633"><ele>308.0</ele><time>2026-05-03T13:25:53Z</time></trkpt><trkpt lat="46.043197086470556" lon="12.028228872537426"><ele>308.0</ele><time>2026-05-03T13:25:54Z</time></trkpt><trkpt lat="46.04315180028939" lon="12.028314253283469"><ele>308.0</ele><time>2026-05-03T13:25:55Z</time></trkpt><trkpt lat="46.04308334950625" lon="12.028412893853472"><ele>308.0</ele><time>2026-05-03T13:25:56Z</time></trkpt><trkpt lat="46.043001438510906" lon="12.028539530115436"><ele>308.0</ele><time>2026-05-03T13:25:57Z</time></trkpt><trkpt lat="46.042906097339575" lon="12.028673518332546"><ele>308.25</ele><time>2026-05-03T13:25:58Z</time></trkpt><trkpt lat="46.04283293432147" lon="12.02882806963714"><ele>308.5</ele><time>2026-05-03T13:25:59Z</time></trkpt><trkpt lat="46.04276537553175" lon="12.028994297286285"><ele>308.75</ele><time>2026-05-03T13:26:00Z</time></trkpt><trkpt lat="46.04270141385743" lon="12.02916682705994"><ele>309.0</ele><time>2026-05-03T13:26:01Z</time></trkpt><trkpt lat="46.04264583138206" lon="12.029347190741172"><ele>308.25</ele><time>2026-05-03T13:26:02Z</time></trkpt><trkpt lat="46.04259264781162" lon="12.029532304226242"><ele>307.5</ele><time>2026-05-03T13:26:03Z</time></trkpt><trkpt lat="46.042536218304924" lon="12.029710035182813"><ele>306.75</ele><time>2026-05-03T13:26:04Z</time></trkpt><trkpt lat="46.04247659544231" lon="12.029871371811856"><ele>306.0</ele><time>2026-05-03T13:26:05Z</time></trkpt><trkpt lat="46.04240378889538" lon="12.030011131908473"><ele>309.75</ele><time>2026-05-03T13:26:06Z</time></trkpt><trkpt lat="46.042322944290966" lon="12.030143377337517"><ele>313.5</ele><time>2026-05-03T13:26:07Z</time></trkpt><trkpt lat="46.04223216802285" lon="12.030253137310504"><ele>317.25</ele><time>2026-05-03T13:26:08Z</time></trkpt><trkpt lat="46.0421366063521" lon="12.030354380657817"><ele>321.0</ele><time>2026-05-03T13:26:09Z</time></trkpt><trkpt lat="46.04202344249281" lon="12.030427115003373"><ele>321.0</ele><time>2026-05-03T13:26:10Z</time></trkpt><trkpt lat="46.04191608707383" lon="12.03053479970879"><ele>321.0</ele><time>2026-05-03T13:26:11Z</time></trkpt><trkpt lat="46.041840857544194" lon="12.030692664169921"><ele>321.0</ele><time>2026-05-03T13:26:12Z</time></trkpt><trkpt lat="46.041750193589515" lon="12.030856278111555"><ele>321.0</ele><time>2026-05-03T13:26:13Z</time></trkpt><trkpt lat="46.04167068536903" lon="12.031037677478194"><ele>323.3333333333333</ele><time>2026-05-03T13:26:14Z</time></trkpt><trkpt lat="46.04159529849601" lon="12.031252039546953"><ele>325.66666666666663</ele><time>2026-05-03T13:26:14.999Z</time></trkpt><trkpt lat="46.04152079381254" lon="12.031473861198124"><ele>328.0</ele><time>2026-05-03T13:26:15.999Z</time></trkpt><trkpt lat="46.04144923579119" lon="12.031665136683467"><ele>328.0</ele><time>2026-05-03T13:26:16.999Z</time></trkpt><trkpt lat="46.041357751644036" lon="12.031849189773574"><ele>328.0</ele><time>2026-05-03T13:26:17.999Z</time></trkpt><trkpt lat="46.04126340459783" lon="12.032011229996359"><ele>328.0</ele><time>2026-05-03T13:26:18.999Z</time></trkpt><trkpt lat="46.04114809028833" lon="12.032121159741527"><ele>328.0</ele><time>2026-05-03T13:26:19.999Z</time></trkpt><trkpt lat="46.041033113473574" lon="12.032240642558417"><ele>328.0</ele><time>2026-05-03T13:26:20.999Z</time></trkpt><trkpt lat="46.04091879968192" lon="12.032377165410393"><ele>328.0</ele><time>2026-05-03T13:26:21.999Z</time></trkpt><trkpt lat="46.04080983357667" lon="12.032504434420545"><ele>328.0</ele><time>2026-05-03T13:26:22.999Z</time></trkpt><trkpt lat="46.040735049329534" lon="12.032670746265339"><ele>328.0</ele><time>2026-05-03T13:26:23.999Z</time></trkpt><trkpt lat="46.040684669432416" lon="12.032874453475939"><ele>334.0</ele><time>2026-05-03T13:26:24.999Z</time></trkpt><trkpt lat="46.04064807872487" lon="12.033093183297417"><ele>340.0</ele><time>2026-05-03T13:26:25.999Z</time></trkpt><trkpt lat="46.04060551307404" lon="12.03331299198636"><ele>346.0</ele><time>2026-05-03T13:26:26.999Z</time></trkpt><trkpt lat="46.04055834891523" lon="12.033515616074553"><ele>346.0</ele><time>2026-05-03T13:26:27.999Z</time></trkpt><trkpt lat="46.040512746503346" lon="12.033682347793468"><ele>346.0</ele><time>2026-05-03T13:26:28.999Z</time></trkpt><trkpt lat="46.04046482571409" lon="12.033856718815633"><ele>346.0</ele><time>2026-05-03T13:26:29.999Z</time></trkpt><trkpt lat="46.04038816868002" lon="12.033999813330338"><ele>346.0</ele><time>2026-05-03T13:26:30.999Z</time></trkpt><trkpt lat="46.040329077941685" lon="12.034106168619198"><ele>345.8</ele><time>2026-05-03T13:26:31.999Z</time></trkpt><trkpt lat="46.040267613942135" lon="12.03424655933432"><ele>345.6</ele><time>2026-05-03T13:26:33.999Z</time></trkpt><trkpt lat="46.040233523571494" lon="12.034345050908493"><ele>345.4</ele><time>2026-05-03T13:26:34.999Z</time></trkpt><trkpt lat="46.040181454041615" lon="12.03449083493802"><ele>345.2</ele><time>2026-05-03T13:26:35.999Z</time></trkpt><trkpt lat="46.04011593372898" lon="12.03465282716592"><ele>345.0</ele><time>2026-05-03T13:26:36.999Z</time></trkpt><trkpt lat="46.040036943651266" lon="12.034807581433688"><ele>348.3333333333333</ele><time>2026-05-03T13:26:37.999Z</time></trkpt><trkpt lat="46.03995933480918" lon="12.034978456828236"><ele>351.66666666666663</ele><time>2026-05-03T13:26:38.999Z</time></trkpt><trkpt lat="46.03988330696351" lon="12.0351738346629"><ele>355.0</ele><time>2026-05-03T13:26:39.999Z</time></trkpt><trkpt lat="46.03981968490749" lon="12.03540068923742"><ele>355.0</ele><time>2026-05-03T13:26:40.999Z</time></trkpt><trkpt lat="46.0397758326069" lon="12.035615990218815"><ele>355.0</ele><time>2026-05-03T13:26:42Z</time></trkpt><trkpt lat="46.039753201020766" lon="12.03583483359663"><ele>355.0</ele><time>2026-05-03T13:26:43Z</time></trkpt><trkpt lat="46.03973491188638" lon="12.03604568209368"><ele>354.75</ele><time>2026-05-03T13:26:44Z</time></trkpt><trkpt lat="46.039702432814146" lon="12.036236351164716"><ele>354.5</ele><time>2026-05-03T13:26:45Z</time></trkpt><trkpt lat="46.03963197085693" lon="12.036389927545185"><ele>354.25</ele><time>2026-05-03T13:26:46Z</time></trkpt><trkpt lat="46.039557913007684" lon="12.036481566572578"><ele>354.0</ele><time>2026-05-03T13:26:47Z</time></trkpt><trkpt lat="46.0394777185241" lon="12.03655503403407"><ele>354.0</ele><time>2026-05-03T13:26:48Z</time></trkpt><trkpt lat="46.03938319987593" lon="12.036605217707253"><ele>354.0</ele><time>2026-05-03T13:26:49Z</time></trkpt><trkpt lat="46.03927635891638" lon="12.03664641854835"><ele>354.0</ele><time>2026-05-03T13:26:50Z</time></trkpt><trkpt lat="46.0391653800909" lon="12.036689079639896"><ele>354.0</ele><time>2026-05-03T13:26:51Z</time></trkpt><trkpt lat="46.03907719801595" lon="12.036752326606656"><ele>354.0</ele><time>2026-05-03T13:26:52Z</time></trkpt><trkpt lat="46.03898989167566" lon="12.03680350307458"><ele>355.6</ele><time>2026-05-03T13:26:53Z</time></trkpt><trkpt lat="46.03894227256972" lon="12.036908824571977"><ele>357.2</ele><time>2026-05-03T13:26:54Z</time></trkpt><trkpt lat="46.03891601289361" lon="12.037065113812897"><ele>358.8</ele><time>2026-05-03T13:26:55Z</time></trkpt><trkpt lat="46.038901690182186" lon="12.037228261388666"><ele>360.40000000000003</ele><time>2026-05-03T13:26:56Z</time></trkpt><trkpt lat="46.03888153216022" lon="12.037398076480098"><ele>362.0</ele><time>2026-05-03T13:26:57Z</time></trkpt><trkpt lat="46.038856029309805" lon="12.03755602842518"><ele>362.5</ele><time>2026-05-03T13:26:58Z</time></trkpt><trkpt lat="46.03882278731125" lon="12.037721023020179"><ele>363.0</ele><time>2026-05-03T13:26:59Z</time></trkpt><trkpt lat="46.03879343290879" lon="12.037917680545181"><ele>363.5</ele><time>2026-05-03T13:27:00Z</time></trkpt><trkpt lat="46.038762265371425" lon="12.03812294392408"><ele>364.0</ele><time>2026-05-03T13:27:01Z</time></trkpt><trkpt lat="46.038728333519636" lon="12.038327103319387"><ele>364.0</ele><time>2026-05-03T13:27:02Z</time></trkpt><trkpt lat="46.03869765179397" lon="12.03852877665109"><ele>364.0</ele><time>2026-05-03T13:27:03Z</time></trkpt><trkpt lat="46.03867075201043" lon="12.038732707214256"><ele>364.0</ele><time>2026-05-03T13:27:04Z</time></trkpt><trkpt lat="46.038640461762554" lon="12.038908851782354"><ele>364.0</ele><time>2026-05-03T13:27:05Z</time></trkpt><trkpt lat="46.03857557769896" lon="12.039058460297342"><ele>363.2</ele><time>2026-05-03T13:27:06Z</time></trkpt><trkpt lat="46.03852189385806" lon="12.039214274558008"><ele>362.4</ele><time>2026-05-03T13:27:07Z</time></trkpt><trkpt lat="46.038464948413896" lon="12.039337298544066"><ele>361.6</ele><time>2026-05-03T13:27:08Z</time></trkpt><trkpt lat="46.03840308925869" lon="12.039438792471937"><ele>360.8</ele><time>2026-05-03T13:27:09Z</time></trkpt><trkpt lat="46.03832777407937" lon="12.039494837126687"><ele>360.0</ele><time>2026-05-03T13:27:10Z</time></trkpt><trkpt lat="46.03822064681306" lon="12.039523454583895"><ele>362.25</ele><time>2026-05-03T13:27:11Z</time></trkpt><trkpt lat="46.03810349901666" lon="12.039601734177195"><ele>364.5</ele><time>2026-05-03T13:27:12Z</time></trkpt><trkpt lat="46.03798818661094" lon="12.039721183615608"><ele>366.75</ele><time>2026-05-03T13:27:13Z</time></trkpt><trkpt lat="46.03788084965432" lon="12.039811033220591"><ele>369.0</ele><time>2026-05-03T13:27:14Z</time></trkpt><trkpt lat="46.03778449021202" lon="12.039861469659526"><ele>369.0</ele><time>2026-05-03T13:27:15Z</time></trkpt><trkpt lat="46.03769777343696" lon="12.039893665979513"><ele>369.0</ele><time>2026-05-03T13:27:16Z</time></trkpt><trkpt lat="46.037610818204726" lon="12.039894747915353"><ele>369.0</ele><time>2026-05-03T13:27:17Z</time></trkpt><trkpt lat="46.03752094109573" lon="12.03986493814139"><ele>369.0</ele><time>2026-05-03T13:27:18Z</time></trkpt><trkpt lat="46.037404547339904" lon="12.039829693145196"><ele>369.0</ele><time>2026-05-03T13:27:19Z</time></trkpt><trkpt lat="46.03726582961328" lon="12.03978082515436"><ele>376.33333333333337</ele><time>2026-05-03T13:27:20Z</time></trkpt><trkpt lat="46.03711672083822" lon="12.039764902695547"><ele>383.6666666666667</ele><time>2026-05-03T13:27:21Z</time></trkpt><trkpt lat="46.03696658380762" lon="12.039747045911465"><ele>391.0</ele><time>2026-05-03T13:27:22Z</time></trkpt><trkpt lat="46.03681339086031" lon="12.039773532626855"><ele>391.0</ele><time>2026-05-03T13:27:23Z</time></trkpt><trkpt lat="46.03665592211749" lon="12.039824184138906"><ele>391.0</ele><time>2026-05-03T13:27:24Z</time></trkpt><trkpt lat="46.036494986710096" lon="12.039917452575706"><ele>391.0</ele><time>2026-05-03T13:27:25Z</time></trkpt><trkpt lat="46.03633049098084" lon="12.03999021648626"><ele>390.33333333333337</ele><time>2026-05-03T13:27:26Z</time></trkpt><trkpt lat="46.03616532513486" lon="12.040085600072416"><ele>389.66666666666663</ele><time>2026-05-03T13:27:27Z</time></trkpt><trkpt lat="46.03598512242394" lon="12.040140482990124"><ele>389.0</ele><time>2026-05-03T13:27:28Z</time></trkpt><trkpt lat="46.03581593222188" lon="12.040196736659187"><ele>392.75</ele><time>2026-05-03T13:27:29Z</time></trkpt><trkpt lat="46.03565509661249" lon="12.040228703035412"><ele>396.5</ele><time>2026-05-03T13:27:30Z</time></trkpt><trkpt lat="46.03552116183758" lon="12.040248411643917"><ele>400.25</ele><time>2026-05-03T13:27:31Z</time></trkpt><trkpt lat="46.035404824919766" lon="12.040282924542725"><ele>404.0</ele><time>2026-05-03T13:27:32Z</time></trkpt><trkpt lat="46.03530633246737" lon="12.040353539314996"><ele>404.0</ele><time>2026-05-03T13:27:33Z</time></trkpt><trkpt lat="46.03525721609303" lon="12.040509176806795"><ele>404.0</ele><time>2026-05-03T13:27:34Z</time></trkpt><trkpt lat="46.03520486112649" lon="12.04064119332166"><ele>404.0</ele><time>2026-05-03T13:27:35Z</time></trkpt><trkpt lat="46.035109528381696" lon="12.040708349997697"><ele>404.0</ele><time>2026-05-03T13:27:36Z</time></trkpt><trkpt lat="46.03501806410282" lon="12.0407468033253"><ele>404.0</ele><time>2026-05-03T13:27:37Z</time></trkpt><trkpt lat="46.03491087305664" lon="12.040776352127903"><ele>408.75</ele><time>2026-05-03T13:27:38Z</time></trkpt><trkpt lat="46.03480289982221" lon="12.040779928290137"><ele>413.5</ele><time>2026-05-03T13:27:39Z</time></trkpt><trkpt lat="46.03469344368626" lon="12.040762089519584"><ele>418.25</ele><time>2026-05-03T13:27:40Z</time></trkpt><trkpt lat="46.034576562357415" lon="12.040731281727808"><ele>423.0</ele><time>2026-05-03T13:27:41Z</time></trkpt><trkpt lat="46.03445767430338" lon="12.040706413478695"><ele>423.0</ele><time>2026-05-03T13:27:42Z</time></trkpt><trkpt lat="46.03432993872566" lon="12.040699303184205"><ele>423.0</ele><time>2026-05-03T13:27:43Z</time></trkpt><trkpt lat="46.034212777297995" lon="12.040709961304598"><ele>423.0</ele><time>2026-05-03T13:27:44Z</time></trkpt><trkpt lat="46.03408759313363" lon="12.04073609778838"><ele>423.0</ele><time>2026-05-03T13:27:45Z</time></trkpt><trkpt lat="46.033963281663986" lon="12.040814284445847"><ele>422.66666666666663</ele><time>2026-05-03T13:27:46Z</time></trkpt><trkpt lat="46.03382702098204" lon="12.04088762296922"><ele>422.3333333333333</ele><time>2026-05-03T13:27:47Z</time></trkpt><trkpt lat="46.0336816009559" lon="12.040971042284568"><ele>422.0</ele><time>2026-05-03T13:27:48Z</time></trkpt><trkpt lat="46.03353266722709" lon="12.041050158829334"><ele>422.0</ele><time>2026-05-03T13:27:49Z</time></trkpt><trkpt lat="46.03338551333877" lon="12.041110537979309"><ele>422.0</ele><time>2026-05-03T13:27:50Z</time></trkpt><trkpt lat="46.03324704166633" lon="12.041200625253433"><ele>422.0</ele><time>2026-05-03T13:27:51Z</time></trkpt><trkpt lat="46.03312076584045" lon="12.041282185420787"><ele>422.0</ele><time>2026-05-03T13:27:52Z</time></trkpt><trkpt lat="46.03299001303861" lon="12.04136214636727"><ele>425.0</ele><time>2026-05-03T13:27:53Z</time></trkpt><trkpt lat="46.03285498336552" lon="12.04142514017689"><ele>428.0</ele><time>2026-05-03T13:27:54Z</time></trkpt><trkpt lat="46.03272701601194" lon="12.04146505918966"><ele>431.0</ele><time>2026-05-03T13:27:55Z</time></trkpt><trkpt lat="46.03260869899538" lon="12.041480756035643"><ele>434.0</ele><time>2026-05-03T13:27:56Z</time></trkpt><trkpt lat="46.032492749277836" lon="12.041484274644544"><ele>437.5</ele><time>2026-05-03T13:27:57Z</time></trkpt><trkpt lat="46.03237183370982" lon="12.041458225816985"><ele>441.0</ele><time>2026-05-03T13:27:58.001Z</time></trkpt><trkpt lat="46.032243359062065" lon="12.041427048073514"><ele>444.5</ele><time>2026-05-03T13:27:59.001Z</time></trkpt><trkpt lat="46.03209955670021" lon="12.041411153763953"><ele>448.0</ele><time>2026-05-03T13:28:00.001Z</time></trkpt><trkpt lat="46.03196874019026" lon="12.041419554530023"><ele>448.0</ele><time>2026-05-03T13:28:01.001Z</time></trkpt><trkpt lat="46.03185600136377" lon="12.041449608419823"><ele>448.0</ele><time>2026-05-03T13:28:02.001Z</time></trkpt><trkpt lat="46.03175031239019" lon="12.041526705564694"><ele>448.0</ele><time>2026-05-03T13:28:03.001Z</time></trkpt><trkpt lat="46.03164982161867" lon="12.04163638437608"><ele>448.0</ele><time>2026-05-03T13:28:04.001Z</time></trkpt><trkpt lat="46.031555740433326" lon="12.041766369883694"><ele>450.4</ele><time>2026-05-03T13:28:05.001Z</time></trkpt><trkpt lat="46.03145541436709" lon="12.041890185947445"><ele>452.79999999999995</ele><time>2026-05-03T13:28:06.001Z</time></trkpt><trkpt lat="46.031341024549775" lon="12.041960518652234"><ele>455.2</ele><time>2026-05-03T13:28:07.001Z</time></trkpt><trkpt lat="46.03125170398436" lon="12.042011877156373"><ele>457.6</ele><time>2026-05-03T13:28:08.001Z</time></trkpt><trkpt lat="46.03117216508322" lon="12.04203797607243"><ele>460.0</ele><time>2026-05-03T13:28:09.001Z</time></trkpt><trkpt lat="46.03112960454849" lon="12.042136431363907"><ele>460.0</ele><time>2026-05-03T13:28:10.001Z</time></trkpt><trkpt lat="46.0311311040091" lon="12.042322003418722"><ele>460.0</ele><time>2026-05-03T13:28:12.001Z</time></trkpt><trkpt lat="46.03114635831814" lon="12.04244692877984"><ele>460.0</ele><time>2026-05-03T13:28:13.001Z</time></trkpt><trkpt lat="46.031097987973396" lon="12.042558319040898"><ele>460.0</ele><time>2026-05-03T13:28:14.001Z</time></trkpt><trkpt lat="46.03102930285148" lon="12.042633677442394"><ele>460.0</ele><time>2026-05-03T13:28:15.001Z</time></trkpt><trkpt lat="46.03095885328547" lon="12.04268241904626"><ele>459.2</ele><time>2026-05-03T13:28:16.001Z</time></trkpt><trkpt lat="46.03088504573299" lon="12.042699476286796"><ele>458.4</ele><time>2026-05-03T13:28:17.001Z</time></trkpt><trkpt lat="46.0308134309716" lon="12.042679398787381"><ele>457.6</ele><time>2026-05-03T13:28:18.001Z</time></trkpt><trkpt lat="46.03071465544365" lon="12.042640896535461"><ele>456.8</ele><time>2026-05-03T13:28:19.001Z</time></trkpt><trkpt lat="46.03058624665202" lon="12.042617648317634"><ele>456.0</ele><time>2026-05-03T13:28:20.001Z</time></trkpt><trkpt lat="46.0304787953451" lon="12.04262782305967"><ele>456.0</ele><time>2026-05-03T13:28:21Z</time></trkpt><trkpt lat="46.030380489047815" lon="12.042644790754695"><ele>456.0</ele><time>2026-05-03T13:28:22Z</time></trkpt><trkpt lat="46.03029897039013" lon="12.042664388586221"><ele>456.0</ele><time>2026-05-03T13:28:23Z</time></trkpt><trkpt lat="46.030232655165584" lon="12.04267932971671"><ele>456.0</ele><time>2026-05-03T13:28:24Z</time></trkpt><trkpt lat="46.030112976348626" lon="12.042709936401467"><ele>456.0</ele><time>2026-05-03T13:28:26Z</time></trkpt><trkpt lat="46.03005239035508" lon="12.042764078700891"><ele>456.0</ele><time>2026-05-03T13:28:27Z</time></trkpt><trkpt lat="46.03001044720801" lon="12.042858208968203"><ele>460.71428571428567</ele><time>2026-05-03T13:28:28Z</time></trkpt><trkpt lat="46.02996129924148" lon="12.042929193025552"><ele>465.4285714285714</ele><time>2026-05-03T13:28:29Z</time></trkpt><trkpt lat="46.02990978164926" lon="12.042995233916708"><ele>470.1428571428571</ele><time>2026-05-03T13:28:30Z</time></trkpt><trkpt lat="46.0298637427967" lon="12.043060334344625"><ele>474.8571428571429</ele><time>2026-05-03T13:28:31Z</time></trkpt><trkpt lat="46.02980936723962" lon="12.043107751504676"><ele>479.5714285714286</ele><time>2026-05-03T13:28:32Z</time></trkpt><trkpt lat="46.02974984813778" lon="12.043158004374623"><ele>484.28571428571433</ele><time>2026-05-03T13:28:33Z</time></trkpt><trkpt lat="46.02967098397192" lon="12.043227648262494"><ele>489.0</ele><time>2026-05-03T13:28:34Z</time></trkpt><trkpt lat="46.029571139144686" lon="12.043294968653104"><ele>481.5</ele><time>2026-05-03T13:28:35Z</time></trkpt><trkpt lat="46.029464752939475" lon="12.043383562562099"><ele>474.0</ele><time>2026-05-03T13:28:36Z</time></trkpt><trkpt lat="46.029352429471786" lon="12.043425342650513"><ele>466.5</ele><time>2026-05-03T13:28:37Z</time></trkpt><trkpt lat="46.02925189200415" lon="12.043477557337848"><ele>459.0</ele><time>2026-05-03T13:28:38Z</time></trkpt><trkpt lat="46.029144767654" lon="12.043522547113016"><ele>464.25</ele><time>2026-05-03T13:28:39Z</time></trkpt><trkpt lat="46.02903424825356" lon="12.04354909384114"><ele>469.5</ele><time>2026-05-03T13:28:40Z</time></trkpt><trkpt lat="46.028924960636616" lon="12.043575810262784"><ele>474.75</ele><time>2026-05-03T13:28:41Z</time></trkpt><trkpt lat="46.02881326496961" lon="12.04361900552408"><ele>480.0</ele><time>2026-05-03T13:28:42Z</time></trkpt><trkpt lat="46.0286982336768" lon="12.043666888010623"><ele>480.0</ele><time>2026-05-03T13:28:43Z</time></trkpt><trkpt lat="46.02857695848075" lon="12.043714381318843"><ele>480.0</ele><time>2026-05-03T13:28:44Z</time></trkpt><trkpt lat="46.028457988501486" lon="12.043750001432954"><ele>480.0</ele><time>2026-05-03T13:28:45Z</time></trkpt><trkpt lat="46.028331866813126" lon="12.043782416897416"><ele>480.0</ele><time>2026-05-03T13:28:46Z</time></trkpt><trkpt lat="46.02823026289543" lon="12.043844100400937"><ele>482.8</ele><time>2026-05-03T13:28:47Z</time></trkpt><trkpt lat="46.02813236549012" lon="12.043903504198179"><ele>485.6</ele><time>2026-05-03T13:28:48Z</time></trkpt><trkpt lat="46.02804560259747" lon="12.043956873843257"><ele>488.4</ele><time>2026-05-03T13:28:49Z</time></trkpt><trkpt lat="46.02795827793908" lon="12.044005034114495"><ele>491.2</ele><time>2026-05-03T13:28:50Z</time></trkpt><trkpt lat="46.02786145625541" lon="12.044055032082346"><ele>494.0</ele><time>2026-05-03T13:28:51Z</time></trkpt><trkpt lat="46.027773876448606" lon="12.044137929389299"><ele>491.0</ele><time>2026-05-03T13:28:52Z</time></trkpt><trkpt lat="46.027667741604596" lon="12.044166003726767"><ele>488.0</ele><time>2026-05-03T13:28:53Z</time></trkpt><trkpt lat="46.02756949189176" lon="12.044185525391498"><ele>485.0</ele><time>2026-05-03T13:28:54Z</time></trkpt><trkpt lat="46.02747698808099" lon="12.044191835496086"><ele>482.0</ele><time>2026-05-03T13:28:55Z</time></trkpt><trkpt lat="46.02739179926887" lon="12.044184180536128"><ele>479.0</ele><time>2026-05-03T13:28:56Z</time></trkpt><trkpt lat="46.02732532573053" lon="12.04415825633214"><ele>483.99999999999994</ele><time>2026-05-03T13:28:57Z</time></trkpt><trkpt lat="46.02728499104348" lon="12.044053266098661"><ele>489.0</ele><time>2026-05-03T13:28:58Z</time></trkpt><trkpt lat="46.02721892417156" lon="12.044028065866822"><ele>494.0</ele><time>2026-05-03T13:28:59Z</time></trkpt><trkpt lat="46.02716814786516" lon="12.043946567604573"><ele>499.0</ele><time>2026-05-03T13:29:00Z</time></trkpt><trkpt lat="46.02710512661307" lon="12.04389545879068"><ele>503.99999999999994</ele><time>2026-05-03T13:29:01Z</time></trkpt><trkpt lat="46.02702855574502" lon="12.04387794066021"><ele>509.0</ele><time>2026-05-03T13:29:02Z</time></trkpt><trkpt lat="46.02695516776185" lon="12.043912793292533"><ele>509.0</ele><time>2026-05-03T13:29:03Z</time></trkpt><trkpt lat="46.026883118666234" lon="12.043991766676832"><ele>509.0</ele><time>2026-05-03T13:29:04Z</time></trkpt><trkpt lat="46.026825026271915" lon="12.044102046214341"><ele>509.0</ele><time>2026-05-03T13:29:05Z</time></trkpt><trkpt lat="46.02674270632367" lon="12.04416902113577"><ele>509.0</ele><time>2026-05-03T13:29:06Z</time></trkpt><trkpt lat="46.026652466208276" lon="12.044228342118632"><ele>509.0</ele><time>2026-05-03T13:29:07Z</time></trkpt><trkpt lat="46.02657203121604" lon="12.044256975547265"><ele>506.79999999999995</ele><time>2026-05-03T13:29:08Z</time></trkpt><trkpt lat="46.02649081184695" lon="12.044274608869998"><ele>504.59999999999997</ele><time>2026-05-03T13:29:09Z</time></trkpt><trkpt lat="46.02640182949526" lon="12.04428618804455"><ele>502.4</ele><time>2026-05-03T13:29:10Z</time></trkpt><trkpt lat="46.026293018693146" lon="12.044295600812447"><ele>500.2</ele><time>2026-05-03T13:29:11Z</time></trkpt><trkpt lat="46.026171471082925" lon="12.044317414772772"><ele>498.0</ele><time>2026-05-03T13:29:12Z</time></trkpt><trkpt lat="46.026056359538146" lon="12.04437234578947"><ele>498.0</ele><time>2026-05-03T13:29:13Z</time></trkpt><trkpt lat="46.02593223319401" lon="12.04443430106328"><ele>498.0</ele><time>2026-05-03T13:29:14Z</time></trkpt><trkpt lat="46.02580901097031" lon="12.044523498577641"><ele>498.0</ele><time>2026-05-03T13:29:15Z</time></trkpt><trkpt lat="46.02568891900914" lon="12.044635821642318"><ele>498.0</ele><time>2026-05-03T13:29:16Z</time></trkpt><trkpt lat="46.0255697163865" lon="12.044744727728595"><ele>497.5</ele><time>2026-05-03T13:29:17Z</time></trkpt><trkpt lat="46.02543480835966" lon="12.044830103936343"><ele>497.0</ele><time>2026-05-03T13:29:18Z</time></trkpt><trkpt lat="46.0253159355565" lon="12.044927456248043"><ele>496.5</ele><time>2026-05-03T13:29:19Z</time></trkpt><trkpt lat="46.02519774985834" lon="12.045027349091162"><ele>496.0</ele><time>2026-05-03T13:29:20Z</time></trkpt><trkpt lat="46.02509525095089" lon="12.045127023925922"><ele>496.0</ele><time>2026-05-03T13:29:21Z</time></trkpt><trkpt lat="46.024998492027684" lon="12.045238316305639"><ele>496.0</ele><time>2026-05-03T13:29:22Z</time></trkpt><trkpt lat="46.02489213042919" lon="12.045343406923285"><ele>496.0</ele><time>2026-05-03T13:29:23Z</time></trkpt><trkpt lat="46.024785171139285" lon="12.045448829264558"><ele>496.0</ele><time>2026-05-03T13:29:24.001Z</time></trkpt><trkpt lat="46.024678989181226" lon="12.045538764025777"><ele>496.0</ele><time>2026-05-03T13:29:25.001Z</time></trkpt><trkpt lat="46.02457559647069" lon="12.045637307114239"><ele>496.0</ele><time>2026-05-03T13:29:26.001Z</time></trkpt><trkpt lat="46.02446561687488" lon="12.045731653197722"><ele>496.0</ele><time>2026-05-03T13:29:27.001Z</time></trkpt><trkpt lat="46.02435122723896" lon="12.045823904414558"><ele>496.0</ele><time>2026-05-03T13:29:28.001Z</time></trkpt><trkpt lat="46.02422589430402" lon="12.045892211406105"><ele>500.0</ele><time>2026-05-03T13:29:29.001Z</time></trkpt><trkpt lat="46.02411628466146" lon="12.045962683902285"><ele>504.0</ele><time>2026-05-03T13:29:30.001Z</time></trkpt><trkpt lat="46.02400763144717" lon="12.046001285142273"><ele>508.0</ele><time>2026-05-03T13:29:31.001Z</time></trkpt><trkpt lat="46.02388133177791" lon="12.046034587400353"><ele>512.0</ele><time>2026-05-03T13:29:32.001Z</time></trkpt><trkpt lat="46.023751793944555" lon="12.046083938702813"><ele>512.0</ele><time>2026-05-03T13:29:33.001Z</time></trkpt><trkpt lat="46.02362110843675" lon="12.046110519581923"><ele>512.0</ele><time>2026-05-03T13:29:34.001Z</time></trkpt><trkpt lat="46.023487622915795" lon="12.046136067284781"><ele>512.0</ele><time>2026-05-03T13:29:35.001Z</time></trkpt><trkpt lat="46.02335217907876" lon="12.046154435702535"><ele>512.0</ele><time>2026-05-03T13:29:36.001Z</time></trkpt><trkpt lat="46.023215101348676" lon="12.046167879206942"><ele>515.5</ele><time>2026-05-03T13:29:37.001Z</time></trkpt><trkpt lat="46.023082943680436" lon="12.046139826139742"><ele>519.0</ele><time>2026-05-03T13:29:38.001Z</time></trkpt><trkpt lat="46.022963471435936" lon="12.046096349532736"><ele>522.5</ele><time>2026-05-03T13:29:39.001Z</time></trkpt><trkpt lat="46.02285103882718" lon="12.04607003069154"><ele>526.0</ele><time>2026-05-03T13:29:40.001Z</time></trkpt><trkpt lat="46.022743425344196" lon="12.04609395868306"><ele>526.0</ele><time>2026-05-03T13:29:41.001Z</time></trkpt><trkpt lat="46.02264528408911" lon="12.046137546888017"><ele>526.0</ele><time>2026-05-03T13:29:42.001Z</time></trkpt><trkpt lat="46.02258568651188" lon="12.04617662296434"><ele>526.0</ele><time>2026-05-03T13:29:43.001Z</time></trkpt><trkpt lat="46.022501188586695" lon="12.046182668262142"><ele>526.0</ele><time>2026-05-03T13:29:46.001Z</time></trkpt><trkpt lat="46.022484932869986" lon="12.046085762752591"><ele>526.0</ele><time>2026-05-03T13:29:47.001Z</time></trkpt><trkpt lat="46.02243211923604" lon="12.046032712836464"><ele>526.0</ele><time>2026-05-03T13:29:48.001Z</time></trkpt><trkpt lat="46.022360865117555" lon="12.046014651854087"><ele>527.0</ele><time>2026-05-03T13:29:49.001Z</time></trkpt><trkpt lat="46.02227204587154" lon="12.046005149226042"><ele>528.0</ele><time>2026-05-03T13:29:50.001Z</time></trkpt><trkpt lat="46.02218962133458" lon="12.046005173624106"><ele>529.0</ele><time>2026-05-03T13:29:51.001Z</time></trkpt><trkpt lat="46.02209500847698" lon="12.04597091113006"><ele>530.0</ele><time>2026-05-03T13:29:52.001Z</time></trkpt><trkpt lat="46.02198909167551" lon="12.04593975383088"><ele>531.0</ele><time>2026-05-03T13:29:53.001Z</time></trkpt><trkpt lat="46.02188708890663" lon="12.04587482694208"><ele>531.0</ele><time>2026-05-03T13:29:54.001Z</time></trkpt><trkpt lat="46.02177178607491" lon="12.045820870747953"><ele>531.0</ele><time>2026-05-03T13:29:55.001Z</time></trkpt><trkpt lat="46.021663690964424" lon="12.045772003800053"><ele>531.0</ele><time>2026-05-03T13:29:56.001Z</time></trkpt><trkpt lat="46.021566713481974" lon="12.045741696336007"><ele>531.0</ele><time>2026-05-03T13:29:57.001Z</time></trkpt><trkpt lat="46.02146120545696" lon="12.04568789882399"><ele>531.0</ele><time>2026-05-03T13:29:58.001Z</time></trkpt><trkpt lat="46.02134184774458" lon="12.045619468423258"><ele>535.75</ele><time>2026-05-03T13:29:59.001Z</time></trkpt><trkpt lat="46.0212080688068" lon="12.045540790182816"><ele>540.5</ele><time>2026-05-03T13:30:00.001Z</time></trkpt><trkpt lat="46.02106963227599" lon="12.045458074869574"><ele>545.25</ele><time>2026-05-03T13:30:01.001Z</time></trkpt><trkpt lat="46.02093148486803" lon="12.045372549866574"><ele>550.0</ele><time>2026-05-03T13:30:02.001Z</time></trkpt><trkpt lat="46.020807697957" lon="12.045297451909732"><ele>550.0</ele><time>2026-05-03T13:30:03.001Z</time></trkpt><trkpt lat="46.02071754122362" lon="12.045232104663995"><ele>550.0</ele><time>2026-05-03T13:30:04.001Z</time></trkpt><trkpt lat="46.02063694995003" lon="12.04515686804804"><ele>550.0</ele><time>2026-05-03T13:30:05.001Z</time></trkpt><trkpt lat="46.020568718479836" lon="12.04505950072252"><ele>550.0</ele><time>2026-05-03T13:30:06.001Z</time></trkpt><trkpt lat="46.02048080459156" lon="12.044985645722504"><ele>550.0</ele><time>2026-05-03T13:30:07.001Z</time></trkpt><trkpt lat="46.02041319907946" lon="12.044915317209734"><ele>555.0</ele><time>2026-05-03T13:30:08.001Z</time></trkpt><trkpt lat="46.02033556991763" lon="12.044845552746809"><ele>560.0</ele><time>2026-05-03T13:30:09.001Z</time></trkpt><trkpt lat="46.020254857257825" lon="12.044776846450432"><ele>565.0</ele><time>2026-05-03T13:30:10.001Z</time></trkpt><trkpt lat="46.02018125897043" lon="12.044693249332898"><ele>570.0</ele><time>2026-05-03T13:30:12.001Z</time></trkpt><trkpt lat="46.020171753788546" lon="12.04458450492252"><ele>575.0</ele><time>2026-05-03T13:30:16.001Z</time></trkpt><trkpt lat="46.020239989466084" lon="12.044643712235676"><ele>580.0</ele><time>2026-05-03T13:30:18.001Z</time></trkpt><trkpt lat="46.020334232108134" lon="12.04466160958134"><ele>580.0</ele><time>2026-05-03T13:30:20.001Z</time></trkpt><trkpt lat="46.02039780033515" lon="12.04469201177828"><ele>580.0</ele><time>2026-05-03T13:30:21.001Z</time></trkpt><trkpt lat="46.02047483464001" lon="12.044718320946268"><ele>580.0</ele><time>2026-05-03T13:30:22.001Z</time></trkpt><trkpt lat="46.02055309981084" lon="12.044726126396684"><ele>580.0</ele><time>2026-05-03T13:30:23.001Z</time></trkpt><trkpt lat="46.020643773916994" lon="12.044748790382146"><ele>580.0</ele><time>2026-05-03T13:30:24.001Z</time></trkpt><trkpt lat="46.020739976141556" lon="12.044764950201266"><ele>580.0</ele><time>2026-05-03T13:30:25.001Z</time></trkpt><trkpt lat="46.020837589816765" lon="12.044776779212988"><ele>583.0</ele><time>2026-05-03T13:30:26.001Z</time></trkpt><trkpt lat="46.020941968356546" lon="12.044776677961954"><ele>586.0</ele><time>2026-05-03T13:30:27.001Z</time></trkpt><trkpt lat="46.021040522145796" lon="12.044754567609946"><ele>589.0</ele><time>2026-05-03T13:30:28.001Z</time></trkpt><trkpt lat="46.021148429725365" lon="12.044742058265681"><ele>592.0</ele><time>2026-05-03T13:30:29.001Z</time></trkpt><trkpt lat="46.02125929282672" lon="12.044718620073516"><ele>595.0</ele><time>2026-05-03T13:30:30.001Z</time></trkpt><trkpt lat="46.02136570003885" lon="12.044706766445955"><ele>595.0</ele><time>2026-05-03T13:30:31.001Z</time></trkpt><trkpt lat="46.02146883167957" lon="12.044688935862226"><ele>595.0</ele><time>2026-05-03T13:30:32.001Z</time></trkpt><trkpt lat="46.021572581859715" lon="12.044673476106668"><ele>595.0</ele><time>2026-05-03T13:30:33.001Z</time></trkpt><trkpt lat="46.02167525840905" lon="12.044649183543992"><ele>595.0</ele><time>2026-05-03T13:30:34.001Z</time></trkpt><trkpt lat="46.0217717069634" lon="12.0446583782005"><ele>595.0</ele><time>2026-05-03T13:30:35.001Z</time></trkpt><trkpt lat="46.021863197305535" lon="12.044669332847604"><ele>594.6666666666667</ele><time>2026-05-03T13:30:36.001Z</time></trkpt><trkpt lat="46.021948074578994" lon="12.044686607242703"><ele>594.3333333333334</ele><time>2026-05-03T13:30:37.001Z</time></trkpt><trkpt lat="46.022034568730234" lon="12.044706220818153"><ele>594.0</ele><time>2026-05-03T13:30:38.001Z</time></trkpt><trkpt lat="46.02211408115779" lon="12.04468799307355"><ele>593.6666666666666</ele><time>2026-05-03T13:30:39.001Z</time></trkpt><trkpt lat="46.02218859837207" lon="12.044666414170905"><ele>593.3333333333333</ele><time>2026-05-03T13:30:40.001Z</time></trkpt><trkpt lat="46.02225519485789" lon="12.044607386123896"><ele>593.0</ele><time>2026-05-03T13:30:41.001Z</time></trkpt><trkpt lat="46.02231958814933" lon="12.04451983982719"><ele>593.0</ele><time>2026-05-03T13:30:42.001Z</time></trkpt><trkpt lat="46.02240537559547" lon="12.044456867539136"><ele>593.0</ele><time>2026-05-03T13:30:43.001Z</time></trkpt><trkpt lat="46.02247252869519" lon="12.044387594519403"><ele>593.0</ele><time>2026-05-03T13:30:44.001Z</time></trkpt><trkpt lat="46.02253351812484" lon="12.044328006704555"><ele>593.0</ele><time>2026-05-03T13:30:45.001Z</time></trkpt><trkpt lat="46.02260013332101" lon="12.04427067573454"><ele>593.0</ele><time>2026-05-03T13:30:46.001Z</time></trkpt><trkpt lat="46.02268114676259" lon="12.044208951410944"><ele>593.0</ele><time>2026-05-03T13:30:47.001Z</time></trkpt><trkpt lat="46.022763876335425" lon="12.044131005546891"><ele>597.0</ele><time>2026-05-03T13:30:48.001Z</time></trkpt><trkpt lat="46.02286026870931" lon="12.044067866799873"><ele>601.0</ele><time>2026-05-03T13:30:49.001Z</time></trkpt><trkpt lat="46.02296172275332" lon="12.044003824189103"><ele>605.0</ele><time>2026-05-03T13:30:50.001Z</time></trkpt><trkpt lat="46.023065499442296" lon="12.043936366636657"><ele>609.0</ele><time>2026-05-03T13:30:51.001Z</time></trkpt><trkpt lat="46.023169943850924" lon="12.043865972231574"><ele>613.0</ele><time>2026-05-03T13:30:52.001Z</time></trkpt><trkpt lat="46.0232743518123" lon="12.043798156302666"><ele>608.5</ele><time>2026-05-03T13:30:53.001Z</time></trkpt><trkpt lat="46.023386320255504" lon="12.043738317496665"><ele>604.0</ele><time>2026-05-03T13:30:54.001Z</time></trkpt><trkpt lat="46.023497587647036" lon="12.043668461632159"><ele>599.5</ele><time>2026-05-03T13:30:55.001Z</time></trkpt><trkpt lat="46.02360601613717" lon="12.04360057875527"><ele>595.0</ele><time>2026-05-03T13:30:56.001Z</time></trkpt><trkpt lat="46.02371371781363" lon="12.043518772640041"><ele>595.0</ele><time>2026-05-03T13:30:57.001Z</time></trkpt><trkpt lat="46.02381793217429" lon="12.043445552435266"><ele>595.0</ele><time>2026-05-03T13:30:58.001Z</time></trkpt><trkpt lat="46.023922931047416" lon="12.043367315406769"><ele>595.0</ele><time>2026-05-03T13:30:59.001Z</time></trkpt><trkpt lat="46.02402633497833" lon="12.043279781635205"><ele>595.0</ele><time>2026-05-03T13:31:00.001Z</time></trkpt><trkpt lat="46.024124692652194" lon="12.04319482398252"><ele>598.25</ele><time>2026-05-03T13:31:01.001Z</time></trkpt><trkpt lat="46.02423773517591" lon="12.043139087215101"><ele>601.5</ele><time>2026-05-03T13:31:02.001Z</time></trkpt><trkpt lat="46.02433928879765" lon="12.043069185817885"><ele>604.75</ele><time>2026-05-03T13:31:03.001Z</time></trkpt><trkpt lat="46.02444260801438" lon="12.04300649388721"><ele>608.0</ele><time>2026-05-03T13:31:04.001Z</time></trkpt><trkpt lat="46.02453986783172" lon="12.042947612006893"><ele>608.0</ele><time>2026-05-03T13:31:05.001Z</time></trkpt><trkpt lat="46.024629960900484" lon="12.042859455399018"><ele>608.0</ele><time>2026-05-03T13:31:06.001Z</time></trkpt><trkpt lat="46.0247261068891" lon="12.042783992626036"><ele>608.0</ele><time>2026-05-03T13:31:07.001Z</time></trkpt><trkpt lat="46.02480368815733" lon="12.042703654790456"><ele>608.0</ele><time>2026-05-03T13:31:08.001Z</time></trkpt><trkpt lat="46.0248821936984" lon="12.042604532442821"><ele>608.0</ele><time>2026-05-03T13:31:09.001Z</time></trkpt><trkpt lat="46.024935693528214" lon="12.042519859017403"><ele>609.8333333333333</ele><time>2026-05-03T13:31:10.001Z</time></trkpt><trkpt lat="46.02497449095083" lon="12.042358793871644"><ele>611.6666666666666</ele><time>2026-05-03T13:31:12.001Z</time></trkpt><trkpt lat="46.02496993505666" lon="12.042261451418415"><ele>613.5</ele><time>2026-05-03T13:31:13.001Z</time></trkpt><trkpt lat="46.024948892361216" lon="12.04216289935397"><ele>615.3333333333334</ele><time>2026-05-03T13:31:14.001Z</time></trkpt><trkpt lat="46.024926615127846" lon="12.042046225030804"><ele>617.1666666666667</ele><time>2026-05-03T13:31:15.001Z</time></trkpt><trkpt lat="46.02490141346253" lon="12.04192082124491"><ele>619.0</ele><time>2026-05-03T13:31:16.001Z</time></trkpt><trkpt lat="46.0248792087321" lon="12.041783415785146"><ele>619.0</ele><time>2026-05-03T13:31:17.001Z</time></trkpt><trkpt lat="46.02486185015924" lon="12.041644266119278"><ele>619.0</ele><time>2026-05-03T13:31:18.001Z</time></trkpt><trkpt lat="46.02489014984719" lon="12.041511740177162"><ele>619.0</ele><time>2026-05-03T13:31:19.001Z</time></trkpt><trkpt lat="46.024926954759046" lon="12.041394479237924"><ele>619.0</ele><time>2026-05-03T13:31:20.001Z</time></trkpt><trkpt lat="46.02498502076672" lon="12.04128525364746"><ele>619.0</ele><time>2026-05-03T13:31:21.001Z</time></trkpt><trkpt lat="46.02505711147711" lon="12.04118037006381"><ele>617.25</ele><time>2026-05-03T13:31:22.001Z</time></trkpt><trkpt lat="46.02515305527362" lon="12.041063182305395"><ele>615.5</ele><time>2026-05-03T13:31:23.001Z</time></trkpt><trkpt lat="46.025258493762635" lon="12.040941002311254"><ele>613.75</ele><time>2026-05-03T13:31:24.001Z</time></trkpt><trkpt lat="46.025364616518694" lon="12.04082377543507"><ele>612.0</ele><time>2026-05-03T13:31:25.001Z</time></trkpt><trkpt lat="46.02546314467817" lon="12.04069799779625"><ele>611.2</ele><time>2026-05-03T13:31:26.001Z</time></trkpt><trkpt lat="46.02553449972852" lon="12.040568243556296"><ele>610.4000000000001</ele><time>2026-05-03T13:31:27.001Z</time></trkpt><trkpt lat="46.025600561699186" lon="12.040474075846344"><ele>609.5999999999999</ele><time>2026-05-03T13:31:28.001Z</time></trkpt><trkpt lat="46.02566333067442" lon="12.040368386548666"><ele>608.8</ele><time>2026-05-03T13:31:29.001Z</time></trkpt><trkpt lat="46.02574970635582" lon="12.040298570731046"><ele>608.0</ele><time>2026-05-03T13:31:30.001Z</time></trkpt><trkpt lat="46.025847549759476" lon="12.040211279516535"><ele>608.0</ele><time>2026-05-03T13:31:31.001Z</time></trkpt><trkpt lat="46.025945918446304" lon="12.04013768571027"><ele>608.0</ele><time>2026-05-03T13:31:32.001Z</time></trkpt><trkpt lat="46.02603946057929" lon="12.04006630110459"><ele>608.0</ele><time>2026-05-03T13:31:33.001Z</time></trkpt><trkpt lat="46.02613078744956" lon="12.039973435773817"><ele>608.0</ele><time>2026-05-03T13:31:34.001Z</time></trkpt><trkpt lat="46.02622676165391" lon="12.039895672119883"><ele>608.0</ele><time>2026-05-03T13:31:35.001Z</time></trkpt><trkpt lat="46.026311066041686" lon="12.03979768956925"><ele>612.0</ele><time>2026-05-03T13:31:36.001Z</time></trkpt><trkpt lat="46.026389332093736" lon="12.03968584959457"><ele>616.0</ele><time>2026-05-03T13:31:37.001Z</time></trkpt><trkpt lat="46.02647599163085" lon="12.039566722451939"><ele>620.0</ele><time>2026-05-03T13:31:38.001Z</time></trkpt><trkpt lat="46.02657772162425" lon="12.039456482824688"><ele>624.0</ele><time>2026-05-03T13:31:39.001Z</time></trkpt><trkpt lat="46.02666565290187" lon="12.03932932439574"><ele>620.5</ele><time>2026-05-03T13:31:40.001Z</time></trkpt><trkpt lat="46.026739868743284" lon="12.039187452195973"><ele>617.0</ele><time>2026-05-03T13:31:41.001Z</time></trkpt><trkpt lat="46.02682571601976" lon="12.039056271056202"><ele>613.5</ele><time>2026-05-03T13:31:42.001Z</time></trkpt><trkpt lat="46.026926417011865" lon="12.038954610691277"><ele>610.0</ele><time>2026-05-03T13:31:43.001Z</time></trkpt><trkpt lat="46.0270179521055" lon="12.038844642949286"><ele>610.0</ele><time>2026-05-03T13:31:44.001Z</time></trkpt><trkpt lat="46.027092561109676" lon="12.038699971415646"><ele>610.0</ele><time>2026-05-03T13:31:45.001Z</time></trkpt><trkpt lat="46.02717345366567" lon="12.03855081157108"><ele>610.0</ele><time>2026-05-03T13:31:46.001Z</time></trkpt><trkpt lat="46.027259580981244" lon="12.038382165541657"><ele>610.0</ele><time>2026-05-03T13:31:47.001Z</time></trkpt><trkpt lat="46.02733877831917" lon="12.038194601143154"><ele>612.0</ele><time>2026-05-03T13:31:48.001Z</time></trkpt><trkpt lat="46.027407302081734" lon="12.03798523483549"><ele>614.0</ele><time>2026-05-03T13:31:49.001Z</time></trkpt><trkpt lat="46.02747109070663" lon="12.037764771337082"><ele>616.0</ele><time>2026-05-03T13:31:50.001Z</time></trkpt><trkpt lat="46.02753532890771" lon="12.037533758788097"><ele>608.6666666666667</ele><time>2026-05-03T13:31:51Z</time></trkpt><trkpt lat="46.027624317279475" lon="12.037314273346151"><ele>601.3333333333334</ele><time>2026-05-03T13:31:52Z</time></trkpt><trkpt lat="46.02769516268611" lon="12.037076262909967"><ele>594.0</ele><time>2026-05-03T13:31:53Z</time></trkpt><trkpt lat="46.027757751021234" lon="12.0368423683202"><ele>594.0</ele><time>2026-05-03T13:31:54Z</time></trkpt><trkpt lat="46.0278204638319" lon="12.036645149189713"><ele>594.0</ele><time>2026-05-03T13:31:55Z</time></trkpt><trkpt lat="46.02789705435311" lon="12.036475396347036"><ele>594.0</ele><time>2026-05-03T13:31:56Z</time></trkpt><trkpt lat="46.02799481682352" lon="12.036322094600452"><ele>594.0</ele><time>2026-05-03T13:31:57Z</time></trkpt><trkpt lat="46.02810172680536" lon="12.036161048336114"><ele>593.5</ele><time>2026-05-03T13:31:58Z</time></trkpt><trkpt lat="46.028223647473915" lon="12.036028535410749"><ele>593.0</ele><time>2026-05-03T13:31:59Z</time></trkpt><trkpt lat="46.02834892439849" lon="12.035911658843617"><ele>592.5</ele><time>2026-05-03T13:32:00Z</time></trkpt><trkpt lat="46.028463972961696" lon="12.035824384774324"><ele>592.0</ele><time>2026-05-03T13:32:01Z</time></trkpt><trkpt lat="46.0285568724059" lon="12.035748171056259"><ele>592.0</ele><time>2026-05-03T13:32:02Z</time></trkpt><trkpt lat="46.02862213703971" lon="12.035667851269533"><ele>592.0</ele><time>2026-05-03T13:32:03Z</time></trkpt><trkpt lat="46.02872465464485" lon="12.035580710144156"><ele>592.0</ele><time>2026-05-03T13:32:05.001Z</time></trkpt><trkpt lat="46.0288105848946" lon="12.035517617787656"><ele>592.0</ele><time>2026-05-03T13:32:07.001Z</time></trkpt><trkpt lat="46.02889709585254" lon="12.035474707066806"><ele>592.0</ele><time>2026-05-03T13:32:09.001Z</time></trkpt><trkpt lat="46.02885013974075" lon="12.035275914268407"><ele>592.0</ele><time>2026-05-03T13:32:10.001Z</time></trkpt><trkpt lat="46.02882014389766" lon="12.035175844455555"><ele>592.0</ele><time>2026-05-03T13:32:12.001Z</time></trkpt><trkpt lat="46.02877737532757" lon="12.035103513329876"><ele>592.0</ele><time>2026-05-03T13:32:14.001Z</time></trkpt><trkpt lat="46.0287110594257" lon="12.034976971659447"><ele>592.0</ele><time>2026-05-03T13:32:16.001Z</time></trkpt><trkpt lat="46.02867252266191" lon="12.034903785794251"><ele>592.0</ele><time>2026-05-03T13:32:17.001Z</time></trkpt><trkpt lat="46.028651678021774" lon="12.034810571827629"><ele>592.0</ele><time>2026-05-03T13:32:18.001Z</time></trkpt><trkpt lat="46.028597115534836" lon="12.034762682784596"><ele>592.0</ele><time>2026-05-03T13:32:19.001Z</time></trkpt><trkpt lat="46.028528543143565" lon="12.03467081162586"><ele>591.8000000000001</ele><time>2026-05-03T13:32:21.001Z</time></trkpt><trkpt lat="46.028450467883104" lon="12.03457594773766"><ele>591.6</ele><time>2026-05-03T13:32:23.001Z</time></trkpt><trkpt lat="46.02840105987555" lon="12.034444676871214"><ele>591.4000000000001</ele><time>2026-05-03T13:32:25.001Z</time></trkpt><trkpt lat="46.02832678731925" lon="12.03429269022692"><ele>591.2</ele><time>2026-05-03T13:32:27.001Z</time></trkpt><trkpt lat="46.02826744431333" lon="12.034232639002653"><ele>591.0</ele><time>2026-05-03T13:32:28.001Z</time></trkpt><trkpt lat="46.02820810774238" lon="12.034155914521532"><ele>595.0</ele><time>2026-05-03T13:32:29.001Z</time></trkpt><trkpt lat="46.02813521821382" lon="12.03407064340546"><ele>599.0</ele><time>2026-05-03T13:32:30.001Z</time></trkpt><trkpt lat="46.02805029553127" lon="12.033974533722757"><ele>603.0</ele><time>2026-05-03T13:32:31.001Z</time></trkpt><trkpt lat="46.027958993618576" lon="12.033873648160709"><ele>607.0</ele><time>2026-05-03T13:32:32.001Z</time></trkpt><trkpt lat="46.027881414009464" lon="12.033784076602924"><ele>611.0</ele><time>2026-05-03T13:32:33Z</time></trkpt><trkpt lat="46.02779417101878" lon="12.033680419764524"><ele>611.0</ele><time>2026-05-03T13:32:34Z</time></trkpt><trkpt lat="46.02770124743501" lon="12.03356287947605"><ele>611.0</ele><time>2026-05-03T13:32:35Z</time></trkpt><trkpt lat="46.02760634024024" lon="12.03344469686595"><ele>611.0</ele><time>2026-05-03T13:32:36Z</time></trkpt><trkpt lat="46.0275174368255" lon="12.033310277491669"><ele>611.0</ele><time>2026-05-03T13:32:37Z</time></trkpt><trkpt lat="46.02743743678054" lon="12.033169645855597"><ele>617.5</ele><time>2026-05-03T13:32:38Z</time></trkpt><trkpt lat="46.0273819782093" lon="12.03299267481429"><ele>624.0</ele><time>2026-05-03T13:32:39Z</time></trkpt><trkpt lat="46.027319226781266" lon="12.032821623832255"><ele>630.5</ele><time>2026-05-03T13:32:40Z</time></trkpt><trkpt lat="46.02725046012797" lon="12.03266113321239"><ele>637.0</ele><time>2026-05-03T13:32:41Z</time></trkpt><trkpt lat="46.02719307200879" lon="12.032501851107844"><ele>635.5</ele><time>2026-05-03T13:32:42Z</time></trkpt><trkpt lat="46.0271322341114" lon="12.032327990496933"><ele>634.0</ele><time>2026-05-03T13:32:43Z</time></trkpt><trkpt lat="46.027072278918745" lon="12.032155945707991"><ele>632.5</ele><time>2026-05-03T13:32:44Z</time></trkpt><trkpt lat="46.027010572963555" lon="12.031978804432624"><ele>631.0</ele><time>2026-05-03T13:32:45Z</time></trkpt><trkpt lat="46.02696173247655" lon="12.03178217655127"><ele>630.75</ele><time>2026-05-03T13:32:46Z</time></trkpt><trkpt lat="46.026901596698956" lon="12.031590526509516"><ele>630.5</ele><time>2026-05-03T13:32:47Z</time></trkpt><trkpt lat="46.02684211517075" lon="12.031399198808536"><ele>630.25</ele><time>2026-05-03T13:32:48Z</time></trkpt><trkpt lat="46.026768893118316" lon="12.031211778324055"><ele>630.0</ele><time>2026-05-03T13:32:49Z</time></trkpt><trkpt lat="46.0267039285685" lon="12.031009460053573"><ele>630.0</ele><time>2026-05-03T13:32:50Z</time></trkpt><trkpt lat="46.026648417033584" lon="12.030814292380464"><ele>630.0</ele><time>2026-05-03T13:32:51Z</time></trkpt><trkpt lat="46.026595304226696" lon="12.030646457339742"><ele>630.0</ele><time>2026-05-03T13:32:52Z</time></trkpt><trkpt lat="46.02652908965986" lon="12.030455699502268"><ele>630.0</ele><time>2026-05-03T13:32:53Z</time></trkpt><trkpt lat="46.02648364019683" lon="12.030248104158801"><ele>637.3333333333334</ele><time>2026-05-03T13:32:54Z</time></trkpt><trkpt lat="46.02642292368489" lon="12.0300435615711"><ele>644.6666666666667</ele><time>2026-05-03T13:32:55Z</time></trkpt><trkpt lat="46.02636177493486" lon="12.029827540281975"><ele>652.0</ele><time>2026-05-03T13:32:56Z</time></trkpt><trkpt lat="46.02628562004211" lon="12.029613803775485"><ele>652.3333333333334</ele><time>2026-05-03T13:32:57Z</time></trkpt><trkpt lat="46.02623902047749" lon="12.029395712563437"><ele>652.6666666666666</ele><time>2026-05-03T13:32:58Z</time></trkpt><trkpt lat="46.02620045849834" lon="12.029181591155048"><ele>653.0</ele><time>2026-05-03T13:32:59Z</time></trkpt><trkpt lat="46.02615012323454" lon="12.028981464633429"><ele>653.0</ele><time>2026-05-03T13:33:00Z</time></trkpt><trkpt lat="46.02610253530502" lon="12.028786875720582"><ele>653.0</ele><time>2026-05-03T13:33:01Z</time></trkpt><trkpt lat="46.0260541738991" lon="12.028629755681457"><ele>653.0</ele><time>2026-05-03T13:33:02Z</time></trkpt><trkpt lat="46.02597982256552" lon="12.028514310042478"><ele>653.0</ele><time>2026-05-03T13:33:03Z</time></trkpt><trkpt lat="46.0258791872509" lon="12.02843400457203"><ele>656.5</ele><time>2026-05-03T13:33:04Z</time></trkpt><trkpt lat="46.025756389216916" lon="12.028372549206226"><ele>660.0</ele><time>2026-05-03T13:33:05Z</time></trkpt><trkpt lat="46.02561915543795" lon="12.028303966433073"><ele>663.5</ele><time>2026-05-03T13:33:06Z</time></trkpt><trkpt lat="46.02550786531022" lon="12.028194072207965"><ele>667.0</ele><time>2026-05-03T13:33:07Z</time></trkpt><trkpt lat="46.025419315176144" lon="12.028093686259279"><ele>667.0</ele><time>2026-05-03T13:33:08Z</time></trkpt><trkpt lat="46.02537852031942" lon="12.027939615469316"><ele>667.0</ele><time>2026-05-03T13:33:09Z</time></trkpt><trkpt lat="46.02535791641304" lon="12.027756713259913"><ele>667.0</ele><time>2026-05-03T13:33:10Z</time></trkpt><trkpt lat="46.02532494509537" lon="12.027539787129994"><ele>667.0</ele><time>2026-05-03T13:33:11Z</time></trkpt><trkpt lat="46.025293156862155" lon="12.02731127051358"><ele>666.6666666666667</ele><time>2026-05-03T13:33:12Z</time></trkpt><trkpt lat="46.02525595772769" lon="12.027072888053157"><ele>666.3333333333334</ele><time>2026-05-03T13:33:13Z</time></trkpt><trkpt lat="46.02521194508922" lon="12.026847002689053"><ele>666.0</ele><time>2026-05-03T13:33:14Z</time></trkpt><trkpt lat="46.0251486891646" lon="12.02662740897544"><ele>665.6666666666666</ele><time>2026-05-03T13:33:15Z</time></trkpt><trkpt lat="46.025097312239794" lon="12.026414934645818"><ele>665.3333333333333</ele><time>2026-05-03T13:33:16Z</time></trkpt><trkpt lat="46.025038092390204" lon="12.026198979379672"><ele>665.0</ele><time>2026-05-03T13:33:17Z</time></trkpt><trkpt lat="46.02496984683635" lon="12.025980236227582"><ele>671.3333333333333</ele><time>2026-05-03T13:33:18Z</time></trkpt><trkpt lat="46.02489398069704" lon="12.025766275799539"><ele>677.6666666666666</ele><time>2026-05-03T13:33:19Z</time></trkpt><trkpt lat="46.0248125632994" lon="12.025558603479823"><ele>684.0</ele><time>2026-05-03T13:33:20Z</time></trkpt><trkpt lat="46.024721072107134" lon="12.025347696596315"><ele>684.0</ele><time>2026-05-03T13:33:21Z</time></trkpt><trkpt lat="46.02463050188091" lon="12.025135267632567"><ele>684.0</ele><time>2026-05-03T13:33:22Z</time></trkpt><trkpt lat="46.02454493733784" lon="12.024927333830327"><ele>684.0</ele><time>2026-05-03T13:33:23Z</time></trkpt><trkpt lat="46.024461168802056" lon="12.024722725388175"><ele>683.0</ele><time>2026-05-03T13:33:24Z</time></trkpt><trkpt lat="46.02439541704662" lon="12.024523922121299"><ele>682.0</ele><time>2026-05-03T13:33:25Z</time></trkpt><trkpt lat="46.024319268239516" lon="12.024384566586928"><ele>681.0</ele><time>2026-05-03T13:33:26Z</time></trkpt><trkpt lat="46.02426058490877" lon="12.024263110381662"><ele>680.0</ele><time>2026-05-03T13:33:27Z</time></trkpt><trkpt lat="46.02421330864448" lon="12.024175404997298"><ele>679.0</ele><time>2026-05-03T13:33:28Z</time></trkpt><trkpt lat="46.02414818572834" lon="12.024134384740679"><ele>678.0</ele><time>2026-05-03T13:33:29Z</time></trkpt><trkpt lat="46.02407583560126" lon="12.024167476755784"><ele>677.0</ele><time>2026-05-03T13:33:30Z</time></trkpt><trkpt lat="46.023981565488924" lon="12.024380035733218"><ele>676.0</ele><time>2026-05-03T13:33:32.001Z</time></trkpt><trkpt lat="46.02398206132868" lon="12.024533335096546"><ele>675.0</ele><time>2026-05-03T13:33:33.001Z</time></trkpt><trkpt lat="46.02402014082992" lon="12.024688241340268"><ele>677.25</ele><time>2026-05-03T13:33:34.001Z</time></trkpt><trkpt lat="46.024063876414054" lon="12.024871928180106"><ele>679.5</ele><time>2026-05-03T13:33:35.001Z</time></trkpt><trkpt lat="46.02412853004221" lon="12.025059536323145"><ele>681.75</ele><time>2026-05-03T13:33:36.001Z</time></trkpt><trkpt lat="46.02418268563422" lon="12.025229127403223"><ele>684.0</ele><time>2026-05-03T13:33:37.001Z</time></trkpt><trkpt lat="46.02419328254383" lon="12.025392235284816"><ele>684.0</ele><time>2026-05-03T13:33:38.001Z</time></trkpt><trkpt lat="46.02418624879442" lon="12.025564802524574"><ele>684.0</ele><time>2026-05-03T13:33:39.001Z</time></trkpt><trkpt lat="46.024137676169026" lon="12.025717312910528"><ele>684.0</ele><time>2026-05-03T13:33:40.001Z</time></trkpt><trkpt lat="46.024075878704004" lon="12.025922491159598"><ele>684.0</ele><time>2026-05-03T13:33:41.001Z</time></trkpt><trkpt lat="46.02401824209512" lon="12.026125557358164"><ele>691.0</ele><time>2026-05-03T13:33:42.001Z</time></trkpt><trkpt lat="46.02394849733881" lon="12.026304504173229"><ele>698.0</ele><time>2026-05-03T13:33:43.001Z</time></trkpt><trkpt lat="46.023874252757906" lon="12.02645579435224"><ele>705.0</ele><time>2026-05-03T13:33:44.001Z</time></trkpt><trkpt lat="46.023785695209895" lon="12.026607701945439"><ele>712.0</ele><time>2026-05-03T13:33:45.001Z</time></trkpt><trkpt lat="46.02367761327372" lon="12.026765521435541"><ele>712.0</ele><time>2026-05-03T13:33:46.001Z</time></trkpt><trkpt lat="46.02356132647037" lon="12.02691238015158"><ele>712.0</ele><time>2026-05-03T13:33:47.001Z</time></trkpt><trkpt lat="46.02344267563842" lon="12.027020946407939"><ele>712.0</ele><time>2026-05-03T13:33:48.001Z</time></trkpt><trkpt lat="46.02334490676534" lon="12.027072929204358"><ele>712.0</ele><time>2026-05-03T13:33:49.001Z</time></trkpt><trkpt lat="46.02327187134721" lon="12.02707911972199"><ele>715.4000000000001</ele><time>2026-05-03T13:33:50.001Z</time></trkpt><trkpt lat="46.02319858358451" lon="12.027053899984665"><ele>718.8000000000001</ele><time>2026-05-03T13:33:51.001Z</time></trkpt><trkpt lat="46.02315019630689" lon="12.02696669193373"><ele>722.2</ele><time>2026-05-03T13:33:52.001Z</time></trkpt><trkpt lat="46.02311586391137" lon="12.026857671848813"><ele>725.6</ele><time>2026-05-03T13:33:53.001Z</time></trkpt><trkpt lat="46.023099680115536" lon="12.026730132993455"><ele>729.0</ele><time>2026-05-03T13:33:54.001Z</time></trkpt><trkpt lat="46.023076700839646" lon="12.026554844700636"><ele>729.5</ele><time>2026-05-03T13:33:55.001Z</time></trkpt><trkpt lat="46.02303749934452" lon="12.026358304879093"><ele>730.0</ele><time>2026-05-03T13:33:56.001Z</time></trkpt><trkpt lat="46.02299089321063" lon="12.026163949734043"><ele>730.5</ele><time>2026-05-03T13:33:57.001Z</time></trkpt><trkpt lat="46.0229381885549" lon="12.025953752110947"><ele>731.0</ele><time>2026-05-03T13:33:58.001Z</time></trkpt><trkpt lat="46.02287563742092" lon="12.025714641664118"><ele>731.0</ele><time>2026-05-03T13:33:59.001Z</time></trkpt><trkpt lat="46.022812039665034" lon="12.025487241652883"><ele>731.0</ele><time>2026-05-03T13:34:00.001Z</time></trkpt><trkpt lat="46.02276659446606" lon="12.025319403710107"><ele>731.0</ele><time>2026-05-03T13:34:01.001Z</time></trkpt><trkpt lat="46.02271695082296" lon="12.025175407430117"><ele>731.0</ele><time>2026-05-03T13:34:02.001Z</time></trkpt><trkpt lat="46.02266028994167" lon="12.025073005446709"><ele>731.0</ele><time>2026-05-03T13:34:03.001Z</time></trkpt><trkpt lat="46.0225963863844" lon="12.025008183809327"><ele>731.0</ele><time>2026-05-03T13:34:04.001Z</time></trkpt><trkpt lat="46.022500204545956" lon="12.025009568738358"><ele>731.0</ele><time>2026-05-03T13:34:05.001Z</time></trkpt><trkpt lat="46.02239409872495" lon="12.025032487199592"><ele>731.0</ele><time>2026-05-03T13:34:06.001Z</time></trkpt><trkpt lat="46.022273957731564" lon="12.025042920389236"><ele>731.0</ele><time>2026-05-03T13:34:07.001Z</time></trkpt><trkpt lat="46.02216776111658" lon="12.025021782954747"><ele>733.5</ele><time>2026-05-03T13:34:08.001Z</time></trkpt><trkpt lat="46.022078600664855" lon="12.024951320960096"><ele>736.0</ele><time>2026-05-03T13:34:09.001Z</time></trkpt><trkpt lat="46.02203871134754" lon="12.024789545171712"><ele>738.5</ele><time>2026-05-03T13:34:10.001Z</time></trkpt><trkpt lat="46.02196461090725" lon="12.024651628631846"><ele>741.0</ele><time>2026-05-03T13:34:11.001Z</time></trkpt><trkpt lat="46.02188620007984" lon="12.024497647252126"><ele>741.0</ele><time>2026-05-03T13:34:12.001Z</time></trkpt><trkpt lat="46.021786871079065" lon="12.024352422197932"><ele>741.0</ele><time>2026-05-03T13:34:13.001Z</time></trkpt><trkpt lat="46.021701059462096" lon="12.024209905435491"><ele>741.0</ele><time>2026-05-03T13:34:14.001Z</time></trkpt><trkpt lat="46.02158933429909" lon="12.024096742663344"><ele>741.0</ele><time>2026-05-03T13:34:15.001Z</time></trkpt><trkpt lat="46.02144854755343" lon="12.024013998517585"><ele>745.0</ele><time>2026-05-03T13:34:16.001Z</time></trkpt><trkpt lat="46.02129444855644" lon="12.023945801251815"><ele>749.0</ele><time>2026-05-03T13:34:17.001Z</time></trkpt><trkpt lat="46.02113919647187" lon="12.023861493127683"><ele>753.0</ele><time>2026-05-03T13:34:18.001Z</time></trkpt><trkpt lat="46.02098494136779" lon="12.023772416699986"><ele>753.0</ele><time>2026-05-03T13:34:19.001Z</time></trkpt><trkpt lat="46.020849994292725" lon="12.023651386937214"><ele>753.0</ele><time>2026-05-03T13:34:20.001Z</time></trkpt><trkpt lat="46.02071766785897" lon="12.023533143344288"><ele>753.0</ele><time>2026-05-03T13:34:21.001Z</time></trkpt><trkpt lat="46.020580476049176" lon="12.023421142289656"><ele>758.25</ele><time>2026-05-03T13:34:22.001Z</time></trkpt><trkpt lat="46.020467989493454" lon="12.023304366669295"><ele>763.5</ele><time>2026-05-03T13:34:23.001Z</time></trkpt><trkpt lat="46.02037283246318" lon="12.023229122197876"><ele>768.75</ele><time>2026-05-03T13:34:24.001Z</time></trkpt><trkpt lat="46.02026643275694" lon="12.023184060248523"><ele>774.0</ele><time>2026-05-03T13:34:25.001Z</time></trkpt><trkpt lat="46.02013602221306" lon="12.023188411630029"><ele>778.3333333333333</ele><time>2026-05-03T13:34:26.001Z</time></trkpt><trkpt lat="46.01997845115512" lon="12.023207444219226"><ele>782.6666666666666</ele><time>2026-05-03T13:34:27.001Z</time></trkpt><trkpt lat="46.019817924367125" lon="12.023240014338356"><ele>787.0</ele><time>2026-05-03T13:34:28.001Z</time></trkpt><trkpt lat="46.01964650200657" lon="12.023278095285761"><ele>787.0</ele><time>2026-05-03T13:34:29.001Z</time></trkpt><trkpt lat="46.01947156825698" lon="12.023300872646667"><ele>787.0</ele><time>2026-05-03T13:34:30.001Z</time></trkpt><trkpt lat="46.01930490903651" lon="12.023320538533738"><ele>787.0</ele><time>2026-05-03T13:34:31.001Z</time></trkpt><trkpt lat="46.01917880230705" lon="12.023342376003274"><ele>789.6</ele><time>2026-05-03T13:34:32.001Z</time></trkpt><trkpt lat="46.01908353144379" lon="12.02331115665177"><ele>792.2</ele><time>2026-05-03T13:34:33.001Z</time></trkpt><trkpt lat="46.01900075037546" lon="12.023273620477756"><ele>794.8</ele><time>2026-05-03T13:34:34.001Z</time></trkpt><trkpt lat="46.01894186349032" lon="12.02317165973846"><ele>797.4</ele><time>2026-05-03T13:34:35.001Z</time></trkpt><trkpt lat="46.01888215663036" lon="12.023046051587608"><ele>800.0</ele><time>2026-05-03T13:34:36.001Z</time></trkpt><trkpt lat="46.01881656880581" lon="12.022922468842479"><ele>800.0</ele><time>2026-05-03T13:34:37.001Z</time></trkpt><trkpt lat="46.01872887753432" lon="12.022865650210617"><ele>800.0</ele><time>2026-05-03T13:34:38.001Z</time></trkpt><trkpt lat="46.018624633886795" lon="12.02286031383076"><ele>800.0</ele><time>2026-05-03T13:34:39.001Z</time></trkpt><trkpt lat="46.018524213436415" lon="12.022933024957357"><ele>800.0</ele><time>2026-05-03T13:34:40.001Z</time></trkpt><trkpt lat="46.01845334416867" lon="12.0230681599679"><ele>800.0</ele><time>2026-05-03T13:34:41.001Z</time></trkpt><trkpt lat="46.018445202393146" lon="12.023263618442348"><ele>801.5</ele><time>2026-05-03T13:34:42.001Z</time></trkpt><trkpt lat="46.018418142508885" lon="12.023459391172882"><ele>803.0</ele><time>2026-05-03T13:34:43.001Z</time></trkpt><trkpt lat="46.01842986333432" lon="12.023673019454156"><ele>804.5</ele><time>2026-05-03T13:34:44.001Z</time></trkpt><trkpt lat="46.01842805531731" lon="12.02390108136865"><ele>806.0</ele><time>2026-05-03T13:34:45.001Z</time></trkpt><trkpt lat="46.01842673350888" lon="12.02413745460213"><ele>810.3333333333334</ele><time>2026-05-03T13:34:46.001Z</time></trkpt><trkpt lat="46.01841236720907" lon="12.024370908307024"><ele>814.6666666666667</ele><time>2026-05-03T13:34:47.001Z</time></trkpt><trkpt lat="46.018400948932566" lon="12.024623436366241"><ele>819.0</ele><time>2026-05-03T13:34:48.001Z</time></trkpt><trkpt lat="46.018400676381646" lon="12.02488142862595"><ele>822.0</ele><time>2026-05-03T13:34:49.001Z</time></trkpt><trkpt lat="46.01840992081264" lon="12.025125848218488"><ele>825.0</ele><time>2026-05-03T13:34:50.001Z</time></trkpt><trkpt lat="46.01839568720733" lon="12.02537384686379"><ele>828.0</ele><time>2026-05-03T13:34:51.001Z</time></trkpt><trkpt lat="46.01839720607171" lon="12.02561979320974"><ele>829.3333333333333</ele><time>2026-05-03T13:34:52.001Z</time></trkpt><trkpt lat="46.018399611821124" lon="12.025874392764218"><ele>830.6666666666666</ele><time>2026-05-03T13:34:53.001Z</time></trkpt><trkpt lat="46.01840403603847" lon="12.026124886586954"><ele>832.0</ele><time>2026-05-03T13:34:54.001Z</time></trkpt><trkpt lat="46.01841176243827" lon="12.026359548230976"><ele>832.0</ele><time>2026-05-03T13:34:55.001Z</time></trkpt><trkpt lat="46.01841859015838" lon="12.026560395263257"><ele>832.0</ele><time>2026-05-03T13:34:56.001Z</time></trkpt><trkpt lat="46.01842154252974" lon="12.026708632322068"><ele>832.0</ele><time>2026-05-03T13:34:57.001Z</time></trkpt><trkpt lat="46.01841381660725" lon="12.026815891870566"><ele>832.0</ele><time>2026-05-03T13:34:58.001Z</time></trkpt><trkpt lat="46.01837281955902" lon="12.026900229447477"><ele>832.0</ele><time>2026-05-03T13:34:59Z</time></trkpt><trkpt lat="46.018317172943" lon="12.026957029478398"><ele>836.0</ele><time>2026-05-03T13:35:00Z</time></trkpt><trkpt lat="46.01823417831497" lon="12.02692986592019"><ele>840.0</ele><time>2026-05-03T13:35:01Z</time></trkpt><trkpt lat="46.01815168961346" lon="12.02686999772801"><ele>844.0</ele><time>2026-05-03T13:35:02Z</time></trkpt><trkpt lat="46.01807297762591" lon="12.02675931176722"><ele>848.0</ele><time>2026-05-03T13:35:03Z</time></trkpt><trkpt lat="46.01798054736662" lon="12.026649222936454"><ele>852.0</ele><time>2026-05-03T13:35:04Z</time></trkpt><trkpt lat="46.017891117220536" lon="12.026568397864562"><ele>852.0</ele><time>2026-05-03T13:35:05Z</time></trkpt><trkpt lat="46.01780551053597" lon="12.02656203560298"><ele>852.0</ele><time>2026-05-03T13:35:06Z</time></trkpt><trkpt lat="46.01771393814435" lon="12.026623710367407"><ele>852.0</ele><time>2026-05-03T13:35:07Z</time></trkpt><trkpt lat="46.01765842669894" lon="12.026775377860055"><ele>852.0</ele><time>2026-05-03T13:35:08Z</time></trkpt><trkpt lat="46.017639191572094" lon="12.026969160271191"><ele>852.0</ele><time>2026-05-03T13:35:09Z</time></trkpt><trkpt lat="46.01765058664541" lon="12.027155399099025"><ele>853.25</ele><time>2026-05-03T13:35:10Z</time></trkpt><trkpt lat="46.01766577908827" lon="12.027335323275796"><ele>854.5</ele><time>2026-05-03T13:35:11Z</time></trkpt><trkpt lat="46.017668702133406" lon="12.027526943543226"><ele>855.75</ele><time>2026-05-03T13:35:12Z</time></trkpt><trkpt lat="46.01765766376704" lon="12.027735119510902"><ele>857.0</ele><time>2026-05-03T13:35:13Z</time></trkpt><trkpt lat="46.017648537719815" lon="12.027941526383728"><ele>858.25</ele><time>2026-05-03T13:35:14Z</time></trkpt><trkpt lat="46.017655885355154" lon="12.02814561969122"><ele>859.5</ele><time>2026-05-03T13:35:15Z</time></trkpt><trkpt lat="46.01763320401843" lon="12.028317101536755"><ele>860.75</ele><time>2026-05-03T13:35:16Z</time></trkpt><trkpt lat="46.01759490503924" lon="12.028465254611332"><ele>862.0</ele><time>2026-05-03T13:35:17Z</time></trkpt><trkpt lat="46.01753538498315" lon="12.02856598626062"><ele>865.0</ele><time>2026-05-03T13:35:18Z</time></trkpt><trkpt lat="46.01745234712576" lon="12.028587611956166"><ele>868.0</ele><time>2026-05-03T13:35:19Z</time></trkpt><trkpt lat="46.01733818218194" lon="12.028625424278143"><ele>871.0</ele><time>2026-05-03T13:35:20.001Z</time></trkpt><trkpt lat="46.01720623079952" lon="12.028648840389106"><ele>874.0</ele><time>2026-05-03T13:35:21.001Z</time></trkpt><trkpt lat="46.01705776476207" lon="12.028694149556586"><ele>874.0</ele><time>2026-05-03T13:35:22.001Z</time></trkpt><trkpt lat="46.01692615912895" lon="12.028710925019585"><ele>874.0000000000001</ele><time>2026-05-03T13:35:23.001Z</time></trkpt><trkpt lat="46.0168333264589" lon="12.028776152842298"><ele>874.0000000000001</ele><time>2026-05-03T13:35:24.001Z</time></trkpt><trkpt lat="46.01677490497203" lon="12.028885179958715"><ele>874.0</ele><time>2026-05-03T13:35:25.001Z</time></trkpt><trkpt lat="46.01675942956369" lon="12.029022343820968"><ele>874.0</ele><time>2026-05-03T13:35:26.001Z</time></trkpt><trkpt lat="46.016784193918596" lon="12.029174877374832"><ele>875.0</ele><time>2026-05-03T13:35:27.001Z</time></trkpt><trkpt lat="46.0168547674186" lon="12.029318824266127"><ele>876.0000000000001</ele><time>2026-05-03T13:35:28.001Z</time></trkpt><trkpt lat="46.01689967036528" lon="12.029472169628988"><ele>877.0000000000001</ele><time>2026-05-03T13:35:29.001Z</time></trkpt><trkpt lat="46.0169436761107" lon="12.029607400773306"><ele>878.0</ele><time>2026-05-03T13:35:30.001Z</time></trkpt><trkpt lat="46.01695964820869" lon="12.02973556466583"><ele>879.0</ele><time>2026-05-03T13:35:31.001Z</time></trkpt><trkpt lat="46.016941224623395" lon="12.029850513187094"><ele>879.0</ele><time>2026-05-03T13:35:32.001Z</time></trkpt><trkpt lat="46.016921675333386" lon="12.029967393924162"><ele>879.0</ele><time>2026-05-03T13:35:33.001Z</time></trkpt><trkpt lat="46.01689996475498" lon="12.030096240587044"><ele>879.0</ele><time>2026-05-03T13:35:34.001Z</time></trkpt><trkpt lat="46.01688035193103" lon="12.030219581818393"><ele>879.0</ele><time>2026-05-03T13:35:35.001Z</time></trkpt><trkpt lat="46.01686745658719" lon="12.03031532858504"><ele>879.0</ele><time>2026-05-03T13:35:36.001Z</time></trkpt><trkpt lat="46.016866676917466" lon="12.03041695556593"><ele>879.0</ele><time>2026-05-03T13:35:37.001Z</time></trkpt><trkpt lat="46.01678857280666" lon="12.030558009748335"><ele>879.2</ele><time>2026-05-03T13:35:39.001Z</time></trkpt><trkpt lat="46.01666381605589" lon="12.030610450341683"><ele>879.4000000000001</ele><time>2026-05-03T13:35:41.001Z</time></trkpt><trkpt lat="46.01659866330756" lon="12.030553740256943"><ele>879.6</ele><time>2026-05-03T13:35:42.001Z</time></trkpt><trkpt lat="46.01654733900305" lon="12.030481685775918"><ele>879.8</ele><time>2026-05-03T13:35:43.001Z</time></trkpt><trkpt lat="46.01647457567223" lon="12.030368342516427"><ele>880.0</ele><time>2026-05-03T13:35:44.001Z</time></trkpt><trkpt lat="46.016386222661325" lon="12.030220645287123"><ele>885.75</ele><time>2026-05-03T13:35:45.001Z</time></trkpt><trkpt lat="46.016291442177774" lon="12.030061419591512"><ele>891.5</ele><time>2026-05-03T13:35:46.001Z</time></trkpt><trkpt lat="46.016191732681854" lon="12.029900572275688"><ele>897.25</ele><time>2026-05-03T13:35:47.001Z</time></trkpt><trkpt lat="46.01611401039606" lon="12.029733627486946"><ele>903.0</ele><time>2026-05-03T13:35:48.001Z</time></trkpt><trkpt lat="46.01605264201259" lon="12.029538281364076"><ele>903.0</ele><time>2026-05-03T13:35:49.001Z</time></trkpt><trkpt lat="46.01599405387679" lon="12.029330714173856"><ele>903.0</ele><time>2026-05-03T13:35:50.001Z</time></trkpt><trkpt lat="46.01594096006359" lon="12.02916248304082"><ele>903.0</ele><time>2026-05-03T13:35:51.001Z</time></trkpt><trkpt lat="46.01590674034687" lon="12.029018644531563"><ele>903.0</ele><time>2026-05-03T13:35:52.001Z</time></trkpt><trkpt lat="46.01587568017067" lon="12.028903395724834"><ele>902.6666666666666</ele><time>2026-05-03T13:35:53.001Z</time></trkpt><trkpt lat="46.015844240353644" lon="12.028816164164978"><ele>902.3333333333333</ele><time>2026-05-03T13:35:54.001Z</time></trkpt><trkpt lat="46.01577937630282" lon="12.02878610556571"><ele>902.0</ele><time>2026-05-03T13:35:55.001Z</time></trkpt><trkpt lat="46.015695759571805" lon="12.02883054806963"><ele>901.6666666666666</ele><time>2026-05-03T13:35:56.001Z</time></trkpt><trkpt lat="46.015626932432546" lon="12.028925532597246"><ele>901.3333333333333</ele><time>2026-05-03T13:35:57.001Z</time></trkpt><trkpt lat="46.01559452279427" lon="12.029067832878692"><ele>901.0</ele><time>2026-05-03T13:35:58.001Z</time></trkpt><trkpt lat="46.015610216175226" lon="12.029212801375047"><ele>906.5</ele><time>2026-05-03T13:35:59.001Z</time></trkpt><trkpt lat="46.015656286536704" lon="12.029370495595918"><ele>912.0</ele><time>2026-05-03T13:36:00.001Z</time></trkpt><trkpt lat="46.015700055931475" lon="12.029548333077624"><ele>917.5</ele><time>2026-05-03T13:36:01.001Z</time></trkpt><trkpt lat="46.01575005722107" lon="12.02971764130485"><ele>923.0</ele><time>2026-05-03T13:36:02.001Z</time></trkpt><trkpt lat="46.01579501062534" lon="12.029916340170534"><ele>921.8333333333334</ele><time>2026-05-03T13:36:03.001Z</time></trkpt><trkpt lat="46.01575830034859" lon="12.03005597240116"><ele>920.6666666666667</ele><time>2026-05-03T13:36:04.001Z</time></trkpt><trkpt lat="46.01569896913534" lon="12.030150290219547"><ele>919.5</ele><time>2026-05-03T13:36:05.001Z</time></trkpt><trkpt lat="46.01560904521152" lon="12.030188625767021"><ele>918.3333333333333</ele><time>2026-05-03T13:36:06.001Z</time></trkpt><trkpt lat="46.015528290037736" lon="12.030228099501421"><ele>917.1666666666666</ele><time>2026-05-03T13:36:07.001Z</time></trkpt><trkpt lat="46.01546435425304" lon="12.030205116581566"><ele>916.0</ele><time>2026-05-03T13:36:08.001Z</time></trkpt><trkpt lat="46.01540038494098" lon="12.030188414748796"><ele>916.0</ele><time>2026-05-03T13:36:09.001Z</time></trkpt><trkpt lat="46.01532826365302" lon="12.030167588096264"><ele>915.9999999999999</ele><time>2026-05-03T13:36:10.001Z</time></trkpt><trkpt lat="46.015212670366466" lon="12.030076068505839"><ele>915.9999999999999</ele><time>2026-05-03T13:36:12.001Z</time></trkpt><trkpt lat="46.015137795031954" lon="12.030031050486137"><ele>916.0</ele><time>2026-05-03T13:36:13.001Z</time></trkpt><trkpt lat="46.01507803267857" lon="12.029934815338539"><ele>916.0</ele><time>2026-05-03T13:36:14.001Z</time></trkpt><trkpt lat="46.01500697286843" lon="12.029841420729342"><ele>918.4999999999999</ele><time>2026-05-03T13:36:15.001Z</time></trkpt><trkpt lat="46.01494279386156" lon="12.02974381443311"><ele>921.0</ele><time>2026-05-03T13:36:16.001Z</time></trkpt><trkpt lat="46.014891881031744" lon="12.029657973612803"><ele>923.5</ele><time>2026-05-03T13:36:17.001Z</time></trkpt><trkpt lat="46.01484992172336" lon="12.02956551699083"><ele>926.0</ele><time>2026-05-03T13:36:18.001Z</time></trkpt><trkpt lat="46.01480973985161" lon="12.029465101171198"><ele>928.4999999999999</ele><time>2026-05-03T13:36:19.001Z</time></trkpt><trkpt lat="46.01477191870934" lon="12.029360489287335"><ele>931.0</ele><time>2026-05-03T13:36:20.001Z</time></trkpt><trkpt lat="46.01474275553457" lon="12.029258352582515"><ele>931.0</ele><time>2026-05-03T13:36:21.001Z</time></trkpt><trkpt lat="46.014732057566015" lon="12.029158612536735"><ele>931.0</ele><time>2026-05-03T13:36:22.001Z</time></trkpt><trkpt lat="46.01473371763753" lon="12.029062832771091"><ele>931.0</ele><time>2026-05-03T13:36:23.001Z</time></trkpt><trkpt lat="46.014737002492716" lon="12.028957804903428"><ele>931.0</ele><time>2026-05-03T13:36:24.001Z</time></trkpt><trkpt lat="46.01474199690627" lon="12.028853732592168"><ele>931.0</ele><time>2026-05-03T13:36:25.001Z</time></trkpt><trkpt lat="46.01474287274168" lon="12.028755523825167"><ele>931.0</ele><time>2026-05-03T13:36:26.001Z</time></trkpt><trkpt lat="46.014724342659306" lon="12.028663977958496"><ele>931.0</ele><time>2026-05-03T13:36:27.001Z</time></trkpt><trkpt lat="46.01470256579731" lon="12.028564253287335"><ele>932.5714285714286</ele><time>2026-05-03T13:36:28.001Z</time></trkpt><trkpt lat="46.014662189816086" lon="12.02847025798624"><ele>934.1428571428571</ele><time>2026-05-03T13:36:29.001Z</time></trkpt><trkpt lat="46.01461757048528" lon="12.028390550690174"><ele>935.7142857142858</ele><time>2026-05-03T13:36:30.001Z</time></trkpt><trkpt lat="46.014573286321955" lon="12.028311497467858"><ele>937.2857142857143</ele><time>2026-05-03T13:36:31.001Z</time></trkpt><trkpt lat="46.01452630718397" lon="12.02822417822086"><ele>938.8571428571429</ele><time>2026-05-03T13:36:32.001Z</time></trkpt><trkpt lat="46.0144828688908" lon="12.02814265617365"><ele>940.4285714285716</ele><time>2026-05-03T13:36:33.001Z</time></trkpt><trkpt lat="46.014446348879815" lon="12.028060026528065"><ele>942.0000000000001</ele><time>2026-05-03T13:36:34.001Z</time></trkpt><trkpt lat="46.01440924488154" lon="12.027958970942942"><ele>942.8333333333334</ele><time>2026-05-03T13:36:35.001Z</time></trkpt><trkpt lat="46.01436066453026" lon="12.027861459453337"><ele>943.6666666666667</ele><time>2026-05-03T13:36:36.001Z</time></trkpt><trkpt lat="46.01431206600664" lon="12.027760274465495"><ele>944.5</ele><time>2026-05-03T13:36:37.001Z</time></trkpt><trkpt lat="46.014265284759084" lon="12.027661553419637"><ele>945.3333333333334</ele><time>2026-05-03T13:36:38.001Z</time></trkpt><trkpt lat="46.01421769580718" lon="12.027562062944087"><ele>946.1666666666667</ele><time>2026-05-03T13:36:39.001Z</time></trkpt><trkpt lat="46.01417124618114" lon="12.027464745732088"><ele>947.0</ele><time>2026-05-03T13:36:40.001Z</time></trkpt><trkpt lat="46.014104750848105" lon="12.027335286785576"><ele>959.6666666666667</ele><time>2026-05-03T13:36:41.001Z</time></trkpt><trkpt lat="46.01401672214367" lon="12.027171954835723"><ele>972.3333333333333</ele><time>2026-05-03T13:36:42.001Z</time></trkpt><trkpt lat="46.01392791600325" lon="12.02701779081352"><ele>985.0</ele><time>2026-05-03T13:36:43.001Z</time></trkpt><trkpt lat="46.01380491593961" lon="12.026807257735332"><ele>983.6666666666666</ele><time>2026-05-03T13:36:44.001Z</time></trkpt><trkpt lat="46.01370112937756" lon="12.026603858815383"><ele>982.3333333333333</ele><time>2026-05-03T13:36:45.001Z</time></trkpt><trkpt lat="46.01365138872679" lon="12.026373074319453"><ele>981.0</ele><time>2026-05-03T13:36:46.001Z</time></trkpt><trkpt lat="46.01359086770872" lon="12.026153742272804"><ele>981.0</ele><time>2026-05-03T13:36:47.001Z</time></trkpt><trkpt lat="46.013506189160964" lon="12.025948214591061"><ele>981.0</ele><time>2026-05-03T13:36:48.001Z</time></trkpt><trkpt lat="46.01342094439868" lon="12.025742677142079"><ele>981.0</ele><time>2026-05-03T13:36:49.001Z</time></trkpt><trkpt lat="46.01332526552791" lon="12.025584975086591"><ele>984.25</ele><time>2026-05-03T13:36:50.001Z</time></trkpt><trkpt lat="46.013218218158144" lon="12.025477617584745"><ele>987.5</ele><time>2026-05-03T13:36:51.001Z</time></trkpt><trkpt lat="46.01308892390735" lon="12.025411795679235"><ele>990.75</ele><time>2026-05-03T13:36:52.001Z</time></trkpt><trkpt lat="46.01295234102306" lon="12.025356607409417"><ele>994.0</ele><time>2026-05-03T13:36:53.001Z</time></trkpt><trkpt lat="46.01280629212291" lon="12.025302854499593"><ele>994.0</ele><time>2026-05-03T13:36:54.001Z</time></trkpt><trkpt lat="46.012696734067774" lon="12.025213656910896"><ele>994.0</ele><time>2026-05-03T13:36:55.001Z</time></trkpt><trkpt lat="46.01262153680646" lon="12.025085841174445"><ele>994.0</ele><time>2026-05-03T13:36:56.001Z</time></trkpt><trkpt lat="46.01256931073647" lon="12.024955258706086"><ele>994.0</ele><time>2026-05-03T13:36:57.001Z</time></trkpt><trkpt lat="46.01248981662863" lon="12.024840144487365"><ele>995.0</ele><time>2026-05-03T13:36:58.001Z</time></trkpt><trkpt lat="46.01242453454958" lon="12.024722975850613"><ele>996.0000000000001</ele><time>2026-05-03T13:36:59.001Z</time></trkpt><trkpt lat="46.0123426131295" lon="12.024658048636311"><ele>997.0000000000001</ele><time>2026-05-03T13:37:00.001Z</time></trkpt><trkpt lat="46.012248508615855" lon="12.024637972780571"><ele>998.0</ele><time>2026-05-03T13:37:01.001Z</time></trkpt><trkpt lat="46.01213823290078" lon="12.024609374075252"><ele>999.0</ele><time>2026-05-03T13:37:02.001Z</time></trkpt><trkpt lat="46.012033177518575" lon="12.024580178887003"><ele>999.0</ele><time>2026-05-03T13:37:03.001Z</time></trkpt><trkpt lat="46.01191393653158" lon="12.02454434546365"><ele>999.0</ele><time>2026-05-03T13:37:04.001Z</time></trkpt><trkpt lat="46.01179291907544" lon="12.02449339556581"><ele>999.0</ele><time>2026-05-03T13:37:05.001Z</time></trkpt><trkpt lat="46.01166998902045" lon="12.024447383993586"><ele>999.0</ele><time>2026-05-03T13:37:06.001Z</time></trkpt><trkpt lat="46.011550546872854" lon="12.024397048486566"><ele>1009.0</ele><time>2026-05-03T13:37:07.001Z</time></trkpt></trkseg></trk></gpx>